<?xml version='1.0' encoding='UTF-8'?><gpx version="1.1" creator="JPX - https://github.com/jenetics/jpx" xmlns="http://www.topografix.com/GPX/1/1"><trk><trkseg><trkpt lat="39.31270786666388" lon="16.246704867772"><ele>233.00000000000003</ele><time>2026-04-18T06:59:34.003Z</time></trkpt><trkpt lat="39.31271153229066" lon="16.24661018368794"><ele>233.0</ele><time>2026-04-18T06:59:38.003Z</time></trkpt><trkpt lat="39.31277884319338" lon="16.246565688913428"><ele>233.0</ele><time>2026-04-18T06:59:42.003Z</time></trkpt><trkpt lat="39.31284217908626" lon="16.24651371068972"><ele>233.0</ele><time>2026-04-18T06:59:44.003Z</time></trkpt><trkpt lat="39.312907207091335" lon="16.246397687395657"><ele>233.00000000000003</ele><time>2026-04-18T06:59:46.003Z</time></trkpt><trkpt lat="39.31291584487614" lon="16.246294983711394"><ele>233.0</ele><time>2026-04-18T06:59:47.003Z</time></trkpt><trkpt lat="39.3129142335314" lon="16.24618972487161"><ele>232.60000000000002</ele><time>2026-04-18T06:59:48.003Z</time></trkpt><trkpt lat="39.312905192348545" lon="16.246079730748804"><ele>232.20000000000002</ele><time>2026-04-18T06:59:49.003Z</time></trkpt><trkpt lat="39.312902820947556" lon="16.24595767902413"><ele>231.8</ele><time>2026-04-18T06:59:50.003Z</time></trkpt><trkpt lat="39.31290605420417" lon="16.245821705818177"><ele>231.4</ele><time>2026-04-18T06:59:51.003Z</time></trkpt><trkpt lat="39.312909842716714" lon="16.245686281059506"><ele>231.0</ele><time>2026-04-18T06:59:52.003Z</time></trkpt><trkpt lat="39.31290991520635" lon="16.245542934383074"><ele>231.0</ele><time>2026-04-18T06:59:53.003Z</time></trkpt><trkpt lat="39.312905901659455" lon="16.245392051468663"><ele>231.00000000000003</ele><time>2026-04-18T06:59:54.003Z</time></trkpt><trkpt lat="39.31290740619501" lon="16.245251201686287"><ele>231.00000000000003</ele><time>2026-04-18T06:59:55.003Z</time></trkpt><trkpt lat="39.31290761027933" lon="16.24512714239957"><ele>231.0</ele><time>2026-04-18T06:59:56.003Z</time></trkpt><trkpt lat="39.31290796868819" lon="16.24501679844694"><ele>231.0</ele><time>2026-04-18T06:59:57.003Z</time></trkpt><trkpt lat="39.312907421832755" lon="16.24491518401794"><ele>231.0</ele><time>2026-04-18T06:59:58.003Z</time></trkpt><trkpt lat="39.31290921075393" lon="16.244828119565906"><ele>231.00000000000003</ele><time>2026-04-18T06:59:59.003Z</time></trkpt><trkpt lat="39.31293418926847" lon="16.244685170949612"><ele>231.00000000000003</ele><time>2026-04-18T07:00:01.003Z</time></trkpt><trkpt lat="39.31299867907043" lon="16.244547285369805"><ele>231.0</ele><time>2026-04-18T07:00:03.003Z</time></trkpt><trkpt lat="39.313004514425636" lon="16.24442683760659"><ele>231.0</ele><time>2026-04-18T07:00:05.003Z</time></trkpt><trkpt lat="39.31290109029071" lon="16.244346132523813"><ele>232.0</ele><time>2026-04-18T07:00:07.003Z</time></trkpt><trkpt lat="39.31278210284023" lon="16.244384786184224"><ele>233.00000000000003</ele><time>2026-04-18T07:00:09.003Z</time></trkpt><trkpt lat="39.312725651387694" lon="16.244441728698295"><ele>234.00000000000003</ele><time>2026-04-18T07:00:10.003Z</time></trkpt><trkpt lat="39.31265386188057" lon="16.24449292312041"><ele>235.0</ele><time>2026-04-18T07:00:11.003Z</time></trkpt><trkpt lat="39.31255605467565" lon="16.2445208435484"><ele>236.0</ele><time>2026-04-18T07:00:12.003Z</time></trkpt><trkpt lat="39.31243380392333" lon="16.244543274029965"><ele>236.0</ele><time>2026-04-18T07:00:13.003Z</time></trkpt><trkpt lat="39.31230370397731" lon="16.24455348139864"><ele>236.0</ele><time>2026-04-18T07:00:14.003Z</time></trkpt><trkpt lat="39.31216314961607" lon="16.24456691379573"><ele>236.0</ele><time>2026-04-18T07:00:15.003Z</time></trkpt><trkpt lat="39.31202392504777" lon="16.244578152255855"><ele>236.0</ele><time>2026-04-18T07:00:16.003Z</time></trkpt><trkpt lat="39.31190449141568" lon="16.24459753855962"><ele>237.4</ele><time>2026-04-18T07:00:17.003Z</time></trkpt><trkpt lat="39.31179606837936" lon="16.24461373029754"><ele>238.8</ele><time>2026-04-18T07:00:18.003Z</time></trkpt><trkpt lat="39.311682231987845" lon="16.244628291423048"><ele>240.20000000000002</ele><time>2026-04-18T07:00:19.003Z</time></trkpt><trkpt lat="39.311565703262225" lon="16.244617775005693"><ele>241.60000000000002</ele><time>2026-04-18T07:00:20.003Z</time></trkpt><trkpt lat="39.311463791578994" lon="16.24464418197775"><ele>243.0</ele><time>2026-04-18T07:00:21.003Z</time></trkpt><trkpt lat="39.31137157195217" lon="16.244647763820495"><ele>243.66666666666666</ele><time>2026-04-18T07:00:22.003Z</time></trkpt><trkpt lat="39.311282919803574" lon="16.24465116803993"><ele>244.33333333333331</ele><time>2026-04-18T07:00:23.003Z</time></trkpt><trkpt lat="39.31120741594218" lon="16.24466010925087"><ele>245.0</ele><time>2026-04-18T07:00:24.003Z</time></trkpt><trkpt lat="39.3111365004489" lon="16.244672729037717"><ele>245.66666666666666</ele><time>2026-04-18T07:00:25.003Z</time></trkpt><trkpt lat="39.31105280698666" lon="16.244690734538132"><ele>246.33333333333331</ele><time>2026-04-18T07:00:26.003Z</time></trkpt><trkpt lat="39.31095406201201" lon="16.244703334882356"><ele>247.0</ele><time>2026-04-18T07:00:27.003Z</time></trkpt><trkpt lat="39.310848082175134" lon="16.244734450245222"><ele>246.99999999999997</ele><time>2026-04-18T07:00:28.003Z</time></trkpt><trkpt lat="39.31074665205317" lon="16.24476798476515"><ele>247.0</ele><time>2026-04-18T07:00:29.003Z</time></trkpt><trkpt lat="39.31066326789123" lon="16.24479955440684"><ele>247.0</ele><time>2026-04-18T07:00:30.003Z</time></trkpt><trkpt lat="39.31058795304453" lon="16.244837986035172"><ele>247.0</ele><time>2026-04-18T07:00:31.003Z</time></trkpt><trkpt lat="39.31051788156767" lon="16.244871826969877"><ele>246.99999999999997</ele><time>2026-04-18T07:00:32.003Z</time></trkpt><trkpt lat="39.31044033997593" lon="16.244910121575224"><ele>247.0</ele><time>2026-04-18T07:00:33.003Z</time></trkpt><trkpt lat="39.310361216180894" lon="16.244958066600976"><ele>247.0</ele><time>2026-04-18T07:00:34.003Z</time></trkpt><trkpt lat="39.31026460689751" lon="16.245013684896165"><ele>247.0</ele><time>2026-04-18T07:00:35.003Z</time></trkpt><trkpt lat="39.310151823025876" lon="16.24508616472578"><ele>247.0</ele><time>2026-04-18T07:00:36.003Z</time></trkpt><trkpt lat="39.31005676450106" lon="16.2451643124412"><ele>247.0</ele><time>2026-04-18T07:00:37.003Z</time></trkpt><trkpt lat="39.309981464098094" lon="16.245232057077217"><ele>247.0</ele><time>2026-04-18T07:00:38.003Z</time></trkpt><trkpt lat="39.309913143422136" lon="16.245293606207564"><ele>247.0</ele><time>2026-04-18T07:00:39.003Z</time></trkpt><trkpt lat="39.30984410486768" lon="16.245356980926662"><ele>247.0</ele><time>2026-04-18T07:00:40.003Z</time></trkpt><trkpt lat="39.30973939829722" lon="16.245443203730954"><ele>247.0</ele><time>2026-04-18T07:00:41.003Z</time></trkpt><trkpt lat="39.30961052752664" lon="16.24553447150768"><ele>247.0</ele><time>2026-04-18T07:00:42.003Z</time></trkpt><trkpt lat="39.30947806144331" lon="16.245607121239512"><ele>246.6</ele><time>2026-04-18T07:00:43.003Z</time></trkpt><trkpt lat="39.30935849138908" lon="16.24565798124843"><ele>246.2</ele><time>2026-04-18T07:00:44.003Z</time></trkpt><trkpt lat="39.309250290694074" lon="16.24567930890837"><ele>245.8</ele><time>2026-04-18T07:00:45.003Z</time></trkpt><trkpt lat="39.30916076026965" lon="16.24569412568423"><ele>245.4</ele><time>2026-04-18T07:00:46.003Z</time></trkpt><trkpt lat="39.309055322733286" lon="16.245687509550937"><ele>245.0</ele><time>2026-04-18T07:00:47.003Z</time></trkpt><trkpt lat="39.308934236628076" lon="16.24567304130543"><ele>245.0</ele><time>2026-04-18T07:00:48.003Z</time></trkpt><trkpt lat="39.30880241669696" lon="16.245639036102435"><ele>245.0</ele><time>2026-04-18T07:00:49.003Z</time></trkpt><trkpt lat="39.30867329156146" lon="16.245619939724047"><ele>245.0</ele><time>2026-04-18T07:00:50.003Z</time></trkpt><trkpt lat="39.308547298994206" lon="16.245607799949546"><ele>245.0</ele><time>2026-04-18T07:00:51.003Z</time></trkpt><trkpt lat="39.30844034932764" lon="16.24560150563199"><ele>247.2</ele><time>2026-04-18T07:00:52.003Z</time></trkpt><trkpt lat="39.3083400573258" lon="16.245586263954653"><ele>249.4</ele><time>2026-04-18T07:00:53.003Z</time></trkpt><trkpt lat="39.308240659613155" lon="16.245565575256816"><ele>251.60000000000002</ele><time>2026-04-18T07:00:54.003Z</time></trkpt><trkpt lat="39.30813961588659" lon="16.245563468652787"><ele>253.8</ele><time>2026-04-18T07:00:55.003Z</time></trkpt><trkpt lat="39.30804112974304" lon="16.245572999659945"><ele>256.0</ele><time>2026-04-18T07:00:56.003Z</time></trkpt><trkpt lat="39.307939903045195" lon="16.2455844628893"><ele>256.0</ele><time>2026-04-18T07:00:57.003Z</time></trkpt><trkpt lat="39.30784944990469" lon="16.245603792153805"><ele>256.0</ele><time>2026-04-18T07:00:58.003Z</time></trkpt><trkpt lat="39.307778188441794" lon="16.245608458412008"><ele>256.0</ele><time>2026-04-18T07:00:59.003Z</time></trkpt><trkpt lat="39.3076666152676" lon="16.245623044419826"><ele>256.0</ele><time>2026-04-18T07:01:01.003Z</time></trkpt><trkpt lat="39.30755325426889" lon="16.245627705361674"><ele>256.0</ele><time>2026-04-18T07:01:03.003Z</time></trkpt><trkpt lat="39.30744581483391" lon="16.245646703414216"><ele>256.5</ele><time>2026-04-18T07:01:05.003Z</time></trkpt><trkpt lat="39.307384382989476" lon="16.245680444603394"><ele>257.0</ele><time>2026-04-18T07:01:06.003Z</time></trkpt><trkpt lat="39.30732014008586" lon="16.245707093333877"><ele>257.5</ele><time>2026-04-18T07:01:07.003Z</time></trkpt><trkpt lat="39.30719940226135" lon="16.24570606982497"><ele>258.0</ele><time>2026-04-18T07:01:09.003Z</time></trkpt><trkpt lat="39.3071248078699" lon="16.245673748595397"><ele>258.5</ele><time>2026-04-18T07:01:11.003Z</time></trkpt><trkpt lat="39.30706267480868" lon="16.245644739138008"><ele>259.0</ele><time>2026-04-18T07:01:14.002Z</time></trkpt><trkpt lat="39.30697249105182" lon="16.24560806098896"><ele>259.0</ele><time>2026-04-18T07:01:17.002Z</time></trkpt><trkpt lat="39.30689859420868" lon="16.24557806169722"><ele>259.0</ele><time>2026-04-18T07:01:19.002Z</time></trkpt><trkpt lat="39.3068319835111" lon="16.245528790381286"><ele>259.0</ele><time>2026-04-18T07:01:21.003Z</time></trkpt><trkpt lat="39.306732087972144" lon="16.245467125298973"><ele>259.0</ele><time>2026-04-18T07:01:23.003Z</time></trkpt><trkpt lat="39.30663752766851" lon="16.245464752796426"><ele>259.0</ele><time>2026-04-18T07:01:24.003Z</time></trkpt><trkpt lat="39.30653995780542" lon="16.245456309143627"><ele>259.0</ele><time>2026-04-18T07:01:25.003Z</time></trkpt><trkpt lat="39.30642406610908" lon="16.2454159862661"><ele>259.0</ele><time>2026-04-18T07:01:26.003Z</time></trkpt><trkpt lat="39.30630724524289" lon="16.245350256246525"><ele>259.0</ele><time>2026-04-18T07:01:27.003Z</time></trkpt><trkpt lat="39.306195312899696" lon="16.24532642740027"><ele>259.0</ele><time>2026-04-18T07:01:28.003Z</time></trkpt><trkpt lat="39.306124630621454" lon="16.24532963794687"><ele>259.0</ele><time>2026-04-18T07:01:29.003Z</time></trkpt><trkpt lat="39.30605034031698" lon="16.24531543622327"><ele>258.3333333333333</ele><time>2026-04-18T07:01:30.003Z</time></trkpt><trkpt lat="39.305981774227874" lon="16.2452924381313"><ele>257.66666666666663</ele><time>2026-04-18T07:01:31.003Z</time></trkpt><trkpt lat="39.30589052821714" lon="16.245236368704155"><ele>257.0</ele><time>2026-04-18T07:01:33.003Z</time></trkpt><trkpt lat="39.305847581286116" lon="16.245165068925527"><ele>256.3333333333333</ele><time>2026-04-18T07:01:35.003Z</time></trkpt><trkpt lat="39.30581002515184" lon="16.245088062698052"><ele>255.66666666666666</ele><time>2026-04-18T07:01:37.002Z</time></trkpt><trkpt lat="39.30573088591496" lon="16.244945951595422"><ele>255.0</ele><time>2026-04-18T07:01:39.002Z</time></trkpt><trkpt lat="39.30567666916799" lon="16.244856014401122"><ele>254.83333333333334</ele><time>2026-04-18T07:01:40.002Z</time></trkpt><trkpt lat="39.305607639569544" lon="16.24477828009552"><ele>254.66666666666669</ele><time>2026-04-18T07:01:41.002Z</time></trkpt><trkpt lat="39.30554021510699" lon="16.244722145517883"><ele>254.5</ele><time>2026-04-18T07:01:42.002Z</time></trkpt><trkpt lat="39.30545890899806" lon="16.24466202319231"><ele>254.33333333333334</ele><time>2026-04-18T07:01:43.002Z</time></trkpt><trkpt lat="39.305380061339214" lon="16.244589274682543"><ele>254.16666666666669</ele><time>2026-04-18T07:01:44.002Z</time></trkpt><trkpt lat="39.30533118863725" lon="16.244502764828734"><ele>254.0</ele><time>2026-04-18T07:01:45.002Z</time></trkpt><trkpt lat="39.30531665742972" lon="16.24436490125408"><ele>253.75</ele><time>2026-04-18T07:01:46.002Z</time></trkpt><trkpt lat="39.30531469966462" lon="16.244199284798977"><ele>253.5</ele><time>2026-04-18T07:01:47.002Z</time></trkpt><trkpt lat="39.305303766143325" lon="16.244019840620258"><ele>253.25</ele><time>2026-04-18T07:01:48.002Z</time></trkpt><trkpt lat="39.30526846354679" lon="16.243832055494934"><ele>253.0</ele><time>2026-04-18T07:01:49.002Z</time></trkpt><trkpt lat="39.30521939902266" lon="16.243633443050967"><ele>253.0</ele><time>2026-04-18T07:01:50.002Z</time></trkpt><trkpt lat="39.30515858154738" lon="16.243433618201713"><ele>253.0</ele><time>2026-04-18T07:01:51.002Z</time></trkpt><trkpt lat="39.3050858376249" lon="16.243231468297083"><ele>253.0</ele><time>2026-04-18T07:01:52.002Z</time></trkpt><trkpt lat="39.30500820098085" lon="16.24300705853102"><ele>253.5</ele><time>2026-04-18T07:01:53.002Z</time></trkpt><trkpt lat="39.30492487798995" lon="16.24274667046608"><ele>254.0</ele><time>2026-04-18T07:01:54.002Z</time></trkpt><trkpt lat="39.304844828752174" lon="16.242465130360163"><ele>254.0</ele><time>2026-04-18T07:01:55.002Z</time></trkpt><trkpt lat="39.30476873655745" lon="16.24216832839479"><ele>254.0</ele><time>2026-04-18T07:01:56.002Z</time></trkpt><trkpt lat="39.304700221615384" lon="16.24187320115817"><ele>255.33333333333334</ele><time>2026-04-18T07:01:57.002Z</time></trkpt><trkpt lat="39.30462667278929" lon="16.24160038543418"><ele>256.6666666666667</ele><time>2026-04-18T07:01:58.002Z</time></trkpt><trkpt lat="39.30454287781076" lon="16.241342927238694"><ele>258.0</ele><time>2026-04-18T07:01:59.002Z</time></trkpt><trkpt lat="39.30442786111694" lon="16.241117889766663"><ele>258.0</ele><time>2026-04-18T07:02:00.002Z</time></trkpt><trkpt lat="39.30431360142465" lon="16.24091900771367"><ele>258.0</ele><time>2026-04-18T07:02:01.002Z</time></trkpt><trkpt lat="39.30420711223773" lon="16.24072277196042"><ele>258.0</ele><time>2026-04-18T07:02:02.002Z</time></trkpt><trkpt lat="39.30408900348882" lon="16.240557099998707"><ele>257.0</ele><time>2026-04-18T07:02:03.002Z</time></trkpt><trkpt lat="39.303969701280955" lon="16.240394890222365"><ele>256.0</ele><time>2026-04-18T07:02:04.002Z</time></trkpt><trkpt lat="39.30384482696626" lon="16.240215504857822"><ele>255.0</ele><time>2026-04-18T07:02:05.002Z</time></trkpt><trkpt lat="39.30371171449056" lon="16.24002911118985"><ele>256.6666666666667</ele><time>2026-04-18T07:02:06.002Z</time></trkpt><trkpt lat="39.30357023841595" lon="16.239828308382126"><ele>258.33333333333337</ele><time>2026-04-18T07:02:07.002Z</time></trkpt><trkpt lat="39.30341402782875" lon="16.23960879547664"><ele>260.0</ele><time>2026-04-18T07:02:08.002Z</time></trkpt><trkpt lat="39.30323909185836" lon="16.239369876186835"><ele>262.5</ele><time>2026-04-18T07:02:09.002Z</time></trkpt><trkpt lat="39.30304966888872" lon="16.239114067265632"><ele>265.0</ele><time>2026-04-18T07:02:10.001Z</time></trkpt><trkpt lat="39.302863730702946" lon="16.238845760324867"><ele>265.0</ele><time>2026-04-18T07:02:11.001Z</time></trkpt><trkpt lat="39.302702496135346" lon="16.238595067051676"><ele>265.0</ele><time>2026-04-18T07:02:12.001Z</time></trkpt><trkpt lat="39.302552724565594" lon="16.23836796810096"><ele>265.0</ele><time>2026-04-18T07:02:13.001Z</time></trkpt><trkpt lat="39.302410334156725" lon="16.238172928825875"><ele>265.0</ele><time>2026-04-18T07:02:14.001Z</time></trkpt><trkpt lat="39.30224982155232" lon="16.237988745807563"><ele>265.0</ele><time>2026-04-18T07:02:15.001Z</time></trkpt><trkpt lat="39.302072056779295" lon="16.237809799578336"><ele>266.0</ele><time>2026-04-18T07:02:16.001Z</time></trkpt><trkpt lat="39.30190855295919" lon="16.237643149857327"><ele>267.0</ele><time>2026-04-18T07:02:17.001Z</time></trkpt><trkpt lat="39.30175828332975" lon="16.237491982978344"><ele>268.0</ele><time>2026-04-18T07:02:18.001Z</time></trkpt><trkpt lat="39.30162631278385" lon="16.237355222203774"><ele>268.0</ele><time>2026-04-18T07:02:19.001Z</time></trkpt><trkpt lat="39.30151696313686" lon="16.237231158651287"><ele>268.0</ele><time>2026-04-18T07:02:20.001Z</time></trkpt><trkpt lat="39.30143764042834" lon="16.237103542652267"><ele>268.0</ele><time>2026-04-18T07:02:21.001Z</time></trkpt><trkpt lat="39.30139091601605" lon="16.236956286045146"><ele>268.0</ele><time>2026-04-18T07:02:22.001Z</time></trkpt><trkpt lat="39.301375885296885" lon="16.2368014362682"><ele>268.0</ele><time>2026-04-18T07:02:23.001Z</time></trkpt><trkpt lat="39.30139684701924" lon="16.23663541997374"><ele>268.0</ele><time>2026-04-18T07:02:24.001Z</time></trkpt><trkpt lat="39.301452027826606" lon="16.236481444060605"><ele>268.0</ele><time>2026-04-18T07:02:25.001Z</time></trkpt><trkpt lat="39.30154052595576" lon="16.236350571159086"><ele>268.0</ele><time>2026-04-18T07:02:26.001Z</time></trkpt><trkpt lat="39.30165855639326" lon="16.236253832564206"><ele>268.66666666666663</ele><time>2026-04-18T07:02:27.001Z</time></trkpt><trkpt lat="39.30180533850604" lon="16.236199432977024"><ele>269.3333333333333</ele><time>2026-04-18T07:02:28.001Z</time></trkpt><trkpt lat="39.30197806633833" lon="16.236201578619994"><ele>270.0</ele><time>2026-04-18T07:02:29.001Z</time></trkpt><trkpt lat="39.3021647113827" lon="16.236233925928495"><ele>272.0</ele><time>2026-04-18T07:02:30.001Z</time></trkpt><trkpt lat="39.30234385925827" lon="16.236277818140433"><ele>274.0</ele><time>2026-04-18T07:02:31.001Z</time></trkpt><trkpt lat="39.30250136074241" lon="16.236312359279356"><ele>276.0</ele><time>2026-04-18T07:02:32.001Z</time></trkpt><trkpt lat="39.30264850367317" lon="16.236340900589216"><ele>276.0</ele><time>2026-04-18T07:02:33.001Z</time></trkpt><trkpt lat="39.302790971100066" lon="16.23636592854897"><ele>276.0</ele><time>2026-04-18T07:02:34.001Z</time></trkpt><trkpt lat="39.3029410808934" lon="16.236388132593564"><ele>276.0</ele><time>2026-04-18T07:02:35.001Z</time></trkpt><trkpt lat="39.30310715053016" lon="16.23641253491023"><ele>275.6666666666667</ele><time>2026-04-18T07:02:36.001Z</time></trkpt><trkpt lat="39.30328552964048" lon="16.23644943546839"><ele>275.33333333333337</ele><time>2026-04-18T07:02:37.001Z</time></trkpt><trkpt lat="39.303472470385984" lon="16.236506516077057"><ele>275.0</ele><time>2026-04-18T07:02:38.001Z</time></trkpt><trkpt lat="39.303655442619636" lon="16.23657929642203"><ele>275.0</ele><time>2026-04-18T07:02:39.001Z</time></trkpt><trkpt lat="39.303837683435944" lon="16.236655989036997"><ele>275.0</ele><time>2026-04-18T07:02:40.001Z</time></trkpt><trkpt lat="39.30403981673101" lon="16.23672877023223"><ele>275.0</ele><time>2026-04-18T07:02:41.001Z</time></trkpt><trkpt lat="39.30425278878456" lon="16.236813657472695"><ele>279.6666666666667</ele><time>2026-04-18T07:02:42.001Z</time></trkpt><trkpt lat="39.30445161082936" lon="16.236887956277005"><ele>284.3333333333333</ele><time>2026-04-18T07:02:43.001Z</time></trkpt><trkpt lat="39.30465155584546" lon="16.23696178360169"><ele>289.0</ele><time>2026-04-18T07:02:44.001Z</time></trkpt><trkpt lat="39.30485421466086" lon="16.237033226583225"><ele>293.0</ele><time>2026-04-18T07:02:45.001Z</time></trkpt><trkpt lat="39.3050712154138" lon="16.23708873340521"><ele>297.0</ele><time>2026-04-18T07:02:46.058Z</time></trkpt><trkpt lat="39.30527388693577" lon="16.237155504196508"><ele>301.0</ele><time>2026-04-18T07:02:47.054Z</time></trkpt><trkpt lat="39.30546668325227" lon="16.237219021695317"><ele>277.0</ele><time>2026-04-18T07:02:48.054Z</time></trkpt><trkpt lat="39.30857786551301" lon="16.238189354999673"><ele>277.0</ele><time>2026-04-18T07:02:56.001Z</time></trkpt><trkpt lat="39.30887956076215" lon="16.238278695493726"><ele>277.0</ele><time>2026-04-18T07:02:57.001Z</time></trkpt><trkpt lat="39.30933232647535" lon="16.23841291051466"><ele>272.0</ele><time>2026-04-18T07:02:58.001Z</time></trkpt><trkpt lat="39.30962648138406" lon="16.238496434575236"><ele>267.0</ele><time>2026-04-18T07:02:59.001Z</time></trkpt><trkpt lat="39.30990310477171" lon="16.23857699585052"><ele>261.5</ele><time>2026-04-18T07:03:00.001Z</time></trkpt><trkpt lat="39.310170994499735" lon="16.238664038841666"><ele>256.0</ele><time>2026-04-18T07:03:01.001Z</time></trkpt><trkpt lat="39.3104218260073" lon="16.23875354161845"><ele>251.0</ele><time>2026-04-18T07:03:02.001Z</time></trkpt><trkpt lat="39.31069321351263" lon="16.238833625767697"><ele>246.0</ele><time>2026-04-18T07:03:03.001Z</time></trkpt><trkpt lat="39.310956263586945" lon="16.238930447372816"><ele>247.0</ele><time>2026-04-18T07:03:04.001Z</time></trkpt><trkpt lat="39.31121153082804" lon="16.239024819538844"><ele>248.0</ele><time>2026-04-18T07:03:05.001Z</time></trkpt><trkpt lat="39.311471901919816" lon="16.239130499398264"><ele>248.0</ele><time>2026-04-18T07:03:06.001Z</time></trkpt><trkpt lat="39.31173307149991" lon="16.23925303648216"><ele>248.0</ele><time>2026-04-18T07:03:07.001Z</time></trkpt><trkpt lat="39.311994216560784" lon="16.239375728937503"><ele>248.0</ele><time>2026-04-18T07:03:08.001Z</time></trkpt><trkpt lat="39.31223691403076" lon="16.239530620632117"><ele>248.0</ele><time>2026-04-18T07:03:09.001Z</time></trkpt><trkpt lat="39.312485530302034" lon="16.239679773403807"><ele>248.0</ele><time>2026-04-18T07:03:10.001Z</time></trkpt><trkpt lat="39.31273146883774" lon="16.239832689936982"><ele>248.0</ele><time>2026-04-18T07:03:11.001Z</time></trkpt><trkpt lat="39.31297915879347" lon="16.23998793373967"><ele>240.5</ele><time>2026-04-18T07:03:12.001Z</time></trkpt><trkpt lat="39.313224371281144" lon="16.240145987084656"><ele>233.0</ele><time>2026-04-18T07:03:13.001Z</time></trkpt><trkpt lat="39.31346886294304" lon="16.240306700029926"><ele>233.0</ele><time>2026-04-18T07:03:14.001Z</time></trkpt><trkpt lat="39.31371270929425" lon="16.24047346995632"><ele>233.0</ele><time>2026-04-18T07:03:15.001Z</time></trkpt><trkpt lat="39.313955576957774" lon="16.24063250738878"><ele>232.0</ele><time>2026-04-18T07:03:16.001Z</time></trkpt><trkpt lat="39.314203642678685" lon="16.240779838207082"><ele>231.0</ele><time>2026-04-18T07:03:17.001Z</time></trkpt><trkpt lat="39.3144540499092" lon="16.240915579552553"><ele>231.0</ele><time>2026-04-18T07:03:18.001Z</time></trkpt><trkpt lat="39.31470791190514" lon="16.241041434236724"><ele>231.0</ele><time>2026-04-18T07:03:19.001Z</time></trkpt><trkpt lat="39.31496894844244" lon="16.241153627888178"><ele>224.5</ele><time>2026-04-18T07:03:20.001Z</time></trkpt><trkpt lat="39.315233709644" lon="16.241249952909833"><ele>218.0</ele><time>2026-04-18T07:03:21.001Z</time></trkpt><trkpt lat="39.3155079501955" lon="16.24132989391227"><ele>215.5</ele><time>2026-04-18T07:03:22.001Z</time></trkpt><trkpt lat="39.31578884548161" lon="16.241394900793264"><ele>213.0</ele><time>2026-04-18T07:03:23.001Z</time></trkpt><trkpt lat="39.31607342746606" lon="16.241447755041893"><ele>213.0</ele><time>2026-04-18T07:03:24.001Z</time></trkpt><trkpt lat="39.31635569455046" lon="16.241487268120906"><ele>213.0</ele><time>2026-04-18T07:03:25.001Z</time></trkpt><trkpt lat="39.31663534539415" lon="16.241509156835832"><ele>213.0</ele><time>2026-04-18T07:03:26.001Z</time></trkpt><trkpt lat="39.31691601146147" lon="16.24151150548207"><ele>213.0</ele><time>2026-04-18T07:03:27.001Z</time></trkpt><trkpt lat="39.3171872836325" lon="16.24149980146766"><ele>212.0</ele><time>2026-04-18T07:03:28.001Z</time></trkpt><trkpt lat="39.3174572629405" lon="16.24147434322422"><ele>211.0</ele><time>2026-04-18T07:03:29.001Z</time></trkpt><trkpt lat="39.31772576447609" lon="16.241436504973553"><ele>210.5</ele><time>2026-04-18T07:03:30.001Z</time></trkpt><trkpt lat="39.3179922575992" lon="16.241387683250856"><ele>210.0</ele><time>2026-04-18T07:03:31.001Z</time></trkpt><trkpt lat="39.31833559704208" lon="16.241331462449487"><ele>209.5</ele><time>2026-04-18T07:03:32.001Z</time></trkpt><trkpt lat="39.3186177266366" lon="16.24124893693121"><ele>209.0</ele><time>2026-04-18T07:03:33.001Z</time></trkpt><trkpt lat="39.31888360058251" lon="16.241166289378366"><ele>210.5</ele><time>2026-04-18T07:03:34.001Z</time></trkpt><trkpt lat="39.31917050541533" lon="16.24107078250966"><ele>212.0</ele><time>2026-04-18T07:03:35.001Z</time></trkpt><trkpt lat="39.31945752461772" lon="16.240968147720924"><ele>211.5</ele><time>2026-04-18T07:03:36.001Z</time></trkpt><trkpt lat="39.3197436730166" lon="16.24085986008811"><ele>211.0</ele><time>2026-04-18T07:03:37.001Z</time></trkpt><trkpt lat="39.32002557405013" lon="16.240749155250462"><ele>211.0</ele><time>2026-04-18T07:03:38.001Z</time></trkpt><trkpt lat="39.32030675170288" lon="16.24063807235742"><ele>211.0</ele><time>2026-04-18T07:03:39.001Z</time></trkpt><trkpt lat="39.320586514244454" lon="16.240526476695212"><ele>212.0</ele><time>2026-04-18T07:03:40.001Z</time></trkpt><trkpt lat="39.32086385138842" lon="16.24041627105165"><ele>213.0</ele><time>2026-04-18T07:03:41.001Z</time></trkpt><trkpt lat="39.321142730780814" lon="16.240307490283726"><ele>214.0</ele><time>2026-04-18T07:03:42.001Z</time></trkpt><trkpt lat="39.32142441487415" lon="16.240207127330876"><ele>215.0</ele><time>2026-04-18T07:03:43.001Z</time></trkpt><trkpt lat="39.32170868340403" lon="16.240121157447934"><ele>215.0</ele><time>2026-04-18T07:03:44.001Z</time></trkpt><trkpt lat="39.321994648321734" lon="16.240047576295122"><ele>215.0</ele><time>2026-04-18T07:03:45.001Z</time></trkpt><trkpt lat="39.322280010952326" lon="16.23998324772588"><ele>216.0</ele><time>2026-04-18T07:03:46.001Z</time></trkpt><trkpt lat="39.32256999289754" lon="16.239927743108673"><ele>217.0</ele><time>2026-04-18T07:03:47.001Z</time></trkpt><trkpt lat="39.32286162175956" lon="16.239881635451653"><ele>216.5</ele><time>2026-04-18T07:03:48.001Z</time></trkpt><trkpt lat="39.323154205825716" lon="16.23984908482846"><ele>216.0</ele><time>2026-04-18T07:03:49.001Z</time></trkpt><trkpt lat="39.323448996018605" lon="16.23982562870158"><ele>216.0</ele><time>2026-04-18T07:03:50.001Z</time></trkpt><trkpt lat="39.32374191751444" lon="16.23981089663258"><ele>216.0</ele><time>2026-04-18T07:03:51.001Z</time></trkpt><trkpt lat="39.32403640879644" lon="16.23980226923042"><ele>217.5</ele><time>2026-04-18T07:03:52.001Z</time></trkpt><trkpt lat="39.324329091597804" lon="16.239801373859443"><ele>219.0</ele><time>2026-04-18T07:03:53.001Z</time></trkpt><trkpt lat="39.32462113604598" lon="16.239805035377334"><ele>219.5</ele><time>2026-04-18T07:03:54.001Z</time></trkpt><trkpt lat="39.324914945932996" lon="16.23980801424525"><ele>220.0</ele><time>2026-04-18T07:03:55.001Z</time></trkpt><trkpt lat="39.32521102930315" lon="16.23981313483125"><ele>220.0</ele><time>2026-04-18T07:03:56.001Z</time></trkpt><trkpt lat="39.325503746577034" lon="16.239818095656485"><ele>220.0</ele><time>2026-04-18T07:03:57.001Z</time></trkpt><trkpt lat="39.32579665613841" lon="16.239822905721365"><ele>220.0</ele><time>2026-04-18T07:03:58.001Z</time></trkpt><trkpt lat="39.32608969750212" lon="16.239834249067854"><ele>220.0</ele><time>2026-04-18T07:03:59.001Z</time></trkpt><trkpt lat="39.326383080813805" lon="16.239818440062226"><ele>219.0</ele><time>2026-04-18T07:04:00.001Z</time></trkpt><trkpt lat="39.32667286595514" lon="16.23980301638293"><ele>218.0</ele><time>2026-04-18T07:04:01.001Z</time></trkpt><trkpt lat="39.32696458111814" lon="16.239782179111238"><ele>218.5</ele><time>2026-04-18T07:04:02.001Z</time></trkpt><trkpt lat="39.327255766583754" lon="16.239751930717162"><ele>219.0</ele><time>2026-04-18T07:04:03.001Z</time></trkpt><trkpt lat="39.32754862969197" lon="16.23971149116286"><ele>219.0</ele><time>2026-04-18T07:04:04.001Z</time></trkpt><trkpt lat="39.32783755716711" lon="16.23965597275082"><ele>219.0</ele><time>2026-04-18T07:04:05.001Z</time></trkpt><trkpt lat="39.32812724555795" lon="16.239583630893343"><ele>218.0</ele><time>2026-04-18T07:04:06.001Z</time></trkpt><trkpt lat="39.32841805410364" lon="16.239496689188048"><ele>217.0</ele><time>2026-04-18T07:04:07.001Z</time></trkpt><trkpt lat="39.328703376100385" lon="16.239396632849235"><ele>216.5</ele><time>2026-04-18T07:04:08.001Z</time></trkpt><trkpt lat="39.328986259816766" lon="16.23928765579776"><ele>216.0</ele><time>2026-04-18T07:04:09.001Z</time></trkpt><trkpt lat="39.329274790984336" lon="16.239180843553246"><ele>216.0</ele><time>2026-04-18T07:04:10.001Z</time></trkpt><trkpt lat="39.32956259361821" lon="16.239068963772525"><ele>216.0</ele><time>2026-04-18T07:04:11.001Z</time></trkpt><trkpt lat="39.329845521988936" lon="16.238953159654926"><ele>215.5</ele><time>2026-04-18T07:04:12.001Z</time></trkpt><trkpt lat="39.330127706397974" lon="16.23883492206404"><ele>215.0</ele><time>2026-04-18T07:04:13.001Z</time></trkpt><trkpt lat="39.330409140071694" lon="16.238715388979937"><ele>214.0</ele><time>2026-04-18T07:04:14.001Z</time></trkpt><trkpt lat="39.3306898382886" lon="16.23859683442004"><ele>213.0</ele><time>2026-04-18T07:04:15.001Z</time></trkpt><trkpt lat="39.330972030095026" lon="16.238479074935572"><ele>213.0</ele><time>2026-04-18T07:04:16.001Z</time></trkpt><trkpt lat="39.331252870436025" lon="16.238360832294067"><ele>213.0</ele><time>2026-04-18T07:04:17.001Z</time></trkpt><trkpt lat="39.33153665472799" lon="16.238242933097993"><ele>211.5</ele><time>2026-04-18T07:04:18.001Z</time></trkpt><trkpt lat="39.331820484634925" lon="16.238124011125628"><ele>210.0</ele><time>2026-04-18T07:04:19.001Z</time></trkpt><trkpt lat="39.33210578261481" lon="16.238002729333665"><ele>208.5</ele><time>2026-04-18T07:04:20.001Z</time></trkpt><trkpt lat="39.33238905913097" lon="16.23788376602993"><ele>207.0</ele><time>2026-04-18T07:04:21.001Z</time></trkpt><trkpt lat="39.332670794443004" lon="16.23776595329464"><ele>207.0</ele><time>2026-04-18T07:04:22.001Z</time></trkpt><trkpt lat="39.33295275102501" lon="16.23765010790184"><ele>207.0</ele><time>2026-04-18T07:04:23.001Z</time></trkpt><trkpt lat="39.33323671045369" lon="16.237537208756326"><ele>206.0</ele><time>2026-04-18T07:04:24.001Z</time></trkpt><trkpt lat="39.33352314805391" lon="16.237425362361055"><ele>205.0</ele><time>2026-04-18T07:04:25.001Z</time></trkpt><trkpt lat="39.33380492546886" lon="16.23731044909766"><ele>203.0</ele><time>2026-04-18T07:04:26.001Z</time></trkpt><trkpt lat="39.334088369381725" lon="16.23719143855724"><ele>201.0</ele><time>2026-04-18T07:04:27.001Z</time></trkpt><trkpt lat="39.33437056127645" lon="16.237070845234744"><ele>201.0</ele><time>2026-04-18T07:04:28.001Z</time></trkpt><trkpt lat="39.33465371779286" lon="16.236950438588632"><ele>201.0</ele><time>2026-04-18T07:04:29.001Z</time></trkpt><trkpt lat="39.334936565880334" lon="16.236834643501272"><ele>200.0</ele><time>2026-04-18T07:04:30.001Z</time></trkpt><trkpt lat="39.33522067747312" lon="16.236717383809133"><ele>199.0</ele><time>2026-04-18T07:04:31.001Z</time></trkpt><trkpt lat="39.335505365515374" lon="16.236602116843393"><ele>198.0</ele><time>2026-04-18T07:04:32.001Z</time></trkpt><trkpt lat="39.33578793523091" lon="16.236484336473367"><ele>197.0</ele><time>2026-04-18T07:04:33.001Z</time></trkpt><trkpt lat="39.33606880752698" lon="16.23636463649627"><ele>197.0</ele><time>2026-04-18T07:04:34.001Z</time></trkpt><trkpt lat="39.336350644472375" lon="16.23624801528401"><ele>197.0</ele><time>2026-04-18T07:04:35.001Z</time></trkpt><trkpt lat="39.33663396425944" lon="16.23613107638457"><ele>195.5</ele><time>2026-04-18T07:04:36.001Z</time></trkpt><trkpt lat="39.3369164876614" lon="16.23601384620144"><ele>194.0</ele><time>2026-04-18T07:04:37.001Z</time></trkpt><trkpt lat="39.33719963258639" lon="16.23589507706672"><ele>192.5</ele><time>2026-04-18T07:04:38.001Z</time></trkpt><trkpt lat="39.337481813987964" lon="16.235778231997113"><ele>191.0</ele><time>2026-04-18T07:04:39.001Z</time></trkpt><trkpt lat="39.337764988384826" lon="16.2356583967542"><ele>191.5</ele><time>2026-04-18T07:04:40.001Z</time></trkpt><trkpt lat="39.33804271029486" lon="16.235538718340116"><ele>192.0</ele><time>2026-04-18T07:04:41.001Z</time></trkpt><trkpt lat="39.338320682152215" lon="16.235417472278375"><ele>192.0</ele><time>2026-04-18T07:04:42.001Z</time></trkpt><trkpt lat="39.338601654476356" lon="16.235294857924387"><ele>192.0</ele><time>2026-04-18T07:04:43.001Z</time></trkpt><trkpt lat="39.338884241004" lon="16.23517956658875"><ele>192.5</ele><time>2026-04-18T07:04:44.001Z</time></trkpt><trkpt lat="39.33917079292558" lon="16.235068173951504"><ele>193.0</ele><time>2026-04-18T07:04:45.001Z</time></trkpt><trkpt lat="39.339457934636606" lon="16.234965983601793"><ele>193.0</ele><time>2026-04-18T07:04:46.001Z</time></trkpt><trkpt lat="39.33974898682376" lon="16.234874551039002"><ele>193.0</ele><time>2026-04-18T07:04:47.001Z</time></trkpt><trkpt lat="39.340040437647765" lon="16.234803538506814"><ele>195.0</ele><time>2026-04-18T07:04:48.001Z</time></trkpt><trkpt lat="39.340334049531315" lon="16.234746768231034"><ele>197.0</ele><time>2026-04-18T07:04:49.001Z</time></trkpt><trkpt lat="39.340629015597095" lon="16.234699837287938"><ele>197.5</ele><time>2026-04-18T07:04:50.001Z</time></trkpt><trkpt lat="39.3409367248075" lon="16.234662037466528"><ele>198.0</ele><time>2026-04-18T07:04:51.001Z</time></trkpt><trkpt lat="39.3412504684302" lon="16.234639534797626"><ele>199.5</ele><time>2026-04-18T07:04:52.001Z</time></trkpt><trkpt lat="39.34157082913749" lon="16.23462880080265"><ele>201.0</ele><time>2026-04-18T07:04:53.001Z</time></trkpt><trkpt lat="39.34188872626998" lon="16.234640469366568"><ele>201.0</ele><time>2026-04-18T07:04:54.001Z</time></trkpt><trkpt lat="39.34221041606687" lon="16.234663533695798"><ele>201.0</ele><time>2026-04-18T07:04:55.001Z</time></trkpt><trkpt lat="39.34252935687576" lon="16.234702288398825"><ele>201.5</ele><time>2026-04-18T07:04:56.001Z</time></trkpt><trkpt lat="39.34284846917186" lon="16.234753876828847"><ele>202.0</ele><time>2026-04-18T07:04:57.001Z</time></trkpt><trkpt lat="39.34316800065567" lon="16.234816589551162"><ele>202.0</ele><time>2026-04-18T07:04:58.001Z</time></trkpt><trkpt lat="39.34348340020028" lon="16.234889378115245"><ele>202.0</ele><time>2026-04-18T07:04:59.001Z</time></trkpt><trkpt lat="39.34379127005768" lon="16.234959098832018"><ele>201.5</ele><time>2026-04-18T07:05:00.001Z</time></trkpt><trkpt lat="39.344095055775405" lon="16.23502053574609"><ele>201.0</ele><time>2026-04-18T07:05:01.001Z</time></trkpt><trkpt lat="39.34439025278557" lon="16.235081556540482"><ele>201.0</ele><time>2026-04-18T07:05:02.001Z</time></trkpt><trkpt lat="39.344690526048126" lon="16.235139265990856"><ele>201.0</ele><time>2026-04-18T07:05:03.001Z</time></trkpt><trkpt lat="39.34498448157949" lon="16.235195409299767"><ele>201.0</ele><time>2026-04-18T07:05:04.001Z</time></trkpt><trkpt lat="39.345284414496106" lon="16.235238366252013"><ele>201.0</ele><time>2026-04-18T07:05:05.001Z</time></trkpt><trkpt lat="39.34557851554836" lon="16.235264378244885"><ele>199.0</ele><time>2026-04-18T07:05:06.001Z</time></trkpt><trkpt lat="39.34587528789562" lon="16.235279726877152"><ele>197.0</ele><time>2026-04-18T07:05:07.001Z</time></trkpt><trkpt lat="39.346168848593386" lon="16.23527827861497"><ele>195.0</ele><time>2026-04-18T07:05:08Z</time></trkpt><trkpt lat="39.34646786066489" lon="16.23527006917789"><ele>193.0</ele><time>2026-04-18T07:05:09Z</time></trkpt><trkpt lat="39.34676399407432" lon="16.235244111119602"><ele>193.0</ele><time>2026-04-18T07:05:10Z</time></trkpt><trkpt lat="39.347060367694695" lon="16.235203493162157"><ele>193.0</ele><time>2026-04-18T07:05:11Z</time></trkpt><trkpt lat="39.34735820861221" lon="16.235148329871564"><ele>194.0</ele><time>2026-04-18T07:05:12Z</time></trkpt><trkpt lat="39.347649741663304" lon="16.235087550586343"><ele>195.0</ele><time>2026-04-18T07:05:13Z</time></trkpt><trkpt lat="39.34794441909288" lon="16.235015466617362"><ele>194.5</ele><time>2026-04-18T07:05:14Z</time></trkpt><trkpt lat="39.34824151203123" lon="16.2349384008792"><ele>194.0</ele><time>2026-04-18T07:05:15Z</time></trkpt><trkpt lat="39.348535119163216" lon="16.234860044762552"><ele>195.5</ele><time>2026-04-18T07:05:16Z</time></trkpt><trkpt lat="39.348830417960336" lon="16.23477751843518"><ele>197.0</ele><time>2026-04-18T07:05:17Z</time></trkpt><trkpt lat="39.34912345595669" lon="16.23469873020183"><ele>197.0</ele><time>2026-04-18T07:05:18Z</time></trkpt><trkpt lat="39.349414943300424" lon="16.234622586417235"><ele>197.0</ele><time>2026-04-18T07:05:19Z</time></trkpt><trkpt lat="39.34971039781043" lon="16.234546554033297"><ele>196.5</ele><time>2026-04-18T07:05:20Z</time></trkpt><trkpt lat="39.35000191947754" lon="16.23447297420633"><ele>196.0</ele><time>2026-04-18T07:05:21Z</time></trkpt><trkpt lat="39.35029350850967" lon="16.234396862130055"><ele>196.0</ele><time>2026-04-18T07:05:22Z</time></trkpt><trkpt lat="39.3505858101214" lon="16.23431944955439"><ele>196.0</ele><time>2026-04-18T07:05:23Z</time></trkpt><trkpt lat="39.350878004898725" lon="16.234241451953064"><ele>196.0</ele><time>2026-04-18T07:05:24Z</time></trkpt><trkpt lat="39.35117098563956" lon="16.234165902829208"><ele>196.0</ele><time>2026-04-18T07:05:25Z</time></trkpt><trkpt lat="39.351460861750176" lon="16.23409726549114"><ele>197.0</ele><time>2026-04-18T07:05:26Z</time></trkpt><trkpt lat="39.35175744555907" lon="16.234031205194565"><ele>198.0</ele><time>2026-04-18T07:05:27Z</time></trkpt><trkpt lat="39.35205327794055" lon="16.23397354681153"><ele>197.0</ele><time>2026-04-18T07:05:28Z</time></trkpt><trkpt lat="39.35235210881029" lon="16.23391971989901"><ele>196.0</ele><time>2026-04-18T07:05:29Z</time></trkpt><trkpt lat="39.35265073335082" lon="16.23387128072142"><ele>196.0</ele><time>2026-04-18T07:05:30Z</time></trkpt><trkpt lat="39.35294903232173" lon="16.233834342800435"><ele>196.0</ele><time>2026-04-18T07:05:31Z</time></trkpt><trkpt lat="39.35325327506745" lon="16.23380226112949"><ele>196.0</ele><time>2026-04-18T07:05:32.001Z</time></trkpt><trkpt lat="39.353551480200665" lon="16.23377739967713"><ele>196.0</ele><time>2026-04-18T07:05:33.001Z</time></trkpt><trkpt lat="39.353851646587444" lon="16.233753183443152"><ele>196.0</ele><time>2026-04-18T07:05:34.001Z</time></trkpt><trkpt lat="39.354152577959766" lon="16.233730275953654"><ele>196.0</ele><time>2026-04-18T07:05:35.001Z</time></trkpt><trkpt lat="39.35445206544483" lon="16.233708696453654"><ele>196.0</ele><time>2026-04-18T07:05:36.001Z</time></trkpt><trkpt lat="39.354751679429334" lon="16.233686881373004"><ele>196.0</ele><time>2026-04-18T07:05:37.001Z</time></trkpt><trkpt lat="39.35505039824276" lon="16.233667601034817"><ele>196.0</ele><time>2026-04-18T07:05:38.001Z</time></trkpt><trkpt lat="39.355347174385955" lon="16.233652256616036"><ele>196.0</ele><time>2026-04-18T07:05:39.001Z</time></trkpt><trkpt lat="39.35564491193431" lon="16.233640708971237"><ele>198.5</ele><time>2026-04-18T07:05:40.001Z</time></trkpt><trkpt lat="39.35594346673443" lon="16.233632161578715"><ele>201.0</ele><time>2026-04-18T07:05:41.001Z</time></trkpt><trkpt lat="39.35624601503772" lon="16.233628323844037"><ele>201.5</ele><time>2026-04-18T07:05:42.001Z</time></trkpt><trkpt lat="39.3565458634019" lon="16.233632423281843"><ele>202.0</ele><time>2026-04-18T07:05:43.001Z</time></trkpt><trkpt lat="39.356847506547744" lon="16.23364118187289"><ele>202.0</ele><time>2026-04-18T07:05:44.001Z</time></trkpt><trkpt lat="39.35714651462062" lon="16.23364779250669"><ele>202.0</ele><time>2026-04-18T07:05:45.001Z</time></trkpt><trkpt lat="39.357445389417634" lon="16.2336475657795"><ele>199.5</ele><time>2026-04-18T07:05:46.001Z</time></trkpt><trkpt lat="39.35774297159821" lon="16.23364557593986"><ele>197.0</ele><time>2026-04-18T07:05:47.001Z</time></trkpt><trkpt lat="39.35804343356285" lon="16.233642027483068"><ele>195.5</ele><time>2026-04-18T07:05:48.001Z</time></trkpt><trkpt lat="39.358343150360234" lon="16.233642782981384"><ele>194.0</ele><time>2026-04-18T07:05:49.001Z</time></trkpt><trkpt lat="39.358641909198546" lon="16.23365000668644"><ele>190.5</ele><time>2026-04-18T07:05:50.001Z</time></trkpt><trkpt lat="39.35894128124481" lon="16.233666301729254"><ele>187.0</ele><time>2026-04-18T07:05:51.001Z</time></trkpt><trkpt lat="39.35924302465349" lon="16.233692684060532"><ele>187.0</ele><time>2026-04-18T07:05:52.001Z</time></trkpt><trkpt lat="39.35953992404553" lon="16.23372825312846"><ele>187.0</ele><time>2026-04-18T07:05:53.001Z</time></trkpt><trkpt lat="39.35983613271447" lon="16.23376875993911"><ele>187.0</ele><time>2026-04-18T07:05:54.001Z</time></trkpt><trkpt lat="39.36013649144319" lon="16.23381949360043"><ele>187.0</ele><time>2026-04-18T07:05:55.001Z</time></trkpt><trkpt lat="39.360435915159144" lon="16.23387746506901"><ele>188.5</ele><time>2026-04-18T07:05:56.001Z</time></trkpt><trkpt lat="39.36073035094694" lon="16.23394703376148"><ele>190.0</ele><time>2026-04-18T07:05:57.001Z</time></trkpt><trkpt lat="39.361023371763395" lon="16.23402817370088"><ele>187.0</ele><time>2026-04-18T07:05:58.001Z</time></trkpt><trkpt lat="39.36131255670457" lon="16.23412041476472"><ele>184.0</ele><time>2026-04-18T07:05:59.001Z</time></trkpt><trkpt lat="39.36160009747517" lon="16.23422042541893"><ele>183.5</ele><time>2026-04-18T07:06:00.001Z</time></trkpt><trkpt lat="39.36188862203217" lon="16.23432517919981"><ele>183.0</ele><time>2026-04-18T07:06:01.001Z</time></trkpt><trkpt lat="39.36217571927957" lon="16.234435829707895"><ele>183.5</ele><time>2026-04-18T07:06:02.001Z</time></trkpt><trkpt lat="39.36246112599532" lon="16.23455022323283"><ele>184.0</ele><time>2026-04-18T07:06:03.001Z</time></trkpt><trkpt lat="39.362744645717584" lon="16.23466786204312"><ele>182.5</ele><time>2026-04-18T07:06:04.001Z</time></trkpt><trkpt lat="39.36303172615212" lon="16.234786855031885"><ele>181.0</ele><time>2026-04-18T07:06:05.001Z</time></trkpt><trkpt lat="39.36331764037996" lon="16.23490481074131"><ele>180.5</ele><time>2026-04-18T07:06:06.001Z</time></trkpt><trkpt lat="39.36360464470322" lon="16.235021045301043"><ele>180.0</ele><time>2026-04-18T07:06:07.001Z</time></trkpt><trkpt lat="39.36389118008122" lon="16.235137851717543"><ele>180.0</ele><time>2026-04-18T07:06:08.001Z</time></trkpt><trkpt lat="39.364173407073984" lon="16.235257735471897"><ele>180.0</ele><time>2026-04-18T07:06:09.001Z</time></trkpt><trkpt lat="39.36445560528204" lon="16.235378084660844"><ele>183.0</ele><time>2026-04-18T07:06:10.001Z</time></trkpt><trkpt lat="39.364740252587374" lon="16.23549571253441"><ele>186.0</ele><time>2026-04-18T07:06:11.001Z</time></trkpt><trkpt lat="39.36502439016167" lon="16.235609084138353"><ele>183.5</ele><time>2026-04-18T07:06:12.001Z</time></trkpt><trkpt lat="39.36530977867455" lon="16.235721068306766"><ele>181.0</ele><time>2026-04-18T07:06:13.001Z</time></trkpt><trkpt lat="39.36559494759166" lon="16.23583418650674"><ele>181.0</ele><time>2026-04-18T07:06:14.001Z</time></trkpt><trkpt lat="39.365880971387064" lon="16.235946861338643"><ele>181.0</ele><time>2026-04-18T07:06:15.001Z</time></trkpt><trkpt lat="39.36616782836603" lon="16.23606126363445"><ele>181.0</ele><time>2026-04-18T07:06:16.001Z</time></trkpt><trkpt lat="39.366458980812865" lon="16.236168795699484"><ele>181.0</ele><time>2026-04-18T07:06:17.001Z</time></trkpt><trkpt lat="39.36675048395125" lon="16.23626059041902"><ele>181.0</ele><time>2026-04-18T07:06:18.001Z</time></trkpt><trkpt lat="39.36704301481131" lon="16.23634717302944"><ele>181.0</ele><time>2026-04-18T07:06:19.001Z</time></trkpt><trkpt lat="39.36733844696158" lon="16.23641926687218"><ele>177.5</ele><time>2026-04-18T07:06:20.001Z</time></trkpt><trkpt lat="39.36763348921683" lon="16.2364744900201"><ele>174.0</ele><time>2026-04-18T07:06:21.001Z</time></trkpt><trkpt lat="39.367931132360084" lon="16.236517178569805"><ele>175.0</ele><time>2026-04-18T07:06:22.001Z</time></trkpt><trkpt lat="39.36822779548116" lon="16.236546135071258"><ele>176.0</ele><time>2026-04-18T07:06:23.001Z</time></trkpt><trkpt lat="39.368526890411296" lon="16.23656016054092"><ele>176.0</ele><time>2026-04-18T07:06:24.001Z</time></trkpt><trkpt lat="39.36882843919816" lon="16.236564288430447"><ele>176.0</ele><time>2026-04-18T07:06:25.001Z</time></trkpt><trkpt lat="39.36912948847803" lon="16.236561632441042"><ele>175.5</ele><time>2026-04-18T07:06:26.001Z</time></trkpt><trkpt lat="39.3694321052084" lon="16.236553525174447"><ele>175.0</ele><time>2026-04-18T07:06:27.001Z</time></trkpt><trkpt lat="39.36972629132936" lon="16.23654428264107"><ele>173.5</ele><time>2026-04-18T07:06:28.001Z</time></trkpt><trkpt lat="39.370024962815585" lon="16.236542262989236"><ele>172.0</ele><time>2026-04-18T07:06:29.001Z</time></trkpt><trkpt lat="39.37032239495685" lon="16.236542242176075"><ele>172.5</ele><time>2026-04-18T07:06:30.001Z</time></trkpt><trkpt lat="39.37062006986527" lon="16.236541730727172"><ele>173.0</ele><time>2026-04-18T07:06:31.001Z</time></trkpt><trkpt lat="39.370918022415196" lon="16.236541791868497"><ele>173.0</ele><time>2026-04-18T07:06:32.001Z</time></trkpt><trkpt lat="39.371217482215954" lon="16.236544201401724"><ele>173.0</ele><time>2026-04-18T07:06:33.001Z</time></trkpt><trkpt lat="39.371515163006606" lon="16.236547554142454"><ele>172.5</ele><time>2026-04-18T07:06:34.001Z</time></trkpt><trkpt lat="39.37181723600744" lon="16.23654430128676"><ele>172.0</ele><time>2026-04-18T07:06:35.001Z</time></trkpt><trkpt lat="39.37211702662643" lon="16.23654374525696"><ele>173.0</ele><time>2026-04-18T07:06:36Z</time></trkpt><trkpt lat="39.37241581582598" lon="16.236540142557885"><ele>174.0</ele><time>2026-04-18T07:06:37Z</time></trkpt><trkpt lat="39.37271725837101" lon="16.236534307530196"><ele>174.0</ele><time>2026-04-18T07:06:38Z</time></trkpt><trkpt lat="39.373017815019374" lon="16.23653280535597"><ele>174.0</ele><time>2026-04-18T07:06:39Z</time></trkpt><trkpt lat="39.3733176477761" lon="16.236531630172475"><ele>173.5</ele><time>2026-04-18T07:06:40Z</time></trkpt><trkpt lat="39.37361577233763" lon="16.2365296828137"><ele>173.0</ele><time>2026-04-18T07:06:41Z</time></trkpt><trkpt lat="39.37391343310097" lon="16.236527888041312"><ele>171.0</ele><time>2026-04-18T07:06:42Z</time></trkpt><trkpt lat="39.374213666227234" lon="16.236520954689638"><ele>169.0</ele><time>2026-04-18T07:06:43Z</time></trkpt><trkpt lat="39.37451319417757" lon="16.236514358456557"><ele>169.5</ele><time>2026-04-18T07:06:44Z</time></trkpt><trkpt lat="39.37481197648076" lon="16.236513447787228"><ele>170.0</ele><time>2026-04-18T07:06:45Z</time></trkpt><trkpt lat="39.37510984457263" lon="16.236514005905835"><ele>170.0</ele><time>2026-04-18T07:06:46Z</time></trkpt><trkpt lat="39.3754083580759" lon="16.236514153614902"><ele>170.0</ele><time>2026-04-18T07:06:47Z</time></trkpt><trkpt lat="39.37571061276411" lon="16.236512303259293"><ele>171.5</ele><time>2026-04-18T07:06:48Z</time></trkpt><trkpt lat="39.37601302635796" lon="16.236510604367204"><ele>173.0</ele><time>2026-04-18T07:06:49Z</time></trkpt><trkpt lat="39.376313195612745" lon="16.236507141478544"><ele>174.0</ele><time>2026-04-18T07:06:50Z</time></trkpt><trkpt lat="39.37661365836435" lon="16.236503540174468"><ele>175.0</ele><time>2026-04-18T07:06:51Z</time></trkpt><trkpt lat="39.37691056830611" lon="16.236500453238612"><ele>172.0</ele><time>2026-04-18T07:06:52Z</time></trkpt><trkpt lat="39.37720761467449" lon="16.236496192309442"><ele>169.0</ele><time>2026-04-18T07:06:53Z</time></trkpt><trkpt lat="39.37750752611758" lon="16.236494793827763"><ele>169.0</ele><time>2026-04-18T07:06:54Z</time></trkpt><trkpt lat="39.377806271845465" lon="16.236490251049535"><ele>169.0</ele><time>2026-04-18T07:06:55Z</time></trkpt><trkpt lat="39.378103972440066" lon="16.236488392387"><ele>167.0</ele><time>2026-04-18T07:06:56Z</time></trkpt><trkpt lat="39.37840310869631" lon="16.236484385787577"><ele>165.0</ele><time>2026-04-18T07:06:57Z</time></trkpt><trkpt lat="39.378702935010196" lon="16.236472492288804"><ele>164.5</ele><time>2026-04-18T07:06:58Z</time></trkpt><trkpt lat="39.37900153696465" lon="16.236458147874888"><ele>164.0</ele><time>2026-04-18T07:06:59Z</time></trkpt><trkpt lat="39.37930312779933" lon="16.236443308157664"><ele>164.0</ele><time>2026-04-18T07:07:00Z</time></trkpt><trkpt lat="39.37960289131488" lon="16.236436330796945"><ele>164.0</ele><time>2026-04-18T07:07:01Z</time></trkpt><trkpt lat="39.37990344604826" lon="16.23643548160518"><ele>163.0</ele><time>2026-04-18T07:07:02Z</time></trkpt><trkpt lat="39.38020246183526" lon="16.2364388867422"><ele>162.0</ele><time>2026-04-18T07:07:03Z</time></trkpt><trkpt lat="39.380505226586465" lon="16.236442184876"><ele>161.5</ele><time>2026-04-18T07:07:04Z</time></trkpt><trkpt lat="39.38080500340615" lon="16.23644864664864"><ele>161.0</ele><time>2026-04-18T07:07:05Z</time></trkpt><trkpt lat="39.38110319009589" lon="16.236454153162768"><ele>161.0</ele><time>2026-04-18T07:07:06Z</time></trkpt><trkpt lat="39.3814033817874" lon="16.23645702198775"><ele>161.0</ele><time>2026-04-18T07:07:07Z</time></trkpt><trkpt lat="39.381703519227784" lon="16.236459565105363"><ele>161.0</ele><time>2026-04-18T07:07:08Z</time></trkpt><trkpt lat="39.382000563112314" lon="16.236463927782868"><ele>161.0</ele><time>2026-04-18T07:07:09Z</time></trkpt><trkpt lat="39.38230035574846" lon="16.23647134235579"><ele>160.0</ele><time>2026-04-18T07:07:10Z</time></trkpt><trkpt lat="39.38259929036224" lon="16.236487783530944"><ele>159.0</ele><time>2026-04-18T07:07:11Z</time></trkpt><trkpt lat="39.38289816772847" lon="16.236511915129274"><ele>158.0</ele><time>2026-04-18T07:07:12Z</time></trkpt><trkpt lat="39.383194510601214" lon="16.236545450497996"><ele>157.0</ele><time>2026-04-18T07:07:13Z</time></trkpt><trkpt lat="39.383494037352314" lon="16.236587746782725"><ele>157.0</ele><time>2026-04-18T07:07:14Z</time></trkpt><trkpt lat="39.383790747146065" lon="16.23664680799228"><ele>157.0</ele><time>2026-04-18T07:07:15Z</time></trkpt><trkpt lat="39.3840813304163" lon="16.23671964774685"><ele>158.0</ele><time>2026-04-18T07:07:16Z</time></trkpt><trkpt lat="39.3843743517387" lon="16.236800043133098"><ele>159.0</ele><time>2026-04-18T07:07:17Z</time></trkpt><trkpt lat="39.384664452446955" lon="16.23688962868093"><ele>159.0</ele><time>2026-04-18T07:07:18Z</time></trkpt><trkpt lat="39.38494776968727" lon="16.236995630587884"><ele>159.0</ele><time>2026-04-18T07:07:19Z</time></trkpt><trkpt lat="39.38523591280449" lon="16.237115864577664"><ele>160.0</ele><time>2026-04-18T07:07:20Z</time></trkpt><trkpt lat="39.385515539415664" lon="16.237252466730002"><ele>161.0</ele><time>2026-04-18T07:07:21Z</time></trkpt><trkpt lat="39.385789296952" lon="16.237402656015934"><ele>161.0</ele><time>2026-04-18T07:07:22Z</time></trkpt><trkpt lat="39.38606084222273" lon="16.237564305884394"><ele>161.0</ele><time>2026-04-18T07:07:23Z</time></trkpt><trkpt lat="39.38632346512958" lon="16.237738941535678"><ele>163.0</ele><time>2026-04-18T07:07:24Z</time></trkpt><trkpt lat="39.386584263319406" lon="16.23792423889519"><ele>165.0</ele><time>2026-04-18T07:07:25Z</time></trkpt><trkpt lat="39.386844945674696" lon="16.23811942648529"><ele>162.5</ele><time>2026-04-18T07:07:26Z</time></trkpt><trkpt lat="39.38709611407093" lon="16.23832823172703"><ele>160.0</ele><time>2026-04-18T07:07:27Z</time></trkpt><trkpt lat="39.38734479558226" lon="16.238546968687547"><ele>160.0</ele><time>2026-04-18T07:07:28Z</time></trkpt><trkpt lat="39.387591591466716" lon="16.238770745676174"><ele>160.0</ele><time>2026-04-18T07:07:29Z</time></trkpt><trkpt lat="39.38783600829754" lon="16.23899786894064"><ele>161.5</ele><time>2026-04-18T07:07:30Z</time></trkpt><trkpt lat="39.388077155240474" lon="16.239228990164207"><ele>163.0</ele><time>2026-04-18T07:07:31Z</time></trkpt><trkpt lat="39.38831702155298" lon="16.239460409159705"><ele>163.0</ele><time>2026-04-18T07:07:32Z</time></trkpt><trkpt lat="39.38855730271536" lon="16.239693468502008"><ele>163.0</ele><time>2026-04-18T07:07:33Z</time></trkpt><trkpt lat="39.3887986614358" lon="16.239925808406795"><ele>164.0</ele><time>2026-04-18T07:07:34Z</time></trkpt><trkpt lat="39.389038616048914" lon="16.240157064358417"><ele>165.0</ele><time>2026-04-18T07:07:35Z</time></trkpt><trkpt lat="39.3892825642783" lon="16.240383794658154"><ele>165.0</ele><time>2026-04-18T07:07:36Z</time></trkpt><trkpt lat="39.38952633500634" lon="16.24060513798148"><ele>165.0</ele><time>2026-04-18T07:07:37Z</time></trkpt><trkpt lat="39.38977783271043" lon="16.240818308853157"><ele>165.5</ele><time>2026-04-18T07:07:38.001Z</time></trkpt><trkpt lat="39.390034021308566" lon="16.241022700415613"><ele>166.0</ele><time>2026-04-18T07:07:39.001Z</time></trkpt><trkpt lat="39.390289075982174" lon="16.241219087579516"><ele>166.5</ele><time>2026-04-18T07:07:40.001Z</time></trkpt><trkpt lat="39.39055408253547" lon="16.24140257208598"><ele>167.0</ele><time>2026-04-18T07:07:41.001Z</time></trkpt><trkpt lat="39.39082002383261" lon="16.241575992454987"><ele>165.5</ele><time>2026-04-18T07:07:42.001Z</time></trkpt><trkpt lat="39.391093819138874" lon="16.241740268654137"><ele>164.0</ele><time>2026-04-18T07:07:43.001Z</time></trkpt><trkpt lat="39.39137073058579" lon="16.241898257115476"><ele>164.0</ele><time>2026-04-18T07:07:44.001Z</time></trkpt><trkpt lat="39.39164612719967" lon="16.24204311234895"><ele>164.0</ele><time>2026-04-18T07:07:45.001Z</time></trkpt><trkpt lat="39.391928504669615" lon="16.242171409485913"><ele>164.0</ele><time>2026-04-18T07:07:46.001Z</time></trkpt><trkpt lat="39.392218147442996" lon="16.24228461451981"><ele>164.0</ele><time>2026-04-18T07:07:47.001Z</time></trkpt><trkpt lat="39.39250556316039" lon="16.242388677685256"><ele>162.0</ele><time>2026-04-18T07:07:48.001Z</time></trkpt><trkpt lat="39.39279841567687" lon="16.24247935936153"><ele>160.0</ele><time>2026-04-18T07:07:49.001Z</time></trkpt><trkpt lat="39.393091011375276" lon="16.242563337687674"><ele>160.0</ele><time>2026-04-18T07:07:50.001Z</time></trkpt><trkpt lat="39.393386930431795" lon="16.242635098111936"><ele>160.0</ele><time>2026-04-18T07:07:51.001Z</time></trkpt><trkpt lat="39.39368127048414" lon="16.242695733483856"><ele>158.5</ele><time>2026-04-18T07:07:52.001Z</time></trkpt><trkpt lat="39.39397833168134" lon="16.24274436862297"><ele>157.0</ele><time>2026-04-18T07:07:53.001Z</time></trkpt><trkpt lat="39.394277106300066" lon="16.24278836552601"><ele>157.0</ele><time>2026-04-18T07:07:54.001Z</time></trkpt><trkpt lat="39.39457545680388" lon="16.242826684399823"><ele>157.0</ele><time>2026-04-18T07:07:55.001Z</time></trkpt><trkpt lat="39.394873336753804" lon="16.24286384237908"><ele>156.5</ele><time>2026-04-18T07:07:56.001Z</time></trkpt><trkpt lat="39.395172275475545" lon="16.242901987402213"><ele>156.0</ele><time>2026-04-18T07:07:57.001Z</time></trkpt><trkpt lat="39.39546619017729" lon="16.24293916170813"><ele>154.0</ele><time>2026-04-18T07:07:58.001Z</time></trkpt><trkpt lat="39.39576905373914" lon="16.24297811645468"><ele>152.0</ele><time>2026-04-18T07:07:59.001Z</time></trkpt><trkpt lat="39.39606658826418" lon="16.243009559210705"><ele>150.0</ele><time>2026-04-18T07:08:00.001Z</time></trkpt><trkpt lat="39.39636186005091" lon="16.24304731382875"><ele>148.0</ele><time>2026-04-18T07:08:01.001Z</time></trkpt><trkpt lat="39.396657991287604" lon="16.2430833905893"><ele>148.0</ele><time>2026-04-18T07:08:02.001Z</time></trkpt><trkpt lat="39.39695463716972" lon="16.24312153404449"><ele>148.0</ele><time>2026-04-18T07:08:03.001Z</time></trkpt><trkpt lat="39.39725254287187" lon="16.243158430894237"><ele>148.5</ele><time>2026-04-18T07:08:04.001Z</time></trkpt><trkpt lat="39.397550328036196" lon="16.243195343981796"><ele>149.0</ele><time>2026-04-18T07:08:05.001Z</time></trkpt><trkpt lat="39.39784706304226" lon="16.243231272934434"><ele>147.0</ele><time>2026-04-18T07:08:06.001Z</time></trkpt><trkpt lat="39.39814581091679" lon="16.243265419493532"><ele>145.0</ele><time>2026-04-18T07:08:07Z</time></trkpt><trkpt lat="39.39844377652393" lon="16.24330188554355"><ele>145.0</ele><time>2026-04-18T07:08:08Z</time></trkpt><trkpt lat="39.39874074149724" lon="16.243339936741293"><ele>145.0</ele><time>2026-04-18T07:08:09Z</time></trkpt><trkpt lat="39.399038408413546" lon="16.243377263759854"><ele>144.5</ele><time>2026-04-18T07:08:10Z</time></trkpt><trkpt lat="39.39933623929796" lon="16.24341417811798"><ele>144.0</ele><time>2026-04-18T07:08:11Z</time></trkpt><trkpt lat="39.399633079508455" lon="16.24345000085741"><ele>144.0</ele><time>2026-04-18T07:08:12Z</time></trkpt><trkpt lat="39.39993294039439" lon="16.24348765439078"><ele>144.0</ele><time>2026-04-18T07:08:13Z</time></trkpt><trkpt lat="39.40023185644039" lon="16.243524172880587"><ele>144.5</ele><time>2026-04-18T07:08:14Z</time></trkpt><trkpt lat="39.400529883669535" lon="16.24356036436813"><ele>145.0</ele><time>2026-04-18T07:08:15Z</time></trkpt><trkpt lat="39.400829389920645" lon="16.243597497593754"><ele>145.0</ele><time>2026-04-18T07:08:16Z</time></trkpt><trkpt lat="39.401128376960244" lon="16.24363651487772"><ele>145.0</ele><time>2026-04-18T07:08:17Z</time></trkpt><trkpt lat="39.4014274890704" lon="16.24367557421409"><ele>144.0</ele><time>2026-04-18T07:08:18Z</time></trkpt><trkpt lat="39.40172688136308" lon="16.243715887272945"><ele>143.0</ele><time>2026-04-18T07:08:19Z</time></trkpt><trkpt lat="39.402026376155604" lon="16.243756668647404"><ele>143.5</ele><time>2026-04-18T07:08:20Z</time></trkpt><trkpt lat="39.40232531884057" lon="16.243795767148878"><ele>144.0</ele><time>2026-04-18T07:08:21Z</time></trkpt><trkpt lat="39.402624543173744" lon="16.243835244917577"><ele>144.0</ele><time>2026-04-18T07:08:22Z</time></trkpt><trkpt lat="39.40292356903814" lon="16.243870621658793"><ele>144.0</ele><time>2026-04-18T07:08:23Z</time></trkpt><trkpt lat="39.40322102411921" lon="16.243905473216767"><ele>145.0</ele><time>2026-04-18T07:08:24Z</time></trkpt><trkpt lat="39.403517459323574" lon="16.24394180334605"><ele>146.0</ele><time>2026-04-18T07:08:25Z</time></trkpt><trkpt lat="39.403816006293724" lon="16.243980700748526"><ele>148.0</ele><time>2026-04-18T07:08:26Z</time></trkpt><trkpt lat="39.40411191859354" lon="16.244020926295473"><ele>150.0</ele><time>2026-04-18T07:08:27Z</time></trkpt><trkpt lat="39.40440961814277" lon="16.24406133393161"><ele>150.0</ele><time>2026-04-18T07:08:28Z</time></trkpt><trkpt lat="39.404709095045796" lon="16.244098038456677"><ele>150.0</ele><time>2026-04-18T07:08:29Z</time></trkpt><trkpt lat="39.40500745521103" lon="16.244134897927204"><ele>150.0</ele><time>2026-04-18T07:08:30Z</time></trkpt><trkpt lat="39.40530529225635" lon="16.244171911589028"><ele>150.0</ele><time>2026-04-18T07:08:31Z</time></trkpt><trkpt lat="39.40560327245271" lon="16.244211747982977"><ele>150.5</ele><time>2026-04-18T07:08:32Z</time></trkpt><trkpt lat="39.405901377327915" lon="16.24425552358529"><ele>151.0</ele><time>2026-04-18T07:08:33Z</time></trkpt><trkpt lat="39.40620136092435" lon="16.244297102147897"><ele>151.0</ele><time>2026-04-18T07:08:34Z</time></trkpt><trkpt lat="39.406500662679875" lon="16.244335567356874"><ele>151.0</ele><time>2026-04-18T07:08:35Z</time></trkpt><trkpt lat="39.406800757833594" lon="16.244370802539507"><ele>151.0</ele><time>2026-04-18T07:08:36Z</time></trkpt><trkpt lat="39.40709895187639" lon="16.244405331095138"><ele>151.0</ele><time>2026-04-18T07:08:37Z</time></trkpt><trkpt lat="39.40739745026254" lon="16.244442618784095"><ele>149.5</ele><time>2026-04-18T07:08:38Z</time></trkpt><trkpt lat="39.407694973760194" lon="16.244480971445764"><ele>148.0</ele><time>2026-04-18T07:08:39Z</time></trkpt><trkpt lat="39.40799215637705" lon="16.244517442283666"><ele>149.0</ele><time>2026-04-18T07:08:40Z</time></trkpt><trkpt lat="39.40828831079373" lon="16.24455147818278"><ele>150.0</ele><time>2026-04-18T07:08:41Z</time></trkpt><trkpt lat="39.40858482276501" lon="16.244587303403783"><ele>149.5</ele><time>2026-04-18T07:08:42Z</time></trkpt><trkpt lat="39.40888294964231" lon="16.24462730861104"><ele>149.0</ele><time>2026-04-18T07:08:43Z</time></trkpt><trkpt lat="39.40918329914225" lon="16.24466829515942"><ele>149.0</ele><time>2026-04-18T07:08:44Z</time></trkpt><trkpt lat="39.40948384633926" lon="16.244708613903317"><ele>149.0</ele><time>2026-04-18T07:08:45Z</time></trkpt><trkpt lat="39.40978292395784" lon="16.244748592427342"><ele>148.5</ele><time>2026-04-18T07:08:46Z</time></trkpt><trkpt lat="39.41007927380921" lon="16.244787544768084"><ele>148.0</ele><time>2026-04-18T07:08:47Z</time></trkpt><trkpt lat="39.41037683519589" lon="16.24482403288377"><ele>145.0</ele><time>2026-04-18T07:08:48Z</time></trkpt><trkpt lat="39.4106741433582" lon="16.244861156391025"><ele>142.0</ele><time>2026-04-18T07:08:49Z</time></trkpt><trkpt lat="39.41097195848859" lon="16.24489745364989"><ele>142.0</ele><time>2026-04-18T07:08:50Z</time></trkpt><trkpt lat="39.41127114061238" lon="16.24492817323001"><ele>142.0</ele><time>2026-04-18T07:08:51Z</time></trkpt><trkpt lat="39.41157125400077" lon="16.24495308179718"><ele>142.0</ele><time>2026-04-18T07:08:52Z</time></trkpt><trkpt lat="39.411870030419706" lon="16.244968774364175"><ele>142.0</ele><time>2026-04-18T07:08:53Z</time></trkpt><trkpt lat="39.412167034737024" lon="16.244980838638792"><ele>142.0</ele><time>2026-04-18T07:08:54Z</time></trkpt><trkpt lat="39.41246684239405" lon="16.24498808485282"><ele>142.0</ele><time>2026-04-18T07:08:55Z</time></trkpt><trkpt lat="39.41276491742662" lon="16.244987694108836"><ele>140.0</ele><time>2026-04-18T07:08:56Z</time></trkpt><trkpt lat="39.41306643333487" lon="16.244977882967014"><ele>138.0</ele><time>2026-04-18T07:08:57Z</time></trkpt><trkpt lat="39.413365980205654" lon="16.244955921790556"><ele>138.0</ele><time>2026-04-18T07:08:58Z</time></trkpt><trkpt lat="39.4136638615751" lon="16.24492195436039"><ele>138.0</ele><time>2026-04-18T07:08:59Z</time></trkpt><trkpt lat="39.41396176059755" lon="16.244877257571076"><ele>138.0</ele><time>2026-04-18T07:09:00Z</time></trkpt><trkpt lat="39.41425829477873" lon="16.244820815912846"><ele>138.0</ele><time>2026-04-18T07:09:01Z</time></trkpt><trkpt lat="39.41455627633095" lon="16.244753774770516"><ele>137.0</ele><time>2026-04-18T07:09:02Z</time></trkpt><trkpt lat="39.41484857186864" lon="16.24467788201039"><ele>136.0</ele><time>2026-04-18T07:09:03Z</time></trkpt><trkpt lat="39.4151377393645" lon="16.244594333995995"><ele>136.0</ele><time>2026-04-18T07:09:04Z</time></trkpt><trkpt lat="39.41542658673024" lon="16.244503706101757"><ele>136.0</ele><time>2026-04-18T07:09:05Z</time></trkpt><trkpt lat="39.41571681842254" lon="16.244407204782572"><ele>133.5</ele><time>2026-04-18T07:09:06Z</time></trkpt><trkpt lat="39.41600719307181" lon="16.24430711496131"><ele>131.0</ele><time>2026-04-18T07:09:07Z</time></trkpt><trkpt lat="39.41629676428446" lon="16.24420521989772"><ele>131.0</ele><time>2026-04-18T07:09:08Z</time></trkpt><trkpt lat="39.416584623070555" lon="16.244104221188994"><ele>131.0</ele><time>2026-04-18T07:09:09Z</time></trkpt><trkpt lat="39.41687214020419" lon="16.244000529552753"><ele>136.5</ele><time>2026-04-18T07:09:10Z</time></trkpt><trkpt lat="39.41715774705584" lon="16.243894286208896"><ele>142.0</ele><time>2026-04-18T07:09:11Z</time></trkpt><trkpt lat="39.41744508063561" lon="16.24378758430116"><ele>142.0</ele><time>2026-04-18T07:09:12Z</time></trkpt><trkpt lat="39.41773282621506" lon="16.24368116263779"><ele>142.0</ele><time>2026-04-18T07:09:13Z</time></trkpt><trkpt lat="39.41802157003885" lon="16.243577160443323"><ele>142.0</ele><time>2026-04-18T07:09:14Z</time></trkpt><trkpt lat="39.41831081944791" lon="16.243474921972478"><ele>142.0</ele><time>2026-04-18T07:09:15Z</time></trkpt><trkpt lat="39.41860075201909" lon="16.243377223552173"><ele>142.0</ele><time>2026-04-18T07:09:16Z</time></trkpt><trkpt lat="39.41889045875464" lon="16.24328274962543"><ele>142.0</ele><time>2026-04-18T07:09:17Z</time></trkpt><trkpt lat="39.41918160813994" lon="16.243192029782886"><ele>142.5</ele><time>2026-04-18T07:09:18Z</time></trkpt><trkpt lat="39.41947586083977" lon="16.243107371642406"><ele>143.0</ele><time>2026-04-18T07:09:19Z</time></trkpt><trkpt lat="39.419770107774056" lon="16.243029123787284"><ele>143.5</ele><time>2026-04-18T07:09:20Z</time></trkpt><trkpt lat="39.42006497923026" lon="16.242958246552472"><ele>144.0</ele><time>2026-04-18T07:09:21Z</time></trkpt><trkpt lat="39.42036042058542" lon="16.24289218591892"><ele>143.5</ele><time>2026-04-18T07:09:22Z</time></trkpt><trkpt lat="39.42065539180665" lon="16.24283326463255"><ele>143.0</ele><time>2026-04-18T07:09:23Z</time></trkpt><trkpt lat="39.420950690579815" lon="16.24277680139034"><ele>143.0</ele><time>2026-04-18T07:09:24Z</time></trkpt><trkpt lat="39.42124717461806" lon="16.24271856048812"><ele>143.0</ele><time>2026-04-18T07:09:25Z</time></trkpt><trkpt lat="39.421543046935156" lon="16.24265639337673"><ele>143.0</ele><time>2026-04-18T07:09:26Z</time></trkpt><trkpt lat="39.42183928967593" lon="16.242597630245847"><ele>143.0</ele><time>2026-04-18T07:09:27Z</time></trkpt><trkpt lat="39.422135778636004" lon="16.24254154840874"><ele>142.5</ele><time>2026-04-18T07:09:28Z</time></trkpt><trkpt lat="39.42243440893851" lon="16.242486761699634"><ele>142.0</ele><time>2026-04-18T07:09:29Z</time></trkpt><trkpt lat="39.42273085441215" lon="16.24243165767921"><ele>141.0</ele><time>2026-04-18T07:09:30Z</time></trkpt><trkpt lat="39.423027592725006" lon="16.242377298693878"><ele>140.0</ele><time>2026-04-18T07:09:31Z</time></trkpt><trkpt lat="39.42332641495136" lon="16.24232228853093"><ele>141.0</ele><time>2026-04-18T07:09:32Z</time></trkpt><trkpt lat="39.423624215859384" lon="16.24226615985326"><ele>142.0</ele><time>2026-04-18T07:09:33Z</time></trkpt><trkpt lat="39.423922806666916" lon="16.242209601138512"><ele>142.5</ele><time>2026-04-18T07:09:34Z</time></trkpt><trkpt lat="39.424218921267084" lon="16.24215394141353"><ele>143.0</ele><time>2026-04-18T07:09:35Z</time></trkpt><trkpt lat="39.42451354580818" lon="16.242100308817225"><ele>142.0</ele><time>2026-04-18T07:09:36Z</time></trkpt><trkpt lat="39.424808545231" lon="16.242046991634226"><ele>141.0</ele><time>2026-04-18T07:09:37Z</time></trkpt><trkpt lat="39.42510620422886" lon="16.241993404466342"><ele>141.0</ele><time>2026-04-18T07:09:38Z</time></trkpt><trkpt lat="39.42540202784474" lon="16.241940105352317"><ele>141.0</ele><time>2026-04-18T07:09:39Z</time></trkpt><trkpt lat="39.42569772834293" lon="16.241885346923674"><ele>140.5</ele><time>2026-04-18T07:09:40Z</time></trkpt><trkpt lat="39.42599411471325" lon="16.241830342362636"><ele>140.0</ele><time>2026-04-18T07:09:41Z</time></trkpt><trkpt lat="39.42629141774121" lon="16.24177343875111"><ele>140.0</ele><time>2026-04-18T07:09:42Z</time></trkpt><trkpt lat="39.42658793625971" lon="16.241715119465695"><ele>140.0</ele><time>2026-04-18T07:09:43Z</time></trkpt><trkpt lat="39.42688307604514" lon="16.24165759852354"><ele>140.5</ele><time>2026-04-18T07:09:44Z</time></trkpt><trkpt lat="39.42717906988386" lon="16.241603093290404"><ele>141.0</ele><time>2026-04-18T07:09:45Z</time></trkpt><trkpt lat="39.4274758645998" lon="16.24154864350069"><ele>141.0</ele><time>2026-04-18T07:09:46Z</time></trkpt><trkpt lat="39.427771093753215" lon="16.241489950785773"><ele>141.0</ele><time>2026-04-18T07:09:47Z</time></trkpt><trkpt lat="39.42806897194527" lon="16.241426393589165"><ele>141.0</ele><time>2026-04-18T07:09:48Z</time></trkpt><trkpt lat="39.42836836954326" lon="16.241365782613155"><ele>141.0</ele><time>2026-04-18T07:09:49Z</time></trkpt><trkpt lat="39.42866531440877" lon="16.24130661444874"><ele>138.0</ele><time>2026-04-18T07:09:50Z</time></trkpt><trkpt lat="39.428962691378196" lon="16.241248408026745"><ele>135.0</ele><time>2026-04-18T07:09:51Z</time></trkpt><trkpt lat="39.42925820335599" lon="16.241194385609408"><ele>135.0</ele><time>2026-04-18T07:09:52Z</time></trkpt><trkpt lat="39.429553996051155" lon="16.241145294190993"><ele>135.0</ele><time>2026-04-18T07:09:53Z</time></trkpt><trkpt lat="39.42985196975465" lon="16.241106436340605"><ele>134.5</ele><time>2026-04-18T07:09:54Z</time></trkpt><trkpt lat="39.43015139740844" lon="16.241078796100435"><ele>134.0</ele><time>2026-04-18T07:09:55Z</time></trkpt><trkpt lat="39.43045113678366" lon="16.241062075543073"><ele>133.5</ele><time>2026-04-18T07:09:56Z</time></trkpt><trkpt lat="39.430749845418944" lon="16.24105636428136"><ele>133.0</ele><time>2026-04-18T07:09:57Z</time></trkpt><trkpt lat="39.431049653823216" lon="16.241053351115305"><ele>132.5</ele><time>2026-04-18T07:09:58Z</time></trkpt><trkpt lat="39.431348994721844" lon="16.241049542172668"><ele>132.0</ele><time>2026-04-18T07:09:59Z</time></trkpt><trkpt lat="39.4316469316221" lon="16.24104438235197"><ele>132.0</ele><time>2026-04-18T07:10:00Z</time></trkpt><trkpt lat="39.43194546726038" lon="16.2410389852242"><ele>132.0</ele><time>2026-04-18T07:10:01Z</time></trkpt><trkpt lat="39.43224619540641" lon="16.241034872804367"><ele>132.0</ele><time>2026-04-18T07:10:02Z</time></trkpt><trkpt lat="39.43254450517292" lon="16.241032720688363"><ele>132.0</ele><time>2026-04-18T07:10:03Z</time></trkpt><trkpt lat="39.4328435698786" lon="16.241031949798035"><ele>131.0</ele><time>2026-04-18T07:10:04Z</time></trkpt><trkpt lat="39.43314657982677" lon="16.241032450906758"><ele>130.0</ele><time>2026-04-18T07:10:05Z</time></trkpt><trkpt lat="39.43344329230499" lon="16.241031435450807"><ele>130.0</ele><time>2026-04-18T07:10:06Z</time></trkpt><trkpt lat="39.43374355621603" lon="16.241031430758035"><ele>130.0</ele><time>2026-04-18T07:10:07Z</time></trkpt><trkpt lat="39.434042069485265" lon="16.241029963670663"><ele>129.5</ele><time>2026-04-18T07:10:08Z</time></trkpt><trkpt lat="39.43434346658777" lon="16.241023490872596"><ele>129.0</ele><time>2026-04-18T07:10:09Z</time></trkpt><trkpt lat="39.43464322746502" lon="16.24100703300942"><ele>128.0</ele><time>2026-04-18T07:10:10Z</time></trkpt><trkpt lat="39.434942633238286" lon="16.24098147922671"><ele>127.0</ele><time>2026-04-18T07:10:11Z</time></trkpt><trkpt lat="39.435242208960155" lon="16.240952978803776"><ele>127.0</ele><time>2026-04-18T07:10:12Z</time></trkpt><trkpt lat="39.4355369248957" lon="16.240907952614396"><ele>127.0</ele><time>2026-04-18T07:10:13Z</time></trkpt><trkpt lat="39.43583490767814" lon="16.240852190734664"><ele>127.0</ele><time>2026-04-18T07:10:14Z</time></trkpt><trkpt lat="39.43612746077178" lon="16.240777876145984"><ele>127.0</ele><time>2026-04-18T07:10:15Z</time></trkpt><trkpt lat="39.436420006538704" lon="16.240689648019284"><ele>127.0</ele><time>2026-04-18T07:10:16Z</time></trkpt><trkpt lat="39.436709944989516" lon="16.24059209419261"><ele>127.0</ele><time>2026-04-18T07:10:17Z</time></trkpt><trkpt lat="39.436997015543234" lon="16.24048316303333"><ele>126.5</ele><time>2026-04-18T07:10:18Z</time></trkpt><trkpt lat="39.43728307005859" lon="16.24036595105805"><ele>126.0</ele><time>2026-04-18T07:10:19Z</time></trkpt><trkpt lat="39.437564614257354" lon="16.24024141969181"><ele>126.0</ele><time>2026-04-18T07:10:20Z</time></trkpt><trkpt lat="39.43784632484978" lon="16.240105527399187"><ele>126.0</ele><time>2026-04-18T07:10:21Z</time></trkpt><trkpt lat="39.43812279997521" lon="16.239968104571176"><ele>126.0</ele><time>2026-04-18T07:10:22Z</time></trkpt><trkpt lat="39.43840281916989" lon="16.239826483960226"><ele>126.0</ele><time>2026-04-18T07:10:23Z</time></trkpt><trkpt lat="39.43868148661266" lon="16.23968778233812"><ele>124.5</ele><time>2026-04-18T07:10:24Z</time></trkpt><trkpt lat="39.438962293709515" lon="16.239549827217704"><ele>123.0</ele><time>2026-04-18T07:10:25Z</time></trkpt><trkpt lat="39.43924383898058" lon="16.239408206604274"><ele>123.0</ele><time>2026-04-18T07:10:26Z</time></trkpt><trkpt lat="39.43952324726967" lon="16.239268959311364"><ele>123.0</ele><time>2026-04-18T07:10:27Z</time></trkpt><trkpt lat="39.4398016115978" lon="16.239132149062588"><ele>121.0</ele><time>2026-04-18T07:10:28Z</time></trkpt><trkpt lat="39.44008398153983" lon="16.2389894041197"><ele>119.0</ele><time>2026-04-18T07:10:29Z</time></trkpt><trkpt lat="39.44036020704268" lon="16.238852726748213"><ele>119.0</ele><time>2026-04-18T07:10:30Z</time></trkpt><trkpt lat="39.440638922677955" lon="16.238714668212694"><ele>119.0</ele><time>2026-04-18T07:10:31Z</time></trkpt><trkpt lat="39.44091972198636" lon="16.238578514754636"><ele>119.0</ele><time>2026-04-18T07:10:32Z</time></trkpt><trkpt lat="39.44120301345793" lon="16.23845092273499"><ele>119.0</ele><time>2026-04-18T07:10:33Z</time></trkpt><trkpt lat="39.441490495964295" lon="16.238332679812125"><ele>119.5</ele><time>2026-04-18T07:10:34Z</time></trkpt><trkpt lat="39.44177868833148" lon="16.238229444251434"><ele>120.0</ele><time>2026-04-18T07:10:35Z</time></trkpt><trkpt lat="39.44206890318421" lon="16.238134764005665"><ele>120.5</ele><time>2026-04-18T07:10:36Z</time></trkpt><trkpt lat="39.442363450143894" lon="16.23805156528637"><ele>121.0</ele><time>2026-04-18T07:10:37Z</time></trkpt><trkpt lat="39.4426577962668" lon="16.237985878263125"><ele>121.0</ele><time>2026-04-18T07:10:38Z</time></trkpt><trkpt lat="39.442953043409126" lon="16.2379380165357"><ele>121.0</ele><time>2026-04-18T07:10:39Z</time></trkpt><trkpt lat="39.44325167070078" lon="16.237901686577473"><ele>122.0</ele><time>2026-04-18T07:10:40Z</time></trkpt><trkpt lat="39.443551109621986" lon="16.237879985457667"><ele>123.0</ele><time>2026-04-18T07:10:41Z</time></trkpt><trkpt lat="39.44385129130692" lon="16.237867867330216"><ele>123.0</ele><time>2026-04-18T07:10:42Z</time></trkpt><trkpt lat="39.44414842023187" lon="16.23786582674203"><ele>123.0</ele><time>2026-04-18T07:10:43Z</time></trkpt><trkpt lat="39.44444866361819" lon="16.23787175306418"><ele>123.5</ele><time>2026-04-18T07:10:44Z</time></trkpt><trkpt lat="39.444748157037914" lon="16.237881655719942"><ele>124.0</ele><time>2026-04-18T07:10:45Z</time></trkpt><trkpt lat="39.44504646804395" lon="16.237899743890924"><ele>124.0</ele><time>2026-04-18T07:10:46Z</time></trkpt><trkpt lat="39.44534617997278" lon="16.237919490418346"><ele>124.0</ele><time>2026-04-18T07:10:47Z</time></trkpt><trkpt lat="39.445645814247555" lon="16.237941552481413"><ele>123.5</ele><time>2026-04-18T07:10:48Z</time></trkpt><trkpt lat="39.44594595051483" lon="16.237963402592122"><ele>123.0</ele><time>2026-04-18T07:10:49Z</time></trkpt><trkpt lat="39.446245383817335" lon="16.237981734660448"><ele>122.5</ele><time>2026-04-18T07:10:50Z</time></trkpt><trkpt lat="39.44654180019671" lon="16.23799503916158"><ele>122.0</ele><time>2026-04-18T07:10:51Z</time></trkpt><trkpt lat="39.4468440306533" lon="16.23799684471783"><ele>120.5</ele><time>2026-04-18T07:10:52Z</time></trkpt><trkpt lat="39.44714644323704" lon="16.23799212284848"><ele>119.0</ele><time>2026-04-18T07:10:53Z</time></trkpt><trkpt lat="39.447444092741456" lon="16.237980467821753"><ele>119.0</ele><time>2026-04-18T07:10:54Z</time></trkpt><trkpt lat="39.44774260973337" lon="16.237957366748137"><ele>119.0</ele><time>2026-04-18T07:10:55Z</time></trkpt><trkpt lat="39.448041539222444" lon="16.23792617354881"><ele>116.5</ele><time>2026-04-18T07:10:56Z</time></trkpt><trkpt lat="39.44834095982062" lon="16.237880725164686"><ele>114.0</ele><time>2026-04-18T07:10:57Z</time></trkpt><trkpt lat="39.448637872826374" lon="16.23782494713045"><ele>113.0</ele><time>2026-04-18T07:10:58Z</time></trkpt><trkpt lat="39.4489370922665" lon="16.2377597349116"><ele>112.0</ele><time>2026-04-18T07:10:59Z</time></trkpt><trkpt lat="39.44923003939593" lon="16.237683230060323"><ele>112.0</ele><time>2026-04-18T07:11:00Z</time></trkpt><trkpt lat="39.44952356766215" lon="16.237594328224414"><ele>112.0</ele><time>2026-04-18T07:11:01Z</time></trkpt><trkpt lat="39.449813045746616" lon="16.237494901824594"><ele>111.5</ele><time>2026-04-18T07:11:02Z</time></trkpt><trkpt lat="39.45010141231557" lon="16.237384284947677"><ele>111.0</ele><time>2026-04-18T07:11:03Z</time></trkpt><trkpt lat="39.45038670346511" lon="16.23726549444811"><ele>111.5</ele><time>2026-04-18T07:11:04Z</time></trkpt><trkpt lat="39.45066759998576" lon="16.23713511535665"><ele>112.0</ele><time>2026-04-18T07:11:05Z</time></trkpt><trkpt lat="39.45094907003879" lon="16.236995147496785"><ele>112.0</ele><time>2026-04-18T07:11:06Z</time></trkpt><trkpt lat="39.45122419003051" lon="16.236842095069086"><ele>112.0</ele><time>2026-04-18T07:11:07Z</time></trkpt><trkpt lat="39.45149665918636" lon="16.2366806185758"><ele>111.5</ele><time>2026-04-18T07:11:08Z</time></trkpt><trkpt lat="39.45176745765735" lon="16.236512781893094"><ele>111.0</ele><time>2026-04-18T07:11:09Z</time></trkpt><trkpt lat="39.45203320106315" lon="16.236336532265106"><ele>108.5</ele><time>2026-04-18T07:11:10Z</time></trkpt><trkpt lat="39.45229700725047" lon="16.236150839137256"><ele>106.0</ele><time>2026-04-18T07:11:11Z</time></trkpt><trkpt lat="39.45255512113919" lon="16.235952276230964"><ele>106.0</ele><time>2026-04-18T07:11:12Z</time></trkpt><trkpt lat="39.45280635490103" lon="16.235746344768984"><ele>106.0</ele><time>2026-04-18T07:11:13Z</time></trkpt><trkpt lat="39.45305416454837" lon="16.235528811170468"><ele>105.0</ele><time>2026-04-18T07:11:14Z</time></trkpt><trkpt lat="39.45329799595621" lon="16.23530217781075"><ele>104.0</ele><time>2026-04-18T07:11:15Z</time></trkpt><trkpt lat="39.45353579514792" lon="16.235068562814764"><ele>104.0</ele><time>2026-04-18T07:11:16Z</time></trkpt><trkpt lat="39.4537701455928" lon="16.23482624504235"><ele>104.0</ele><time>2026-04-18T07:11:16.999Z</time></trkpt><trkpt lat="39.45399811272286" lon="16.23457747586278"><ele>104.0</ele><time>2026-04-18T07:11:17.999Z</time></trkpt><trkpt lat="39.454221401815126" lon="16.23431911007107"><ele>104.0</ele><time>2026-04-18T07:11:18.999Z</time></trkpt><trkpt lat="39.45443826702777" lon="16.234044049750974"><ele>103.5</ele><time>2026-04-18T07:11:19.999Z</time></trkpt><trkpt lat="39.45464751245857" lon="16.233772203871098"><ele>103.0</ele><time>2026-04-18T07:11:20.999Z</time></trkpt><trkpt lat="39.454855208886045" lon="16.23349302316893"><ele>103.0</ele><time>2026-04-18T07:11:21.999Z</time></trkpt><trkpt lat="39.45505748135981" lon="16.233210015717717"><ele>103.0</ele><time>2026-04-18T07:11:22.999Z</time></trkpt><trkpt lat="39.45525770376799" lon="16.232924498952304"><ele>103.0</ele><time>2026-04-18T07:11:23.999Z</time></trkpt><trkpt lat="39.455456293490975" lon="16.232637887006533"><ele>103.0</ele><time>2026-04-18T07:11:24.999Z</time></trkpt><trkpt lat="39.45565749071371" lon="16.232349139644608"><ele>103.5</ele><time>2026-04-18T07:11:25.999Z</time></trkpt><trkpt lat="39.45585519041893" lon="16.232065275701565"><ele>104.0</ele><time>2026-04-18T07:11:26.999Z</time></trkpt><trkpt lat="39.45605571074255" lon="16.23177793151546"><ele>104.0</ele><time>2026-04-18T07:11:27.999Z</time></trkpt><trkpt lat="39.456256901316124" lon="16.231488863008426"><ele>104.0</ele><time>2026-04-18T07:11:28.999Z</time></trkpt><trkpt lat="39.45645776315241" lon="16.23120100937161"><ele>103.5</ele><time>2026-04-18T07:11:29.999Z</time></trkpt><trkpt lat="39.456658879125165" lon="16.230915460379446"><ele>103.0</ele><time>2026-04-18T07:11:30.999Z</time></trkpt><trkpt lat="39.45686116458283" lon="16.230628736554333"><ele>102.5</ele><time>2026-04-18T07:11:31.999Z</time></trkpt><trkpt lat="39.45706183760615" lon="16.230341436924736"><ele>102.0</ele><time>2026-04-18T07:11:32.999Z</time></trkpt><trkpt lat="39.457260912954936" lon="16.230051665866547"><ele>102.5</ele><time>2026-04-18T07:11:33.999Z</time></trkpt><trkpt lat="39.45745552570802" lon="16.229757012185274"><ele>103.0</ele><time>2026-04-18T07:11:34.999Z</time></trkpt><trkpt lat="39.45764888876796" lon="16.22946482357734"><ele>103.0</ele><time>2026-04-18T07:11:35.999Z</time></trkpt><trkpt lat="39.45784662300316" lon="16.22917155761376"><ele>103.0</ele><time>2026-04-18T07:11:36.999Z</time></trkpt><trkpt lat="39.458045820122784" lon="16.228884312810926"><ele>102.5</ele><time>2026-04-18T07:11:37.999Z</time></trkpt><trkpt lat="39.458245857966354" lon="16.228599130295393"><ele>102.0</ele><time>2026-04-18T07:11:38.999Z</time></trkpt><trkpt lat="39.45844502087509" lon="16.22831650470616"><ele>101.5</ele><time>2026-04-18T07:11:39.999Z</time></trkpt><trkpt lat="39.458647774395466" lon="16.228028412926623"><ele>101.0</ele><time>2026-04-18T07:11:40.999Z</time></trkpt><trkpt lat="39.45884678978474" lon="16.22774063165937"><ele>101.0</ele><time>2026-04-18T07:11:41.999Z</time></trkpt><trkpt lat="39.459045830821225" lon="16.227450657024463"><ele>101.0</ele><time>2026-04-18T07:11:42.999Z</time></trkpt><trkpt lat="39.459245456274054" lon="16.227162035882824"><ele>100.5</ele><time>2026-04-18T07:11:43.999Z</time></trkpt><trkpt lat="39.45944679295658" lon="16.226873852559475"><ele>100.0</ele><time>2026-04-18T07:11:44.999Z</time></trkpt><trkpt lat="39.45964907891334" lon="16.226589988032078"><ele>100.0</ele><time>2026-04-18T07:11:45.999Z</time></trkpt><trkpt lat="39.459851006979044" lon="16.226306582592095"><ele>100.0</ele><time>2026-04-18T07:11:46.999Z</time></trkpt><trkpt lat="39.46005286817678" lon="16.22602106067743"><ele>100.0</ele><time>2026-04-18T07:11:47.999Z</time></trkpt><trkpt lat="39.46025830294514" lon="16.225733356862854"><ele>100.0</ele><time>2026-04-18T07:11:48.999Z</time></trkpt><trkpt lat="39.46046608981896" lon="16.22545076954805"><ele>100.0</ele><time>2026-04-18T07:11:50Z</time></trkpt><trkpt lat="39.46067739573109" lon="16.225175925136167"><ele>100.0</ele><time>2026-04-18T07:11:51Z</time></trkpt><trkpt lat="39.46089407127698" lon="16.22490512660997"><ele>100.0</ele><time>2026-04-18T07:11:52Z</time></trkpt><trkpt lat="39.461114217338995" lon="16.22464113114959"><ele>100.0</ele><time>2026-04-18T07:11:53Z</time></trkpt><trkpt lat="39.46133463987613" lon="16.224379794175935"><ele>100.0</ele><time>2026-04-18T07:11:54Z</time></trkpt><trkpt lat="39.46155786515361" lon="16.22412384722254"><ele>100.0</ele><time>2026-04-18T07:11:55Z</time></trkpt><trkpt lat="39.46178301413951" lon="16.22386993222301"><ele>100.0</ele><time>2026-04-18T07:11:56Z</time></trkpt><trkpt lat="39.46200928463154" lon="16.22362327427633"><ele>100.0</ele><time>2026-04-18T07:11:57Z</time></trkpt><trkpt lat="39.46224384710162" lon="16.22337794628591"><ele>99.5</ele><time>2026-04-18T07:11:58Z</time></trkpt><trkpt lat="39.462482261925274" lon="16.223143195219563"><ele>99.0</ele><time>2026-04-18T07:11:59Z</time></trkpt><trkpt lat="39.462726381891976" lon="16.222916806863463"><ele>99.5</ele><time>2026-04-18T07:12:00Z</time></trkpt><trkpt lat="39.46297292306721" lon="16.222695195022467"><ele>100.0</ele><time>2026-04-18T07:12:01Z</time></trkpt><trkpt lat="39.46321918599818" lon="16.22247765376371"><ele>99.0</ele><time>2026-04-18T07:12:02Z</time></trkpt><trkpt lat="39.46347068762683" lon="16.222264523876667"><ele>98.0</ele><time>2026-04-18T07:12:03Z</time></trkpt><trkpt lat="39.46372399458876" lon="16.22205777938956"><ele>97.5</ele><time>2026-04-18T07:12:04Z</time></trkpt><trkpt lat="39.463984857745174" lon="16.221856353662808"><ele>97.0</ele><time>2026-04-18T07:12:05Z</time></trkpt><trkpt lat="39.46424382554413" lon="16.221666912793356"><ele>97.0</ele><time>2026-04-18T07:12:06Z</time></trkpt><trkpt lat="39.46450783366525" lon="16.221485180088465"><ele>97.0</ele><time>2026-04-18T07:12:07Z</time></trkpt><trkpt lat="39.46477501477181" lon="16.221303971977132"><ele>98.5</ele><time>2026-04-18T07:12:08Z</time></trkpt><trkpt lat="39.46504034423609" lon="16.221128838812007"><ele>100.0</ele><time>2026-04-18T07:12:09Z</time></trkpt><trkpt lat="39.46530909919692" lon="16.220959623764415"><ele>99.0</ele><time>2026-04-18T07:12:10Z</time></trkpt><trkpt lat="39.465582221282425" lon="16.220798138622992"><ele>98.0</ele><time>2026-04-18T07:12:11Z</time></trkpt><trkpt lat="39.46585825126883" lon="16.220640785642562"><ele>98.0</ele><time>2026-04-18T07:12:12Z</time></trkpt><trkpt lat="39.466136363028184" lon="16.220490926492726"><ele>98.0</ele><time>2026-04-18T07:12:13Z</time></trkpt><trkpt lat="39.46641399302308" lon="16.22034758810569"><ele>97.5</ele><time>2026-04-18T07:12:14Z</time></trkpt><trkpt lat="39.466695209236136" lon="16.22021353831362"><ele>97.0</ele><time>2026-04-18T07:12:15Z</time></trkpt><trkpt lat="39.46697683744977" lon="16.22008513734191"><ele>97.0</ele><time>2026-04-18T07:12:16Z</time></trkpt><trkpt lat="39.46726042687831" lon="16.219960306263694"><ele>97.0</ele><time>2026-04-18T07:12:17Z</time></trkpt><trkpt lat="39.46754233097755" lon="16.219837747668777"><ele>97.0</ele><time>2026-04-18T07:12:18Z</time></trkpt><trkpt lat="39.46782719678499" lon="16.219714164318003"><ele>97.0</ele><time>2026-04-18T07:12:19Z</time></trkpt><trkpt lat="39.46811102742214" lon="16.219590409566294"><ele>97.0</ele><time>2026-04-18T07:12:20Z</time></trkpt><trkpt lat="39.46839350036694" lon="16.219468008540517"><ele>97.0</ele><time>2026-04-18T07:12:21Z</time></trkpt><trkpt lat="39.46867878320601" lon="16.219344164191376"><ele>97.0</ele><time>2026-04-18T07:12:22Z</time></trkpt><trkpt lat="39.468961416253954" lon="16.21922080008477"><ele>97.0</ele><time>2026-04-18T07:12:23Z</time></trkpt><trkpt lat="39.46924563951346" lon="16.219097322994802"><ele>96.5</ele><time>2026-04-18T07:12:24Z</time></trkpt><trkpt lat="39.46953100928485" lon="16.218974629296756"><ele>96.0</ele><time>2026-04-18T07:12:25Z</time></trkpt><trkpt lat="39.46981583395987" lon="16.218853520346954"><ele>96.0</ele><time>2026-04-18T07:12:26Z</time></trkpt><trkpt lat="39.470098091989996" lon="16.218730824725046"><ele>96.0</ele><time>2026-04-18T07:12:27Z</time></trkpt><trkpt lat="39.47038346700892" lon="16.218607747718412"><ele>96.5</ele><time>2026-04-18T07:12:28Z</time></trkpt><trkpt lat="39.47066585320421" lon="16.218484242889804"><ele>97.0</ele><time>2026-04-18T07:12:29Z</time></trkpt><trkpt lat="39.47094923262439" lon="16.2183602307764"><ele>97.0</ele><time>2026-04-18T07:12:30Z</time></trkpt><trkpt lat="39.471236160528086" lon="16.218238145140276"><ele>97.0</ele><time>2026-04-18T07:12:31Z</time></trkpt><trkpt lat="39.471520863267465" lon="16.218115393365764"><ele>95.0</ele><time>2026-04-18T07:12:32Z</time></trkpt><trkpt lat="39.47180492161011" lon="16.217993873706284"><ele>93.0</ele><time>2026-04-18T07:12:33Z</time></trkpt><trkpt lat="39.4720891995723" lon="16.2178725014159"><ele>93.0</ele><time>2026-04-18T07:12:34Z</time></trkpt><trkpt lat="39.472373016768735" lon="16.217750709583548"><ele>93.0</ele><time>2026-04-18T07:12:35Z</time></trkpt><trkpt lat="39.47265547118596" lon="16.21762931301911"><ele>93.5</ele><time>2026-04-18T07:12:36Z</time></trkpt><trkpt lat="39.472941299509905" lon="16.217508879639364"><ele>94.0</ele><time>2026-04-18T07:12:37Z</time></trkpt><trkpt lat="39.473223853741636" lon="16.217387254836733"><ele>93.5</ele><time>2026-04-18T07:12:38Z</time></trkpt><trkpt lat="39.473508746680466" lon="16.217267484226422"><ele>93.0</ele><time>2026-04-18T07:12:39Z</time></trkpt><trkpt lat="39.47379270750894" lon="16.217147907277607"><ele>93.0</ele><time>2026-04-18T07:12:40Z</time></trkpt><trkpt lat="39.47407591943472" lon="16.217028098370918"><ele>93.0</ele><time>2026-04-18T07:12:41Z</time></trkpt><trkpt lat="39.474360245810324" lon="16.216907931415722"><ele>94.0</ele><time>2026-04-18T07:12:42Z</time></trkpt><trkpt lat="39.474645413482115" lon="16.21678985077167"><ele>95.0</ele><time>2026-04-18T07:12:43Z</time></trkpt><trkpt lat="39.4749311720031" lon="16.216677099275103"><ele>95.0</ele><time>2026-04-18T07:12:44Z</time></trkpt><trkpt lat="39.475219002618786" lon="16.216573356058166"><ele>95.0</ele><time>2026-04-18T07:12:45Z</time></trkpt><trkpt lat="39.47550942162519" lon="16.21647418112514"><ele>94.0</ele><time>2026-04-18T07:12:46Z</time></trkpt><trkpt lat="39.475800680396" lon="16.21637738181526"><ele>93.0</ele><time>2026-04-18T07:12:47Z</time></trkpt><trkpt lat="39.476092782918435" lon="16.21628598391654"><ele>93.0</ele><time>2026-04-18T07:12:48Z</time></trkpt><trkpt lat="39.47638650550116" lon="16.2162049450081"><ele>93.0</ele><time>2026-04-18T07:12:48.999Z</time></trkpt><trkpt lat="39.47668160926454" lon="16.21612866122463"><ele>93.0</ele><time>2026-04-18T07:12:49.999Z</time></trkpt><trkpt lat="39.47697565325825" lon="16.21605836521199"><ele>93.0</ele><time>2026-04-18T07:12:50.999Z</time></trkpt><trkpt lat="39.47726950061737" lon="16.215987734984825"><ele>94.0</ele><time>2026-04-18T07:12:51.999Z</time></trkpt><trkpt lat="39.47756684287674" lon="16.215916468323"><ele>95.0</ele><time>2026-04-18T07:12:52.999Z</time></trkpt><trkpt lat="39.47786176058149" lon="16.21584065212436"><ele>95.0</ele><time>2026-04-18T07:12:53.999Z</time></trkpt><trkpt lat="39.478157619903165" lon="16.21576243151308"><ele>95.0</ele><time>2026-04-18T07:12:54.999Z</time></trkpt><trkpt lat="39.47844977130222" lon="16.215683797233755"><ele>95.0</ele><time>2026-04-18T07:12:55.999Z</time></trkpt><trkpt lat="39.47874430451783" lon="16.2156082058414"><ele>95.0</ele><time>2026-04-18T07:12:56.999Z</time></trkpt><trkpt lat="39.47904082727299" lon="16.215533860021313"><ele>95.0</ele><time>2026-04-18T07:12:57.999Z</time></trkpt><trkpt lat="39.4793330977672" lon="16.215460642140133"><ele>95.0</ele><time>2026-04-18T07:12:58.999Z</time></trkpt><trkpt lat="39.47962820743976" lon="16.215386946304992"><ele>95.5</ele><time>2026-04-18T07:12:59.999Z</time></trkpt><trkpt lat="39.479920696186426" lon="16.21531035679792"><ele>96.0</ele><time>2026-04-18T07:13:00.999Z</time></trkpt><trkpt lat="39.48021416525138" lon="16.21523510584539"><ele>96.0</ele><time>2026-04-18T07:13:01.999Z</time></trkpt><trkpt lat="39.480509230515906" lon="16.215162620049316"><ele>96.0</ele><time>2026-04-18T07:13:02.999Z</time></trkpt><trkpt lat="39.48080360557926" lon="16.21509081254598"><ele>96.0</ele><time>2026-04-18T07:13:03.999Z</time></trkpt><trkpt lat="39.48110082374748" lon="16.215017990216996"><ele>96.0</ele><time>2026-04-18T07:13:04.999Z</time></trkpt><trkpt lat="39.48139406517588" lon="16.214946828425383"><ele>95.5</ele><time>2026-04-18T07:13:05.999Z</time></trkpt><trkpt lat="39.48168650353584" lon="16.214875316350927"><ele>95.0</ele><time>2026-04-18T07:13:06.999Z</time></trkpt><trkpt lat="39.481982471253474" lon="16.21480379364629"><ele>94.5</ele><time>2026-04-18T07:13:07.999Z</time></trkpt><trkpt lat="39.482275682567426" lon="16.2147314010772"><ele>94.0</ele><time>2026-04-18T07:13:08.999Z</time></trkpt><trkpt lat="39.48257250350908" lon="16.214659086614795"><ele>94.0</ele><time>2026-04-18T07:13:09.999Z</time></trkpt><trkpt lat="39.48286360521391" lon="16.214582158062196"><ele>94.0</ele><time>2026-04-18T07:13:10.999Z</time></trkpt><trkpt lat="39.483156991916424" lon="16.214504519953913"><ele>93.5</ele><time>2026-04-18T07:13:11.999Z</time></trkpt><trkpt lat="39.483453139034516" lon="16.21442686170324"><ele>93.0</ele><time>2026-04-18T07:13:12.999Z</time></trkpt><trkpt lat="39.48374825807669" lon="16.214350958106152"><ele>92.5</ele><time>2026-04-18T07:13:13.999Z</time></trkpt><trkpt lat="39.484042183175" lon="16.214277235047646"><ele>92.0</ele><time>2026-04-18T07:13:14.999Z</time></trkpt><trkpt lat="39.48433622551817" lon="16.214204619435606"><ele>91.0</ele><time>2026-04-18T07:13:15.999Z</time></trkpt><trkpt lat="39.48463081794732" lon="16.214131607509817"><ele>90.0</ele><time>2026-04-18T07:13:16.999Z</time></trkpt><trkpt lat="39.48492702496782" lon="16.214059755245238"><ele>90.0</ele><time>2026-04-18T07:13:17.999Z</time></trkpt><trkpt lat="39.485218402127025" lon="16.213986785233402"><ele>90.0</ele><time>2026-04-18T07:13:18.999Z</time></trkpt><trkpt lat="39.485513790033636" lon="16.21391227884688"><ele>90.0</ele><time>2026-04-18T07:13:19.999Z</time></trkpt><trkpt lat="39.4858055344517" lon="16.213838267641744"><ele>90.0</ele><time>2026-04-18T07:13:20.999Z</time></trkpt><trkpt lat="39.48609925518041" lon="16.21376690156419"><ele>90.0</ele><time>2026-04-18T07:13:21.999Z</time></trkpt><trkpt lat="39.48639400562961" lon="16.2136911997356"><ele>90.0</ele><time>2026-04-18T07:13:22.999Z</time></trkpt><trkpt lat="39.48668695075079" lon="16.213615153197328"><ele>90.0</ele><time>2026-04-18T07:13:23.999Z</time></trkpt><trkpt lat="39.48698188217478" lon="16.213542154156475"><ele>90.0</ele><time>2026-04-18T07:13:24.999Z</time></trkpt><trkpt lat="39.4872778920232" lon="16.21346804600302"><ele>89.5</ele><time>2026-04-18T07:13:25.999Z</time></trkpt><trkpt lat="39.487570700294384" lon="16.21339489189462"><ele>89.0</ele><time>2026-04-18T07:13:26.999Z</time></trkpt><trkpt lat="39.4878628528052" lon="16.213321637351694"><ele>89.0</ele><time>2026-04-18T07:13:27.999Z</time></trkpt><trkpt lat="39.48815602052319" lon="16.213248649718146"><ele>89.0</ele><time>2026-04-18T07:13:28.999Z</time></trkpt><trkpt lat="39.48844932255563" lon="16.21317481373953"><ele>89.0</ele><time>2026-04-18T07:13:29.999Z</time></trkpt><trkpt lat="39.488741659551046" lon="16.213101320578918"><ele>89.0</ele><time>2026-04-18T07:13:30.999Z</time></trkpt><trkpt lat="39.48903626469951" lon="16.213029087097464"><ele>89.0</ele><time>2026-04-18T07:13:31.999Z</time></trkpt><trkpt lat="39.489331025714954" lon="16.21295696714787"><ele>89.0</ele><time>2026-04-18T07:13:32.999Z</time></trkpt><trkpt lat="39.48962525626494" lon="16.21288545647486"><ele>89.5</ele><time>2026-04-18T07:13:33.999Z</time></trkpt><trkpt lat="39.48992080872922" lon="16.212814595908682"><ele>90.0</ele><time>2026-04-18T07:13:34.999Z</time></trkpt><trkpt lat="39.49021274138934" lon="16.21274103612808"><ele>89.5</ele><time>2026-04-18T07:13:35.999Z</time></trkpt><trkpt lat="39.4905054295722" lon="16.212665840313754"><ele>89.0</ele><time>2026-04-18T07:13:36.999Z</time></trkpt><trkpt lat="39.49080002289918" lon="16.21258787469691"><ele>89.0</ele><time>2026-04-18T07:13:37.999Z</time></trkpt><trkpt lat="39.491094832827194" lon="16.212513241550152"><ele>89.0</ele><time>2026-04-18T07:13:38.999Z</time></trkpt><trkpt lat="39.49139095568897" lon="16.212439882568603"><ele>89.0</ele><time>2026-04-18T07:13:39.999Z</time></trkpt><trkpt lat="39.491685420862765" lon="16.21236633026317"><ele>89.0</ele><time>2026-04-18T07:13:40.999Z</time></trkpt><trkpt lat="39.491982454835416" lon="16.21229445135707"><ele>89.0</ele><time>2026-04-18T07:13:41.999Z</time></trkpt><trkpt lat="39.49227722623659" lon="16.212223933669062"><ele>89.0</ele><time>2026-04-18T07:13:42.999Z</time></trkpt><trkpt lat="39.492570693800154" lon="16.212155255317157"><ele>89.0</ele><time>2026-04-18T07:13:43.999Z</time></trkpt><trkpt lat="39.4928649716076" lon="16.212089837690023"><ele>89.0</ele><time>2026-04-18T07:13:44.999Z</time></trkpt><trkpt lat="39.493158972131695" lon="16.21203076868266"><ele>88.5</ele><time>2026-04-18T07:13:45.999Z</time></trkpt><trkpt lat="39.49345614784763" lon="16.211977423736958"><ele>88.0</ele><time>2026-04-18T07:13:46.999Z</time></trkpt><trkpt lat="39.493752832631415" lon="16.21193126748876"><ele>87.5</ele><time>2026-04-18T07:13:47.999Z</time></trkpt><trkpt lat="39.494050548373636" lon="16.21189389043839"><ele>87.0</ele><time>2026-04-18T07:13:48.999Z</time></trkpt><trkpt lat="39.49434871867684" lon="16.211860434988935"><ele>88.0</ele><time>2026-04-18T07:13:49.999Z</time></trkpt><trkpt lat="39.49464814173347" lon="16.2118289092587"><ele>89.0</ele><time>2026-04-18T07:13:50.998Z</time></trkpt><trkpt lat="39.494945504236064" lon="16.211790671902822"><ele>89.0</ele><time>2026-04-18T07:13:51.998Z</time></trkpt><trkpt lat="39.49524491819907" lon="16.211748883234307"><ele>89.0</ele><time>2026-04-18T07:13:52.998Z</time></trkpt><trkpt lat="39.49554301357126" lon="16.21169691673639"><ele>89.0</ele><time>2026-04-18T07:13:53.998Z</time></trkpt><trkpt lat="39.495839447420025" lon="16.211636318246637"><ele>89.0</ele><time>2026-04-18T07:13:54.998Z</time></trkpt><trkpt lat="39.496135542647515" lon="16.211565356442893"><ele>89.0</ele><time>2026-04-18T07:13:55.999Z</time></trkpt><trkpt lat="39.4964270698125" lon="16.211486377376627"><ele>89.0</ele><time>2026-04-18T07:13:56.999Z</time></trkpt><trkpt lat="39.49672207784668" lon="16.21140302273513"><ele>89.0</ele><time>2026-04-18T07:13:57.999Z</time></trkpt><trkpt lat="39.49701849601167" lon="16.21132376782347"><ele>89.0</ele><time>2026-04-18T07:13:58.999Z</time></trkpt><trkpt lat="39.497312586785235" lon="16.211245771483306"><ele>88.5</ele><time>2026-04-18T07:13:59.999Z</time></trkpt><trkpt lat="39.497608675721494" lon="16.211171280473575"><ele>88.0</ele><time>2026-04-18T07:14:00.999Z</time></trkpt><trkpt lat="39.49790182120564" lon="16.211093823851485"><ele>88.5</ele><time>2026-04-18T07:14:01.999Z</time></trkpt><trkpt lat="39.49819593399672" lon="16.211016075130562"><ele>89.0</ele><time>2026-04-18T07:14:02.999Z</time></trkpt><trkpt lat="39.49849103045188" lon="16.210941990357604"><ele>89.0</ele><time>2026-04-18T07:14:03.999Z</time></trkpt><trkpt lat="39.498784549076454" lon="16.210867420231256"><ele>89.0</ele><time>2026-04-18T07:14:04.999Z</time></trkpt><trkpt lat="39.49907945761559" lon="16.21079193934435"><ele>89.0</ele><time>2026-04-18T07:14:05.999Z</time></trkpt><trkpt lat="39.49937399064297" lon="16.21071604445031"><ele>89.0</ele><time>2026-04-18T07:14:06.999Z</time></trkpt><trkpt lat="39.499668347051596" lon="16.21064177060785"><ele>87.5</ele><time>2026-04-18T07:14:07.999Z</time></trkpt><trkpt lat="39.49996716898037" lon="16.21056632238498"><ele>86.0</ele><time>2026-04-18T07:14:08.999Z</time></trkpt><trkpt lat="39.500254532655504" lon="16.21049125561308"><ele>85.5</ele><time>2026-04-18T07:14:09.999Z</time></trkpt><trkpt lat="39.50055261359817" lon="16.21041392275295"><ele>85.0</ele><time>2026-04-18T07:14:10.999Z</time></trkpt><trkpt lat="39.50084512232312" lon="16.210342642123905"><ele>85.0</ele><time>2026-04-18T07:14:11.999Z</time></trkpt><trkpt lat="39.50113994287183" lon="16.210276088433318"><ele>85.0</ele><time>2026-04-18T07:14:12.999Z</time></trkpt><trkpt lat="39.50142136638633" lon="16.210201637854126"><ele>85.0</ele><time>2026-04-18T07:14:13.999Z</time></trkpt><trkpt lat="39.501688122490705" lon="16.210151677702505"><ele>85.0</ele><time>2026-04-18T07:14:14.999Z</time></trkpt><trkpt lat="39.501953714985774" lon="16.2101023848553"><ele>84.5</ele><time>2026-04-18T07:14:15.999Z</time></trkpt><trkpt lat="39.50222105774652" lon="16.21005619886483"><ele>84.0</ele><time>2026-04-18T07:14:16.999Z</time></trkpt><trkpt lat="39.5024825034269" lon="16.210016021489185"><ele>84.0</ele><time>2026-04-18T07:14:17.999Z</time></trkpt><trkpt lat="39.50274273280826" lon="16.20998498929391"><ele>84.0</ele><time>2026-04-18T07:14:18.999Z</time></trkpt><trkpt lat="39.50300511026203" lon="16.20996152515421"><ele>84.0</ele><time>2026-04-18T07:14:19.999Z</time></trkpt><trkpt lat="39.50326537095007" lon="16.20993740292033"><ele>84.0</ele><time>2026-04-18T07:14:20.998Z</time></trkpt><trkpt lat="39.50352391838922" lon="16.20992274487613"><ele>84.0</ele><time>2026-04-18T07:14:21.998Z</time></trkpt><trkpt lat="39.50377891952683" lon="16.209914315958876"><ele>84.0</ele><time>2026-04-18T07:14:22.998Z</time></trkpt><trkpt lat="39.50403933788636" lon="16.209910337157126"><ele>84.0</ele><time>2026-04-18T07:14:23.998Z</time></trkpt><trkpt lat="39.504300595693685" lon="16.209916828626863"><ele>84.0</ele><time>2026-04-18T07:14:24.998Z</time></trkpt><trkpt lat="39.5045541143166" lon="16.209927838266342"><ele>85.0</ele><time>2026-04-18T07:14:25.998Z</time></trkpt><trkpt lat="39.50478752193388" lon="16.20993858138348"><ele>86.0</ele><time>2026-04-18T07:14:26.998Z</time></trkpt><trkpt lat="39.50500602247873" lon="16.20994658796245"><ele>86.0</ele><time>2026-04-18T07:14:27.998Z</time></trkpt><trkpt lat="39.505212412392375" lon="16.209955368812242"><ele>86.0</ele><time>2026-04-18T07:14:28.998Z</time></trkpt><trkpt lat="39.50541369029822" lon="16.20996144623904"><ele>86.0</ele><time>2026-04-18T07:14:29.998Z</time></trkpt><trkpt lat="39.5056026510679" lon="16.209967033255385"><ele>86.0</ele><time>2026-04-18T07:14:30.998Z</time></trkpt><trkpt lat="39.50578256403577" lon="16.209970979387347"><ele>86.0</ele><time>2026-04-18T07:14:31.998Z</time></trkpt><trkpt lat="39.50594803872548" lon="16.209977374237216"><ele>86.0</ele><time>2026-04-18T07:14:32.998Z</time></trkpt><trkpt lat="39.506109616190706" lon="16.209994674668273"><ele>86.5</ele><time>2026-04-18T07:14:33.998Z</time></trkpt><trkpt lat="39.50626140479565" lon="16.210025615392492"><ele>87.0</ele><time>2026-04-18T07:14:34.998Z</time></trkpt><trkpt lat="39.50639646383955" lon="16.210072447734657"><ele>87.5</ele><time>2026-04-18T07:14:35.998Z</time></trkpt><trkpt lat="39.50653970537276" lon="16.210136741820463"><ele>88.0</ele><time>2026-04-18T07:14:36.998Z</time></trkpt><trkpt lat="39.50668410026563" lon="16.210220317773217"><ele>88.0</ele><time>2026-04-18T07:14:37.998Z</time></trkpt><trkpt lat="39.50680941338825" lon="16.210326774790524"><ele>88.0</ele><time>2026-04-18T07:14:38.998Z</time></trkpt><trkpt lat="39.50690681236286" lon="16.210456974091617"><ele>88.0</ele><time>2026-04-18T07:14:39.998Z</time></trkpt><trkpt lat="39.50699000786714" lon="16.21059530405939"><ele>88.0</ele><time>2026-04-18T07:14:40.998Z</time></trkpt><trkpt lat="39.50705326779273" lon="16.21074355962375"><ele>87.80000000000001</ele><time>2026-04-18T07:14:41.998Z</time></trkpt><trkpt lat="39.50709828550309" lon="16.210894411682585"><ele>87.6</ele><time>2026-04-18T07:14:42.998Z</time></trkpt><trkpt lat="39.507128787462236" lon="16.211039294578246"><ele>87.4</ele><time>2026-04-18T07:14:43.998Z</time></trkpt><trkpt lat="39.507141007066984" lon="16.211171969626204"><ele>87.19999999999999</ele><time>2026-04-18T07:14:44.998Z</time></trkpt><trkpt lat="39.507144973027955" lon="16.211300404881715"><ele>87.0</ele><time>2026-04-18T07:14:45.998Z</time></trkpt><trkpt lat="39.507135205879706" lon="16.211416487179118"><ele>87.0</ele><time>2026-04-18T07:14:46.998Z</time></trkpt><trkpt lat="39.507127060245615" lon="16.21151774432674"><ele>87.0</ele><time>2026-04-18T07:14:47.998Z</time></trkpt><trkpt lat="39.507101123018465" lon="16.21166141480165"><ele>87.0</ele><time>2026-04-18T07:14:49.998Z</time></trkpt><trkpt lat="39.507090959555335" lon="16.21175921756624"><ele>87.0</ele><time>2026-04-18T07:14:51.998Z</time></trkpt><trkpt lat="39.507108015803915" lon="16.211858632896327"><ele>87.0</ele><time>2026-04-18T07:14:58.998Z</time></trkpt><trkpt lat="39.50718693245958" lon="16.211959552016584"><ele>87.0</ele><time>2026-04-18T07:15:00.998Z</time></trkpt><trkpt lat="39.50726831025373" lon="16.2119904788604"><ele>87.0</ele><time>2026-04-18T07:15:01.998Z</time></trkpt><trkpt lat="39.507354468564216" lon="16.212019646590687"><ele>87.0</ele><time>2026-04-18T07:15:02.998Z</time></trkpt><trkpt lat="39.50746130925282" lon="16.212053280660488"><ele>87.0</ele><time>2026-04-18T07:15:03.998Z</time></trkpt><trkpt lat="39.507576071529336" lon="16.212095724640648"><ele>87.0</ele><time>2026-04-18T07:15:04.998Z</time></trkpt><trkpt lat="39.50769681455612" lon="16.212141844066036"><ele>87.0</ele><time>2026-04-18T07:15:05.998Z</time></trkpt><trkpt lat="39.50782807330415" lon="16.212193107782735"><ele>87.0</ele><time>2026-04-18T07:15:06.998Z</time></trkpt><trkpt lat="39.507967048708124" lon="16.212245655928"><ele>87.0</ele><time>2026-04-18T07:15:07.998Z</time></trkpt><trkpt lat="39.50811169660377" lon="16.212299919721154"><ele>87.0</ele><time>2026-04-18T07:15:08.998Z</time></trkpt><trkpt lat="39.5082608108616" lon="16.21235429821917"><ele>87.0</ele><time>2026-04-18T07:15:09.998Z</time></trkpt><trkpt lat="39.5084174490526" lon="16.2124094584485"><ele>87.0</ele><time>2026-04-18T07:15:10.998Z</time></trkpt><trkpt lat="39.50857930523379" lon="16.212466235540862"><ele>87.0</ele><time>2026-04-18T07:15:11.998Z</time></trkpt><trkpt lat="39.50874613751373" lon="16.21252253858483"><ele>86.66666666666667</ele><time>2026-04-18T07:15:12.998Z</time></trkpt><trkpt lat="39.508919891968524" lon="16.21258225137702"><ele>86.33333333333334</ele><time>2026-04-18T07:15:13.998Z</time></trkpt><trkpt lat="39.509096054299434" lon="16.21264548226069"><ele>86.0</ele><time>2026-04-18T07:15:14.998Z</time></trkpt><trkpt lat="39.509273285622484" lon="16.212709120304464"><ele>86.0</ele><time>2026-04-18T07:15:15.998Z</time></trkpt><trkpt lat="39.50945269969465" lon="16.212773194820596"><ele>86.0</ele><time>2026-04-18T07:15:16.998Z</time></trkpt><trkpt lat="39.50963495252428" lon="16.212839211503233"><ele>86.0</ele><time>2026-04-18T07:15:17.998Z</time></trkpt><trkpt lat="39.5098226141904" lon="16.212905928103257"><ele>86.0</ele><time>2026-04-18T07:15:18.998Z</time></trkpt><trkpt lat="39.51000967720944" lon="16.2129732090726"><ele>86.0</ele><time>2026-04-18T07:15:19.998Z</time></trkpt><trkpt lat="39.510184282641134" lon="16.21303716780054"><ele>86.0</ele><time>2026-04-18T07:15:20.998Z</time></trkpt><trkpt lat="39.510354740885425" lon="16.213093498706357"><ele>86.0</ele><time>2026-04-18T07:15:21.998Z</time></trkpt><trkpt lat="39.51052437374768" lon="16.213151271030572"><ele>86.0</ele><time>2026-04-18T07:15:22.998Z</time></trkpt><trkpt lat="39.510701759561734" lon="16.213213339362923"><ele>86.0</ele><time>2026-04-18T07:15:23.998Z</time></trkpt><trkpt lat="39.51089583836485" lon="16.213281116216397"><ele>85.33333333333334</ele><time>2026-04-18T07:15:24.998Z</time></trkpt><trkpt lat="39.51103555576094" lon="16.213332198737955"><ele>84.66666666666667</ele><time>2026-04-18T07:15:25.998Z</time></trkpt><trkpt lat="39.511207629506664" lon="16.21338403562261"><ele>84.0</ele><time>2026-04-18T07:15:26.998Z</time></trkpt><trkpt lat="39.51136150264707" lon="16.21343184743008"><ele>84.0</ele><time>2026-04-18T07:15:27.998Z</time></trkpt><trkpt lat="39.511501184501626" lon="16.21349901351277"><ele>84.0</ele><time>2026-04-18T07:15:28.998Z</time></trkpt><trkpt lat="39.511627442004894" lon="16.21352646408685"><ele>84.0</ele><time>2026-04-18T07:15:29.998Z</time></trkpt><trkpt lat="39.511724979274646" lon="16.213570472353474"><ele>84.0</ele><time>2026-04-18T07:15:30.998Z</time></trkpt><trkpt lat="39.5117928131469" lon="16.213599246921756"><ele>84.0</ele><time>2026-04-18T07:15:31.998Z</time></trkpt><trkpt lat="39.51184688230667" lon="16.2136454401343"><ele>84.0</ele><time>2026-04-18T07:15:33.998Z</time></trkpt><trkpt lat="39.51190506610444" lon="16.213678580030574"><ele>84.0</ele><time>2026-04-18T07:15:38.998Z</time></trkpt><trkpt lat="39.51188658339366" lon="16.21358993706434"><ele>84.0</ele><time>2026-04-18T07:16:01.998Z</time></trkpt><trkpt lat="39.5117744630183" lon="16.213555833128524"><ele>84.0</ele><time>2026-04-18T07:16:03.998Z</time></trkpt><trkpt lat="39.5117105383085" lon="16.213529138778842"><ele>84.0</ele><time>2026-04-18T07:16:04.998Z</time></trkpt><trkpt lat="39.5116120902248" lon="16.21349753231096"><ele>84.0</ele><time>2026-04-18T07:16:06.998Z</time></trkpt><trkpt lat="39.51153230799179" lon="16.213464477033774"><ele>84.0</ele><time>2026-04-18T07:16:08.998Z</time></trkpt><trkpt lat="39.511460516543075" lon="16.213433424718897"><ele>84.0</ele><time>2026-04-18T07:16:10.998Z</time></trkpt><trkpt lat="39.51136258356708" lon="16.21339183637247"><ele>84.0</ele><time>2026-04-18T07:16:12.998Z</time></trkpt><trkpt lat="39.511258557213154" lon="16.213360204855327"><ele>84.0</ele><time>2026-04-18T07:16:14.998Z</time></trkpt><trkpt lat="39.51116270115622" lon="16.21330228621762"><ele>84.0</ele><time>2026-04-18T07:16:16.998Z</time></trkpt><trkpt lat="39.511069310429384" lon="16.213249024286828"><ele>84.0</ele><time>2026-04-18T07:16:18.998Z</time></trkpt><trkpt lat="39.511009074751115" lon="16.21320105135544"><ele>84.0</ele><time>2026-04-18T07:16:20.998Z</time></trkpt><trkpt lat="39.51101038549473" lon="16.213096287926465"><ele>86.0</ele><time>2026-04-18T07:16:23.998Z</time></trkpt><trkpt lat="39.511016621599616" lon="16.213003624275792"><ele>86.0</ele><time>2026-04-18T07:16:27.998Z</time></trkpt></trkseg><trkseg><trkpt lat="39.51098682770827" lon="16.21306776490332"><ele>85.66666666666667</ele><time>2026-04-18T07:45:39.987Z</time></trkpt><trkpt lat="39.5109746736993" lon="16.213167543413384"><ele>85.33333333333334</ele><time>2026-04-18T07:45:55.987Z</time></trkpt><trkpt lat="39.5110105313233" lon="16.213271296389838"><ele>85.0</ele><time>2026-04-18T07:45:58.987Z</time></trkpt><trkpt lat="39.511076514193036" lon="16.21330002568506"><ele>84.66666666666667</ele><time>2026-04-18T07:45:59.987Z</time></trkpt><trkpt lat="39.51117040891889" lon="16.21334601207889"><ele>84.33333333333333</ele><time>2026-04-18T07:46:01.987Z</time></trkpt><trkpt lat="39.51124220848184" lon="16.213366743129264"><ele>84.0</ele><time>2026-04-18T07:46:02.987Z</time></trkpt><trkpt lat="39.51130210162922" lon="16.213428215572428"><ele>84.0</ele><time>2026-04-18T07:46:03.987Z</time></trkpt><trkpt lat="39.5113797567927" lon="16.213455831888695"><ele>84.0</ele><time>2026-04-18T07:46:04.987Z</time></trkpt><trkpt lat="39.51146793973089" lon="16.213487192174853"><ele>84.0</ele><time>2026-04-18T07:46:05.987Z</time></trkpt><trkpt lat="39.511558702884436" lon="16.213519470056493"><ele>84.0</ele><time>2026-04-18T07:46:06.987Z</time></trkpt><trkpt lat="39.51165258389108" lon="16.21355258246664"><ele>84.0</ele><time>2026-04-18T07:46:07.987Z</time></trkpt><trkpt lat="39.51175507348545" lon="16.213588657729716"><ele>84.0</ele><time>2026-04-18T07:46:08.987Z</time></trkpt><trkpt lat="39.511862556828" lon="16.21360322814129"><ele>84.0</ele><time>2026-04-18T07:46:09.987Z</time></trkpt><trkpt lat="39.51196575785677" lon="16.2136464565454"><ele>84.0</ele><time>2026-04-18T07:46:10.987Z</time></trkpt><trkpt lat="39.512083789104466" lon="16.213694000783885"><ele>84.0</ele><time>2026-04-18T07:46:11.987Z</time></trkpt><trkpt lat="39.512213761533395" lon="16.213730169776316"><ele>83.75</ele><time>2026-04-18T07:46:12.987Z</time></trkpt><trkpt lat="39.51234718830494" lon="16.213796486296065"><ele>83.5</ele><time>2026-04-18T07:46:13.987Z</time></trkpt><trkpt lat="39.512489254686734" lon="16.21382431109834"><ele>83.25</ele><time>2026-04-18T07:46:14.987Z</time></trkpt><trkpt lat="39.512635476202526" lon="16.21387239649484"><ele>83.0</ele><time>2026-04-18T07:46:15.987Z</time></trkpt><trkpt lat="39.51279289954799" lon="16.21392988155252"><ele>82.66666666666667</ele><time>2026-04-18T07:46:16.987Z</time></trkpt><trkpt lat="39.51295732396086" lon="16.213987194711287"><ele>82.33333333333333</ele><time>2026-04-18T07:46:17.987Z</time></trkpt><trkpt lat="39.513131492594155" lon="16.214045485597925"><ele>82.0</ele><time>2026-04-18T07:46:18.987Z</time></trkpt><trkpt lat="39.5133000715314" lon="16.214104665961354"><ele>81.66666666666666</ele><time>2026-04-18T07:46:19.987Z</time></trkpt><trkpt lat="39.51347841353972" lon="16.21416429932513"><ele>81.33333333333333</ele><time>2026-04-18T07:46:20.987Z</time></trkpt><trkpt lat="39.51365619639827" lon="16.214227198728366"><ele>81.0</ele><time>2026-04-18T07:46:21.987Z</time></trkpt><trkpt lat="39.51383651539304" lon="16.214290727501247"><ele>81.0</ele><time>2026-04-18T07:46:22.987Z</time></trkpt><trkpt lat="39.51402043324647" lon="16.214355952684556"><ele>81.0</ele><time>2026-04-18T07:46:23.987Z</time></trkpt><trkpt lat="39.51420405870661" lon="16.21442832707505"><ele>81.0</ele><time>2026-04-18T07:46:24.987Z</time></trkpt><trkpt lat="39.51438402047023" lon="16.214490740788328"><ele>81.0</ele><time>2026-04-18T07:46:25.987Z</time></trkpt><trkpt lat="39.5145566329228" lon="16.214552879208608"><ele>81.0</ele><time>2026-04-18T07:46:26.987Z</time></trkpt><trkpt lat="39.514722755860184" lon="16.214613821496023"><ele>81.0</ele><time>2026-04-18T07:46:27.987Z</time></trkpt><trkpt lat="39.51489559916329" lon="16.214676103574543"><ele>80.66666666666667</ele><time>2026-04-18T07:46:28.987Z</time></trkpt><trkpt lat="39.515066708536416" lon="16.214733945234535"><ele>80.33333333333334</ele><time>2026-04-18T07:46:29.987Z</time></trkpt><trkpt lat="39.51523815789713" lon="16.21479406585948"><ele>80.0</ele><time>2026-04-18T07:46:30.987Z</time></trkpt><trkpt lat="39.51542075787755" lon="16.21485521934226"><ele>79.66666666666667</ele><time>2026-04-18T07:46:31.987Z</time></trkpt><trkpt lat="39.51559844605377" lon="16.214918291636437"><ele>79.33333333333333</ele><time>2026-04-18T07:46:32.987Z</time></trkpt><trkpt lat="39.51577460959655" lon="16.214980998761412"><ele>79.0</ele><time>2026-04-18T07:46:33.987Z</time></trkpt><trkpt lat="39.5159511501544" lon="16.215040860993774"><ele>79.0</ele><time>2026-04-18T07:46:34.987Z</time></trkpt><trkpt lat="39.51612496293915" lon="16.215102017549086"><ele>79.0</ele><time>2026-04-18T07:46:35.987Z</time></trkpt><trkpt lat="39.5163062445862" lon="16.21516616605637"><ele>79.0</ele><time>2026-04-18T07:46:36.987Z</time></trkpt><trkpt lat="39.51649144249526" lon="16.215225984876906"><ele>78.66666666666666</ele><time>2026-04-18T07:46:37.987Z</time></trkpt><trkpt lat="39.516676815335806" lon="16.21530558807297"><ele>78.33333333333333</ele><time>2026-04-18T07:46:38.987Z</time></trkpt><trkpt lat="39.51687266865678" lon="16.215342315327753"><ele>78.0</ele><time>2026-04-18T07:46:39.987Z</time></trkpt><trkpt lat="39.51707330597656" lon="16.215339211788848"><ele>77.33333333333333</ele><time>2026-04-18T07:46:40.987Z</time></trkpt><trkpt lat="39.51727437814654" lon="16.215366637659404"><ele>76.66666666666666</ele><time>2026-04-18T07:46:41.987Z</time></trkpt><trkpt lat="39.51747441315814" lon="16.215360334126675"><ele>76.0</ele><time>2026-04-18T07:46:42.987Z</time></trkpt><trkpt lat="39.517673256578696" lon="16.215347946976408"><ele>76.0</ele><time>2026-04-18T07:46:43.987Z</time></trkpt><trkpt lat="39.517861507835775" lon="16.215335496604606"><ele>76.0</ele><time>2026-04-18T07:46:44.987Z</time></trkpt><trkpt lat="39.51804333025185" lon="16.215323581046604"><ele>76.0</ele><time>2026-04-18T07:46:45.987Z</time></trkpt><trkpt lat="39.518225259424" lon="16.215294662100263"><ele>76.0</ele><time>2026-04-18T07:46:46.987Z</time></trkpt><trkpt lat="39.51840690381935" lon="16.21530379709859"><ele>76.0</ele><time>2026-04-18T07:46:47.987Z</time></trkpt><trkpt lat="39.518579467867575" lon="16.215293635334064"><ele>76.0</ele><time>2026-04-18T07:46:48.987Z</time></trkpt><trkpt lat="39.518745845958385" lon="16.21528356714625"><ele>76.0</ele><time>2026-04-18T07:46:49.987Z</time></trkpt><trkpt lat="39.518912371031874" lon="16.215273490061964"><ele>76.0</ele><time>2026-04-18T07:46:50.987Z</time></trkpt><trkpt lat="39.51908750259004" lon="16.215262892165654"><ele>76.0</ele><time>2026-04-18T07:46:51.987Z</time></trkpt><trkpt lat="39.51927077430326" lon="16.21525180167637"><ele>76.0</ele><time>2026-04-18T07:46:52.987Z</time></trkpt><trkpt lat="39.51945972987714" lon="16.215240367236465"><ele>76.0</ele><time>2026-04-18T07:46:53.987Z</time></trkpt><trkpt lat="39.51964984819155" lon="16.215228862434564"><ele>76.0</ele><time>2026-04-18T07:46:54.987Z</time></trkpt><trkpt lat="39.51983645238597" lon="16.215217570285517"><ele>75.66666666666666</ele><time>2026-04-18T07:46:55.987Z</time></trkpt><trkpt lat="39.520023131979556" lon="16.215206273572587"><ele>75.33333333333333</ele><time>2026-04-18T07:46:56.987Z</time></trkpt><trkpt lat="39.52020783633491" lon="16.215195096389593"><ele>75.0</ele><time>2026-04-18T07:46:57.987Z</time></trkpt><trkpt lat="39.520389188296775" lon="16.215184122072824"><ele>75.0</ele><time>2026-04-18T07:46:58.987Z</time></trkpt><trkpt lat="39.52056947205711" lon="16.215174294116963"><ele>75.0</ele><time>2026-04-18T07:46:59.987Z</time></trkpt><trkpt lat="39.52074728949984" lon="16.215145236920222"><ele>75.0</ele><time>2026-04-18T07:47:00.987Z</time></trkpt><trkpt lat="39.520926450719244" lon="16.21513654178572"><ele>75.0</ele><time>2026-04-18T07:47:01.987Z</time></trkpt><trkpt lat="39.52110410586004" lon="16.21512546733791"><ele>75.0</ele><time>2026-04-18T07:47:02.987Z</time></trkpt><trkpt lat="39.52128192334919" lon="16.215117209778793"><ele>75.0</ele><time>2026-04-18T07:47:03.987Z</time></trkpt><trkpt lat="39.5214531849896" lon="16.215107323029148"><ele>75.33333333333333</ele><time>2026-04-18T07:47:04.987Z</time></trkpt><trkpt lat="39.52162358157245" lon="16.21510606234654"><ele>75.66666666666666</ele><time>2026-04-18T07:47:05.987Z</time></trkpt><trkpt lat="39.52180451502329" lon="16.215095505305417"><ele>76.0</ele><time>2026-04-18T07:47:06.987Z</time></trkpt><trkpt lat="39.521986855916765" lon="16.21508228190713"><ele>76.0</ele><time>2026-04-18T07:47:07.987Z</time></trkpt><trkpt lat="39.52217121939417" lon="16.215066052998246"><ele>76.0</ele><time>2026-04-18T07:47:08.987Z</time></trkpt><trkpt lat="39.52236963133383" lon="16.215054932833862"><ele>76.0</ele><time>2026-04-18T07:47:09.987Z</time></trkpt><trkpt lat="39.52256920916214" lon="16.215047388028655"><ele>76.0</ele><time>2026-04-18T07:47:10.987Z</time></trkpt><trkpt lat="39.522769043467214" lon="16.215038034202532"><ele>76.0</ele><time>2026-04-18T07:47:11.987Z</time></trkpt><trkpt lat="39.52297289518587" lon="16.215027269023953"><ele>76.0</ele><time>2026-04-18T07:47:12.987Z</time></trkpt><trkpt lat="39.523180906697355" lon="16.215014546391753"><ele>76.33333333333333</ele><time>2026-04-18T07:47:13.987Z</time></trkpt><trkpt lat="39.52338991056924" lon="16.215002775441036"><ele>76.66666666666667</ele><time>2026-04-18T07:47:14.987Z</time></trkpt><trkpt lat="39.52360370624326" lon="16.214992200941545"><ele>77.0</ele><time>2026-04-18T07:47:15.987Z</time></trkpt><trkpt lat="39.52382013502278" lon="16.214979968091843"><ele>77.0</ele><time>2026-04-18T07:47:16.986Z</time></trkpt><trkpt lat="39.52401903537975" lon="16.214968618736943"><ele>77.0</ele><time>2026-04-18T07:47:17.986Z</time></trkpt><trkpt lat="39.52420592911507" lon="16.21495983735382"><ele>77.0</ele><time>2026-04-18T07:47:18.986Z</time></trkpt><trkpt lat="39.524384471941005" lon="16.214950179840717"><ele>77.0</ele><time>2026-04-18T07:47:19.986Z</time></trkpt><trkpt lat="39.524558970172045" lon="16.21493969400197"><ele>77.0</ele><time>2026-04-18T07:47:20.986Z</time></trkpt><trkpt lat="39.52472370440238" lon="16.214932269890443"><ele>77.0</ele><time>2026-04-18T07:47:21.986Z</time></trkpt><trkpt lat="39.52489000959213" lon="16.21492063310214"><ele>77.33333333333334</ele><time>2026-04-18T07:47:22.986Z</time></trkpt><trkpt lat="39.525045924158746" lon="16.214937502325657"><ele>77.66666666666667</ele><time>2026-04-18T07:47:23.986Z</time></trkpt><trkpt lat="39.525205922010464" lon="16.214935114689574"><ele>78.0</ele><time>2026-04-18T07:47:24.986Z</time></trkpt><trkpt lat="39.525381205407484" lon="16.21494388193652"><ele>78.33333333333333</ele><time>2026-04-18T07:47:25.986Z</time></trkpt><trkpt lat="39.52557051160564" lon="16.21496963611455"><ele>78.66666666666666</ele><time>2026-04-18T07:47:26.986Z</time></trkpt><trkpt lat="39.525771191821434" lon="16.215009408670724"><ele>79.0</ele><time>2026-04-18T07:47:27.986Z</time></trkpt><trkpt lat="39.52597985210313" lon="16.215069652960512"><ele>79.0</ele><time>2026-04-18T07:47:28.986Z</time></trkpt><trkpt lat="39.52619748145936" lon="16.21514864657782"><ele>79.0</ele><time>2026-04-18T07:47:29.986Z</time></trkpt><trkpt lat="39.52641569005549" lon="16.215237633082445"><ele>80.0</ele><time>2026-04-18T07:47:30.986Z</time></trkpt><trkpt lat="39.526630247766946" lon="16.21533010024215"><ele>81.0</ele><time>2026-04-18T07:47:31.986Z</time></trkpt><trkpt lat="39.5268194125102" lon="16.21541560153508"><ele>82.0</ele><time>2026-04-18T07:47:32.986Z</time></trkpt><trkpt lat="39.527002739317844" lon="16.215504103149033"><ele>83.33333333333333</ele><time>2026-04-18T07:47:33.986Z</time></trkpt><trkpt lat="39.52717581480353" lon="16.21559145111376"><ele>84.66666666666667</ele><time>2026-04-18T07:47:34.986Z</time></trkpt><trkpt lat="39.52734311926787" lon="16.215677300180396"><ele>86.0</ele><time>2026-04-18T07:47:35.986Z</time></trkpt><trkpt lat="39.52751200868392" lon="16.215767839530557"><ele>84.0</ele><time>2026-04-18T07:47:36.986Z</time></trkpt><trkpt lat="39.52767098923543" lon="16.21586017286335"><ele>82.0</ele><time>2026-04-18T07:47:37.986Z</time></trkpt><trkpt lat="39.52783072440565" lon="16.21594299514108"><ele>80.0</ele><time>2026-04-18T07:47:38.986Z</time></trkpt><trkpt lat="39.52797354276304" lon="16.21607674338073"><ele>80.0</ele><time>2026-04-18T07:47:39.986Z</time></trkpt><trkpt lat="39.528127306146125" lon="16.21620442701903"><ele>80.0</ele><time>2026-04-18T07:47:40.986Z</time></trkpt><trkpt lat="39.528281124023025" lon="16.21634582709287"><ele>80.0</ele><time>2026-04-18T07:47:41.986Z</time></trkpt><trkpt lat="39.5284426195982" lon="16.21647375513011"><ele>80.0</ele><time>2026-04-18T07:47:42.986Z</time></trkpt><trkpt lat="39.528599637332995" lon="16.216623504794843"><ele>80.0</ele><time>2026-04-18T07:47:43.986Z</time></trkpt><trkpt lat="39.52875876822778" lon="16.21677497865945"><ele>80.0</ele><time>2026-04-18T07:47:44.986Z</time></trkpt><trkpt lat="39.528916303276745" lon="16.216923476373815"><ele>80.0</ele><time>2026-04-18T07:47:45.986Z</time></trkpt><trkpt lat="39.52907073836107" lon="16.217070011149808"><ele>80.0</ele><time>2026-04-18T07:47:46.986Z</time></trkpt><trkpt lat="39.529218445509" lon="16.217234684106895"><ele>80.0</ele><time>2026-04-18T07:47:47.986Z</time></trkpt><trkpt lat="39.5293731830849" lon="16.217380565097987"><ele>79.66666666666667</ele><time>2026-04-18T07:47:48.986Z</time></trkpt><trkpt lat="39.52954280468132" lon="16.217513575206613"><ele>79.33333333333333</ele><time>2026-04-18T07:47:49.986Z</time></trkpt><trkpt lat="39.52968828994049" lon="16.217676761332516"><ele>79.0</ele><time>2026-04-18T07:47:50.986Z</time></trkpt><trkpt lat="39.52984294203999" lon="16.21782275980695"><ele>79.0</ele><time>2026-04-18T07:47:51.986Z</time></trkpt><trkpt lat="39.530006976008934" lon="16.217956344527636"><ele>79.0</ele><time>2026-04-18T07:47:52.986Z</time></trkpt><trkpt lat="39.53015831522853" lon="16.218106766168116"><ele>79.0</ele><time>2026-04-18T07:47:53.986Z</time></trkpt><trkpt lat="39.530312970335004" lon="16.218256275727384"><ele>78.66666666666666</ele><time>2026-04-18T07:47:54.986Z</time></trkpt><trkpt lat="39.53046960618584" lon="16.218398813853696"><ele>78.33333333333333</ele><time>2026-04-18T07:47:55.986Z</time></trkpt><trkpt lat="39.53062840607047" lon="16.21853992257679"><ele>78.0</ele><time>2026-04-18T07:47:56.986Z</time></trkpt><trkpt lat="39.53078746771358" lon="16.218679550023165"><ele>78.0</ele><time>2026-04-18T07:47:57.986Z</time></trkpt><trkpt lat="39.530935160414764" lon="16.21884040643346"><ele>78.0</ele><time>2026-04-18T07:47:58.986Z</time></trkpt><trkpt lat="39.531092548487635" lon="16.218985136369255"><ele>78.0</ele><time>2026-04-18T07:47:59.986Z</time></trkpt><trkpt lat="39.531251607903656" lon="16.21913043881009"><ele>78.33333333333333</ele><time>2026-04-18T07:48:00.986Z</time></trkpt><trkpt lat="39.53140800131393" lon="16.219273305807135"><ele>78.66666666666666</ele><time>2026-04-18T07:48:01.986Z</time></trkpt><trkpt lat="39.531560815752414" lon="16.219412696386534"><ele>79.0</ele><time>2026-04-18T07:48:02.986Z</time></trkpt><trkpt lat="39.53172644592488" lon="16.219539557025424"><ele>79.0</ele><time>2026-04-18T07:48:03.986Z</time></trkpt><trkpt lat="39.53187965022348" lon="16.2196829211924"><ele>79.0</ele><time>2026-04-18T07:48:04.986Z</time></trkpt><trkpt lat="39.532027469937965" lon="16.219837554313262"><ele>79.0</ele><time>2026-04-18T07:48:05.986Z</time></trkpt><trkpt lat="39.53218542124813" lon="16.219978231783497"><ele>79.0</ele><time>2026-04-18T07:48:06.986Z</time></trkpt><trkpt lat="39.53235222176405" lon="16.22010999262013"><ele>79.0</ele><time>2026-04-18T07:48:07.986Z</time></trkpt><trkpt lat="39.53253028270853" lon="16.22021010409462"><ele>79.0</ele><time>2026-04-18T07:48:08.986Z</time></trkpt><trkpt lat="39.53270548925763" lon="16.220326355579008"><ele>79.0</ele><time>2026-04-18T07:48:09.986Z</time></trkpt><trkpt lat="39.53286816156194" lon="16.220450045753246"><ele>79.0</ele><time>2026-04-18T07:48:10.986Z</time></trkpt><trkpt lat="39.533029837613526" lon="16.220553496800193"><ele>79.0</ele><time>2026-04-18T07:48:11.986Z</time></trkpt><trkpt lat="39.533180577120596" lon="16.220649196580712"><ele>78.66666666666666</ele><time>2026-04-18T07:48:12.986Z</time></trkpt><trkpt lat="39.53332786857336" lon="16.22074287668587"><ele>78.33333333333333</ele><time>2026-04-18T07:48:13.986Z</time></trkpt><trkpt lat="39.53348093178364" lon="16.220840494768957"><ele>78.0</ele><time>2026-04-18T07:48:14.986Z</time></trkpt><trkpt lat="39.533639204763546" lon="16.220941435449912"><ele>77.66666666666667</ele><time>2026-04-18T07:48:15.986Z</time></trkpt><trkpt lat="39.53380786322541" lon="16.221048854741657"><ele>77.33333333333334</ele><time>2026-04-18T07:48:16.986Z</time></trkpt><trkpt lat="39.53397351040945" lon="16.221150921002764"><ele>77.0</ele><time>2026-04-18T07:48:17.986Z</time></trkpt><trkpt lat="39.534137149697784" lon="16.22124395792979"><ele>77.0</ele><time>2026-04-18T07:48:18.986Z</time></trkpt><trkpt lat="39.534299955807526" lon="16.221329838061838"><ele>77.0</ele><time>2026-04-18T07:48:19.986Z</time></trkpt><trkpt lat="39.53445634558243" lon="16.221407570319474"><ele>77.0</ele><time>2026-04-18T07:48:20.986Z</time></trkpt><trkpt lat="39.53460802841032" lon="16.221483644485065"><ele>76.75</ele><time>2026-04-18T07:48:21.986Z</time></trkpt><trkpt lat="39.534747042672706" lon="16.22155394787964"><ele>76.5</ele><time>2026-04-18T07:48:22.986Z</time></trkpt><trkpt lat="39.534879824913375" lon="16.22162109956597"><ele>76.25</ele><time>2026-04-18T07:48:23.986Z</time></trkpt><trkpt lat="39.535006243597685" lon="16.221683988734895"><ele>76.0</ele><time>2026-04-18T07:48:24.986Z</time></trkpt><trkpt lat="39.535120537423786" lon="16.221738892398527"><ele>76.0</ele><time>2026-04-18T07:48:25.986Z</time></trkpt><trkpt lat="39.53522870892252" lon="16.2217697900857"><ele>76.0</ele><time>2026-04-18T07:48:26.986Z</time></trkpt><trkpt lat="39.53532392558023" lon="16.221812193699627"><ele>76.0</ele><time>2026-04-18T07:48:27.986Z</time></trkpt><trkpt lat="39.53540393787779" lon="16.221864414392336"><ele>76.0</ele><time>2026-04-18T07:48:28.986Z</time></trkpt><trkpt lat="39.53548607481194" lon="16.22189433417638"><ele>76.0</ele><time>2026-04-18T07:48:29.986Z</time></trkpt><trkpt lat="39.535555748562025" lon="16.221920020007275"><ele>76.0</ele><time>2026-04-18T07:48:30.986Z</time></trkpt><trkpt lat="39.53561987580158" lon="16.221943269019413"><ele>76.0</ele><time>2026-04-18T07:48:31.986Z</time></trkpt><trkpt lat="39.535691766599285" lon="16.22196865036534"><ele>76.0</ele><time>2026-04-18T07:48:32.986Z</time></trkpt><trkpt lat="39.53577199527115" lon="16.22199561658006"><ele>76.0</ele><time>2026-04-18T07:48:33.986Z</time></trkpt><trkpt lat="39.5358447032092" lon="16.222019450128364"><ele>76.0</ele><time>2026-04-18T07:48:34.986Z</time></trkpt><trkpt lat="39.53590597398978" lon="16.22203897935233"><ele>76.0</ele><time>2026-04-18T07:48:35.986Z</time></trkpt><trkpt lat="39.535972364891016" lon="16.222060140544347"><ele>76.0</ele><time>2026-04-18T07:48:36.986Z</time></trkpt><trkpt lat="39.53603544718544" lon="16.222080247160207"><ele>76.0</ele><time>2026-04-18T07:48:37.986Z</time></trkpt><trkpt lat="39.53610136505669" lon="16.222101257581983"><ele>76.0</ele><time>2026-04-18T07:48:38.986Z</time></trkpt><trkpt lat="39.53621030511258" lon="16.222137902702894"><ele>76.0</ele><time>2026-04-18T07:48:40.986Z</time></trkpt><trkpt lat="39.53631317770251" lon="16.222154211246394"><ele>76.0</ele><time>2026-04-18T07:48:42.986Z</time></trkpt><trkpt lat="39.53637615843209" lon="16.222174023708757"><ele>76.0</ele><time>2026-04-18T07:48:43.986Z</time></trkpt><trkpt lat="39.5364524227288" lon="16.22222274491615"><ele>76.0</ele><time>2026-04-18T07:48:44.986Z</time></trkpt><trkpt lat="39.53654676617315" lon="16.222256210995983"><ele>76.0</ele><time>2026-04-18T07:48:45.986Z</time></trkpt><trkpt lat="39.536648818497724" lon="16.222292450584025"><ele>76.0</ele><time>2026-04-18T07:48:46.986Z</time></trkpt><trkpt lat="39.536749228104945" lon="16.22232810682609"><ele>76.0</ele><time>2026-04-18T07:48:47.986Z</time></trkpt><trkpt lat="39.53685446480085" lon="16.222365477257167"><ele>76.0</ele><time>2026-04-18T07:48:48.986Z</time></trkpt><trkpt lat="39.53696160808267" lon="16.22240229828951"><ele>76.0</ele><time>2026-04-18T07:48:49.986Z</time></trkpt><trkpt lat="39.53707859933212" lon="16.222417214382244"><ele>76.0</ele><time>2026-04-18T07:48:50.986Z</time></trkpt><trkpt lat="39.53719163280381" lon="16.222454550134064"><ele>76.0</ele><time>2026-04-18T07:48:51.986Z</time></trkpt><trkpt lat="39.537308162230545" lon="16.2224940912797"><ele>76.0</ele><time>2026-04-18T07:48:52.986Z</time></trkpt><trkpt lat="39.53742084563636" lon="16.22253707540741"><ele>76.0</ele><time>2026-04-18T07:48:53.986Z</time></trkpt><trkpt lat="39.53752387745865" lon="16.2225748822201"><ele>76.0</ele><time>2026-04-18T07:48:54.986Z</time></trkpt><trkpt lat="39.53762817196221" lon="16.222615129590448"><ele>76.0</ele><time>2026-04-18T07:48:55.986Z</time></trkpt><trkpt lat="39.53772843259655" lon="16.22265107927264"><ele>76.0</ele><time>2026-04-18T07:48:56.986Z</time></trkpt><trkpt lat="39.537822898062025" lon="16.222680697186412"><ele>76.0</ele><time>2026-04-18T07:48:57.986Z</time></trkpt><trkpt lat="39.53791056512361" lon="16.222709606629596"><ele>76.0</ele><time>2026-04-18T07:48:58.986Z</time></trkpt><trkpt lat="39.53800294125384" lon="16.222741245015452"><ele>76.5</ele><time>2026-04-18T07:48:59.986Z</time></trkpt><trkpt lat="39.538108065884565" lon="16.222777142941286"><ele>77.0</ele><time>2026-04-18T07:49:00.986Z</time></trkpt><trkpt lat="39.538220854390474" lon="16.22281472368225"><ele>77.5</ele><time>2026-04-18T07:49:01.986Z</time></trkpt><trkpt lat="39.53833327421821" lon="16.222847958357455"><ele>78.0</ele><time>2026-04-18T07:49:02.985Z</time></trkpt><trkpt lat="39.53846326506127" lon="16.2229141402112"><ele>78.0</ele><time>2026-04-18T07:49:03.985Z</time></trkpt><trkpt lat="39.538613377627776" lon="16.22296477844117"><ele>78.0</ele><time>2026-04-18T07:49:04.985Z</time></trkpt><trkpt lat="39.538764382437215" lon="16.223015782483767"><ele>78.0</ele><time>2026-04-18T07:49:05.985Z</time></trkpt><trkpt lat="39.53890142458964" lon="16.223043272508612"><ele>77.75</ele><time>2026-04-18T07:49:06.985Z</time></trkpt><trkpt lat="39.53903378771829" lon="16.223094887361945"><ele>77.5</ele><time>2026-04-18T07:49:07.985Z</time></trkpt><trkpt lat="39.53915315056096" lon="16.223174129487465"><ele>77.25</ele><time>2026-04-18T07:49:08.985Z</time></trkpt><trkpt lat="39.53927932526619" lon="16.223220330064063"><ele>77.0</ele><time>2026-04-18T07:49:09.985Z</time></trkpt><trkpt lat="39.539391278772946" lon="16.223288462672947"><ele>77.0</ele><time>2026-04-18T07:49:10.985Z</time></trkpt><trkpt lat="39.5395012820597" lon="16.223355731963217"><ele>77.0</ele><time>2026-04-18T07:49:11.985Z</time></trkpt><trkpt lat="39.53961063492529" lon="16.223426604502617"><ele>77.0</ele><time>2026-04-18T07:49:12.985Z</time></trkpt><trkpt lat="39.539711228012656" lon="16.223501222252626"><ele>77.0</ele><time>2026-04-18T07:49:13.985Z</time></trkpt><trkpt lat="39.53980771690373" lon="16.22357478792646"><ele>77.0</ele><time>2026-04-18T07:49:14.985Z</time></trkpt><trkpt lat="39.539896519149444" lon="16.22364256489067"><ele>77.0</ele><time>2026-04-18T07:49:15.985Z</time></trkpt><trkpt lat="39.53999629322509" lon="16.223707489531094"><ele>77.0</ele><time>2026-04-18T07:49:16.985Z</time></trkpt><trkpt lat="39.54009405055697" lon="16.22375974659642"><ele>77.0</ele><time>2026-04-18T07:49:17.985Z</time></trkpt><trkpt lat="39.5401769744793" lon="16.223811603192384"><ele>77.0</ele><time>2026-04-18T07:49:18.985Z</time></trkpt><trkpt lat="39.5402616143258" lon="16.22379497675526"><ele>77.0</ele><time>2026-04-18T07:49:19.985Z</time></trkpt><trkpt lat="39.54034205166603" lon="16.223817185186494"><ele>77.0</ele><time>2026-04-18T07:49:20.985Z</time></trkpt><trkpt lat="39.540431071805386" lon="16.223770398494974"><ele>77.0</ele><time>2026-04-18T07:49:21.985Z</time></trkpt><trkpt lat="39.54051637536822" lon="16.223744284069728"><ele>77.0</ele><time>2026-04-18T07:49:22.985Z</time></trkpt><trkpt lat="39.540594932273464" lon="16.22372928933497"><ele>77.0</ele><time>2026-04-18T07:49:23.985Z</time></trkpt><trkpt lat="39.540677035529434" lon="16.223729489871648"><ele>77.0</ele><time>2026-04-18T07:49:24.985Z</time></trkpt><trkpt lat="39.540764374143315" lon="16.223766637994114"><ele>77.0</ele><time>2026-04-18T07:49:25.985Z</time></trkpt><trkpt lat="39.540876268336746" lon="16.223814830122443"><ele>77.0</ele><time>2026-04-18T07:49:26.985Z</time></trkpt><trkpt lat="39.540990049986" lon="16.22388371328778"><ele>77.0</ele><time>2026-04-18T07:49:27.985Z</time></trkpt><trkpt lat="39.541123396548336" lon="16.223933327251128"><ele>77.0</ele><time>2026-04-18T07:49:28.985Z</time></trkpt><trkpt lat="39.54125468165928" lon="16.22400627611619"><ele>76.5</ele><time>2026-04-18T07:49:29.985Z</time></trkpt><trkpt lat="39.54137644947981" lon="16.224067679466003"><ele>76.0</ele><time>2026-04-18T07:49:30.985Z</time></trkpt><trkpt lat="39.541501540046326" lon="16.224129984312484"><ele>75.5</ele><time>2026-04-18T07:49:31.985Z</time></trkpt><trkpt lat="39.54162090963341" lon="16.224214316881678"><ele>75.0</ele><time>2026-04-18T07:49:32.985Z</time></trkpt><trkpt lat="39.54174682575761" lon="16.22428000915112"><ele>75.0</ele><time>2026-04-18T07:49:33.985Z</time></trkpt><trkpt lat="39.54187238879675" lon="16.224323301848276"><ele>75.0</ele><time>2026-04-18T07:49:34.985Z</time></trkpt><trkpt lat="39.5419819805826" lon="16.224382989658572"><ele>75.0</ele><time>2026-04-18T07:49:35.985Z</time></trkpt><trkpt lat="39.542083447707896" lon="16.22443680481512"><ele>75.0</ele><time>2026-04-18T07:49:36.985Z</time></trkpt><trkpt lat="39.54218439892949" lon="16.224488864131057"><ele>75.4</ele><time>2026-04-18T07:49:37.985Z</time></trkpt><trkpt lat="39.54227581771991" lon="16.224535275868423"><ele>75.8</ele><time>2026-04-18T07:49:38.985Z</time></trkpt><trkpt lat="39.54236597039366" lon="16.22458079934075"><ele>76.2</ele><time>2026-04-18T07:49:39.985Z</time></trkpt><trkpt lat="39.54244976051304" lon="16.224624000076375"><ele>76.6</ele><time>2026-04-18T07:49:40.985Z</time></trkpt><trkpt lat="39.542528767120544" lon="16.224666489737263"><ele>77.0</ele><time>2026-04-18T07:49:41.986Z</time></trkpt><trkpt lat="39.54261209356783" lon="16.224712170380005"><ele>77.0</ele><time>2026-04-18T07:49:42.986Z</time></trkpt><trkpt lat="39.542697320554204" lon="16.224756485578784"><ele>77.0</ele><time>2026-04-18T07:49:43.986Z</time></trkpt><trkpt lat="39.54277974337182" lon="16.224802466685553"><ele>77.0</ele><time>2026-04-18T07:49:44.986Z</time></trkpt><trkpt lat="39.542867004756744" lon="16.22484996207117"><ele>77.0</ele><time>2026-04-18T07:49:45.986Z</time></trkpt><trkpt lat="39.542959916648456" lon="16.224896349959657"><ele>77.0</ele><time>2026-04-18T07:49:46.986Z</time></trkpt><trkpt lat="39.543052583782135" lon="16.224944437357866"><ele>76.6</ele><time>2026-04-18T07:49:47.986Z</time></trkpt><trkpt lat="39.543145799813125" lon="16.224992494743443"><ele>76.2</ele><time>2026-04-18T07:49:48.986Z</time></trkpt><trkpt lat="39.54325069049051" lon="16.225050732903398"><ele>75.8</ele><time>2026-04-18T07:49:49.986Z</time></trkpt><trkpt lat="39.543351069737845" lon="16.225101560676137"><ele>75.4</ele><time>2026-04-18T07:49:50.986Z</time></trkpt><trkpt lat="39.54346133096041" lon="16.225156448098737"><ele>75.0</ele><time>2026-04-18T07:49:51.986Z</time></trkpt><trkpt lat="39.54357853980919" lon="16.22521631076483"><ele>75.0</ele><time>2026-04-18T07:49:52.985Z</time></trkpt><trkpt lat="39.54369495607171" lon="16.22527644514635"><ele>75.0</ele><time>2026-04-18T07:49:53.985Z</time></trkpt><trkpt lat="39.54379982829893" lon="16.225331643631595"><ele>75.0</ele><time>2026-04-18T07:49:54.985Z</time></trkpt><trkpt lat="39.54390063439622" lon="16.225382934338388"><ele>75.0</ele><time>2026-04-18T07:49:55.985Z</time></trkpt><trkpt lat="39.544002809094394" lon="16.225435516509293"><ele>75.0</ele><time>2026-04-18T07:49:56.985Z</time></trkpt><trkpt lat="39.544108151105235" lon="16.225490680761425"><ele>75.0</ele><time>2026-04-18T07:49:57.985Z</time></trkpt><trkpt lat="39.54421445258044" lon="16.22554815026583"><ele>75.0</ele><time>2026-04-18T07:49:58.985Z</time></trkpt><trkpt lat="39.544322816618106" lon="16.22560487924423"><ele>75.0</ele><time>2026-04-18T07:49:59.985Z</time></trkpt><trkpt lat="39.54444043483239" lon="16.225663151374278"><ele>76.2</ele><time>2026-04-18T07:50:00.985Z</time></trkpt><trkpt lat="39.544554971455554" lon="16.225718468887834"><ele>77.4</ele><time>2026-04-18T07:50:01.985Z</time></trkpt><trkpt lat="39.54465640892861" lon="16.225772540201802"><ele>78.6</ele><time>2026-04-18T07:50:02.985Z</time></trkpt><trkpt lat="39.54475110667022" lon="16.22582543213634"><ele>79.8</ele><time>2026-04-18T07:50:03.985Z</time></trkpt><trkpt lat="39.544843991881805" lon="16.225873505287485"><ele>81.0</ele><time>2026-04-18T07:50:04.985Z</time></trkpt><trkpt lat="39.54493779264188" lon="16.22592248502535"><ele>81.0</ele><time>2026-04-18T07:50:05.985Z</time></trkpt><trkpt lat="39.54503239621373" lon="16.2259725595518"><ele>81.0</ele><time>2026-04-18T07:50:06.985Z</time></trkpt><trkpt lat="39.54512776217509" lon="16.226023519694575"><ele>81.0</ele><time>2026-04-18T07:50:07.985Z</time></trkpt><trkpt lat="39.545228542617046" lon="16.22607857133559"><ele>81.0</ele><time>2026-04-18T07:50:08.985Z</time></trkpt><trkpt lat="39.54532849164373" lon="16.226133215045266"><ele>81.0</ele><time>2026-04-18T07:50:09.985Z</time></trkpt><trkpt lat="39.545422802901584" lon="16.226184480390305"><ele>82.6</ele><time>2026-04-18T07:50:10.985Z</time></trkpt><trkpt lat="39.54551633557869" lon="16.226233881196354"><ele>84.19999999999999</ele><time>2026-04-18T07:50:11.985Z</time></trkpt><trkpt lat="39.54561262016555" lon="16.226284766186826"><ele>85.80000000000001</ele><time>2026-04-18T07:50:12.985Z</time></trkpt><trkpt lat="39.54571269867817" lon="16.2263363604823"><ele>87.4</ele><time>2026-04-18T07:50:13.985Z</time></trkpt><trkpt lat="39.54581514396996" lon="16.226387011299042"><ele>89.0</ele><time>2026-04-18T07:50:14.985Z</time></trkpt><trkpt lat="39.54591967799867" lon="16.22643802987146"><ele>86.75</ele><time>2026-04-18T07:50:15.985Z</time></trkpt><trkpt lat="39.54602693406942" lon="16.22649052215217"><ele>84.5</ele><time>2026-04-18T07:50:16.985Z</time></trkpt><trkpt lat="39.54615026430667" lon="16.226549059255817"><ele>82.25</ele><time>2026-04-18T07:50:17.985Z</time></trkpt><trkpt lat="39.54627712896255" lon="16.226611586527515"><ele>80.0</ele><time>2026-04-18T07:50:18.985Z</time></trkpt><trkpt lat="39.5464047301704" lon="16.226675228268025"><ele>80.0</ele><time>2026-04-18T07:50:19.985Z</time></trkpt><trkpt lat="39.5465289227186" lon="16.226738094150214"><ele>80.0</ele><time>2026-04-18T07:50:20.985Z</time></trkpt><trkpt lat="39.54664247378801" lon="16.22681373875828"><ele>80.0</ele><time>2026-04-18T07:50:21.985Z</time></trkpt><trkpt lat="39.546757961173256" lon="16.226871778526316"><ele>80.0</ele><time>2026-04-18T07:50:22.985Z</time></trkpt><trkpt lat="39.546866170424664" lon="16.226926392038152"><ele>80.0</ele><time>2026-04-18T07:50:23.985Z</time></trkpt><trkpt lat="39.54696404047553" lon="16.226975787327735"><ele>80.0</ele><time>2026-04-18T07:50:24.985Z</time></trkpt><trkpt lat="39.54705112874843" lon="16.22701974102272"><ele>80.0</ele><time>2026-04-18T07:50:25.985Z</time></trkpt><trkpt lat="39.54713488996594" lon="16.22706201688743"><ele>80.0</ele><time>2026-04-18T07:50:26.985Z</time></trkpt><trkpt lat="39.547222442358795" lon="16.227106113600435"><ele>80.0</ele><time>2026-04-18T07:50:27.985Z</time></trkpt><trkpt lat="39.547323616396646" lon="16.227156762630912"><ele>79.5</ele><time>2026-04-18T07:50:28.985Z</time></trkpt><trkpt lat="39.54743033350785" lon="16.22721155335359"><ele>79.0</ele><time>2026-04-18T07:50:29.985Z</time></trkpt><trkpt lat="39.547548539270565" lon="16.227273145000044"><ele>78.5</ele><time>2026-04-18T07:50:30.985Z</time></trkpt><trkpt lat="39.54771027641978" lon="16.22735741891728"><ele>78.0</ele><time>2026-04-18T07:50:31.985Z</time></trkpt><trkpt lat="39.54790250592515" lon="16.22745720172138"><ele>78.0</ele><time>2026-04-18T07:50:32.985Z</time></trkpt><trkpt lat="39.54813092106342" lon="16.227574482277923"><ele>78.0</ele><time>2026-04-18T07:50:33.985Z</time></trkpt><trkpt lat="39.54837511602494" lon="16.22769986507333"><ele>78.0</ele><time>2026-04-18T07:50:34.985Z</time></trkpt><trkpt lat="39.548600997799404" lon="16.227801604577877"><ele>78.0</ele><time>2026-04-18T07:50:35.985Z</time></trkpt><trkpt lat="39.54880508292748" lon="16.227900363314088"><ele>76.66666666666667</ele><time>2026-04-18T07:50:36.985Z</time></trkpt><trkpt lat="39.548994046149105" lon="16.227996875351174"><ele>75.33333333333334</ele><time>2026-04-18T07:50:37.985Z</time></trkpt><trkpt lat="39.54918942982766" lon="16.228100889428298"><ele>74.0</ele><time>2026-04-18T07:50:38.985Z</time></trkpt><trkpt lat="39.549379494786315" lon="16.22819951195574"><ele>75.66666666666667</ele><time>2026-04-18T07:50:39.985Z</time></trkpt><trkpt lat="39.5495727332047" lon="16.228297958356006"><ele>77.33333333333333</ele><time>2026-04-18T07:50:40.985Z</time></trkpt><trkpt lat="39.54975611450369" lon="16.228394212768446"><ele>79.0</ele><time>2026-04-18T07:50:41.985Z</time></trkpt><trkpt lat="39.54995172770426" lon="16.228493495027653"><ele>79.0</ele><time>2026-04-18T07:50:42.985Z</time></trkpt><trkpt lat="39.55013862634639" lon="16.228586961322186"><ele>79.0</ele><time>2026-04-18T07:50:43.985Z</time></trkpt><trkpt lat="39.55032117898542" lon="16.228680356868086"><ele>79.0</ele><time>2026-04-18T07:50:44.985Z</time></trkpt><trkpt lat="39.55050601821377" lon="16.22877743004243"><ele>78.66666666666666</ele><time>2026-04-18T07:50:45.985Z</time></trkpt><trkpt lat="39.550691791533204" lon="16.228873888202873"><ele>78.33333333333333</ele><time>2026-04-18T07:50:46.985Z</time></trkpt><trkpt lat="39.55087790355339" lon="16.228968378208158"><ele>78.0</ele><time>2026-04-18T07:50:47.985Z</time></trkpt><trkpt lat="39.55105962729851" lon="16.22906191418018"><ele>76.66666666666667</ele><time>2026-04-18T07:50:48.985Z</time></trkpt><trkpt lat="39.55124044815217" lon="16.229155606204074"><ele>75.33333333333334</ele><time>2026-04-18T07:50:49.985Z</time></trkpt><trkpt lat="39.5514216633386" lon="16.229250392469396"><ele>74.0</ele><time>2026-04-18T07:50:50.985Z</time></trkpt><trkpt lat="39.55160153275166" lon="16.22934504144517"><ele>74.0</ele><time>2026-04-18T07:50:51.985Z</time></trkpt><trkpt lat="39.55178039785932" lon="16.229437012124208"><ele>74.0</ele><time>2026-04-18T07:50:52.985Z</time></trkpt><trkpt lat="39.5519506437908" lon="16.2295477436284"><ele>74.0</ele><time>2026-04-18T07:50:53.985Z</time></trkpt><trkpt lat="39.55213005188541" lon="16.22964019612442"><ele>73.66666666666667</ele><time>2026-04-18T07:50:54.985Z</time></trkpt><trkpt lat="39.552305149072225" lon="16.229730547228442"><ele>73.33333333333333</ele><time>2026-04-18T07:50:55.985Z</time></trkpt><trkpt lat="39.55248340440225" lon="16.229823083700285"><ele>73.0</ele><time>2026-04-18T07:50:56.985Z</time></trkpt><trkpt lat="39.55266034519181" lon="16.22991426212882"><ele>72.33333333333333</ele><time>2026-04-18T07:50:57.985Z</time></trkpt><trkpt lat="39.55282747970038" lon="16.22997818394074"><ele>71.66666666666667</ele><time>2026-04-18T07:50:58.985Z</time></trkpt><trkpt lat="39.552977654324046" lon="16.230065701904575"><ele>71.0</ele><time>2026-04-18T07:50:59.985Z</time></trkpt><trkpt lat="39.55312754697911" lon="16.230141275775605"><ele>70.75</ele><time>2026-04-18T07:51:00.985Z</time></trkpt><trkpt lat="39.55326518927707" lon="16.230210316099356"><ele>70.5</ele><time>2026-04-18T07:51:01.985Z</time></trkpt><trkpt lat="39.55339967889133" lon="16.23027757686104"><ele>70.25</ele><time>2026-04-18T07:51:02.985Z</time></trkpt><trkpt lat="39.55352866506287" lon="16.230341864461785"><ele>70.0</ele><time>2026-04-18T07:51:03.985Z</time></trkpt><trkpt lat="39.553642417333144" lon="16.23040167933891"><ele>70.0</ele><time>2026-04-18T07:51:04.985Z</time></trkpt><trkpt lat="39.55373334370392" lon="16.23045972907945"><ele>70.0</ele><time>2026-04-18T07:51:05.985Z</time></trkpt><trkpt lat="39.55382020375466" lon="16.230535758159046"><ele>70.0</ele><time>2026-04-18T07:51:06.985Z</time></trkpt><trkpt lat="39.55390109110708" lon="16.230607341381813"><ele>70.0</ele><time>2026-04-18T07:51:07.985Z</time></trkpt><trkpt lat="39.554005526393226" lon="16.2306570733433"><ele>70.0</ele><time>2026-04-18T07:51:08.985Z</time></trkpt><trkpt lat="39.554132501544856" lon="16.23068367337373"><ele>70.33333333333333</ele><time>2026-04-18T07:51:09.985Z</time></trkpt><trkpt lat="39.554262968443" lon="16.230739161262125"><ele>70.66666666666667</ele><time>2026-04-18T07:51:10.985Z</time></trkpt><trkpt lat="39.55441103201333" lon="16.23081515902943"><ele>71.0</ele><time>2026-04-18T07:51:11.985Z</time></trkpt><trkpt lat="39.55456435294404" lon="16.23089385528449"><ele>71.0</ele><time>2026-04-18T07:51:12.985Z</time></trkpt><trkpt lat="39.55472360660397" lon="16.230975596677784"><ele>71.0</ele><time>2026-04-18T07:51:13.985Z</time></trkpt><trkpt lat="39.554890643494666" lon="16.231041892548028"><ele>71.0</ele><time>2026-04-18T07:51:14.985Z</time></trkpt><trkpt lat="39.55505575870798" lon="16.231128780976192"><ele>71.0</ele><time>2026-04-18T07:51:15.985Z</time></trkpt><trkpt lat="39.55522026026321" lon="16.231213918658323"><ele>71.0</ele><time>2026-04-18T07:51:16.985Z</time></trkpt><trkpt lat="39.55538186159616" lon="16.231297056877416"><ele>71.0</ele><time>2026-04-18T07:51:17.985Z</time></trkpt><trkpt lat="39.55554173030555" lon="16.231380265845644"><ele>71.33333333333334</ele><time>2026-04-18T07:51:18.985Z</time></trkpt><trkpt lat="39.55570320557665" lon="16.23146340406087"><ele>71.66666666666667</ele><time>2026-04-18T07:51:19.985Z</time></trkpt><trkpt lat="39.555865348640765" lon="16.231546142160173"><ele>72.0</ele><time>2026-04-18T07:51:20.985Z</time></trkpt><trkpt lat="39.556025402972736" lon="16.231626337357003"><ele>72.0</ele><time>2026-04-18T07:51:21.985Z</time></trkpt><trkpt lat="39.556186531909155" lon="16.23170615733044"><ele>72.0</ele><time>2026-04-18T07:51:22.985Z</time></trkpt><trkpt lat="39.55633882839712" lon="16.231785330987353"><ele>72.0</ele><time>2026-04-18T07:51:23.985Z</time></trkpt><trkpt lat="39.5564953949591" lon="16.23186613580011"><ele>70.66666666666667</ele><time>2026-04-18T07:51:24.985Z</time></trkpt><trkpt lat="39.556648554601715" lon="16.231941725137148"><ele>69.33333333333334</ele><time>2026-04-18T07:51:25.985Z</time></trkpt><trkpt lat="39.55680233996366" lon="16.232015377660712"><ele>68.0</ele><time>2026-04-18T07:51:26.985Z</time></trkpt><trkpt lat="39.55694614950666" lon="16.232110432372675"><ele>68.33333333333334</ele><time>2026-04-18T07:51:27.985Z</time></trkpt><trkpt lat="39.55709950503933" lon="16.232187822884384"><ele>68.66666666666667</ele><time>2026-04-18T07:51:28.985Z</time></trkpt><trkpt lat="39.55724992240925" lon="16.232263730661057"><ele>69.0</ele><time>2026-04-18T07:51:29.985Z</time></trkpt><trkpt lat="39.55740099424032" lon="16.23234113323706"><ele>69.0</ele><time>2026-04-18T07:51:30.985Z</time></trkpt><trkpt lat="39.557552925508574" lon="16.23241994853129"><ele>69.0</ele><time>2026-04-18T07:51:31.985Z</time></trkpt><trkpt lat="39.55770527841157" lon="16.232498661155"><ele>69.0</ele><time>2026-04-18T07:51:32.985Z</time></trkpt><trkpt lat="39.557860162301196" lon="16.23257858297088"><ele>68.66666666666667</ele><time>2026-04-18T07:51:33.984Z</time></trkpt><trkpt lat="39.55801351798383" lon="16.232657716216853"><ele>68.33333333333334</ele><time>2026-04-18T07:51:34.984Z</time></trkpt><trkpt lat="39.558169215264556" lon="16.23273747540158"><ele>68.0</ele><time>2026-04-18T07:51:35.984Z</time></trkpt><trkpt lat="39.558329377581295" lon="16.232796746441586"><ele>68.0</ele><time>2026-04-18T07:51:36.984Z</time></trkpt><trkpt lat="39.558477229244886" lon="16.232896066540697"><ele>68.0</ele><time>2026-04-18T07:51:37.984Z</time></trkpt><trkpt lat="39.558635637399505" lon="16.232957370864657"><ele>68.0</ele><time>2026-04-18T07:51:38.984Z</time></trkpt><trkpt lat="39.55878909635767" lon="16.23303812677809"><ele>68.33333333333334</ele><time>2026-04-18T07:51:39.984Z</time></trkpt><trkpt lat="39.55894074928688" lon="16.233116793536375"><ele>68.66666666666667</ele><time>2026-04-18T07:51:40.984Z</time></trkpt><trkpt lat="39.559095628576884" lon="16.23319910869934"><ele>69.0</ele><time>2026-04-18T07:51:41.984Z</time></trkpt><trkpt lat="39.559249023286746" lon="16.233282346071135"><ele>69.0</ele><time>2026-04-18T07:51:42.984Z</time></trkpt><trkpt lat="39.559400987696606" lon="16.233364494616637"><ele>69.0</ele><time>2026-04-18T07:51:43.984Z</time></trkpt><trkpt lat="39.55955419220136" lon="16.23344404947302"><ele>69.0</ele><time>2026-04-18T07:51:44.984Z</time></trkpt><trkpt lat="39.5597087197328" lon="16.23352088099762"><ele>68.66666666666667</ele><time>2026-04-18T07:51:45.984Z</time></trkpt><trkpt lat="39.559861769839955" lon="16.23359396130358"><ele>68.33333333333334</ele><time>2026-04-18T07:51:46.984Z</time></trkpt><trkpt lat="39.56001216695832" lon="16.233691619080847"><ele>68.0</ele><time>2026-04-18T07:51:47.985Z</time></trkpt><trkpt lat="39.56016458102886" lon="16.23377075602273"><ele>68.0</ele><time>2026-04-18T07:51:48.985Z</time></trkpt><trkpt lat="39.56031889785632" lon="16.23385088091343"><ele>68.0</ele><time>2026-04-18T07:51:49.985Z</time></trkpt><trkpt lat="39.56047829039383" lon="16.23391101634177"><ele>68.0</ele><time>2026-04-18T07:51:50.985Z</time></trkpt><trkpt lat="39.56063155115708" lon="16.23399573857802"><ele>68.0</ele><time>2026-04-18T07:51:51.985Z</time></trkpt><trkpt lat="39.560785732355015" lon="16.234079022664215"><ele>68.0</ele><time>2026-04-18T07:51:52.985Z</time></trkpt><trkpt lat="39.560943758488285" lon="16.234161455947298"><ele>68.0</ele><time>2026-04-18T07:51:53.985Z</time></trkpt><trkpt lat="39.561091062366174" lon="16.234258568065467"><ele>67.66666666666667</ele><time>2026-04-18T07:51:54.985Z</time></trkpt><trkpt lat="39.56124175705924" lon="16.23433718989157"><ele>67.33333333333333</ele><time>2026-04-18T07:51:55.985Z</time></trkpt><trkpt lat="39.561406138208675" lon="16.234380165196622"><ele>67.0</ele><time>2026-04-18T07:51:56.985Z</time></trkpt><trkpt lat="39.561561725017064" lon="16.234459386428423"><ele>67.0</ele><time>2026-04-18T07:51:57.985Z</time></trkpt><trkpt lat="39.56171661774634" lon="16.23453371165366"><ele>67.0</ele><time>2026-04-18T07:51:58.985Z</time></trkpt><trkpt lat="39.561871288801214" lon="16.23460483515242"><ele>67.0</ele><time>2026-04-18T07:51:59.985Z</time></trkpt><trkpt lat="39.56202808868793" lon="16.234671359802896"><ele>67.33333333333333</ele><time>2026-04-18T07:52:00.985Z</time></trkpt><trkpt lat="39.5621877519035" lon="16.23473629526086"><ele>67.66666666666667</ele><time>2026-04-18T07:52:01.985Z</time></trkpt><trkpt lat="39.56234379947308" lon="16.23480040333405"><ele>68.0</ele><time>2026-04-18T07:52:02.985Z</time></trkpt><trkpt lat="39.56250209498976" lon="16.234865610794795"><ele>67.0</ele><time>2026-04-18T07:52:03.985Z</time></trkpt><trkpt lat="39.56266077811123" lon="16.234926497826553"><ele>66.0</ele><time>2026-04-18T07:52:04.985Z</time></trkpt><trkpt lat="39.562817711835876" lon="16.23498126557694"><ele>65.0</ele><time>2026-04-18T07:52:05.985Z</time></trkpt><trkpt lat="39.56298107773655" lon="16.23502948740035"><ele>65.0</ele><time>2026-04-18T07:52:06.985Z</time></trkpt><trkpt lat="39.56313966632988" lon="16.235090382180402"><ele>65.0</ele><time>2026-04-18T07:52:07.985Z</time></trkpt><trkpt lat="39.56330260640234" lon="16.235131984805736"><ele>65.0</ele><time>2026-04-18T07:52:08.985Z</time></trkpt><trkpt lat="39.56346795983792" lon="16.235171653287544"><ele>65.0</ele><time>2026-04-18T07:52:09.985Z</time></trkpt><trkpt lat="39.56363043022946" lon="16.235211044787736"><ele>65.0</ele><time>2026-04-18T07:52:10.985Z</time></trkpt><trkpt lat="39.5637956732071" lon="16.235251108500872"><ele>65.0</ele><time>2026-04-18T07:52:11.985Z</time></trkpt><trkpt lat="39.563959786900064" lon="16.235267830508793"><ele>65.0</ele><time>2026-04-18T07:52:12.985Z</time></trkpt><trkpt lat="39.56412271564354" lon="16.235308668909497"><ele>65.0</ele><time>2026-04-18T07:52:13.985Z</time></trkpt><trkpt lat="39.56428616737813" lon="16.235342236062454"><ele>65.0</ele><time>2026-04-18T07:52:14.985Z</time></trkpt><trkpt lat="39.5644450381973" lon="16.235399872644987"><ele>65.0</ele><time>2026-04-18T07:52:15.985Z</time></trkpt><trkpt lat="39.564609435589276" lon="16.2354393280017"><ele>65.0</ele><time>2026-04-18T07:52:16.985Z</time></trkpt><trkpt lat="39.5647710656958" lon="16.23547596746357"><ele>65.0</ele><time>2026-04-18T07:52:17.985Z</time></trkpt><trkpt lat="39.564935924975835" lon="16.235513443670524"><ele>65.0</ele><time>2026-04-18T07:52:18.985Z</time></trkpt><trkpt lat="39.565098503311184" lon="16.235550444550398"><ele>65.0</ele><time>2026-04-18T07:52:19.985Z</time></trkpt><trkpt lat="39.565261421844006" lon="16.2355875332475"><ele>65.0</ele><time>2026-04-18T07:52:20.985Z</time></trkpt><trkpt lat="39.56542409244567" lon="16.235624565501105"><ele>65.0</ele><time>2026-04-18T07:52:21.985Z</time></trkpt><trkpt lat="39.56558638003897" lon="16.23566151056258"><ele>65.0</ele><time>2026-04-18T07:52:22.985Z</time></trkpt><trkpt lat="39.56574762408146" lon="16.23569869958683"><ele>65.0</ele><time>2026-04-18T07:52:23.985Z</time></trkpt><trkpt lat="39.56591158372909" lon="16.23573684135939"><ele>65.0</ele><time>2026-04-18T07:52:24.985Z</time></trkpt><trkpt lat="39.56607342171776" lon="16.235774489575583"><ele>65.0</ele><time>2026-04-18T07:52:25.985Z</time></trkpt><trkpt lat="39.56625432363738" lon="16.235794801104085"><ele>65.0</ele><time>2026-04-18T07:52:26.985Z</time></trkpt><trkpt lat="39.56645091732097" lon="16.235844435734705"><ele>65.0</ele><time>2026-04-18T07:52:27.985Z</time></trkpt><trkpt lat="39.566653187868596" lon="16.235909995371493"><ele>65.0</ele><time>2026-04-18T07:52:28.985Z</time></trkpt><trkpt lat="39.56685046400586" lon="16.235958333837733"><ele>65.0</ele><time>2026-04-18T07:52:29.985Z</time></trkpt><trkpt lat="39.56703359197284" lon="16.236002214634834"><ele>66.33333333333334</ele><time>2026-04-18T07:52:30.985Z</time></trkpt><trkpt lat="39.56721144781813" lon="16.236042822092983"><ele>67.66666666666667</ele><time>2026-04-18T07:52:31.985Z</time></trkpt><trkpt lat="39.56738802413856" lon="16.23608390614266"><ele>69.0</ele><time>2026-04-18T07:52:32.985Z</time></trkpt><trkpt lat="39.56755790290007" lon="16.23612568543315"><ele>69.0</ele><time>2026-04-18T07:52:33.985Z</time></trkpt><trkpt lat="39.56773385731547" lon="16.23616895890717"><ele>69.0</ele><time>2026-04-18T07:52:34.985Z</time></trkpt><trkpt lat="39.56791576803649" lon="16.23621133656999"><ele>69.0</ele><time>2026-04-18T07:52:35.985Z</time></trkpt><trkpt lat="39.56810124675402" lon="16.23625216840084"><ele>69.66666666666667</ele><time>2026-04-18T07:52:36.985Z</time></trkpt><trkpt lat="39.56828692912637" lon="16.23629304507076"><ele>70.33333333333334</ele><time>2026-04-18T07:52:37.985Z</time></trkpt><trkpt lat="39.56847205971016" lon="16.236329448427618"><ele>71.0</ele><time>2026-04-18T07:52:38.985Z</time></trkpt><trkpt lat="39.568657483518294" lon="16.236349619003043"><ele>71.33333333333334</ele><time>2026-04-18T07:52:39.985Z</time></trkpt><trkpt lat="39.56884858719608" lon="16.236332975148013"><ele>71.66666666666667</ele><time>2026-04-18T07:52:40.985Z</time></trkpt><trkpt lat="39.569038152319216" lon="16.23632216525749"><ele>72.0</ele><time>2026-04-18T07:52:41.985Z</time></trkpt><trkpt lat="39.56922045347135" lon="16.236327803579893"><ele>72.0</ele><time>2026-04-18T07:52:42.985Z</time></trkpt><trkpt lat="39.56938912583323" lon="16.236313986914602"><ele>72.0</ele><time>2026-04-18T07:52:43.984Z</time></trkpt><trkpt lat="39.569562373133415" lon="16.23629979549855"><ele>72.0</ele><time>2026-04-18T07:52:44.984Z</time></trkpt><trkpt lat="39.569744034425376" lon="16.2362849148524"><ele>73.33333333333333</ele><time>2026-04-18T07:52:45.984Z</time></trkpt><trkpt lat="39.56992616451908" lon="16.236250790035452"><ele>74.66666666666666</ele><time>2026-04-18T07:52:46.984Z</time></trkpt><trkpt lat="39.57011115044556" lon="16.236240231985317"><ele>76.0</ele><time>2026-04-18T07:52:47.984Z</time></trkpt><trkpt lat="39.570297918126904" lon="16.236226284935707"><ele>75.66666666666666</ele><time>2026-04-18T07:52:48.984Z</time></trkpt><trkpt lat="39.57047229011083" lon="16.236209149227307"><ele>75.33333333333333</ele><time>2026-04-18T07:52:49.984Z</time></trkpt><trkpt lat="39.57063775613963" lon="16.236191467405177"><ele>75.0</ele><time>2026-04-18T07:52:50.984Z</time></trkpt><trkpt lat="39.5707897745665" lon="16.236164042180228"><ele>75.0</ele><time>2026-04-18T07:52:51.984Z</time></trkpt><trkpt lat="39.5709373425567" lon="16.23614392018403"><ele>75.0</ele><time>2026-04-18T07:52:52.984Z</time></trkpt><trkpt lat="39.571069753167606" lon="16.23609298060845"><ele>75.0</ele><time>2026-04-18T07:52:53.984Z</time></trkpt><trkpt lat="39.57119831601821" lon="16.23605211950807"><ele>75.0</ele><time>2026-04-18T07:52:54.984Z</time></trkpt><trkpt lat="39.571316412316364" lon="16.236048218392675"><ele>75.0</ele><time>2026-04-18T07:52:55.984Z</time></trkpt><trkpt lat="39.57143414253192" lon="16.236099356526687"><ele>75.0</ele><time>2026-04-18T07:52:56.984Z</time></trkpt><trkpt lat="39.57158433339919" lon="16.236180230835817"><ele>75.0</ele><time>2026-04-18T07:52:57.984Z</time></trkpt><trkpt lat="39.571705107926434" lon="16.236287780851086"><ele>75.0</ele><time>2026-04-18T07:52:58.984Z</time></trkpt><trkpt lat="39.57182285183873" lon="16.236413949584612"><ele>73.33333333333333</ele><time>2026-04-18T07:52:59.984Z</time></trkpt><trkpt lat="39.57193779297798" lon="16.23655479940766"><ele>71.66666666666666</ele><time>2026-04-18T07:53:00.984Z</time></trkpt><trkpt lat="39.572038394421114" lon="16.23670769473896"><ele>70.0</ele><time>2026-04-18T07:53:01.984Z</time></trkpt><trkpt lat="39.572118550765424" lon="16.236871538312556"><ele>70.75</ele><time>2026-04-18T07:53:02.984Z</time></trkpt><trkpt lat="39.57219912129231" lon="16.237045047432286"><ele>71.5</ele><time>2026-04-18T07:53:03.984Z</time></trkpt><trkpt lat="39.57228133051846" lon="16.237194802589396"><ele>72.25</ele><time>2026-04-18T07:53:04.984Z</time></trkpt><trkpt lat="39.57237350355691" lon="16.237327284898992"><ele>73.0</ele><time>2026-04-18T07:53:05.984Z</time></trkpt><trkpt lat="39.57248531251696" lon="16.237446557362034"><ele>73.0</ele><time>2026-04-18T07:53:06.984Z</time></trkpt><trkpt lat="39.572614446513406" lon="16.23754539174253"><ele>73.0</ele><time>2026-04-18T07:53:07.984Z</time></trkpt><trkpt lat="39.572761721186076" lon="16.237629601107887"><ele>73.0</ele><time>2026-04-18T07:53:08.984Z</time></trkpt><trkpt lat="39.57292265113923" lon="16.23770319521936"><ele>74.66666666666666</ele><time>2026-04-18T07:53:09.984Z</time></trkpt><trkpt lat="39.57308809336011" lon="16.237774077169522"><ele>76.33333333333333</ele><time>2026-04-18T07:53:10.984Z</time></trkpt><trkpt lat="39.573250703610015" lon="16.2378457684509"><ele>78.0</ele><time>2026-04-18T07:53:11.984Z</time></trkpt><trkpt lat="39.573382849835745" lon="16.237930943405633"><ele>78.0</ele><time>2026-04-18T07:53:12.984Z</time></trkpt><trkpt lat="39.573518649388426" lon="16.238018718831412"><ele>78.0</ele><time>2026-04-18T07:53:13.984Z</time></trkpt><trkpt lat="39.57366421796312" lon="16.23810579438172"><ele>78.0</ele><time>2026-04-18T07:53:14.984Z</time></trkpt><trkpt lat="39.57380576685301" lon="16.238210839916263"><ele>75.33333333333333</ele><time>2026-04-18T07:53:15.984Z</time></trkpt><trkpt lat="39.57394239961019" lon="16.238330741001903"><ele>72.66666666666666</ele><time>2026-04-18T07:53:16.984Z</time></trkpt><trkpt lat="39.57408285702312" lon="16.23842019846146"><ele>70.0</ele><time>2026-04-18T07:53:17.984Z</time></trkpt><trkpt lat="39.574231068313836" lon="16.238481818822628"><ele>70.0</ele><time>2026-04-18T07:53:18.984Z</time></trkpt><trkpt lat="39.5743763497092" lon="16.238563330329914"><ele>70.0</ele><time>2026-04-18T07:53:19.984Z</time></trkpt><trkpt lat="39.574522150837254" lon="16.238672097629628"><ele>70.0</ele><time>2026-04-18T07:53:20.984Z</time></trkpt><trkpt lat="39.574666164059806" lon="16.23876240144806"><ele>69.25</ele><time>2026-04-18T07:53:21.984Z</time></trkpt><trkpt lat="39.57478703604927" lon="16.238870959367926"><ele>68.5</ele><time>2026-04-18T07:53:22.984Z</time></trkpt><trkpt lat="39.57489692197596" lon="16.23900344765715"><ele>67.75</ele><time>2026-04-18T07:53:23.984Z</time></trkpt><trkpt lat="39.5750010143399" lon="16.23913508302129"><ele>67.0</ele><time>2026-04-18T07:53:24.984Z</time></trkpt><trkpt lat="39.57510964624794" lon="16.239261607008025"><ele>67.0</ele><time>2026-04-18T07:53:25.984Z</time></trkpt><trkpt lat="39.57521533199298" lon="16.239397612322946"><ele>67.0</ele><time>2026-04-18T07:53:26.984Z</time></trkpt><trkpt lat="39.575327316065675" lon="16.239529108594798"><ele>67.0</ele><time>2026-04-18T07:53:27.984Z</time></trkpt><trkpt lat="39.57545363613627" lon="16.239661447201417"><ele>67.33333333333333</ele><time>2026-04-18T07:53:28.984Z</time></trkpt><trkpt lat="39.57559484015527" lon="16.239796203941953"><ele>67.66666666666667</ele><time>2026-04-18T07:53:29.984Z</time></trkpt><trkpt lat="39.575737960435234" lon="16.239917960106094"><ele>68.0</ele><time>2026-04-18T07:53:30.984Z</time></trkpt><trkpt lat="39.57588001706233" lon="16.24003239087226"><ele>68.0</ele><time>2026-04-18T07:53:31.984Z</time></trkpt><trkpt lat="39.57601501428372" lon="16.240131697080248"><ele>68.0</ele><time>2026-04-18T07:53:32.984Z</time></trkpt><trkpt lat="39.57614211123816" lon="16.2402247527171"><ele>68.0</ele><time>2026-04-18T07:53:33.984Z</time></trkpt><trkpt lat="39.576272913235236" lon="16.240314526779724"><ele>68.0</ele><time>2026-04-18T07:53:34.984Z</time></trkpt><trkpt lat="39.5764059682975" lon="16.24039749252017"><ele>67.75</ele><time>2026-04-18T07:53:35.984Z</time></trkpt><trkpt lat="39.57653851414627" lon="16.240480060218236"><ele>67.5</ele><time>2026-04-18T07:53:36.984Z</time></trkpt><trkpt lat="39.57667559864945" lon="16.240563324787008"><ele>67.25</ele><time>2026-04-18T07:53:37.984Z</time></trkpt><trkpt lat="39.576810044233255" lon="16.240646903756947"><ele>67.0</ele><time>2026-04-18T07:53:38.984Z</time></trkpt><trkpt lat="39.57694053973294" lon="16.240708663997896"><ele>66.75</ele><time>2026-04-18T07:53:39.984Z</time></trkpt><trkpt lat="39.57706449847369" lon="16.24076559104685"><ele>66.5</ele><time>2026-04-18T07:53:40.984Z</time></trkpt><trkpt lat="39.57719255327627" lon="16.240817951078277"><ele>66.25</ele><time>2026-04-18T07:53:41.984Z</time></trkpt><trkpt lat="39.577312606101266" lon="16.240892955919687"><ele>66.0</ele><time>2026-04-18T07:53:42.984Z</time></trkpt><trkpt lat="39.577428968963524" lon="16.240942951119155"><ele>66.0</ele><time>2026-04-18T07:53:43.983Z</time></trkpt><trkpt lat="39.577546306267585" lon="16.240950149054"><ele>66.0</ele><time>2026-04-18T07:53:44.983Z</time></trkpt><trkpt lat="39.577658569568726" lon="16.24094057807439"><ele>66.0</ele><time>2026-04-18T07:53:45.983Z</time></trkpt><trkpt lat="39.577768555463706" lon="16.24088710906939"><ele>66.0</ele><time>2026-04-18T07:53:46.983Z</time></trkpt><trkpt lat="39.577868802807906" lon="16.24078420085654"><ele>65.0</ele><time>2026-04-18T07:53:47.983Z</time></trkpt><trkpt lat="39.57795793906852" lon="16.24064010037888"><ele>64.0</ele><time>2026-04-18T07:53:48.983Z</time></trkpt><trkpt lat="39.57806025900343" lon="16.240491161851057"><ele>63.0</ele><time>2026-04-18T07:53:49.983Z</time></trkpt><trkpt lat="39.57814787855788" lon="16.240340943384236"><ele>62.0</ele><time>2026-04-18T07:53:50.983Z</time></trkpt><trkpt lat="39.57823208122521" lon="16.240225615732097"><ele>62.0</ele><time>2026-04-18T07:53:51.983Z</time></trkpt><trkpt lat="39.578321728945994" lon="16.24012100482164"><ele>62.0</ele><time>2026-04-18T07:53:52.983Z</time></trkpt><trkpt lat="39.57845329996368" lon="16.240148763591172"><ele>62.0</ele><time>2026-04-18T07:53:53.984Z</time></trkpt><trkpt lat="39.57858957324095" lon="16.240171430251568"><ele>62.0</ele><time>2026-04-18T07:53:54.984Z</time></trkpt><trkpt lat="39.57873452809138" lon="16.240205555453763"><ele>61.5</ele><time>2026-04-18T07:53:55.984Z</time></trkpt><trkpt lat="39.5788677233699" lon="16.240243301378182"><ele>61.0</ele><time>2026-04-18T07:53:56.984Z</time></trkpt><trkpt lat="39.578992524806665" lon="16.240279164706834"><ele>60.5</ele><time>2026-04-18T07:53:57.984Z</time></trkpt><trkpt lat="39.57912346780635" lon="16.24029828550955"><ele>60.0</ele><time>2026-04-18T07:53:58.984Z</time></trkpt><trkpt lat="39.57925064420378" lon="16.240340940123538"><ele>60.0</ele><time>2026-04-18T07:53:59.984Z</time></trkpt><trkpt lat="39.57937354665412" lon="16.240385756714286"><ele>60.0</ele><time>2026-04-18T07:54:00.984Z</time></trkpt><trkpt lat="39.579487827190555" lon="16.240433444708113"><ele>60.0</ele><time>2026-04-18T07:54:01.983Z</time></trkpt><trkpt lat="39.579591802555406" lon="16.240484624618475"><ele>60.0</ele><time>2026-04-18T07:54:02.983Z</time></trkpt><trkpt lat="39.57969024343993" lon="16.240537847078162"><ele>60.333333333333336</ele><time>2026-04-18T07:54:03.983Z</time></trkpt><trkpt lat="39.57977481400133" lon="16.24058423574522"><ele>60.66666666666667</ele><time>2026-04-18T07:54:04.983Z</time></trkpt><trkpt lat="39.57984181776182" lon="16.24062466757749"><ele>61.0</ele><time>2026-04-18T07:54:05.983Z</time></trkpt><trkpt lat="39.57990218982335" lon="16.24066125507518"><ele>61.333333333333336</ele><time>2026-04-18T07:54:06.983Z</time></trkpt><trkpt lat="39.57998364533149" lon="16.240712158917813"><ele>61.66666666666667</ele><time>2026-04-18T07:54:08.983Z</time></trkpt><trkpt lat="39.580029237211356" lon="16.240595108105044"><ele>62.0</ele><time>2026-04-18T07:54:09.983Z</time></trkpt><trkpt lat="39.58004418348525" lon="16.240510002586905"><ele>62.66666666666667</ele><time>2026-04-18T07:54:10.983Z</time></trkpt><trkpt lat="39.58005239424468" lon="16.240421025067068"><ele>63.333333333333336</ele><time>2026-04-18T07:54:11.983Z</time></trkpt><trkpt lat="39.58006450175467" lon="16.240328994270357"><ele>64.0</ele><time>2026-04-18T07:54:12.983Z</time></trkpt><trkpt lat="39.58008718177357" lon="16.240235278621"><ele>64.66666666666667</ele><time>2026-04-18T07:54:13.983Z</time></trkpt><trkpt lat="39.58011674207947" lon="16.240124541933806"><ele>65.33333333333333</ele><time>2026-04-18T07:54:14.983Z</time></trkpt><trkpt lat="39.58014882433412" lon="16.239987897408025"><ele>66.0</ele><time>2026-04-18T07:54:15.983Z</time></trkpt><trkpt lat="39.580183549663175" lon="16.239830172585172"><ele>65.0</ele><time>2026-04-18T07:54:16.983Z</time></trkpt><trkpt lat="39.58022254946899" lon="16.23965264699915"><ele>64.0</ele><time>2026-04-18T07:54:17.983Z</time></trkpt><trkpt lat="39.580282168447134" lon="16.23947027817432"><ele>63.0</ele><time>2026-04-18T07:54:18.983Z</time></trkpt><trkpt lat="39.58032807246139" lon="16.2392771986762"><ele>66.0</ele><time>2026-04-18T07:54:19.983Z</time></trkpt><trkpt lat="39.580370051271224" lon="16.23909900963196"><ele>69.0</ele><time>2026-04-18T07:54:20.983Z</time></trkpt><trkpt lat="39.58039617136418" lon="16.238920754053066"><ele>72.0</ele><time>2026-04-18T07:54:21.983Z</time></trkpt><trkpt lat="39.58043707635668" lon="16.23875104073099"><ele>75.0</ele><time>2026-04-18T07:54:22.983Z</time></trkpt><trkpt lat="39.58048083044398" lon="16.238576867065532"><ele>75.0</ele><time>2026-04-18T07:54:23.983Z</time></trkpt><trkpt lat="39.58052430426849" lon="16.23839221620403"><ele>75.0</ele><time>2026-04-18T07:54:24.983Z</time></trkpt><trkpt lat="39.58057039864855" lon="16.238199014436834"><ele>75.0</ele><time>2026-04-18T07:54:25.983Z</time></trkpt><trkpt lat="39.58061390255886" lon="16.238007191860167"><ele>74.5</ele><time>2026-04-18T07:54:26.983Z</time></trkpt><trkpt lat="39.58065358433121" lon="16.237823414887174"><ele>74.0</ele><time>2026-04-18T07:54:27.983Z</time></trkpt><trkpt lat="39.58068879472559" lon="16.23764985816926"><ele>73.5</ele><time>2026-04-18T07:54:28.983Z</time></trkpt><trkpt lat="39.580727733505164" lon="16.23746893015928"><ele>73.0</ele><time>2026-04-18T07:54:29.983Z</time></trkpt><trkpt lat="39.58077091017352" lon="16.23727547854754"><ele>72.25</ele><time>2026-04-18T07:54:30.983Z</time></trkpt><trkpt lat="39.58081320346708" lon="16.23710141336649"><ele>71.5</ele><time>2026-04-18T07:54:31.983Z</time></trkpt><trkpt lat="39.58086218090722" lon="16.236938296289633"><ele>70.75</ele><time>2026-04-18T07:54:32.983Z</time></trkpt><trkpt lat="39.58092224339654" lon="16.236794183007675"><ele>70.0</ele><time>2026-04-18T07:54:33.983Z</time></trkpt><trkpt lat="39.58101293747848" lon="16.236661469406716"><ele>70.0</ele><time>2026-04-18T07:54:34.983Z</time></trkpt><trkpt lat="39.581101731839844" lon="16.236514972643853"><ele>70.0</ele><time>2026-04-18T07:54:35.983Z</time></trkpt><trkpt lat="39.58118999874225" lon="16.236370834920205"><ele>70.0</ele><time>2026-04-18T07:54:36.983Z</time></trkpt><trkpt lat="39.581271496841154" lon="16.23624148642677"><ele>70.0</ele><time>2026-04-18T07:54:37.983Z</time></trkpt><trkpt lat="39.5813265601167" lon="16.236104251858073"><ele>72.0</ele><time>2026-04-18T07:54:38.983Z</time></trkpt><trkpt lat="39.581372995880976" lon="16.23597566596494"><ele>74.0</ele><time>2026-04-18T07:54:39.983Z</time></trkpt><trkpt lat="39.58140635143343" lon="16.23584230950475"><ele>76.0</ele><time>2026-04-18T07:54:40.983Z</time></trkpt><trkpt lat="39.58135547424893" lon="16.235674683134743"><ele>78.0</ele><time>2026-04-18T07:54:41.983Z</time></trkpt><trkpt lat="39.581284568181175" lon="16.235519817754632"><ele>75.66666666666667</ele><time>2026-04-18T07:54:42.983Z</time></trkpt><trkpt lat="39.58118980078913" lon="16.23536738723873"><ele>73.33333333333334</ele><time>2026-04-18T07:54:43.983Z</time></trkpt><trkpt lat="39.58110314343681" lon="16.23521108338381"><ele>71.0</ele><time>2026-04-18T07:54:44.983Z</time></trkpt><trkpt lat="39.581026481595366" lon="16.235038085919328"><ele>71.0</ele><time>2026-04-18T07:54:45.983Z</time></trkpt><trkpt lat="39.58096571607086" lon="16.234849897360057"><ele>71.0</ele><time>2026-04-18T07:54:46.983Z</time></trkpt><trkpt lat="39.58091916749697" lon="16.234643033054088"><ele>71.0</ele><time>2026-04-18T07:54:47.983Z</time></trkpt><trkpt lat="39.580883122617855" lon="16.234429919704265"><ele>72.0</ele><time>2026-04-18T07:54:48.983Z</time></trkpt><trkpt lat="39.580848609730275" lon="16.234214267156652"><ele>73.0</ele><time>2026-04-18T07:54:49.983Z</time></trkpt><trkpt lat="39.58081298330379" lon="16.23401074635223"><ele>74.0</ele><time>2026-04-18T07:54:50.983Z</time></trkpt><trkpt lat="39.58077306790571" lon="16.23381365704925"><ele>75.0</ele><time>2026-04-18T07:54:51.983Z</time></trkpt><trkpt lat="39.58073059359292" lon="16.233614255167996"><ele>76.0</ele><time>2026-04-18T07:54:52.983Z</time></trkpt><trkpt lat="39.58068591146129" lon="16.233417796914736"><ele>77.0</ele><time>2026-04-18T07:54:53.983Z</time></trkpt><trkpt lat="39.58063740302677" lon="16.233224147391386"><ele>77.25</ele><time>2026-04-18T07:54:54.983Z</time></trkpt><trkpt lat="39.58058474190678" lon="16.233037560643236"><ele>77.5</ele><time>2026-04-18T07:54:55.983Z</time></trkpt><trkpt lat="39.580537118524674" lon="16.232865255450967"><ele>77.75</ele><time>2026-04-18T07:54:56.983Z</time></trkpt><trkpt lat="39.58049415738822" lon="16.232682340579906"><ele>78.0</ele><time>2026-04-18T07:54:57.983Z</time></trkpt><trkpt lat="39.58048993728191" lon="16.232500623988788"><ele>78.0</ele><time>2026-04-18T07:54:58.983Z</time></trkpt><trkpt lat="39.580488800421826" lon="16.232324951661763"><ele>78.0</ele><time>2026-04-18T07:54:59.983Z</time></trkpt><trkpt lat="39.58051143332634" lon="16.23216809962928"><ele>78.0</ele><time>2026-04-18T07:55:00.983Z</time></trkpt><trkpt lat="39.58055565471029" lon="16.23202165469409"><ele>78.0</ele><time>2026-04-18T07:55:01.983Z</time></trkpt><trkpt lat="39.58061851257542" lon="16.231859382014473"><ele>77.25</ele><time>2026-04-18T07:55:02.983Z</time></trkpt><trkpt lat="39.58067750462075" lon="16.231680972876845"><ele>76.5</ele><time>2026-04-18T07:55:03.983Z</time></trkpt><trkpt lat="39.58074829214248" lon="16.231510853904513"><ele>75.75</ele><time>2026-04-18T07:55:04.983Z</time></trkpt><trkpt lat="39.58080651858702" lon="16.23134573612909"><ele>75.0</ele><time>2026-04-18T07:55:05.983Z</time></trkpt><trkpt lat="39.58083489864134" lon="16.23118288351344"><ele>74.75</ele><time>2026-04-18T07:55:06.983Z</time></trkpt><trkpt lat="39.5808308971456" lon="16.231023268738994"><ele>74.5</ele><time>2026-04-18T07:55:07.983Z</time></trkpt><trkpt lat="39.58078629327451" lon="16.230879066949033"><ele>74.25</ele><time>2026-04-18T07:55:08.983Z</time></trkpt><trkpt lat="39.580726383501826" lon="16.230742563169148"><ele>74.0</ele><time>2026-04-18T07:55:09.983Z</time></trkpt><trkpt lat="39.58065019639743" lon="16.23062532224054"><ele>73.25</ele><time>2026-04-18T07:55:10.983Z</time></trkpt><trkpt lat="39.580572857426965" lon="16.230500599189686"><ele>72.5</ele><time>2026-04-18T07:55:11.983Z</time></trkpt><trkpt lat="39.58048903937041" lon="16.230351521705177"><ele>71.75</ele><time>2026-04-18T07:55:12.983Z</time></trkpt><trkpt lat="39.580401283818475" lon="16.23017205600331"><ele>71.0</ele><time>2026-04-18T07:55:13.983Z</time></trkpt><trkpt lat="39.58032049375777" lon="16.229989796804823"><ele>72.33333333333334</ele><time>2026-04-18T07:55:14.983Z</time></trkpt><trkpt lat="39.58024032093907" lon="16.229794876723393"><ele>73.66666666666667</ele><time>2026-04-18T07:55:15.983Z</time></trkpt><trkpt lat="39.5801725891683" lon="16.22960157141021"><ele>75.0</ele><time>2026-04-18T07:55:16.983Z</time></trkpt><trkpt lat="39.580104776624566" lon="16.229404661731518"><ele>75.0</ele><time>2026-04-18T07:55:17.983Z</time></trkpt><trkpt lat="39.58003532539915" lon="16.229205107870847"><ele>75.0</ele><time>2026-04-18T07:55:18.983Z</time></trkpt><trkpt lat="39.57996570694978" lon="16.22900203966718"><ele>75.0</ele><time>2026-04-18T07:55:19.983Z</time></trkpt><trkpt lat="39.579899602682424" lon="16.228804890825558"><ele>76.0</ele><time>2026-04-18T07:55:20.983Z</time></trkpt><trkpt lat="39.57982882999018" lon="16.22862327298541"><ele>77.0</ele><time>2026-04-18T07:55:21.983Z</time></trkpt><trkpt lat="39.579762479518244" lon="16.228455789111674"><ele>78.0</ele><time>2026-04-18T07:55:22.983Z</time></trkpt><trkpt lat="39.57970538745564" lon="16.228294234062602"><ele>79.0</ele><time>2026-04-18T07:55:23.983Z</time></trkpt><trkpt lat="39.57966067068619" lon="16.228126780964285"><ele>81.33333333333333</ele><time>2026-04-18T07:55:24.983Z</time></trkpt><trkpt lat="39.57962335940303" lon="16.22794077453383"><ele>83.66666666666667</ele><time>2026-04-18T07:55:25.983Z</time></trkpt><trkpt lat="39.579595331882736" lon="16.22774015636835"><ele>86.0</ele><time>2026-04-18T07:55:26.983Z</time></trkpt><trkpt lat="39.579577537298384" lon="16.227531883991837"><ele>86.33333333333334</ele><time>2026-04-18T07:55:27.983Z</time></trkpt><trkpt lat="39.57957039686711" lon="16.227308815787413"><ele>86.66666666666667</ele><time>2026-04-18T07:55:28.983Z</time></trkpt><trkpt lat="39.579573358978614" lon="16.227074465395265"><ele>87.0</ele><time>2026-04-18T07:55:29.983Z</time></trkpt><trkpt lat="39.5796152296754" lon="16.226832075609515"><ele>87.0</ele><time>2026-04-18T07:55:30.983Z</time></trkpt><trkpt lat="39.57965789806431" lon="16.226579943041262"><ele>87.0</ele><time>2026-04-18T07:55:31.983Z</time></trkpt><trkpt lat="39.57968769263915" lon="16.22633541553347"><ele>87.0</ele><time>2026-04-18T07:55:32.983Z</time></trkpt><trkpt lat="39.57972632472543" lon="16.226115818951452"><ele>87.0</ele><time>2026-04-18T07:55:33.983Z</time></trkpt><trkpt lat="39.579753016393596" lon="16.225893487910774"><ele>87.0</ele><time>2026-04-18T07:55:34.983Z</time></trkpt><trkpt lat="39.57977661619622" lon="16.225675541852887"><ele>87.0</ele><time>2026-04-18T07:55:35.983Z</time></trkpt><trkpt lat="39.57983732719814" lon="16.22548833092335"><ele>85.66666666666667</ele><time>2026-04-18T07:55:36.983Z</time></trkpt><trkpt lat="39.57990028409088" lon="16.225289632091233"><ele>84.33333333333334</ele><time>2026-04-18T07:55:37.983Z</time></trkpt><trkpt lat="39.57997222292477" lon="16.225084536962836"><ele>83.0</ele><time>2026-04-18T07:55:38.983Z</time></trkpt><trkpt lat="39.580022990947285" lon="16.22486934490032"><ele>82.33333333333334</ele><time>2026-04-18T07:55:39.983Z</time></trkpt><trkpt lat="39.58008085714697" lon="16.22465732555124"><ele>81.66666666666667</ele><time>2026-04-18T07:55:40.983Z</time></trkpt><trkpt lat="39.58012990124739" lon="16.224441456212535"><ele>81.0</ele><time>2026-04-18T07:55:41.983Z</time></trkpt><trkpt lat="39.5801732554595" lon="16.22423837680016"><ele>81.0</ele><time>2026-04-18T07:55:42.983Z</time></trkpt><trkpt lat="39.58021824169046" lon="16.224027692964132"><ele>81.0</ele><time>2026-04-18T07:55:43.983Z</time></trkpt><trkpt lat="39.580262779126706" lon="16.223817504770732"><ele>81.0</ele><time>2026-04-18T07:55:44.982Z</time></trkpt><trkpt lat="39.58030380021637" lon="16.223629295841572"><ele>84.75</ele><time>2026-04-18T07:55:45.982Z</time></trkpt><trkpt lat="39.58036309943476" lon="16.223457587413346"><ele>88.5</ele><time>2026-04-18T07:55:46.982Z</time></trkpt><trkpt lat="39.580417964965555" lon="16.223306047551407"><ele>92.25</ele><time>2026-04-18T07:55:47.982Z</time></trkpt><trkpt lat="39.58049327117815" lon="16.223184536363405"><ele>96.0</ele><time>2026-04-18T07:55:48.982Z</time></trkpt><trkpt lat="39.58057161284976" lon="16.223065066417142"><ele>96.5</ele><time>2026-04-18T07:55:49.982Z</time></trkpt><trkpt lat="39.58062371665168" lon="16.22293653166729"><ele>97.0</ele><time>2026-04-18T07:55:50.982Z</time></trkpt><trkpt lat="39.580667224939276" lon="16.222816363735674"><ele>97.5</ele><time>2026-04-18T07:55:51.982Z</time></trkpt><trkpt lat="39.58068526812951" lon="16.222671419525117"><ele>98.0</ele><time>2026-04-18T07:55:52.982Z</time></trkpt><trkpt lat="39.58067603763704" lon="16.22250615097565"><ele>98.0</ele><time>2026-04-18T07:55:53.982Z</time></trkpt><trkpt lat="39.58064891230634" lon="16.222317952772354"><ele>98.0</ele><time>2026-04-18T07:55:54.982Z</time></trkpt><trkpt lat="39.58061529798567" lon="16.22209472070389"><ele>98.0</ele><time>2026-04-18T07:55:55.982Z</time></trkpt><trkpt lat="39.580595638639366" lon="16.22185508611097"><ele>98.66666666666666</ele><time>2026-04-18T07:55:56.982Z</time></trkpt><trkpt lat="39.580612146902254" lon="16.221627960237086"><ele>99.33333333333334</ele><time>2026-04-18T07:55:57.982Z</time></trkpt><trkpt lat="39.5806222606705" lon="16.221421139817966"><ele>100.0</ele><time>2026-04-18T07:55:58.982Z</time></trkpt><trkpt lat="39.580652550124675" lon="16.221207711482837"><ele>100.0</ele><time>2026-04-18T07:55:59.983Z</time></trkpt><trkpt lat="39.580695673904984" lon="16.221006486614137"><ele>100.0</ele><time>2026-04-18T07:56:00.983Z</time></trkpt><trkpt lat="39.5807383703962" lon="16.220810100994942"><ele>100.0</ele><time>2026-04-18T07:56:01.983Z</time></trkpt><trkpt lat="39.58076535569486" lon="16.220610511178094"><ele>100.0</ele><time>2026-04-18T07:56:02.983Z</time></trkpt><trkpt lat="39.58079322360534" lon="16.220411023868394"><ele>100.0</ele><time>2026-04-18T07:56:03.983Z</time></trkpt><trkpt lat="39.58080735974586" lon="16.22020674945089"><ele>100.0</ele><time>2026-04-18T07:56:04.983Z</time></trkpt><trkpt lat="39.58081228719544" lon="16.22000958877136"><ele>100.0</ele><time>2026-04-18T07:56:05.983Z</time></trkpt><trkpt lat="39.58081592318689" lon="16.219808193975076"><ele>100.0</ele><time>2026-04-18T07:56:06.983Z</time></trkpt><trkpt lat="39.58082447180717" lon="16.219615693587812"><ele>100.0</ele><time>2026-04-18T07:56:07.983Z</time></trkpt><trkpt lat="39.58083708268387" lon="16.219421121571564"><ele>100.0</ele><time>2026-04-18T07:56:08.983Z</time></trkpt><trkpt lat="39.5808545612112" lon="16.219240299449496"><ele>100.0</ele><time>2026-04-18T07:56:09.983Z</time></trkpt><trkpt lat="39.58088638609255" lon="16.219075739663385"><ele>100.0</ele><time>2026-04-18T07:56:10.983Z</time></trkpt><trkpt lat="39.58092880181325" lon="16.218923063573378"><ele>100.0</ele><time>2026-04-18T07:56:11.983Z</time></trkpt><trkpt lat="39.58096393977162" lon="16.218784930490305"><ele>99.25</ele><time>2026-04-18T07:56:12.983Z</time></trkpt><trkpt lat="39.580974505087596" lon="16.218645353502318"><ele>98.5</ele><time>2026-04-18T07:56:13.983Z</time></trkpt><trkpt lat="39.580951961882995" lon="16.21850649835841"><ele>97.75</ele><time>2026-04-18T07:56:14.983Z</time></trkpt><trkpt lat="39.58091436845192" lon="16.218355786790056"><ele>97.0</ele><time>2026-04-18T07:56:15.983Z</time></trkpt><trkpt lat="39.580903781632784" lon="16.218194717915196"><ele>97.25</ele><time>2026-04-18T07:56:16.983Z</time></trkpt><trkpt lat="39.580924508605506" lon="16.218030658558895"><ele>97.5</ele><time>2026-04-18T07:56:17.983Z</time></trkpt><trkpt lat="39.58098527898851" lon="16.217863948561522"><ele>97.75</ele><time>2026-04-18T07:56:18.983Z</time></trkpt><trkpt lat="39.581064677629776" lon="16.21767721734955"><ele>98.0</ele><time>2026-04-18T07:56:19.983Z</time></trkpt><trkpt lat="39.581129024753" lon="16.217479363318663"><ele>101.0</ele><time>2026-04-18T07:56:20.983Z</time></trkpt><trkpt lat="39.581194282134916" lon="16.217314446247503"><ele>104.0</ele><time>2026-04-18T07:56:21.983Z</time></trkpt><trkpt lat="39.58127170928664" lon="16.217171054752686"><ele>107.0</ele><time>2026-04-18T07:56:22.983Z</time></trkpt><trkpt lat="39.581338201401195" lon="16.217011229051646"><ele>110.0</ele><time>2026-04-18T07:56:23.983Z</time></trkpt><trkpt lat="39.58141347332557" lon="16.216854751584886"><ele>110.0</ele><time>2026-04-18T07:56:24.983Z</time></trkpt><trkpt lat="39.58149260998426" lon="16.216719745557107"><ele>110.0</ele><time>2026-04-18T07:56:25.983Z</time></trkpt><trkpt lat="39.58157929820012" lon="16.216607265966623"><ele>110.0</ele><time>2026-04-18T07:56:26.983Z</time></trkpt><trkpt lat="39.58165224741907" lon="16.216479013096528"><ele>110.0</ele><time>2026-04-18T07:56:27.983Z</time></trkpt><trkpt lat="39.58174880159243" lon="16.216366384137224"><ele>109.25</ele><time>2026-04-18T07:56:28.983Z</time></trkpt><trkpt lat="39.58181181866568" lon="16.216203966192356"><ele>108.5</ele><time>2026-04-18T07:56:29.983Z</time></trkpt><trkpt lat="39.58183596809732" lon="16.216014642569846"><ele>107.75</ele><time>2026-04-18T07:56:30.983Z</time></trkpt><trkpt lat="39.58188500756359" lon="16.21581520199112"><ele>107.0</ele><time>2026-04-18T07:56:31.983Z</time></trkpt><trkpt lat="39.581950313792994" lon="16.215619780217402"><ele>113.0</ele><time>2026-04-18T07:56:32.983Z</time></trkpt><trkpt lat="39.58202712790409" lon="16.215436476575846"><ele>119.0</ele><time>2026-04-18T07:56:33.983Z</time></trkpt><trkpt lat="39.58209948657577" lon="16.215265896028892"><ele>125.0</ele><time>2026-04-18T07:56:34.983Z</time></trkpt><trkpt lat="39.582151125852675" lon="16.215073946599894"><ele>125.0</ele><time>2026-04-18T07:56:35.983Z</time></trkpt><trkpt lat="39.58221331390762" lon="16.214883415101124"><ele>125.0</ele><time>2026-04-18T07:56:36.983Z</time></trkpt><trkpt lat="39.58225954476708" lon="16.21469327171761"><ele>125.0</ele><time>2026-04-18T07:56:37.983Z</time></trkpt><trkpt lat="39.582286610861374" lon="16.21451062599779"><ele>124.66666666666666</ele><time>2026-04-18T07:56:38.983Z</time></trkpt><trkpt lat="39.58230476059504" lon="16.21432002842393"><ele>124.33333333333334</ele><time>2026-04-18T07:56:39.983Z</time></trkpt><trkpt lat="39.58231963844607" lon="16.214116968236738"><ele>124.0</ele><time>2026-04-18T07:56:40.983Z</time></trkpt><trkpt lat="39.58235123742912" lon="16.21390408442955"><ele>124.0</ele><time>2026-04-18T07:56:41.983Z</time></trkpt><trkpt lat="39.58237923784995" lon="16.213686493545893"><ele>124.0</ele><time>2026-04-18T07:56:42.983Z</time></trkpt><trkpt lat="39.58241470825162" lon="16.213453458689262"><ele>124.0</ele><time>2026-04-18T07:56:43.983Z</time></trkpt><trkpt lat="39.58245175916746" lon="16.213217143029265"><ele>125.0</ele><time>2026-04-18T07:56:44.983Z</time></trkpt><trkpt lat="39.58246625318262" lon="16.21299681602374"><ele>126.0</ele><time>2026-04-18T07:56:45.983Z</time></trkpt><trkpt lat="39.58248856638095" lon="16.212803078174943"><ele>127.0</ele><time>2026-04-18T07:56:46.983Z</time></trkpt><trkpt lat="39.58249208903769" lon="16.21260538885501"><ele>127.0</ele><time>2026-04-18T07:56:47.983Z</time></trkpt><trkpt lat="39.58247110382157" lon="16.21239375103374"><ele>127.0</ele><time>2026-04-18T07:56:48.983Z</time></trkpt><trkpt lat="39.582424669866896" lon="16.2121767474043"><ele>127.0</ele><time>2026-04-18T07:56:49.983Z</time></trkpt><trkpt lat="39.58236338223658" lon="16.211958123591067"><ele>129.66666666666669</ele><time>2026-04-18T07:56:50.983Z</time></trkpt><trkpt lat="39.58229799495537" lon="16.21174412638007"><ele>132.33333333333334</ele><time>2026-04-18T07:56:51.983Z</time></trkpt><trkpt lat="39.58222925560602" lon="16.21154422089893"><ele>135.0</ele><time>2026-04-18T07:56:52.983Z</time></trkpt><trkpt lat="39.58216491675459" lon="16.211348010825404"><ele>137.33333333333334</ele><time>2026-04-18T07:56:53.983Z</time></trkpt><trkpt lat="39.58210122630356" lon="16.21115099704458"><ele>139.66666666666669</ele><time>2026-04-18T07:56:54.983Z</time></trkpt><trkpt lat="39.58207229282593" lon="16.210939600447496"><ele>142.0</ele><time>2026-04-18T07:56:55.983Z</time></trkpt><trkpt lat="39.58204933582841" lon="16.210726476181534"><ele>138.0</ele><time>2026-04-18T07:56:56.983Z</time></trkpt><trkpt lat="39.582012145487724" lon="16.210511552285798"><ele>134.0</ele><time>2026-04-18T07:56:57.983Z</time></trkpt><trkpt lat="39.58198574725632" lon="16.210293395427414"><ele>130.0</ele><time>2026-04-18T07:56:58.983Z</time></trkpt><trkpt lat="39.581945326319776" lon="16.21008869296832"><ele>130.0</ele><time>2026-04-18T07:56:59.983Z</time></trkpt><trkpt lat="39.58189463885849" lon="16.20987315672184"><ele>130.0</ele><time>2026-04-18T07:57:00.983Z</time></trkpt><trkpt lat="39.581845656445005" lon="16.2096616037539"><ele>130.0</ele><time>2026-04-18T07:57:01.983Z</time></trkpt><trkpt lat="39.581803823783645" lon="16.209454331381735"><ele>132.0</ele><time>2026-04-18T07:57:02.983Z</time></trkpt><trkpt lat="39.581768786509684" lon="16.209251760502358"><ele>134.0</ele><time>2026-04-18T07:57:03.983Z</time></trkpt><trkpt lat="39.58174034762288" lon="16.209061076943414"><ele>136.0</ele><time>2026-04-18T07:57:04.983Z</time></trkpt><trkpt lat="39.5817159980105" lon="16.20889081523336"><ele>138.0</ele><time>2026-04-18T07:57:05.983Z</time></trkpt><trkpt lat="39.58170135840253" lon="16.208732123491004"><ele>137.75</ele><time>2026-04-18T07:57:06.982Z</time></trkpt><trkpt lat="39.581739887572645" lon="16.208595912440988"><ele>137.5</ele><time>2026-04-18T07:57:07.982Z</time></trkpt><trkpt lat="39.58179797179166" lon="16.208455694477593"><ele>137.25</ele><time>2026-04-18T07:57:08.982Z</time></trkpt><trkpt lat="39.58183718117579" lon="16.208283969457856"><ele>137.0</ele><time>2026-04-18T07:57:09.982Z</time></trkpt><trkpt lat="39.58186637827434" lon="16.20811497056693"><ele>137.0</ele><time>2026-04-18T07:57:10.982Z</time></trkpt><trkpt lat="39.58187417205585" lon="16.207930932196707"><ele>137.0</ele><time>2026-04-18T07:57:11.982Z</time></trkpt><trkpt lat="39.58194536425195" lon="16.207753504561122"><ele>137.0</ele><time>2026-04-18T07:57:12.982Z</time></trkpt><trkpt lat="39.582024756667835" lon="16.20758280344232"><ele>142.5</ele><time>2026-04-18T07:57:13.982Z</time></trkpt><trkpt lat="39.58210317873512" lon="16.207450923915868"><ele>148.0</ele><time>2026-04-18T07:57:14.982Z</time></trkpt><trkpt lat="39.58218908515723" lon="16.207333836474845"><ele>153.5</ele><time>2026-04-18T07:57:15.982Z</time></trkpt><trkpt lat="39.58227706431305" lon="16.207222419859345"><ele>159.0</ele><time>2026-04-18T07:57:16.982Z</time></trkpt><trkpt lat="39.5823401946609" lon="16.20711268278084"><ele>159.4</ele><time>2026-04-18T07:57:17.982Z</time></trkpt><trkpt lat="39.582391495602934" lon="16.207017656002318"><ele>159.8</ele><time>2026-04-18T07:57:18.982Z</time></trkpt><trkpt lat="39.58241834650404" lon="16.206912148734844"><ele>160.20000000000002</ele><time>2026-04-18T07:57:19.982Z</time></trkpt><trkpt lat="39.58241771133811" lon="16.206800273594915"><ele>160.60000000000002</ele><time>2026-04-18T07:57:20.982Z</time></trkpt><trkpt lat="39.58237994334204" lon="16.206676970648243"><ele>161.0</ele><time>2026-04-18T07:57:21.982Z</time></trkpt><trkpt lat="39.58230023542595" lon="16.20655624248931"><ele>162.0</ele><time>2026-04-18T07:57:22.982Z</time></trkpt><trkpt lat="39.58218737517769" lon="16.206457050348014"><ele>163.0</ele><time>2026-04-18T07:57:23.982Z</time></trkpt><trkpt lat="39.582058959884556" lon="16.206380443123553"><ele>164.0</ele><time>2026-04-18T07:57:24.982Z</time></trkpt><trkpt lat="39.58191624564914" lon="16.20632129960763"><ele>165.0</ele><time>2026-04-18T07:57:25.982Z</time></trkpt><trkpt lat="39.58176020018203" lon="16.206289354139955"><ele>165.0</ele><time>2026-04-18T07:57:26.982Z</time></trkpt><trkpt lat="39.58161940419898" lon="16.206260500914865"><ele>165.0</ele><time>2026-04-18T07:57:27.982Z</time></trkpt><trkpt lat="39.58150336642644" lon="16.20619583514542"><ele>165.0</ele><time>2026-04-18T07:57:28.982Z</time></trkpt><trkpt lat="39.58139707027598" lon="16.20615215666167"><ele>165.0</ele><time>2026-04-18T07:57:29.982Z</time></trkpt><trkpt lat="39.581337877967435" lon="16.206045887648397"><ele>165.0</ele><time>2026-04-18T07:57:30.982Z</time></trkpt><trkpt lat="39.58130268958099" lon="16.20593288202873"><ele>165.0</ele><time>2026-04-18T07:57:31.982Z</time></trkpt><trkpt lat="39.58130361204264" lon="16.205784663351736"><ele>165.0</ele><time>2026-04-18T07:57:32.982Z</time></trkpt><trkpt lat="39.58134671865809" lon="16.205629376437038"><ele>165.0</ele><time>2026-04-18T07:57:33.982Z</time></trkpt><trkpt lat="39.58137075860219" lon="16.205483607648638"><ele>164.6</ele><time>2026-04-18T07:57:34.982Z</time></trkpt><trkpt lat="39.5813814150402" lon="16.205372519967636"><ele>164.2</ele><time>2026-04-18T07:57:35.982Z</time></trkpt><trkpt lat="39.58135186997381" lon="16.205263216936594"><ele>163.8</ele><time>2026-04-18T07:57:36.982Z</time></trkpt><trkpt lat="39.58128243564291" lon="16.205170139047777"><ele>163.4</ele><time>2026-04-18T07:57:37.982Z</time></trkpt><trkpt lat="39.58117418698241" lon="16.205114646724965"><ele>163.0</ele><time>2026-04-18T07:57:38.982Z</time></trkpt><trkpt lat="39.581043167726435" lon="16.205093802465154"><ele>163.0</ele><time>2026-04-18T07:57:39.982Z</time></trkpt><trkpt lat="39.58091655152294" lon="16.20507403177147"><ele>163.0</ele><time>2026-04-18T07:57:40.982Z</time></trkpt><trkpt lat="39.58081902009483" lon="16.205023979998412"><ele>163.0</ele><time>2026-04-18T07:57:41.982Z</time></trkpt><trkpt lat="39.58074080378838" lon="16.20493918088373"><ele>163.0</ele><time>2026-04-18T07:57:42.982Z</time></trkpt><trkpt lat="39.58068569738353" lon="16.204790371124542"><ele>165.75</ele><time>2026-04-18T07:57:43.982Z</time></trkpt><trkpt lat="39.58061745243379" lon="16.204633567449925"><ele>168.5</ele><time>2026-04-18T07:57:44.982Z</time></trkpt><trkpt lat="39.58057222274929" lon="16.204458083579574"><ele>171.25</ele><time>2026-04-18T07:57:45.982Z</time></trkpt><trkpt lat="39.58054081526706" lon="16.204302501649895"><ele>174.0</ele><time>2026-04-18T07:57:46.982Z</time></trkpt><trkpt lat="39.58055991533895" lon="16.204173833188147"><ele>174.0</ele><time>2026-04-18T07:57:47.982Z</time></trkpt><trkpt lat="39.58059704662365" lon="16.204064854620295"><ele>174.0</ele><time>2026-04-18T07:57:48.982Z</time></trkpt><trkpt lat="39.58067636981446" lon="16.203986077165773"><ele>174.0</ele><time>2026-04-18T07:57:49.982Z</time></trkpt><trkpt lat="39.580752320653744" lon="16.20387662422703"><ele>174.0</ele><time>2026-04-18T07:57:50.982Z</time></trkpt><trkpt lat="39.580825988104685" lon="16.203780638823826"><ele>174.0</ele><time>2026-04-18T07:57:51.982Z</time></trkpt><trkpt lat="39.580864405219316" lon="16.20368683622852"><ele>175.39999999999998</ele><time>2026-04-18T07:57:52.982Z</time></trkpt><trkpt lat="39.58087010144632" lon="16.20358631671702"><ele>176.8</ele><time>2026-04-18T07:57:53.982Z</time></trkpt><trkpt lat="39.58084478456535" lon="16.20346983522627"><ele>178.2</ele><time>2026-04-18T07:57:54.982Z</time></trkpt><trkpt lat="39.580778079212934" lon="16.203365241589957"><ele>179.60000000000002</ele><time>2026-04-18T07:57:55.982Z</time></trkpt><trkpt lat="39.5806765736871" lon="16.203282493239215"><ele>181.0</ele><time>2026-04-18T07:57:56.982Z</time></trkpt><trkpt lat="39.58055930372782" lon="16.20320827368039"><ele>181.0</ele><time>2026-04-18T07:57:57.982Z</time></trkpt><trkpt lat="39.580434256553005" lon="16.203159540741506"><ele>181.0</ele><time>2026-04-18T07:57:58.982Z</time></trkpt><trkpt lat="39.580313671359264" lon="16.203142025983286"><ele>181.0</ele><time>2026-04-18T07:57:59.982Z</time></trkpt><trkpt lat="39.580201902982594" lon="16.203136039649596"><ele>181.0</ele><time>2026-04-18T07:58:00.982Z</time></trkpt><trkpt lat="39.580113180505926" lon="16.203101914908714"><ele>181.0</ele><time>2026-04-18T07:58:01.982Z</time></trkpt><trkpt lat="39.580043926600936" lon="16.203000162068026"><ele>181.0</ele><time>2026-04-18T07:58:02.982Z</time></trkpt><trkpt lat="39.579988857773145" lon="16.20286553925176"><ele>181.0</ele><time>2026-04-18T07:58:03.982Z</time></trkpt><trkpt lat="39.57993156692628" lon="16.202708090806272"><ele>181.0</ele><time>2026-04-18T07:58:04.982Z</time></trkpt><trkpt lat="39.57985970306111" lon="16.202558056094762"><ele>181.0</ele><time>2026-04-18T07:58:05.983Z</time></trkpt><trkpt lat="39.57978651307637" lon="16.20241235700039"><ele>181.0</ele><time>2026-04-18T07:58:06.983Z</time></trkpt><trkpt lat="39.57974439616085" lon="16.20227273834373"><ele>181.0</ele><time>2026-04-18T07:58:07.983Z</time></trkpt><trkpt lat="39.57971012870304" lon="16.202130648064156"><ele>181.0</ele><time>2026-04-18T07:58:08.983Z</time></trkpt><trkpt lat="39.57970877693715" lon="16.201962261113348"><ele>181.0</ele><time>2026-04-18T07:58:09.983Z</time></trkpt><trkpt lat="39.57970813238603" lon="16.201764098904132"><ele>181.0</ele><time>2026-04-18T07:58:10.983Z</time></trkpt><trkpt lat="39.579687620513084" lon="16.20157029458922"><ele>181.0</ele><time>2026-04-18T07:58:11.983Z</time></trkpt><trkpt lat="39.579661535045474" lon="16.201395286630913"><ele>181.0</ele><time>2026-04-18T07:58:12.983Z</time></trkpt><trkpt lat="39.57962042917141" lon="16.201216738999126"><ele>181.0</ele><time>2026-04-18T07:58:13.983Z</time></trkpt><trkpt lat="39.579584101946644" lon="16.2010280375564"><ele>181.0</ele><time>2026-04-18T07:58:14.983Z</time></trkpt><trkpt lat="39.5795569403002" lon="16.200840503528525"><ele>181.0</ele><time>2026-04-18T07:58:15.983Z</time></trkpt><trkpt lat="39.57952833592042" lon="16.20065345834411"><ele>181.0</ele><time>2026-04-18T07:58:16.983Z</time></trkpt><trkpt lat="39.57949645644691" lon="16.20045871338059"><ele>182.75</ele><time>2026-04-18T07:58:17.983Z</time></trkpt><trkpt lat="39.579494420330064" lon="16.20027418416547"><ele>184.5</ele><time>2026-04-18T07:58:18.983Z</time></trkpt><trkpt lat="39.57950148460121" lon="16.200099741686973"><ele>186.25</ele><time>2026-04-18T07:58:19.982Z</time></trkpt><trkpt lat="39.57950664642025" lon="16.199935716125044"><ele>188.0</ele><time>2026-04-18T07:58:20.982Z</time></trkpt><trkpt lat="39.57949044438909" lon="16.199781514576344"><ele>188.0</ele><time>2026-04-18T07:58:21.982Z</time></trkpt><trkpt lat="39.57946142395432" lon="16.199636378854034"><ele>188.0</ele><time>2026-04-18T07:58:22.982Z</time></trkpt><trkpt lat="39.57941315969055" lon="16.199506005706674"><ele>188.0</ele><time>2026-04-18T07:58:23.982Z</time></trkpt><trkpt lat="39.57935386863704" lon="16.19937914044817"><ele>188.0</ele><time>2026-04-18T07:58:24.982Z</time></trkpt><trkpt lat="39.57928352884975" lon="16.19925606799766"><ele>188.0</ele><time>2026-04-18T07:58:25.982Z</time></trkpt><trkpt lat="39.57919607730638" lon="16.19913636795415"><ele>188.0</ele><time>2026-04-18T07:58:26.982Z</time></trkpt><trkpt lat="39.579100913205075" lon="16.199035875860865"><ele>188.0</ele><time>2026-04-18T07:58:27.982Z</time></trkpt><trkpt lat="39.579003865229865" lon="16.198959024367866"><ele>188.0</ele><time>2026-04-18T07:58:28.982Z</time></trkpt><trkpt lat="39.57890658248795" lon="16.198895764938168"><ele>187.60000000000002</ele><time>2026-04-18T07:58:29.982Z</time></trkpt><trkpt lat="39.57881643541808" lon="16.198837873307582"><ele>187.20000000000002</ele><time>2026-04-18T07:58:30.982Z</time></trkpt><trkpt lat="39.57873563877408" lon="16.198772160678033"><ele>186.8</ele><time>2026-04-18T07:58:31.982Z</time></trkpt><trkpt lat="39.57868931492579" lon="16.198669222600138"><ele>186.4</ele><time>2026-04-18T07:58:32.982Z</time></trkpt><trkpt lat="39.578669103912745" lon="16.198557929284345"><ele>186.0</ele><time>2026-04-18T07:58:33.982Z</time></trkpt><trkpt lat="39.57866759420468" lon="16.19843172834777"><ele>187.0</ele><time>2026-04-18T07:58:34.982Z</time></trkpt><trkpt lat="39.57865934001258" lon="16.198276363591244"><ele>188.0</ele><time>2026-04-18T07:58:35.982Z</time></trkpt><trkpt lat="39.578648721759194" lon="16.198124204667785"><ele>189.0</ele><time>2026-04-18T07:58:36.982Z</time></trkpt><trkpt lat="39.57862495052928" lon="16.197980478021957"><ele>190.0</ele><time>2026-04-18T07:58:37.982Z</time></trkpt><trkpt lat="39.57858641921774" lon="16.197879538283594"><ele>191.0</ele><time>2026-04-18T07:58:38.982Z</time></trkpt><trkpt lat="39.57856958990419" lon="16.19776753615266"><ele>191.0</ele><time>2026-04-18T07:58:39.982Z</time></trkpt><trkpt lat="39.57852135048501" lon="16.197583017620616"><ele>191.0</ele><time>2026-04-18T07:58:40.982Z</time></trkpt><trkpt lat="39.578498218013124" lon="16.197421165271976"><ele>191.0</ele><time>2026-04-18T07:58:41.982Z</time></trkpt><trkpt lat="39.57844794514503" lon="16.197259615837634"><ele>191.0</ele><time>2026-04-18T07:58:42.982Z</time></trkpt><trkpt lat="39.578425108485135" lon="16.19709320863468"><ele>190.25</ele><time>2026-04-18T07:58:43.982Z</time></trkpt><trkpt lat="39.57841390840767" lon="16.196936164799684"><ele>189.5</ele><time>2026-04-18T07:58:44.982Z</time></trkpt><trkpt lat="39.57840254641157" lon="16.196778551919433"><ele>188.75</ele><time>2026-04-18T07:58:45.982Z</time></trkpt><trkpt lat="39.57842438455839" lon="16.196623347900857"><ele>188.0</ele><time>2026-04-18T07:58:46.982Z</time></trkpt><trkpt lat="39.5784316737979" lon="16.19648782844875"><ele>186.60000000000002</ele><time>2026-04-18T07:58:47.982Z</time></trkpt><trkpt lat="39.57843857862493" lon="16.19635708277076"><ele>185.20000000000002</ele><time>2026-04-18T07:58:48.982Z</time></trkpt><trkpt lat="39.57842568924425" lon="16.196231300997944"><ele>183.8</ele><time>2026-04-18T07:58:49.982Z</time></trkpt><trkpt lat="39.578410787225486" lon="16.196104506130613"><ele>182.4</ele><time>2026-04-18T07:58:50.982Z</time></trkpt><trkpt lat="39.578364113571574" lon="16.195967220676152"><ele>181.0</ele><time>2026-04-18T07:58:51.982Z</time></trkpt><trkpt lat="39.57828172518694" lon="16.195832162598997"><ele>181.0</ele><time>2026-04-18T07:58:52.982Z</time></trkpt><trkpt lat="39.578169114003735" lon="16.195689100886227"><ele>181.0</ele><time>2026-04-18T07:58:53.982Z</time></trkpt><trkpt lat="39.57806356160395" lon="16.195522485288482"><ele>181.0</ele><time>2026-04-18T07:58:54.982Z</time></trkpt><trkpt lat="39.577988008518176" lon="16.1953639816035"><ele>181.0</ele><time>2026-04-18T07:58:55.982Z</time></trkpt><trkpt lat="39.577945937874034" lon="16.19519596698021"><ele>181.0</ele><time>2026-04-18T07:58:56.982Z</time></trkpt><trkpt lat="39.57790940069141" lon="16.195057112599667"><ele>181.0</ele><time>2026-04-18T07:58:57.982Z</time></trkpt><trkpt lat="39.577901129576745" lon="16.194929775970127"><ele>181.0</ele><time>2026-04-18T07:58:58.982Z</time></trkpt><trkpt lat="39.57791387070395" lon="16.194772858493163"><ele>182.8</ele><time>2026-04-18T07:58:59.982Z</time></trkpt><trkpt lat="39.577959369770916" lon="16.194699654605028"><ele>184.60000000000002</ele><time>2026-04-18T07:59:00.982Z</time></trkpt><trkpt lat="39.578032803090316" lon="16.194607485754865"><ele>186.4</ele><time>2026-04-18T07:59:01.982Z</time></trkpt><trkpt lat="39.578133860498596" lon="16.194486799075026"><ele>188.2</ele><time>2026-04-18T07:59:02.982Z</time></trkpt><trkpt lat="39.578230993452955" lon="16.194373653924153"><ele>190.0</ele><time>2026-04-18T07:59:03.982Z</time></trkpt><trkpt lat="39.57831919112473" lon="16.194238520498985"><ele>190.0</ele><time>2026-04-18T07:59:04.982Z</time></trkpt><trkpt lat="39.57841318171635" lon="16.19410798896387"><ele>190.0</ele><time>2026-04-18T07:59:05.982Z</time></trkpt><trkpt lat="39.57851695743708" lon="16.193989818148054"><ele>190.0</ele><time>2026-04-18T07:59:06.982Z</time></trkpt><trkpt lat="39.57861125284842" lon="16.19383937660438"><ele>190.0</ele><time>2026-04-18T07:59:07.982Z</time></trkpt><trkpt lat="39.57869028815801" lon="16.1936710966004"><ele>189.75</ele><time>2026-04-18T07:59:08.982Z</time></trkpt><trkpt lat="39.57876935785897" lon="16.193526138517942"><ele>189.5</ele><time>2026-04-18T07:59:09.982Z</time></trkpt><trkpt lat="39.578842380980824" lon="16.193389951371298"><ele>189.25</ele><time>2026-04-18T07:59:10.982Z</time></trkpt><trkpt lat="39.57894228907196" lon="16.193266697879576"><ele>189.0</ele><time>2026-04-18T07:59:11.982Z</time></trkpt><trkpt lat="39.57904370149032" lon="16.193139305916677"><ele>188.5</ele><time>2026-04-18T07:59:12.982Z</time></trkpt><trkpt lat="39.57914964084794" lon="16.19302104778666"><ele>188.0</ele><time>2026-04-18T07:59:13.982Z</time></trkpt><trkpt lat="39.57925032439671" lon="16.192914694588353"><ele>187.5</ele><time>2026-04-18T07:59:14.982Z</time></trkpt><trkpt lat="39.5793578261008" lon="16.1928039969074"><ele>187.0</ele><time>2026-04-18T07:59:15.982Z</time></trkpt><trkpt lat="39.57947618287361" lon="16.192687399431588"><ele>186.75</ele><time>2026-04-18T07:59:16.982Z</time></trkpt><trkpt lat="39.57960570682213" lon="16.192584228235262"><ele>186.5</ele><time>2026-04-18T07:59:17.982Z</time></trkpt><trkpt lat="39.57973544977757" lon="16.192493338912698"><ele>186.25</ele><time>2026-04-18T07:59:18.982Z</time></trkpt><trkpt lat="39.57986784591432" lon="16.192401809747675"><ele>186.0</ele><time>2026-04-18T07:59:19.982Z</time></trkpt><trkpt lat="39.58000204218518" lon="16.19230852013565"><ele>185.0</ele><time>2026-04-18T07:59:20.982Z</time></trkpt><trkpt lat="39.58013567374502" lon="16.19221467092861"><ele>184.0</ele><time>2026-04-18T07:59:21.982Z</time></trkpt><trkpt lat="39.5802680175381" lon="16.19212247510297"><ele>183.0</ele><time>2026-04-18T07:59:22.982Z</time></trkpt><trkpt lat="39.58040329639402" lon="16.192032960579287"><ele>183.0</ele><time>2026-04-18T07:59:23.982Z</time></trkpt><trkpt lat="39.58053951399821" lon="16.19194072476774"><ele>183.0</ele><time>2026-04-18T07:59:24.982Z</time></trkpt><trkpt lat="39.58066233832024" lon="16.19184888961754"><ele>183.0</ele><time>2026-04-18T07:59:25.982Z</time></trkpt><trkpt lat="39.580777631685045" lon="16.191751451487825"><ele>183.0</ele><time>2026-04-18T07:59:26.982Z</time></trkpt><trkpt lat="39.580880137855935" lon="16.191659632066738"><ele>183.0</ele><time>2026-04-18T07:59:27.982Z</time></trkpt><trkpt lat="39.580973606512664" lon="16.191573775510456"><ele>183.0</ele><time>2026-04-18T07:59:28.982Z</time></trkpt><trkpt lat="39.58106585388628" lon="16.191486984366595"><ele>183.0</ele><time>2026-04-18T07:59:29.982Z</time></trkpt><trkpt lat="39.581149555044775" lon="16.19137795484332"><ele>183.0</ele><time>2026-04-18T07:59:30.982Z</time></trkpt><trkpt lat="39.5812200580435" lon="16.191253413645246"><ele>181.75</ele><time>2026-04-18T07:59:31.982Z</time></trkpt><trkpt lat="39.58128836304611" lon="16.191100598471706"><ele>180.5</ele><time>2026-04-18T07:59:32.982Z</time></trkpt><trkpt lat="39.58134914180545" lon="16.190934127761942"><ele>179.25</ele><time>2026-04-18T07:59:33.982Z</time></trkpt><trkpt lat="39.58137851951812" lon="16.190764371419252"><ele>178.0</ele><time>2026-04-18T07:59:34.982Z</time></trkpt><trkpt lat="39.581410732301826" lon="16.190588304889435"><ele>177.75</ele><time>2026-04-18T07:59:35.982Z</time></trkpt><trkpt lat="39.58142551596649" lon="16.19040234939164"><ele>177.5</ele><time>2026-04-18T07:59:36.982Z</time></trkpt><trkpt lat="39.581444672952834" lon="16.19022184052962"><ele>177.25</ele><time>2026-04-18T07:59:37.982Z</time></trkpt><trkpt lat="39.58143188827661" lon="16.190036179042036"><ele>177.0</ele><time>2026-04-18T07:59:38.982Z</time></trkpt><trkpt lat="39.581430064275665" lon="16.18985137807593"><ele>175.5</ele><time>2026-04-18T07:59:39.982Z</time></trkpt><trkpt lat="39.58142980273961" lon="16.189671146297403"><ele>174.0</ele><time>2026-04-18T07:59:40.982Z</time></trkpt><trkpt lat="39.581430332823054" lon="16.189488220005373"><ele>172.5</ele><time>2026-04-18T07:59:41.982Z</time></trkpt><trkpt lat="39.581431986020974" lon="16.18930893247383"><ele>171.0</ele><time>2026-04-18T07:59:42.982Z</time></trkpt><trkpt lat="39.58143748747629" lon="16.18913494178422"><ele>169.25</ele><time>2026-04-18T07:59:43.982Z</time></trkpt><trkpt lat="39.58144306225026" lon="16.18896156563551"><ele>167.5</ele><time>2026-04-18T07:59:44.982Z</time></trkpt><trkpt lat="39.581422645209024" lon="16.18879627595823"><ele>165.75</ele><time>2026-04-18T07:59:45.982Z</time></trkpt><trkpt lat="39.58140857284196" lon="16.18863537790536"><ele>164.0</ele><time>2026-04-18T07:59:46.982Z</time></trkpt><trkpt lat="39.58138735310589" lon="16.188492185162875"><ele>164.0</ele><time>2026-04-18T07:59:47.982Z</time></trkpt><trkpt lat="39.581371691844765" lon="16.188375681057725"><ele>164.0</ele><time>2026-04-18T07:59:48.982Z</time></trkpt><trkpt lat="39.581375654266" lon="16.188266918774616"><ele>164.0</ele><time>2026-04-18T07:59:49.982Z</time></trkpt><trkpt lat="39.5813727622628" lon="16.18816181359368"><ele>164.0</ele><time>2026-04-18T07:59:50.982Z</time></trkpt><trkpt lat="39.58138885714583" lon="16.188062850381304"><ele>164.0</ele><time>2026-04-18T07:59:51.982Z</time></trkpt><trkpt lat="39.58142390386605" lon="16.187971944205362"><ele>164.0</ele><time>2026-04-18T07:59:52.982Z</time></trkpt><trkpt lat="39.581508342042476" lon="16.187919208833268"><ele>161.6</ele><time>2026-04-18T07:59:53.982Z</time></trkpt><trkpt lat="39.58161211424206" lon="16.187902239589548"><ele>159.2</ele><time>2026-04-18T07:59:54.982Z</time></trkpt><trkpt lat="39.58171322149148" lon="16.18797948483772"><ele>156.79999999999998</ele><time>2026-04-18T07:59:55.982Z</time></trkpt><trkpt lat="39.58181894494674" lon="16.18800964875636"><ele>154.39999999999998</ele><time>2026-04-18T07:59:56.982Z</time></trkpt><trkpt lat="39.58192437477335" lon="16.188068217743137"><ele>152.0</ele><time>2026-04-18T07:59:57.982Z</time></trkpt><trkpt lat="39.58203742624793" lon="16.188103464084552"><ele>151.25</ele><time>2026-04-18T07:59:58.982Z</time></trkpt><trkpt lat="39.58216627106691" lon="16.188116107467287"><ele>150.5</ele><time>2026-04-18T07:59:59.981Z</time></trkpt><trkpt lat="39.58230888343747" lon="16.18811583155427"><ele>149.75</ele><time>2026-04-18T08:00:00.981Z</time></trkpt><trkpt lat="39.58245905352171" lon="16.18814392297801"><ele>149.0</ele><time>2026-04-18T08:00:01.981Z</time></trkpt><trkpt lat="39.582619924001676" lon="16.188135573749808"><ele>149.0</ele><time>2026-04-18T08:00:02.981Z</time></trkpt><trkpt lat="39.58276433501066" lon="16.188149195252702"><ele>149.0</ele><time>2026-04-18T08:00:03.981Z</time></trkpt><trkpt lat="39.5829065272479" lon="16.188163195380994"><ele>149.0</ele><time>2026-04-18T08:00:04.981Z</time></trkpt><trkpt lat="39.5830465357722" lon="16.18817653913237"><ele>149.0</ele><time>2026-04-18T08:00:05.981Z</time></trkpt><trkpt lat="39.58318392021788" lon="16.18819089886396"><ele>150.33333333333331</ele><time>2026-04-18T08:00:06.981Z</time></trkpt><trkpt lat="39.58333163709201" lon="16.1881938742638"><ele>151.66666666666666</ele><time>2026-04-18T08:00:07.981Z</time></trkpt><trkpt lat="39.58348526543003" lon="16.188201137013277"><ele>153.0</ele><time>2026-04-18T08:00:08.981Z</time></trkpt><trkpt lat="39.583647870951864" lon="16.18818716391708"><ele>150.0</ele><time>2026-04-18T08:00:09.981Z</time></trkpt><trkpt lat="39.5838062961766" lon="16.18817118009052"><ele>147.0</ele><time>2026-04-18T08:00:10.981Z</time></trkpt><trkpt lat="39.583961352510585" lon="16.188155536153705"><ele>144.0</ele><time>2026-04-18T08:00:11.982Z</time></trkpt><trkpt lat="39.58410465606822" lon="16.188121857464772"><ele>144.0</ele><time>2026-04-18T08:00:12.982Z</time></trkpt><trkpt lat="39.584248166904835" lon="16.188110141925417"><ele>144.0</ele><time>2026-04-18T08:00:13.982Z</time></trkpt><trkpt lat="39.58438483240233" lon="16.188085325727453"><ele>144.0</ele><time>2026-04-18T08:00:14.982Z</time></trkpt><trkpt lat="39.5845288372239" lon="16.188033639833048"><ele>144.0</ele><time>2026-04-18T08:00:15.982Z</time></trkpt><trkpt lat="39.58465795770404" lon="16.187937122271734"><ele>144.0</ele><time>2026-04-18T08:00:16.982Z</time></trkpt><trkpt lat="39.58477546793762" lon="16.187801942262062"><ele>144.0</ele><time>2026-04-18T08:00:17.982Z</time></trkpt><trkpt lat="39.58488299663751" lon="16.187642081524285"><ele>144.0</ele><time>2026-04-18T08:00:18.982Z</time></trkpt><trkpt lat="39.584993394232654" lon="16.187508861764343"><ele>144.0</ele><time>2026-04-18T08:00:19.982Z</time></trkpt><trkpt lat="39.585084672195315" lon="16.187370480991067"><ele>144.0</ele><time>2026-04-18T08:00:20.982Z</time></trkpt><trkpt lat="39.585172776081926" lon="16.18723691218512"><ele>144.0</ele><time>2026-04-18T08:00:21.982Z</time></trkpt><trkpt lat="39.58526027370715" lon="16.187104262531594"><ele>144.0</ele><time>2026-04-18T08:00:22.982Z</time></trkpt><trkpt lat="39.585350553714676" lon="16.18696783268099"><ele>143.75</ele><time>2026-04-18T08:00:23.982Z</time></trkpt><trkpt lat="39.585438677011986" lon="16.186825949907256"><ele>143.5</ele><time>2026-04-18T08:00:24.982Z</time></trkpt><trkpt lat="39.58549900931434" lon="16.186659781437346"><ele>143.25</ele><time>2026-04-18T08:00:25.982Z</time></trkpt><trkpt lat="39.585550663574686" lon="16.18649601528609"><ele>143.0</ele><time>2026-04-18T08:00:26.982Z</time></trkpt><trkpt lat="39.585584629377074" lon="16.186310466669287"><ele>143.0</ele><time>2026-04-18T08:00:27.982Z</time></trkpt><trkpt lat="39.585603417583286" lon="16.186133591852357"><ele>143.0</ele><time>2026-04-18T08:00:28.982Z</time></trkpt><trkpt lat="39.58563699980878" lon="16.185972922630754"><ele>143.0</ele><time>2026-04-18T08:00:29.982Z</time></trkpt><trkpt lat="39.58566336722997" lon="16.185802292427304"><ele>143.0</ele><time>2026-04-18T08:00:30.982Z</time></trkpt><trkpt lat="39.58567321803093" lon="16.185635354265585"><ele>143.20000000000002</ele><time>2026-04-18T08:00:31.982Z</time></trkpt><trkpt lat="39.585698436290734" lon="16.18548043941496"><ele>143.4</ele><time>2026-04-18T08:00:32.982Z</time></trkpt><trkpt lat="39.58572004716435" lon="16.185338487444636"><ele>143.60000000000002</ele><time>2026-04-18T08:00:33.982Z</time></trkpt><trkpt lat="39.58574183181366" lon="16.185206793086074"><ele>143.8</ele><time>2026-04-18T08:00:34.982Z</time></trkpt><trkpt lat="39.585761375918466" lon="16.185085952584146"><ele>144.0</ele><time>2026-04-18T08:00:35.982Z</time></trkpt><trkpt lat="39.585794005408296" lon="16.184995811764832"><ele>144.0</ele><time>2026-04-18T08:00:36.982Z</time></trkpt><trkpt lat="39.58580911516895" lon="16.18490975096421"><ele>144.0</ele><time>2026-04-18T08:00:37.982Z</time></trkpt><trkpt lat="39.58585346412054" lon="16.184792687789088"><ele>144.0</ele><time>2026-04-18T08:00:39.982Z</time></trkpt><trkpt lat="39.58598048662839" lon="16.18482273017571"><ele>144.0</ele><time>2026-04-18T08:00:42.982Z</time></trkpt><trkpt lat="39.586046671376906" lon="16.184898960339826"><ele>144.0</ele><time>2026-04-18T08:00:43.982Z</time></trkpt><trkpt lat="39.586128463970574" lon="16.184964558912025"><ele>143.8</ele><time>2026-04-18T08:00:44.982Z</time></trkpt><trkpt lat="39.586196661890654" lon="16.18504259705445"><ele>143.60000000000002</ele><time>2026-04-18T08:00:45.982Z</time></trkpt><trkpt lat="39.58625515380695" lon="16.18511112983357"><ele>143.4</ele><time>2026-04-18T08:00:46.982Z</time></trkpt><trkpt lat="39.58632151385158" lon="16.18518356888961"><ele>143.20000000000002</ele><time>2026-04-18T08:00:47.982Z</time></trkpt><trkpt lat="39.5863964747779" lon="16.18527005607918"><ele>143.0</ele><time>2026-04-18T08:00:48.982Z</time></trkpt><trkpt lat="39.58648887641216" lon="16.185373534335028"><ele>143.0</ele><time>2026-04-18T08:00:49.982Z</time></trkpt><trkpt lat="39.58658994039805" lon="16.185487037555045"><ele>143.0</ele><time>2026-04-18T08:00:50.982Z</time></trkpt><trkpt lat="39.58669950229169" lon="16.185615729763175"><ele>143.0</ele><time>2026-04-18T08:00:51.982Z</time></trkpt><trkpt lat="39.586824662107645" lon="16.185765345181366"><ele>142.66666666666666</ele><time>2026-04-18T08:00:52.982Z</time></trkpt><trkpt lat="39.58694669047681" lon="16.185907893001"><ele>142.33333333333334</ele><time>2026-04-18T08:00:53.982Z</time></trkpt><trkpt lat="39.5870772585326" lon="16.186054517202322"><ele>142.0</ele><time>2026-04-18T08:00:54.982Z</time></trkpt><trkpt lat="39.587211692280356" lon="16.186208130960097"><ele>141.33333333333334</ele><time>2026-04-18T08:00:55.982Z</time></trkpt><trkpt lat="39.58735178417632" lon="16.186365539437542"><ele>140.66666666666666</ele><time>2026-04-18T08:00:56.982Z</time></trkpt><trkpt lat="39.587493415352235" lon="16.186525887069614"><ele>140.0</ele><time>2026-04-18T08:00:57.982Z</time></trkpt><trkpt lat="39.58763334231691" lon="16.186684205537727"><ele>140.0</ele><time>2026-04-18T08:00:58.982Z</time></trkpt><trkpt lat="39.58777522122171" lon="16.186846358370538"><ele>140.0</ele><time>2026-04-18T08:00:59.982Z</time></trkpt><trkpt lat="39.58791382562975" lon="16.187000160920878"><ele>140.0</ele><time>2026-04-18T08:01:00.982Z</time></trkpt><trkpt lat="39.58805440514196" lon="16.187155627642426"><ele>139.66666666666666</ele><time>2026-04-18T08:01:01.982Z</time></trkpt><trkpt lat="39.58819430721566" lon="16.18730915350529"><ele>139.33333333333334</ele><time>2026-04-18T08:01:02.982Z</time></trkpt><trkpt lat="39.58833053110653" lon="16.187462882551873"><ele>139.0</ele><time>2026-04-18T08:01:03.982Z</time></trkpt><trkpt lat="39.588466695295686" lon="16.18761352825645"><ele>139.0</ele><time>2026-04-18T08:01:04.982Z</time></trkpt><trkpt lat="39.58860720052764" lon="16.187770517418468"><ele>139.0</ele><time>2026-04-18T08:01:05.982Z</time></trkpt><trkpt lat="39.588751922384574" lon="16.187933311823773"><ele>139.0</ele><time>2026-04-18T08:01:06.982Z</time></trkpt><trkpt lat="39.58889984374997" lon="16.188098267256244"><ele>138.66666666666669</ele><time>2026-04-18T08:01:07.982Z</time></trkpt><trkpt lat="39.589052884844676" lon="16.1882642312498"><ele>138.33333333333334</ele><time>2026-04-18T08:01:08.982Z</time></trkpt><trkpt lat="39.589199074763904" lon="16.188421834710958"><ele>138.0</ele><time>2026-04-18T08:01:09.982Z</time></trkpt><trkpt lat="39.58934596939503" lon="16.1885817906558"><ele>138.0</ele><time>2026-04-18T08:01:10.982Z</time></trkpt><trkpt lat="39.58949061548501" lon="16.188746863331687"><ele>138.0</ele><time>2026-04-18T08:01:11.982Z</time></trkpt><trkpt lat="39.589636668094236" lon="16.18891166342217"><ele>138.0</ele><time>2026-04-18T08:01:12.981Z</time></trkpt><trkpt lat="39.58977896642344" lon="16.189071049239338"><ele>137.33333333333334</ele><time>2026-04-18T08:01:13.981Z</time></trkpt><trkpt lat="39.58992804653544" lon="16.189241718526997"><ele>136.66666666666669</ele><time>2026-04-18T08:01:14.981Z</time></trkpt><trkpt lat="39.59006947121781" lon="16.189404587892916"><ele>136.0</ele><time>2026-04-18T08:01:15.981Z</time></trkpt><trkpt lat="39.59021393853771" lon="16.189565880784595"><ele>135.66666666666669</ele><time>2026-04-18T08:01:16.981Z</time></trkpt><trkpt lat="39.590358465481074" lon="16.189726755167086"><ele>135.33333333333334</ele><time>2026-04-18T08:01:17.981Z</time></trkpt><trkpt lat="39.59050356327904" lon="16.189888210114155"><ele>135.0</ele><time>2026-04-18T08:01:18.981Z</time></trkpt><trkpt lat="39.59065155624359" lon="16.190051397305602"><ele>135.0</ele><time>2026-04-18T08:01:19.981Z</time></trkpt><trkpt lat="39.59079789489251" lon="16.190211336676914"><ele>135.0</ele><time>2026-04-18T08:01:20.981Z</time></trkpt><trkpt lat="39.59094480474821" lon="16.190373777132187"><ele>135.0</ele><time>2026-04-18T08:01:21.981Z</time></trkpt><trkpt lat="39.591087839762295" lon="16.1905371401938"><ele>135.0</ele><time>2026-04-18T08:01:22.981Z</time></trkpt><trkpt lat="39.59122788136722" lon="16.19070001457124"><ele>135.0</ele><time>2026-04-18T08:01:23.981Z</time></trkpt><trkpt lat="39.59137359825084" lon="16.190863361695186"><ele>135.0</ele><time>2026-04-18T08:01:24.981Z</time></trkpt><trkpt lat="39.59152255267447" lon="16.191027998672322"><ele>135.0</ele><time>2026-04-18T08:01:25.981Z</time></trkpt><trkpt lat="39.591668606231465" lon="16.191191780409515"><ele>135.0</ele><time>2026-04-18T08:01:26.981Z</time></trkpt><trkpt lat="39.591813498122605" lon="16.191355772633646"><ele>135.0</ele><time>2026-04-18T08:01:27.981Z</time></trkpt><trkpt lat="39.5919588251405" lon="16.1915187856323"><ele>135.0</ele><time>2026-04-18T08:01:28.981Z</time></trkpt><trkpt lat="39.59210382019648" lon="16.191679950790583"><ele>135.0</ele><time>2026-04-18T08:01:29.981Z</time></trkpt><trkpt lat="39.59224985149154" lon="16.191840629077817"><ele>135.0</ele><time>2026-04-18T08:01:30.981Z</time></trkpt><trkpt lat="39.59239550936006" lon="16.192001653326496"><ele>135.0</ele><time>2026-04-18T08:01:31.981Z</time></trkpt><trkpt lat="39.59254135182989" lon="16.192163176319223"><ele>135.0</ele><time>2026-04-18T08:01:32.981Z</time></trkpt><trkpt lat="39.59268435162407" lon="16.19232555723053"><ele>135.0</ele><time>2026-04-18T08:01:33.981Z</time></trkpt><trkpt lat="39.59282949504447" lon="16.192487287671536"><ele>134.33333333333334</ele><time>2026-04-18T08:01:34.981Z</time></trkpt><trkpt lat="39.59297682520988" lon="16.192648797110877"><ele>133.66666666666669</ele><time>2026-04-18T08:01:35.981Z</time></trkpt><trkpt lat="39.59312293778352" lon="16.192807702791953"><ele>133.0</ele><time>2026-04-18T08:01:36.981Z</time></trkpt><trkpt lat="39.593267175956804" lon="16.192970832687116"><ele>133.0</ele><time>2026-04-18T08:01:37.981Z</time></trkpt><trkpt lat="39.593411538822174" lon="16.193137525403557"><ele>133.0</ele><time>2026-04-18T08:01:38.981Z</time></trkpt><trkpt lat="39.59355586276912" lon="16.1932991907646"><ele>133.0</ele><time>2026-04-18T08:01:39.981Z</time></trkpt><trkpt lat="39.59370334826569" lon="16.193462400432196"><ele>132.66666666666669</ele><time>2026-04-18T08:01:40.981Z</time></trkpt><trkpt lat="39.593847964306015" lon="16.19362264085457"><ele>132.33333333333334</ele><time>2026-04-18T08:01:41.981Z</time></trkpt><trkpt lat="39.59399381534004" lon="16.193786142881205"><ele>132.0</ele><time>2026-04-18T08:01:42.981Z</time></trkpt><trkpt lat="39.59413943706804" lon="16.19394876623689"><ele>132.0</ele><time>2026-04-18T08:01:43.981Z</time></trkpt><trkpt lat="39.594284783172974" lon="16.194110725607832"><ele>132.0</ele><time>2026-04-18T08:01:44.981Z</time></trkpt><trkpt lat="39.59443124397481" lon="16.194275500402448"><ele>132.0</ele><time>2026-04-18T08:01:45.981Z</time></trkpt><trkpt lat="39.59457591518283" lon="16.194431393093804"><ele>132.0</ele><time>2026-04-18T08:01:46.981Z</time></trkpt><trkpt lat="39.594712351036684" lon="16.194582199562202"><ele>132.0</ele><time>2026-04-18T08:01:47.981Z</time></trkpt><trkpt lat="39.59484390602364" lon="16.194730972596886"><ele>132.0</ele><time>2026-04-18T08:01:48.981Z</time></trkpt><trkpt lat="39.59497780570626" lon="16.194884937566293"><ele>131.66666666666666</ele><time>2026-04-18T08:01:49.981Z</time></trkpt><trkpt lat="39.59511419496222" lon="16.195040889020216"><ele>131.33333333333331</ele><time>2026-04-18T08:01:50.981Z</time></trkpt><trkpt lat="39.595244928856594" lon="16.19518987081796"><ele>131.0</ele><time>2026-04-18T08:01:51.981Z</time></trkpt><trkpt lat="39.59537130616063" lon="16.19533026463054"><ele>130.66666666666666</ele><time>2026-04-18T08:01:52.981Z</time></trkpt><trkpt lat="39.595500490617006" lon="16.19547054093804"><ele>130.33333333333334</ele><time>2026-04-18T08:01:53.981Z</time></trkpt><trkpt lat="39.59562060299381" lon="16.195598867139537"><ele>130.0</ele><time>2026-04-18T08:01:54.981Z</time></trkpt><trkpt lat="39.595736138909764" lon="16.19572260005373"><ele>130.0</ele><time>2026-04-18T08:01:55.981Z</time></trkpt><trkpt lat="39.595845595133184" lon="16.19583644668776"><ele>130.0</ele><time>2026-04-18T08:01:56.981Z</time></trkpt><trkpt lat="39.59597103636986" lon="16.195989848910102"><ele>130.0</ele><time>2026-04-18T08:01:57.981Z</time></trkpt><trkpt lat="39.59608509058877" lon="16.196114368837986"><ele>129.5</ele><time>2026-04-18T08:01:58.981Z</time></trkpt><trkpt lat="39.59619938123467" lon="16.196242736662107"><ele>129.0</ele><time>2026-04-18T08:01:59.981Z</time></trkpt><trkpt lat="39.596305028338605" lon="16.196356476715874"><ele>128.5</ele><time>2026-04-18T08:02:00.981Z</time></trkpt><trkpt lat="39.59640413813012" lon="16.19645983109347"><ele>128.0</ele><time>2026-04-18T08:02:01.981Z</time></trkpt><trkpt lat="39.596503055223" lon="16.196561252270357"><ele>128.0</ele><time>2026-04-18T08:02:02.981Z</time></trkpt><trkpt lat="39.59660284798013" lon="16.196664349884692"><ele>128.0</ele><time>2026-04-18T08:02:03.981Z</time></trkpt><trkpt lat="39.59670156868935" lon="16.196765172431896"><ele>128.0</ele><time>2026-04-18T08:02:04.981Z</time></trkpt><trkpt lat="39.5968397999411" lon="16.196963080662567"><ele>128.0</ele><time>2026-04-18T08:02:05.981Z</time></trkpt><trkpt lat="39.5969498854164" lon="16.19707774396695"><ele>128.0</ele><time>2026-04-18T08:02:06.981Z</time></trkpt><trkpt lat="39.5970522799414" lon="16.197189711909008"><ele>128.0</ele><time>2026-04-18T08:02:07.981Z</time></trkpt><trkpt lat="39.597145386314295" lon="16.197300357331205"><ele>128.0</ele><time>2026-04-18T08:02:08.981Z</time></trkpt><trkpt lat="39.5972443589359" lon="16.197414849219932"><ele>128.0</ele><time>2026-04-18T08:02:09.981Z</time></trkpt><trkpt lat="39.59734924395283" lon="16.19753034118108"><ele>128.0</ele><time>2026-04-18T08:02:10.981Z</time></trkpt><trkpt lat="39.59745253998142" lon="16.197645368638828"><ele>128.0</ele><time>2026-04-18T08:02:11.981Z</time></trkpt><trkpt lat="39.597556089123074" lon="16.19776195881943"><ele>128.0</ele><time>2026-04-18T08:02:12.981Z</time></trkpt><trkpt lat="39.597665629965064" lon="16.197877481627884"><ele>128.0</ele><time>2026-04-18T08:02:13.981Z</time></trkpt><trkpt lat="39.59777033167682" lon="16.19799900499937"><ele>128.0</ele><time>2026-04-18T08:02:14.981Z</time></trkpt><trkpt lat="39.59786916316653" lon="16.198109550250642"><ele>128.0</ele><time>2026-04-18T08:02:15.981Z</time></trkpt><trkpt lat="39.59796073229848" lon="16.19821688585774"><ele>128.0</ele><time>2026-04-18T08:02:16.981Z</time></trkpt><trkpt lat="39.59805434870771" lon="16.198324347773287"><ele>127.25</ele><time>2026-04-18T08:02:17.982Z</time></trkpt><trkpt lat="39.59815629142291" lon="16.198433957789938"><ele>126.5</ele><time>2026-04-18T08:02:18.982Z</time></trkpt><trkpt lat="39.59824571566853" lon="16.198540373843443"><ele>125.75</ele><time>2026-04-18T08:02:19.982Z</time></trkpt><trkpt lat="39.59833425141174" lon="16.19864168930919"><ele>125.0</ele><time>2026-04-18T08:02:20.982Z</time></trkpt><trkpt lat="39.59842815434582" lon="16.198750542910876"><ele>125.0</ele><time>2026-04-18T08:02:21.982Z</time></trkpt><trkpt lat="39.59852364118589" lon="16.1988595695822"><ele>125.0</ele><time>2026-04-18T08:02:22.981Z</time></trkpt><trkpt lat="39.59862705855377" lon="16.198971429572435"><ele>125.0</ele><time>2026-04-18T08:02:23.981Z</time></trkpt><trkpt lat="39.59873231768417" lon="16.199084874925827"><ele>125.0</ele><time>2026-04-18T08:02:24.981Z</time></trkpt><trkpt lat="39.59886161309157" lon="16.199224977599453"><ele>124.66666666666666</ele><time>2026-04-18T08:02:25.981Z</time></trkpt><trkpt lat="39.59901121425697" lon="16.19937238858188"><ele>124.33333333333334</ele><time>2026-04-18T08:02:26.981Z</time></trkpt><trkpt lat="39.59918351216436" lon="16.199585009553473"><ele>124.0</ele><time>2026-04-18T08:02:27.981Z</time></trkpt><trkpt lat="39.59933302518916" lon="16.199752111952687"><ele>123.66666666666667</ele><time>2026-04-18T08:02:28.981Z</time></trkpt><trkpt lat="39.59948446021495" lon="16.199897000424134"><ele>123.33333333333334</ele><time>2026-04-18T08:02:29.981Z</time></trkpt><trkpt lat="39.59962241708865" lon="16.200070854677243"><ele>123.0</ele><time>2026-04-18T08:02:30.981Z</time></trkpt><trkpt lat="39.59977559167698" lon="16.200243378891827"><ele>123.0</ele><time>2026-04-18T08:02:31.981Z</time></trkpt><trkpt lat="39.59992880959953" lon="16.20040746339976"><ele>123.0</ele><time>2026-04-18T08:02:32.981Z</time></trkpt><trkpt lat="39.60009416802388" lon="16.200586078675915"><ele>123.0</ele><time>2026-04-18T08:02:33.981Z</time></trkpt><trkpt lat="39.60025594004068" lon="16.200765774352988"><ele>122.33333333333334</ele><time>2026-04-18T08:02:34.981Z</time></trkpt><trkpt lat="39.60041268163764" lon="16.200941892763346"><ele>121.66666666666667</ele><time>2026-04-18T08:02:35.981Z</time></trkpt><trkpt lat="39.60056334838358" lon="16.20111089093077"><ele>121.0</ele><time>2026-04-18T08:02:36.981Z</time></trkpt><trkpt lat="39.60070176962859" lon="16.201267226711366"><ele>121.0</ele><time>2026-04-18T08:02:37.981Z</time></trkpt><trkpt lat="39.60084428061282" lon="16.20142760765818"><ele>121.0</ele><time>2026-04-18T08:02:38.981Z</time></trkpt><trkpt lat="39.60098115031897" lon="16.201580230757386"><ele>121.0</ele><time>2026-04-18T08:02:39.981Z</time></trkpt><trkpt lat="39.60111507818868" lon="16.201729804306165"><ele>121.0</ele><time>2026-04-18T08:02:40.981Z</time></trkpt><trkpt lat="39.60124791383118" lon="16.20187727853405"><ele>121.0</ele><time>2026-04-18T08:02:41.981Z</time></trkpt><trkpt lat="39.60138423142267" lon="16.202031803741612"><ele>121.0</ele><time>2026-04-18T08:02:42.981Z</time></trkpt><trkpt lat="39.60151437371057" lon="16.202175966459336"><ele>121.0</ele><time>2026-04-18T08:02:43.981Z</time></trkpt><trkpt lat="39.60164722871816" lon="16.20232110559789"><ele>121.0</ele><time>2026-04-18T08:02:44.981Z</time></trkpt><trkpt lat="39.601771008603045" lon="16.202461850419766"><ele>121.0</ele><time>2026-04-18T08:02:45.981Z</time></trkpt><trkpt lat="39.60189119563474" lon="16.20259228518131"><ele>120.75</ele><time>2026-04-18T08:02:46.981Z</time></trkpt><trkpt lat="39.60199970663708" lon="16.20271390443739"><ele>120.5</ele><time>2026-04-18T08:02:47.981Z</time></trkpt><trkpt lat="39.60210097804821" lon="16.202830343947607"><ele>120.25</ele><time>2026-04-18T08:02:48.981Z</time></trkpt><trkpt lat="39.602199303090465" lon="16.202944558530103"><ele>120.0</ele><time>2026-04-18T08:02:49.981Z</time></trkpt><trkpt lat="39.6022830097132" lon="16.20303725210815"><ele>120.0</ele><time>2026-04-18T08:02:50.981Z</time></trkpt><trkpt lat="39.60235862400294" lon="16.203124753193013"><ele>120.0</ele><time>2026-04-18T08:02:51.981Z</time></trkpt><trkpt lat="39.60242899580923" lon="16.203203052802415"><ele>120.0</ele><time>2026-04-18T08:02:52.981Z</time></trkpt><trkpt lat="39.60249092271033" lon="16.20327183904573"><ele>120.0</ele><time>2026-04-18T08:02:53.981Z</time></trkpt><trkpt lat="39.60254872484326" lon="16.203335623706323"><ele>120.0</ele><time>2026-04-18T08:02:54.981Z</time></trkpt><trkpt lat="39.602600357581636" lon="16.203391834851033"><ele>120.0</ele><time>2026-04-18T08:02:55.981Z</time></trkpt><trkpt lat="39.602650710612465" lon="16.203448599765775"><ele>120.14285714285714</ele><time>2026-04-18T08:02:56.981Z</time></trkpt><trkpt lat="39.60269978124058" lon="16.203500174544974"><ele>120.28571428571428</ele><time>2026-04-18T08:02:57.981Z</time></trkpt><trkpt lat="39.60274892388044" lon="16.203551378638842"><ele>120.42857142857142</ele><time>2026-04-18T08:02:58.981Z</time></trkpt><trkpt lat="39.6027986252819" lon="16.203602472992216"><ele>120.57142857142857</ele><time>2026-04-18T08:02:59.981Z</time></trkpt><trkpt lat="39.602850370156794" lon="16.203658931490075"><ele>120.7142857142857</ele><time>2026-04-18T08:03:00.981Z</time></trkpt><trkpt lat="39.602902631819546" lon="16.20371507250954"><ele>120.85714285714285</ele><time>2026-04-18T08:03:01.981Z</time></trkpt><trkpt lat="39.60295964132372" lon="16.203768574465123"><ele>121.0</ele><time>2026-04-18T08:03:02.981Z</time></trkpt><trkpt lat="39.60302118331174" lon="16.20382917394011"><ele>120.66666666666667</ele><time>2026-04-18T08:03:03.981Z</time></trkpt><trkpt lat="39.60306906898601" lon="16.203907102531616"><ele>120.33333333333334</ele><time>2026-04-18T08:03:04.981Z</time></trkpt><trkpt lat="39.60313009522107" lon="16.203975779635783"><ele>120.0</ele><time>2026-04-18T08:03:05.981Z</time></trkpt><trkpt lat="39.603191189243276" lon="16.204044533031084"><ele>119.66666666666666</ele><time>2026-04-18T08:03:06.981Z</time></trkpt><trkpt lat="39.60324901244992" lon="16.204109604596585"><ele>119.33333333333333</ele><time>2026-04-18T08:03:07.981Z</time></trkpt><trkpt lat="39.6032995494129" lon="16.20416629771518"><ele>119.0</ele><time>2026-04-18T08:03:08.981Z</time></trkpt><trkpt lat="39.60335174733729" lon="16.20422492867764"><ele>118.99999999999999</ele><time>2026-04-18T08:03:09.981Z</time></trkpt><trkpt lat="39.60341167818865" lon="16.20428088226282"><ele>119.0</ele><time>2026-04-18T08:03:10.981Z</time></trkpt><trkpt lat="39.603467982443306" lon="16.204356315036698"><ele>119.0</ele><time>2026-04-18T08:03:11.981Z</time></trkpt><trkpt lat="39.60352744001089" lon="16.204426430646073"><ele>119.0</ele><time>2026-04-18T08:03:12.981Z</time></trkpt><trkpt lat="39.60359162671523" lon="16.20449612483145"><ele>118.99999999999999</ele><time>2026-04-18T08:03:13.981Z</time></trkpt><trkpt lat="39.60365742695669" lon="16.204566467286387"><ele>119.0</ele><time>2026-04-18T08:03:14.981Z</time></trkpt><trkpt lat="39.603716864644234" lon="16.20463404013118"><ele>119.0</ele><time>2026-04-18T08:03:15.981Z</time></trkpt><trkpt lat="39.60377072211383" lon="16.20469770433527"><ele>119.0</ele><time>2026-04-18T08:03:16.981Z</time></trkpt><trkpt lat="39.60382209542027" lon="16.20475491471387"><ele>119.0</ele><time>2026-04-18T08:03:17.981Z</time></trkpt><trkpt lat="39.60387688136069" lon="16.204816860006652"><ele>119.0</ele><time>2026-04-18T08:03:18.981Z</time></trkpt><trkpt lat="39.60393438287964" lon="16.204881052051896"><ele>119.0</ele><time>2026-04-18T08:03:19.981Z</time></trkpt><trkpt lat="39.6039908033623" lon="16.204943305178816"><ele>119.0</ele><time>2026-04-18T08:03:20.981Z</time></trkpt><trkpt lat="39.60404964117183" lon="16.205012072780583"><ele>119.0</ele><time>2026-04-18T08:03:21.981Z</time></trkpt><trkpt lat="39.60411425929596" lon="16.2050830138541"><ele>118.99999999999999</ele><time>2026-04-18T08:03:22.981Z</time></trkpt><trkpt lat="39.604178819133445" lon="16.205153300897614"><ele>119.0</ele><time>2026-04-18T08:03:23.981Z</time></trkpt><trkpt lat="39.60424424149232" lon="16.205226167264847"><ele>119.0</ele><time>2026-04-18T08:03:24.981Z</time></trkpt><trkpt lat="39.604312093113435" lon="16.20530075423986"><ele>119.0</ele><time>2026-04-18T08:03:25.981Z</time></trkpt><trkpt lat="39.6043817127341" lon="16.205379940576208"><ele>118.99999999999999</ele><time>2026-04-18T08:03:26.981Z</time></trkpt><trkpt lat="39.60445556784391" lon="16.205461139780056"><ele>119.0</ele><time>2026-04-18T08:03:27.981Z</time></trkpt><trkpt lat="39.60452855215298" lon="16.205545015642944"><ele>118.99999999999999</ele><time>2026-04-18T08:03:28.981Z</time></trkpt><trkpt lat="39.6045932405932" lon="16.205619851750036"><ele>119.0</ele><time>2026-04-18T08:03:29.981Z</time></trkpt><trkpt lat="39.60465755381999" lon="16.20569403812674"><ele>119.0</ele><time>2026-04-18T08:03:30.981Z</time></trkpt><trkpt lat="39.60472258276497" lon="16.205767931584834"><ele>119.0</ele><time>2026-04-18T08:03:31.981Z</time></trkpt><trkpt lat="39.604794370664045" lon="16.205844714730585"><ele>118.99999999999999</ele><time>2026-04-18T08:03:32.981Z</time></trkpt><trkpt lat="39.60486926778196" lon="16.205925384520086"><ele>119.0</ele><time>2026-04-18T08:03:33.981Z</time></trkpt><trkpt lat="39.604946619776925" lon="16.206005422143452"><ele>119.16666666666666</ele><time>2026-04-18T08:03:34.981Z</time></trkpt><trkpt lat="39.605018638224045" lon="16.206086607458644"><ele>119.33333333333333</ele><time>2026-04-18T08:03:35.981Z</time></trkpt><trkpt lat="39.60508599520536" lon="16.206159279556474"><ele>119.5</ele><time>2026-04-18T08:03:36.981Z</time></trkpt><trkpt lat="39.60515158441049" lon="16.206226750727467"><ele>119.66666666666666</ele><time>2026-04-18T08:03:37.981Z</time></trkpt><trkpt lat="39.6052129365757" lon="16.206291777263186"><ele>119.83333333333333</ele><time>2026-04-18T08:03:38.981Z</time></trkpt><trkpt lat="39.60527783329767" lon="16.2063628767819"><ele>120.0</ele><time>2026-04-18T08:03:39.981Z</time></trkpt><trkpt lat="39.60533920796734" lon="16.206440224339804"><ele>120.0</ele><time>2026-04-18T08:03:40.981Z</time></trkpt><trkpt lat="39.605399026381974" lon="16.206527288507946"><ele>120.0</ele><time>2026-04-18T08:03:41.981Z</time></trkpt><trkpt lat="39.60545202110265" lon="16.20661610632889"><ele>120.0</ele><time>2026-04-18T08:03:42.981Z</time></trkpt><trkpt lat="39.605485819543986" lon="16.206694264597413"><ele>120.0</ele><time>2026-04-18T08:03:43.981Z</time></trkpt><trkpt lat="39.60552094281884" lon="16.206771253374264"><ele>120.0</ele><time>2026-04-18T08:03:44.981Z</time></trkpt><trkpt lat="39.605559703343886" lon="16.20683657972334"><ele>120.0</ele><time>2026-04-18T08:03:45.981Z</time></trkpt><trkpt lat="39.60566154331935" lon="16.206914486147564"><ele>120.0</ele><time>2026-04-18T08:03:47.981Z</time></trkpt><trkpt lat="39.60577074885259" lon="16.206923292061834"><ele>120.0</ele><time>2026-04-18T08:03:49.981Z</time></trkpt><trkpt lat="39.6057982863632" lon="16.20681434490994"><ele>120.0</ele><time>2026-04-18T08:03:50.981Z</time></trkpt><trkpt lat="39.60582222861951" lon="16.20671889605905"><ele>120.0</ele><time>2026-04-18T08:03:51.981Z</time></trkpt><trkpt lat="39.60584020749445" lon="16.206603978430966"><ele>120.0</ele><time>2026-04-18T08:03:52.981Z</time></trkpt><trkpt lat="39.60587182456904" lon="16.206489745131535"><ele>120.0</ele><time>2026-04-18T08:03:53.981Z</time></trkpt><trkpt lat="39.60592530040074" lon="16.206358456974247"><ele>120.0</ele><time>2026-04-18T08:03:54.981Z</time></trkpt><trkpt lat="39.6059964072831" lon="16.20621734745365"><ele>120.0</ele><time>2026-04-18T08:03:55.981Z</time></trkpt><trkpt lat="39.60607164251218" lon="16.206066518470127"><ele>120.0</ele><time>2026-04-18T08:03:56.981Z</time></trkpt><trkpt lat="39.60616573361266" lon="16.20593111383031"><ele>119.5</ele><time>2026-04-18T08:03:57.981Z</time></trkpt><trkpt lat="39.60624123759912" lon="16.20577511326746"><ele>119.0</ele><time>2026-04-18T08:03:58.981Z</time></trkpt><trkpt lat="39.60631854346566" lon="16.2056153900228"><ele>118.5</ele><time>2026-04-18T08:03:59.981Z</time></trkpt><trkpt lat="39.60639141523742" lon="16.205464413978056"><ele>118.0</ele><time>2026-04-18T08:04:00.981Z</time></trkpt><trkpt lat="39.60646470056957" lon="16.20531260253762"><ele>118.0</ele><time>2026-04-18T08:04:01.981Z</time></trkpt><trkpt lat="39.60653918061392" lon="16.205158316778405"><ele>118.0</ele><time>2026-04-18T08:04:02.981Z</time></trkpt><trkpt lat="39.60661429494654" lon="16.20500271634092"><ele>118.0</ele><time>2026-04-18T08:04:03.981Z</time></trkpt><trkpt lat="39.60668937931257" lon="16.204847178009768"><ele>118.0</ele><time>2026-04-18T08:04:04.981Z</time></trkpt><trkpt lat="39.60676676879954" lon="16.204687059582017"><ele>117.75</ele><time>2026-04-18T08:04:05.981Z</time></trkpt><trkpt lat="39.60684570506235" lon="16.204523743244607"><ele>117.5</ele><time>2026-04-18T08:04:06.981Z</time></trkpt><trkpt lat="39.606922168874" lon="16.204365542334134"><ele>117.25</ele><time>2026-04-18T08:04:07.981Z</time></trkpt><trkpt lat="39.60699975598457" lon="16.204205017220147"><ele>117.0</ele><time>2026-04-18T08:04:08.98Z</time></trkpt><trkpt lat="39.607079803379726" lon="16.204039401913295"><ele>117.0</ele><time>2026-04-18T08:04:09.98Z</time></trkpt><trkpt lat="39.60715803158193" lon="16.20387755049032"><ele>117.0</ele><time>2026-04-18T08:04:10.98Z</time></trkpt><trkpt lat="39.6072391767328" lon="16.20370966385139"><ele>117.0</ele><time>2026-04-18T08:04:11.98Z</time></trkpt><trkpt lat="39.60732168057471" lon="16.203538966249724"><ele>117.0</ele><time>2026-04-18T08:04:12.98Z</time></trkpt><trkpt lat="39.60740370496657" lon="16.20336925927568"><ele>117.0</ele><time>2026-04-18T08:04:13.98Z</time></trkpt><trkpt lat="39.607486052736846" lon="16.203196440154954"><ele>117.0</ele><time>2026-04-18T08:04:14.98Z</time></trkpt><trkpt lat="39.60756780954704" lon="16.203019116531447"><ele>117.0</ele><time>2026-04-18T08:04:15.98Z</time></trkpt><trkpt lat="39.60763634052457" lon="16.20283102923545"><ele>117.0</ele><time>2026-04-18T08:04:16.98Z</time></trkpt><trkpt lat="39.60773598727164" lon="16.202661422342757"><ele>117.0</ele><time>2026-04-18T08:04:17.98Z</time></trkpt><trkpt lat="39.60782405462244" lon="16.202478719207434"><ele>116.33333333333334</ele><time>2026-04-18T08:04:18.98Z</time></trkpt><trkpt lat="39.60791096455194" lon="16.202298191683358"><ele>115.66666666666667</ele><time>2026-04-18T08:04:19.98Z</time></trkpt><trkpt lat="39.60799544492837" lon="16.202122939820594"><ele>115.0</ele><time>2026-04-18T08:04:20.98Z</time></trkpt><trkpt lat="39.60807962114803" lon="16.20194776273736"><ele>115.0</ele><time>2026-04-18T08:04:21.98Z</time></trkpt><trkpt lat="39.60816728834481" lon="16.201766156242893"><ele>115.0</ele><time>2026-04-18T08:04:22.98Z</time></trkpt><trkpt lat="39.60825822257212" lon="16.201578194193793"><ele>115.0</ele><time>2026-04-18T08:04:23.981Z</time></trkpt><trkpt lat="39.60834412651212" lon="16.201400881732006"><ele>115.33333333333334</ele><time>2026-04-18T08:04:24.981Z</time></trkpt><trkpt lat="39.608430553695996" lon="16.201222489370966"><ele>115.66666666666666</ele><time>2026-04-18T08:04:25.981Z</time></trkpt><trkpt lat="39.60851834015857" lon="16.201041291377244"><ele>116.0</ele><time>2026-04-18T08:04:26.981Z</time></trkpt><trkpt lat="39.6086103038566" lon="16.200851471205915"><ele>116.0</ele><time>2026-04-18T08:04:27.981Z</time></trkpt><trkpt lat="39.60869998430513" lon="16.20066636384526"><ele>116.0</ele><time>2026-04-18T08:04:28.981Z</time></trkpt><trkpt lat="39.608787483115535" lon="16.200485759520088"><ele>116.0</ele><time>2026-04-18T08:04:29.981Z</time></trkpt><trkpt lat="39.608880174395914" lon="16.200292737369423"><ele>116.0</ele><time>2026-04-18T08:04:30.981Z</time></trkpt><trkpt lat="39.60897096865388" lon="16.200103265086735"><ele>116.0</ele><time>2026-04-18T08:04:31.981Z</time></trkpt><trkpt lat="39.60904542059473" lon="16.199892677480378"><ele>116.0</ele><time>2026-04-18T08:04:32.981Z</time></trkpt><trkpt lat="39.60913783073072" lon="16.1996953917099"><ele>116.0</ele><time>2026-04-18T08:04:33.981Z</time></trkpt><trkpt lat="39.60923426673286" lon="16.199496817928754"><ele>116.0</ele><time>2026-04-18T08:04:34.981Z</time></trkpt><trkpt lat="39.60933089987877" lon="16.199297302444933"><ele>116.0</ele><time>2026-04-18T08:04:35.981Z</time></trkpt><trkpt lat="39.609448900779036" lon="16.19911603917364"><ele>116.0</ele><time>2026-04-18T08:04:36.981Z</time></trkpt><trkpt lat="39.60954766948302" lon="16.198912393026923"><ele>116.0</ele><time>2026-04-18T08:04:37.981Z</time></trkpt><trkpt lat="39.60964584549193" lon="16.19870826853541"><ele>116.0</ele><time>2026-04-18T08:04:38.981Z</time></trkpt><trkpt lat="39.60974849703637" lon="16.19849385925628"><ele>116.0</ele><time>2026-04-18T08:04:39.981Z</time></trkpt><trkpt lat="39.60985174025273" lon="16.19828049028781"><ele>116.0</ele><time>2026-04-18T08:04:40.981Z</time></trkpt><trkpt lat="39.60995236881705" lon="16.198073541316326"><ele>116.0</ele><time>2026-04-18T08:04:41.981Z</time></trkpt><trkpt lat="39.61005936756407" lon="16.197851366175872"><ele>116.33333333333333</ele><time>2026-04-18T08:04:42.981Z</time></trkpt><trkpt lat="39.61016639478252" lon="16.19762689314973"><ele>116.66666666666666</ele><time>2026-04-18T08:04:43.981Z</time></trkpt><trkpt lat="39.61027763740469" lon="16.19739448333826"><ele>117.0</ele><time>2026-04-18T08:04:44.981Z</time></trkpt><trkpt lat="39.61038800195752" lon="16.19716400045403"><ele>116.0</ele><time>2026-04-18T08:04:45.981Z</time></trkpt><trkpt lat="39.61048851559623" lon="16.19695424425515"><ele>115.0</ele><time>2026-04-18T08:04:46.981Z</time></trkpt><trkpt lat="39.61058282299735" lon="16.196760211056585"><ele>114.0</ele><time>2026-04-18T08:04:47.981Z</time></trkpt><trkpt lat="39.61067784251578" lon="16.196563960445243"><ele>115.0</ele><time>2026-04-18T08:04:48.981Z</time></trkpt><trkpt lat="39.610776648076396" lon="16.196359318786662"><ele>116.0</ele><time>2026-04-18T08:04:49.981Z</time></trkpt><trkpt lat="39.61087789078965" lon="16.196150078250298"><ele>117.0</ele><time>2026-04-18T08:04:50.981Z</time></trkpt><trkpt lat="39.61098161255573" lon="16.195935879912135"><ele>117.0</ele><time>2026-04-18T08:04:51.981Z</time></trkpt><trkpt lat="39.61108616366943" lon="16.19571996884404"><ele>117.0</ele><time>2026-04-18T08:04:52.981Z</time></trkpt><trkpt lat="39.611194587240114" lon="16.19549677530005"><ele>117.0</ele><time>2026-04-18T08:04:53.981Z</time></trkpt><trkpt lat="39.61130027147998" lon="16.19527588066978"><ele>117.0</ele><time>2026-04-18T08:04:54.981Z</time></trkpt><trkpt lat="39.611392342208866" lon="16.19504384985448"><ele>117.0</ele><time>2026-04-18T08:04:55.981Z</time></trkpt><trkpt lat="39.611501275928724" lon="16.194818901880254"><ele>117.0</ele><time>2026-04-18T08:04:56.981Z</time></trkpt><trkpt lat="39.61162454454449" lon="16.194606126112735"><ele>116.66666666666666</ele><time>2026-04-18T08:04:57.981Z</time></trkpt><trkpt lat="39.61173356413158" lon="16.194382302967465"><ele>116.33333333333333</ele><time>2026-04-18T08:04:58.981Z</time></trkpt><trkpt lat="39.61183509333689" lon="16.194170760005974"><ele>116.0</ele><time>2026-04-18T08:04:59.981Z</time></trkpt><trkpt lat="39.61193301004946" lon="16.193967104410234"><ele>115.33333333333333</ele><time>2026-04-18T08:05:00.981Z</time></trkpt><trkpt lat="39.61203358628502" lon="16.19375928240012"><ele>114.66666666666666</ele><time>2026-04-18T08:05:01.981Z</time></trkpt><trkpt lat="39.61213688952944" lon="16.193547321680906"><ele>114.0</ele><time>2026-04-18T08:05:02.981Z</time></trkpt><trkpt lat="39.612239548887615" lon="16.1933366820442"><ele>114.33333333333334</ele><time>2026-04-18T08:05:03.981Z</time></trkpt><trkpt lat="39.612340395887365" lon="16.19312776545106"><ele>114.66666666666667</ele><time>2026-04-18T08:05:04.981Z</time></trkpt><trkpt lat="39.61244222233366" lon="16.192916281039732"><ele>115.0</ele><time>2026-04-18T08:05:05.981Z</time></trkpt><trkpt lat="39.6125434686876" lon="16.19270600151713"><ele>115.0</ele><time>2026-04-18T08:05:06.981Z</time></trkpt><trkpt lat="39.61264431721492" lon="16.192496548213658"><ele>115.0</ele><time>2026-04-18T08:05:07.981Z</time></trkpt><trkpt lat="39.612747197308" lon="16.192282875475655"><ele>115.0</ele><time>2026-04-18T08:05:08.981Z</time></trkpt><trkpt lat="39.612849290810466" lon="16.192070807116647"><ele>115.33333333333334</ele><time>2026-04-18T08:05:09.981Z</time></trkpt><trkpt lat="39.61294997761189" lon="16.191861051502947"><ele>115.66666666666666</ele><time>2026-04-18T08:05:10.981Z</time></trkpt><trkpt lat="39.61305280391186" lon="16.191646838714664"><ele>116.0</ele><time>2026-04-18T08:05:11.981Z</time></trkpt><trkpt lat="39.61315354801301" lon="16.191437584792858"><ele>116.33333333333333</ele><time>2026-04-18T08:05:12.981Z</time></trkpt><trkpt lat="39.613255829804174" lon="16.191229234521206"><ele>116.66666666666666</ele><time>2026-04-18T08:05:13.981Z</time></trkpt><trkpt lat="39.61335885581458" lon="16.191019368358525"><ele>117.0</ele><time>2026-04-18T08:05:14.981Z</time></trkpt><trkpt lat="39.61346027275873" lon="16.190808285440525"><ele>117.33333333333334</ele><time>2026-04-18T08:05:15.981Z</time></trkpt><trkpt lat="39.613562578431015" lon="16.19059430914129"><ele>117.66666666666667</ele><time>2026-04-18T08:05:16.981Z</time></trkpt><trkpt lat="39.613663483054225" lon="16.19038466358393"><ele>118.0</ele><time>2026-04-18T08:05:17.981Z</time></trkpt><trkpt lat="39.61376605877864" lon="16.1901738300819"><ele>118.0</ele><time>2026-04-18T08:05:18.981Z</time></trkpt><trkpt lat="39.6138685533638" lon="16.18996316315486"><ele>118.0</ele><time>2026-04-18T08:05:19.981Z</time></trkpt><trkpt lat="39.613972182849515" lon="16.18975116508997"><ele>118.0</ele><time>2026-04-18T08:05:20.981Z</time></trkpt><trkpt lat="39.614075914969035" lon="16.189539449048336"><ele>118.33333333333334</ele><time>2026-04-18T08:05:21.981Z</time></trkpt><trkpt lat="39.61417911793525" lon="16.189328652458624"><ele>118.66666666666666</ele><time>2026-04-18T08:05:22.981Z</time></trkpt><trkpt lat="39.61428206176945" lon="16.189117265894446"><ele>119.0</ele><time>2026-04-18T08:05:23.981Z</time></trkpt><trkpt lat="39.61438253081812" lon="16.18891096112056"><ele>119.0</ele><time>2026-04-18T08:05:24.981Z</time></trkpt><trkpt lat="39.614486767880884" lon="16.188696919015293"><ele>119.0</ele><time>2026-04-18T08:05:25.981Z</time></trkpt><trkpt lat="39.614587124103046" lon="16.188490845787182"><ele>119.0</ele><time>2026-04-18T08:05:26.981Z</time></trkpt><trkpt lat="39.614691084982596" lon="16.188277370887597"><ele>119.0</ele><time>2026-04-18T08:05:27.981Z</time></trkpt><trkpt lat="39.614793017773636" lon="16.188068060364863"><ele>119.0</ele><time>2026-04-18T08:05:28.981Z</time></trkpt><trkpt lat="39.6148935734615" lon="16.187857601312153"><ele>119.0</ele><time>2026-04-18T08:05:29.981Z</time></trkpt><trkpt lat="39.6149851014412" lon="16.18766447514038"><ele>119.0</ele><time>2026-04-18T08:05:30.981Z</time></trkpt><trkpt lat="39.615073125066274" lon="16.187481657273068"><ele>119.0</ele><time>2026-04-18T08:05:31.98Z</time></trkpt><trkpt lat="39.61515921202119" lon="16.187307764444657"><ele>119.0</ele><time>2026-04-18T08:05:32.98Z</time></trkpt><trkpt lat="39.615242288051746" lon="16.1871435273994"><ele>118.66666666666666</ele><time>2026-04-18T08:05:33.98Z</time></trkpt><trkpt lat="39.61532208462427" lon="16.186981602730715"><ele>118.33333333333334</ele><time>2026-04-18T08:05:34.98Z</time></trkpt><trkpt lat="39.61539648285854" lon="16.18679952122717"><ele>118.0</ele><time>2026-04-18T08:05:35.98Z</time></trkpt><trkpt lat="39.615448914956495" lon="16.186611307744066"><ele>118.66666666666667</ele><time>2026-04-18T08:05:36.98Z</time></trkpt><trkpt lat="39.61545916339066" lon="16.18641669989091"><ele>119.33333333333334</ele><time>2026-04-18T08:05:37.98Z</time></trkpt><trkpt lat="39.61549175891257" lon="16.18621713782583"><ele>120.0</ele><time>2026-04-18T08:05:38.979Z</time></trkpt><trkpt lat="39.61550064518183" lon="16.186017911481844"><ele>120.0</ele><time>2026-04-18T08:05:39.979Z</time></trkpt><trkpt lat="39.615506325314136" lon="16.18583541440268"><ele>120.0</ele><time>2026-04-18T08:05:40.979Z</time></trkpt><trkpt lat="39.61551180267344" lon="16.185658463217592"><ele>120.0</ele><time>2026-04-18T08:05:41.979Z</time></trkpt><trkpt lat="39.61551738889104" lon="16.18547264152477"><ele>120.0</ele><time>2026-04-18T08:05:42.979Z</time></trkpt><trkpt lat="39.615523290857595" lon="16.18527631653092"><ele>120.33333333333334</ele><time>2026-04-18T08:05:43.979Z</time></trkpt><trkpt lat="39.615529260405076" lon="16.18507774361333"><ele>120.66666666666667</ele><time>2026-04-18T08:05:44.979Z</time></trkpt><trkpt lat="39.61553521489105" lon="16.184879669586167"><ele>121.0</ele><time>2026-04-18T08:05:45.979Z</time></trkpt><trkpt lat="39.61554396684169" lon="16.18467762367245"><ele>121.33333333333334</ele><time>2026-04-18T08:05:46.979Z</time></trkpt><trkpt lat="39.6155537880912" lon="16.184476879811545"><ele>121.66666666666666</ele><time>2026-04-18T08:05:47.979Z</time></trkpt><trkpt lat="39.61556436333076" lon="16.184274936607768"><ele>122.0</ele><time>2026-04-18T08:05:48.979Z</time></trkpt><trkpt lat="39.615575405513475" lon="16.184071856469664"><ele>122.33333333333333</ele><time>2026-04-18T08:05:49.979Z</time></trkpt><trkpt lat="39.615586559866024" lon="16.1838667133297"><ele>122.66666666666666</ele><time>2026-04-18T08:05:50.979Z</time></trkpt><trkpt lat="39.61557781100133" lon="16.183665181160904"><ele>123.0</ele><time>2026-04-18T08:05:51.979Z</time></trkpt><trkpt lat="39.61558655262027" lon="16.183489449298072"><ele>123.0</ele><time>2026-04-18T08:05:52.979Z</time></trkpt><trkpt lat="39.61559132132294" lon="16.183335228450627"><ele>123.00000000000001</ele><time>2026-04-18T08:05:53.979Z</time></trkpt><trkpt lat="39.61559728699802" lon="16.18320452474596"><ele>123.00000000000001</ele><time>2026-04-18T08:05:54.979Z</time></trkpt><trkpt lat="39.61560227781324" lon="16.183086293379795"><ele>123.0</ele><time>2026-04-18T08:05:55.979Z</time></trkpt><trkpt lat="39.615621628952084" lon="16.182971787166018"><ele>123.0</ele><time>2026-04-18T08:05:56.979Z</time></trkpt><trkpt lat="39.6156251498806" lon="16.182873329239474"><ele>123.5</ele><time>2026-04-18T08:05:57.979Z</time></trkpt><trkpt lat="39.6156301575937" lon="16.182765460389327"><ele>124.0</ele><time>2026-04-18T08:05:58.979Z</time></trkpt><trkpt lat="39.615634526151666" lon="16.182669707689612"><ele>124.5</ele><time>2026-04-18T08:05:59.979Z</time></trkpt><trkpt lat="39.615638020046056" lon="16.182575973680134"><ele>125.0</ele><time>2026-04-18T08:06:00.979Z</time></trkpt><trkpt lat="39.615412448407895" lon="16.182521930057373"><ele>125.0</ele><time>2026-04-18T08:06:01.979Z</time></trkpt><trkpt lat="39.61535273004841" lon="16.18243492470805"><ele>125.0</ele><time>2026-04-18T08:06:02.979Z</time></trkpt><trkpt lat="39.61530731942523" lon="16.18235107983673"><ele>125.0</ele><time>2026-04-18T08:06:03.979Z</time></trkpt><trkpt lat="39.6153232349995" lon="16.18221628839409"><ele>125.0</ele><time>2026-04-18T08:06:04.979Z</time></trkpt><trkpt lat="39.61530870378784" lon="16.182055474879107"><ele>125.0</ele><time>2026-04-18T08:06:05.979Z</time></trkpt><trkpt lat="39.615288874633436" lon="16.18186896570752"><ele>125.0</ele><time>2026-04-18T08:06:06.979Z</time></trkpt><trkpt lat="39.61528460787345" lon="16.181669268681087"><ele>125.0</ele><time>2026-04-18T08:06:07.979Z</time></trkpt><trkpt lat="39.6152806943993" lon="16.18146766367942"><ele>125.0</ele><time>2026-04-18T08:06:08.979Z</time></trkpt><trkpt lat="39.61528135793789" lon="16.181257576315442"><ele>125.5</ele><time>2026-04-18T08:06:09.979Z</time></trkpt><trkpt lat="39.6152859476087" lon="16.181058464808785"><ele>126.0</ele><time>2026-04-18T08:06:10.979Z</time></trkpt><trkpt lat="39.61529309154274" lon="16.18087967263567"><ele>126.5</ele><time>2026-04-18T08:06:11.979Z</time></trkpt><trkpt lat="39.615296420437005" lon="16.180694977484013"><ele>127.0</ele><time>2026-04-18T08:06:12.979Z</time></trkpt><trkpt lat="39.61529843000938" lon="16.180497050920525"><ele>127.33333333333334</ele><time>2026-04-18T08:06:13.979Z</time></trkpt><trkpt lat="39.61529534303779" lon="16.1802921467625"><ele>127.66666666666666</ele><time>2026-04-18T08:06:14.979Z</time></trkpt><trkpt lat="39.61527202732954" lon="16.18008243917133"><ele>128.0</ele><time>2026-04-18T08:06:15.979Z</time></trkpt><trkpt lat="39.61522602354361" lon="16.17987238481477"><ele>128.66666666666666</ele><time>2026-04-18T08:06:16.979Z</time></trkpt><trkpt lat="39.6151699702805" lon="16.17966210115425"><ele>129.33333333333334</ele><time>2026-04-18T08:06:17.979Z</time></trkpt><trkpt lat="39.6151176564582" lon="16.179465190651335"><ele>130.0</ele><time>2026-04-18T08:06:18.979Z</time></trkpt><trkpt lat="39.61506349996392" lon="16.179271006753034"><ele>130.0</ele><time>2026-04-18T08:06:19.979Z</time></trkpt><trkpt lat="39.61500033523716" lon="16.179079076988874"><ele>130.0</ele><time>2026-04-18T08:06:20.979Z</time></trkpt><trkpt lat="39.614919640613365" lon="16.178885672433434"><ele>130.0</ele><time>2026-04-18T08:06:21.979Z</time></trkpt><trkpt lat="39.61482712278929" lon="16.178700453932063"><ele>131.0</ele><time>2026-04-18T08:06:22.979Z</time></trkpt><trkpt lat="39.61472449756888" lon="16.17851732752767"><ele>132.0</ele><time>2026-04-18T08:06:23.979Z</time></trkpt><trkpt lat="39.614623620454275" lon="16.178340527175767"><ele>133.0</ele><time>2026-04-18T08:06:24.979Z</time></trkpt><trkpt lat="39.614522621202624" lon="16.178161440484047"><ele>133.66666666666669</ele><time>2026-04-18T08:06:25.979Z</time></trkpt><trkpt lat="39.6144310889251" lon="16.177995274279585"><ele>134.33333333333334</ele><time>2026-04-18T08:06:26.979Z</time></trkpt><trkpt lat="39.61434436787412" lon="16.17783752300018"><ele>135.0</ele><time>2026-04-18T08:06:27.979Z</time></trkpt><trkpt lat="39.61425272146658" lon="16.17767346264741"><ele>135.0</ele><time>2026-04-18T08:06:28.979Z</time></trkpt><trkpt lat="39.61415832225009" lon="16.177503393745237"><ele>135.0</ele><time>2026-04-18T08:06:29.98Z</time></trkpt><trkpt lat="39.61406177221096" lon="16.177329380567706"><ele>135.0</ele><time>2026-04-18T08:06:30.98Z</time></trkpt><trkpt lat="39.61396365796199" lon="16.177151386736327"><ele>136.0</ele><time>2026-04-18T08:06:31.98Z</time></trkpt><trkpt lat="39.613867662751936" lon="16.176972051791275"><ele>137.0</ele><time>2026-04-18T08:06:32.98Z</time></trkpt><trkpt lat="39.61377124341399" lon="16.176789133561872"><ele>138.0</ele><time>2026-04-18T08:06:33.98Z</time></trkpt><trkpt lat="39.613670275598594" lon="16.176608208470178"><ele>137.33333333333334</ele><time>2026-04-18T08:06:34.98Z</time></trkpt><trkpt lat="39.61356264515508" lon="16.176415579470202"><ele>136.66666666666669</ele><time>2026-04-18T08:06:35.98Z</time></trkpt><trkpt lat="39.61346467913936" lon="16.176214208678946"><ele>136.0</ele><time>2026-04-18T08:06:36.98Z</time></trkpt><trkpt lat="39.61337433096273" lon="16.175986673682463"><ele>136.0</ele><time>2026-04-18T08:06:37.98Z</time></trkpt><trkpt lat="39.613293734919765" lon="16.175750181935136"><ele>136.0</ele><time>2026-04-18T08:06:38.98Z</time></trkpt><trkpt lat="39.61321460984271" lon="16.175519667123904"><ele>136.0</ele><time>2026-04-18T08:06:39.98Z</time></trkpt><trkpt lat="39.61313595993141" lon="16.175288873916934"><ele>138.66666666666669</ele><time>2026-04-18T08:06:40.98Z</time></trkpt><trkpt lat="39.61305612490677" lon="16.175056306019062"><ele>141.33333333333334</ele><time>2026-04-18T08:06:41.98Z</time></trkpt><trkpt lat="39.61297541559906" lon="16.17482627274792"><ele>144.0</ele><time>2026-04-18T08:06:42.98Z</time></trkpt><trkpt lat="39.612900536146675" lon="16.174612139533785"><ele>143.33333333333334</ele><time>2026-04-18T08:06:43.98Z</time></trkpt><trkpt lat="39.61282594894563" lon="16.17439878547818"><ele>142.66666666666669</ele><time>2026-04-18T08:06:44.98Z</time></trkpt><trkpt lat="39.612754331293985" lon="16.174188272210365"><ele>142.0</ele><time>2026-04-18T08:06:45.98Z</time></trkpt><trkpt lat="39.612679991419306" lon="16.173977023642887"><ele>142.0</ele><time>2026-04-18T08:06:46.979Z</time></trkpt><trkpt lat="39.612609149146586" lon="16.17376562323467"><ele>142.0</ele><time>2026-04-18T08:06:47.979Z</time></trkpt><trkpt lat="39.612536823499696" lon="16.173553972721567"><ele>142.0</ele><time>2026-04-18T08:06:48.979Z</time></trkpt><trkpt lat="39.612462868083426" lon="16.17334329320319"><ele>145.0</ele><time>2026-04-18T08:06:49.979Z</time></trkpt><trkpt lat="39.61238807825263" lon="16.17313340431324"><ele>148.0</ele><time>2026-04-18T08:06:50.979Z</time></trkpt><trkpt lat="39.612317261447316" lon="16.172932042428176"><ele>151.0</ele><time>2026-04-18T08:06:51.979Z</time></trkpt><trkpt lat="39.61225610274512" lon="16.172736566792654"><ele>151.0</ele><time>2026-04-18T08:06:52.979Z</time></trkpt><trkpt lat="39.61221323397493" lon="16.172557576738434"><ele>151.0</ele><time>2026-04-18T08:06:53.979Z</time></trkpt><trkpt lat="39.612179778211505" lon="16.17236481761297"><ele>151.0</ele><time>2026-04-18T08:06:54.979Z</time></trkpt><trkpt lat="39.61218128323755" lon="16.172149051747127"><ele>152.66666666666669</ele><time>2026-04-18T08:06:55.979Z</time></trkpt><trkpt lat="39.61214706307918" lon="16.171924631059188"><ele>154.33333333333334</ele><time>2026-04-18T08:06:56.979Z</time></trkpt><trkpt lat="39.61213734518148" lon="16.171688196402567"><ele>156.0</ele><time>2026-04-18T08:06:57.979Z</time></trkpt><trkpt lat="39.61212714093452" lon="16.17146019724664"><ele>158.0</ele><time>2026-04-18T08:06:58.979Z</time></trkpt><trkpt lat="39.61211999605604" lon="16.171270634926806"><ele>160.0</ele><time>2026-04-18T08:06:59.979Z</time></trkpt><trkpt lat="39.61211382123165" lon="16.17111189090012"><ele>162.0</ele><time>2026-04-18T08:07:00.979Z</time></trkpt><trkpt lat="39.61210687318128" lon="16.170962876042513"><ele>164.0</ele><time>2026-04-18T08:07:01.979Z</time></trkpt><trkpt lat="39.61209734928125" lon="16.17081100128322"><ele>164.75</ele><time>2026-04-18T08:07:02.979Z</time></trkpt><trkpt lat="39.61210504469463" lon="16.170646567273266"><ele>165.5</ele><time>2026-04-18T08:07:03.979Z</time></trkpt><trkpt lat="39.61209600209666" lon="16.170472316884943"><ele>166.25</ele><time>2026-04-18T08:07:04.979Z</time></trkpt><trkpt lat="39.61205680961788" lon="16.170299299533838"><ele>167.0</ele><time>2026-04-18T08:07:05.979Z</time></trkpt><trkpt lat="39.61204948484869" lon="16.170116596566167"><ele>167.0</ele><time>2026-04-18T08:07:06.979Z</time></trkpt><trkpt lat="39.61204322090703" lon="16.169934757247216"><ele>167.0</ele><time>2026-04-18T08:07:07.979Z</time></trkpt><trkpt lat="39.612032998917904" lon="16.169746081008295"><ele>167.0</ele><time>2026-04-18T08:07:08.979Z</time></trkpt><trkpt lat="39.61204069020455" lon="16.169544224665803"><ele>167.0</ele><time>2026-04-18T08:07:09.979Z</time></trkpt><trkpt lat="39.612028736867195" lon="16.16934030826686"><ele>167.0</ele><time>2026-04-18T08:07:10.979Z</time></trkpt><trkpt lat="39.612016403585834" lon="16.169129910056895"><ele>167.0</ele><time>2026-04-18T08:07:11.979Z</time></trkpt><trkpt lat="39.61200083312139" lon="16.168918042697033"><ele>167.0</ele><time>2026-04-18T08:07:12.979Z</time></trkpt><trkpt lat="39.611968063530746" lon="16.16870152057028"><ele>163.33333333333331</ele><time>2026-04-18T08:07:13.979Z</time></trkpt><trkpt lat="39.61195288218328" lon="16.16847180249336"><ele>159.66666666666666</ele><time>2026-04-18T08:07:14.979Z</time></trkpt><trkpt lat="39.61193616350861" lon="16.168230087095907"><ele>156.0</ele><time>2026-04-18T08:07:15.979Z</time></trkpt><trkpt lat="39.611916192262015" lon="16.167989211954332"><ele>156.0</ele><time>2026-04-18T08:07:16.979Z</time></trkpt><trkpt lat="39.611896497226404" lon="16.167750966685503"><ele>156.0</ele><time>2026-04-18T08:07:17.979Z</time></trkpt><trkpt lat="39.61187752485499" lon="16.167511501506855"><ele>156.0</ele><time>2026-04-18T08:07:18.979Z</time></trkpt><trkpt lat="39.611859236878374" lon="16.167269221249388"><ele>156.66666666666666</ele><time>2026-04-18T08:07:19.979Z</time></trkpt><trkpt lat="39.61183912023584" lon="16.167026340844707"><ele>157.33333333333331</ele><time>2026-04-18T08:07:20.979Z</time></trkpt><trkpt lat="39.611817768923274" lon="16.166775720928204"><ele>158.0</ele><time>2026-04-18T08:07:21.979Z</time></trkpt><trkpt lat="39.611795312216394" lon="16.166522313497406"><ele>159.0</ele><time>2026-04-18T08:07:22.979Z</time></trkpt><trkpt lat="39.61177226988351" lon="16.16626833960008"><ele>160.0</ele><time>2026-04-18T08:07:23.979Z</time></trkpt><trkpt lat="39.61174714511877" lon="16.166010133489195"><ele>161.0</ele><time>2026-04-18T08:07:24.979Z</time></trkpt><trkpt lat="39.6117182098635" lon="16.165756713552668"><ele>162.33333333333331</ele><time>2026-04-18T08:07:25.979Z</time></trkpt><trkpt lat="39.61167772395291" lon="16.165503213776"><ele>163.66666666666666</ele><time>2026-04-18T08:07:26.979Z</time></trkpt><trkpt lat="39.61162979451952" lon="16.165250129829527"><ele>165.0</ele><time>2026-04-18T08:07:27.979Z</time></trkpt><trkpt lat="39.61157871756906" lon="16.165012928256868"><ele>166.0</ele><time>2026-04-18T08:07:28.979Z</time></trkpt><trkpt lat="39.6115302539255" lon="16.164786830999432"><ele>167.0</ele><time>2026-04-18T08:07:29.979Z</time></trkpt><trkpt lat="39.61148182405395" lon="16.164564166831372"><ele>168.0</ele><time>2026-04-18T08:07:30.979Z</time></trkpt><trkpt lat="39.611427658580425" lon="16.164337327465695"><ele>168.0</ele><time>2026-04-18T08:07:31.979Z</time></trkpt><trkpt lat="39.61136888638108" lon="16.16410230010789"><ele>168.0</ele><time>2026-04-18T08:07:32.979Z</time></trkpt><trkpt lat="39.611307562510625" lon="16.16387452846897"><ele>168.0</ele><time>2026-04-18T08:07:33.979Z</time></trkpt><trkpt lat="39.61124153676913" lon="16.16364950694389"><ele>168.0</ele><time>2026-04-18T08:07:34.979Z</time></trkpt><trkpt lat="39.61117185231368" lon="16.163424547069635"><ele>168.0</ele><time>2026-04-18T08:07:35.979Z</time></trkpt><trkpt lat="39.61110148271085" lon="16.163202545840672"><ele>168.0</ele><time>2026-04-18T08:07:36.979Z</time></trkpt><trkpt lat="39.611033479657344" lon="16.162988637208066"><ele>168.66666666666666</ele><time>2026-04-18T08:07:37.979Z</time></trkpt><trkpt lat="39.61096717977285" lon="16.16277986726642"><ele>169.33333333333331</ele><time>2026-04-18T08:07:38.979Z</time></trkpt><trkpt lat="39.61089690791925" lon="16.162565838303635"><ele>170.0</ele><time>2026-04-18T08:07:39.979Z</time></trkpt><trkpt lat="39.610825182836386" lon="16.162355756120803"><ele>172.66666666666666</ele><time>2026-04-18T08:07:40.979Z</time></trkpt><trkpt lat="39.61076996725274" lon="16.16214143069809"><ele>175.33333333333334</ele><time>2026-04-18T08:07:41.979Z</time></trkpt><trkpt lat="39.610707889726925" lon="16.16194940354566"><ele>178.0</ele><time>2026-04-18T08:07:42.979Z</time></trkpt><trkpt lat="39.61065031016737" lon="16.16176410728217"><ele>178.0</ele><time>2026-04-18T08:07:43.979Z</time></trkpt><trkpt lat="39.610601276097086" lon="16.161565060897836"><ele>178.0</ele><time>2026-04-18T08:07:44.979Z</time></trkpt><trkpt lat="39.61056632484993" lon="16.1613556865712"><ele>178.0</ele><time>2026-04-18T08:07:45.979Z</time></trkpt><trkpt lat="39.610539515744556" lon="16.161125432957114"><ele>180.66666666666669</ele><time>2026-04-18T08:07:46.979Z</time></trkpt><trkpt lat="39.61051261641578" lon="16.16088405386057"><ele>183.33333333333334</ele><time>2026-04-18T08:07:47.979Z</time></trkpt><trkpt lat="39.61047062450943" lon="16.160645194563667"><ele>186.0</ele><time>2026-04-18T08:07:48.979Z</time></trkpt><trkpt lat="39.610459696912905" lon="16.1603932090957"><ele>188.0</ele><time>2026-04-18T08:07:49.979Z</time></trkpt><trkpt lat="39.610434297984916" lon="16.16015868359708"><ele>190.0</ele><time>2026-04-18T08:07:50.979Z</time></trkpt><trkpt lat="39.61041678906898" lon="16.159939679018123"><ele>192.0</ele><time>2026-04-18T08:07:51.979Z</time></trkpt><trkpt lat="39.610411140920206" lon="16.159717547789718"><ele>193.0</ele><time>2026-04-18T08:07:52.979Z</time></trkpt><trkpt lat="39.610415947553555" lon="16.159483624876053"><ele>194.0</ele><time>2026-04-18T08:07:53.979Z</time></trkpt><trkpt lat="39.610427098386126" lon="16.15923602955842"><ele>195.0</ele><time>2026-04-18T08:07:54.979Z</time></trkpt><trkpt lat="39.610449231323265" lon="16.158980483155634"><ele>195.33333333333331</ele><time>2026-04-18T08:07:55.979Z</time></trkpt><trkpt lat="39.61047339891519" lon="16.15871728966877"><ele>195.66666666666666</ele><time>2026-04-18T08:07:56.979Z</time></trkpt><trkpt lat="39.61049708384994" lon="16.15845725738753"><ele>196.0</ele><time>2026-04-18T08:07:57.979Z</time></trkpt><trkpt lat="39.61051999107255" lon="16.15820542984073"><ele>195.0</ele><time>2026-04-18T08:07:58.979Z</time></trkpt><trkpt lat="39.61054158037442" lon="16.1579680906756"><ele>194.0</ele><time>2026-04-18T08:07:59.979Z</time></trkpt><trkpt lat="39.61056225790623" lon="16.15772530644811"><ele>193.0</ele><time>2026-04-18T08:08:00.979Z</time></trkpt><trkpt lat="39.610579747470176" lon="16.15748082305889"><ele>192.33333333333331</ele><time>2026-04-18T08:08:01.979Z</time></trkpt><trkpt lat="39.610585795605175" lon="16.15721879041951"><ele>191.66666666666666</ele><time>2026-04-18T08:08:02.979Z</time></trkpt><trkpt lat="39.61057491747313" lon="16.156954431294086"><ele>191.0</ele><time>2026-04-18T08:08:03.979Z</time></trkpt><trkpt lat="39.61055988715122" lon="16.15669628553724"><ele>194.0</ele><time>2026-04-18T08:08:04.979Z</time></trkpt><trkpt lat="39.61054565674308" lon="16.15645187829234"><ele>197.0</ele><time>2026-04-18T08:08:05.979Z</time></trkpt><trkpt lat="39.6105166761895" lon="16.15621659453206"><ele>200.0</ele><time>2026-04-18T08:08:06.979Z</time></trkpt><trkpt lat="39.61050428705813" lon="16.155979230450306"><ele>200.0</ele><time>2026-04-18T08:08:07.979Z</time></trkpt><trkpt lat="39.61048790711399" lon="16.155735365715515"><ele>200.0</ele><time>2026-04-18T08:08:08.979Z</time></trkpt><trkpt lat="39.6104895842851" lon="16.155488834030756"><ele>200.0</ele><time>2026-04-18T08:08:09.979Z</time></trkpt><trkpt lat="39.61047487257564" lon="16.155230082913093"><ele>201.33333333333334</ele><time>2026-04-18T08:08:10.979Z</time></trkpt><trkpt lat="39.61046046031274" lon="16.154972973532765"><ele>202.66666666666669</ele><time>2026-04-18T08:08:11.979Z</time></trkpt><trkpt lat="39.61044556280161" lon="16.154707207748967"><ele>204.0</ele><time>2026-04-18T08:08:12.979Z</time></trkpt><trkpt lat="39.61041504294469" lon="16.15443625727769"><ele>205.0</ele><time>2026-04-18T08:08:13.979Z</time></trkpt><trkpt lat="39.61040553185031" lon="16.15415781402578"><ele>206.0</ele><time>2026-04-18T08:08:14.979Z</time></trkpt><trkpt lat="39.61039418699319" lon="16.15387090421777"><ele>207.0</ele><time>2026-04-18T08:08:15.979Z</time></trkpt><trkpt lat="39.6103758038784" lon="16.153583079019153"><ele>207.33333333333331</ele><time>2026-04-18T08:08:16.979Z</time></trkpt><trkpt lat="39.61035751993814" lon="16.15329644050208"><ele>207.66666666666666</ele><time>2026-04-18T08:08:17.979Z</time></trkpt><trkpt lat="39.61033984623789" lon="16.153007052450565"><ele>208.0</ele><time>2026-04-18T08:08:18.979Z</time></trkpt><trkpt lat="39.61032233996576" lon="16.152712229375467"><ele>208.0</ele><time>2026-04-18T08:08:19.979Z</time></trkpt><trkpt lat="39.61030715204622" lon="16.15242308458943"><ele>208.0</ele><time>2026-04-18T08:08:20.979Z</time></trkpt><trkpt lat="39.61029223935127" lon="16.15213253519459"><ele>208.0</ele><time>2026-04-18T08:08:21.979Z</time></trkpt><trkpt lat="39.61027607523217" lon="16.15184702880716"><ele>208.66666666666666</ele><time>2026-04-18T08:08:22.979Z</time></trkpt><trkpt lat="39.6102620405306" lon="16.15156880214794"><ele>209.33333333333331</ele><time>2026-04-18T08:08:23.979Z</time></trkpt><trkpt lat="39.610247348087995" lon="16.151291488216454"><ele>210.0</ele><time>2026-04-18T08:08:24.979Z</time></trkpt><trkpt lat="39.61023378527607" lon="16.151010549985006"><ele>210.66666666666669</ele><time>2026-04-18T08:08:25.979Z</time></trkpt><trkpt lat="39.61022002523891" lon="16.150729555642524"><ele>211.33333333333334</ele><time>2026-04-18T08:08:26.978Z</time></trkpt><trkpt lat="39.61020771086695" lon="16.150451057824228"><ele>212.0</ele><time>2026-04-18T08:08:27.978Z</time></trkpt><trkpt lat="39.610192290732115" lon="16.15016742533117"><ele>213.66666666666669</ele><time>2026-04-18T08:08:28.978Z</time></trkpt><trkpt lat="39.610175084851235" lon="16.14988725001094"><ele>215.33333333333331</ele><time>2026-04-18T08:08:29.978Z</time></trkpt><trkpt lat="39.61015857151574" lon="16.149632068938867"><ele>217.0</ele><time>2026-04-18T08:08:30.978Z</time></trkpt><trkpt lat="39.61014203666143" lon="16.14941172440112"><ele>219.66666666666666</ele><time>2026-04-18T08:08:31.978Z</time></trkpt><trkpt lat="39.61012397595435" lon="16.14917936141769"><ele>222.33333333333331</ele><time>2026-04-18T08:08:32.978Z</time></trkpt><trkpt lat="39.6101001733157" lon="16.14894363982175"><ele>225.0</ele><time>2026-04-18T08:08:33.978Z</time></trkpt><trkpt lat="39.61007410144152" lon="16.148707900557067"><ele>227.66666666666669</ele><time>2026-04-18T08:08:34.978Z</time></trkpt><trkpt lat="39.61004179194687" lon="16.148456729975702"><ele>230.33333333333334</ele><time>2026-04-18T08:08:35.979Z</time></trkpt><trkpt lat="39.61000634985956" lon="16.14819242071841"><ele>233.0</ele><time>2026-04-18T08:08:36.979Z</time></trkpt><trkpt lat="39.60996703942279" lon="16.14792356015995"><ele>236.33333333333334</ele><time>2026-04-18T08:08:37.979Z</time></trkpt><trkpt lat="39.609917597867955" lon="16.14767412343097"><ele>239.66666666666669</ele><time>2026-04-18T08:08:38.979Z</time></trkpt><trkpt lat="39.609859063490454" lon="16.147454104336767"><ele>243.0</ele><time>2026-04-18T08:08:39.979Z</time></trkpt><trkpt lat="39.60979093252176" lon="16.147228137791245"><ele>247.33333333333331</ele><time>2026-04-18T08:08:40.979Z</time></trkpt><trkpt lat="39.60972507893204" lon="16.147017144891883"><ele>251.66666666666666</ele><time>2026-04-18T08:08:41.979Z</time></trkpt><trkpt lat="39.609674827062015" lon="16.14682194571175"><ele>256.0</ele><time>2026-04-18T08:08:42.979Z</time></trkpt><trkpt lat="39.60963683519822" lon="16.146621793935932"><ele>257.66666666666663</ele><time>2026-04-18T08:08:43.979Z</time></trkpt><trkpt lat="39.609609052639954" lon="16.14640840657674"><ele>259.3333333333333</ele><time>2026-04-18T08:08:44.979Z</time></trkpt><trkpt lat="39.60958640669141" lon="16.146177159972467"><ele>261.0</ele><time>2026-04-18T08:08:45.979Z</time></trkpt><trkpt lat="39.60956200950276" lon="16.145931765042707"><ele>263.0</ele><time>2026-04-18T08:08:46.979Z</time></trkpt><trkpt lat="39.609528740413566" lon="16.145684346535813"><ele>265.0</ele><time>2026-04-18T08:08:47.979Z</time></trkpt><trkpt lat="39.60949459969599" lon="16.14546334738192"><ele>267.0</ele><time>2026-04-18T08:08:48.979Z</time></trkpt><trkpt lat="39.60945822764842" lon="16.145263075679264"><ele>262.25</ele><time>2026-04-18T08:08:49.979Z</time></trkpt><trkpt lat="39.60942108428175" lon="16.145091528392488"><ele>257.5</ele><time>2026-04-18T08:08:50.979Z</time></trkpt><trkpt lat="39.609379460533695" lon="16.14493093521843"><ele>252.75</ele><time>2026-04-18T08:08:51.979Z</time></trkpt><trkpt lat="39.60933558075556" lon="16.14477888248018"><ele>248.0</ele><time>2026-04-18T08:08:52.979Z</time></trkpt><trkpt lat="39.6092982127321" lon="16.144636059098513"><ele>248.00000000000003</ele><time>2026-04-18T08:08:53.979Z</time></trkpt><trkpt lat="39.60927172161211" lon="16.144524023487286"><ele>248.0</ele><time>2026-04-18T08:08:54.979Z</time></trkpt><trkpt lat="39.60925243935345" lon="16.144441019264985"><ele>248.0</ele><time>2026-04-18T08:08:55.979Z</time></trkpt><trkpt lat="39.60922996819724" lon="16.144339963508997"><ele>248.0</ele><time>2026-04-18T08:08:57.979Z</time></trkpt><trkpt lat="39.609184855182" lon="16.144228187135443"><ele>248.00000000000003</ele><time>2026-04-18T08:08:59.979Z</time></trkpt><trkpt lat="39.60911932947185" lon="16.14416469883044"><ele>248.0</ele><time>2026-04-18T08:09:00.979Z</time></trkpt><trkpt lat="39.60904416141057" lon="16.14411545216786"><ele>248.0</ele><time>2026-04-18T08:09:01.979Z</time></trkpt><trkpt lat="39.60896379297866" lon="16.144048536827018"><ele>248.0</ele><time>2026-04-18T08:09:02.979Z</time></trkpt><trkpt lat="39.60890908177815" lon="16.143955073401102"><ele>248.0</ele><time>2026-04-18T08:09:03.979Z</time></trkpt><trkpt lat="39.60887092676314" lon="16.14382742910876"><ele>248.0</ele><time>2026-04-18T08:09:04.979Z</time></trkpt><trkpt lat="39.60885303525804" lon="16.14369920328866"><ele>248.0</ele><time>2026-04-18T08:09:05.979Z</time></trkpt><trkpt lat="39.60884087905157" lon="16.14358341531702"><ele>248.00000000000003</ele><time>2026-04-18T08:09:06.979Z</time></trkpt><trkpt lat="39.60883690705062" lon="16.14347600051473"><ele>248.0</ele><time>2026-04-18T08:09:07.979Z</time></trkpt><trkpt lat="39.60883967984638" lon="16.143382376234076"><ele>248.0</ele><time>2026-04-18T08:09:08.979Z</time></trkpt><trkpt lat="39.60885543324116" lon="16.14329913556388"><ele>248.0</ele><time>2026-04-18T08:09:09.979Z</time></trkpt><trkpt lat="39.60889294875372" lon="16.143201805629946"><ele>248.00000000000003</ele><time>2026-04-18T08:09:10.979Z</time></trkpt><trkpt lat="39.6089660380446" lon="16.14308822896725"><ele>248.0</ele><time>2026-04-18T08:09:11.979Z</time></trkpt><trkpt lat="39.60907038685959" lon="16.142967583215682"><ele>246.33333333333334</ele><time>2026-04-18T08:09:12.979Z</time></trkpt><trkpt lat="39.60918697838425" lon="16.14283989441035"><ele>244.66666666666669</ele><time>2026-04-18T08:09:13.979Z</time></trkpt><trkpt lat="39.60931061289903" lon="16.14269575057885"><ele>243.0</ele><time>2026-04-18T08:09:14.979Z</time></trkpt><trkpt lat="39.609429005235945" lon="16.142552058843822"><ele>243.25</ele><time>2026-04-18T08:09:15.979Z</time></trkpt><trkpt lat="39.60952833276268" lon="16.142431382928965"><ele>243.5</ele><time>2026-04-18T08:09:16.979Z</time></trkpt><trkpt lat="39.60961397687853" lon="16.142328947039342"><ele>243.75</ele><time>2026-04-18T08:09:17.979Z</time></trkpt><trkpt lat="39.60969194771037" lon="16.14222748768431"><ele>244.0</ele><time>2026-04-18T08:09:18.979Z</time></trkpt><trkpt lat="39.60975698243241" lon="16.142112052615108"><ele>244.0</ele><time>2026-04-18T08:09:19.979Z</time></trkpt><trkpt lat="39.60979353627234" lon="16.14197887070902"><ele>244.0</ele><time>2026-04-18T08:09:20.979Z</time></trkpt><trkpt lat="39.60979516145412" lon="16.14182500736877"><ele>244.0</ele><time>2026-04-18T08:09:21.979Z</time></trkpt><trkpt lat="39.60976321202582" lon="16.14165576022104"><ele>244.0</ele><time>2026-04-18T08:09:22.979Z</time></trkpt><trkpt lat="39.60971697188145" lon="16.141474059024024"><ele>240.75</ele><time>2026-04-18T08:09:23.979Z</time></trkpt><trkpt lat="39.60969330870518" lon="16.141302829847636"><ele>237.5</ele><time>2026-04-18T08:09:24.979Z</time></trkpt><trkpt lat="39.6097153149231" lon="16.141150222827804"><ele>234.25</ele><time>2026-04-18T08:09:25.979Z</time></trkpt><trkpt lat="39.609774882062354" lon="16.140992700132173"><ele>231.0</ele><time>2026-04-18T08:09:26.979Z</time></trkpt><trkpt lat="39.60984452304111" lon="16.140843356515866"><ele>226.25</ele><time>2026-04-18T08:09:27.979Z</time></trkpt><trkpt lat="39.60991068636097" lon="16.140698134705872"><ele>221.5</ele><time>2026-04-18T08:09:28.979Z</time></trkpt><trkpt lat="39.609988377106234" lon="16.140576520363094"><ele>216.75</ele><time>2026-04-18T08:09:29.979Z</time></trkpt><trkpt lat="39.61007840236937" lon="16.140503808489157"><ele>212.0</ele><time>2026-04-18T08:09:30.979Z</time></trkpt><trkpt lat="39.610176575183026" lon="16.140475101170942"><ele>212.0</ele><time>2026-04-18T08:09:31.979Z</time></trkpt><trkpt lat="39.61028263759513" lon="16.14049368476786"><ele>212.0</ele><time>2026-04-18T08:09:32.979Z</time></trkpt><trkpt lat="39.61040097716343" lon="16.140561038744487"><ele>212.0</ele><time>2026-04-18T08:09:33.979Z</time></trkpt><trkpt lat="39.61052082859153" lon="16.14062698791237"><ele>212.0</ele><time>2026-04-18T08:09:34.979Z</time></trkpt><trkpt lat="39.6106320388843" lon="16.14066249916018"><ele>212.0</ele><time>2026-04-18T08:09:35.979Z</time></trkpt><trkpt lat="39.61074078875441" lon="16.14064849712706"><ele>212.0</ele><time>2026-04-18T08:09:36.978Z</time></trkpt><trkpt lat="39.610850808280134" lon="16.140586556301994"><ele>212.0</ele><time>2026-04-18T08:09:37.978Z</time></trkpt><trkpt lat="39.61096445591946" lon="16.140510138331248"><ele>212.0</ele><time>2026-04-18T08:09:38.978Z</time></trkpt><trkpt lat="39.611091147300385" lon="16.14045757525391"><ele>211.5</ele><time>2026-04-18T08:09:39.978Z</time></trkpt><trkpt lat="39.61121268293568" lon="16.14043504335308"><ele>211.0</ele><time>2026-04-18T08:09:40.978Z</time></trkpt><trkpt lat="39.611331152861716" lon="16.14044017965436"><ele>210.5</ele><time>2026-04-18T08:09:41.978Z</time></trkpt><trkpt lat="39.611461042156776" lon="16.140442111446053"><ele>210.0</ele><time>2026-04-18T08:09:42.978Z</time></trkpt><trkpt lat="39.61159600507706" lon="16.140476579163554"><ele>210.0</ele><time>2026-04-18T08:09:43.978Z</time></trkpt><trkpt lat="39.6117190043685" lon="16.140524049029743"><ele>210.0</ele><time>2026-04-18T08:09:44.978Z</time></trkpt><trkpt lat="39.61183474542823" lon="16.14054337426434"><ele>210.0</ele><time>2026-04-18T08:09:45.978Z</time></trkpt><trkpt lat="39.611951065289446" lon="16.14048878287966"><ele>210.0</ele><time>2026-04-18T08:09:46.978Z</time></trkpt><trkpt lat="39.61206411730261" lon="16.140409671551595"><ele>209.25</ele><time>2026-04-18T08:09:47.978Z</time></trkpt><trkpt lat="39.612170480291326" lon="16.140370369818527"><ele>208.5</ele><time>2026-04-18T08:09:48.978Z</time></trkpt><trkpt lat="39.61228596838687" lon="16.14037688102202"><ele>207.75</ele><time>2026-04-18T08:09:49.978Z</time></trkpt><trkpt lat="39.612416095764594" lon="16.140463650126126"><ele>207.0</ele><time>2026-04-18T08:09:50.978Z</time></trkpt><trkpt lat="39.61254430161801" lon="16.140515982643993"><ele>207.0</ele><time>2026-04-18T08:09:51.978Z</time></trkpt><trkpt lat="39.61267525392819" lon="16.140532511837392"><ele>207.0</ele><time>2026-04-18T08:09:52.978Z</time></trkpt><trkpt lat="39.61280740254215" lon="16.14053785292383"><ele>207.0</ele><time>2026-04-18T08:09:53.978Z</time></trkpt><trkpt lat="39.612942019277284" lon="16.14050595016338"><ele>207.0</ele><time>2026-04-18T08:09:54.978Z</time></trkpt><trkpt lat="39.61308108851994" lon="16.140474525319572"><ele>205.0</ele><time>2026-04-18T08:09:55.978Z</time></trkpt><trkpt lat="39.61323010175817" lon="16.140461721741918"><ele>203.0</ele><time>2026-04-18T08:09:56.978Z</time></trkpt><trkpt lat="39.61338605492503" lon="16.140452791153198"><ele>201.0</ele><time>2026-04-18T08:09:57.978Z</time></trkpt><trkpt lat="39.61353319590348" lon="16.140472333744274"><ele>200.0</ele><time>2026-04-18T08:09:58.978Z</time></trkpt><trkpt lat="39.61367995960888" lon="16.14048710032058"><ele>199.0</ele><time>2026-04-18T08:09:59.978Z</time></trkpt><trkpt lat="39.61381579678962" lon="16.140495935096972"><ele>198.0</ele><time>2026-04-18T08:10:00.978Z</time></trkpt><trkpt lat="39.61395136328326" lon="16.140493767643925"><ele>197.0</ele><time>2026-04-18T08:10:01.978Z</time></trkpt><trkpt lat="39.61408371291751" lon="16.14049898934317"><ele>197.0</ele><time>2026-04-18T08:10:02.978Z</time></trkpt><trkpt lat="39.614210721924266" lon="16.140469259258975"><ele>197.0</ele><time>2026-04-18T08:10:03.978Z</time></trkpt><trkpt lat="39.61432494892521" lon="16.140436932302833"><ele>197.0</ele><time>2026-04-18T08:10:04.978Z</time></trkpt><trkpt lat="39.6144359897272" lon="16.14041079147252"><ele>197.0</ele><time>2026-04-18T08:10:05.978Z</time></trkpt><trkpt lat="39.61455603566091" lon="16.140406349843204"><ele>196.25</ele><time>2026-04-18T08:10:06.978Z</time></trkpt><trkpt lat="39.61468636693982" lon="16.14046496727383"><ele>195.5</ele><time>2026-04-18T08:10:07.978Z</time></trkpt><trkpt lat="39.61482245214772" lon="16.14053172080438"><ele>194.75</ele><time>2026-04-18T08:10:08.978Z</time></trkpt><trkpt lat="39.614968407771" lon="16.140584897826304"><ele>194.0</ele><time>2026-04-18T08:10:09.978Z</time></trkpt><trkpt lat="39.61512666701996" lon="16.14062075520844"><ele>194.0</ele><time>2026-04-18T08:10:10.978Z</time></trkpt><trkpt lat="39.61529696350958" lon="16.140652129362785"><ele>194.0</ele><time>2026-04-18T08:10:11.978Z</time></trkpt><trkpt lat="39.6154552803209" lon="16.14068266018359"><ele>194.0</ele><time>2026-04-18T08:10:12.978Z</time></trkpt><trkpt lat="39.61561098276627" lon="16.140712344377704"><ele>195.25</ele><time>2026-04-18T08:10:13.978Z</time></trkpt><trkpt lat="39.61575898923168" lon="16.14073989108906"><ele>196.5</ele><time>2026-04-18T08:10:14.978Z</time></trkpt><trkpt lat="39.61590439199105" lon="16.140755272549203"><ele>197.75</ele><time>2026-04-18T08:10:15.978Z</time></trkpt><trkpt lat="39.6160463326475" lon="16.140747989351546"><ele>199.0</ele><time>2026-04-18T08:10:16.978Z</time></trkpt><trkpt lat="39.616196120104476" lon="16.140741042370447"><ele>194.66666666666666</ele><time>2026-04-18T08:10:17.978Z</time></trkpt><trkpt lat="39.61634784568062" lon="16.14070151289143"><ele>190.33333333333331</ele><time>2026-04-18T08:10:18.978Z</time></trkpt><trkpt lat="39.616502292646295" lon="16.140624071621144"><ele>186.0</ele><time>2026-04-18T08:10:19.978Z</time></trkpt><trkpt lat="39.61664039029137" lon="16.140607563333074"><ele>186.0</ele><time>2026-04-18T08:10:20.978Z</time></trkpt><trkpt lat="39.61676709347822" lon="16.140552524013135"><ele>186.0</ele><time>2026-04-18T08:10:21.978Z</time></trkpt><trkpt lat="39.61689100476386" lon="16.140507063701936"><ele>186.0</ele><time>2026-04-18T08:10:22.978Z</time></trkpt><trkpt lat="39.617017904141996" lon="16.140472086426804"><ele>186.0</ele><time>2026-04-18T08:10:23.978Z</time></trkpt><trkpt lat="39.617148831707055" lon="16.14046042904088"><ele>185.0</ele><time>2026-04-18T08:10:24.978Z</time></trkpt><trkpt lat="39.61727244700881" lon="16.140513809074854"><ele>184.0</ele><time>2026-04-18T08:10:25.978Z</time></trkpt><trkpt lat="39.61740554979397" lon="16.140578254157386"><ele>183.0</ele><time>2026-04-18T08:10:26.978Z</time></trkpt><trkpt lat="39.61755228985024" lon="16.140641969909392"><ele>182.0</ele><time>2026-04-18T08:10:27.978Z</time></trkpt><trkpt lat="39.61769311884054" lon="16.14071519979204"><ele>183.66666666666666</ele><time>2026-04-18T08:10:28.978Z</time></trkpt><trkpt lat="39.617844304954616" lon="16.140764084063193"><ele>185.33333333333334</ele><time>2026-04-18T08:10:29.978Z</time></trkpt><trkpt lat="39.61800267159683" lon="16.140764242957744"><ele>187.0</ele><time>2026-04-18T08:10:30.978Z</time></trkpt><trkpt lat="39.618165154242014" lon="16.1407416592306"><ele>187.0</ele><time>2026-04-18T08:10:31.978Z</time></trkpt><trkpt lat="39.61832528259641" lon="16.14075016723771"><ele>187.0</ele><time>2026-04-18T08:10:32.978Z</time></trkpt><trkpt lat="39.61846233845078" lon="16.140824715633176"><ele>187.0</ele><time>2026-04-18T08:10:33.978Z</time></trkpt><trkpt lat="39.61860498927162" lon="16.14090295692074"><ele>185.25</ele><time>2026-04-18T08:10:34.978Z</time></trkpt><trkpt lat="39.61874706063903" lon="16.140985462672372"><ele>183.5</ele><time>2026-04-18T08:10:35.978Z</time></trkpt><trkpt lat="39.618878290439014" lon="16.14105795187554"><ele>181.75</ele><time>2026-04-18T08:10:36.978Z</time></trkpt><trkpt lat="39.619022096185" lon="16.14110316320836"><ele>180.0</ele><time>2026-04-18T08:10:37.978Z</time></trkpt><trkpt lat="39.619177741896486" lon="16.141138827588918"><ele>180.0</ele><time>2026-04-18T08:10:38.978Z</time></trkpt><trkpt lat="39.619332436318395" lon="16.141145978349886"><ele>180.0</ele><time>2026-04-18T08:10:39.978Z</time></trkpt><trkpt lat="39.61948242627694" lon="16.141126114075185"><ele>180.0</ele><time>2026-04-18T08:10:40.978Z</time></trkpt><trkpt lat="39.61962764052581" lon="16.141114220739315"><ele>179.66666666666666</ele><time>2026-04-18T08:10:41.978Z</time></trkpt><trkpt lat="39.6197653964296" lon="16.141095909116128"><ele>179.33333333333331</ele><time>2026-04-18T08:10:42.978Z</time></trkpt><trkpt lat="39.619932278093316" lon="16.14111844255985"><ele>179.0</ele><time>2026-04-18T08:10:43.978Z</time></trkpt><trkpt lat="39.62010226619629" lon="16.14116859872361"><ele>179.0</ele><time>2026-04-18T08:10:44.978Z</time></trkpt><trkpt lat="39.620277015828336" lon="16.141224552421917"><ele>179.0</ele><time>2026-04-18T08:10:45.978Z</time></trkpt><trkpt lat="39.62045393890885" lon="16.141257929078925"><ele>179.0</ele><time>2026-04-18T08:10:46.978Z</time></trkpt><trkpt lat="39.62063956762593" lon="16.141267898426495"><ele>179.0</ele><time>2026-04-18T08:10:47.978Z</time></trkpt><trkpt lat="39.620826864928176" lon="16.141275461564945"><ele>179.0</ele><time>2026-04-18T08:10:48.978Z</time></trkpt><trkpt lat="39.62101857136044" lon="16.141286782384658"><ele>179.0</ele><time>2026-04-18T08:10:49.978Z</time></trkpt><trkpt lat="39.62119993116" lon="16.141298802211203"><ele>177.0</ele><time>2026-04-18T08:10:50.978Z</time></trkpt><trkpt lat="39.621372575645964" lon="16.141312384756716"><ele>175.0</ele><time>2026-04-18T08:10:51.978Z</time></trkpt><trkpt lat="39.621539670357905" lon="16.14132440152458"><ele>173.0</ele><time>2026-04-18T08:10:52.978Z</time></trkpt><trkpt lat="39.621704120135966" lon="16.14133652711165"><ele>173.0</ele><time>2026-04-18T08:10:53.978Z</time></trkpt><trkpt lat="39.62186896803097" lon="16.14134654386055"><ele>173.0</ele><time>2026-04-18T08:10:54.978Z</time></trkpt><trkpt lat="39.62204327744157" lon="16.141357928971946"><ele>173.0</ele><time>2026-04-18T08:10:55.978Z</time></trkpt><trkpt lat="39.62222631843819" lon="16.1413690914444"><ele>171.66666666666666</ele><time>2026-04-18T08:10:56.978Z</time></trkpt><trkpt lat="39.622413855275646" lon="16.141376794041072"><ele>170.33333333333334</ele><time>2026-04-18T08:10:57.978Z</time></trkpt><trkpt lat="39.62259375619314" lon="16.141376973559648"><ele>169.0</ele><time>2026-04-18T08:10:58.978Z</time></trkpt><trkpt lat="39.62276392404848" lon="16.141367975574383"><ele>167.33333333333334</ele><time>2026-04-18T08:10:59.978Z</time></trkpt><trkpt lat="39.62293245378744" lon="16.141352214722925"><ele>165.66666666666666</ele><time>2026-04-18T08:11:00.978Z</time></trkpt><trkpt lat="39.6230920107788" lon="16.14133555917292"><ele>164.0</ele><time>2026-04-18T08:11:01.978Z</time></trkpt><trkpt lat="39.62324500016937" lon="16.14132710821866"><ele>164.0</ele><time>2026-04-18T08:11:02.978Z</time></trkpt><trkpt lat="39.62338083815917" lon="16.141331785228576"><ele>164.0</ele><time>2026-04-18T08:11:03.978Z</time></trkpt><trkpt lat="39.623500250909856" lon="16.141342801136975"><ele>164.0</ele><time>2026-04-18T08:11:04.978Z</time></trkpt><trkpt lat="39.623619707252274" lon="16.141354446974873"><ele>164.0</ele><time>2026-04-18T08:11:05.978Z</time></trkpt><trkpt lat="39.623736270751465" lon="16.141357044533375"><ele>163.75</ele><time>2026-04-18T08:11:06.978Z</time></trkpt><trkpt lat="39.62384493122329" lon="16.141328223024036"><ele>163.5</ele><time>2026-04-18T08:11:07.978Z</time></trkpt><trkpt lat="39.6239490464105" lon="16.141252547431332"><ele>163.25</ele><time>2026-04-18T08:11:08.978Z</time></trkpt><trkpt lat="39.624031736635445" lon="16.141131587073897"><ele>163.0</ele><time>2026-04-18T08:11:09.978Z</time></trkpt><trkpt lat="39.62410764231366" lon="16.14098232442216"><ele>163.0</ele><time>2026-04-18T08:11:10.978Z</time></trkpt><trkpt lat="39.624169865033245" lon="16.140857547269878"><ele>163.0</ele><time>2026-04-18T08:11:11.978Z</time></trkpt><trkpt lat="39.62422060036871" lon="16.1407402308313"><ele>163.0</ele><time>2026-04-18T08:11:12.978Z</time></trkpt><trkpt lat="39.62424604381526" lon="16.14061182761614"><ele>163.0</ele><time>2026-04-18T08:11:13.978Z</time></trkpt><trkpt lat="39.624239424074084" lon="16.140462031032396"><ele>163.0</ele><time>2026-04-18T08:11:14.978Z</time></trkpt><trkpt lat="39.624203158344166" lon="16.14028776047894"><ele>163.0</ele><time>2026-04-18T08:11:15.978Z</time></trkpt><trkpt lat="39.624140900978226" lon="16.14010912269927"><ele>163.0</ele><time>2026-04-18T08:11:16.978Z</time></trkpt><trkpt lat="39.624093814519355" lon="16.139919241478086"><ele>163.0</ele><time>2026-04-18T08:11:17.978Z</time></trkpt><trkpt lat="39.6240359574013" lon="16.139734626969805"><ele>163.0</ele><time>2026-04-18T08:11:18.978Z</time></trkpt><trkpt lat="39.623974230421865" lon="16.139543995849667"><ele>163.0</ele><time>2026-04-18T08:11:19.978Z</time></trkpt><trkpt lat="39.62390805369892" lon="16.139340912491107"><ele>163.0</ele><time>2026-04-18T08:11:20.978Z</time></trkpt><trkpt lat="39.62384835460371" lon="16.139152749401077"><ele>162.0</ele><time>2026-04-18T08:11:21.978Z</time></trkpt><trkpt lat="39.62379089777074" lon="16.138971023439073"><ele>161.0</ele><time>2026-04-18T08:11:22.978Z</time></trkpt><trkpt lat="39.62373124392127" lon="16.138782845570564"><ele>160.0</ele><time>2026-04-18T08:11:23.978Z</time></trkpt><trkpt lat="39.623665585694745" lon="16.13857600207925"><ele>160.66666666666669</ele><time>2026-04-18T08:11:24.978Z</time></trkpt><trkpt lat="39.62359604316605" lon="16.138356921954852"><ele>161.33333333333334</ele><time>2026-04-18T08:11:25.978Z</time></trkpt><trkpt lat="39.62353044098179" lon="16.138150254990656"><ele>162.0</ele><time>2026-04-18T08:11:26.978Z</time></trkpt><trkpt lat="39.62346935849848" lon="16.1379578266187"><ele>162.0</ele><time>2026-04-18T08:11:27.978Z</time></trkpt><trkpt lat="39.62340794998494" lon="16.13776439651331"><ele>162.0</ele><time>2026-04-18T08:11:28.978Z</time></trkpt><trkpt lat="39.62334414322218" lon="16.137564077470863"><ele>162.0</ele><time>2026-04-18T08:11:29.978Z</time></trkpt><trkpt lat="39.62327849524833" lon="16.137357977991567"><ele>161.66666666666666</ele><time>2026-04-18T08:11:30.978Z</time></trkpt><trkpt lat="39.62321263169285" lon="16.137151201556144"><ele>161.33333333333331</ele><time>2026-04-18T08:11:31.978Z</time></trkpt><trkpt lat="39.623145367994226" lon="16.136940029499343"><ele>161.0</ele><time>2026-04-18T08:11:32.978Z</time></trkpt><trkpt lat="39.62307852936907" lon="16.1367239584863"><ele>161.0</ele><time>2026-04-18T08:11:33.978Z</time></trkpt><trkpt lat="39.62301155751817" lon="16.136501397428766"><ele>161.0</ele><time>2026-04-18T08:11:34.978Z</time></trkpt><trkpt lat="39.62294742784923" lon="16.13627796610262"><ele>161.0</ele><time>2026-04-18T08:11:35.978Z</time></trkpt><trkpt lat="39.622894471016565" lon="16.13607116934376"><ele>161.0</ele><time>2026-04-18T08:11:36.978Z</time></trkpt><trkpt lat="39.62284985085041" lon="16.135872595297247"><ele>161.0</ele><time>2026-04-18T08:11:37.978Z</time></trkpt><trkpt lat="39.62281253932976" lon="16.13566191323862"><ele>161.0</ele><time>2026-04-18T08:11:38.978Z</time></trkpt><trkpt lat="39.62278054776711" lon="16.135437131153417"><ele>162.0</ele><time>2026-04-18T08:11:39.978Z</time></trkpt><trkpt lat="39.62275742421486" lon="16.135199430579384"><ele>163.0</ele><time>2026-04-18T08:11:40.978Z</time></trkpt><trkpt lat="39.62274534127338" lon="16.134981627600336"><ele>164.0</ele><time>2026-04-18T08:11:41.978Z</time></trkpt><trkpt lat="39.62274006211349" lon="16.134764755425312"><ele>165.33333333333331</ele><time>2026-04-18T08:11:42.978Z</time></trkpt><trkpt lat="39.622743485284225" lon="16.134537135476503"><ele>166.66666666666666</ele><time>2026-04-18T08:11:43.978Z</time></trkpt><trkpt lat="39.622756813380306" lon="16.134317038770316"><ele>168.0</ele><time>2026-04-18T08:11:44.978Z</time></trkpt><trkpt lat="39.622776529577415" lon="16.13411575592648"><ele>167.75</ele><time>2026-04-18T08:11:45.978Z</time></trkpt><trkpt lat="39.62280040562553" lon="16.13393108695877"><ele>167.5</ele><time>2026-04-18T08:11:46.978Z</time></trkpt><trkpt lat="39.62283101604933" lon="16.133745481134415"><ele>167.25</ele><time>2026-04-18T08:11:47.978Z</time></trkpt><trkpt lat="39.62286564516073" lon="16.133561419977525"><ele>167.0</ele><time>2026-04-18T08:11:48.978Z</time></trkpt><trkpt lat="39.62290759760323" lon="16.133371941228074"><ele>166.66666666666666</ele><time>2026-04-18T08:11:49.978Z</time></trkpt><trkpt lat="39.62295531598665" lon="16.133165837462325"><ele>166.33333333333334</ele><time>2026-04-18T08:11:50.978Z</time></trkpt><trkpt lat="39.62300192223554" lon="16.132950680381068"><ele>166.0</ele><time>2026-04-18T08:11:51.978Z</time></trkpt><trkpt lat="39.62307581737575" lon="16.132740469716442"><ele>166.0</ele><time>2026-04-18T08:11:52.978Z</time></trkpt><trkpt lat="39.62316370440059" lon="16.132568100357503"><ele>166.0</ele><time>2026-04-18T08:11:53.978Z</time></trkpt><trkpt lat="39.6232417309572" lon="16.132394745449513"><ele>166.0</ele><time>2026-04-18T08:11:54.978Z</time></trkpt><trkpt lat="39.62332747887613" lon="16.132226137281823"><ele>166.66666666666669</ele><time>2026-04-18T08:11:55.978Z</time></trkpt><trkpt lat="39.62341774946989" lon="16.132037817368698"><ele>167.33333333333334</ele><time>2026-04-18T08:11:56.978Z</time></trkpt><trkpt lat="39.623534015099125" lon="16.131853939714496"><ele>168.0</ele><time>2026-04-18T08:11:57.978Z</time></trkpt><trkpt lat="39.623661646632726" lon="16.13166778465212"><ele>166.66666666666666</ele><time>2026-04-18T08:11:58.978Z</time></trkpt><trkpt lat="39.62379456177101" lon="16.131478213341072"><ele>165.33333333333331</ele><time>2026-04-18T08:11:59.978Z</time></trkpt><trkpt lat="39.62393636843046" lon="16.131276733621487"><ele>164.0</ele><time>2026-04-18T08:12:00.978Z</time></trkpt><trkpt lat="39.624078515887696" lon="16.13108002718699"><ele>164.0</ele><time>2026-04-18T08:12:01.978Z</time></trkpt><trkpt lat="39.624212924247786" lon="16.130900057773257"><ele>164.0</ele><time>2026-04-18T08:12:02.978Z</time></trkpt><trkpt lat="39.62434629441891" lon="16.130724161672344"><ele>164.0</ele><time>2026-04-18T08:12:03.978Z</time></trkpt><trkpt lat="39.624479640746614" lon="16.130550683136274"><ele>161.33333333333331</ele><time>2026-04-18T08:12:04.978Z</time></trkpt><trkpt lat="39.62461191814812" lon="16.13037459514552"><ele>158.66666666666666</ele><time>2026-04-18T08:12:05.978Z</time></trkpt><trkpt lat="39.62474057076133" lon="16.130197780110258"><ele>156.0</ele><time>2026-04-18T08:12:06.978Z</time></trkpt><trkpt lat="39.62486852375403" lon="16.13001983003296"><ele>156.0</ele><time>2026-04-18T08:12:07.978Z</time></trkpt><trkpt lat="39.625000581407456" lon="16.129839487175598"><ele>156.0</ele><time>2026-04-18T08:12:08.978Z</time></trkpt><trkpt lat="39.625133918521115" lon="16.129655957764236"><ele>156.0</ele><time>2026-04-18T08:12:09.978Z</time></trkpt><trkpt lat="39.62526644694829" lon="16.129471616188102"><ele>156.0</ele><time>2026-04-18T08:12:10.978Z</time></trkpt><trkpt lat="39.62539886121657" lon="16.129287625815195"><ele>156.0</ele><time>2026-04-18T08:12:11.978Z</time></trkpt><trkpt lat="39.62553441997183" lon="16.129101632526137"><ele>156.0</ele><time>2026-04-18T08:12:12.978Z</time></trkpt><trkpt lat="39.625670997248506" lon="16.12891706872128"><ele>156.0</ele><time>2026-04-18T08:12:13.978Z</time></trkpt><trkpt lat="39.6258119606016" lon="16.128726781712682"><ele>156.0</ele><time>2026-04-18T08:12:14.978Z</time></trkpt><trkpt lat="39.6259497358311" lon="16.128539095341566"><ele>156.0</ele><time>2026-04-18T08:12:15.978Z</time></trkpt><trkpt lat="39.62608641081212" lon="16.128352751425332"><ele>155.66666666666666</ele><time>2026-04-18T08:12:16.978Z</time></trkpt><trkpt lat="39.6262141128827" lon="16.128176028427365"><ele>155.33333333333331</ele><time>2026-04-18T08:12:17.978Z</time></trkpt><trkpt lat="39.62633321481857" lon="16.128009325375867"><ele>155.0</ele><time>2026-04-18T08:12:18.978Z</time></trkpt><trkpt lat="39.62644220594036" lon="16.127840752534176"><ele>155.0</ele><time>2026-04-18T08:12:19.978Z</time></trkpt><trkpt lat="39.62653661966311" lon="16.127661222415778"><ele>155.0</ele><time>2026-04-18T08:12:20.978Z</time></trkpt><trkpt lat="39.626625070031935" lon="16.127463289314605"><ele>155.0</ele><time>2026-04-18T08:12:21.978Z</time></trkpt><trkpt lat="39.626725835014945" lon="16.127267058433823"><ele>155.66666666666666</ele><time>2026-04-18T08:12:22.978Z</time></trkpt><trkpt lat="39.626797202217496" lon="16.12704979333031"><ele>156.33333333333334</ele><time>2026-04-18T08:12:23.978Z</time></trkpt><trkpt lat="39.626861277551605" lon="16.126820826711562"><ele>157.0</ele><time>2026-04-18T08:12:24.977Z</time></trkpt><trkpt lat="39.626913186221834" lon="16.126583316093292"><ele>157.66666666666669</ele><time>2026-04-18T08:12:25.977Z</time></trkpt><trkpt lat="39.626949907518366" lon="16.12633985449171"><ele>158.33333333333334</ele><time>2026-04-18T08:12:26.977Z</time></trkpt><trkpt lat="39.62697694941681" lon="16.126091795273474"><ele>159.0</ele><time>2026-04-18T08:12:27.977Z</time></trkpt><trkpt lat="39.62699479654795" lon="16.12583495113578"><ele>159.0</ele><time>2026-04-18T08:12:28.977Z</time></trkpt><trkpt lat="39.62701154353856" lon="16.125576587154665"><ele>159.0</ele><time>2026-04-18T08:12:29.977Z</time></trkpt><trkpt lat="39.62702797389521" lon="16.12532288207099"><ele>159.0</ele><time>2026-04-18T08:12:30.977Z</time></trkpt><trkpt lat="39.627044551144756" lon="16.125065732868155"><ele>159.66666666666666</ele><time>2026-04-18T08:12:31.977Z</time></trkpt><trkpt lat="39.627061355474574" lon="16.124805061116593"><ele>160.33333333333331</ele><time>2026-04-18T08:12:32.977Z</time></trkpt><trkpt lat="39.627078010410436" lon="16.12454670662257"><ele>161.0</ele><time>2026-04-18T08:12:33.977Z</time></trkpt><trkpt lat="39.62709417936253" lon="16.12429589118169"><ele>161.33333333333331</ele><time>2026-04-18T08:12:34.977Z</time></trkpt><trkpt lat="39.62710940483446" lon="16.124059710747584"><ele>161.66666666666666</ele><time>2026-04-18T08:12:35.977Z</time></trkpt><trkpt lat="39.62712386564487" lon="16.123835391962107"><ele>162.0</ele><time>2026-04-18T08:12:36.977Z</time></trkpt><trkpt lat="39.627138031993276" lon="16.123615641250105"><ele>162.0</ele><time>2026-04-18T08:12:37.977Z</time></trkpt><trkpt lat="39.62715244681452" lon="16.12339203574882"><ele>162.0</ele><time>2026-04-18T08:12:38.977Z</time></trkpt><trkpt lat="39.62716741114382" lon="16.123159906365665"><ele>162.0</ele><time>2026-04-18T08:12:39.977Z</time></trkpt><trkpt lat="39.627182003227404" lon="16.122933551212167"><ele>162.33333333333334</ele><time>2026-04-18T08:12:40.977Z</time></trkpt><trkpt lat="39.62719643924649" lon="16.122709613569757"><ele>162.66666666666669</ele><time>2026-04-18T08:12:41.977Z</time></trkpt><trkpt lat="39.627211314369355" lon="16.12247568560596"><ele>163.0</ele><time>2026-04-18T08:12:42.977Z</time></trkpt><trkpt lat="39.627225877414425" lon="16.1222478011721"><ele>163.33333333333334</ele><time>2026-04-18T08:12:43.977Z</time></trkpt><trkpt lat="39.6272390355696" lon="16.122041900261127"><ele>163.66666666666666</ele><time>2026-04-18T08:12:44.977Z</time></trkpt><trkpt lat="39.62725195403701" lon="16.121842723123578"><ele>164.0</ele><time>2026-04-18T08:12:45.977Z</time></trkpt><trkpt lat="39.62725108462698" lon="16.121650096080295"><ele>164.25</ele><time>2026-04-18T08:12:46.977Z</time></trkpt><trkpt lat="39.627266833800014" lon="16.121465525331256"><ele>164.5</ele><time>2026-04-18T08:12:47.978Z</time></trkpt><trkpt lat="39.6272764904984" lon="16.12128429184609"><ele>164.75</ele><time>2026-04-18T08:12:48.978Z</time></trkpt><trkpt lat="39.62728568347369" lon="16.12111689065133"><ele>165.0</ele><time>2026-04-18T08:12:49.978Z</time></trkpt><trkpt lat="39.62729815351296" lon="16.120965094613737"><ele>165.0</ele><time>2026-04-18T08:12:50.978Z</time></trkpt><trkpt lat="39.62730940090328" lon="16.120817943689907"><ele>165.0</ele><time>2026-04-18T08:12:51.978Z</time></trkpt><trkpt lat="39.62731445779541" lon="16.1206772380031"><ele>165.0</ele><time>2026-04-18T08:12:52.978Z</time></trkpt><trkpt lat="39.62733820001258" lon="16.120548227571728"><ele>165.0</ele><time>2026-04-18T08:12:53.978Z</time></trkpt><trkpt lat="39.627347161678294" lon="16.120416486445954"><ele>165.0</ele><time>2026-04-18T08:12:54.978Z</time></trkpt><trkpt lat="39.62735600210084" lon="16.120286527623712"><ele>165.2</ele><time>2026-04-18T08:12:55.978Z</time></trkpt><trkpt lat="39.6273644934795" lon="16.120161699982084"><ele>165.4</ele><time>2026-04-18T08:12:56.978Z</time></trkpt><trkpt lat="39.62735839730647" lon="16.120039868427355"><ele>165.60000000000002</ele><time>2026-04-18T08:12:57.978Z</time></trkpt><trkpt lat="39.627366934288055" lon="16.11991570700609"><ele>165.8</ele><time>2026-04-18T08:12:58.978Z</time></trkpt><trkpt lat="39.62737492726535" lon="16.11978688288414"><ele>166.0</ele><time>2026-04-18T08:12:59.978Z</time></trkpt><trkpt lat="39.62739862247932" lon="16.119659986125026"><ele>166.0</ele><time>2026-04-18T08:13:00.978Z</time></trkpt><trkpt lat="39.62740834119669" lon="16.119517116016077"><ele>166.0</ele><time>2026-04-18T08:13:01.978Z</time></trkpt><trkpt lat="39.6274200775969" lon="16.11934458487304"><ele>166.0</ele><time>2026-04-18T08:13:02.978Z</time></trkpt><trkpt lat="39.62743368722482" lon="16.119144516281814"><ele>166.0</ele><time>2026-04-18T08:13:03.978Z</time></trkpt><trkpt lat="39.627448698128255" lon="16.11892384825708"><ele>166.66666666666669</ele><time>2026-04-18T08:13:04.978Z</time></trkpt><trkpt lat="39.627464763411346" lon="16.11868768056059"><ele>167.33333333333334</ele><time>2026-04-18T08:13:05.978Z</time></trkpt><trkpt lat="39.62748224665827" lon="16.11843066771365"><ele>168.0</ele><time>2026-04-18T08:13:06.978Z</time></trkpt><trkpt lat="39.62750046611038" lon="16.118162832296782"><ele>168.33333333333334</ele><time>2026-04-18T08:13:07.978Z</time></trkpt><trkpt lat="39.62750266025296" lon="16.1178878997512"><ele>168.66666666666669</ele><time>2026-04-18T08:13:08.978Z</time></trkpt><trkpt lat="39.6275221491907" lon="16.117606487309427"><ele>169.0</ele><time>2026-04-18T08:13:09.978Z</time></trkpt><trkpt lat="39.627557271911535" lon="16.11732775795806"><ele>169.66666666666669</ele><time>2026-04-18T08:13:10.978Z</time></trkpt><trkpt lat="39.627576499237954" lon="16.11704367871174"><ele>170.33333333333334</ele><time>2026-04-18T08:13:11.978Z</time></trkpt><trkpt lat="39.62759595953217" lon="16.116754155489787"><ele>171.0</ele><time>2026-04-18T08:13:12.978Z</time></trkpt><trkpt lat="39.62761558960979" lon="16.11646243677209"><ele>171.0</ele><time>2026-04-18T08:13:13.978Z</time></trkpt><trkpt lat="39.62763614613507" lon="16.11616521255725"><ele>171.0</ele><time>2026-04-18T08:13:14.978Z</time></trkpt><trkpt lat="39.62765651379666" lon="16.115871960019426"><ele>173.0</ele><time>2026-04-18T08:13:15.978Z</time></trkpt><trkpt lat="39.62767591808063" lon="16.115579312327476"><ele>175.0</ele><time>2026-04-18T08:13:16.978Z</time></trkpt><trkpt lat="39.62769512201594" lon="16.11528969578089"><ele>175.0</ele><time>2026-04-18T08:13:17.978Z</time></trkpt><trkpt lat="39.62771358617038" lon="16.11501123599747"><ele>175.0</ele><time>2026-04-18T08:13:18.978Z</time></trkpt><trkpt lat="39.62773116542211" lon="16.114746121499564"><ele>175.0</ele><time>2026-04-18T08:13:19.978Z</time></trkpt><trkpt lat="39.62774780668663" lon="16.11449515277045"><ele>175.33333333333334</ele><time>2026-04-18T08:13:20.978Z</time></trkpt><trkpt lat="39.62776370119141" lon="16.114255445907414"><ele>175.66666666666666</ele><time>2026-04-18T08:13:21.978Z</time></trkpt><trkpt lat="39.627778721439114" lon="16.11402786435591"><ele>176.0</ele><time>2026-04-18T08:13:22.978Z</time></trkpt><trkpt lat="39.62779329276046" lon="16.11380698721098"><ele>176.0</ele><time>2026-04-18T08:13:23.978Z</time></trkpt><trkpt lat="39.62780694832725" lon="16.113599991775345"><ele>176.0</ele><time>2026-04-18T08:13:24.978Z</time></trkpt><trkpt lat="39.62782122540526" lon="16.113383575088545"><ele>176.0</ele><time>2026-04-18T08:13:25.978Z</time></trkpt><trkpt lat="39.627835745715245" lon="16.113163471327987"><ele>175.0</ele><time>2026-04-18T08:13:26.978Z</time></trkpt><trkpt lat="39.62785083228423" lon="16.112934784046352"><ele>174.0</ele><time>2026-04-18T08:13:27.978Z</time></trkpt><trkpt lat="39.627865654577015" lon="16.112710102864074"><ele>173.0</ele><time>2026-04-18T08:13:28.978Z</time></trkpt><trkpt lat="39.6278815915986" lon="16.112468524045394"><ele>173.66666666666666</ele><time>2026-04-18T08:13:29.978Z</time></trkpt><trkpt lat="39.6278821719058" lon="16.112220474156626"><ele>174.33333333333334</ele><time>2026-04-18T08:13:30.978Z</time></trkpt><trkpt lat="39.62789906735126" lon="16.11196899665135"><ele>175.0</ele><time>2026-04-18T08:13:31.978Z</time></trkpt><trkpt lat="39.627916087459035" lon="16.111714020833777"><ele>175.33333333333334</ele><time>2026-04-18T08:13:32.978Z</time></trkpt><trkpt lat="39.627931268861296" lon="16.111472629517397"><ele>175.66666666666666</ele><time>2026-04-18T08:13:33.978Z</time></trkpt><trkpt lat="39.627946028107175" lon="16.11124467495036"><ele>176.0</ele><time>2026-04-18T08:13:34.978Z</time></trkpt><trkpt lat="39.62797541185352" lon="16.1110375945342"><ele>176.0</ele><time>2026-04-18T08:13:35.978Z</time></trkpt><trkpt lat="39.627989026632676" lon="16.110829022600058"><ele>176.0</ele><time>2026-04-18T08:13:36.977Z</time></trkpt><trkpt lat="39.62800197321664" lon="16.110630686959162"><ele>176.0</ele><time>2026-04-18T08:13:37.977Z</time></trkpt><trkpt lat="39.628014443821435" lon="16.110439643162014"><ele>176.66666666666666</ele><time>2026-04-18T08:13:38.977Z</time></trkpt><trkpt lat="39.628026804924936" lon="16.110250276842173"><ele>177.33333333333334</ele><time>2026-04-18T08:13:39.977Z</time></trkpt><trkpt lat="39.62803918164049" lon="16.110060671352706"><ele>178.0</ele><time>2026-04-18T08:13:40.977Z</time></trkpt><trkpt lat="39.62804342079006" lon="16.109747399062005"><ele>178.0</ele><time>2026-04-18T08:13:41.977Z</time></trkpt><trkpt lat="39.6280558995048" lon="16.109544702806062"><ele>178.0</ele><time>2026-04-18T08:13:42.977Z</time></trkpt><trkpt lat="39.62807236286348" lon="16.109340549380548"><ele>178.0</ele><time>2026-04-18T08:13:43.977Z</time></trkpt><trkpt lat="39.62808698223509" lon="16.109130697821133"><ele>178.0</ele><time>2026-04-18T08:13:44.977Z</time></trkpt><trkpt lat="39.62810007733388" lon="16.10891140089209"><ele>178.0</ele><time>2026-04-18T08:13:45.977Z</time></trkpt><trkpt lat="39.6281324249787" lon="16.10869203981672"><ele>178.0</ele><time>2026-04-18T08:13:46.977Z</time></trkpt><trkpt lat="39.628128105590996" lon="16.108473483227034"><ele>178.0</ele><time>2026-04-18T08:13:47.977Z</time></trkpt><trkpt lat="39.62814787785615" lon="16.108253568123914"><ele>178.0</ele><time>2026-04-18T08:13:48.977Z</time></trkpt><trkpt lat="39.62816059192898" lon="16.108032905312747"><ele>178.0</ele><time>2026-04-18T08:13:49.977Z</time></trkpt><trkpt lat="39.62818175911991" lon="16.10779770526803"><ele>178.33333333333334</ele><time>2026-04-18T08:13:50.977Z</time></trkpt><trkpt lat="39.628200543151095" lon="16.107561424775028"><ele>178.66666666666666</ele><time>2026-04-18T08:13:51.977Z</time></trkpt><trkpt lat="39.62821037703051" lon="16.10731712888894"><ele>179.0</ele><time>2026-04-18T08:13:52.977Z</time></trkpt><trkpt lat="39.62822318992597" lon="16.107077790391067"><ele>179.0</ele><time>2026-04-18T08:13:53.977Z</time></trkpt><trkpt lat="39.62824140322266" lon="16.10682830756924"><ele>179.0</ele><time>2026-04-18T08:13:54.977Z</time></trkpt><trkpt lat="39.62826075854229" lon="16.106582689580893"><ele>179.0</ele><time>2026-04-18T08:13:55.977Z</time></trkpt><trkpt lat="39.628277729200384" lon="16.10633599041197"><ele>179.33333333333331</ele><time>2026-04-18T08:13:56.977Z</time></trkpt><trkpt lat="39.62829461232702" lon="16.106091919883855"><ele>179.66666666666666</ele><time>2026-04-18T08:13:57.977Z</time></trkpt><trkpt lat="39.62831317516138" lon="16.10584201052754"><ele>180.0</ele><time>2026-04-18T08:13:58.977Z</time></trkpt><trkpt lat="39.62832531293672" lon="16.10559357081561"><ele>180.33333333333334</ele><time>2026-04-18T08:13:59.977Z</time></trkpt><trkpt lat="39.6283434380423" lon="16.105347969682473"><ele>180.66666666666669</ele><time>2026-04-18T08:14:00.977Z</time></trkpt><trkpt lat="39.62835890211805" lon="16.105110805422836"><ele>181.0</ele><time>2026-04-18T08:14:01.977Z</time></trkpt><trkpt lat="39.628371766726545" lon="16.104870308514293"><ele>181.33333333333334</ele><time>2026-04-18T08:14:02.977Z</time></trkpt><trkpt lat="39.6283854464376" lon="16.10463050564295"><ele>181.66666666666666</ele><time>2026-04-18T08:14:03.977Z</time></trkpt><trkpt lat="39.62841714057208" lon="16.104390400101128"><ele>182.0</ele><time>2026-04-18T08:14:04.977Z</time></trkpt><trkpt lat="39.628433767228245" lon="16.1041445685129"><ele>182.33333333333331</ele><time>2026-04-18T08:14:05.977Z</time></trkpt><trkpt lat="39.6284376365577" lon="16.103889302346403"><ele>182.66666666666666</ele><time>2026-04-18T08:14:06.977Z</time></trkpt><trkpt lat="39.62845348921851" lon="16.103635798197764"><ele>183.0</ele><time>2026-04-18T08:14:07.977Z</time></trkpt><trkpt lat="39.628485477571864" lon="16.103386852876035"><ele>183.33333333333334</ele><time>2026-04-18T08:14:08.977Z</time></trkpt><trkpt lat="39.628502648039806" lon="16.103135658118653"><ele>183.66666666666669</ele><time>2026-04-18T08:14:09.977Z</time></trkpt><trkpt lat="39.62851909602927" lon="16.102893394789945"><ele>184.0</ele><time>2026-04-18T08:14:10.977Z</time></trkpt><trkpt lat="39.628535837442" lon="16.102645813653105"><ele>184.0</ele><time>2026-04-18T08:14:11.977Z</time></trkpt><trkpt lat="39.62855198714433" lon="16.10240698324064"><ele>184.0</ele><time>2026-04-18T08:14:12.977Z</time></trkpt><trkpt lat="39.62855428351592" lon="16.102151471505646"><ele>184.0</ele><time>2026-04-18T08:14:13.977Z</time></trkpt><trkpt lat="39.628571023410856" lon="16.101900574794563"><ele>184.0</ele><time>2026-04-18T08:14:14.977Z</time></trkpt><trkpt lat="39.62858758047491" lon="16.101638909817776"><ele>184.0</ele><time>2026-04-18T08:14:15.977Z</time></trkpt><trkpt lat="39.62860826143807" lon="16.101332752168766"><ele>184.0</ele><time>2026-04-18T08:14:16.977Z</time></trkpt><trkpt lat="39.628645886509744" lon="16.101018348699398"><ele>185.66666666666669</ele><time>2026-04-18T08:14:17.977Z</time></trkpt><trkpt lat="39.62864910338779" lon="16.10073593529801"><ele>187.33333333333334</ele><time>2026-04-18T08:14:18.977Z</time></trkpt><trkpt lat="39.62866942865387" lon="16.100471370175327"><ele>189.0</ele><time>2026-04-18T08:14:19.977Z</time></trkpt><trkpt lat="39.62868771359635" lon="16.100213836171655"><ele>189.0</ele><time>2026-04-18T08:14:20.977Z</time></trkpt><trkpt lat="39.628705016826736" lon="16.099964647413767"><ele>189.0</ele><time>2026-04-18T08:14:21.977Z</time></trkpt><trkpt lat="39.62872216774757" lon="16.099703840804455"><ele>189.0</ele><time>2026-04-18T08:14:22.977Z</time></trkpt><trkpt lat="39.62873916524118" lon="16.099442124090803"><ele>189.33333333333334</ele><time>2026-04-18T08:14:23.977Z</time></trkpt><trkpt lat="39.62875810750743" lon="16.09918052278901"><ele>189.66666666666669</ele><time>2026-04-18T08:14:24.977Z</time></trkpt><trkpt lat="39.62877736936368" lon="16.098922740824012"><ele>190.0</ele><time>2026-04-18T08:14:25.977Z</time></trkpt><trkpt lat="39.628793943453815" lon="16.098684126413186"><ele>191.33333333333334</ele><time>2026-04-18T08:14:26.977Z</time></trkpt><trkpt lat="39.62880705189505" lon="16.098456162622814"><ele>192.66666666666669</ele><time>2026-04-18T08:14:27.977Z</time></trkpt><trkpt lat="39.628813733366506" lon="16.098243834545087"><ele>194.0</ele><time>2026-04-18T08:14:28.977Z</time></trkpt><trkpt lat="39.6288102343598" lon="16.098029769745583"><ele>196.66666666666669</ele><time>2026-04-18T08:14:29.977Z</time></trkpt><trkpt lat="39.62879757289765" lon="16.09780905529631"><ele>199.33333333333331</ele><time>2026-04-18T08:14:30.977Z</time></trkpt><trkpt lat="39.628749286594704" lon="16.09757200773377"><ele>202.0</ele><time>2026-04-18T08:14:31.977Z</time></trkpt><trkpt lat="39.62868633845891" lon="16.09732058942285"><ele>199.66666666666666</ele><time>2026-04-18T08:14:32.977Z</time></trkpt><trkpt lat="39.62862863859211" lon="16.097077583038956"><ele>197.33333333333331</ele><time>2026-04-18T08:14:33.977Z</time></trkpt><trkpt lat="39.62858058562287" lon="16.096857361907748"><ele>195.0</ele><time>2026-04-18T08:14:34.977Z</time></trkpt><trkpt lat="39.62852814893945" lon="16.096659783861483"><ele>196.0</ele><time>2026-04-18T08:14:35.977Z</time></trkpt><trkpt lat="39.62845141002067" lon="16.09647249796228"><ele>197.0</ele><time>2026-04-18T08:14:36.977Z</time></trkpt><trkpt lat="39.62834880237096" lon="16.096286689856637"><ele>198.0</ele><time>2026-04-18T08:14:37.977Z</time></trkpt><trkpt lat="39.628233872196475" lon="16.096098474164624"><ele>198.0</ele><time>2026-04-18T08:14:38.977Z</time></trkpt><trkpt lat="39.628115255630156" lon="16.09591670634817"><ele>198.0</ele><time>2026-04-18T08:14:39.977Z</time></trkpt><trkpt lat="39.62801139923969" lon="16.095717902576435"><ele>198.0</ele><time>2026-04-18T08:14:40.977Z</time></trkpt><trkpt lat="39.62789343418599" lon="16.095523991341448"><ele>198.33333333333331</ele><time>2026-04-18T08:14:41.977Z</time></trkpt><trkpt lat="39.627755916088645" lon="16.09533241975711"><ele>198.66666666666666</ele><time>2026-04-18T08:14:42.977Z</time></trkpt><trkpt lat="39.62764335649842" lon="16.095144253624138"><ele>199.0</ele><time>2026-04-18T08:14:43.977Z</time></trkpt><trkpt lat="39.62754067010504" lon="16.094971916575247"><ele>199.5</ele><time>2026-04-18T08:14:44.977Z</time></trkpt><trkpt lat="39.627461716937795" lon="16.09479898806183"><ele>200.0</ele><time>2026-04-18T08:14:45.977Z</time></trkpt><trkpt lat="39.62738822248329" lon="16.094658048788936"><ele>200.5</ele><time>2026-04-18T08:14:46.977Z</time></trkpt><trkpt lat="39.62734148460031" lon="16.09451525744257"><ele>201.0</ele><time>2026-04-18T08:14:47.977Z</time></trkpt><trkpt lat="39.62732130376734" lon="16.094362321101272"><ele>201.0</ele><time>2026-04-18T08:14:48.977Z</time></trkpt><trkpt lat="39.62732134420026" lon="16.094183979406722"><ele>201.0</ele><time>2026-04-18T08:14:49.977Z</time></trkpt><trkpt lat="39.62732974760764" lon="16.093973887508984"><ele>201.0</ele><time>2026-04-18T08:14:50.977Z</time></trkpt><trkpt lat="39.627327960982626" lon="16.09374629038949"><ele>202.0</ele><time>2026-04-18T08:14:51.977Z</time></trkpt><trkpt lat="39.62733799496028" lon="16.093501480303473"><ele>203.0</ele><time>2026-04-18T08:14:52.977Z</time></trkpt><trkpt lat="39.627363680853485" lon="16.093265836465953"><ele>204.0</ele><time>2026-04-18T08:14:53.977Z</time></trkpt><trkpt lat="39.627373222207154" lon="16.093050489144225"><ele>204.0</ele><time>2026-04-18T08:14:54.977Z</time></trkpt><trkpt lat="39.62736676255476" lon="16.09285564662185"><ele>204.0</ele><time>2026-04-18T08:14:55.977Z</time></trkpt><trkpt lat="39.62739800210697" lon="16.09267558542654"><ele>204.0</ele><time>2026-04-18T08:14:56.977Z</time></trkpt><trkpt lat="39.62743032882783" lon="16.092510820256518"><ele>204.0</ele><time>2026-04-18T08:14:57.977Z</time></trkpt><trkpt lat="39.627488233995535" lon="16.092365743510427"><ele>204.0</ele><time>2026-04-18T08:14:58.977Z</time></trkpt><trkpt lat="39.6275648031783" lon="16.092214153986813"><ele>204.0</ele><time>2026-04-18T08:14:59.977Z</time></trkpt><trkpt lat="39.62764880545935" lon="16.092058792481104"><ele>204.0</ele><time>2026-04-18T08:15:00.977Z</time></trkpt><trkpt lat="39.62772849115064" lon="16.09191857145666"><ele>204.0</ele><time>2026-04-18T08:15:01.977Z</time></trkpt><trkpt lat="39.62778631498555" lon="16.091766178783793"><ele>208.33333333333331</ele><time>2026-04-18T08:15:02.977Z</time></trkpt><trkpt lat="39.62783053640501" lon="16.09159063634547"><ele>212.66666666666666</ele><time>2026-04-18T08:15:03.977Z</time></trkpt><trkpt lat="39.62784830246809" lon="16.091391669978787"><ele>217.0</ele><time>2026-04-18T08:15:04.977Z</time></trkpt><trkpt lat="39.62785016573909" lon="16.091189307114576"><ele>218.0</ele><time>2026-04-18T08:15:05.977Z</time></trkpt><trkpt lat="39.62785034594876" lon="16.090971681240745"><ele>219.0</ele><time>2026-04-18T08:15:06.977Z</time></trkpt><trkpt lat="39.627870549423996" lon="16.09075854932838"><ele>220.0</ele><time>2026-04-18T08:15:07.977Z</time></trkpt><trkpt lat="39.62791655428459" lon="16.090549168712922"><ele>220.0</ele><time>2026-04-18T08:15:08.977Z</time></trkpt><trkpt lat="39.6279594126222" lon="16.09036300354026"><ele>220.0</ele><time>2026-04-18T08:15:09.977Z</time></trkpt><trkpt lat="39.62800623568148" lon="16.090186606330253"><ele>220.0</ele><time>2026-04-18T08:15:10.977Z</time></trkpt><trkpt lat="39.628086409913365" lon="16.090019944755507"><ele>220.0</ele><time>2026-04-18T08:15:11.977Z</time></trkpt><trkpt lat="39.62816057162067" lon="16.089846389030985"><ele>216.66666666666666</ele><time>2026-04-18T08:15:12.977Z</time></trkpt><trkpt lat="39.62824779718739" lon="16.089682861909125"><ele>213.33333333333331</ele><time>2026-04-18T08:15:13.977Z</time></trkpt><trkpt lat="39.62834851139971" lon="16.089514053830825"><ele>210.0</ele><time>2026-04-18T08:15:14.977Z</time></trkpt><trkpt lat="39.628438097746326" lon="16.089330722714617"><ele>210.0</ele><time>2026-04-18T08:15:15.977Z</time></trkpt><trkpt lat="39.628530448307686" lon="16.089175774680374"><ele>210.0</ele><time>2026-04-18T08:15:16.977Z</time></trkpt><trkpt lat="39.628613779501364" lon="16.089030995081096"><ele>210.0</ele><time>2026-04-18T08:15:17.977Z</time></trkpt><trkpt lat="39.6286944752109" lon="16.088880730212395"><ele>210.0</ele><time>2026-04-18T08:15:18.977Z</time></trkpt><trkpt lat="39.628766841753745" lon="16.088716048447303"><ele>212.66666666666669</ele><time>2026-04-18T08:15:19.977Z</time></trkpt><trkpt lat="39.628836978431416" lon="16.088530251101933"><ele>215.33333333333334</ele><time>2026-04-18T08:15:20.977Z</time></trkpt><trkpt lat="39.628905760138935" lon="16.088341834579044"><ele>218.0</ele><time>2026-04-18T08:15:21.977Z</time></trkpt><trkpt lat="39.62898110925503" lon="16.088142961612633"><ele>218.0</ele><time>2026-04-18T08:15:22.977Z</time></trkpt><trkpt lat="39.62905481962208" lon="16.087941730016443"><ele>218.0</ele><time>2026-04-18T08:15:23.977Z</time></trkpt><trkpt lat="39.629129299468424" lon="16.0877367419838"><ele>218.0</ele><time>2026-04-18T08:15:24.977Z</time></trkpt><trkpt lat="39.62920668988351" lon="16.0875230850436"><ele>216.0</ele><time>2026-04-18T08:15:25.977Z</time></trkpt><trkpt lat="39.62927871869033" lon="16.087328706371974"><ele>214.0</ele><time>2026-04-18T08:15:26.977Z</time></trkpt><trkpt lat="39.629346607358194" lon="16.087141941859866"><ele>212.0</ele><time>2026-04-18T08:15:27.977Z</time></trkpt><trkpt lat="39.629416478724686" lon="16.086947151414194"><ele>218.0</ele><time>2026-04-18T08:15:28.977Z</time></trkpt><trkpt lat="39.62948795198591" lon="16.086753307156613"><ele>224.0</ele><time>2026-04-18T08:15:29.977Z</time></trkpt><trkpt lat="39.62955440328267" lon="16.08657332811057"><ele>230.0</ele><time>2026-04-18T08:15:30.977Z</time></trkpt><trkpt lat="39.62961254402107" lon="16.086398793872377"><ele>230.0</ele><time>2026-04-18T08:15:31.977Z</time></trkpt><trkpt lat="39.62965736819317" lon="16.08621290140821"><ele>230.0</ele><time>2026-04-18T08:15:32.977Z</time></trkpt><trkpt lat="39.629677919877004" lon="16.085998483547286"><ele>230.0</ele><time>2026-04-18T08:15:33.977Z</time></trkpt><trkpt lat="39.62968950955773" lon="16.08579255589121"><ele>227.25</ele><time>2026-04-18T08:15:34.977Z</time></trkpt><trkpt lat="39.62969984704783" lon="16.08560317594878"><ele>224.5</ele><time>2026-04-18T08:15:35.977Z</time></trkpt><trkpt lat="39.62970541404499" lon="16.08542692094224"><ele>221.75</ele><time>2026-04-18T08:15:36.977Z</time></trkpt><trkpt lat="39.629701576542594" lon="16.08525575528641"><ele>219.0</ele><time>2026-04-18T08:15:37.977Z</time></trkpt><trkpt lat="39.62968429023017" lon="16.085090696292312"><ele>219.0</ele><time>2026-04-18T08:15:38.977Z</time></trkpt><trkpt lat="39.62965567058411" lon="16.08493705834496"><ele>218.99999999999997</ele><time>2026-04-18T08:15:39.977Z</time></trkpt><trkpt lat="39.629625818163426" lon="16.084807946918897"><ele>218.99999999999997</ele><time>2026-04-18T08:15:40.977Z</time></trkpt><trkpt lat="39.62960024503401" lon="16.084703401657674"><ele>219.0</ele><time>2026-04-18T08:15:41.977Z</time></trkpt><trkpt lat="39.6295626668587" lon="16.08455526407233"><ele>219.0</ele><time>2026-04-18T08:15:43.977Z</time></trkpt><trkpt lat="39.62955290054424" lon="16.084440622985323"><ele>217.2</ele><time>2026-04-18T08:15:45.977Z</time></trkpt><trkpt lat="39.62939500137642" lon="16.08439333107294"><ele>215.39999999999998</ele><time>2026-04-18T08:15:47.977Z</time></trkpt><trkpt lat="39.62931623329055" lon="16.084396350200358"><ele>213.6</ele><time>2026-04-18T08:15:48.977Z</time></trkpt><trkpt lat="39.629231256069474" lon="16.08441743886551"><ele>211.8</ele><time>2026-04-18T08:15:49.977Z</time></trkpt><trkpt lat="39.62913598385317" lon="16.08444521538199"><ele>210.0</ele><time>2026-04-18T08:15:50.977Z</time></trkpt><trkpt lat="39.62905446953898" lon="16.084463077360923"><ele>210.0</ele><time>2026-04-18T08:15:51.977Z</time></trkpt><trkpt lat="39.62896976132003" lon="16.08447588599848"><ele>210.0</ele><time>2026-04-18T08:15:52.977Z</time></trkpt><trkpt lat="39.62886219299948" lon="16.08448776467032"><ele>210.0</ele><time>2026-04-18T08:15:53.977Z</time></trkpt><trkpt lat="39.62874894684415" lon="16.084498934412252"><ele>210.0</ele><time>2026-04-18T08:15:54.977Z</time></trkpt><trkpt lat="39.628635628416944" lon="16.08451302764867"><ele>210.0</ele><time>2026-04-18T08:15:55.977Z</time></trkpt><trkpt lat="39.62852373477286" lon="16.08453047036589"><ele>210.25</ele><time>2026-04-18T08:15:56.977Z</time></trkpt><trkpt lat="39.62839976454624" lon="16.08455096546676"><ele>210.5</ele><time>2026-04-18T08:15:57.977Z</time></trkpt><trkpt lat="39.62826422980247" lon="16.08457409327764"><ele>210.75</ele><time>2026-04-18T08:15:58.977Z</time></trkpt><trkpt lat="39.628122289952344" lon="16.084598157151582"><ele>211.0</ele><time>2026-04-18T08:15:59.977Z</time></trkpt><trkpt lat="39.62798779902406" lon="16.084620881848423"><ele>211.0</ele><time>2026-04-18T08:16:00.977Z</time></trkpt><trkpt lat="39.62785453354201" lon="16.08464028875829"><ele>211.0</ele><time>2026-04-18T08:16:01.977Z</time></trkpt><trkpt lat="39.62771656755273" lon="16.084659731380793"><ele>211.0</ele><time>2026-04-18T08:16:02.977Z</time></trkpt><trkpt lat="39.62756734075789" lon="16.084678685391683"><ele>211.0</ele><time>2026-04-18T08:16:03.977Z</time></trkpt><trkpt lat="39.62741523785928" lon="16.08469892341695"><ele>211.66666666666666</ele><time>2026-04-18T08:16:04.977Z</time></trkpt><trkpt lat="39.6272614572238" lon="16.08472029328177"><ele>212.33333333333331</ele><time>2026-04-18T08:16:05.977Z</time></trkpt><trkpt lat="39.62711083277436" lon="16.084740881058117"><ele>213.0</ele><time>2026-04-18T08:16:06.977Z</time></trkpt><trkpt lat="39.62695963075516" lon="16.084761602608477"><ele>213.0</ele><time>2026-04-18T08:16:07.977Z</time></trkpt><trkpt lat="39.62681166099078" lon="16.084781208496782"><ele>213.0</ele><time>2026-04-18T08:16:08.977Z</time></trkpt><trkpt lat="39.62666993387388" lon="16.084800455445315"><ele>213.0</ele><time>2026-04-18T08:16:09.977Z</time></trkpt><trkpt lat="39.626530910849375" lon="16.084828734314417"><ele>213.0</ele><time>2026-04-18T08:16:10.977Z</time></trkpt><trkpt lat="39.626379148067926" lon="16.084849354788552"><ele>213.0</ele><time>2026-04-18T08:16:11.977Z</time></trkpt><trkpt lat="39.62623407166838" lon="16.084875076404128"><ele>213.0</ele><time>2026-04-18T08:16:12.977Z</time></trkpt><trkpt lat="39.62607821050215" lon="16.084896835192648"><ele>213.0</ele><time>2026-04-18T08:16:13.977Z</time></trkpt><trkpt lat="39.625926954350035" lon="16.084919463078442"><ele>212.0</ele><time>2026-04-18T08:16:14.977Z</time></trkpt><trkpt lat="39.62577839104259" lon="16.084944624404955"><ele>211.0</ele><time>2026-04-18T08:16:15.977Z</time></trkpt><trkpt lat="39.62565512663168" lon="16.084965642264148"><ele>210.0</ele><time>2026-04-18T08:16:16.977Z</time></trkpt><trkpt lat="39.625545420054706" lon="16.08498530684066"><ele>209.0</ele><time>2026-04-18T08:16:17.977Z</time></trkpt><trkpt lat="39.625439086136645" lon="16.08499298251775"><ele>209.0</ele><time>2026-04-18T08:16:18.977Z</time></trkpt><trkpt lat="39.62532318514557" lon="16.08498614544958"><ele>209.0</ele><time>2026-04-18T08:16:19.977Z</time></trkpt><trkpt lat="39.62520092868591" lon="16.084922260285765"><ele>209.0</ele><time>2026-04-18T08:16:20.977Z</time></trkpt><trkpt lat="39.625108258078164" lon="16.084839820459006"><ele>209.0</ele><time>2026-04-18T08:16:21.977Z</time></trkpt><trkpt lat="39.625025309741204" lon="16.084707251348412"><ele>211.0</ele><time>2026-04-18T08:16:22.977Z</time></trkpt><trkpt lat="39.624958869717595" lon="16.08454333985006"><ele>213.0</ele><time>2026-04-18T08:16:23.977Z</time></trkpt><trkpt lat="39.62489543925149" lon="16.084373871916366"><ele>215.0</ele><time>2026-04-18T08:16:24.977Z</time></trkpt><trkpt lat="39.62483105818842" lon="16.084214631690912"><ele>217.0</ele><time>2026-04-18T08:16:25.976Z</time></trkpt><trkpt lat="39.62475648832121" lon="16.084049155020306"><ele>219.75</ele><time>2026-04-18T08:16:26.976Z</time></trkpt><trkpt lat="39.62468891086169" lon="16.08388734766962"><ele>222.5</ele><time>2026-04-18T08:16:27.976Z</time></trkpt><trkpt lat="39.624622415746984" lon="16.08373195517709"><ele>225.25</ele><time>2026-04-18T08:16:28.976Z</time></trkpt><trkpt lat="39.624554903272184" lon="16.08357431131363"><ele>228.0</ele><time>2026-04-18T08:16:29.976Z</time></trkpt><trkpt lat="39.62448580936924" lon="16.08340947241792"><ele>225.25</ele><time>2026-04-18T08:16:30.976Z</time></trkpt><trkpt lat="39.6244221912137" lon="16.083249716337665"><ele>222.5</ele><time>2026-04-18T08:16:31.976Z</time></trkpt><trkpt lat="39.62436376704192" lon="16.08309872097137"><ele>219.75</ele><time>2026-04-18T08:16:32.976Z</time></trkpt><trkpt lat="39.62429630438162" lon="16.082945636012965"><ele>217.0</ele><time>2026-04-18T08:16:33.976Z</time></trkpt><trkpt lat="39.62421634966188" lon="16.082792993173985"><ele>217.0</ele><time>2026-04-18T08:16:34.976Z</time></trkpt><trkpt lat="39.62412738250679" lon="16.08264655294685"><ele>217.0</ele><time>2026-04-18T08:16:35.976Z</time></trkpt><trkpt lat="39.624029947431964" lon="16.082491944757077"><ele>217.0</ele><time>2026-04-18T08:16:36.976Z</time></trkpt><trkpt lat="39.623925751977225" lon="16.082335540866065"><ele>214.66666666666666</ele><time>2026-04-18T08:16:37.976Z</time></trkpt><trkpt lat="39.62381420815664" lon="16.082170261587276"><ele>212.33333333333331</ele><time>2026-04-18T08:16:38.976Z</time></trkpt><trkpt lat="39.62367653129141" lon="16.08196709046605"><ele>210.0</ele><time>2026-04-18T08:16:39.976Z</time></trkpt><trkpt lat="39.623540372546316" lon="16.081766514052706"><ele>212.0</ele><time>2026-04-18T08:16:40.976Z</time></trkpt><trkpt lat="39.6234066830993" lon="16.081560243685523"><ele>214.0</ele><time>2026-04-18T08:16:41.976Z</time></trkpt><trkpt lat="39.62329164387232" lon="16.081378660713742"><ele>216.0</ele><time>2026-04-18T08:16:42.976Z</time></trkpt><trkpt lat="39.623176952723554" lon="16.081205209975383"><ele>216.0</ele><time>2026-04-18T08:16:43.976Z</time></trkpt><trkpt lat="39.62306173385165" lon="16.081035995219775"><ele>216.0</ele><time>2026-04-18T08:16:44.976Z</time></trkpt><trkpt lat="39.62295249406225" lon="16.080859281861272"><ele>216.0</ele><time>2026-04-18T08:16:45.976Z</time></trkpt><trkpt lat="39.622844457898545" lon="16.080683101572905"><ele>215.33333333333331</ele><time>2026-04-18T08:16:46.976Z</time></trkpt><trkpt lat="39.62273675667794" lon="16.080517395993176"><ele>214.66666666666666</ele><time>2026-04-18T08:16:47.976Z</time></trkpt><trkpt lat="39.62262596058762" lon="16.08034566443904"><ele>214.0</ele><time>2026-04-18T08:16:48.976Z</time></trkpt><trkpt lat="39.62251998079197" lon="16.08018005193495"><ele>214.0</ele><time>2026-04-18T08:16:49.976Z</time></trkpt><trkpt lat="39.622416640164666" lon="16.08001562859968"><ele>214.0</ele><time>2026-04-18T08:16:50.976Z</time></trkpt><trkpt lat="39.62231360124676" lon="16.079845639740736"><ele>214.0</ele><time>2026-04-18T08:16:51.976Z</time></trkpt><trkpt lat="39.622205295032835" lon="16.07967249698304"><ele>214.33333333333331</ele><time>2026-04-18T08:16:52.976Z</time></trkpt><trkpt lat="39.62209261212759" lon="16.079498466135806"><ele>214.66666666666669</ele><time>2026-04-18T08:16:53.976Z</time></trkpt><trkpt lat="39.621976843016796" lon="16.079322008818355"><ele>215.0</ele><time>2026-04-18T08:16:54.976Z</time></trkpt><trkpt lat="39.621856445371556" lon="16.079143411333575"><ele>214.66666666666669</ele><time>2026-04-18T08:16:55.976Z</time></trkpt><trkpt lat="39.621735331905995" lon="16.078964500646144"><ele>214.33333333333331</ele><time>2026-04-18T08:16:56.976Z</time></trkpt><trkpt lat="39.62162598722263" lon="16.078800879920095"><ele>214.0</ele><time>2026-04-18T08:16:57.976Z</time></trkpt><trkpt lat="39.62152074943205" lon="16.078642100835708"><ele>214.0</ele><time>2026-04-18T08:16:58.976Z</time></trkpt><trkpt lat="39.621419395464066" lon="16.07848119873644"><ele>214.0</ele><time>2026-04-18T08:16:59.977Z</time></trkpt><trkpt lat="39.621308824472" lon="16.078307626403422"><ele>214.0</ele><time>2026-04-18T08:17:00.977Z</time></trkpt><trkpt lat="39.62119692723628" lon="16.078132570164204"><ele>214.66666666666666</ele><time>2026-04-18T08:17:01.977Z</time></trkpt><trkpt lat="39.62108058433017" lon="16.077954139952986"><ele>215.33333333333331</ele><time>2026-04-18T08:17:02.977Z</time></trkpt><trkpt lat="39.62095661536079" lon="16.077764083553863"><ele>216.0</ele><time>2026-04-18T08:17:03.977Z</time></trkpt><trkpt lat="39.62083133219171" lon="16.07757275316369"><ele>216.33333333333331</ele><time>2026-04-18T08:17:04.977Z</time></trkpt><trkpt lat="39.62070129157895" lon="16.0773756217326"><ele>216.66666666666666</ele><time>2026-04-18T08:17:05.977Z</time></trkpt><trkpt lat="39.62056858215534" lon="16.077176408573056"><ele>217.0</ele><time>2026-04-18T08:17:06.977Z</time></trkpt><trkpt lat="39.620439920076485" lon="16.07698155728539"><ele>217.0</ele><time>2026-04-18T08:17:07.977Z</time></trkpt><trkpt lat="39.62032369271386" lon="16.07679883578494"><ele>217.0</ele><time>2026-04-18T08:17:08.977Z</time></trkpt><trkpt lat="39.620209969366165" lon="16.076615544098065"><ele>217.0</ele><time>2026-04-18T08:17:09.977Z</time></trkpt><trkpt lat="39.62009889992853" lon="16.07643725665212"><ele>217.66666666666666</ele><time>2026-04-18T08:17:10.977Z</time></trkpt><trkpt lat="39.6199836716582" lon="16.076256669748282"><ele>218.33333333333331</ele><time>2026-04-18T08:17:11.977Z</time></trkpt><trkpt lat="39.619870244344284" lon="16.07607929248684"><ele>219.0</ele><time>2026-04-18T08:17:12.977Z</time></trkpt><trkpt lat="39.6197539811525" lon="16.07590562712124"><ele>219.33333333333331</ele><time>2026-04-18T08:17:13.977Z</time></trkpt><trkpt lat="39.619633573233216" lon="16.075724307796587"><ele>219.66666666666666</ele><time>2026-04-18T08:17:14.977Z</time></trkpt><trkpt lat="39.61951471007924" lon="16.07554441756231"><ele>220.0</ele><time>2026-04-18T08:17:15.977Z</time></trkpt><trkpt lat="39.61940730481156" lon="16.075375470312967"><ele>220.0</ele><time>2026-04-18T08:17:16.977Z</time></trkpt><trkpt lat="39.61930180830637" lon="16.07520008491765"><ele>220.0</ele><time>2026-04-18T08:17:17.977Z</time></trkpt><trkpt lat="39.61919887717499" lon="16.075010717399635"><ele>220.0</ele><time>2026-04-18T08:17:18.977Z</time></trkpt><trkpt lat="39.61909626152331" lon="16.074816143605236"><ele>219.33333333333331</ele><time>2026-04-18T08:17:19.977Z</time></trkpt><trkpt lat="39.618997725356024" lon="16.074618702994627"><ele>218.66666666666669</ele><time>2026-04-18T08:17:20.977Z</time></trkpt><trkpt lat="39.61891049794505" lon="16.07443218862039"><ele>218.0</ele><time>2026-04-18T08:17:21.977Z</time></trkpt><trkpt lat="39.618832332214666" lon="16.07424714701859"><ele>218.25</ele><time>2026-04-18T08:17:22.977Z</time></trkpt><trkpt lat="39.61876074414779" lon="16.074071801168337"><ele>218.5</ele><time>2026-04-18T08:17:23.977Z</time></trkpt><trkpt lat="39.61869115099651" lon="16.073906892524104"><ele>218.75</ele><time>2026-04-18T08:17:24.977Z</time></trkpt><trkpt lat="39.61861366209146" lon="16.073760211782147"><ele>219.0</ele><time>2026-04-18T08:17:25.976Z</time></trkpt><trkpt lat="39.61852457856325" lon="16.073649459086575"><ele>219.75</ele><time>2026-04-18T08:17:26.976Z</time></trkpt><trkpt lat="39.61841413444757" lon="16.07356657739511"><ele>220.5</ele><time>2026-04-18T08:17:27.976Z</time></trkpt><trkpt lat="39.61827891993108" lon="16.07351321407864"><ele>221.25</ele><time>2026-04-18T08:17:28.976Z</time></trkpt><trkpt lat="39.61812810428992" lon="16.07348479284779"><ele>222.0</ele><time>2026-04-18T08:17:29.976Z</time></trkpt><trkpt lat="39.61797869470463" lon="16.073438600070634"><ele>222.0</ele><time>2026-04-18T08:17:30.976Z</time></trkpt><trkpt lat="39.61784448507005" lon="16.073380481562964"><ele>222.0</ele><time>2026-04-18T08:17:31.976Z</time></trkpt><trkpt lat="39.617725045636526" lon="16.07330979336567"><ele>222.0</ele><time>2026-04-18T08:17:32.976Z</time></trkpt><trkpt lat="39.61762383488807" lon="16.0732196418415"><ele>222.0</ele><time>2026-04-18T08:17:33.976Z</time></trkpt><trkpt lat="39.617516487002895" lon="16.07310232980445"><ele>222.0</ele><time>2026-04-18T08:17:34.975Z</time></trkpt><trkpt lat="39.61739788318656" lon="16.07296781978156"><ele>222.0</ele><time>2026-04-18T08:17:35.975Z</time></trkpt><trkpt lat="39.61728432979398" lon="16.07284598621302"><ele>222.0</ele><time>2026-04-18T08:17:36.975Z</time></trkpt><trkpt lat="39.6171632423397" lon="16.072721047745052"><ele>222.0</ele><time>2026-04-18T08:17:37.975Z</time></trkpt><trkpt lat="39.61703414114028" lon="16.072590758306863"><ele>222.0</ele><time>2026-04-18T08:17:38.975Z</time></trkpt><trkpt lat="39.61690384775234" lon="16.07245297237715"><ele>222.0</ele><time>2026-04-18T08:17:39.975Z</time></trkpt><trkpt lat="39.61677476808831" lon="16.072311034182707"><ele>222.0</ele><time>2026-04-18T08:17:40.975Z</time></trkpt><trkpt lat="39.616650087029896" lon="16.07217829977537"><ele>222.0</ele><time>2026-04-18T08:17:41.975Z</time></trkpt><trkpt lat="39.616514345620864" lon="16.072037390943617"><ele>222.0</ele><time>2026-04-18T08:17:42.975Z</time></trkpt><trkpt lat="39.61638319652276" lon="16.071901638344674"><ele>222.0</ele><time>2026-04-18T08:17:43.975Z</time></trkpt><trkpt lat="39.61625991967933" lon="16.071775376895012"><ele>222.0</ele><time>2026-04-18T08:17:44.975Z</time></trkpt><trkpt lat="39.61614294225977" lon="16.0716525428734"><ele>222.0</ele><time>2026-04-18T08:17:45.975Z</time></trkpt><trkpt lat="39.61602473185751" lon="16.071530587794975"><ele>222.75</ele><time>2026-04-18T08:17:46.975Z</time></trkpt><trkpt lat="39.61590548866234" lon="16.071412040507546"><ele>223.5</ele><time>2026-04-18T08:17:47.975Z</time></trkpt><trkpt lat="39.61579382164278" lon="16.07129367500902"><ele>224.25</ele><time>2026-04-18T08:17:48.975Z</time></trkpt><trkpt lat="39.61568719835009" lon="16.07115910937963"><ele>225.0</ele><time>2026-04-18T08:17:49.975Z</time></trkpt><trkpt lat="39.61558912413707" lon="16.07099499668888"><ele>225.0</ele><time>2026-04-18T08:17:50.975Z</time></trkpt><trkpt lat="39.61547910077787" lon="16.070797528462702"><ele>225.0</ele><time>2026-04-18T08:17:51.975Z</time></trkpt><trkpt lat="39.61536717251296" lon="16.070589597861307"><ele>225.0</ele><time>2026-04-18T08:17:52.975Z</time></trkpt><trkpt lat="39.6152603532752" lon="16.070403898505067"><ele>225.33333333333331</ele><time>2026-04-18T08:17:53.975Z</time></trkpt><trkpt lat="39.61516107392872" lon="16.07023216757207"><ele>225.66666666666666</ele><time>2026-04-18T08:17:54.975Z</time></trkpt><trkpt lat="39.61505862378986" lon="16.070051686790315"><ele>226.0</ele><time>2026-04-18T08:17:55.975Z</time></trkpt><trkpt lat="39.614953034194876" lon="16.069867260288774"><ele>226.66666666666666</ele><time>2026-04-18T08:17:56.975Z</time></trkpt><trkpt lat="39.614843912685586" lon="16.069690778246585"><ele>227.33333333333331</ele><time>2026-04-18T08:17:57.975Z</time></trkpt><trkpt lat="39.61473123694084" lon="16.069502952558462"><ele>228.0</ele><time>2026-04-18T08:17:58.975Z</time></trkpt><trkpt lat="39.61462179519963" lon="16.069312341075385"><ele>228.0</ele><time>2026-04-18T08:17:59.975Z</time></trkpt><trkpt lat="39.614518468547864" lon="16.069137184998368"><ele>228.0</ele><time>2026-04-18T08:18:00.975Z</time></trkpt><trkpt lat="39.61441640121495" lon="16.068969540277973"><ele>228.0</ele><time>2026-04-18T08:18:01.975Z</time></trkpt><trkpt lat="39.61431362657005" lon="16.068798836136086"><ele>228.66666666666669</ele><time>2026-04-18T08:18:02.975Z</time></trkpt><trkpt lat="39.61420764868454" lon="16.068620842277337"><ele>229.33333333333334</ele><time>2026-04-18T08:18:03.975Z</time></trkpt><trkpt lat="39.614102964924164" lon="16.06843954105638"><ele>230.0</ele><time>2026-04-18T08:18:04.975Z</time></trkpt><trkpt lat="39.61399884902344" lon="16.068250373498028"><ele>230.33333333333334</ele><time>2026-04-18T08:18:05.975Z</time></trkpt><trkpt lat="39.61389429113757" lon="16.06806310935106"><ele>230.66666666666669</ele><time>2026-04-18T08:18:06.975Z</time></trkpt><trkpt lat="39.61378425228786" lon="16.067876071408055"><ele>231.0</ele><time>2026-04-18T08:18:07.975Z</time></trkpt><trkpt lat="39.613673761511954" lon="16.06770317418722"><ele>230.66666666666669</ele><time>2026-04-18T08:18:08.975Z</time></trkpt><trkpt lat="39.61356621267588" lon="16.06754292708091"><ele>230.33333333333334</ele><time>2026-04-18T08:18:09.975Z</time></trkpt><trkpt lat="39.61345840251184" lon="16.067392672730023"><ele>230.0</ele><time>2026-04-18T08:18:10.975Z</time></trkpt><trkpt lat="39.61335737728221" lon="16.067255191663527"><ele>231.0</ele><time>2026-04-18T08:18:11.975Z</time></trkpt><trkpt lat="39.6132555787605" lon="16.067119202811917"><ele>232.0</ele><time>2026-04-18T08:18:12.975Z</time></trkpt><trkpt lat="39.61315152305834" lon="16.06697626942511"><ele>233.0</ele><time>2026-04-18T08:18:13.975Z</time></trkpt><trkpt lat="39.61303800967087" lon="16.066829727086866"><ele>233.0</ele><time>2026-04-18T08:18:14.975Z</time></trkpt><trkpt lat="39.612922712923975" lon="16.066681676614596"><ele>233.0</ele><time>2026-04-18T08:18:15.975Z</time></trkpt><trkpt lat="39.61280921127083" lon="16.0665303423118"><ele>233.0</ele><time>2026-04-18T08:18:16.975Z</time></trkpt><trkpt lat="39.612690951931704" lon="16.06637047077346"><ele>233.66666666666669</ele><time>2026-04-18T08:18:17.975Z</time></trkpt><trkpt lat="39.61257242393657" lon="16.066204982392016"><ele>234.33333333333331</ele><time>2026-04-18T08:18:18.975Z</time></trkpt><trkpt lat="39.61245630382151" lon="16.066042370578337"><ele>235.0</ele><time>2026-04-18T08:18:19.975Z</time></trkpt><trkpt lat="39.61233197586674" lon="16.065874482364674"><ele>235.33333333333331</ele><time>2026-04-18T08:18:20.975Z</time></trkpt><trkpt lat="39.612200199319" lon="16.065699484067707"><ele>235.66666666666669</ele><time>2026-04-18T08:18:21.975Z</time></trkpt><trkpt lat="39.61207128105292" lon="16.065527829643568"><ele>236.0</ele><time>2026-04-18T08:18:22.975Z</time></trkpt><trkpt lat="39.61194689031458" lon="16.065359400621713"><ele>236.0</ele><time>2026-04-18T08:18:23.975Z</time></trkpt><trkpt lat="39.61182126782097" lon="16.065186306763845"><ele>236.0</ele><time>2026-04-18T08:18:24.975Z</time></trkpt><trkpt lat="39.611692956102395" lon="16.06501141133755"><ele>236.0</ele><time>2026-04-18T08:18:25.975Z</time></trkpt><trkpt lat="39.61156458957712" lon="16.064839014141082"><ele>237.0</ele><time>2026-04-18T08:18:26.975Z</time></trkpt><trkpt lat="39.611447762569526" lon="16.064681233764805"><ele>238.0</ele><time>2026-04-18T08:18:27.975Z</time></trkpt><trkpt lat="39.61132987328103" lon="16.064519445243675"><ele>239.0</ele><time>2026-04-18T08:18:28.975Z</time></trkpt><trkpt lat="39.6112198213808" lon="16.064364571207783"><ele>238.66666666666669</ele><time>2026-04-18T08:18:29.975Z</time></trkpt><trkpt lat="39.611104167107996" lon="16.064210685889115"><ele>238.33333333333331</ele><time>2026-04-18T08:18:30.975Z</time></trkpt><trkpt lat="39.61098221662536" lon="16.064055313582013"><ele>238.0</ele><time>2026-04-18T08:18:31.975Z</time></trkpt><trkpt lat="39.61085989872348" lon="16.063888901593234"><ele>238.66666666666666</ele><time>2026-04-18T08:18:32.975Z</time></trkpt><trkpt lat="39.61073868497219" lon="16.06372289402259"><ele>239.33333333333331</ele><time>2026-04-18T08:18:33.975Z</time></trkpt><trkpt lat="39.6106141750345" lon="16.063558675486156"><ele>240.0</ele><time>2026-04-18T08:18:34.975Z</time></trkpt><trkpt lat="39.61049221988642" lon="16.063393363863582"><ele>240.66666666666669</ele><time>2026-04-18T08:18:35.975Z</time></trkpt><trkpt lat="39.61037615774329" lon="16.06323601863046"><ele>241.33333333333334</ele><time>2026-04-18T08:18:36.975Z</time></trkpt><trkpt lat="39.61026725459266" lon="16.063089599147556"><ele>242.0</ele><time>2026-04-18T08:18:37.975Z</time></trkpt><trkpt lat="39.61016275032059" lon="16.062947078488982"><ele>242.0</ele><time>2026-04-18T08:18:38.975Z</time></trkpt><trkpt lat="39.61005648051195" lon="16.062800429087105"><ele>242.0</ele><time>2026-04-18T08:18:39.975Z</time></trkpt><trkpt lat="39.60995579802468" lon="16.062662769316614"><ele>242.0</ele><time>2026-04-18T08:18:40.975Z</time></trkpt><trkpt lat="39.6098587119602" lon="16.062525912261847"><ele>242.0</ele><time>2026-04-18T08:18:41.975Z</time></trkpt><trkpt lat="39.609760088998605" lon="16.0623911088228"><ele>242.0</ele><time>2026-04-18T08:18:42.975Z</time></trkpt><trkpt lat="39.60966415275371" lon="16.06226404839286"><ele>242.0</ele><time>2026-04-18T08:18:43.975Z</time></trkpt><trkpt lat="39.60956856999565" lon="16.062138204549"><ele>242.0</ele><time>2026-04-18T08:18:44.975Z</time></trkpt><trkpt lat="39.60946778091828" lon="16.06199929366104"><ele>242.0</ele><time>2026-04-18T08:18:45.975Z</time></trkpt><trkpt lat="39.609361800496195" lon="16.061845852145524"><ele>242.0</ele><time>2026-04-18T08:18:46.975Z</time></trkpt><trkpt lat="39.609253408924296" lon="16.06168600457935"><ele>242.0</ele><time>2026-04-18T08:18:47.975Z</time></trkpt><trkpt lat="39.60916365123916" lon="16.061553457136167"><ele>242.0</ele><time>2026-04-18T08:18:48.975Z</time></trkpt><trkpt lat="39.60908661549239" lon="16.06144799396221"><ele>242.0</ele><time>2026-04-18T08:18:49.975Z</time></trkpt><trkpt lat="39.60902098034942" lon="16.061359679847378"><ele>242.66666666666669</ele><time>2026-04-18T08:18:50.975Z</time></trkpt><trkpt lat="39.60897154600641" lon="16.061272641536185"><ele>243.33333333333334</ele><time>2026-04-18T08:18:51.975Z</time></trkpt><trkpt lat="39.60894159582842" lon="16.06117280523137"><ele>244.0</ele><time>2026-04-18T08:18:52.975Z</time></trkpt><trkpt lat="39.60893663286702" lon="16.061068310548958"><ele>244.66666666666669</ele><time>2026-04-18T08:18:53.975Z</time></trkpt><trkpt lat="39.6089568276182" lon="16.060956920302925"><ele>245.33333333333334</ele><time>2026-04-18T08:18:54.975Z</time></trkpt><trkpt lat="39.60901030153263" lon="16.060864929764964"><ele>246.0</ele><time>2026-04-18T08:18:55.975Z</time></trkpt><trkpt lat="39.60908409187559" lon="16.060794558789055"><ele>246.4</ele><time>2026-04-18T08:18:56.975Z</time></trkpt><trkpt lat="39.60917655438769" lon="16.060734884401324"><ele>246.8</ele><time>2026-04-18T08:18:57.975Z</time></trkpt><trkpt lat="39.60926972329144" lon="16.06067583737273"><ele>247.20000000000002</ele><time>2026-04-18T08:18:58.975Z</time></trkpt><trkpt lat="39.609366533144645" lon="16.060610068690345"><ele>247.60000000000002</ele><time>2026-04-18T08:18:59.975Z</time></trkpt><trkpt lat="39.60947532452009" lon="16.06053902239241"><ele>248.0</ele><time>2026-04-18T08:19:00.975Z</time></trkpt><trkpt lat="39.60959341433012" lon="16.060478469070546"><ele>249.4</ele><time>2026-04-18T08:19:01.975Z</time></trkpt><trkpt lat="39.609703392004796" lon="16.06044363285101"><ele>250.8</ele><time>2026-04-18T08:19:02.975Z</time></trkpt><trkpt lat="39.60980141589042" lon="16.06042104370937"><ele>252.2</ele><time>2026-04-18T08:19:03.975Z</time></trkpt><trkpt lat="39.609903530984575" lon="16.060407907789326"><ele>253.6</ele><time>2026-04-18T08:19:04.975Z</time></trkpt><trkpt lat="39.61001786814609" lon="16.060406851588237"><ele>255.0</ele><time>2026-04-18T08:19:05.975Z</time></trkpt><trkpt lat="39.610146991001905" lon="16.060409317867354"><ele>255.0</ele><time>2026-04-18T08:19:06.975Z</time></trkpt><trkpt lat="39.61028669703725" lon="16.06042801957166"><ele>255.0</ele><time>2026-04-18T08:19:07.975Z</time></trkpt><trkpt lat="39.61042991492646" lon="16.060468220144834"><ele>255.0</ele><time>2026-04-18T08:19:08.975Z</time></trkpt><trkpt lat="39.61057047123966" lon="16.06051681375558"><ele>255.0</ele><time>2026-04-18T08:19:09.975Z</time></trkpt><trkpt lat="39.61069912324389" lon="16.060566310811712"><ele>254.5</ele><time>2026-04-18T08:19:10.975Z</time></trkpt><trkpt lat="39.61080219284139" lon="16.060628752187334"><ele>254.0</ele><time>2026-04-18T08:19:11.975Z</time></trkpt><trkpt lat="39.61091040884179" lon="16.060687056296292"><ele>253.5</ele><time>2026-04-18T08:19:12.975Z</time></trkpt><trkpt lat="39.6110184308011" lon="16.060756477275174"><ele>253.0</ele><time>2026-04-18T08:19:13.975Z</time></trkpt><trkpt lat="39.61111950873193" lon="16.06084837528147"><ele>255.0</ele><time>2026-04-18T08:19:14.975Z</time></trkpt><trkpt lat="39.611216743303515" lon="16.060968468416032"><ele>257.0</ele><time>2026-04-18T08:19:15.975Z</time></trkpt><trkpt lat="39.61131389943028" lon="16.06110527949956"><ele>259.0</ele><time>2026-04-18T08:19:16.975Z</time></trkpt><trkpt lat="39.611413788624645" lon="16.06125257123045"><ele>261.0</ele><time>2026-04-18T08:19:17.975Z</time></trkpt><trkpt lat="39.61149950110901" lon="16.061382471808642"><ele>261.0</ele><time>2026-04-18T08:19:18.975Z</time></trkpt><trkpt lat="39.611584303737054" lon="16.061512574285647"><ele>261.0</ele><time>2026-04-18T08:19:19.975Z</time></trkpt><trkpt lat="39.611672988190655" lon="16.06164638521623"><ele>261.0</ele><time>2026-04-18T08:19:20.975Z</time></trkpt><trkpt lat="39.61176277081536" lon="16.06178671620524"><ele>261.0</ele><time>2026-04-18T08:19:21.975Z</time></trkpt><trkpt lat="39.6118496530744" lon="16.061927326849375"><ele>261.25</ele><time>2026-04-18T08:19:22.975Z</time></trkpt><trkpt lat="39.61192336196998" lon="16.062056140275853"><ele>261.5</ele><time>2026-04-18T08:19:23.975Z</time></trkpt><trkpt lat="39.61199539119507" lon="16.062173457080807"><ele>261.75</ele><time>2026-04-18T08:19:24.975Z</time></trkpt><trkpt lat="39.61206977312719" lon="16.06228804383733"><ele>262.0</ele><time>2026-04-18T08:19:25.975Z</time></trkpt><trkpt lat="39.61215338104885" lon="16.062393251960458"><ele>260.75</ele><time>2026-04-18T08:19:26.975Z</time></trkpt><trkpt lat="39.61226027326895" lon="16.062488369930215"><ele>259.5</ele><time>2026-04-18T08:19:27.975Z</time></trkpt><trkpt lat="39.61238013238752" lon="16.06257380000157"><ele>258.25</ele><time>2026-04-18T08:19:28.975Z</time></trkpt><trkpt lat="39.61250268510587" lon="16.062628389184447"><ele>257.0</ele><time>2026-04-18T08:19:29.975Z</time></trkpt><trkpt lat="39.612614626701664" lon="16.062655196105766"><ele>257.0</ele><time>2026-04-18T08:19:30.975Z</time></trkpt><trkpt lat="39.612724579582014" lon="16.062655424994958"><ele>257.0</ele><time>2026-04-18T08:19:31.975Z</time></trkpt><trkpt lat="39.61283812944032" lon="16.062633508297022"><ele>257.0</ele><time>2026-04-18T08:19:32.975Z</time></trkpt><trkpt lat="39.61295394792505" lon="16.06258842107772"><ele>257.0</ele><time>2026-04-18T08:19:33.975Z</time></trkpt><trkpt lat="39.6130696912414" lon="16.06252286125205"><ele>258.5</ele><time>2026-04-18T08:19:34.975Z</time></trkpt><trkpt lat="39.613171667008345" lon="16.062424909414077"><ele>260.0</ele><time>2026-04-18T08:19:35.975Z</time></trkpt><trkpt lat="39.61326317974827" lon="16.06230775218216"><ele>261.5</ele><time>2026-04-18T08:19:36.975Z</time></trkpt><trkpt lat="39.613344535779945" lon="16.062178143970936"><ele>263.0</ele><time>2026-04-18T08:19:37.975Z</time></trkpt><trkpt lat="39.61340983103359" lon="16.062038765728005"><ele>263.0</ele><time>2026-04-18T08:19:38.975Z</time></trkpt><trkpt lat="39.61345523963108" lon="16.06190350701214"><ele>263.0</ele><time>2026-04-18T08:19:39.975Z</time></trkpt><trkpt lat="39.61348562420523" lon="16.06175053838756"><ele>263.0</ele><time>2026-04-18T08:19:40.975Z</time></trkpt><trkpt lat="39.61349527229471" lon="16.06158206317123"><ele>263.0</ele><time>2026-04-18T08:19:41.975Z</time></trkpt><trkpt lat="39.613489532345476" lon="16.061420274611756"><ele>263.5</ele><time>2026-04-18T08:19:42.975Z</time></trkpt><trkpt lat="39.61346602930048" lon="16.061278081961163"><ele>264.0</ele><time>2026-04-18T08:19:43.975Z</time></trkpt><trkpt lat="39.613420952573506" lon="16.06113044877419"><ele>264.5</ele><time>2026-04-18T08:19:44.975Z</time></trkpt><trkpt lat="39.613356085177124" lon="16.060980869377715"><ele>265.0</ele><time>2026-04-18T08:19:45.975Z</time></trkpt><trkpt lat="39.61328291652995" lon="16.060827271686755"><ele>266.0</ele><time>2026-04-18T08:19:46.975Z</time></trkpt><trkpt lat="39.61321217811085" lon="16.06067439931473"><ele>267.0</ele><time>2026-04-18T08:19:47.975Z</time></trkpt><trkpt lat="39.61315351027101" lon="16.06054356871136"><ele>268.0</ele><time>2026-04-18T08:19:48.975Z</time></trkpt><trkpt lat="39.613097469666435" lon="16.060425284977576"><ele>269.0</ele><time>2026-04-18T08:19:49.975Z</time></trkpt><trkpt lat="39.61304057320129" lon="16.060297678966876"><ele>269.0</ele><time>2026-04-18T08:19:50.975Z</time></trkpt><trkpt lat="39.6129843625751" lon="16.060158785974576"><ele>269.0</ele><time>2026-04-18T08:19:51.975Z</time></trkpt><trkpt lat="39.612927793119525" lon="16.060020977852304"><ele>269.0</ele><time>2026-04-18T08:19:52.975Z</time></trkpt><trkpt lat="39.61286507028425" lon="16.059883101521745"><ele>269.0</ele><time>2026-04-18T08:19:53.975Z</time></trkpt><trkpt lat="39.61279687262968" lon="16.059745332364816"><ele>270.25</ele><time>2026-04-18T08:19:54.975Z</time></trkpt><trkpt lat="39.61273109350741" lon="16.059606706667104"><ele>271.5</ele><time>2026-04-18T08:19:55.975Z</time></trkpt><trkpt lat="39.61266830124055" lon="16.059460879433054"><ele>272.75</ele><time>2026-04-18T08:19:56.975Z</time></trkpt><trkpt lat="39.61260563850713" lon="16.059313865976392"><ele>274.0</ele><time>2026-04-18T08:19:57.975Z</time></trkpt><trkpt lat="39.61253720165564" lon="16.05916643656953"><ele>275.75</ele><time>2026-04-18T08:19:58.975Z</time></trkpt><trkpt lat="39.612469258558775" lon="16.059017670812654"><ele>277.5</ele><time>2026-04-18T08:19:59.975Z</time></trkpt><trkpt lat="39.61240110940582" lon="16.058872069416623"><ele>279.25</ele><time>2026-04-18T08:20:00.975Z</time></trkpt><trkpt lat="39.61233242286469" lon="16.05872371918346"><ele>281.0</ele><time>2026-04-18T08:20:01.975Z</time></trkpt><trkpt lat="39.61226420826784" lon="16.05857340164209"><ele>281.0</ele><time>2026-04-18T08:20:02.975Z</time></trkpt><trkpt lat="39.612198325951994" lon="16.05842234534393"><ele>281.0</ele><time>2026-04-18T08:20:03.975Z</time></trkpt><trkpt lat="39.612131609635576" lon="16.058266379318233"><ele>281.0</ele><time>2026-04-18T08:20:04.975Z</time></trkpt><trkpt lat="39.61206216789318" lon="16.058112293049003"><ele>281.0</ele><time>2026-04-18T08:20:05.975Z</time></trkpt><trkpt lat="39.61199160459033" lon="16.057956678162025"><ele>281.5</ele><time>2026-04-18T08:20:06.975Z</time></trkpt><trkpt lat="39.61192678640005" lon="16.057812041439526"><ele>282.0</ele><time>2026-04-18T08:20:07.975Z</time></trkpt><trkpt lat="39.61186496949107" lon="16.057672584814227"><ele>282.5</ele><time>2026-04-18T08:20:08.975Z</time></trkpt><trkpt lat="39.611801866117716" lon="16.05752981166958"><ele>283.0</ele><time>2026-04-18T08:20:09.975Z</time></trkpt><trkpt lat="39.61173566693672" lon="16.05738466282904"><ele>284.25</ele><time>2026-04-18T08:20:10.975Z</time></trkpt><trkpt lat="39.611666302645986" lon="16.057238559596087"><ele>285.5</ele><time>2026-04-18T08:20:11.975Z</time></trkpt><trkpt lat="39.61159888359175" lon="16.0570894089804"><ele>286.75</ele><time>2026-04-18T08:20:12.975Z</time></trkpt><trkpt lat="39.61154471556351" lon="16.056926473118274"><ele>288.0</ele><time>2026-04-18T08:20:13.975Z</time></trkpt><trkpt lat="39.61150284971485" lon="16.05675229488271"><ele>288.6666666666667</ele><time>2026-04-18T08:20:14.975Z</time></trkpt><trkpt lat="39.611508763998856" lon="16.05655568322052"><ele>289.33333333333337</ele><time>2026-04-18T08:20:15.975Z</time></trkpt><trkpt lat="39.61152810964008" lon="16.05635843389136"><ele>290.0</ele><time>2026-04-18T08:20:16.975Z</time></trkpt><trkpt lat="39.61155897719149" lon="16.056152472511254"><ele>290.0</ele><time>2026-04-18T08:20:17.975Z</time></trkpt><trkpt lat="39.611616587909126" lon="16.05597837515492"><ele>290.0</ele><time>2026-04-18T08:20:18.975Z</time></trkpt><trkpt lat="39.61168692445942" lon="16.055802768460495"><ele>290.0</ele><time>2026-04-18T08:20:19.975Z</time></trkpt><trkpt lat="39.611771010152786" lon="16.055628356657866"><ele>290.0</ele><time>2026-04-18T08:20:20.975Z</time></trkpt><trkpt lat="39.61185510016034" lon="16.055449615035403"><ele>290.0</ele><time>2026-04-18T08:20:21.975Z</time></trkpt><trkpt lat="39.61193036039122" lon="16.055288839399424"><ele>290.0</ele><time>2026-04-18T08:20:22.975Z</time></trkpt><trkpt lat="39.61199919575409" lon="16.055138648603617"><ele>290.0</ele><time>2026-04-18T08:20:23.975Z</time></trkpt><trkpt lat="39.612073979157564" lon="16.054987866757823"><ele>293.33333333333337</ele><time>2026-04-18T08:20:24.975Z</time></trkpt><trkpt lat="39.61215812911921" lon="16.054836814146807"><ele>296.6666666666667</ele><time>2026-04-18T08:20:25.975Z</time></trkpt><trkpt lat="39.61227377900384" lon="16.05470601519795"><ele>300.0</ele><time>2026-04-18T08:20:26.975Z</time></trkpt><trkpt lat="39.61238119189842" lon="16.0545437952694"><ele>300.0</ele><time>2026-04-18T08:20:27.974Z</time></trkpt><trkpt lat="39.612508776983645" lon="16.05438996727524"><ele>300.0</ele><time>2026-04-18T08:20:28.974Z</time></trkpt><trkpt lat="39.61262881467514" lon="16.05423907049144"><ele>300.0</ele><time>2026-04-18T08:20:29.974Z</time></trkpt><trkpt lat="39.61274479026764" lon="16.05408885617991"><ele>302.6666666666667</ele><time>2026-04-18T08:20:30.974Z</time></trkpt><trkpt lat="39.61286184122389" lon="16.05393590645905"><ele>305.33333333333337</ele><time>2026-04-18T08:20:31.974Z</time></trkpt><trkpt lat="39.61297594460806" lon="16.053785369598952"><ele>308.0</ele><time>2026-04-18T08:20:32.974Z</time></trkpt><trkpt lat="39.61308438025595" lon="16.053642828267"><ele>308.0</ele><time>2026-04-18T08:20:33.974Z</time></trkpt><trkpt lat="39.61319114270913" lon="16.05350250118456"><ele>308.0</ele><time>2026-04-18T08:20:34.974Z</time></trkpt><trkpt lat="39.61329738040042" lon="16.053358690159172"><ele>308.0</ele><time>2026-04-18T08:20:35.974Z</time></trkpt><trkpt lat="39.61340640543391" lon="16.05321652509821"><ele>311.33333333333337</ele><time>2026-04-18T08:20:36.974Z</time></trkpt><trkpt lat="39.613516755253634" lon="16.05307031799637"><ele>314.6666666666667</ele><time>2026-04-18T08:20:37.974Z</time></trkpt><trkpt lat="39.61362498973332" lon="16.052932293241597"><ele>318.0</ele><time>2026-04-18T08:20:38.974Z</time></trkpt><trkpt lat="39.61372981457029" lon="16.052804439451094"><ele>319.5</ele><time>2026-04-18T08:20:39.974Z</time></trkpt><trkpt lat="39.613830143167185" lon="16.052693680211075"><ele>321.0</ele><time>2026-04-18T08:20:40.974Z</time></trkpt><trkpt lat="39.61394237762928" lon="16.05259242208319"><ele>322.5</ele><time>2026-04-18T08:20:41.974Z</time></trkpt><trkpt lat="39.61408259703393" lon="16.05254125291701"><ele>324.0</ele><time>2026-04-18T08:20:42.974Z</time></trkpt><trkpt lat="39.61422838927712" lon="16.05247724395786"><ele>326.5</ele><time>2026-04-18T08:20:43.974Z</time></trkpt><trkpt lat="39.61437413910242" lon="16.05240361055132"><ele>329.0</ele><time>2026-04-18T08:20:44.974Z</time></trkpt><trkpt lat="39.61451650542512" lon="16.052345881668806"><ele>331.5</ele><time>2026-04-18T08:20:45.974Z</time></trkpt><trkpt lat="39.614651719087945" lon="16.052284434710167"><ele>334.0</ele><time>2026-04-18T08:20:46.974Z</time></trkpt><trkpt lat="39.614787362747855" lon="16.05222871347962"><ele>335.75</ele><time>2026-04-18T08:20:47.974Z</time></trkpt><trkpt lat="39.61491698883249" lon="16.052204644448928"><ele>337.5</ele><time>2026-04-18T08:20:48.974Z</time></trkpt><trkpt lat="39.615051219122684" lon="16.052213602846166"><ele>339.25</ele><time>2026-04-18T08:20:49.974Z</time></trkpt><trkpt lat="39.61518758090705" lon="16.052233071413337"><ele>341.0</ele><time>2026-04-18T08:20:50.974Z</time></trkpt><trkpt lat="39.61531497927143" lon="16.052231488033748"><ele>341.25</ele><time>2026-04-18T08:20:51.974Z</time></trkpt><trkpt lat="39.61543489700378" lon="16.052203336750758"><ele>341.5</ele><time>2026-04-18T08:20:52.974Z</time></trkpt><trkpt lat="39.61555430041938" lon="16.052139533554502"><ele>341.75</ele><time>2026-04-18T08:20:53.974Z</time></trkpt><trkpt lat="39.615670083106416" lon="16.052043987587652"><ele>342.0</ele><time>2026-04-18T08:20:54.974Z</time></trkpt><trkpt lat="39.6157601965678" lon="16.051949420162494"><ele>342.0</ele><time>2026-04-18T08:20:55.974Z</time></trkpt><trkpt lat="39.61582043777844" lon="16.051896098013124"><ele>342.0</ele><time>2026-04-18T08:20:56.974Z</time></trkpt><trkpt lat="39.61594418002736" lon="16.05184196086277"><ele>342.0</ele><time>2026-04-18T08:20:58.974Z</time></trkpt><trkpt lat="39.6160359594264" lon="16.051827333752275"><ele>342.0</ele><time>2026-04-18T08:20:59.974Z</time></trkpt><trkpt lat="39.616139291020524" lon="16.05182566335124"><ele>342.0</ele><time>2026-04-18T08:21:00.974Z</time></trkpt><trkpt lat="39.616255743160444" lon="16.051851528226834"><ele>342.0</ele><time>2026-04-18T08:21:01.974Z</time></trkpt><trkpt lat="39.6163729237772" lon="16.05189560345377"><ele>342.0</ele><time>2026-04-18T08:21:02.974Z</time></trkpt><trkpt lat="39.61649134303245" lon="16.051939387452194"><ele>342.0</ele><time>2026-04-18T08:21:03.974Z</time></trkpt><trkpt lat="39.61660504023741" lon="16.051965659594934"><ele>342.0</ele><time>2026-04-18T08:21:04.974Z</time></trkpt><trkpt lat="39.61670825830361" lon="16.051967570588275"><ele>342.0</ele><time>2026-04-18T08:21:05.974Z</time></trkpt><trkpt lat="39.61681129193895" lon="16.051954806046172"><ele>342.0</ele><time>2026-04-18T08:21:06.974Z</time></trkpt><trkpt lat="39.61691232120004" lon="16.051918262463307"><ele>342.0</ele><time>2026-04-18T08:21:07.974Z</time></trkpt><trkpt lat="39.61699623804873" lon="16.051852456654498"><ele>342.0</ele><time>2026-04-18T08:21:08.974Z</time></trkpt><trkpt lat="39.617061115400226" lon="16.05175203285126"><ele>342.0</ele><time>2026-04-18T08:21:09.974Z</time></trkpt><trkpt lat="39.617131052869816" lon="16.05164008583241"><ele>344.25</ele><time>2026-04-18T08:21:10.974Z</time></trkpt><trkpt lat="39.61719948880644" lon="16.051520480504795"><ele>346.5</ele><time>2026-04-18T08:21:11.975Z</time></trkpt><trkpt lat="39.61726898708384" lon="16.05140353319381"><ele>348.75</ele><time>2026-04-18T08:21:12.975Z</time></trkpt><trkpt lat="39.61734083559899" lon="16.05128711531621"><ele>351.0</ele><time>2026-04-18T08:21:13.975Z</time></trkpt><trkpt lat="39.61743944047065" lon="16.05121202234598"><ele>351.0</ele><time>2026-04-18T08:21:14.975Z</time></trkpt><trkpt lat="39.61753078085663" lon="16.05116464201939"><ele>351.0</ele><time>2026-04-18T08:21:15.975Z</time></trkpt><trkpt lat="39.61763680192309" lon="16.051136951551523"><ele>351.0</ele><time>2026-04-18T08:21:16.975Z</time></trkpt><trkpt lat="39.6177562682072" lon="16.051125166643278"><ele>351.0</ele><time>2026-04-18T08:21:17.975Z</time></trkpt><trkpt lat="39.61788701466938" lon="16.051128249146814"><ele>351.0</ele><time>2026-04-18T08:21:18.975Z</time></trkpt><trkpt lat="39.618023349186124" lon="16.051143798195955"><ele>351.0</ele><time>2026-04-18T08:21:19.975Z</time></trkpt><trkpt lat="39.61816379059375" lon="16.05115527326585"><ele>351.0</ele><time>2026-04-18T08:21:20.975Z</time></trkpt><trkpt lat="39.61830438029067" lon="16.051158200350912"><ele>351.0</ele><time>2026-04-18T08:21:21.975Z</time></trkpt><trkpt lat="39.61843717207994" lon="16.05116310779002"><ele>351.0</ele><time>2026-04-18T08:21:22.975Z</time></trkpt><trkpt lat="39.61855394777309" lon="16.051174916634988"><ele>351.0</ele><time>2026-04-18T08:21:23.975Z</time></trkpt><trkpt lat="39.618655973147284" lon="16.051178728546237"><ele>351.0</ele><time>2026-04-18T08:21:24.975Z</time></trkpt><trkpt lat="39.618760890917756" lon="16.05116739082808"><ele>351.0</ele><time>2026-04-18T08:21:25.975Z</time></trkpt><trkpt lat="39.618876918159145" lon="16.051185400912733"><ele>351.0</ele><time>2026-04-18T08:21:26.975Z</time></trkpt><trkpt lat="39.61899468251552" lon="16.051150398169447"><ele>351.0</ele><time>2026-04-18T08:21:27.975Z</time></trkpt><trkpt lat="39.61907962549792" lon="16.050957185091445"><ele>351.0</ele><time>2026-04-18T08:21:28.975Z</time></trkpt><trkpt lat="39.619171545253224" lon="16.050823276105366"><ele>351.0</ele><time>2026-04-18T08:21:29.975Z</time></trkpt><trkpt lat="39.619238455088855" lon="16.050682370533693"><ele>351.0</ele><time>2026-04-18T08:21:30.975Z</time></trkpt><trkpt lat="39.61929390557257" lon="16.05055356688628"><ele>352.0</ele><time>2026-04-18T08:21:31.975Z</time></trkpt><trkpt lat="39.61930674093299" lon="16.050410996227313"><ele>353.0</ele><time>2026-04-18T08:21:32.975Z</time></trkpt><trkpt lat="39.61926897326074" lon="16.050251466104122"><ele>354.0</ele><time>2026-04-18T08:21:33.975Z</time></trkpt><trkpt lat="39.6192018883339" lon="16.050104635166605"><ele>355.0</ele><time>2026-04-18T08:21:34.975Z</time></trkpt><trkpt lat="39.61915066706662" lon="16.049979165414005"><ele>356.6</ele><time>2026-04-18T08:21:35.975Z</time></trkpt><trkpt lat="39.619103214280415" lon="16.04985700820067"><ele>358.2</ele><time>2026-04-18T08:21:36.975Z</time></trkpt><trkpt lat="39.619070928956305" lon="16.04974292534102"><ele>359.79999999999995</ele><time>2026-04-18T08:21:37.975Z</time></trkpt><trkpt lat="39.61905403971076" lon="16.049623583889687"><ele>361.4</ele><time>2026-04-18T08:21:38.975Z</time></trkpt><trkpt lat="39.61905225262645" lon="16.049510307393067"><ele>363.0</ele><time>2026-04-18T08:21:39.975Z</time></trkpt><trkpt lat="39.61907219409323" lon="16.04941063237219"><ele>363.0</ele><time>2026-04-18T08:21:40.974Z</time></trkpt><trkpt lat="39.61910041282451" lon="16.049317618547327"><ele>363.0</ele><time>2026-04-18T08:21:41.974Z</time></trkpt><trkpt lat="39.619158033212635" lon="16.04925678910915"><ele>363.0</ele><time>2026-04-18T08:21:42.974Z</time></trkpt><trkpt lat="39.61925861096064" lon="16.049216061270037"><ele>363.0</ele><time>2026-04-18T08:21:43.974Z</time></trkpt><trkpt lat="39.619387786107644" lon="16.04921262263767"><ele>363.0</ele><time>2026-04-18T08:21:44.974Z</time></trkpt><trkpt lat="39.61952756396131" lon="16.04918201278969"><ele>363.0</ele><time>2026-04-18T08:21:45.974Z</time></trkpt><trkpt lat="39.619668905745996" lon="16.049166799513078"><ele>363.0</ele><time>2026-04-18T08:21:46.974Z</time></trkpt><trkpt lat="39.61980940643873" lon="16.04915590899346"><ele>363.0</ele><time>2026-04-18T08:21:47.974Z</time></trkpt><trkpt lat="39.61992871127526" lon="16.049166361729434"><ele>363.0</ele><time>2026-04-18T08:21:48.974Z</time></trkpt><trkpt lat="39.62003811592003" lon="16.049200161486446"><ele>363.0</ele><time>2026-04-18T08:21:49.974Z</time></trkpt><trkpt lat="39.62014522653481" lon="16.04923024482545"><ele>363.0</ele><time>2026-04-18T08:21:50.974Z</time></trkpt><trkpt lat="39.620246116040796" lon="16.04923422108468"><ele>363.0</ele><time>2026-04-18T08:21:51.974Z</time></trkpt><trkpt lat="39.62035509656452" lon="16.049196752026095"><ele>363.0</ele><time>2026-04-18T08:21:52.974Z</time></trkpt><trkpt lat="39.62046419686555" lon="16.049131755981612"><ele>363.0</ele><time>2026-04-18T08:21:53.974Z</time></trkpt><trkpt lat="39.62060314205119" lon="16.049147483262036"><ele>368.0</ele><time>2026-04-18T08:21:54.974Z</time></trkpt><trkpt lat="39.62069881109847" lon="16.049023320567272"><ele>373.0</ele><time>2026-04-18T08:21:55.974Z</time></trkpt><trkpt lat="39.62081751581287" lon="16.048984669069007"><ele>378.0</ele><time>2026-04-18T08:21:56.974Z</time></trkpt><trkpt lat="39.62095554681533" lon="16.04901645613963"><ele>383.0</ele><time>2026-04-18T08:21:57.974Z</time></trkpt><trkpt lat="39.6210847345098" lon="16.049049093824298"><ele>379.79999999999995</ele><time>2026-04-18T08:21:58.974Z</time></trkpt><trkpt lat="39.62119802264804" lon="16.049033930493973"><ele>376.6</ele><time>2026-04-18T08:21:59.974Z</time></trkpt><trkpt lat="39.62130179816378" lon="16.04897381216362"><ele>373.4</ele><time>2026-04-18T08:22:00.974Z</time></trkpt><trkpt lat="39.62138854334672" lon="16.048883879042272"><ele>370.20000000000005</ele><time>2026-04-18T08:22:01.974Z</time></trkpt><trkpt lat="39.62147152202485" lon="16.048804861298358"><ele>367.0</ele><time>2026-04-18T08:22:02.974Z</time></trkpt><trkpt lat="39.62153014425877" lon="16.048701784898466"><ele>367.0</ele><time>2026-04-18T08:22:03.974Z</time></trkpt><trkpt lat="39.62154630754274" lon="16.04853195688993"><ele>367.0</ele><time>2026-04-18T08:22:04.974Z</time></trkpt><trkpt lat="39.62154476158811" lon="16.048367933809043"><ele>367.0</ele><time>2026-04-18T08:22:05.974Z</time></trkpt><trkpt lat="39.621510874637636" lon="16.048208325426852"><ele>367.0</ele><time>2026-04-18T08:22:06.974Z</time></trkpt><trkpt lat="39.62145291249119" lon="16.04806473827427"><ele>365.5</ele><time>2026-04-18T08:22:07.974Z</time></trkpt><trkpt lat="39.62135244390797" lon="16.047961736512857"><ele>364.0</ele><time>2026-04-18T08:22:08.974Z</time></trkpt><trkpt lat="39.62124751128031" lon="16.047875806759937"><ele>362.5</ele><time>2026-04-18T08:22:09.974Z</time></trkpt><trkpt lat="39.62112786754712" lon="16.047810175858526"><ele>361.0</ele><time>2026-04-18T08:22:10.974Z</time></trkpt><trkpt lat="39.62101606213178" lon="16.047748708858407"><ele>363.25</ele><time>2026-04-18T08:22:11.974Z</time></trkpt><trkpt lat="39.62092579526657" lon="16.047671742078222"><ele>365.5</ele><time>2026-04-18T08:22:12.974Z</time></trkpt><trkpt lat="39.62085144000865" lon="16.047573875066224"><ele>367.75</ele><time>2026-04-18T08:22:13.974Z</time></trkpt><trkpt lat="39.62078324277391" lon="16.047466936404327"><ele>370.0</ele><time>2026-04-18T08:22:14.974Z</time></trkpt><trkpt lat="39.620692840927354" lon="16.047317879144128"><ele>370.0</ele><time>2026-04-18T08:22:15.974Z</time></trkpt><trkpt lat="39.62061519494953" lon="16.047186972121533"><ele>370.0</ele><time>2026-04-18T08:22:16.974Z</time></trkpt><trkpt lat="39.62054336531271" lon="16.04706587109525"><ele>370.0</ele><time>2026-04-18T08:22:17.974Z</time></trkpt><trkpt lat="39.62047186696201" lon="16.046945328681005"><ele>370.0</ele><time>2026-04-18T08:22:18.974Z</time></trkpt><trkpt lat="39.62039781091185" lon="16.04682458956707"><ele>370.0</ele><time>2026-04-18T08:22:19.974Z</time></trkpt><trkpt lat="39.620323912179224" lon="16.046708222220538"><ele>370.0</ele><time>2026-04-18T08:22:20.974Z</time></trkpt><trkpt lat="39.620251447814425" lon="16.046599861024216"><ele>370.0</ele><time>2026-04-18T08:22:21.974Z</time></trkpt><trkpt lat="39.620175895335386" lon="16.046502850352272"><ele>370.0</ele><time>2026-04-18T08:22:22.974Z</time></trkpt><trkpt lat="39.62010013554814" lon="16.046430288479154"><ele>370.0</ele><time>2026-04-18T08:22:23.974Z</time></trkpt><trkpt lat="39.620034933961996" lon="16.046368344008926"><ele>371.85714285714283</ele><time>2026-04-18T08:22:24.974Z</time></trkpt><trkpt lat="39.61996937355695" lon="16.046303022308468"><ele>373.7142857142857</ele><time>2026-04-18T08:22:25.974Z</time></trkpt><trkpt lat="39.61991678435487" lon="16.046240778529057"><ele>375.57142857142856</ele><time>2026-04-18T08:22:26.974Z</time></trkpt><trkpt lat="39.61988169619949" lon="16.046165750401787"><ele>377.42857142857144</ele><time>2026-04-18T08:22:27.974Z</time></trkpt><trkpt lat="39.61986621215725" lon="16.04608127353167"><ele>379.2857142857143</ele><time>2026-04-18T08:22:28.974Z</time></trkpt><trkpt lat="39.61987686698805" lon="16.04599064880726"><ele>381.1428571428571</ele><time>2026-04-18T08:22:29.974Z</time></trkpt><trkpt lat="39.61990230628595" lon="16.045896189806495"><ele>383.0</ele><time>2026-04-18T08:22:30.974Z</time></trkpt><trkpt lat="39.619983915496825" lon="16.045833074955276"><ele>383.0</ele><time>2026-04-18T08:22:31.974Z</time></trkpt><trkpt lat="39.620053770344796" lon="16.045782181739728"><ele>383.0</ele><time>2026-04-18T08:22:32.974Z</time></trkpt><trkpt lat="39.62014903732277" lon="16.045807381766632"><ele>383.0</ele><time>2026-04-18T08:22:33.974Z</time></trkpt><trkpt lat="39.62025064309433" lon="16.045808136286293"><ele>383.0</ele><time>2026-04-18T08:22:34.974Z</time></trkpt><trkpt lat="39.62034966785473" lon="16.045823979557074"><ele>383.0</ele><time>2026-04-18T08:22:35.974Z</time></trkpt><trkpt lat="39.6204510836042" lon="16.04581392269332"><ele>385.75</ele><time>2026-04-18T08:22:36.974Z</time></trkpt><trkpt lat="39.62056815883015" lon="16.045769317880264"><ele>388.5</ele><time>2026-04-18T08:22:37.974Z</time></trkpt><trkpt lat="39.62069941834377" lon="16.045699017577686"><ele>391.25</ele><time>2026-04-18T08:22:38.974Z</time></trkpt><trkpt lat="39.6208322771626" lon="16.04561843652569"><ele>394.0</ele><time>2026-04-18T08:22:39.974Z</time></trkpt><trkpt lat="39.62095595562942" lon="16.045534061614656"><ele>394.0</ele><time>2026-04-18T08:22:40.974Z</time></trkpt><trkpt lat="39.62106354289659" lon="16.045462085803095"><ele>394.0</ele><time>2026-04-18T08:22:41.974Z</time></trkpt><trkpt lat="39.62116593111568" lon="16.045393676436543"><ele>394.0</ele><time>2026-04-18T08:22:42.974Z</time></trkpt><trkpt lat="39.621262825880365" lon="16.045323301637428"><ele>394.0</ele><time>2026-04-18T08:22:43.974Z</time></trkpt><trkpt lat="39.62135773974851" lon="16.045223927631334"><ele>393.75</ele><time>2026-04-18T08:22:44.974Z</time></trkpt><trkpt lat="39.62143574564184" lon="16.045091437407752"><ele>393.5</ele><time>2026-04-18T08:22:45.974Z</time></trkpt><trkpt lat="39.62149546862842" lon="16.04493239594516"><ele>393.25</ele><time>2026-04-18T08:22:46.974Z</time></trkpt><trkpt lat="39.621551545327975" lon="16.04476200609374"><ele>393.0</ele><time>2026-04-18T08:22:47.974Z</time></trkpt><trkpt lat="39.62163043750108" lon="16.044605516154835"><ele>393.0</ele><time>2026-04-18T08:22:48.974Z</time></trkpt><trkpt lat="39.621696987054264" lon="16.04443451773472"><ele>393.0</ele><time>2026-04-18T08:22:49.974Z</time></trkpt><trkpt lat="39.62176177402973" lon="16.044266278388505"><ele>393.0</ele><time>2026-04-18T08:22:50.974Z</time></trkpt><trkpt lat="39.621817184084655" lon="16.044126738352897"><ele>393.0</ele><time>2026-04-18T08:22:51.974Z</time></trkpt><trkpt lat="39.62186395003871" lon="16.044017764463657"><ele>394.59999999999997</ele><time>2026-04-18T08:22:52.974Z</time></trkpt><trkpt lat="39.62191350615965" lon="16.043931469456272"><ele>396.2</ele><time>2026-04-18T08:22:53.974Z</time></trkpt><trkpt lat="39.62198105151618" lon="16.04384744964602"><ele>397.8</ele><time>2026-04-18T08:22:54.974Z</time></trkpt><trkpt lat="39.62206985588756" lon="16.04378197420497"><ele>399.4</ele><time>2026-04-18T08:22:55.974Z</time></trkpt><trkpt lat="39.622177476239806" lon="16.04372329212162"><ele>401.0</ele><time>2026-04-18T08:22:56.974Z</time></trkpt><trkpt lat="39.62229612345332" lon="16.04368302670109"><ele>401.0</ele><time>2026-04-18T08:22:57.974Z</time></trkpt><trkpt lat="39.62241739155383" lon="16.043632378464235"><ele>401.0</ele><time>2026-04-18T08:22:58.974Z</time></trkpt><trkpt lat="39.622544080082506" lon="16.043603597754267"><ele>401.0</ele><time>2026-04-18T08:22:59.974Z</time></trkpt><trkpt lat="39.62267050687363" lon="16.043569883360508"><ele>401.0</ele><time>2026-04-18T08:23:00.974Z</time></trkpt><trkpt lat="39.62279324680508" lon="16.04353246057009"><ele>400.25</ele><time>2026-04-18T08:23:01.974Z</time></trkpt><trkpt lat="39.62290436515657" lon="16.043504165930575"><ele>399.5</ele><time>2026-04-18T08:23:02.974Z</time></trkpt><trkpt lat="39.62302231135492" lon="16.043489681234416"><ele>398.75</ele><time>2026-04-18T08:23:03.974Z</time></trkpt><trkpt lat="39.623145851592255" lon="16.043487764422224"><ele>398.0</ele><time>2026-04-18T08:23:04.974Z</time></trkpt><trkpt lat="39.62327939142859" lon="16.043498428988215"><ele>398.0</ele><time>2026-04-18T08:23:05.974Z</time></trkpt><trkpt lat="39.6234160276074" lon="16.043503275145422"><ele>398.0</ele><time>2026-04-18T08:23:06.974Z</time></trkpt><trkpt lat="39.62353624703086" lon="16.04350234934562"><ele>398.0</ele><time>2026-04-18T08:23:07.974Z</time></trkpt><trkpt lat="39.62363940530091" lon="16.04349213811781"><ele>398.0</ele><time>2026-04-18T08:23:08.974Z</time></trkpt><trkpt lat="39.62373049605154" lon="16.04346433520326"><ele>397.4</ele><time>2026-04-18T08:23:09.974Z</time></trkpt><trkpt lat="39.62381708657782" lon="16.043418236383722"><ele>396.79999999999995</ele><time>2026-04-18T08:23:10.974Z</time></trkpt><trkpt lat="39.623892996271515" lon="16.043313606972827"><ele>396.2</ele><time>2026-04-18T08:23:11.974Z</time></trkpt><trkpt lat="39.62393966548797" lon="16.04317999239118"><ele>395.6</ele><time>2026-04-18T08:23:12.974Z</time></trkpt><trkpt lat="39.62395096296399" lon="16.043026711417422"><ele>395.0</ele><time>2026-04-18T08:23:13.974Z</time></trkpt><trkpt lat="39.62393955705434" lon="16.04287664998286"><ele>395.0</ele><time>2026-04-18T08:23:14.974Z</time></trkpt><trkpt lat="39.62389298485178" lon="16.0427241177141"><ele>395.0</ele><time>2026-04-18T08:23:15.974Z</time></trkpt><trkpt lat="39.623814972894706" lon="16.042597840678493"><ele>395.0</ele><time>2026-04-18T08:23:16.974Z</time></trkpt><trkpt lat="39.62373570977852" lon="16.04247756269321"><ele>395.0</ele><time>2026-04-18T08:23:17.974Z</time></trkpt><trkpt lat="39.623655232937324" lon="16.04237191176433"><ele>398.2</ele><time>2026-04-18T08:23:18.974Z</time></trkpt><trkpt lat="39.623580646486744" lon="16.042289729782077"><ele>401.4</ele><time>2026-04-18T08:23:19.974Z</time></trkpt><trkpt lat="39.6234662738631" lon="16.042241615741986"><ele>404.6</ele><time>2026-04-18T08:23:20.974Z</time></trkpt><trkpt lat="39.62335373909374" lon="16.042220136605927"><ele>407.8</ele><time>2026-04-18T08:23:21.974Z</time></trkpt><trkpt lat="39.62326195633086" lon="16.042201196222763"><ele>411.0</ele><time>2026-04-18T08:23:22.974Z</time></trkpt><trkpt lat="39.62318567927349" lon="16.04214966087664"><ele>411.0</ele><time>2026-04-18T08:23:23.974Z</time></trkpt><trkpt lat="39.62314013828394" lon="16.042079151413166"><ele>411.0</ele><time>2026-04-18T08:23:24.974Z</time></trkpt><trkpt lat="39.62314815774759" lon="16.041976748038277"><ele>411.0</ele><time>2026-04-18T08:23:25.974Z</time></trkpt><trkpt lat="39.62315167790091" lon="16.041889590624137"><ele>411.0</ele><time>2026-04-18T08:23:26.974Z</time></trkpt><trkpt lat="39.6231769001358" lon="16.041789269772007"><ele>411.0</ele><time>2026-04-18T08:23:27.974Z</time></trkpt><trkpt lat="39.623227537345215" lon="16.041691088326342"><ele>411.0</ele><time>2026-04-18T08:23:28.974Z</time></trkpt><trkpt lat="39.6233148304689" lon="16.04161250482544"><ele>410.66666666666663</ele><time>2026-04-18T08:23:29.974Z</time></trkpt><trkpt lat="39.62342738188428" lon="16.041519539117985"><ele>410.3333333333333</ele><time>2026-04-18T08:23:30.974Z</time></trkpt><trkpt lat="39.62355243441353" lon="16.041416700577507"><ele>410.0</ele><time>2026-04-18T08:23:31.974Z</time></trkpt><trkpt lat="39.62369643900093" lon="16.041297053795887"><ele>410.0</ele><time>2026-04-18T08:23:32.974Z</time></trkpt><trkpt lat="39.62382136865401" lon="16.041185237201216"><ele>410.0</ele><time>2026-04-18T08:23:33.974Z</time></trkpt><trkpt lat="39.62392998033185" lon="16.041082341417056"><ele>410.0</ele><time>2026-04-18T08:23:34.974Z</time></trkpt><trkpt lat="39.62403057292126" lon="16.040973194749533"><ele>410.0</ele><time>2026-04-18T08:23:35.974Z</time></trkpt><trkpt lat="39.624112808354056" lon="16.040848848442582"><ele>418.3333333333333</ele><time>2026-04-18T08:23:36.974Z</time></trkpt><trkpt lat="39.62418906434264" lon="16.040678544696874"><ele>426.66666666666663</ele><time>2026-04-18T08:23:37.974Z</time></trkpt><trkpt lat="39.624277316611845" lon="16.040484447600566"><ele>435.0</ele><time>2026-04-18T08:23:38.974Z</time></trkpt><trkpt lat="39.62437456621946" lon="16.04030495194208"><ele>431.0</ele><time>2026-04-18T08:23:39.974Z</time></trkpt><trkpt lat="39.624492498327704" lon="16.0401339445952"><ele>427.0</ele><time>2026-04-18T08:23:40.974Z</time></trkpt><trkpt lat="39.624627256401936" lon="16.039947757848253"><ele>423.0</ele><time>2026-04-18T08:23:41.974Z</time></trkpt><trkpt lat="39.62473840481918" lon="16.03978409487959"><ele>423.0</ele><time>2026-04-18T08:23:42.974Z</time></trkpt><trkpt lat="39.624841845243154" lon="16.039650205765906"><ele>423.0</ele><time>2026-04-18T08:23:43.974Z</time></trkpt><trkpt lat="39.62492535303128" lon="16.03953393861623"><ele>423.0</ele><time>2026-04-18T08:23:44.974Z</time></trkpt><trkpt lat="39.624995018623395" lon="16.03942208817823"><ele>423.0</ele><time>2026-04-18T08:23:45.974Z</time></trkpt><trkpt lat="39.62504241412033" lon="16.03930425889534"><ele>423.0</ele><time>2026-04-18T08:23:46.974Z</time></trkpt><trkpt lat="39.62504377612744" lon="16.039161270770027"><ele>423.0</ele><time>2026-04-18T08:23:47.974Z</time></trkpt><trkpt lat="39.62501420604569" lon="16.039013725472635"><ele>423.0</ele><time>2026-04-18T08:23:48.974Z</time></trkpt><trkpt lat="39.624945232021695" lon="16.03886899652744"><ele>423.0</ele><time>2026-04-18T08:23:49.974Z</time></trkpt><trkpt lat="39.62487081064271" lon="16.03871376000651"><ele>423.2</ele><time>2026-04-18T08:23:50.974Z</time></trkpt><trkpt lat="39.62483170763657" lon="16.038577784082754"><ele>423.4</ele><time>2026-04-18T08:23:51.974Z</time></trkpt><trkpt lat="39.624803366104835" lon="16.03846487394711"><ele>423.59999999999997</ele><time>2026-04-18T08:23:52.974Z</time></trkpt><trkpt lat="39.6247755245283" lon="16.038320272385313"><ele>423.79999999999995</ele><time>2026-04-18T08:23:53.974Z</time></trkpt><trkpt lat="39.62475306637088" lon="16.038170540204842"><ele>424.0</ele><time>2026-04-18T08:23:54.974Z</time></trkpt><trkpt lat="39.6247392358527" lon="16.038016199076626"><ele>426.0</ele><time>2026-04-18T08:23:55.974Z</time></trkpt><trkpt lat="39.62473377379023" lon="16.037868858370516"><ele>428.0</ele><time>2026-04-18T08:23:56.974Z</time></trkpt><trkpt lat="39.62473396141812" lon="16.037723177527674"><ele>430.0</ele><time>2026-04-18T08:23:57.974Z</time></trkpt><trkpt lat="39.624738736626206" lon="16.037570159246886"><ele>432.0</ele><time>2026-04-18T08:23:58.974Z</time></trkpt><trkpt lat="39.62474314808057" lon="16.037421466089395"><ele>432.5</ele><time>2026-04-18T08:23:59.974Z</time></trkpt><trkpt lat="39.624748033709174" lon="16.03725679027498"><ele>433.0</ele><time>2026-04-18T08:24:00.974Z</time></trkpt><trkpt lat="39.62475330235658" lon="16.03707920448439"><ele>433.5</ele><time>2026-04-18T08:24:01.974Z</time></trkpt><trkpt lat="39.62475876730243" lon="16.03689518395538"><ele>434.0</ele><time>2026-04-18T08:24:02.974Z</time></trkpt><trkpt lat="39.62476411039376" lon="16.036715570330944"><ele>434.75</ele><time>2026-04-18T08:24:03.974Z</time></trkpt><trkpt lat="39.624769250045986" lon="16.03654279552725"><ele>435.5</ele><time>2026-04-18T08:24:04.974Z</time></trkpt><trkpt lat="39.62476479716337" lon="16.036391927333955"><ele>436.25</ele><time>2026-04-18T08:24:05.974Z</time></trkpt><trkpt lat="39.62476862601057" lon="16.036253998703383"><ele>437.0</ele><time>2026-04-18T08:24:06.974Z</time></trkpt><trkpt lat="39.624767271313914" lon="16.036120031285243"><ele>437.0</ele><time>2026-04-18T08:24:07.974Z</time></trkpt><trkpt lat="39.62478593553119" lon="16.035982364083857"><ele>437.0</ele><time>2026-04-18T08:24:08.974Z</time></trkpt><trkpt lat="39.624774327240424" lon="16.035831960816544"><ele>437.0</ele><time>2026-04-18T08:24:09.974Z</time></trkpt><trkpt lat="39.6247824458233" lon="16.035671526073155"><ele>437.0</ele><time>2026-04-18T08:24:10.974Z</time></trkpt><trkpt lat="39.62479006938857" lon="16.035494031634453"><ele>436.8</ele><time>2026-04-18T08:24:11.974Z</time></trkpt><trkpt lat="39.624804917276755" lon="16.035362777507455"><ele>436.6</ele><time>2026-04-18T08:24:12.974Z</time></trkpt><trkpt lat="39.62479224360927" lon="16.035221156459997"><ele>436.40000000000003</ele><time>2026-04-18T08:24:13.974Z</time></trkpt><trkpt lat="39.62476991869001" lon="16.035093279869372"><ele>436.20000000000005</ele><time>2026-04-18T08:24:14.974Z</time></trkpt><trkpt lat="39.62473699763942" lon="16.03497639822239"><ele>436.0</ele><time>2026-04-18T08:24:15.974Z</time></trkpt><trkpt lat="39.624698393337525" lon="16.03485260212693"><ele>436.8</ele><time>2026-04-18T08:24:16.974Z</time></trkpt><trkpt lat="39.624659584543394" lon="16.03472548258863"><ele>437.6</ele><time>2026-04-18T08:24:17.974Z</time></trkpt><trkpt lat="39.62462307516655" lon="16.034604018406373"><ele>438.4</ele><time>2026-04-18T08:24:18.974Z</time></trkpt><trkpt lat="39.62459945521994" lon="16.03447144217674"><ele>439.2</ele><time>2026-04-18T08:24:19.974Z</time></trkpt><trkpt lat="39.62458455479959" lon="16.034318475306495"><ele>440.0</ele><time>2026-04-18T08:24:20.974Z</time></trkpt><trkpt lat="39.62460928518448" lon="16.034175243160064"><ele>443.0</ele><time>2026-04-18T08:24:21.974Z</time></trkpt><trkpt lat="39.62463781535933" lon="16.034034397656956"><ele>446.0</ele><time>2026-04-18T08:24:22.974Z</time></trkpt><trkpt lat="39.6246788152549" lon="16.03389165481063"><ele>449.0</ele><time>2026-04-18T08:24:23.974Z</time></trkpt><trkpt lat="39.62473263268571" lon="16.033760147797036"><ele>452.0</ele><time>2026-04-18T08:24:24.974Z</time></trkpt><trkpt lat="39.624798467698106" lon="16.033630345862374"><ele>452.0</ele><time>2026-04-18T08:24:25.974Z</time></trkpt><trkpt lat="39.62487493939277" lon="16.03349862254012"><ele>452.0</ele><time>2026-04-18T08:24:26.974Z</time></trkpt><trkpt lat="39.6249597280446" lon="16.03337930983843"><ele>452.0</ele><time>2026-04-18T08:24:27.974Z</time></trkpt><trkpt lat="39.62505864836991" lon="16.033265637145846"><ele>452.0</ele><time>2026-04-18T08:24:28.974Z</time></trkpt><trkpt lat="39.62517367600814" lon="16.0331662143215"><ele>452.0</ele><time>2026-04-18T08:24:29.974Z</time></trkpt><trkpt lat="39.6253005509143" lon="16.03307138010084"><ele>452.0</ele><time>2026-04-18T08:24:30.973Z</time></trkpt><trkpt lat="39.6254331850653" lon="16.03297491891151"><ele>452.0</ele><time>2026-04-18T08:24:31.973Z</time></trkpt><trkpt lat="39.62555646084497" lon="16.032862785882518"><ele>452.0</ele><time>2026-04-18T08:24:32.973Z</time></trkpt><trkpt lat="39.62569334355181" lon="16.032759790848083"><ele>452.0</ele><time>2026-04-18T08:24:33.973Z</time></trkpt><trkpt lat="39.62582142812331" lon="16.03265513212677"><ele>452.0</ele><time>2026-04-18T08:24:34.973Z</time></trkpt><trkpt lat="39.625935945919636" lon="16.0325489509424"><ele>452.0</ele><time>2026-04-18T08:24:35.973Z</time></trkpt><trkpt lat="39.62605495694012" lon="16.03242758171581"><ele>452.0</ele><time>2026-04-18T08:24:36.973Z</time></trkpt><trkpt lat="39.62618701756507" lon="16.032305835744214"><ele>452.0</ele><time>2026-04-18T08:24:37.973Z</time></trkpt><trkpt lat="39.626298643279156" lon="16.032151663682413"><ele>452.0</ele><time>2026-04-18T08:24:38.973Z</time></trkpt><trkpt lat="39.62641597755141" lon="16.032006763360304"><ele>452.0</ele><time>2026-04-18T08:24:39.973Z</time></trkpt><trkpt lat="39.62653386760563" lon="16.031851938753622"><ele>452.0</ele><time>2026-04-18T08:24:40.973Z</time></trkpt><trkpt lat="39.626663371005264" lon="16.031687895774404"><ele>452.0</ele><time>2026-04-18T08:24:41.973Z</time></trkpt><trkpt lat="39.62681581377432" lon="16.031550265816193"><ele>452.0</ele><time>2026-04-18T08:24:42.973Z</time></trkpt><trkpt lat="39.626947780306985" lon="16.031392937698936"><ele>454.3333333333333</ele><time>2026-04-18T08:24:43.973Z</time></trkpt><trkpt lat="39.627085350980565" lon="16.031229021949777"><ele>456.66666666666663</ele><time>2026-04-18T08:24:44.973Z</time></trkpt><trkpt lat="39.627215880239575" lon="16.031073462148004"><ele>459.0</ele><time>2026-04-18T08:24:45.973Z</time></trkpt><trkpt lat="39.62734161847891" lon="16.030923505298095"><ele>461.33333333333337</ele><time>2026-04-18T08:24:46.973Z</time></trkpt><trkpt lat="39.62747180494279" lon="16.03076824341474"><ele>463.6666666666667</ele><time>2026-04-18T08:24:47.973Z</time></trkpt><trkpt lat="39.62759811301314" lon="16.030617698115172"><ele>466.0</ele><time>2026-04-18T08:24:48.973Z</time></trkpt><trkpt lat="39.62771738539807" lon="16.030477739751824"><ele>463.0</ele><time>2026-04-18T08:24:49.973Z</time></trkpt><trkpt lat="39.62783822761546" lon="16.030341597636134"><ele>460.0</ele><time>2026-04-18T08:24:50.973Z</time></trkpt><trkpt lat="39.62796598748779" lon="16.03020433218357"><ele>457.0</ele><time>2026-04-18T08:24:51.973Z</time></trkpt><trkpt lat="39.62809972942372" lon="16.030061639898538"><ele>457.33333333333337</ele><time>2026-04-18T08:24:52.973Z</time></trkpt><trkpt lat="39.62823999219064" lon="16.02991763464423"><ele>457.66666666666663</ele><time>2026-04-18T08:24:53.973Z</time></trkpt><trkpt lat="39.62839145250985" lon="16.029768243928856"><ele>458.0</ele><time>2026-04-18T08:24:54.973Z</time></trkpt><trkpt lat="39.62854092839639" lon="16.029620951570394"><ele>461.66666666666663</ele><time>2026-04-18T08:24:55.973Z</time></trkpt><trkpt lat="39.62868981554289" lon="16.02947504984997"><ele>465.33333333333337</ele><time>2026-04-18T08:24:56.973Z</time></trkpt><trkpt lat="39.62881757099394" lon="16.02932611144588"><ele>469.0</ele><time>2026-04-18T08:24:57.973Z</time></trkpt><trkpt lat="39.628947208521396" lon="16.02920589712803"><ele>467.33333333333337</ele><time>2026-04-18T08:24:58.973Z</time></trkpt><trkpt lat="39.62907344426496" lon="16.02908593671088"><ele>465.66666666666663</ele><time>2026-04-18T08:24:59.973Z</time></trkpt><trkpt lat="39.629199786883184" lon="16.028955226928247"><ele>464.0</ele><time>2026-04-18T08:25:00.973Z</time></trkpt><trkpt lat="39.62933393147364" lon="16.028852206977636"><ele>464.0</ele><time>2026-04-18T08:25:01.973Z</time></trkpt><trkpt lat="39.62944455491559" lon="16.02874610181938"><ele>464.0</ele><time>2026-04-18T08:25:02.973Z</time></trkpt><trkpt lat="39.62957790322682" lon="16.028618199967077"><ele>464.0</ele><time>2026-04-18T08:25:03.973Z</time></trkpt><trkpt lat="39.62967332623416" lon="16.0285266743573"><ele>464.0</ele><time>2026-04-18T08:25:04.973Z</time></trkpt><trkpt lat="39.629788280362796" lon="16.028416415425628"><ele>463.3333333333333</ele><time>2026-04-18T08:25:05.973Z</time></trkpt><trkpt lat="39.62990420875873" lon="16.028305221986255"><ele>462.66666666666663</ele><time>2026-04-18T08:25:06.973Z</time></trkpt><trkpt lat="39.630016009058366" lon="16.02817415562743"><ele>462.0</ele><time>2026-04-18T08:25:07.973Z</time></trkpt><trkpt lat="39.63014297009172" lon="16.028054722298354"><ele>462.0</ele><time>2026-04-18T08:25:08.973Z</time></trkpt><trkpt lat="39.63026753714023" lon="16.027934009601104"><ele>462.0</ele><time>2026-04-18T08:25:09.973Z</time></trkpt><trkpt lat="39.63039350301455" lon="16.02782036457117"><ele>462.0</ele><time>2026-04-18T08:25:10.973Z</time></trkpt><trkpt lat="39.63051542374838" lon="16.027703346219173"><ele>463.0</ele><time>2026-04-18T08:25:11.973Z</time></trkpt><trkpt lat="39.63064053406538" lon="16.027583124384552"><ele>464.0</ele><time>2026-04-18T08:25:12.973Z</time></trkpt><trkpt lat="39.63076024966769" lon="16.027458018050755"><ele>465.0</ele><time>2026-04-18T08:25:13.973Z</time></trkpt><trkpt lat="39.6308908964024" lon="16.027346463306092"><ele>465.66666666666663</ele><time>2026-04-18T08:25:14.973Z</time></trkpt><trkpt lat="39.63101553491647" lon="16.02720865183336"><ele>466.3333333333333</ele><time>2026-04-18T08:25:15.973Z</time></trkpt><trkpt lat="39.63112575382711" lon="16.027082605982596"><ele>467.0</ele><time>2026-04-18T08:25:16.973Z</time></trkpt><trkpt lat="39.63123007299634" lon="16.02696117624356"><ele>469.20000000000005</ele><time>2026-04-18T08:25:17.973Z</time></trkpt><trkpt lat="39.63132367059518" lon="16.026851240561747"><ele>471.40000000000003</ele><time>2026-04-18T08:25:18.973Z</time></trkpt><trkpt lat="39.6314056199946" lon="16.026752682090457"><ele>473.59999999999997</ele><time>2026-04-18T08:25:19.973Z</time></trkpt><trkpt lat="39.63147073554649" lon="16.026666173955558"><ele>475.79999999999995</ele><time>2026-04-18T08:25:20.973Z</time></trkpt><trkpt lat="39.63151673928093" lon="16.02658725446735"><ele>478.0</ele><time>2026-04-18T08:25:21.973Z</time></trkpt><trkpt lat="39.63154710257349" lon="16.02650517615596"><ele>478.0</ele><time>2026-04-18T08:25:22.973Z</time></trkpt><trkpt lat="39.63155729016493" lon="16.02640303906164"><ele>477.99999999999994</ele><time>2026-04-18T08:25:23.974Z</time></trkpt><trkpt lat="39.631536170519375" lon="16.02625059118999"><ele>477.99999999999994</ele><time>2026-04-18T08:25:25.974Z</time></trkpt><trkpt lat="39.63148193841334" lon="16.026141900106655"><ele>478.0</ele><time>2026-04-18T08:25:27.974Z</time></trkpt><trkpt lat="39.631447260071496" lon="16.02602227515437"><ele>478.0</ele><time>2026-04-18T08:25:29.974Z</time></trkpt><trkpt lat="39.631358632339186" lon="16.02596511848617"><ele>478.0</ele><time>2026-04-18T08:25:31.974Z</time></trkpt><trkpt lat="39.63124421746871" lon="16.025893773147857"><ele>477.99999999999994</ele><time>2026-04-18T08:25:33.974Z</time></trkpt><trkpt lat="39.631193476556575" lon="16.025820645327997"><ele>477.99999999999994</ele><time>2026-04-18T08:25:34.974Z</time></trkpt><trkpt lat="39.63114477194142" lon="16.025724764642085"><ele>478.0</ele><time>2026-04-18T08:25:35.974Z</time></trkpt><trkpt lat="39.63107696133208" lon="16.025623135981984"><ele>478.0</ele><time>2026-04-18T08:25:36.974Z</time></trkpt><trkpt lat="39.6309794400587" lon="16.025537451415985"><ele>479.4</ele><time>2026-04-18T08:25:37.973Z</time></trkpt><trkpt lat="39.630847588786246" lon="16.025510386601958"><ele>480.79999999999995</ele><time>2026-04-18T08:25:38.973Z</time></trkpt><trkpt lat="39.63073645244901" lon="16.025450916567937"><ele>482.2</ele><time>2026-04-18T08:25:39.973Z</time></trkpt><trkpt lat="39.63065074277404" lon="16.02540849200157"><ele>483.6</ele><time>2026-04-18T08:25:40.973Z</time></trkpt><trkpt lat="39.63058371148459" lon="16.025345483752115"><ele>485.0</ele><time>2026-04-18T08:25:41.973Z</time></trkpt><trkpt lat="39.630545660306865" lon="16.025264077661838"><ele>484.99999999999994</ele><time>2026-04-18T08:25:42.973Z</time></trkpt><trkpt lat="39.63051870273878" lon="16.025183775424637"><ele>485.0</ele><time>2026-04-18T08:25:43.973Z</time></trkpt><trkpt lat="39.63050309700098" lon="16.025092472977942"><ele>485.0</ele><time>2026-04-18T08:25:44.973Z</time></trkpt><trkpt lat="39.63050356125907" lon="16.024983408567643"><ele>485.0</ele><time>2026-04-18T08:25:45.973Z</time></trkpt><trkpt lat="39.63052931163631" lon="16.02487137207745"><ele>484.99999999999994</ele><time>2026-04-18T08:25:46.973Z</time></trkpt><trkpt lat="39.63055901778908" lon="16.024743849412594"><ele>485.0</ele><time>2026-04-18T08:25:47.973Z</time></trkpt><trkpt lat="39.630565930392336" lon="16.02461236282767"><ele>483.75</ele><time>2026-04-18T08:25:48.973Z</time></trkpt><trkpt lat="39.630588281375786" lon="16.024484119144848"><ele>482.5</ele><time>2026-04-18T08:25:49.973Z</time></trkpt><trkpt lat="39.63058050207642" lon="16.02433007600774"><ele>481.25</ele><time>2026-04-18T08:25:50.973Z</time></trkpt><trkpt lat="39.63054735693662" lon="16.024167450915673"><ele>480.0</ele><time>2026-04-18T08:25:51.973Z</time></trkpt><trkpt lat="39.6304925647479" lon="16.02401154275447"><ele>480.0</ele><time>2026-04-18T08:25:52.973Z</time></trkpt><trkpt lat="39.630411855890685" lon="16.023850997954003"><ele>480.0</ele><time>2026-04-18T08:25:53.973Z</time></trkpt><trkpt lat="39.63034700710796" lon="16.023703770711087"><ele>480.0</ele><time>2026-04-18T08:25:54.973Z</time></trkpt><trkpt lat="39.630306173860205" lon="16.02357113254123"><ele>480.0</ele><time>2026-04-18T08:25:55.973Z</time></trkpt><trkpt lat="39.630298571306014" lon="16.023405342152458"><ele>484.0</ele><time>2026-04-18T08:25:56.973Z</time></trkpt><trkpt lat="39.630288725296886" lon="16.023205669605073"><ele>488.0</ele><time>2026-04-18T08:25:57.973Z</time></trkpt><trkpt lat="39.63028666124222" lon="16.02300107555337"><ele>492.0</ele><time>2026-04-18T08:25:58.973Z</time></trkpt><trkpt lat="39.63028666124159" lon="16.022806232876217"><ele>492.0</ele><time>2026-04-18T08:25:59.973Z</time></trkpt><trkpt lat="39.630267608950255" lon="16.02263201912894"><ele>492.0</ele><time>2026-04-18T08:26:00.973Z</time></trkpt><trkpt lat="39.6302667659811" lon="16.022469115844228"><ele>492.0</ele><time>2026-04-18T08:26:01.973Z</time></trkpt><trkpt lat="39.630265721867936" lon="16.022314646716502"><ele>492.0</ele><time>2026-04-18T08:26:02.973Z</time></trkpt><trkpt lat="39.630266734013865" lon="16.022182962999718"><ele>491.1666666666667</ele><time>2026-04-18T08:26:03.973Z</time></trkpt><trkpt lat="39.63030001156559" lon="16.02208140305744"><ele>490.33333333333337</ele><time>2026-04-18T08:26:04.973Z</time></trkpt><trkpt lat="39.63032052186022" lon="16.021992693223215"><ele>489.5</ele><time>2026-04-18T08:26:05.973Z</time></trkpt><trkpt lat="39.63036144690091" lon="16.021910643844347"><ele>488.6666666666667</ele><time>2026-04-18T08:26:06.973Z</time></trkpt><trkpt lat="39.6304395743862" lon="16.021858348113515"><ele>487.83333333333337</ele><time>2026-04-18T08:26:07.973Z</time></trkpt><trkpt lat="39.63051730846987" lon="16.021780830840388"><ele>487.0</ele><time>2026-04-18T08:26:08.973Z</time></trkpt><trkpt lat="39.63060140849238" lon="16.02170103755934"><ele>490.25</ele><time>2026-04-18T08:26:09.973Z</time></trkpt><trkpt lat="39.63066767702571" lon="16.021571017798763"><ele>493.5</ele><time>2026-04-18T08:26:10.973Z</time></trkpt><trkpt lat="39.63072220072608" lon="16.021432857025342"><ele>496.75</ele><time>2026-04-18T08:26:11.973Z</time></trkpt><trkpt lat="39.63075502041494" lon="16.02128728564161"><ele>500.0</ele><time>2026-04-18T08:26:12.973Z</time></trkpt><trkpt lat="39.63079376703502" lon="16.021166691427023"><ele>500.0</ele><time>2026-04-18T08:26:13.973Z</time></trkpt><trkpt lat="39.63080942178735" lon="16.021043936433493"><ele>500.0</ele><time>2026-04-18T08:26:14.973Z</time></trkpt><trkpt lat="39.63082075374907" lon="16.02091783552114"><ele>500.0</ele><time>2026-04-18T08:26:15.973Z</time></trkpt><trkpt lat="39.63079838764374" lon="16.02077315168421"><ele>500.0</ele><time>2026-04-18T08:26:16.973Z</time></trkpt><trkpt lat="39.63074302161741" lon="16.020621628121976"><ele>500.0</ele><time>2026-04-18T08:26:17.973Z</time></trkpt><trkpt lat="39.630649602747454" lon="16.020468944028764"><ele>501.0</ele><time>2026-04-18T08:26:18.973Z</time></trkpt><trkpt lat="39.630541626858275" lon="16.020334031813633"><ele>502.0</ele><time>2026-04-18T08:26:19.973Z</time></trkpt><trkpt lat="39.6304716129297" lon="16.020195431337957"><ele>503.0</ele><time>2026-04-18T08:26:20.973Z</time></trkpt><trkpt lat="39.630429487919656" lon="16.0200783648667"><ele>504.0</ele><time>2026-04-18T08:26:21.973Z</time></trkpt><trkpt lat="39.63044704017215" lon="16.019933209168638"><ele>504.4</ele><time>2026-04-18T08:26:23.973Z</time></trkpt><trkpt lat="39.63051245535792" lon="16.019857424626313"><ele>504.79999999999995</ele><time>2026-04-18T08:26:24.973Z</time></trkpt><trkpt lat="39.630586579598564" lon="16.01978190863537"><ele>505.20000000000005</ele><time>2026-04-18T08:26:25.973Z</time></trkpt><trkpt lat="39.63066447636562" lon="16.01968676230593"><ele>505.6</ele><time>2026-04-18T08:26:26.973Z</time></trkpt><trkpt lat="39.63072041897421" lon="16.019591979736624"><ele>506.0</ele><time>2026-04-18T08:26:27.973Z</time></trkpt><trkpt lat="39.63073573848198" lon="16.019475480850854"><ele>506.0</ele><time>2026-04-18T08:26:28.973Z</time></trkpt><trkpt lat="39.630712244817346" lon="16.01934931991572"><ele>506.0</ele><time>2026-04-18T08:26:29.973Z</time></trkpt><trkpt lat="39.630652635823814" lon="16.019226598988322"><ele>506.0</ele><time>2026-04-18T08:26:30.973Z</time></trkpt><trkpt lat="39.630598933974085" lon="16.01911594300969"><ele>506.0</ele><time>2026-04-18T08:26:31.973Z</time></trkpt><trkpt lat="39.63055359910581" lon="16.019034674102578"><ele>506.0</ele><time>2026-04-18T08:26:32.973Z</time></trkpt><trkpt lat="39.63051318554741" lon="16.01896244713448"><ele>506.4</ele><time>2026-04-18T08:26:33.973Z</time></trkpt><trkpt lat="39.63042914130788" lon="16.018868406713576"><ele>506.8</ele><time>2026-04-18T08:26:35.973Z</time></trkpt><trkpt lat="39.63032145098085" lon="16.018778645589926"><ele>507.19999999999993</ele><time>2026-04-18T08:26:37.973Z</time></trkpt><trkpt lat="39.630244516234285" lon="16.018740390447288"><ele>507.59999999999997</ele><time>2026-04-18T08:26:38.973Z</time></trkpt><trkpt lat="39.63016567083245" lon="16.018690560750994"><ele>508.0</ele><time>2026-04-18T08:26:39.973Z</time></trkpt><trkpt lat="39.63008532968717" lon="16.018658974205763"><ele>508.0</ele><time>2026-04-18T08:26:40.973Z</time></trkpt><trkpt lat="39.62999617270637" lon="16.0186249129836"><ele>507.99999999999994</ele><time>2026-04-18T08:26:41.973Z</time></trkpt><trkpt lat="39.62990645170946" lon="16.018587882787944"><ele>507.99999999999994</ele><time>2026-04-18T08:26:42.973Z</time></trkpt><trkpt lat="39.629804842722095" lon="16.018539164186738"><ele>508.0</ele><time>2026-04-18T08:26:43.973Z</time></trkpt><trkpt lat="39.62970455590812" lon="16.018466770619437"><ele>508.0</ele><time>2026-04-18T08:26:44.973Z</time></trkpt><trkpt lat="39.62960189635176" lon="16.018369474015564"><ele>509.0</ele><time>2026-04-18T08:26:45.973Z</time></trkpt><trkpt lat="39.62950282532632" lon="16.018254480796116"><ele>510.0</ele><time>2026-04-18T08:26:46.973Z</time></trkpt><trkpt lat="39.629402856168745" lon="16.01815761083338"><ele>511.0</ele><time>2026-04-18T08:26:47.973Z</time></trkpt><trkpt lat="39.62927577214074" lon="16.018116482363492"><ele>512.0</ele><time>2026-04-18T08:26:48.973Z</time></trkpt><trkpt lat="39.62914651369121" lon="16.018056265096753"><ele>512.0</ele><time>2026-04-18T08:26:49.973Z</time></trkpt><trkpt lat="39.62900698874952" lon="16.018008828076216"><ele>512.0</ele><time>2026-04-18T08:26:50.973Z</time></trkpt><trkpt lat="39.628865811927035" lon="16.017960355864165"><ele>512.0</ele><time>2026-04-18T08:26:51.973Z</time></trkpt><trkpt lat="39.62872003240597" lon="16.017909305284654"><ele>512.0</ele><time>2026-04-18T08:26:52.973Z</time></trkpt><trkpt lat="39.628586043918624" lon="16.0178613624805"><ele>509.25</ele><time>2026-04-18T08:26:53.973Z</time></trkpt><trkpt lat="39.62846074912803" lon="16.017817292799858"><ele>506.5</ele><time>2026-04-18T08:26:54.973Z</time></trkpt><trkpt lat="39.62833715358662" lon="16.01777849315191"><ele>503.75</ele><time>2026-04-18T08:26:55.973Z</time></trkpt><trkpt lat="39.628224960970634" lon="16.0177380752019"><ele>501.0</ele><time>2026-04-18T08:26:56.973Z</time></trkpt><trkpt lat="39.62812853018672" lon="16.01769319277197"><ele>501.0</ele><time>2026-04-18T08:26:57.973Z</time></trkpt><trkpt lat="39.628045338494125" lon="16.017634840624147"><ele>501.0</ele><time>2026-04-18T08:26:58.973Z</time></trkpt><trkpt lat="39.62798007335454" lon="16.017553396910696"><ele>501.0</ele><time>2026-04-18T08:26:59.973Z</time></trkpt><trkpt lat="39.627953642876506" lon="16.017455137587625"><ele>501.0</ele><time>2026-04-18T08:27:00.973Z</time></trkpt><trkpt lat="39.627951176715726" lon="16.017360121002543"><ele>501.0</ele><time>2026-04-18T08:27:01.973Z</time></trkpt><trkpt lat="39.62795626542641" lon="16.017258119407323"><ele>501.0</ele><time>2026-04-18T08:27:02.973Z</time></trkpt><trkpt lat="39.628005786442785" lon="16.01715958356447"><ele>498.8</ele><time>2026-04-18T08:27:03.973Z</time></trkpt><trkpt lat="39.62806022761482" lon="16.017087863152614"><ele>496.6</ele><time>2026-04-18T08:27:04.973Z</time></trkpt><trkpt lat="39.62812508970561" lon="16.017038494291445"><ele>494.4</ele><time>2026-04-18T08:27:05.973Z</time></trkpt><trkpt lat="39.62821767472125" lon="16.01701140841691"><ele>492.2</ele><time>2026-04-18T08:27:06.973Z</time></trkpt><trkpt lat="39.628330848641305" lon="16.016988736263848"><ele>490.0</ele><time>2026-04-18T08:27:07.973Z</time></trkpt><trkpt lat="39.62843871879768" lon="16.01697261551699"><ele>490.0</ele><time>2026-04-18T08:27:08.973Z</time></trkpt><trkpt lat="39.62853315461856" lon="16.01693811188771"><ele>490.0</ele><time>2026-04-18T08:27:09.973Z</time></trkpt><trkpt lat="39.62861691168344" lon="16.016890247925257"><ele>490.0</ele><time>2026-04-18T08:27:10.973Z</time></trkpt><trkpt lat="39.62867278120554" lon="16.01680857740866"><ele>490.0</ele><time>2026-04-18T08:27:11.973Z</time></trkpt><trkpt lat="39.62867650786101" lon="16.01669265035574"><ele>490.0</ele><time>2026-04-18T08:27:12.973Z</time></trkpt><trkpt lat="39.62868240439202" lon="16.016575743282964"><ele>489.5</ele><time>2026-04-18T08:27:13.973Z</time></trkpt><trkpt lat="39.62863677861566" lon="16.01644064023706"><ele>489.0</ele><time>2026-04-18T08:27:14.973Z</time></trkpt><trkpt lat="39.628586070693025" lon="16.016316279623506"><ele>488.5</ele><time>2026-04-18T08:27:15.973Z</time></trkpt><trkpt lat="39.62852916620295" lon="16.016181397645283"><ele>488.0</ele><time>2026-04-18T08:27:16.973Z</time></trkpt><trkpt lat="39.628464296867755" lon="16.016046186318768"><ele>488.0</ele><time>2026-04-18T08:27:17.972Z</time></trkpt><trkpt lat="39.62839834511495" lon="16.015928988717512"><ele>487.99999999999994</ele><time>2026-04-18T08:27:18.972Z</time></trkpt><trkpt lat="39.62833399340159" lon="16.01581699094807"><ele>487.99999999999994</ele><time>2026-04-18T08:27:19.972Z</time></trkpt><trkpt lat="39.628279580231286" lon="16.015710480694583"><ele>488.0</ele><time>2026-04-18T08:27:20.972Z</time></trkpt><trkpt lat="39.628239400655424" lon="16.015588941739185"><ele>488.0</ele><time>2026-04-18T08:27:21.972Z</time></trkpt><trkpt lat="39.62822247631254" lon="16.015444695949927"><ele>488.0</ele><time>2026-04-18T08:27:22.972Z</time></trkpt><trkpt lat="39.62820894743224" lon="16.01530001529154"><ele>487.99999999999994</ele><time>2026-04-18T08:27:23.972Z</time></trkpt><trkpt lat="39.62820055078981" lon="16.01516458309906"><ele>487.99999999999994</ele><time>2026-04-18T08:27:24.972Z</time></trkpt><trkpt lat="39.62820323674645" lon="16.01505394051425"><ele>488.0</ele><time>2026-04-18T08:27:25.972Z</time></trkpt><trkpt lat="39.628223046493694" lon="16.014943223031565"><ele>488.0</ele><time>2026-04-18T08:27:26.972Z</time></trkpt><trkpt lat="39.62829233783804" lon="16.014835368983118"><ele>487.99999999999994</ele><time>2026-04-18T08:27:27.972Z</time></trkpt><trkpt lat="39.62837813215077" lon="16.014749597913077"><ele>488.0</ele><time>2026-04-18T08:27:28.972Z</time></trkpt><trkpt lat="39.62845332319477" lon="16.014686799554255"><ele>488.0</ele><time>2026-04-18T08:27:29.973Z</time></trkpt><trkpt lat="39.628500542707" lon="16.01461828768535"><ele>488.0</ele><time>2026-04-18T08:27:30.973Z</time></trkpt><trkpt lat="39.62853435326995" lon="16.01452057936789"><ele>487.99999999999994</ele><time>2026-04-18T08:27:31.973Z</time></trkpt><trkpt lat="39.62852243838493" lon="16.01441079375356"><ele>488.0</ele><time>2026-04-18T08:27:32.973Z</time></trkpt><trkpt lat="39.62846230693187" lon="16.014310411860798"><ele>488.0</ele><time>2026-04-18T08:27:33.973Z</time></trkpt><trkpt lat="39.62835818788971" lon="16.014265037640737"><ele>487.99999999999994</ele><time>2026-04-18T08:27:34.973Z</time></trkpt><trkpt lat="39.62825260414352" lon="16.014245348390695"><ele>487.99999999999994</ele><time>2026-04-18T08:27:35.973Z</time></trkpt><trkpt lat="39.62816331463402" lon="16.01422097399197"><ele>488.0</ele><time>2026-04-18T08:27:36.973Z</time></trkpt><trkpt lat="39.62808801149097" lon="16.014175261036126"><ele>488.0</ele><time>2026-04-18T08:27:37.973Z</time></trkpt><trkpt lat="39.62801926519213" lon="16.01409799914549"><ele>489.5</ele><time>2026-04-18T08:27:38.973Z</time></trkpt><trkpt lat="39.6279448187763" lon="16.013990436026365"><ele>491.0</ele><time>2026-04-18T08:27:39.973Z</time></trkpt><trkpt lat="39.62786294706861" lon="16.01386762305685"><ele>492.5</ele><time>2026-04-18T08:27:40.973Z</time></trkpt><trkpt lat="39.62778612935026" lon="16.013755238855317"><ele>494.0</ele><time>2026-04-18T08:27:41.973Z</time></trkpt><trkpt lat="39.627717223136266" lon="16.013650652175535"><ele>492.66666666666663</ele><time>2026-04-18T08:27:42.973Z</time></trkpt><trkpt lat="39.627664339823646" lon="16.01355028395885"><ele>491.3333333333333</ele><time>2026-04-18T08:27:43.973Z</time></trkpt><trkpt lat="39.62764056480238" lon="16.013458769915466"><ele>490.0</ele><time>2026-04-18T08:27:44.973Z</time></trkpt><trkpt lat="39.627663612932125" lon="16.01334463402662"><ele>488.66666666666663</ele><time>2026-04-18T08:27:45.973Z</time></trkpt><trkpt lat="39.627727900765414" lon="16.013265546578385"><ele>487.3333333333333</ele><time>2026-04-18T08:27:46.973Z</time></trkpt><trkpt lat="39.62781645012275" lon="16.013206336321588"><ele>486.0</ele><time>2026-04-18T08:27:47.973Z</time></trkpt><trkpt lat="39.62791728888773" lon="16.013171245119416"><ele>486.0</ele><time>2026-04-18T08:27:48.973Z</time></trkpt><trkpt lat="39.62801138088782" lon="16.013144626178782"><ele>486.0</ele><time>2026-04-18T08:27:49.973Z</time></trkpt><trkpt lat="39.62808258287288" lon="16.01309924242998"><ele>486.0</ele><time>2026-04-18T08:27:50.973Z</time></trkpt><trkpt lat="39.628132356707205" lon="16.012983745704897"><ele>486.0</ele><time>2026-04-18T08:27:51.973Z</time></trkpt><trkpt lat="39.62816049027393" lon="16.012889682744575"><ele>486.0</ele><time>2026-04-18T08:27:52.973Z</time></trkpt><trkpt lat="39.628178438453354" lon="16.01276504009526"><ele>486.0</ele><time>2026-04-18T08:27:53.973Z</time></trkpt><trkpt lat="39.62816927197614" lon="16.012649826673997"><ele>486.0</ele><time>2026-04-18T08:27:54.973Z</time></trkpt><trkpt lat="39.62812786596843" lon="16.012533809218446"><ele>486.0</ele><time>2026-04-18T08:27:55.973Z</time></trkpt><trkpt lat="39.62805998993731" lon="16.01239918168196"><ele>486.0</ele><time>2026-04-18T08:27:56.973Z</time></trkpt><trkpt lat="39.62796168246342" lon="16.0122517345706"><ele>488.25</ele><time>2026-04-18T08:27:57.973Z</time></trkpt><trkpt lat="39.62785688616514" lon="16.01211020900197"><ele>490.5</ele><time>2026-04-18T08:27:58.973Z</time></trkpt><trkpt lat="39.627740797609846" lon="16.01201131763052"><ele>492.75</ele><time>2026-04-18T08:27:59.973Z</time></trkpt><trkpt lat="39.62761562476789" lon="16.01194160683892"><ele>495.0</ele><time>2026-04-18T08:28:00.973Z</time></trkpt><trkpt lat="39.62750948569263" lon="16.011889222058485"><ele>490.5</ele><time>2026-04-18T08:28:01.973Z</time></trkpt><trkpt lat="39.62740567952901" lon="16.01183523801144"><ele>486.0</ele><time>2026-04-18T08:28:02.973Z</time></trkpt><trkpt lat="39.627325305772025" lon="16.011782200320855"><ele>481.5</ele><time>2026-04-18T08:28:03.973Z</time></trkpt><trkpt lat="39.62725831265365" lon="16.011700648965213"><ele>477.0</ele><time>2026-04-18T08:28:04.973Z</time></trkpt><trkpt lat="39.627223757112006" lon="16.011632034970116"><ele>472.5</ele><time>2026-04-18T08:28:05.973Z</time></trkpt><trkpt lat="39.627207608138846" lon="16.011531577836358"><ele>468.0</ele><time>2026-04-18T08:28:06.973Z</time></trkpt><trkpt lat="39.627199854471414" lon="16.011420572114446"><ele>466.1666666666667</ele><time>2026-04-18T08:28:07.973Z</time></trkpt><trkpt lat="39.62720457750981" lon="16.01132576060368"><ele>464.33333333333337</ele><time>2026-04-18T08:28:08.973Z</time></trkpt><trkpt lat="39.62722805020397" lon="16.01123422352466"><ele>462.5</ele><time>2026-04-18T08:28:09.973Z</time></trkpt><trkpt lat="39.627310295075375" lon="16.0111370449254"><ele>460.6666666666667</ele><time>2026-04-18T08:28:11.973Z</time></trkpt><trkpt lat="39.62738455221322" lon="16.01117517076351"><ele>458.83333333333337</ele><time>2026-04-18T08:28:12.973Z</time></trkpt><trkpt lat="39.62746983098001" lon="16.01123218004644"><ele>457.0</ele><time>2026-04-18T08:28:13.973Z</time></trkpt><trkpt lat="39.627564358424216" lon="16.01129497841655"><ele>457.0</ele><time>2026-04-18T08:28:14.973Z</time></trkpt><trkpt lat="39.62765088539149" lon="16.01133759640177"><ele>457.00000000000006</ele><time>2026-04-18T08:28:15.973Z</time></trkpt><trkpt lat="39.62773603809295" lon="16.0113502308829"><ele>457.00000000000006</ele><time>2026-04-18T08:28:16.973Z</time></trkpt><trkpt lat="39.62781900155558" lon="16.011322466546055"><ele>457.0</ele><time>2026-04-18T08:28:17.973Z</time></trkpt><trkpt lat="39.62789453142421" lon="16.011272489281687"><ele>457.0</ele><time>2026-04-18T08:28:18.973Z</time></trkpt><trkpt lat="39.62795322321683" lon="16.011157604666618"><ele>457.5</ele><time>2026-04-18T08:28:19.973Z</time></trkpt><trkpt lat="39.62798598606572" lon="16.01100384643899"><ele>458.0</ele><time>2026-04-18T08:28:20.973Z</time></trkpt><trkpt lat="39.62801683433098" lon="16.01085478458465"><ele>458.5</ele><time>2026-04-18T08:28:21.973Z</time></trkpt><trkpt lat="39.62804713248258" lon="16.010701666914496"><ele>459.0</ele><time>2026-04-18T08:28:22.972Z</time></trkpt><trkpt lat="39.62807437252466" lon="16.010551922732656"><ele>459.0</ele><time>2026-04-18T08:28:23.972Z</time></trkpt><trkpt lat="39.62810249439297" lon="16.010416676002286"><ele>459.0</ele><time>2026-04-18T08:28:24.972Z</time></trkpt><trkpt lat="39.628141785881425" lon="16.010310279351142"><ele>459.0</ele><time>2026-04-18T08:28:25.972Z</time></trkpt><trkpt lat="39.628198403501344" lon="16.010243994431736"><ele>459.0</ele><time>2026-04-18T08:28:26.972Z</time></trkpt><trkpt lat="39.62826514743974" lon="16.01022044092482"><ele>459.0</ele><time>2026-04-18T08:28:27.972Z</time></trkpt><trkpt lat="39.628353676048555" lon="16.010215677842083"><ele>459.0</ele><time>2026-04-18T08:28:28.972Z</time></trkpt><trkpt lat="39.6284634955582" lon="16.010173751430475"><ele>459.0</ele><time>2026-04-18T08:28:29.972Z</time></trkpt><trkpt lat="39.62856336041781" lon="16.010095243411882"><ele>459.0</ele><time>2026-04-18T08:28:30.972Z</time></trkpt><trkpt lat="39.62867062522769" lon="16.010050144648357"><ele>459.0</ele><time>2026-04-18T08:28:31.972Z</time></trkpt><trkpt lat="39.6287637797332" lon="16.009994660851927"><ele>459.0</ele><time>2026-04-18T08:28:32.972Z</time></trkpt><trkpt lat="39.62884209215728" lon="16.00991848116106"><ele>459.0</ele><time>2026-04-18T08:28:33.972Z</time></trkpt><trkpt lat="39.628925471107515" lon="16.009862304520322"><ele>469.25</ele><time>2026-04-18T08:28:34.972Z</time></trkpt><trkpt lat="39.628945657293905" lon="16.009739313347147"><ele>479.5</ele><time>2026-04-18T08:28:35.972Z</time></trkpt><trkpt lat="39.62889957105824" lon="16.00959345103444"><ele>489.75</ele><time>2026-04-18T08:28:36.972Z</time></trkpt><trkpt lat="39.62877690296203" lon="16.009509061006543"><ele>500.0</ele><time>2026-04-18T08:28:37.972Z</time></trkpt><trkpt lat="39.62869302782808" lon="16.00939039264818"><ele>497.0</ele><time>2026-04-18T08:28:38.972Z</time></trkpt><trkpt lat="39.62859674950601" lon="16.009283483484104"><ele>494.0</ele><time>2026-04-18T08:28:39.972Z</time></trkpt><trkpt lat="39.628505006465545" lon="16.00917892438151"><ele>491.0</ele><time>2026-04-18T08:28:40.972Z</time></trkpt><trkpt lat="39.62841927765307" lon="16.009077822281416"><ele>488.0</ele><time>2026-04-18T08:28:41.972Z</time></trkpt><trkpt lat="39.628332126992596" lon="16.00898155609082"><ele>488.0</ele><time>2026-04-18T08:28:42.972Z</time></trkpt><trkpt lat="39.628234965241916" lon="16.00890988911193"><ele>488.0</ele><time>2026-04-18T08:28:43.972Z</time></trkpt><trkpt lat="39.62812651303501" lon="16.008878586700284"><ele>488.0</ele><time>2026-04-18T08:28:44.972Z</time></trkpt><trkpt lat="39.6279907005371" lon="16.008886501869945"><ele>488.0</ele><time>2026-04-18T08:28:45.972Z</time></trkpt><trkpt lat="39.62787827762308" lon="16.00888705295956"><ele>479.79999999999995</ele><time>2026-04-18T08:28:46.972Z</time></trkpt><trkpt lat="39.627796273940554" lon="16.00886534785454"><ele>471.59999999999997</ele><time>2026-04-18T08:28:47.972Z</time></trkpt><trkpt lat="39.62772697694809" lon="16.008839551055548"><ele>463.40000000000003</ele><time>2026-04-18T08:28:48.972Z</time></trkpt><trkpt lat="39.62767763055491" lon="16.008707058627138"><ele>455.20000000000005</ele><time>2026-04-18T08:28:50.972Z</time></trkpt><trkpt lat="39.627698348317814" lon="16.008509095253228"><ele>447.0</ele><time>2026-04-18T08:28:52.972Z</time></trkpt><trkpt lat="39.627693685993314" lon="16.00836239182627"><ele>447.20000000000005</ele><time>2026-04-18T08:28:53.972Z</time></trkpt><trkpt lat="39.62768214504954" lon="16.008219780022056"><ele>447.40000000000003</ele><time>2026-04-18T08:28:54.972Z</time></trkpt><trkpt lat="39.62766992860732" lon="16.00809062416464"><ele>447.59999999999997</ele><time>2026-04-18T08:28:55.972Z</time></trkpt><trkpt lat="39.62765843746676" lon="16.007974137067123"><ele>447.79999999999995</ele><time>2026-04-18T08:28:56.972Z</time></trkpt><trkpt lat="39.62764807176397" lon="16.00786251493874"><ele>448.0</ele><time>2026-04-18T08:28:57.972Z</time></trkpt><trkpt lat="39.62764452420611" lon="16.007741767036478"><ele>448.0</ele><time>2026-04-18T08:28:58.972Z</time></trkpt><trkpt lat="39.62767152909742" lon="16.00761639717725"><ele>448.0</ele><time>2026-04-18T08:28:59.972Z</time></trkpt><trkpt lat="39.62770520921944" lon="16.007478525955683"><ele>448.0</ele><time>2026-04-18T08:29:00.972Z</time></trkpt><trkpt lat="39.62774239262739" lon="16.00732620011727"><ele>448.0</ele><time>2026-04-18T08:29:01.972Z</time></trkpt><trkpt lat="39.62777112597948" lon="16.0071674386226"><ele>446.2</ele><time>2026-04-18T08:29:02.972Z</time></trkpt><trkpt lat="39.6277937111282" lon="16.007024219162542"><ele>444.4</ele><time>2026-04-18T08:29:03.972Z</time></trkpt><trkpt lat="39.62781450984661" lon="16.006885373635765"><ele>442.59999999999997</ele><time>2026-04-18T08:29:04.972Z</time></trkpt><trkpt lat="39.62783529985372" lon="16.00674562129549"><ele>440.79999999999995</ele><time>2026-04-18T08:29:05.972Z</time></trkpt><trkpt lat="39.62786549321779" lon="16.006616647911745"><ele>439.0</ele><time>2026-04-18T08:29:06.972Z</time></trkpt><trkpt lat="39.62790803853018" lon="16.006490543041316"><ele>446.0</ele><time>2026-04-18T08:29:07.972Z</time></trkpt><trkpt lat="39.62796198985525" lon="16.00637472340912"><ele>453.0</ele><time>2026-04-18T08:29:08.972Z</time></trkpt><trkpt lat="39.62802443188734" lon="16.00625878504509"><ele>460.0</ele><time>2026-04-18T08:29:09.972Z</time></trkpt><trkpt lat="39.62806719255709" lon="16.006118586874443"><ele>467.0</ele><time>2026-04-18T08:29:10.972Z</time></trkpt><trkpt lat="39.62804250087874" lon="16.005921483537616"><ele>463.25</ele><time>2026-04-18T08:29:11.972Z</time></trkpt><trkpt lat="39.62805540558424" lon="16.00575061640624"><ele>459.5</ele><time>2026-04-18T08:29:12.971Z</time></trkpt><trkpt lat="39.628080281633935" lon="16.005588067872832"><ele>455.75</ele><time>2026-04-18T08:29:13.971Z</time></trkpt><trkpt lat="39.62812375990734" lon="16.005459989607072"><ele>452.0</ele><time>2026-04-18T08:29:14.971Z</time></trkpt><trkpt lat="39.62819842392394" lon="16.00534134096518"><ele>452.0</ele><time>2026-04-18T08:29:15.971Z</time></trkpt><trkpt lat="39.62829274884179" lon="16.00522281949336"><ele>452.0</ele><time>2026-04-18T08:29:16.971Z</time></trkpt><trkpt lat="39.628385846304404" lon="16.005104832186106"><ele>452.0</ele><time>2026-04-18T08:29:17.971Z</time></trkpt><trkpt lat="39.62847471574399" lon="16.00499745948017"><ele>452.0</ele><time>2026-04-18T08:29:18.971Z</time></trkpt><trkpt lat="39.628565519813144" lon="16.0049129661328"><ele>458.0</ele><time>2026-04-18T08:29:19.971Z</time></trkpt><trkpt lat="39.62865816847003" lon="16.004858688350254"><ele>464.00000000000006</ele><time>2026-04-18T08:29:20.971Z</time></trkpt><trkpt lat="39.62873144780981" lon="16.004802773201842"><ele>470.00000000000006</ele><time>2026-04-18T08:29:21.971Z</time></trkpt><trkpt lat="39.62880968070266" lon="16.004702349934927"><ele>476.0</ele><time>2026-04-18T08:29:23.971Z</time></trkpt><trkpt lat="39.628842570526196" lon="16.00459554643719"><ele>482.0</ele><time>2026-04-18T08:29:25.971Z</time></trkpt><trkpt lat="39.62883774845176" lon="16.00451122748953"><ele>482.0</ele><time>2026-04-18T08:29:53.971Z</time></trkpt><trkpt lat="39.62883949641041" lon="16.004391605917462"><ele>482.00000000000006</ele><time>2026-04-18T08:29:55.971Z</time></trkpt><trkpt lat="39.6288790006357" lon="16.00425228040671"><ele>482.00000000000006</ele><time>2026-04-18T08:29:57.971Z</time></trkpt><trkpt lat="39.62890156479729" lon="16.004160542022298"><ele>482.0</ele><time>2026-04-18T08:29:58.971Z</time></trkpt><trkpt lat="39.628897154887824" lon="16.004061154403"><ele>482.0</ele><time>2026-04-18T08:29:59.971Z</time></trkpt><trkpt lat="39.628835834755584" lon="16.0039626360896"><ele>482.8</ele><time>2026-04-18T08:30:00.971Z</time></trkpt><trkpt lat="39.628754140284286" lon="16.003916718578104"><ele>483.6</ele><time>2026-04-18T08:30:01.971Z</time></trkpt><trkpt lat="39.6286683008471" lon="16.003930881473792"><ele>484.40000000000003</ele><time>2026-04-18T08:30:02.971Z</time></trkpt><trkpt lat="39.62858250051564" lon="16.00395941137494"><ele>485.20000000000005</ele><time>2026-04-18T08:30:03.971Z</time></trkpt><trkpt lat="39.62848509121732" lon="16.004040251236162"><ele>486.0</ele><time>2026-04-18T08:30:04.971Z</time></trkpt><trkpt lat="39.62839112164166" lon="16.004127246577397"><ele>489.4</ele><time>2026-04-18T08:30:05.971Z</time></trkpt><trkpt lat="39.62830380518431" lon="16.004170205328517"><ele>492.8</ele><time>2026-04-18T08:30:06.971Z</time></trkpt><trkpt lat="39.62819961718997" lon="16.00415947459477"><ele>496.19999999999993</ele><time>2026-04-18T08:30:07.971Z</time></trkpt><trkpt lat="39.62809291833474" lon="16.004187567965886"><ele>499.59999999999997</ele><time>2026-04-18T08:30:08.971Z</time></trkpt><trkpt lat="39.62798030617763" lon="16.004221686584845"><ele>503.0</ele><time>2026-04-18T08:30:09.971Z</time></trkpt><trkpt lat="39.627870700023564" lon="16.004291892092777"><ele>499.0</ele><time>2026-04-18T08:30:10.971Z</time></trkpt><trkpt lat="39.627749255615356" lon="16.004401773396214"><ele>495.0</ele><time>2026-04-18T08:30:11.971Z</time></trkpt><trkpt lat="39.62762803268585" lon="16.004512491949605"><ele>491.0</ele><time>2026-04-18T08:30:12.971Z</time></trkpt><trkpt lat="39.62752071211078" lon="16.004596465807747"><ele>487.0</ele><time>2026-04-18T08:30:13.971Z</time></trkpt><trkpt lat="39.6274267330925" lon="16.004658355791367"><ele>487.0</ele><time>2026-04-18T08:30:14.971Z</time></trkpt><trkpt lat="39.62733997188741" lon="16.004729017439896"><ele>487.0</ele><time>2026-04-18T08:30:15.971Z</time></trkpt><trkpt lat="39.62725861505131" lon="16.004811637594507"><ele>487.0</ele><time>2026-04-18T08:30:16.971Z</time></trkpt><trkpt lat="39.62718573051235" lon="16.004938561662613"><ele>487.0</ele><time>2026-04-18T08:30:17.971Z</time></trkpt><trkpt lat="39.627113158849944" lon="16.00508648199412"><ele>482.75</ele><time>2026-04-18T08:30:18.971Z</time></trkpt><trkpt lat="39.6270168088931" lon="16.005199101428385"><ele>478.5</ele><time>2026-04-18T08:30:19.971Z</time></trkpt><trkpt lat="39.6268966254167" lon="16.00526574587045"><ele>474.25</ele><time>2026-04-18T08:30:20.971Z</time></trkpt><trkpt lat="39.626771165951475" lon="16.005317751023057"><ele>470.0</ele><time>2026-04-18T08:30:21.971Z</time></trkpt><trkpt lat="39.62667786073166" lon="16.00538383101855"><ele>469.99999999999994</ele><time>2026-04-18T08:30:22.971Z</time></trkpt><trkpt lat="39.62660185380459" lon="16.005444020663894"><ele>470.0</ele><time>2026-04-18T08:30:23.971Z</time></trkpt><trkpt lat="39.62653315667766" lon="16.005484862326085"><ele>470.0</ele><time>2026-04-18T08:30:24.971Z</time></trkpt><trkpt lat="39.62647236500091" lon="16.005509925903805"><ele>470.0</ele><time>2026-04-18T08:30:25.971Z</time></trkpt><trkpt lat="39.62636344367727" lon="16.00544633798941"><ele>469.99999999999994</ele><time>2026-04-18T08:30:27.971Z</time></trkpt><trkpt lat="39.62634366004402" lon="16.005359103364484"><ele>470.0</ele><time>2026-04-18T08:30:28.971Z</time></trkpt><trkpt lat="39.62640385340486" lon="16.005253582851527"><ele>470.0</ele><time>2026-04-18T08:30:29.971Z</time></trkpt><trkpt lat="39.6264216425547" lon="16.00512571344679"><ele>470.0</ele><time>2026-04-18T08:30:30.971Z</time></trkpt><trkpt lat="39.62643014838246" lon="16.004986885249867"><ele>470.0</ele><time>2026-04-18T08:30:31.971Z</time></trkpt><trkpt lat="39.6264189695112" lon="16.004841179270976"><ele>470.0</ele><time>2026-04-18T08:30:32.971Z</time></trkpt><trkpt lat="39.6263889413113" lon="16.004690537539567"><ele>470.0</ele><time>2026-04-18T08:30:33.971Z</time></trkpt><trkpt lat="39.62637046533429" lon="16.004542754380964"><ele>474.25</ele><time>2026-04-18T08:30:34.971Z</time></trkpt><trkpt lat="39.62636340274152" lon="16.004382330855584"><ele>478.5</ele><time>2026-04-18T08:30:35.971Z</time></trkpt><trkpt lat="39.626385078189294" lon="16.004214480843487"><ele>482.75</ele><time>2026-04-18T08:30:36.971Z</time></trkpt><trkpt lat="39.62642358296589" lon="16.004016448204833"><ele>487.0</ele><time>2026-04-18T08:30:37.971Z</time></trkpt><trkpt lat="39.62646201899507" lon="16.003839609435083"><ele>487.0</ele><time>2026-04-18T08:30:38.971Z</time></trkpt><trkpt lat="39.62649092745739" lon="16.0036810489857"><ele>487.0</ele><time>2026-04-18T08:30:39.971Z</time></trkpt><trkpt lat="39.626519006527914" lon="16.003525150062334"><ele>487.0</ele><time>2026-04-18T08:30:40.971Z</time></trkpt><trkpt lat="39.62654878262986" lon="16.003366683291407"><ele>487.0</ele><time>2026-04-18T08:30:41.971Z</time></trkpt><trkpt lat="39.62656125327395" lon="16.003203130145586"><ele>486.75</ele><time>2026-04-18T08:30:42.971Z</time></trkpt><trkpt lat="39.626529069245564" lon="16.003052311194622"><ele>486.5</ele><time>2026-04-18T08:30:43.971Z</time></trkpt><trkpt lat="39.62647076208121" lon="16.002917181700283"><ele>486.25</ele><time>2026-04-18T08:30:44.971Z</time></trkpt><trkpt lat="39.626435893318714" lon="16.002763039321863"><ele>486.0</ele><time>2026-04-18T08:30:45.971Z</time></trkpt><trkpt lat="39.62641468729041" lon="16.002627409641043"><ele>482.75</ele><time>2026-04-18T08:30:46.971Z</time></trkpt><trkpt lat="39.626421587726675" lon="16.002475401702213"><ele>479.5</ele><time>2026-04-18T08:30:47.971Z</time></trkpt><trkpt lat="39.626436224736864" lon="16.00232641452776"><ele>476.25</ele><time>2026-04-18T08:30:48.971Z</time></trkpt><trkpt lat="39.626455577322844" lon="16.002180768633394"><ele>473.0</ele><time>2026-04-18T08:30:49.971Z</time></trkpt><trkpt lat="39.626469546764554" lon="16.00203649942975"><ele>473.0</ele><time>2026-04-18T08:30:50.971Z</time></trkpt><trkpt lat="39.626528835553536" lon="16.00192752131901"><ele>472.99999999999994</ele><time>2026-04-18T08:30:51.971Z</time></trkpt><trkpt lat="39.62658227004927" lon="16.001767875648746"><ele>472.99999999999994</ele><time>2026-04-18T08:30:52.971Z</time></trkpt><trkpt lat="39.62660619920925" lon="16.001648177925244"><ele>473.0</ele><time>2026-04-18T08:30:53.971Z</time></trkpt><trkpt lat="39.62661525774583" lon="16.00151184385906"><ele>473.0</ele><time>2026-04-18T08:30:54.971Z</time></trkpt><trkpt lat="39.62661677647194" lon="16.00136470773467"><ele>470.0</ele><time>2026-04-18T08:30:55.971Z</time></trkpt><trkpt lat="39.626629979381015" lon="16.001227068258586"><ele>466.99999999999994</ele><time>2026-04-18T08:30:56.971Z</time></trkpt><trkpt lat="39.626685233101185" lon="16.00110360695723"><ele>463.99999999999994</ele><time>2026-04-18T08:30:57.971Z</time></trkpt><trkpt lat="39.62676207473139" lon="16.001018840341406"><ele>461.0</ele><time>2026-04-18T08:30:58.971Z</time></trkpt><trkpt lat="39.62684155818078" lon="16.00094111184479"><ele>458.0</ele><time>2026-04-18T08:30:59.971Z</time></trkpt><trkpt lat="39.62689534054943" lon="16.000845376900457"><ele>458.25</ele><time>2026-04-18T08:31:00.971Z</time></trkpt><trkpt lat="39.62692329946567" lon="16.000726002865065"><ele>458.5</ele><time>2026-04-18T08:31:01.971Z</time></trkpt><trkpt lat="39.6269134550677" lon="16.000571013385446"><ele>458.75</ele><time>2026-04-18T08:31:02.971Z</time></trkpt><trkpt lat="39.62686460374776" lon="16.000407612791275"><ele>459.0</ele><time>2026-04-18T08:31:03.971Z</time></trkpt><trkpt lat="39.62678289996561" lon="16.00027080932401"><ele>459.0</ele><time>2026-04-18T08:31:04.971Z</time></trkpt><trkpt lat="39.626683171542695" lon="16.00016948778359"><ele>459.0</ele><time>2026-04-18T08:31:05.971Z</time></trkpt><trkpt lat="39.626613815959196" lon="16.000068135828"><ele>459.0</ele><time>2026-04-18T08:31:06.971Z</time></trkpt><trkpt lat="39.6265887452307" lon="15.999937368792766"><ele>459.0</ele><time>2026-04-18T08:31:07.971Z</time></trkpt><trkpt lat="39.626623919809965" lon="15.999796306977435"><ele>459.0</ele><time>2026-04-18T08:31:08.971Z</time></trkpt><trkpt lat="39.62672010393302" lon="15.999668733391795"><ele>459.0</ele><time>2026-04-18T08:31:09.971Z</time></trkpt><trkpt lat="39.626784256056666" lon="15.999554201223637"><ele>459.0</ele><time>2026-04-18T08:31:10.971Z</time></trkpt><trkpt lat="39.6268266899517" lon="15.999431843820872"><ele>459.0</ele><time>2026-04-18T08:31:11.971Z</time></trkpt><trkpt lat="39.62687090433214" lon="15.999309422574628"><ele>459.0</ele><time>2026-04-18T08:31:12.97Z</time></trkpt><trkpt lat="39.626901322507564" lon="15.999184826172254"><ele>459.0</ele><time>2026-04-18T08:31:13.97Z</time></trkpt><trkpt lat="39.62691635246132" lon="15.99906914893923"><ele>459.2</ele><time>2026-04-18T08:31:14.97Z</time></trkpt><trkpt lat="39.62690838249029" lon="15.998940123779212"><ele>459.4</ele><time>2026-04-18T08:31:15.97Z</time></trkpt><trkpt lat="39.62689292760594" lon="15.998811553646128"><ele>459.6</ele><time>2026-04-18T08:31:16.97Z</time></trkpt><trkpt lat="39.62687409284464" lon="15.998665543435894"><ele>459.8</ele><time>2026-04-18T08:31:17.97Z</time></trkpt><trkpt lat="39.62684196175551" lon="15.998503368942515"><ele>460.0</ele><time>2026-04-18T08:31:18.97Z</time></trkpt><trkpt lat="39.62678123891117" lon="15.998333797389208"><ele>461.0</ele><time>2026-04-18T08:31:19.97Z</time></trkpt><trkpt lat="39.62669845818303" lon="15.998181901971147"><ele>462.0</ele><time>2026-04-18T08:31:20.97Z</time></trkpt><trkpt lat="39.62665771366925" lon="15.998034352837113"><ele>463.0</ele><time>2026-04-18T08:31:21.97Z</time></trkpt><trkpt lat="39.626629619464765" lon="15.997907975021429"><ele>464.0</ele><time>2026-04-18T08:31:22.97Z</time></trkpt><trkpt lat="39.62666070235763" lon="15.997770431274187"><ele>464.0</ele><time>2026-04-18T08:31:23.97Z</time></trkpt><trkpt lat="39.626683876299964" lon="15.997643088993746"><ele>464.0</ele><time>2026-04-18T08:31:24.97Z</time></trkpt><trkpt lat="39.62664993563373" lon="15.997547799167684"><ele>464.0</ele><time>2026-04-18T08:31:25.97Z</time></trkpt><trkpt lat="39.62656326746476" lon="15.99748009751109"><ele>464.0</ele><time>2026-04-18T08:31:26.97Z</time></trkpt><trkpt lat="39.62645314600014" lon="15.997446136699365"><ele>464.0</ele><time>2026-04-18T08:31:27.97Z</time></trkpt><trkpt lat="39.6263673935914" lon="15.997400124354996"><ele>466.25</ele><time>2026-04-18T08:31:28.97Z</time></trkpt><trkpt lat="39.626338734378095" lon="15.99727604004695"><ele>468.5</ele><time>2026-04-18T08:31:29.97Z</time></trkpt><trkpt lat="39.62627124369878" lon="15.99715134419862"><ele>470.75</ele><time>2026-04-18T08:31:30.97Z</time></trkpt><trkpt lat="39.626225027277485" lon="15.997006932498968"><ele>473.0</ele><time>2026-04-18T08:31:31.97Z</time></trkpt><trkpt lat="39.6261614792679" lon="15.996858369202627"><ele>469.79999999999995</ele><time>2026-04-18T08:31:32.97Z</time></trkpt><trkpt lat="39.62607956500617" lon="15.996722681484828"><ele>466.59999999999997</ele><time>2026-04-18T08:31:33.97Z</time></trkpt><trkpt lat="39.62598325034376" lon="15.996624524798214"><ele>463.40000000000003</ele><time>2026-04-18T08:31:34.97Z</time></trkpt><trkpt lat="39.62589509282941" lon="15.996558159509025"><ele>460.20000000000005</ele><time>2026-04-18T08:31:35.97Z</time></trkpt><trkpt lat="39.62581997244469" lon="15.996496747663322"><ele>457.0</ele><time>2026-04-18T08:31:36.97Z</time></trkpt><trkpt lat="39.62575943379964" lon="15.996411741174766"><ele>457.0</ele><time>2026-04-18T08:31:37.97Z</time></trkpt><trkpt lat="39.62573192344884" lon="15.99630374486754"><ele>457.00000000000006</ele><time>2026-04-18T08:31:38.97Z</time></trkpt><trkpt lat="39.62574498589077" lon="15.996168448144351"><ele>457.00000000000006</ele><time>2026-04-18T08:31:39.97Z</time></trkpt><trkpt lat="39.62576460965712" lon="15.99602172622297"><ele>457.0</ele><time>2026-04-18T08:31:40.97Z</time></trkpt><trkpt lat="39.62574381674188" lon="15.99589947828196"><ele>457.0</ele><time>2026-04-18T08:31:41.971Z</time></trkpt><trkpt lat="39.625674496345624" lon="15.995794159857793"><ele>456.6</ele><time>2026-04-18T08:31:42.971Z</time></trkpt><trkpt lat="39.62557161731452" lon="15.995715173993485"><ele>456.20000000000005</ele><time>2026-04-18T08:31:43.971Z</time></trkpt><trkpt lat="39.625486242266604" lon="15.99565002989233"><ele>455.8</ele><time>2026-04-18T08:31:44.971Z</time></trkpt><trkpt lat="39.625432996832046" lon="15.995583784132698"><ele>455.4</ele><time>2026-04-18T08:31:45.971Z</time></trkpt><trkpt lat="39.62544879702519" lon="15.995437378435927"><ele>455.0</ele><time>2026-04-18T08:31:47.971Z</time></trkpt><trkpt lat="39.62550399093438" lon="15.995377651357087"><ele>455.0</ele><time>2026-04-18T08:31:48.971Z</time></trkpt><trkpt lat="39.625576835125315" lon="15.995362326239622"><ele>455.0</ele><time>2026-04-18T08:31:49.971Z</time></trkpt><trkpt lat="39.62564480075452" lon="15.995410266677837"><ele>455.0</ele><time>2026-04-18T08:31:50.971Z</time></trkpt><trkpt lat="39.62571091069117" lon="15.995474704591887"><ele>455.0</ele><time>2026-04-18T08:31:51.971Z</time></trkpt><trkpt lat="39.625790296983354" lon="15.995565800386107"><ele>455.0</ele><time>2026-04-18T08:31:52.971Z</time></trkpt><trkpt lat="39.62588033119394" lon="15.995661761017502"><ele>455.0</ele><time>2026-04-18T08:31:53.971Z</time></trkpt><trkpt lat="39.6259744287887" lon="15.995753727017805"><ele>455.0</ele><time>2026-04-18T08:31:54.971Z</time></trkpt><trkpt lat="39.62606104528517" lon="15.995826790817429"><ele>455.0</ele><time>2026-04-18T08:31:55.971Z</time></trkpt><trkpt lat="39.62615137989715" lon="15.995873611850078"><ele>455.0</ele><time>2026-04-18T08:31:56.971Z</time></trkpt><trkpt lat="39.626246881495206" lon="15.995879999206984"><ele>455.0</ele><time>2026-04-18T08:31:57.971Z</time></trkpt><trkpt lat="39.626338129960814" lon="15.995849518312118"><ele>456.2</ele><time>2026-04-18T08:31:58.971Z</time></trkpt><trkpt lat="39.62641840865864" lon="15.99580013404081"><ele>457.4</ele><time>2026-04-18T08:31:59.971Z</time></trkpt><trkpt lat="39.62648305130674" lon="15.995716912125058"><ele>458.6</ele><time>2026-04-18T08:32:00.971Z</time></trkpt><trkpt lat="39.626522303235745" lon="15.995592881906003"><ele>459.8</ele><time>2026-04-18T08:32:01.971Z</time></trkpt><trkpt lat="39.6265359240953" lon="15.9954522396899"><ele>461.0</ele><time>2026-04-18T08:32:02.971Z</time></trkpt><trkpt lat="39.62654271005884" lon="15.99533931429796"><ele>460.99999999999994</ele><time>2026-04-18T08:32:03.971Z</time></trkpt><trkpt lat="39.62657472151222" lon="15.995257696630135"><ele>461.0</ele><time>2026-04-18T08:32:04.971Z</time></trkpt><trkpt lat="39.62664576965703" lon="15.995228319277862"><ele>461.0</ele><time>2026-04-18T08:32:05.971Z</time></trkpt><trkpt lat="39.62672882308489" lon="15.99524450181619"><ele>461.0</ele><time>2026-04-18T08:32:06.971Z</time></trkpt><trkpt lat="39.62682210737834" lon="15.995310139354855"><ele>460.99999999999994</ele><time>2026-04-18T08:32:07.971Z</time></trkpt><trkpt lat="39.62692017123712" lon="15.995359177931922"><ele>461.0</ele><time>2026-04-18T08:32:08.971Z</time></trkpt><trkpt lat="39.62702144444706" lon="15.995340120313465"><ele>464.4</ele><time>2026-04-18T08:32:09.971Z</time></trkpt><trkpt lat="39.62712785696834" lon="15.995287458277563"><ele>467.8</ele><time>2026-04-18T08:32:10.971Z</time></trkpt><trkpt lat="39.62722566550284" lon="15.995247546414083"><ele>471.19999999999993</ele><time>2026-04-18T08:32:11.971Z</time></trkpt><trkpt lat="39.62732026040102" lon="15.995219777933716"><ele>474.59999999999997</ele><time>2026-04-18T08:32:12.971Z</time></trkpt><trkpt lat="39.627410579015475" lon="15.995217860166282"><ele>478.0</ele><time>2026-04-18T08:32:13.971Z</time></trkpt><trkpt lat="39.62747430384068" lon="15.995172167214575"><ele>478.0</ele><time>2026-04-18T08:32:14.971Z</time></trkpt><trkpt lat="39.6275312163649" lon="15.995113593255606"><ele>477.99999999999994</ele><time>2026-04-18T08:32:15.971Z</time></trkpt><trkpt lat="39.62759709549791" lon="15.995029744114655"><ele>477.99999999999994</ele><time>2026-04-18T08:32:16.971Z</time></trkpt><trkpt lat="39.627615019769394" lon="15.99490731130667"><ele>478.0</ele><time>2026-04-18T08:32:17.971Z</time></trkpt><trkpt lat="39.62761408703018" lon="15.994775573474865"><ele>478.0</ele><time>2026-04-18T08:32:18.971Z</time></trkpt><trkpt lat="39.62760370369062" lon="15.994654856294312"><ele>474.00000000000006</ele><time>2026-04-18T08:32:19.971Z</time></trkpt><trkpt lat="39.627598388458196" lon="15.994571037933085"><ele>470.0</ele><time>2026-04-18T08:32:20.971Z</time></trkpt><trkpt lat="39.62762212510558" lon="15.994485376225104"><ele>466.0</ele><time>2026-04-18T08:32:21.97Z</time></trkpt><trkpt lat="39.62772512804393" lon="15.99439279213292"><ele>462.0</ele><time>2026-04-18T08:32:23.97Z</time></trkpt><trkpt lat="39.627792277676676" lon="15.994432490672647"><ele>458.00000000000006</ele><time>2026-04-18T08:32:24.97Z</time></trkpt><trkpt lat="39.62784613550213" lon="15.994547797989268"><ele>454.0</ele><time>2026-04-18T08:32:25.97Z</time></trkpt><trkpt lat="39.627924117471174" lon="15.994604113100108"><ele>454.0</ele><time>2026-04-18T08:32:26.97Z</time></trkpt><trkpt lat="39.62800748921957" lon="15.994653315142289"><ele>454.0</ele><time>2026-04-18T08:32:27.97Z</time></trkpt><trkpt lat="39.62810585776788" lon="15.994690769057119"><ele>454.0</ele><time>2026-04-18T08:32:28.97Z</time></trkpt><trkpt lat="39.628216988009655" lon="15.994660299503078"><ele>454.0</ele><time>2026-04-18T08:32:29.97Z</time></trkpt><trkpt lat="39.62831044822131" lon="15.994699607858438"><ele>454.0</ele><time>2026-04-18T08:32:30.97Z</time></trkpt><trkpt lat="39.62838273107539" lon="15.994758117310226"><ele>454.0</ele><time>2026-04-18T08:32:31.97Z</time></trkpt><trkpt lat="39.628430349265884" lon="15.99485363886888"><ele>454.0</ele><time>2026-04-18T08:32:32.97Z</time></trkpt><trkpt lat="39.628524423113426" lon="15.994925423374301"><ele>454.0</ele><time>2026-04-18T08:32:33.97Z</time></trkpt><trkpt lat="39.628582417486065" lon="15.995022947921992"><ele>454.0</ele><time>2026-04-18T08:32:34.97Z</time></trkpt><trkpt lat="39.62870333186729" lon="15.995079490193994"><ele>454.0</ele><time>2026-04-18T08:32:35.97Z</time></trkpt><trkpt lat="39.62881851819308" lon="15.995115531884776"><ele>452.2</ele><time>2026-04-18T08:32:36.97Z</time></trkpt><trkpt lat="39.62891266712847" lon="15.995134875934383"><ele>450.4</ele><time>2026-04-18T08:32:37.97Z</time></trkpt><trkpt lat="39.62901280675391" lon="15.995134542041047"><ele>448.6</ele><time>2026-04-18T08:32:38.97Z</time></trkpt><trkpt lat="39.62910839935375" lon="15.99509306888743"><ele>446.8</ele><time>2026-04-18T08:32:39.97Z</time></trkpt><trkpt lat="39.62919277064186" lon="15.995020672171977"><ele>445.0</ele><time>2026-04-18T08:32:40.97Z</time></trkpt><trkpt lat="39.62928143562427" lon="15.994935958849487"><ele>445.00000000000006</ele><time>2026-04-18T08:32:41.97Z</time></trkpt><trkpt lat="39.62937703479037" lon="15.994903006029196"><ele>445.0</ele><time>2026-04-18T08:32:42.97Z</time></trkpt><trkpt lat="39.629467679971164" lon="15.99487445050625"><ele>445.0</ele><time>2026-04-18T08:32:43.97Z</time></trkpt><trkpt lat="39.62953451374828" lon="15.994820922793831"><ele>445.0</ele><time>2026-04-18T08:32:44.97Z</time></trkpt><trkpt lat="39.629580340231" lon="15.994737806573596"><ele>445.00000000000006</ele><time>2026-04-18T08:32:45.97Z</time></trkpt><trkpt lat="39.62959777873702" lon="15.99462811832149"><ele>445.0</ele><time>2026-04-18T08:32:46.97Z</time></trkpt><trkpt lat="39.62961508376955" lon="15.994524040782922"><ele>445.0</ele><time>2026-04-18T08:32:47.97Z</time></trkpt><trkpt lat="39.62960053468534" lon="15.994406325593067"><ele>445.0</ele><time>2026-04-18T08:32:48.97Z</time></trkpt><trkpt lat="39.629566097283764" lon="15.994312007829116"><ele>445.0</ele><time>2026-04-18T08:32:49.97Z</time></trkpt><trkpt lat="39.62950622677061" lon="15.994215796638708"><ele>445.0</ele><time>2026-04-18T08:32:50.97Z</time></trkpt><trkpt lat="39.6293841677432" lon="15.994188077210177"><ele>445.0</ele><time>2026-04-18T08:32:51.97Z</time></trkpt><trkpt lat="39.629292779260275" lon="15.99411629156654"><ele>442.2</ele><time>2026-04-18T08:32:52.97Z</time></trkpt><trkpt lat="39.62920730694023" lon="15.994047042301995"><ele>439.4</ele><time>2026-04-18T08:32:53.97Z</time></trkpt><trkpt lat="39.62915897120493" lon="15.993927097072515"><ele>436.6</ele><time>2026-04-18T08:32:54.97Z</time></trkpt><trkpt lat="39.62917451085457" lon="15.993781974585055"><ele>433.8</ele><time>2026-04-18T08:32:55.97Z</time></trkpt><trkpt lat="39.62915540836062" lon="15.993650994313576"><ele>431.0</ele><time>2026-04-18T08:32:56.97Z</time></trkpt><trkpt lat="39.62910618219945" lon="15.993527430881151"><ele>431.0</ele><time>2026-04-18T08:32:57.97Z</time></trkpt><trkpt lat="39.62904327290702" lon="15.993406534423498"><ele>431.0</ele><time>2026-04-18T08:32:58.97Z</time></trkpt><trkpt lat="39.6289433172351" lon="15.99330709426465"><ele>431.0</ele><time>2026-04-18T08:32:59.97Z</time></trkpt><trkpt lat="39.62882535996509" lon="15.993239138128528"><ele>431.0</ele><time>2026-04-18T08:33:00.97Z</time></trkpt><trkpt lat="39.62871376583989" lon="15.993171434744688"><ele>429.4</ele><time>2026-04-18T08:33:01.97Z</time></trkpt><trkpt lat="39.62860952032362" lon="15.993109250012"><ele>427.8</ele><time>2026-04-18T08:33:02.97Z</time></trkpt><trkpt lat="39.62852144490069" lon="15.993042484965532"><ele>426.2</ele><time>2026-04-18T08:33:03.97Z</time></trkpt><trkpt lat="39.62845250993715" lon="15.992946097268216"><ele>424.59999999999997</ele><time>2026-04-18T08:33:04.97Z</time></trkpt><trkpt lat="39.628406216037284" lon="15.992825153377874"><ele>423.0</ele><time>2026-04-18T08:33:05.97Z</time></trkpt><trkpt lat="39.62836299980009" lon="15.992692131341524"><ele>423.0</ele><time>2026-04-18T08:33:06.97Z</time></trkpt><trkpt lat="39.62830261276111" lon="15.992560861207343"><ele>423.0</ele><time>2026-04-18T08:33:07.97Z</time></trkpt><trkpt lat="39.62822980023497" lon="15.992443854256157"><ele>423.0</ele><time>2026-04-18T08:33:08.97Z</time></trkpt><trkpt lat="39.6281180305495" lon="15.992355785823264"><ele>423.0</ele><time>2026-04-18T08:33:09.97Z</time></trkpt><trkpt lat="39.62801936249379" lon="15.99224632178345"><ele>425.0</ele><time>2026-04-18T08:33:10.97Z</time></trkpt><trkpt lat="39.62792179247216" lon="15.992151898552503"><ele>427.0</ele><time>2026-04-18T08:33:11.97Z</time></trkpt><trkpt lat="39.6278364997673" lon="15.992063452071246"><ele>428.99999999999994</ele><time>2026-04-18T08:33:12.97Z</time></trkpt><trkpt lat="39.62775564560668" lon="15.991990751478536"><ele>431.0</ele><time>2026-04-18T08:33:13.97Z</time></trkpt><trkpt lat="39.62772007359228" lon="15.991875535431475"><ele>433.0</ele><time>2026-04-18T08:33:14.97Z</time></trkpt><trkpt lat="39.627684125654326" lon="15.991758244760577"><ele>435.79999999999995</ele><time>2026-04-18T08:33:15.97Z</time></trkpt><trkpt lat="39.62764161360375" lon="15.991637982778201"><ele>438.59999999999997</ele><time>2026-04-18T08:33:16.97Z</time></trkpt><trkpt lat="39.627601138871064" lon="15.991510793129613"><ele>441.40000000000003</ele><time>2026-04-18T08:33:17.97Z</time></trkpt><trkpt lat="39.62752032992826" lon="15.991421829012134"><ele>444.20000000000005</ele><time>2026-04-18T08:33:18.97Z</time></trkpt><trkpt lat="39.62740328112753" lon="15.991363861957362"><ele>447.0</ele><time>2026-04-18T08:33:19.97Z</time></trkpt><trkpt lat="39.62729391105691" lon="15.991290888629193"><ele>447.0</ele><time>2026-04-18T08:33:20.97Z</time></trkpt><trkpt lat="39.62719160245655" lon="15.991218040836271"><ele>447.0</ele><time>2026-04-18T08:33:21.97Z</time></trkpt><trkpt lat="39.62711226454591" lon="15.991120966544935"><ele>447.0</ele><time>2026-04-18T08:33:22.97Z</time></trkpt><trkpt lat="39.62703818088191" lon="15.991005464088332"><ele>447.0</ele><time>2026-04-18T08:33:23.97Z</time></trkpt><trkpt lat="39.6269612981652" lon="15.990884481437359"><ele>448.5</ele><time>2026-04-18T08:33:24.97Z</time></trkpt><trkpt lat="39.62687449280073" lon="15.990760533466137"><ele>450.0</ele><time>2026-04-18T08:33:25.97Z</time></trkpt><trkpt lat="39.626780695333935" lon="15.990657769732584"><ele>451.5</ele><time>2026-04-18T08:33:26.97Z</time></trkpt><trkpt lat="39.62667285189703" lon="15.990572538194105"><ele>453.0</ele><time>2026-04-18T08:33:27.97Z</time></trkpt><trkpt lat="39.62655094008285" lon="15.990491210873715"><ele>453.0</ele><time>2026-04-18T08:33:28.97Z</time></trkpt><trkpt lat="39.626416380039934" lon="15.990420497068431"><ele>453.0</ele><time>2026-04-18T08:33:29.97Z</time></trkpt><trkpt lat="39.6262840962611" lon="15.99036855890255"><ele>453.0</ele><time>2026-04-18T08:33:30.97Z</time></trkpt><trkpt lat="39.626169290275605" lon="15.990327746201201"><ele>453.0</ele><time>2026-04-18T08:33:31.97Z</time></trkpt><trkpt lat="39.62607796569489" lon="15.990287144902604"><ele>453.0</ele><time>2026-04-18T08:33:32.97Z</time></trkpt><trkpt lat="39.625998047174924" lon="15.990228604320395"><ele>452.99999999999994</ele><time>2026-04-18T08:33:33.97Z</time></trkpt><trkpt lat="39.62592599845276" lon="15.99014584537333"><ele>452.99999999999994</ele><time>2026-04-18T08:33:34.97Z</time></trkpt><trkpt lat="39.62585617365209" lon="15.990024460537642"><ele>453.0</ele><time>2026-04-18T08:33:35.97Z</time></trkpt><trkpt lat="39.6257968845943" lon="15.989905981655495"><ele>453.0</ele><time>2026-04-18T08:33:36.97Z</time></trkpt><trkpt lat="39.62576240157958" lon="15.989821498758637"><ele>453.0</ele><time>2026-04-18T08:33:37.97Z</time></trkpt><trkpt lat="39.625806646557784" lon="15.989656765967672"><ele>452.99999999999994</ele><time>2026-04-18T08:33:39.97Z</time></trkpt><trkpt lat="39.62588992017549" lon="15.98958147284355"><ele>452.99999999999994</ele><time>2026-04-18T08:33:40.97Z</time></trkpt><trkpt lat="39.62598273495894" lon="15.989526150712095"><ele>453.0</ele><time>2026-04-18T08:33:41.97Z</time></trkpt><trkpt lat="39.626083281056836" lon="15.989477187792511"><ele>453.0</ele><time>2026-04-18T08:33:42.97Z</time></trkpt><trkpt lat="39.626191869347466" lon="15.98943041419785"><ele>457.4</ele><time>2026-04-18T08:33:43.97Z</time></trkpt><trkpt lat="39.626300420236824" lon="15.989407807999788"><ele>461.79999999999995</ele><time>2026-04-18T08:33:44.97Z</time></trkpt><trkpt lat="39.62639158516551" lon="15.989392072307147"><ele>466.2</ele><time>2026-04-18T08:33:45.97Z</time></trkpt><trkpt lat="39.62646317996304" lon="15.989370313762995"><ele>470.6</ele><time>2026-04-18T08:33:46.97Z</time></trkpt><trkpt lat="39.62652980249589" lon="15.989209587866371"><ele>475.0</ele><time>2026-04-18T08:33:48.97Z</time></trkpt><trkpt lat="39.62651538789753" lon="15.989091059685158"><ele>476.75</ele><time>2026-04-18T08:33:49.97Z</time></trkpt><trkpt lat="39.62645698989053" lon="15.988987948551408"><ele>478.5</ele><time>2026-04-18T08:33:50.97Z</time></trkpt><trkpt lat="39.62636653836506" lon="15.988917593958847"><ele>480.25</ele><time>2026-04-18T08:33:51.97Z</time></trkpt><trkpt lat="39.62627364162721" lon="15.988826572741365"><ele>482.0</ele><time>2026-04-18T08:33:52.97Z</time></trkpt><trkpt lat="39.6261647325705" lon="15.988730417730572"><ele>478.8</ele><time>2026-04-18T08:33:53.97Z</time></trkpt><trkpt lat="39.62606296574764" lon="15.988639196923605"><ele>475.6</ele><time>2026-04-18T08:33:54.97Z</time></trkpt><trkpt lat="39.62597011211381" lon="15.9885534492677"><ele>472.40000000000003</ele><time>2026-04-18T08:33:55.97Z</time></trkpt><trkpt lat="39.62589797809793" lon="15.98847153116159"><ele>469.20000000000005</ele><time>2026-04-18T08:33:56.97Z</time></trkpt><trkpt lat="39.6258558356601" lon="15.988383759478573"><ele>466.0</ele><time>2026-04-18T08:33:57.97Z</time></trkpt><trkpt lat="39.625865086437116" lon="15.988285092533827"><ele>466.0</ele><time>2026-04-18T08:33:58.97Z</time></trkpt><trkpt lat="39.62589061223733" lon="15.98817146461255"><ele>466.0</ele><time>2026-04-18T08:33:59.97Z</time></trkpt><trkpt lat="39.62593580865388" lon="15.98803381321159"><ele>466.0</ele><time>2026-04-18T08:34:00.97Z</time></trkpt><trkpt lat="39.62598548083576" lon="15.987894360517274"><ele>466.0</ele><time>2026-04-18T08:34:01.97Z</time></trkpt><trkpt lat="39.626028072196114" lon="15.987774762637502"><ele>466.0</ele><time>2026-04-18T08:34:02.97Z</time></trkpt><trkpt lat="39.62606644652903" lon="15.98767082977621"><ele>466.0</ele><time>2026-04-18T08:34:03.97Z</time></trkpt><trkpt lat="39.62610296640442" lon="15.987570552795423"><ele>466.0</ele><time>2026-04-18T08:34:04.97Z</time></trkpt><trkpt lat="39.62613722613807" lon="15.98746381385078"><ele>466.0</ele><time>2026-04-18T08:34:05.97Z</time></trkpt><trkpt lat="39.626156393510016" lon="15.987334930089565"><ele>466.0</ele><time>2026-04-18T08:34:06.97Z</time></trkpt><trkpt lat="39.62612448275363" lon="15.987173779740491"><ele>466.0</ele><time>2026-04-18T08:34:07.97Z</time></trkpt><trkpt lat="39.62608709565056" lon="15.98701692225568"><ele>466.25</ele><time>2026-04-18T08:34:08.97Z</time></trkpt><trkpt lat="39.626058808565084" lon="15.986830441451517"><ele>466.5</ele><time>2026-04-18T08:34:09.97Z</time></trkpt><trkpt lat="39.62600516231064" lon="15.986646599724075"><ele>466.75</ele><time>2026-04-18T08:34:10.97Z</time></trkpt><trkpt lat="39.62599435028602" lon="15.986471774502297"><ele>467.0</ele><time>2026-04-18T08:34:11.97Z</time></trkpt><trkpt lat="39.625985093490094" lon="15.986306497630677"><ele>467.0</ele><time>2026-04-18T08:34:12.97Z</time></trkpt><trkpt lat="39.62597767543736" lon="15.986146951952541"><ele>467.0</ele><time>2026-04-18T08:34:13.97Z</time></trkpt><trkpt lat="39.625975285548336" lon="15.985991042251396"><ele>467.0</ele><time>2026-04-18T08:34:14.97Z</time></trkpt><trkpt lat="39.62596966341195" lon="15.985841853137172"><ele>467.0</ele><time>2026-04-18T08:34:15.97Z</time></trkpt><trkpt lat="39.625946071187855" lon="15.985710265905857"><ele>468.20000000000005</ele><time>2026-04-18T08:34:16.97Z</time></trkpt><trkpt lat="39.62589907418146" lon="15.985593033678619"><ele>469.40000000000003</ele><time>2026-04-18T08:34:17.97Z</time></trkpt><trkpt lat="39.62584422538322" lon="15.985487057158258"><ele>470.59999999999997</ele><time>2026-04-18T08:34:18.97Z</time></trkpt><trkpt lat="39.62574548102857" lon="15.98543934835188"><ele>471.79999999999995</ele><time>2026-04-18T08:34:19.97Z</time></trkpt><trkpt lat="39.625655264694096" lon="15.985434337869004"><ele>473.0</ele><time>2026-04-18T08:34:20.97Z</time></trkpt><trkpt lat="39.625576174526785" lon="15.985475204114367"><ele>472.99999999999994</ele><time>2026-04-18T08:34:21.97Z</time></trkpt><trkpt lat="39.625513242936236" lon="15.985556130748142"><ele>473.0</ele><time>2026-04-18T08:34:22.97Z</time></trkpt><trkpt lat="39.62545672260911" lon="15.985634376665097"><ele>473.0</ele><time>2026-04-18T08:34:23.97Z</time></trkpt><trkpt lat="39.625395408654825" lon="15.985666184631684"><ele>473.0</ele><time>2026-04-18T08:34:24.97Z</time></trkpt><trkpt lat="39.62532456470724" lon="15.98564029800396"><ele>472.99999999999994</ele><time>2026-04-18T08:34:25.97Z</time></trkpt><trkpt lat="39.625265965432405" lon="15.985557417156977"><ele>473.0</ele><time>2026-04-18T08:34:26.97Z</time></trkpt><trkpt lat="39.62522292043694" lon="15.985434442025248"><ele>472.25</ele><time>2026-04-18T08:34:27.97Z</time></trkpt><trkpt lat="39.625191713785895" lon="15.985291914838184"><ele>471.5</ele><time>2026-04-18T08:34:28.97Z</time></trkpt><trkpt lat="39.62515200399844" lon="15.985133062190327"><ele>470.75</ele><time>2026-04-18T08:34:29.97Z</time></trkpt><trkpt lat="39.62510881660019" lon="15.984968045443837"><ele>470.0</ele><time>2026-04-18T08:34:30.97Z</time></trkpt><trkpt lat="39.625073679761336" lon="15.98479823303058"><ele>470.0</ele><time>2026-04-18T08:34:31.97Z</time></trkpt><trkpt lat="39.62504463446944" lon="15.984643799592533"><ele>470.0</ele><time>2026-04-18T08:34:32.97Z</time></trkpt><trkpt lat="39.62500894886167" lon="15.984506502994403"><ele>470.0</ele><time>2026-04-18T08:34:33.97Z</time></trkpt><trkpt lat="39.62495069602569" lon="15.984378161634508"><ele>470.0</ele><time>2026-04-18T08:34:34.97Z</time></trkpt><trkpt lat="39.62487835146291" lon="15.984266980287135"><ele>470.0</ele><time>2026-04-18T08:34:35.97Z</time></trkpt><trkpt lat="39.62479149119409" lon="15.98418168074205"><ele>470.0</ele><time>2026-04-18T08:34:36.97Z</time></trkpt><trkpt lat="39.62469264210999" lon="15.984122597967845"><ele>470.0</ele><time>2026-04-18T08:34:37.97Z</time></trkpt><trkpt lat="39.62458841727139" lon="15.984088758686145"><ele>470.0</ele><time>2026-04-18T08:34:38.97Z</time></trkpt><trkpt lat="39.62449411068937" lon="15.98407183053906"><ele>470.0</ele><time>2026-04-18T08:34:39.97Z</time></trkpt><trkpt lat="39.624401185003784" lon="15.984061793690628"><ele>469.75</ele><time>2026-04-18T08:34:40.97Z</time></trkpt><trkpt lat="39.624313722383505" lon="15.984039903951155"><ele>469.5</ele><time>2026-04-18T08:34:41.97Z</time></trkpt><trkpt lat="39.624200372988" lon="15.984083915633216"><ele>469.25</ele><time>2026-04-18T08:34:42.97Z</time></trkpt><trkpt lat="39.624078765179384" lon="15.984143958135942"><ele>469.0</ele><time>2026-04-18T08:34:43.97Z</time></trkpt><trkpt lat="39.6239630760942" lon="15.984229237272725"><ele>467.5</ele><time>2026-04-18T08:34:44.97Z</time></trkpt><trkpt lat="39.62384864365485" lon="15.984292904599597"><ele>466.0</ele><time>2026-04-18T08:34:45.97Z</time></trkpt><trkpt lat="39.62374814087054" lon="15.984366735738407"><ele>464.5</ele><time>2026-04-18T08:34:46.97Z</time></trkpt><trkpt lat="39.62364313787316" lon="15.984414538409093"><ele>463.0</ele><time>2026-04-18T08:34:47.97Z</time></trkpt><trkpt lat="39.62355055717771" lon="15.984472469106006"><ele>463.0</ele><time>2026-04-18T08:34:48.97Z</time></trkpt><trkpt lat="39.623455502358894" lon="15.984517071768064"><ele>462.99999999999994</ele><time>2026-04-18T08:34:49.97Z</time></trkpt><trkpt lat="39.62335291127887" lon="15.984524165697673"><ele>462.99999999999994</ele><time>2026-04-18T08:34:50.97Z</time></trkpt><trkpt lat="39.62323994000476" lon="15.984528529396892"><ele>463.0</ele><time>2026-04-18T08:34:51.97Z</time></trkpt><trkpt lat="39.62311319370816" lon="15.984533373000595"><ele>463.0</ele><time>2026-04-18T08:34:52.97Z</time></trkpt><trkpt lat="39.62298328611593" lon="15.984558359743932"><ele>463.0</ele><time>2026-04-18T08:34:53.97Z</time></trkpt><trkpt lat="39.62285713713016" lon="15.984562110689085"><ele>462.99999999999994</ele><time>2026-04-18T08:34:54.97Z</time></trkpt><trkpt lat="39.622742660668116" lon="15.98456760392197"><ele>462.99999999999994</ele><time>2026-04-18T08:34:55.97Z</time></trkpt><trkpt lat="39.62263441861094" lon="15.984572536137888"><ele>463.0</ele><time>2026-04-18T08:34:56.97Z</time></trkpt><trkpt lat="39.622536478066536" lon="15.984584320804013"><ele>463.0</ele><time>2026-04-18T08:34:57.97Z</time></trkpt><trkpt lat="39.62244118366808" lon="15.984570069284574"><ele>463.00000000000006</ele><time>2026-04-18T08:34:58.97Z</time></trkpt><trkpt lat="39.62234976801317" lon="15.984571949104264"><ele>463.0</ele><time>2026-04-18T08:34:59.97Z</time></trkpt><trkpt lat="39.6222592751183" lon="15.984594485268527"><ele>463.0</ele><time>2026-04-18T08:35:00.97Z</time></trkpt><trkpt lat="39.62217276855706" lon="15.984594321879463"><ele>463.0</ele><time>2026-04-18T08:35:01.97Z</time></trkpt><trkpt lat="39.62209276378726" lon="15.98458356277799"><ele>463.00000000000006</ele><time>2026-04-18T08:35:02.97Z</time></trkpt><trkpt lat="39.62201290427079" lon="15.984558855128709"><ele>463.0</ele><time>2026-04-18T08:35:03.97Z</time></trkpt><trkpt lat="39.62193811712326" lon="15.984543673908242"><ele>463.79999999999995</ele><time>2026-04-18T08:35:04.97Z</time></trkpt><trkpt lat="39.62187472889752" lon="15.984452700702391"><ele>464.59999999999997</ele><time>2026-04-18T08:35:05.97Z</time></trkpt><trkpt lat="39.6218190043405" lon="15.984370726113593"><ele>465.40000000000003</ele><time>2026-04-18T08:35:06.97Z</time></trkpt><trkpt lat="39.62175774800054" lon="15.984281916321908"><ele>466.20000000000005</ele><time>2026-04-18T08:35:07.97Z</time></trkpt><trkpt lat="39.621695596731065" lon="15.984202676927193"><ele>467.0</ele><time>2026-04-18T08:35:08.97Z</time></trkpt><trkpt lat="39.62161769242201" lon="15.984137742523615"><ele>467.0</ele><time>2026-04-18T08:35:09.97Z</time></trkpt><trkpt lat="39.621529534347815" lon="15.984088986269933"><ele>467.00000000000006</ele><time>2026-04-18T08:35:10.97Z</time></trkpt><trkpt lat="39.621421621938715" lon="15.984066141953786"><ele>467.00000000000006</ele><time>2026-04-18T08:35:11.97Z</time></trkpt><trkpt lat="39.62130755497393" lon="15.98404321664183"><ele>467.0</ele><time>2026-04-18T08:35:12.969Z</time></trkpt><trkpt lat="39.62120466968818" lon="15.98401593098629"><ele>467.0</ele><time>2026-04-18T08:35:13.969Z</time></trkpt><trkpt lat="39.62111358402136" lon="15.98397472700442"><ele>465.6</ele><time>2026-04-18T08:35:14.969Z</time></trkpt><trkpt lat="39.62101916414964" lon="15.983948456968434"><ele>464.20000000000005</ele><time>2026-04-18T08:35:15.969Z</time></trkpt><trkpt lat="39.62093302468259" lon="15.983919412040834"><ele>462.8</ele><time>2026-04-18T08:35:16.969Z</time></trkpt><trkpt lat="39.62086756589007" lon="15.98386503932662"><ele>461.4</ele><time>2026-04-18T08:35:17.969Z</time></trkpt><trkpt lat="39.62081807606609" lon="15.983800611294942"><ele>460.0</ele><time>2026-04-18T08:35:18.969Z</time></trkpt><trkpt lat="39.6207841575877" lon="15.983651897640657"><ele>460.0</ele><time>2026-04-18T08:35:20.969Z</time></trkpt><trkpt lat="39.620748816706254" lon="15.9834962810042"><ele>460.0</ele><time>2026-04-18T08:35:22.969Z</time></trkpt><trkpt lat="39.62073504367051" lon="15.983329520789969"><ele>460.0</ele><time>2026-04-18T08:35:24.969Z</time></trkpt><trkpt lat="39.62073635348535" lon="15.983175328352653"><ele>460.0</ele><time>2026-04-18T08:35:26.969Z</time></trkpt><trkpt lat="39.6207470665697" lon="15.983039437320764"><ele>461.00000000000006</ele><time>2026-04-18T08:35:28.969Z</time></trkpt><trkpt lat="39.620753325567655" lon="15.982953119556711"><ele>462.0</ele><time>2026-04-18T08:35:30.969Z</time></trkpt><trkpt lat="39.62078803359133" lon="15.982857591567845"><ele>463.0</ele><time>2026-04-18T08:35:32.969Z</time></trkpt><trkpt lat="39.62089221861707" lon="15.982762409484133"><ele>464.0</ele><time>2026-04-18T08:35:34.969Z</time></trkpt><trkpt lat="39.62095171626801" lon="15.982707715078686"><ele>465.00000000000006</ele><time>2026-04-18T08:35:35.969Z</time></trkpt><trkpt lat="39.621006291370065" lon="15.982659355608003"><ele>466.0</ele><time>2026-04-18T08:35:36.969Z</time></trkpt><trkpt lat="39.62110620086543" lon="15.982557158185417"><ele>465.6</ele><time>2026-04-18T08:35:38.969Z</time></trkpt><trkpt lat="39.621186369910625" lon="15.982470954910935"><ele>465.20000000000005</ele><time>2026-04-18T08:35:40.969Z</time></trkpt><trkpt lat="39.621282623937056" lon="15.982368230455947"><ele>464.79999999999995</ele><time>2026-04-18T08:35:42.969Z</time></trkpt><trkpt lat="39.62135539938912" lon="15.982274358132036"><ele>464.4</ele><time>2026-04-18T08:35:44.969Z</time></trkpt><trkpt lat="39.62141299468728" lon="15.982225022190105"><ele>464.0</ele><time>2026-04-18T08:35:45.969Z</time></trkpt><trkpt lat="39.62148179925565" lon="15.9821549590117"><ele>464.0</ele><time>2026-04-18T08:35:46.969Z</time></trkpt><trkpt lat="39.62156325295436" lon="15.98207152916797"><ele>464.0</ele><time>2026-04-18T08:35:47.969Z</time></trkpt><trkpt lat="39.62164622180173" lon="15.981973346561077"><ele>464.0</ele><time>2026-04-18T08:35:48.969Z</time></trkpt><trkpt lat="39.621730260534086" lon="15.981887750962592"><ele>464.0</ele><time>2026-04-18T08:35:49.969Z</time></trkpt><trkpt lat="39.62180724805529" lon="15.981806916983613"><ele>464.0</ele><time>2026-04-18T08:35:50.969Z</time></trkpt><trkpt lat="39.62188841354838" lon="15.981733494716222"><ele>463.4</ele><time>2026-04-18T08:35:51.969Z</time></trkpt><trkpt lat="39.62196295227527" lon="15.981657846067984"><ele>462.79999999999995</ele><time>2026-04-18T08:35:52.969Z</time></trkpt><trkpt lat="39.622037437718795" lon="15.981583656774957"><ele>462.20000000000005</ele><time>2026-04-18T08:35:53.97Z</time></trkpt><trkpt lat="39.6221080860801" lon="15.981494472094044"><ele>461.6</ele><time>2026-04-18T08:35:54.97Z</time></trkpt><trkpt lat="39.622182891357824" lon="15.98139560543301"><ele>461.0</ele><time>2026-04-18T08:35:55.97Z</time></trkpt><trkpt lat="39.62225411896188" lon="15.981290925579064"><ele>461.0</ele><time>2026-04-18T08:35:56.97Z</time></trkpt><trkpt lat="39.62230904998197" lon="15.981182291440188"><ele>461.0</ele><time>2026-04-18T08:35:57.97Z</time></trkpt><trkpt lat="39.62236869219752" lon="15.981076946982085"><ele>461.0</ele><time>2026-04-18T08:35:58.97Z</time></trkpt><trkpt lat="39.62241140188872" lon="15.980974544024098"><ele>461.0</ele><time>2026-04-18T08:35:59.97Z</time></trkpt><trkpt lat="39.62245553313899" lon="15.980892382768857"><ele>461.0</ele><time>2026-04-18T08:36:00.97Z</time></trkpt><trkpt lat="39.62252180187522" lon="15.980829925335385"><ele>461.0</ele><time>2026-04-18T08:36:01.97Z</time></trkpt><trkpt lat="39.62260320672869" lon="15.980817999663294"><ele>461.0</ele><time>2026-04-18T08:36:02.97Z</time></trkpt><trkpt lat="39.622691926852774" lon="15.98083024492226"><ele>461.0</ele><time>2026-04-18T08:36:03.97Z</time></trkpt><trkpt lat="39.622788523300116" lon="15.980856946684318"><ele>461.0</ele><time>2026-04-18T08:36:04.97Z</time></trkpt><trkpt lat="39.622882916112594" lon="15.980902909563724"><ele>461.0</ele><time>2026-04-18T08:36:05.97Z</time></trkpt><trkpt lat="39.62297173314568" lon="15.980949324910691"><ele>460.42857142857144</ele><time>2026-04-18T08:36:06.97Z</time></trkpt><trkpt lat="39.62304683155545" lon="15.981012946456497"><ele>459.8571428571429</ele><time>2026-04-18T08:36:07.97Z</time></trkpt><trkpt lat="39.62311266708859" lon="15.981055743974052"><ele>459.28571428571433</ele><time>2026-04-18T08:36:08.97Z</time></trkpt><trkpt lat="39.62317918051495" lon="15.981070604226863"><ele>458.7142857142858</ele><time>2026-04-18T08:36:09.97Z</time></trkpt><trkpt lat="39.62324615271386" lon="15.981062074065722"><ele>458.14285714285717</ele><time>2026-04-18T08:36:10.97Z</time></trkpt><trkpt lat="39.623308835097255" lon="15.981014216848958"><ele>457.57142857142867</ele><time>2026-04-18T08:36:11.97Z</time></trkpt><trkpt lat="39.623353109649294" lon="15.980930110796647"><ele>457.00000000000006</ele><time>2026-04-18T08:36:12.97Z</time></trkpt><trkpt lat="39.62337041176306" lon="15.980816262780522"><ele>455.20000000000005</ele><time>2026-04-18T08:36:13.97Z</time></trkpt><trkpt lat="39.62336031204717" lon="15.980692659790856"><ele>453.40000000000003</ele><time>2026-04-18T08:36:14.97Z</time></trkpt><trkpt lat="39.62332913771981" lon="15.980574655813578"><ele>451.59999999999997</ele><time>2026-04-18T08:36:15.97Z</time></trkpt><trkpt lat="39.623284061075665" lon="15.980465729371172"><ele>449.79999999999995</ele><time>2026-04-18T08:36:16.97Z</time></trkpt><trkpt lat="39.623243552983205" lon="15.980359439080328"><ele>448.0</ele><time>2026-04-18T08:36:17.97Z</time></trkpt><trkpt lat="39.62321045892153" lon="15.980246734232352"><ele>448.0</ele><time>2026-04-18T08:36:18.97Z</time></trkpt><trkpt lat="39.62317936777132" lon="15.98013686672835"><ele>447.99999999999994</ele><time>2026-04-18T08:36:19.97Z</time></trkpt><trkpt lat="39.62314274911918" lon="15.98001849854192"><ele>447.99999999999994</ele><time>2026-04-18T08:36:20.97Z</time></trkpt><trkpt lat="39.62311298739714" lon="15.979885444364717"><ele>448.0</ele><time>2026-04-18T08:36:21.97Z</time></trkpt><trkpt lat="39.623069800860506" lon="15.979744239061766"><ele>448.0</ele><time>2026-04-18T08:36:22.97Z</time></trkpt><trkpt lat="39.62302001799769" lon="15.979600008024134"><ele>447.0</ele><time>2026-04-18T08:36:23.97Z</time></trkpt><trkpt lat="39.622971193112214" lon="15.979458125515269"><ele>446.0</ele><time>2026-04-18T08:36:24.97Z</time></trkpt><trkpt lat="39.62293043256593" lon="15.979313305843533"><ele>445.0</ele><time>2026-04-18T08:36:25.97Z</time></trkpt><trkpt lat="39.622901034995195" lon="15.979169265328899"><ele>444.0</ele><time>2026-04-18T08:36:26.97Z</time></trkpt><trkpt lat="39.6228784926325" lon="15.97900516232321"><ele>444.0</ele><time>2026-04-18T08:36:27.97Z</time></trkpt><trkpt lat="39.62286798392117" lon="15.978849220125833"><ele>444.0</ele><time>2026-04-18T08:36:28.97Z</time></trkpt><trkpt lat="39.62286029152497" lon="15.978701732065261"><ele>444.0</ele><time>2026-04-18T08:36:29.969Z</time></trkpt><trkpt lat="39.62284068307957" lon="15.978549527558432"><ele>444.0</ele><time>2026-04-18T08:36:30.969Z</time></trkpt><trkpt lat="39.62280547119054" lon="15.978408396101317"><ele>440.25</ele><time>2026-04-18T08:36:31.969Z</time></trkpt><trkpt lat="39.62274502606337" lon="15.978274992113205"><ele>436.5</ele><time>2026-04-18T08:36:32.969Z</time></trkpt><trkpt lat="39.622658440394865" lon="15.978161870768718"><ele>432.75</ele><time>2026-04-18T08:36:33.969Z</time></trkpt><trkpt lat="39.62257056994391" lon="15.978071046582595"><ele>429.0</ele><time>2026-04-18T08:36:34.969Z</time></trkpt><trkpt lat="39.622490453533565" lon="15.977977912334163"><ele>429.0</ele><time>2026-04-18T08:36:35.969Z</time></trkpt><trkpt lat="39.6224424826171" lon="15.977857887733608"><ele>429.0</ele><time>2026-04-18T08:36:36.969Z</time></trkpt><trkpt lat="39.62240384143467" lon="15.977745157248455"><ele>429.0</ele><time>2026-04-18T08:36:37.969Z</time></trkpt><trkpt lat="39.62239621687317" lon="15.977616196961426"><ele>429.0</ele><time>2026-04-18T08:36:38.969Z</time></trkpt><trkpt lat="39.62236958468744" lon="15.977472813952438"><ele>429.0</ele><time>2026-04-18T08:36:39.969Z</time></trkpt><trkpt lat="39.622357514570474" lon="15.977312875749291"><ele>430.75</ele><time>2026-04-18T08:36:40.969Z</time></trkpt><trkpt lat="39.62233460161121" lon="15.977134320345574"><ele>432.5</ele><time>2026-04-18T08:36:41.969Z</time></trkpt><trkpt lat="39.622332972939574" lon="15.976946029999649"><ele>434.25</ele><time>2026-04-18T08:36:42.969Z</time></trkpt><trkpt lat="39.62231657954587" lon="15.976773230498383"><ele>436.0</ele><time>2026-04-18T08:36:43.969Z</time></trkpt><trkpt lat="39.62230145663765" lon="15.976612122744573"><ele>436.20000000000005</ele><time>2026-04-18T08:36:44.969Z</time></trkpt><trkpt lat="39.62228795023566" lon="15.976468289975"><ele>436.40000000000003</ele><time>2026-04-18T08:36:45.969Z</time></trkpt><trkpt lat="39.62227687084199" lon="15.976337981453755"><ele>436.6</ele><time>2026-04-18T08:36:46.969Z</time></trkpt><trkpt lat="39.622271588075996" lon="15.976215668623686"><ele>436.8</ele><time>2026-04-18T08:36:47.969Z</time></trkpt><trkpt lat="39.622259491008656" lon="15.976104253245108"><ele>437.0</ele><time>2026-04-18T08:36:48.969Z</time></trkpt><trkpt lat="39.622290081249574" lon="15.976006862675034"><ele>437.0</ele><time>2026-04-18T08:36:49.969Z</time></trkpt><trkpt lat="39.622345885255605" lon="15.975917791807133"><ele>437.00000000000006</ele><time>2026-04-18T08:36:50.969Z</time></trkpt><trkpt lat="39.62241545898918" lon="15.975836575952856"><ele>437.00000000000006</ele><time>2026-04-18T08:36:51.969Z</time></trkpt><trkpt lat="39.62245794379254" lon="15.975730785970384"><ele>437.0</ele><time>2026-04-18T08:36:52.969Z</time></trkpt><trkpt lat="39.62248595156951" lon="15.975576033410562"><ele>437.0</ele><time>2026-04-18T08:36:53.969Z</time></trkpt><trkpt lat="39.62248885587912" lon="15.97542536358044"><ele>436.20000000000005</ele><time>2026-04-18T08:36:54.969Z</time></trkpt><trkpt lat="39.622491218282214" lon="15.975300430672595"><ele>435.40000000000003</ele><time>2026-04-18T08:36:55.969Z</time></trkpt><trkpt lat="39.622488227229006" lon="15.975191380361933"><ele>434.59999999999997</ele><time>2026-04-18T08:36:56.969Z</time></trkpt><trkpt lat="39.62245085268041" lon="15.975106314807572"><ele>433.79999999999995</ele><time>2026-04-18T08:36:57.969Z</time></trkpt><trkpt lat="39.62239727072651" lon="15.975019144684069"><ele>433.0</ele><time>2026-04-18T08:36:58.969Z</time></trkpt><trkpt lat="39.622272120234015" lon="15.975015609403787"><ele>430.5</ele><time>2026-04-18T08:36:59.969Z</time></trkpt><trkpt lat="39.622155651889756" lon="15.975025475115519"><ele>428.0</ele><time>2026-04-18T08:37:00.969Z</time></trkpt><trkpt lat="39.622036495979515" lon="15.975044833574424"><ele>425.5</ele><time>2026-04-18T08:37:01.969Z</time></trkpt><trkpt lat="39.62190986743292" lon="15.975029312542935"><ele>423.0</ele><time>2026-04-18T08:37:02.969Z</time></trkpt><trkpt lat="39.62177684175111" lon="15.975028867301866"><ele>421.0</ele><time>2026-04-18T08:37:03.969Z</time></trkpt><trkpt lat="39.62164973685297" lon="15.975035687461338"><ele>419.0</ele><time>2026-04-18T08:37:04.969Z</time></trkpt><trkpt lat="39.62153291534751" lon="15.975036664663193"><ele>417.0</ele><time>2026-04-18T08:37:05.969Z</time></trkpt><trkpt lat="39.621416595902424" lon="15.9750629556018"><ele>415.0</ele><time>2026-04-18T08:37:06.969Z</time></trkpt><trkpt lat="39.62130460565186" lon="15.975108810895062"><ele>415.0</ele><time>2026-04-18T08:37:07.969Z</time></trkpt><trkpt lat="39.621194045736644" lon="15.975156419653988"><ele>415.0</ele><time>2026-04-18T08:37:08.969Z</time></trkpt><trkpt lat="39.62108389240757" lon="15.975196204472574"><ele>415.0</ele><time>2026-04-18T08:37:09.969Z</time></trkpt><trkpt lat="39.6209710780985" lon="15.975222892836168"><ele>415.0</ele><time>2026-04-18T08:37:10.969Z</time></trkpt><trkpt lat="39.620858982423044" lon="15.975232667086686"><ele>415.6</ele><time>2026-04-18T08:37:11.969Z</time></trkpt><trkpt lat="39.62076375910472" lon="15.975176352507239"><ele>416.2</ele><time>2026-04-18T08:37:12.969Z</time></trkpt><trkpt lat="39.62067897186567" lon="15.97512976677019"><ele>416.79999999999995</ele><time>2026-04-18T08:37:13.969Z</time></trkpt><trkpt lat="39.62059755813467" lon="15.975030909458532"><ele>417.4</ele><time>2026-04-18T08:37:14.969Z</time></trkpt><trkpt lat="39.62048631323836" lon="15.974938555935973"><ele>418.0</ele><time>2026-04-18T08:37:15.969Z</time></trkpt><trkpt lat="39.62038755049234" lon="15.974822663911402"><ele>420.4</ele><time>2026-04-18T08:37:16.969Z</time></trkpt><trkpt lat="39.62029832126942" lon="15.974718915256434"><ele>422.79999999999995</ele><time>2026-04-18T08:37:17.969Z</time></trkpt><trkpt lat="39.62020056758802" lon="15.9746505656052"><ele>425.2</ele><time>2026-04-18T08:37:18.969Z</time></trkpt><trkpt lat="39.62010374734852" lon="15.974611252755086"><ele>427.6</ele><time>2026-04-18T08:37:19.969Z</time></trkpt><trkpt lat="39.619997109954255" lon="15.974604889234538"><ele>430.0</ele><time>2026-04-18T08:37:20.969Z</time></trkpt><trkpt lat="39.61988920488182" lon="15.974631492459975"><ele>430.0</ele><time>2026-04-18T08:37:21.969Z</time></trkpt><trkpt lat="39.619798725616974" lon="15.974685485972445"><ele>430.0</ele><time>2026-04-18T08:37:22.969Z</time></trkpt><trkpt lat="39.61971257670456" lon="15.974763519268066"><ele>430.0</ele><time>2026-04-18T08:37:23.969Z</time></trkpt><trkpt lat="39.61962346421711" lon="15.974846643408236"><ele>430.0</ele><time>2026-04-18T08:37:24.969Z</time></trkpt><trkpt lat="39.6195094559865" lon="15.974877185856993"><ele>430.0</ele><time>2026-04-18T08:37:25.969Z</time></trkpt><trkpt lat="39.61938529174642" lon="15.974895551413418"><ele>431.5</ele><time>2026-04-18T08:37:26.969Z</time></trkpt><trkpt lat="39.61925710286523" lon="15.97490357733294"><ele>433.0</ele><time>2026-04-18T08:37:27.969Z</time></trkpt><trkpt lat="39.61913177772149" lon="15.974919655579283"><ele>434.5</ele><time>2026-04-18T08:37:28.969Z</time></trkpt><trkpt lat="39.61901163317094" lon="15.974909412656794"><ele>436.0</ele><time>2026-04-18T08:37:29.969Z</time></trkpt><trkpt lat="39.618900781263065" lon="15.974859727661883"><ele>436.00000000000006</ele><time>2026-04-18T08:37:30.969Z</time></trkpt><trkpt lat="39.61879976684002" lon="15.97483794050755"><ele>436.0</ele><time>2026-04-18T08:37:31.969Z</time></trkpt><trkpt lat="39.61872508699133" lon="15.974759297501565"><ele>436.0</ele><time>2026-04-18T08:37:32.969Z</time></trkpt><trkpt lat="39.618665579922116" lon="15.974684283958196"><ele>436.0</ele><time>2026-04-18T08:37:33.969Z</time></trkpt><trkpt lat="39.61860479447517" lon="15.974628409873942"><ele>436.00000000000006</ele><time>2026-04-18T08:37:34.969Z</time></trkpt><trkpt lat="39.618571550023866" lon="15.97453442285861"><ele>436.0</ele><time>2026-04-18T08:37:35.969Z</time></trkpt><trkpt lat="39.61856022809328" lon="15.974411693657327"><ele>435.6</ele><time>2026-04-18T08:37:36.969Z</time></trkpt><trkpt lat="39.61862053025792" lon="15.974300592997427"><ele>435.20000000000005</ele><time>2026-04-18T08:37:37.969Z</time></trkpt><trkpt lat="39.618644878368556" lon="15.974167029899224"><ele>434.79999999999995</ele><time>2026-04-18T08:37:38.969Z</time></trkpt><trkpt lat="39.61869289673133" lon="15.974034710594927"><ele>434.4</ele><time>2026-04-18T08:37:39.969Z</time></trkpt><trkpt lat="39.618719609165325" lon="15.97390175688347"><ele>434.0</ele><time>2026-04-18T08:37:40.969Z</time></trkpt><trkpt lat="39.618724344377874" lon="15.973772851774747"><ele>436.2</ele><time>2026-04-18T08:37:41.969Z</time></trkpt><trkpt lat="39.61871036133237" lon="15.97363242816115"><ele>438.4</ele><time>2026-04-18T08:37:42.969Z</time></trkpt><trkpt lat="39.61868127896163" lon="15.973482340284"><ele>440.6</ele><time>2026-04-18T08:37:43.969Z</time></trkpt><trkpt lat="39.618659352963526" lon="15.97336745491547"><ele>442.8</ele><time>2026-04-18T08:37:44.969Z</time></trkpt><trkpt lat="39.618667668802395" lon="15.973285431519352"><ele>445.0</ele><time>2026-04-18T08:37:45.969Z</time></trkpt><trkpt lat="39.61878518790785" lon="15.973221210009665"><ele>446.2</ele><time>2026-04-18T08:37:47.969Z</time></trkpt><trkpt lat="39.61886964566982" lon="15.973193983665217"><ele>447.4</ele><time>2026-04-18T08:37:48.969Z</time></trkpt><trkpt lat="39.61897263564466" lon="15.973178772028021"><ele>448.6</ele><time>2026-04-18T08:37:49.969Z</time></trkpt><trkpt lat="39.619070662327466" lon="15.97315378319637"><ele>449.8</ele><time>2026-04-18T08:37:50.969Z</time></trkpt><trkpt lat="39.61917631437815" lon="15.973123777069912"><ele>451.0</ele><time>2026-04-18T08:37:51.969Z</time></trkpt><trkpt lat="39.619289463319916" lon="15.973073734103384"><ele>451.0</ele><time>2026-04-18T08:37:52.969Z</time></trkpt><trkpt lat="39.619394289472915" lon="15.972988096044524"><ele>451.0</ele><time>2026-04-18T08:37:53.969Z</time></trkpt><trkpt lat="39.61949374046489" lon="15.972860650040758"><ele>451.0</ele><time>2026-04-18T08:37:54.969Z</time></trkpt><trkpt lat="39.619581695620106" lon="15.97272825435698"><ele>451.0</ele><time>2026-04-18T08:37:55.969Z</time></trkpt><trkpt lat="39.61967586934943" lon="15.972630177194764"><ele>451.20000000000005</ele><time>2026-04-18T08:37:56.969Z</time></trkpt><trkpt lat="39.619762460341896" lon="15.972530430762422"><ele>451.40000000000003</ele><time>2026-04-18T08:37:57.969Z</time></trkpt><trkpt lat="39.619847657892535" lon="15.972450393406524"><ele>451.6</ele><time>2026-04-18T08:37:58.969Z</time></trkpt><trkpt lat="39.61992733287074" lon="15.972398924763228"><ele>451.8</ele><time>2026-04-18T08:37:59.969Z</time></trkpt><trkpt lat="39.620025369514714" lon="15.972434935974642"><ele>452.0</ele><time>2026-04-18T08:38:00.969Z</time></trkpt><trkpt lat="39.62013440638013" lon="15.972475357700823"><ele>451.99999999999994</ele><time>2026-04-18T08:38:01.969Z</time></trkpt><trkpt lat="39.62021224212413" lon="15.972543394763507"><ele>452.0</ele><time>2026-04-18T08:38:02.969Z</time></trkpt><trkpt lat="39.62026863587364" lon="15.972597406696126"><ele>452.0</ele><time>2026-04-18T08:38:03.969Z</time></trkpt><trkpt lat="39.62032996367023" lon="15.972640580100729"><ele>452.0</ele><time>2026-04-18T08:38:04.969Z</time></trkpt><trkpt lat="39.62041276853825" lon="15.9726886205507"><ele>451.99999999999994</ele><time>2026-04-18T08:38:05.969Z</time></trkpt><trkpt lat="39.62050138919733" lon="15.972761156122152"><ele>452.0</ele><time>2026-04-18T08:38:06.969Z</time></trkpt><trkpt lat="39.62058562478624" lon="15.972849557965533"><ele>452.40000000000003</ele><time>2026-04-18T08:38:07.969Z</time></trkpt><trkpt lat="39.62065229027766" lon="15.972920438663323"><ele>452.80000000000007</ele><time>2026-04-18T08:38:08.969Z</time></trkpt><trkpt lat="39.620711616838065" lon="15.972984736825355"><ele>453.2</ele><time>2026-04-18T08:38:09.969Z</time></trkpt><trkpt lat="39.62075607901366" lon="15.973080424552606"><ele>453.6</ele><time>2026-04-18T08:38:10.969Z</time></trkpt><trkpt lat="39.62078177138186" lon="15.97323331307294"><ele>454.0</ele><time>2026-04-18T08:38:11.969Z</time></trkpt><trkpt lat="39.620801165616854" lon="15.973407172608045"><ele>454.0</ele><time>2026-04-18T08:38:12.969Z</time></trkpt><trkpt lat="39.62082100715433" lon="15.973579020109467"><ele>454.0</ele><time>2026-04-18T08:38:13.969Z</time></trkpt><trkpt lat="39.62084319889081" lon="15.973723115076119"><ele>454.0</ele><time>2026-04-18T08:38:14.969Z</time></trkpt><trkpt lat="39.620866471140175" lon="15.973845565651636"><ele>454.0</ele><time>2026-04-18T08:38:15.969Z</time></trkpt><trkpt lat="39.62090285024951" lon="15.973940794824596"><ele>454.0</ele><time>2026-04-18T08:38:16.969Z</time></trkpt><trkpt lat="39.620965212155454" lon="15.974001070589871"><ele>454.0</ele><time>2026-04-18T08:38:17.969Z</time></trkpt><trkpt lat="39.62105408476078" lon="15.97401806609704"><ele>454.0</ele><time>2026-04-18T08:38:18.969Z</time></trkpt><trkpt lat="39.62116123089715" lon="15.974003442248536"><ele>454.0</ele><time>2026-04-18T08:38:19.969Z</time></trkpt><trkpt lat="39.62127729279674" lon="15.973997013350129"><ele>454.0</ele><time>2026-04-18T08:38:20.969Z</time></trkpt><trkpt lat="39.6213747544358" lon="15.974042136236365"><ele>454.0</ele><time>2026-04-18T08:38:21.969Z</time></trkpt><trkpt lat="39.62145713265732" lon="15.974131923290827"><ele>450.0</ele><time>2026-04-18T08:38:22.969Z</time></trkpt><trkpt lat="39.62154099157462" lon="15.974237690456002"><ele>446.0</ele><time>2026-04-18T08:38:23.969Z</time></trkpt><trkpt lat="39.62162029910865" lon="15.974321967904297"><ele>442.0</ele><time>2026-04-18T08:38:24.969Z</time></trkpt><trkpt lat="39.621695641222075" lon="15.974387771260384"><ele>438.0</ele><time>2026-04-18T08:38:25.969Z</time></trkpt><trkpt lat="39.621771124583624" lon="15.974436409622978"><ele>434.0</ele><time>2026-04-18T08:38:26.969Z</time></trkpt><trkpt lat="39.62186740614088" lon="15.974458607378446"><ele>434.0</ele><time>2026-04-18T08:38:27.969Z</time></trkpt><trkpt lat="39.62197571847324" lon="15.97444435732671"><ele>434.0</ele><time>2026-04-18T08:38:28.969Z</time></trkpt><trkpt lat="39.62209852379401" lon="15.974411627615428"><ele>434.0</ele><time>2026-04-18T08:38:29.969Z</time></trkpt><trkpt lat="39.62221967913143" lon="15.974386228625278"><ele>434.0</ele><time>2026-04-18T08:38:30.969Z</time></trkpt><trkpt lat="39.62233718503786" lon="15.974359809448147"><ele>433.75</ele><time>2026-04-18T08:38:31.969Z</time></trkpt><trkpt lat="39.6224422140402" lon="15.974328666605997"><ele>433.5</ele><time>2026-04-18T08:38:32.969Z</time></trkpt><trkpt lat="39.62254438593391" lon="15.974287317399654"><ele>433.25</ele><time>2026-04-18T08:38:33.969Z</time></trkpt><trkpt lat="39.62265438832652" lon="15.974232375433122"><ele>433.0</ele><time>2026-04-18T08:38:34.969Z</time></trkpt><trkpt lat="39.62276613197721" lon="15.974174699507968"><ele>440.5</ele><time>2026-04-18T08:38:35.969Z</time></trkpt><trkpt lat="39.62288154762848" lon="15.974116728452822"><ele>448.0</ele><time>2026-04-18T08:38:36.969Z</time></trkpt><trkpt lat="39.62299604770686" lon="15.974051378098743"><ele>455.5</ele><time>2026-04-18T08:38:37.969Z</time></trkpt><trkpt lat="39.623102755420206" lon="15.973990707789046"><ele>463.0</ele><time>2026-04-18T08:38:38.969Z</time></trkpt><trkpt lat="39.62320445464205" lon="15.973935316285514"><ele>463.0</ele><time>2026-04-18T08:38:39.969Z</time></trkpt><trkpt lat="39.62331328056401" lon="15.973891044235984"><ele>463.0</ele><time>2026-04-18T08:38:40.969Z</time></trkpt><trkpt lat="39.623437670275855" lon="15.973872164474265"><ele>463.0</ele><time>2026-04-18T08:38:41.969Z</time></trkpt><trkpt lat="39.62357137817954" lon="15.973873301221035"><ele>463.0</ele><time>2026-04-18T08:38:42.969Z</time></trkpt><trkpt lat="39.62370573341076" lon="15.973884515397412"><ele>461.75</ele><time>2026-04-18T08:38:43.969Z</time></trkpt><trkpt lat="39.6238347486828" lon="15.97389692809083"><ele>460.5</ele><time>2026-04-18T08:38:44.969Z</time></trkpt><trkpt lat="39.623955094025696" lon="15.97389659951031"><ele>459.25</ele><time>2026-04-18T08:38:45.969Z</time></trkpt><trkpt lat="39.624075358723225" lon="15.97388861141393"><ele>458.0</ele><time>2026-04-18T08:38:46.969Z</time></trkpt><trkpt lat="39.62418767865818" lon="15.973890665449895"><ele>458.0</ele><time>2026-04-18T08:38:47.969Z</time></trkpt><trkpt lat="39.62428625828118" lon="15.97389679769366"><ele>457.99999999999994</ele><time>2026-04-18T08:38:48.969Z</time></trkpt><trkpt lat="39.62437981624411" lon="15.973883189033643"><ele>457.99999999999994</ele><time>2026-04-18T08:38:49.969Z</time></trkpt><trkpt lat="39.62446969686759" lon="15.973832984523957"><ele>458.0</ele><time>2026-04-18T08:38:50.969Z</time></trkpt><trkpt lat="39.624566154271065" lon="15.973749742616407"><ele>458.0</ele><time>2026-04-18T08:38:51.969Z</time></trkpt><trkpt lat="39.624663220728934" lon="15.973648128889199"><ele>454.75</ele><time>2026-04-18T08:38:52.969Z</time></trkpt><trkpt lat="39.62477897617843" lon="15.973564003811449"><ele>451.5</ele><time>2026-04-18T08:38:53.969Z</time></trkpt><trkpt lat="39.62488711546229" lon="15.97346416559648"><ele>448.25</ele><time>2026-04-18T08:38:54.969Z</time></trkpt><trkpt lat="39.6249765304439" lon="15.97336175837169"><ele>445.0</ele><time>2026-04-18T08:38:55.969Z</time></trkpt><trkpt lat="39.62507950120895" lon="15.973287710929275"><ele>446.25</ele><time>2026-04-18T08:38:56.969Z</time></trkpt><trkpt lat="39.625178630918434" lon="15.973197485037716"><ele>447.5</ele><time>2026-04-18T08:38:57.969Z</time></trkpt><trkpt lat="39.625278919940435" lon="15.973100040801347"><ele>448.75</ele><time>2026-04-18T08:38:58.969Z</time></trkpt><trkpt lat="39.62537344066514" lon="15.972989181271167"><ele>450.0</ele><time>2026-04-18T08:38:59.969Z</time></trkpt><trkpt lat="39.62546425698239" lon="15.972866180070099"><ele>450.0</ele><time>2026-04-18T08:39:00.969Z</time></trkpt><trkpt lat="39.62554546007247" lon="15.97272806701853"><ele>450.0</ele><time>2026-04-18T08:39:01.969Z</time></trkpt><trkpt lat="39.62561069208666" lon="15.972598961229865"><ele>450.0</ele><time>2026-04-18T08:39:02.969Z</time></trkpt><trkpt lat="39.62567877714592" lon="15.972500757377848"><ele>450.0</ele><time>2026-04-18T08:39:03.969Z</time></trkpt><trkpt lat="39.62574678261235" lon="15.972407831471964"><ele>454.2</ele><time>2026-04-18T08:39:04.969Z</time></trkpt><trkpt lat="39.62582219487083" lon="15.9723047846691"><ele>458.4</ele><time>2026-04-18T08:39:05.969Z</time></trkpt><trkpt lat="39.62590069873096" lon="15.972194201114442"><ele>462.6</ele><time>2026-04-18T08:39:06.969Z</time></trkpt><trkpt lat="39.6259627934828" lon="15.972105081120162"><ele>466.8</ele><time>2026-04-18T08:39:07.969Z</time></trkpt><trkpt lat="39.62602856688833" lon="15.972015968995098"><ele>471.0</ele><time>2026-04-18T08:39:08.969Z</time></trkpt><trkpt lat="39.62609576087318" lon="15.971936510563438"><ele>472.8</ele><time>2026-04-18T08:39:09.969Z</time></trkpt><trkpt lat="39.62618102124542" lon="15.971863877482908"><ele>474.6</ele><time>2026-04-18T08:39:10.969Z</time></trkpt><trkpt lat="39.6262660630713" lon="15.971804199963588"><ele>476.4</ele><time>2026-04-18T08:39:11.969Z</time></trkpt><trkpt lat="39.62635681587323" lon="15.971744998322986"><ele>478.2</ele><time>2026-04-18T08:39:12.969Z</time></trkpt><trkpt lat="39.6264643426664" lon="15.971683603735098"><ele>480.0</ele><time>2026-04-18T08:39:13.969Z</time></trkpt><trkpt lat="39.62658424044094" lon="15.971616791382159"><ele>480.0</ele><time>2026-04-18T08:39:14.969Z</time></trkpt><trkpt lat="39.626678632401" lon="15.971564644058486"><ele>480.0</ele><time>2026-04-18T08:39:15.969Z</time></trkpt><trkpt lat="39.62677540696145" lon="15.9715104832911"><ele>480.0</ele><time>2026-04-18T08:39:16.969Z</time></trkpt><trkpt lat="39.62685553680721" lon="15.971463708718742"><ele>480.0</ele><time>2026-04-18T08:39:17.969Z</time></trkpt><trkpt lat="39.626929048810986" lon="15.971406270977822"><ele>480.0</ele><time>2026-04-18T08:39:18.969Z</time></trkpt><trkpt lat="39.626996499256144" lon="15.971304515490031"><ele>477.75</ele><time>2026-04-18T08:39:19.969Z</time></trkpt><trkpt lat="39.62703115114713" lon="15.971147406252895"><ele>475.5</ele><time>2026-04-18T08:39:20.969Z</time></trkpt><trkpt lat="39.62706152956981" lon="15.971003475407814"><ele>473.25</ele><time>2026-04-18T08:39:21.969Z</time></trkpt><trkpt lat="39.627077724642476" lon="15.97085200734404"><ele>471.0</ele><time>2026-04-18T08:39:22.968Z</time></trkpt><trkpt lat="39.62714638298683" lon="15.970716564272864"><ele>471.0</ele><time>2026-04-18T08:39:23.968Z</time></trkpt><trkpt lat="39.62723179331979" lon="15.97060237556258"><ele>471.0</ele><time>2026-04-18T08:39:24.968Z</time></trkpt><trkpt lat="39.62730517394417" lon="15.970470915811944"><ele>471.0</ele><time>2026-04-18T08:39:25.968Z</time></trkpt><trkpt lat="39.62737029147417" lon="15.970346784275668"><ele>471.0</ele><time>2026-04-18T08:39:26.968Z</time></trkpt><trkpt lat="39.627453508271515" lon="15.970230879377317"><ele>471.0</ele><time>2026-04-18T08:39:27.968Z</time></trkpt><trkpt lat="39.627548601997944" lon="15.970108836511473"><ele>471.0</ele><time>2026-04-18T08:39:28.968Z</time></trkpt><trkpt lat="39.62764123383069" lon="15.969991502785176"><ele>471.0</ele><time>2026-04-18T08:39:29.968Z</time></trkpt><trkpt lat="39.627719051365624" lon="15.969892933963127"><ele>471.0</ele><time>2026-04-18T08:39:30.968Z</time></trkpt><trkpt lat="39.62778591484391" lon="15.969808240222322"><ele>470.0</ele><time>2026-04-18T08:39:31.968Z</time></trkpt><trkpt lat="39.62784729464211" lon="15.969730492493087"><ele>469.0</ele><time>2026-04-18T08:39:32.968Z</time></trkpt><trkpt lat="39.62789632160037" lon="15.969668567085824"><ele>468.0</ele><time>2026-04-18T08:39:33.968Z</time></trkpt><trkpt lat="39.62797429246687" lon="15.969561350923916"><ele>467.0</ele><time>2026-04-18T08:39:35.968Z</time></trkpt><trkpt lat="39.62800564803907" lon="15.969479347360974"><ele>466.0</ele><time>2026-04-18T08:39:36.968Z</time></trkpt><trkpt lat="39.62801207574339" lon="15.96938285923005"><ele>465.0</ele><time>2026-04-18T08:39:37.968Z</time></trkpt><trkpt lat="39.627931064973744" lon="15.969321360891655"><ele>465.0</ele><time>2026-04-18T08:39:38.968Z</time></trkpt><trkpt lat="39.627857682294376" lon="15.96932053818712"><ele>465.0</ele><time>2026-04-18T08:39:39.968Z</time></trkpt><trkpt lat="39.62779602801558" lon="15.96938555680953"><ele>465.0</ele><time>2026-04-18T08:39:40.968Z</time></trkpt><trkpt lat="39.62764368846038" lon="15.969627368431633"><ele>465.0</ele><time>2026-04-18T08:39:42.968Z</time></trkpt><trkpt lat="39.627540976559985" lon="15.969727773573704"><ele>466.2</ele><time>2026-04-18T08:39:43.968Z</time></trkpt><trkpt lat="39.627459400194475" lon="15.969811166170105"><ele>467.4</ele><time>2026-04-18T08:39:44.968Z</time></trkpt><trkpt lat="39.62737655960125" lon="15.969895964093281"><ele>468.6</ele><time>2026-04-18T08:39:45.968Z</time></trkpt><trkpt lat="39.62728852367426" lon="15.96998915224245"><ele>469.8</ele><time>2026-04-18T08:39:46.968Z</time></trkpt><trkpt lat="39.62720820021356" lon="15.97010574850142"><ele>471.0</ele><time>2026-04-18T08:39:47.968Z</time></trkpt><trkpt lat="39.62711593876332" lon="15.970218783858511"><ele>471.0</ele><time>2026-04-18T08:39:48.968Z</time></trkpt><trkpt lat="39.62702910958225" lon="15.970348831309654"><ele>471.0</ele><time>2026-04-18T08:39:49.968Z</time></trkpt><trkpt lat="39.626958117703076" lon="15.97046421073534"><ele>471.0</ele><time>2026-04-18T08:39:50.968Z</time></trkpt><trkpt lat="39.6268935181107" lon="15.970575897178772"><ele>471.0</ele><time>2026-04-18T08:39:51.968Z</time></trkpt><trkpt lat="39.626841750585285" lon="15.970693349629284"><ele>472.8</ele><time>2026-04-18T08:39:52.968Z</time></trkpt><trkpt lat="39.626799734459574" lon="15.970805030598422"><ele>474.6</ele><time>2026-04-18T08:39:53.968Z</time></trkpt><trkpt lat="39.62675576849142" lon="15.970894635845996"><ele>476.4</ele><time>2026-04-18T08:39:54.968Z</time></trkpt><trkpt lat="39.62668809419707" lon="15.970977459895972"><ele>478.2</ele><time>2026-04-18T08:39:55.968Z</time></trkpt><trkpt lat="39.62658400951824" lon="15.971042189480194"><ele>480.0</ele><time>2026-04-18T08:39:56.968Z</time></trkpt><trkpt lat="39.62646830256689" lon="15.97109770819401"><ele>480.0</ele><time>2026-04-18T08:39:57.968Z</time></trkpt><trkpt lat="39.62634759954288" lon="15.971170097685661"><ele>480.0</ele><time>2026-04-18T08:39:58.968Z</time></trkpt><trkpt lat="39.626239101247485" lon="15.971232719975346"><ele>480.0</ele><time>2026-04-18T08:39:59.968Z</time></trkpt><trkpt lat="39.62614460303412" lon="15.971279782118103"><ele>480.0</ele><time>2026-04-18T08:40:00.968Z</time></trkpt><trkpt lat="39.62606404323498" lon="15.971317614608568"><ele>480.0</ele><time>2026-04-18T08:40:01.968Z</time></trkpt><trkpt lat="39.625959559138664" lon="15.971355624053967"><ele>480.0</ele><time>2026-04-18T08:40:03.968Z</time></trkpt><trkpt lat="39.62589894290273" lon="15.971325683120032"><ele>480.0</ele><time>2026-04-18T08:40:05.969Z</time></trkpt><trkpt lat="39.625962428999465" lon="15.971194448046388"><ele>480.0</ele><time>2026-04-18T08:40:06.969Z</time></trkpt><trkpt lat="39.626066546806626" lon="15.971236623802046"><ele>480.0</ele><time>2026-04-18T08:40:08.969Z</time></trkpt><trkpt lat="39.626143763141776" lon="15.971222530869138"><ele>480.0</ele><time>2026-04-18T08:40:09.969Z</time></trkpt><trkpt lat="39.626220645845095" lon="15.97120782336239"><ele>480.0</ele><time>2026-04-18T08:40:10.969Z</time></trkpt><trkpt lat="39.62630012049928" lon="15.971190611789813"><ele>480.0</ele><time>2026-04-18T08:40:11.969Z</time></trkpt><trkpt lat="39.62639581927377" lon="15.971144688970622"><ele>480.0</ele><time>2026-04-18T08:40:12.969Z</time></trkpt><trkpt lat="39.62648455080272" lon="15.971065837127037"><ele>480.0</ele><time>2026-04-18T08:40:13.969Z</time></trkpt><trkpt lat="39.62655915164037" lon="15.971013252684779"><ele>480.0</ele><time>2026-04-18T08:40:14.969Z</time></trkpt><trkpt lat="39.62662575721794" lon="15.970971825621513"><ele>480.0</ele><time>2026-04-18T08:40:15.969Z</time></trkpt><trkpt lat="39.62668237105495" lon="15.9709300312398"><ele>480.0</ele><time>2026-04-18T08:40:16.969Z</time></trkpt><trkpt lat="39.62673586572867" lon="15.970881942238494"><ele>488.0</ele><time>2026-04-18T08:40:17.969Z</time></trkpt><trkpt lat="39.62678823358928" lon="15.970791144449642"><ele>496.0</ele><time>2026-04-18T08:40:18.969Z</time></trkpt><trkpt lat="39.62678997207983" lon="15.970638217547483"><ele>504.0</ele><time>2026-04-18T08:40:19.969Z</time></trkpt><trkpt lat="39.62680615862022" lon="15.970503100448955"><ele>512.0</ele><time>2026-04-18T08:40:20.969Z</time></trkpt><trkpt lat="39.62684801826101" lon="15.970377143665214"><ele>520.0</ele><time>2026-04-18T08:40:21.969Z</time></trkpt><trkpt lat="39.62689077938092" lon="15.97024992251125"><ele>520.0</ele><time>2026-04-18T08:40:22.969Z</time></trkpt><trkpt lat="39.62692874788027" lon="15.970137630550902"><ele>520.0</ele><time>2026-04-18T08:40:23.969Z</time></trkpt><trkpt lat="39.626965778593934" lon="15.970034857108757"><ele>520.0</ele><time>2026-04-18T08:40:24.969Z</time></trkpt><trkpt lat="39.62700565432661" lon="15.96994135350062"><ele>520.0</ele><time>2026-04-18T08:40:25.969Z</time></trkpt><trkpt lat="39.62705540231446" lon="15.96986667857103"><ele>520.0</ele><time>2026-04-18T08:40:26.969Z</time></trkpt><trkpt lat="39.62711656886726" lon="15.969781579515686"><ele>520.0</ele><time>2026-04-18T08:40:27.969Z</time></trkpt><trkpt lat="39.62720272270996" lon="15.969735919486359"><ele>517.0</ele><time>2026-04-18T08:40:28.969Z</time></trkpt><trkpt lat="39.627300008746765" lon="15.96970055971303"><ele>514.0</ele><time>2026-04-18T08:40:29.969Z</time></trkpt><trkpt lat="39.62738457133176" lon="15.969662537993214"><ele>511.0</ele><time>2026-04-18T08:40:30.969Z</time></trkpt><trkpt lat="39.62744720370321" lon="15.969629512561754"><ele>508.0</ele><time>2026-04-18T08:40:31.969Z</time></trkpt><trkpt lat="39.62750376314903" lon="15.969569629649287"><ele>505.00000000000006</ele><time>2026-04-18T08:40:32.969Z</time></trkpt><trkpt lat="39.627549603025116" lon="15.969469362505139"><ele>502.0</ele><time>2026-04-18T08:40:33.969Z</time></trkpt><trkpt lat="39.627597939632395" lon="15.969364104263239"><ele>502.0</ele><time>2026-04-18T08:40:34.968Z</time></trkpt><trkpt lat="39.627653754466614" lon="15.969267752357876"><ele>502.00000000000006</ele><time>2026-04-18T08:40:35.968Z</time></trkpt><trkpt lat="39.62772446678913" lon="15.969178425431016"><ele>502.00000000000006</ele><time>2026-04-18T08:40:36.968Z</time></trkpt><trkpt lat="39.62778354225308" lon="15.969075275478897"><ele>502.0</ele><time>2026-04-18T08:40:37.968Z</time></trkpt><trkpt lat="39.6277724256657" lon="15.968908342143386"><ele>502.0</ele><time>2026-04-18T08:40:38.968Z</time></trkpt><trkpt lat="39.627798223317946" lon="15.968784708900943"><ele>501.6666666666667</ele><time>2026-04-18T08:40:39.968Z</time></trkpt><trkpt lat="39.627814153084124" lon="15.968684468080163"><ele>501.33333333333337</ele><time>2026-04-18T08:40:40.968Z</time></trkpt><trkpt lat="39.62782610973113" lon="15.96859886394609"><ele>501.0</ele><time>2026-04-18T08:40:41.968Z</time></trkpt><trkpt lat="39.62784732841651" lon="15.968500092566243"><ele>500.66666666666663</ele><time>2026-04-18T08:40:42.968Z</time></trkpt><trkpt lat="39.62787974531429" lon="15.968387991448912"><ele>500.3333333333333</ele><time>2026-04-18T08:40:43.968Z</time></trkpt><trkpt lat="39.62791292190867" lon="15.96828494326078"><ele>500.0</ele><time>2026-04-18T08:40:44.968Z</time></trkpt><trkpt lat="39.62795065058973" lon="15.968173156791593"><ele>500.0</ele><time>2026-04-18T08:40:45.968Z</time></trkpt><trkpt lat="39.627986644709004" lon="15.968065059377032"><ele>500.0</ele><time>2026-04-18T08:40:46.968Z</time></trkpt><trkpt lat="39.62802031436516" lon="15.967958867716456"><ele>500.0</ele><time>2026-04-18T08:40:47.968Z</time></trkpt><trkpt lat="39.62804376341766" lon="15.967842376224757"><ele>500.0</ele><time>2026-04-18T08:40:48.968Z</time></trkpt><trkpt lat="39.628031392310845" lon="15.967699724286199"><ele>500.0</ele><time>2026-04-18T08:40:49.968Z</time></trkpt><trkpt lat="39.627931641478575" lon="15.967585002090468"><ele>502.66666666666663</ele><time>2026-04-18T08:40:50.968Z</time></trkpt><trkpt lat="39.62789352174397" lon="15.96747200489425"><ele>505.3333333333333</ele><time>2026-04-18T08:40:51.968Z</time></trkpt><trkpt lat="39.627871079651385" lon="15.967390187022767"><ele>508.0</ele><time>2026-04-18T08:40:52.968Z</time></trkpt><trkpt lat="39.62785270309227" lon="15.967300916148726"><ele>510.66666666666663</ele><time>2026-04-18T08:40:53.968Z</time></trkpt><trkpt lat="39.62791166826639" lon="15.967161039798443"><ele>513.3333333333334</ele><time>2026-04-18T08:40:55.968Z</time></trkpt><trkpt lat="39.62795472089889" lon="15.967076766322606"><ele>516.0</ele><time>2026-04-18T08:40:56.968Z</time></trkpt><trkpt lat="39.62800174966804" lon="15.966970488306915"><ele>516.0</ele><time>2026-04-18T08:40:57.968Z</time></trkpt><trkpt lat="39.62805262437835" lon="15.966864717841178"><ele>516.0</ele><time>2026-04-18T08:40:58.968Z</time></trkpt><trkpt lat="39.62810789779876" lon="15.966759732273466"><ele>516.0</ele><time>2026-04-18T08:40:59.968Z</time></trkpt><trkpt lat="39.62816574239825" lon="15.966659489540707"><ele>516.0</ele><time>2026-04-18T08:41:00.968Z</time></trkpt><trkpt lat="39.62824159163728" lon="15.966568538611634"><ele>516.0</ele><time>2026-04-18T08:41:01.967Z</time></trkpt><trkpt lat="39.628327587733935" lon="15.966465216759731"><ele>521.8</ele><time>2026-04-18T08:41:02.967Z</time></trkpt><trkpt lat="39.62838978482622" lon="15.966340220165216"><ele>527.6</ele><time>2026-04-18T08:41:03.967Z</time></trkpt><trkpt lat="39.628435298814544" lon="15.9661882334685"><ele>533.4</ele><time>2026-04-18T08:41:04.967Z</time></trkpt><trkpt lat="39.628468694740924" lon="15.966058565535278"><ele>539.2</ele><time>2026-04-18T08:41:05.967Z</time></trkpt><trkpt lat="39.6284818856546" lon="15.965943115524158"><ele>545.0</ele><time>2026-04-18T08:41:06.967Z</time></trkpt><trkpt lat="39.628506014609016" lon="15.965854372658077"><ele>540.4</ele><time>2026-04-18T08:41:07.967Z</time></trkpt><trkpt lat="39.62854919371059" lon="15.965778323799661"><ele>535.8</ele><time>2026-04-18T08:41:08.967Z</time></trkpt><trkpt lat="39.62862234961066" lon="15.96578135185291"><ele>531.2</ele><time>2026-04-18T08:41:09.967Z</time></trkpt><trkpt lat="39.62876306266635" lon="15.965814189828516"><ele>526.6</ele><time>2026-04-18T08:41:11.967Z</time></trkpt><trkpt lat="39.628851402657325" lon="15.965810111106462"><ele>522.0</ele><time>2026-04-18T08:41:12.967Z</time></trkpt><trkpt lat="39.62896098101485" lon="15.96576490183757"><ele>522.0</ele><time>2026-04-18T08:41:13.967Z</time></trkpt><trkpt lat="39.62901422135063" lon="15.965663039048819"><ele>522.0</ele><time>2026-04-18T08:41:14.967Z</time></trkpt><trkpt lat="39.629048639681635" lon="15.965546278140295"><ele>522.0</ele><time>2026-04-18T08:41:15.967Z</time></trkpt><trkpt lat="39.629062789207175" lon="15.965411890784756"><ele>522.0</ele><time>2026-04-18T08:41:16.967Z</time></trkpt><trkpt lat="39.629082548080554" lon="15.96527910936955"><ele>522.0</ele><time>2026-04-18T08:41:17.967Z</time></trkpt><trkpt lat="39.6290911989585" lon="15.965141453623774"><ele>529.6666666666666</ele><time>2026-04-18T08:41:18.967Z</time></trkpt><trkpt lat="39.62909463531811" lon="15.965027969759126"><ele>537.3333333333334</ele><time>2026-04-18T08:41:19.967Z</time></trkpt><trkpt lat="39.629109971180355" lon="15.964918715416795"><ele>545.0</ele><time>2026-04-18T08:41:20.967Z</time></trkpt><trkpt lat="39.62914197514018" lon="15.964822064297046"><ele>552.6666666666667</ele><time>2026-04-18T08:41:21.967Z</time></trkpt><trkpt lat="39.629181996199414" lon="15.96471416683117"><ele>560.3333333333334</ele><time>2026-04-18T08:41:22.967Z</time></trkpt><trkpt lat="39.62922626512626" lon="15.964618645682158"><ele>568.0</ele><time>2026-04-18T08:41:23.967Z</time></trkpt><trkpt lat="39.62929628058453" lon="15.964542143920948"><ele>568.0</ele><time>2026-04-18T08:41:24.967Z</time></trkpt><trkpt lat="39.629355855478266" lon="15.964455990278692"><ele>568.0</ele><time>2026-04-18T08:41:25.967Z</time></trkpt><trkpt lat="39.62939096885323" lon="15.964349212880885"><ele>568.0</ele><time>2026-04-18T08:41:26.967Z</time></trkpt><trkpt lat="39.629418116774545" lon="15.964227200063936"><ele>568.0</ele><time>2026-04-18T08:41:27.967Z</time></trkpt><trkpt lat="39.629416216304136" lon="15.964087772229949"><ele>568.0</ele><time>2026-04-18T08:41:28.967Z</time></trkpt><trkpt lat="39.629400023112154" lon="15.963940821380765"><ele>572.0</ele><time>2026-04-18T08:41:29.967Z</time></trkpt><trkpt lat="39.62941276105545" lon="15.963804485402365"><ele>576.0</ele><time>2026-04-18T08:41:30.967Z</time></trkpt><trkpt lat="39.629427184513254" lon="15.963674093641874"><ele>580.0</ele><time>2026-04-18T08:41:31.967Z</time></trkpt><trkpt lat="39.62947094177285" lon="15.96354783084821"><ele>584.0</ele><time>2026-04-18T08:41:32.967Z</time></trkpt><trkpt lat="39.62949912442013" lon="15.963405992333021"><ele>588.0</ele><time>2026-04-18T08:41:33.967Z</time></trkpt><trkpt lat="39.62950675966866" lon="15.963258018988409"><ele>580.0</ele><time>2026-04-18T08:41:34.967Z</time></trkpt><trkpt lat="39.62951859963944" lon="15.963110349931586"><ele>572.0</ele><time>2026-04-18T08:41:35.967Z</time></trkpt><trkpt lat="39.629546391536714" lon="15.962973919198511"><ele>564.0</ele><time>2026-04-18T08:41:36.967Z</time></trkpt><trkpt lat="39.6295552842514" lon="15.962830188899142"><ele>556.0</ele><time>2026-04-18T08:41:37.967Z</time></trkpt><trkpt lat="39.62956345923238" lon="15.962695118341916"><ele>548.0</ele><time>2026-04-18T08:41:38.967Z</time></trkpt><trkpt lat="39.62958246866137" lon="15.962558591288799"><ele>551.1999999999999</ele><time>2026-04-18T08:41:39.967Z</time></trkpt><trkpt lat="39.629611769038576" lon="15.962422317251784"><ele>554.4</ele><time>2026-04-18T08:41:40.967Z</time></trkpt><trkpt lat="39.62965561813912" lon="15.962302345077532"><ele>557.5999999999999</ele><time>2026-04-18T08:41:41.967Z</time></trkpt><trkpt lat="39.62971012309075" lon="15.96221138879592"><ele>560.8</ele><time>2026-04-18T08:41:42.967Z</time></trkpt><trkpt lat="39.62977325911506" lon="15.96213236931958"><ele>564.0</ele><time>2026-04-18T08:41:43.967Z</time></trkpt><trkpt lat="39.62984925047479" lon="15.962051619184296"><ele>564.0</ele><time>2026-04-18T08:41:44.967Z</time></trkpt><trkpt lat="39.62991847971319" lon="15.961971072541338"><ele>564.0</ele><time>2026-04-18T08:41:45.967Z</time></trkpt><trkpt lat="39.62995999392043" lon="15.961856592242556"><ele>564.0</ele><time>2026-04-18T08:41:46.967Z</time></trkpt><trkpt lat="39.629983036436585" lon="15.96175618399989"><ele>564.0</ele><time>2026-04-18T08:41:47.967Z</time></trkpt><trkpt lat="39.62993660084911" lon="15.961617889707703"><ele>564.0</ele><time>2026-04-18T08:41:48.967Z</time></trkpt><trkpt lat="39.62992391375796" lon="15.9614641791469"><ele>568.25</ele><time>2026-04-18T08:41:49.967Z</time></trkpt><trkpt lat="39.629898141141155" lon="15.961305079384166"><ele>572.5</ele><time>2026-04-18T08:41:50.967Z</time></trkpt><trkpt lat="39.62987343804487" lon="15.96114650263769"><ele>576.75</ele><time>2026-04-18T08:41:51.967Z</time></trkpt><trkpt lat="39.62985370848829" lon="15.960993537076616"><ele>581.0</ele><time>2026-04-18T08:41:52.967Z</time></trkpt><trkpt lat="39.629837787079865" lon="15.960860627290433"><ele>583.6</ele><time>2026-04-18T08:41:53.967Z</time></trkpt><trkpt lat="39.62983646294799" lon="15.960739676312784"><ele>586.2</ele><time>2026-04-18T08:41:54.967Z</time></trkpt><trkpt lat="39.629853980259725" lon="15.960613972131856"><ele>588.8</ele><time>2026-04-18T08:41:55.967Z</time></trkpt><trkpt lat="39.62988833351006" lon="15.96048411433406"><ele>591.4</ele><time>2026-04-18T08:41:56.967Z</time></trkpt><trkpt lat="39.62992901973223" lon="15.960335523849647"><ele>594.0</ele><time>2026-04-18T08:41:57.967Z</time></trkpt><trkpt lat="39.62997233723386" lon="15.96017333870407"><ele>596.75</ele><time>2026-04-18T08:41:58.967Z</time></trkpt><trkpt lat="39.63000941238589" lon="15.960008625541324"><ele>599.5</ele><time>2026-04-18T08:41:59.967Z</time></trkpt><trkpt lat="39.63004052044096" lon="15.959841956506398"><ele>602.25</ele><time>2026-04-18T08:42:00.967Z</time></trkpt><trkpt lat="39.630070189879106" lon="15.959680254273811"><ele>605.0</ele><time>2026-04-18T08:42:01.967Z</time></trkpt><trkpt lat="39.63009793416914" lon="15.959529025792012"><ele>605.0</ele><time>2026-04-18T08:42:02.967Z</time></trkpt><trkpt lat="39.63012223745629" lon="15.959391036871242"><ele>605.0</ele><time>2026-04-18T08:42:03.967Z</time></trkpt><trkpt lat="39.63014455300211" lon="15.959260410602337"><ele>605.0</ele><time>2026-04-18T08:42:04.967Z</time></trkpt><trkpt lat="39.630155678441774" lon="15.959112785454638"><ele>605.0</ele><time>2026-04-18T08:42:05.967Z</time></trkpt><trkpt lat="39.63015196709112" lon="15.958956946027344"><ele>605.0</ele><time>2026-04-18T08:42:06.967Z</time></trkpt><trkpt lat="39.630151703804536" lon="15.95881364739835"><ele>608.0</ele><time>2026-04-18T08:42:07.967Z</time></trkpt><trkpt lat="39.630177954305445" lon="15.958677510221467"><ele>611.0</ele><time>2026-04-18T08:42:08.967Z</time></trkpt><trkpt lat="39.63022778574175" lon="15.958549149862206"><ele>614.0</ele><time>2026-04-18T08:42:09.967Z</time></trkpt><trkpt lat="39.63028884469537" lon="15.95842299512585"><ele>617.0</ele><time>2026-04-18T08:42:10.967Z</time></trkpt><trkpt lat="39.63034846397625" lon="15.958306694860212"><ele>620.0</ele><time>2026-04-18T08:42:11.967Z</time></trkpt><trkpt lat="39.63041579783498" lon="15.958190378751254"><ele>614.0</ele><time>2026-04-18T08:42:12.967Z</time></trkpt><trkpt lat="39.63048202733417" lon="15.958113216823007"><ele>608.0</ele><time>2026-04-18T08:42:13.967Z</time></trkpt><trkpt lat="39.63056268247726" lon="15.95805392193924"><ele>602.0</ele><time>2026-04-18T08:42:14.967Z</time></trkpt><trkpt lat="39.63066085616571" lon="15.957999005431347"><ele>596.0</ele><time>2026-04-18T08:42:15.967Z</time></trkpt><trkpt lat="39.630749576366284" lon="15.957938166969223"><ele>590.0</ele><time>2026-04-18T08:42:16.967Z</time></trkpt><trkpt lat="39.630815581457625" lon="15.957867431902699"><ele>590.0</ele><time>2026-04-18T08:42:17.967Z</time></trkpt><trkpt lat="39.63085161168972" lon="15.957757226076684"><ele>590.0</ele><time>2026-04-18T08:42:18.967Z</time></trkpt><trkpt lat="39.6308781877662" lon="15.957648936454415"><ele>590.0</ele><time>2026-04-18T08:42:19.967Z</time></trkpt><trkpt lat="39.630927369256526" lon="15.95753744315124"><ele>590.0</ele><time>2026-04-18T08:42:20.967Z</time></trkpt><trkpt lat="39.631003413867404" lon="15.957443820697797"><ele>590.0</ele><time>2026-04-18T08:42:21.967Z</time></trkpt><trkpt lat="39.631052087951666" lon="15.957351679625933"><ele>586.0</ele><time>2026-04-18T08:42:22.967Z</time></trkpt><trkpt lat="39.6310634195506" lon="15.95721490969177"><ele>582.0</ele><time>2026-04-18T08:42:23.967Z</time></trkpt><trkpt lat="39.63105294191851" lon="15.957071792719391"><ele>578.0</ele><time>2026-04-18T08:42:24.967Z</time></trkpt><trkpt lat="39.63106216550275" lon="15.956938831739599"><ele>574.0</ele><time>2026-04-18T08:42:25.967Z</time></trkpt><trkpt lat="39.6311007591811" lon="15.956839694008742"><ele>570.0</ele><time>2026-04-18T08:42:26.967Z</time></trkpt><trkpt lat="39.63114313407038" lon="15.956754450754206"><ele>572.5</ele><time>2026-04-18T08:42:27.967Z</time></trkpt><trkpt lat="39.631189285828164" lon="15.95669046589015"><ele>575.0</ele><time>2026-04-18T08:42:28.967Z</time></trkpt><trkpt lat="39.63130143150709" lon="15.956634014304768"><ele>577.5</ele><time>2026-04-18T08:42:30.967Z</time></trkpt><trkpt lat="39.63136557232202" lon="15.956607466010396"><ele>580.0</ele><time>2026-04-18T08:42:31.967Z</time></trkpt><trkpt lat="39.63142569263022" lon="15.956567958115158"><ele>582.5</ele><time>2026-04-18T08:42:32.967Z</time></trkpt><trkpt lat="39.63147524826624" lon="15.956464792340762"><ele>585.0</ele><time>2026-04-18T08:42:33.967Z</time></trkpt><trkpt lat="39.631475973103726" lon="15.956335688428679"><ele>585.0</ele><time>2026-04-18T08:42:34.967Z</time></trkpt><trkpt lat="39.631438554411766" lon="15.95621596564218"><ele>585.0</ele><time>2026-04-18T08:42:35.967Z</time></trkpt><trkpt lat="39.63141502919643" lon="15.956117863680172"><ele>585.0</ele><time>2026-04-18T08:42:36.967Z</time></trkpt><trkpt lat="39.63138919596682" lon="15.95601385183261"><ele>585.0</ele><time>2026-04-18T08:42:37.967Z</time></trkpt><trkpt lat="39.63136226731445" lon="15.95590535839652"><ele>585.0</ele><time>2026-04-18T08:42:38.967Z</time></trkpt><trkpt lat="39.63132812207222" lon="15.955798095326175"><ele>585.0</ele><time>2026-04-18T08:42:39.967Z</time></trkpt><trkpt lat="39.631286576731156" lon="15.955692626528794"><ele>584.4</ele><time>2026-04-18T08:42:40.967Z</time></trkpt><trkpt lat="39.63123138496527" lon="15.9555861074739"><ele>583.8</ele><time>2026-04-18T08:42:41.967Z</time></trkpt><trkpt lat="39.631152380636834" lon="15.955496804495219"><ele>583.2</ele><time>2026-04-18T08:42:42.967Z</time></trkpt><trkpt lat="39.63108116810381" lon="15.955404005169305"><ele>582.6</ele><time>2026-04-18T08:42:43.967Z</time></trkpt><trkpt lat="39.63101725825024" lon="15.955313653750318"><ele>582.0</ele><time>2026-04-18T08:42:44.967Z</time></trkpt><trkpt lat="39.630952596353694" lon="15.955239274762754"><ele>594.3333333333334</ele><time>2026-04-18T08:42:45.967Z</time></trkpt><trkpt lat="39.63089680523906" lon="15.955160211549082"><ele>606.6666666666666</ele><time>2026-04-18T08:42:46.967Z</time></trkpt><trkpt lat="39.63085364412836" lon="15.955040140573233"><ele>619.0</ele><time>2026-04-18T08:42:48.967Z</time></trkpt><trkpt lat="39.63088544214925" lon="15.954951545649111"><ele>631.3333333333333</ele><time>2026-04-18T08:42:49.967Z</time></trkpt><trkpt lat="39.63093262025201" lon="15.954871347765671"><ele>643.6666666666666</ele><time>2026-04-18T08:42:50.967Z</time></trkpt><trkpt lat="39.6309904160667" lon="15.95478264843439"><ele>656.0</ele><time>2026-04-18T08:42:51.967Z</time></trkpt><trkpt lat="39.631049861612276" lon="15.954680563109342"><ele>656.0</ele><time>2026-04-18T08:42:52.967Z</time></trkpt><trkpt lat="39.63109949603912" lon="15.954574611605175"><ele>656.0</ele><time>2026-04-18T08:42:53.967Z</time></trkpt><trkpt lat="39.63114898083638" lon="15.954461102667914"><ele>656.0</ele><time>2026-04-18T08:42:54.967Z</time></trkpt><trkpt lat="39.63119925305908" lon="15.954345787516699"><ele>656.0</ele><time>2026-04-18T08:42:55.967Z</time></trkpt><trkpt lat="39.63125851766799" lon="15.954264653888291"><ele>656.0</ele><time>2026-04-18T08:42:56.967Z</time></trkpt><trkpt lat="39.63132442965572" lon="15.954205281362738"><ele>647.4</ele><time>2026-04-18T08:42:57.967Z</time></trkpt><trkpt lat="39.63135234931732" lon="15.954097218098132"><ele>638.8</ele><time>2026-04-18T08:42:58.967Z</time></trkpt><trkpt lat="39.631351868190684" lon="15.953963172938026"><ele>630.1999999999999</ele><time>2026-04-18T08:42:59.967Z</time></trkpt><trkpt lat="39.63133459914501" lon="15.953821797243895"><ele>621.5999999999999</ele><time>2026-04-18T08:43:00.967Z</time></trkpt><trkpt lat="39.631308820914825" lon="15.953688108487453"><ele>613.0</ele><time>2026-04-18T08:43:01.967Z</time></trkpt><trkpt lat="39.63127659632558" lon="15.953564047356966"><ele>613.0</ele><time>2026-04-18T08:43:02.967Z</time></trkpt><trkpt lat="39.631229622228226" lon="15.953456593034492"><ele>613.0</ele><time>2026-04-18T08:43:03.967Z</time></trkpt><trkpt lat="39.63114985295933" lon="15.95334566902017"><ele>613.0</ele><time>2026-04-18T08:43:04.967Z</time></trkpt><trkpt lat="39.631052216450584" lon="15.953233541771962"><ele>613.0</ele><time>2026-04-18T08:43:05.967Z</time></trkpt><trkpt lat="39.63094709720623" lon="15.95311449892662"><ele>623.8</ele><time>2026-04-18T08:43:06.967Z</time></trkpt><trkpt lat="39.63085153656033" lon="15.952993382939031"><ele>634.5999999999999</ele><time>2026-04-18T08:43:07.967Z</time></trkpt><trkpt lat="39.63077336687508" lon="15.95288897462123"><ele>645.4000000000001</ele><time>2026-04-18T08:43:08.967Z</time></trkpt><trkpt lat="39.63070594964468" lon="15.952792812106507"><ele>656.2</ele><time>2026-04-18T08:43:09.967Z</time></trkpt><trkpt lat="39.630637220596796" lon="15.95269221355382"><ele>667.0</ele><time>2026-04-18T08:43:10.967Z</time></trkpt><trkpt lat="39.63057834338145" lon="15.952579673434874"><ele>661.8</ele><time>2026-04-18T08:43:11.967Z</time></trkpt><trkpt lat="39.630534071950564" lon="15.952476419137625"><ele>656.6</ele><time>2026-04-18T08:43:12.967Z</time></trkpt><trkpt lat="39.63049168488357" lon="15.952380921917376"><ele>651.4</ele><time>2026-04-18T08:43:13.967Z</time></trkpt><trkpt lat="39.63042817560519" lon="15.952291352730247"><ele>646.1999999999999</ele><time>2026-04-18T08:43:14.967Z</time></trkpt><trkpt lat="39.63035285512304" lon="15.952213205302435"><ele>641.0</ele><time>2026-04-18T08:43:15.967Z</time></trkpt><trkpt lat="39.63026425446412" lon="15.952129963417162"><ele>650.0</ele><time>2026-04-18T08:43:16.967Z</time></trkpt><trkpt lat="39.63016969488719" lon="15.95206849317812"><ele>659.0</ele><time>2026-04-18T08:43:17.967Z</time></trkpt><trkpt lat="39.630095051768855" lon="15.9520212448047"><ele>668.0</ele><time>2026-04-18T08:43:18.967Z</time></trkpt><trkpt lat="39.630034362844185" lon="15.95196265681963"><ele>677.0</ele><time>2026-04-18T08:43:19.967Z</time></trkpt><trkpt lat="39.629987168655774" lon="15.951873585076449"><ele>686.0</ele><time>2026-04-18T08:43:20.967Z</time></trkpt><trkpt lat="39.629966798686176" lon="15.951747090462787"><ele>695.0</ele><time>2026-04-18T08:43:21.967Z</time></trkpt><trkpt lat="39.629958163138" lon="15.951606868778176"><ele>695.0</ele><time>2026-04-18T08:43:22.967Z</time></trkpt><trkpt lat="39.62995469552973" lon="15.951463396314548"><ele>695.0</ele><time>2026-04-18T08:43:23.967Z</time></trkpt><trkpt lat="39.62996052640664" lon="15.951359256899497"><ele>695.0</ele><time>2026-04-18T08:43:24.967Z</time></trkpt><trkpt lat="39.6299860615805" lon="15.951234870259361"><ele>695.0</ele><time>2026-04-18T08:43:25.967Z</time></trkpt><trkpt lat="39.63002694542096" lon="15.951108402547929"><ele>695.0</ele><time>2026-04-18T08:43:26.967Z</time></trkpt><trkpt lat="39.6300795520755" lon="15.950992406078118"><ele>695.0</ele><time>2026-04-18T08:43:27.966Z</time></trkpt><trkpt lat="39.6301320579938" lon="15.95090789703546"><ele>695.0</ele><time>2026-04-18T08:43:28.966Z</time></trkpt><trkpt lat="39.630216517929604" lon="15.950837193727578"><ele>695.0</ele><time>2026-04-18T08:43:29.966Z</time></trkpt><trkpt lat="39.63032623765727" lon="15.95077508400332"><ele>695.0</ele><time>2026-04-18T08:43:30.966Z</time></trkpt><trkpt lat="39.63043527959187" lon="15.95071942878278"><ele>695.0</ele><time>2026-04-18T08:43:31.966Z</time></trkpt><trkpt lat="39.63053163638152" lon="15.950648972013527"><ele>683.0</ele><time>2026-04-18T08:43:32.966Z</time></trkpt><trkpt lat="39.63060177459542" lon="15.950561291993827"><ele>671.0</ele><time>2026-04-18T08:43:33.966Z</time></trkpt><trkpt lat="39.63065107429642" lon="15.95046474062803"><ele>659.0</ele><time>2026-04-18T08:43:34.966Z</time></trkpt><trkpt lat="39.63068499244016" lon="15.950360065515516"><ele>647.0</ele><time>2026-04-18T08:43:35.966Z</time></trkpt><trkpt lat="39.630696537242876" lon="15.950249962845987"><ele>635.0</ele><time>2026-04-18T08:43:36.966Z</time></trkpt><trkpt lat="39.63068488054809" lon="15.950124729124251"><ele>638.6</ele><time>2026-04-18T08:43:37.966Z</time></trkpt><trkpt lat="39.63065231125982" lon="15.95000998107749"><ele>642.2</ele><time>2026-04-18T08:43:38.966Z</time></trkpt><trkpt lat="39.63060329007184" lon="15.949896500363991"><ele>645.8</ele><time>2026-04-18T08:43:39.966Z</time></trkpt><trkpt lat="39.63054289124198" lon="15.94979583789225"><ele>649.4</ele><time>2026-04-18T08:43:40.966Z</time></trkpt><trkpt lat="39.63047213181124" lon="15.949693117166643"><ele>653.0</ele><time>2026-04-18T08:43:41.966Z</time></trkpt><trkpt lat="39.63040614679163" lon="15.949598312102406"><ele>653.0</ele><time>2026-04-18T08:43:42.966Z</time></trkpt><trkpt lat="39.63034759592359" lon="15.949513156133053"><ele>653.0</ele><time>2026-04-18T08:43:43.966Z</time></trkpt><trkpt lat="39.63029945089108" lon="15.94943818909705"><ele>653.0</ele><time>2026-04-18T08:43:44.966Z</time></trkpt><trkpt lat="39.63025527191385" lon="15.949369389014965"><ele>653.0</ele><time>2026-04-18T08:43:45.966Z</time></trkpt><trkpt lat="39.63021282615706" lon="15.949296526184273"><ele>653.0</ele><time>2026-04-18T08:43:46.966Z</time></trkpt><trkpt lat="39.63018712479863" lon="15.949203498372901"><ele>653.0</ele><time>2026-04-18T08:43:47.966Z</time></trkpt><trkpt lat="39.63018837194166" lon="15.949100949336195"><ele>655.4</ele><time>2026-04-18T08:43:48.966Z</time></trkpt><trkpt lat="39.630214020228856" lon="15.948989869149603"><ele>657.8</ele><time>2026-04-18T08:43:49.966Z</time></trkpt><trkpt lat="39.63027015226247" lon="15.94888630561505"><ele>660.2</ele><time>2026-04-18T08:43:50.966Z</time></trkpt><trkpt lat="39.63035272704363" lon="15.948810082288238"><ele>662.6</ele><time>2026-04-18T08:43:51.966Z</time></trkpt><trkpt lat="39.63043897054648" lon="15.948777062670032"><ele>665.0</ele><time>2026-04-18T08:43:52.966Z</time></trkpt><trkpt lat="39.63053180113718" lon="15.948736385426125"><ele>665.0</ele><time>2026-04-18T08:43:53.966Z</time></trkpt><trkpt lat="39.63064872100595" lon="15.948691238138103"><ele>665.0</ele><time>2026-04-18T08:43:54.966Z</time></trkpt><trkpt lat="39.630778207708566" lon="15.948644637756637"><ele>665.0</ele><time>2026-04-18T08:43:55.966Z</time></trkpt><trkpt lat="39.63089220775926" lon="15.948617412597013"><ele>665.0</ele><time>2026-04-18T08:43:56.966Z</time></trkpt><trkpt lat="39.630978917623246" lon="15.94859835923365"><ele>665.0</ele><time>2026-04-18T08:43:57.966Z</time></trkpt><trkpt lat="39.63105704829577" lon="15.94856383672082"><ele>665.0</ele><time>2026-04-18T08:43:58.966Z</time></trkpt><trkpt lat="39.631132987744856" lon="15.948532384989768"><ele>665.0</ele><time>2026-04-18T08:43:59.966Z</time></trkpt><trkpt lat="39.63120776217886" lon="15.948479613732143"><ele>665.0</ele><time>2026-04-18T08:44:00.966Z</time></trkpt><trkpt lat="39.631261344429994" lon="15.948401612135486"><ele>665.0</ele><time>2026-04-18T08:44:01.966Z</time></trkpt><trkpt lat="39.631283283727406" lon="15.948296875923448"><ele>665.0</ele><time>2026-04-18T08:44:02.966Z</time></trkpt><trkpt lat="39.631259662619186" lon="15.948159953099683"><ele>668.8</ele><time>2026-04-18T08:44:03.966Z</time></trkpt><trkpt lat="39.63120649428298" lon="15.948032582198522"><ele>672.6</ele><time>2026-04-18T08:44:04.966Z</time></trkpt><trkpt lat="39.63113900048108" lon="15.947925578506688"><ele>676.4000000000001</ele><time>2026-04-18T08:44:05.966Z</time></trkpt><trkpt lat="39.63107457910924" lon="15.947835757099371"><ele>680.2</ele><time>2026-04-18T08:44:06.966Z</time></trkpt><trkpt lat="39.63099862808561" lon="15.947773685411155"><ele>684.0</ele><time>2026-04-18T08:44:07.966Z</time></trkpt><trkpt lat="39.6308976367275" lon="15.947735013141983"><ele>684.0</ele><time>2026-04-18T08:44:08.966Z</time></trkpt><trkpt lat="39.63077493985842" lon="15.947707209987366"><ele>684.0</ele><time>2026-04-18T08:44:09.966Z</time></trkpt><trkpt lat="39.6306405454082" lon="15.947672329798877"><ele>684.0</ele><time>2026-04-18T08:44:10.966Z</time></trkpt><trkpt lat="39.63052990285341" lon="15.947595510522232"><ele>684.0</ele><time>2026-04-18T08:44:11.966Z</time></trkpt><trkpt lat="39.63043771959267" lon="15.94748717566177"><ele>682.25</ele><time>2026-04-18T08:44:12.966Z</time></trkpt><trkpt lat="39.63032697256932" lon="15.947404568139596"><ele>680.5</ele><time>2026-04-18T08:44:13.966Z</time></trkpt><trkpt lat="39.63020430340937" lon="15.947354309981282"><ele>678.75</ele><time>2026-04-18T08:44:14.966Z</time></trkpt><trkpt lat="39.630072314397324" lon="15.947311719963077"><ele>677.0</ele><time>2026-04-18T08:44:15.966Z</time></trkpt><trkpt lat="39.62993787614604" lon="15.947265332741981"><ele>682.5</ele><time>2026-04-18T08:44:16.966Z</time></trkpt><trkpt lat="39.62980321774435" lon="15.947217683141446"><ele>688.0</ele><time>2026-04-18T08:44:17.967Z</time></trkpt><trkpt lat="39.629664459681095" lon="15.94716619975728"><ele>693.5</ele><time>2026-04-18T08:44:18.967Z</time></trkpt><trkpt lat="39.62954129124398" lon="15.947117734988138"><ele>699.0</ele><time>2026-04-18T08:44:19.967Z</time></trkpt><trkpt lat="39.629432724165184" lon="15.947067714835821"><ele>698.25</ele><time>2026-04-18T08:44:20.967Z</time></trkpt><trkpt lat="39.62933666190124" lon="15.946985500647907"><ele>697.5</ele><time>2026-04-18T08:44:21.967Z</time></trkpt><trkpt lat="39.629243874691745" lon="15.946887651263184"><ele>696.75</ele><time>2026-04-18T08:44:22.966Z</time></trkpt><trkpt lat="39.62914931359252" lon="15.946784680648834"><ele>696.0</ele><time>2026-04-18T08:44:23.966Z</time></trkpt><trkpt lat="39.6290479759025" lon="15.946697523883753"><ele>696.0</ele><time>2026-04-18T08:44:24.966Z</time></trkpt><trkpt lat="39.62895680643426" lon="15.94662267852607"><ele>696.0</ele><time>2026-04-18T08:44:25.966Z</time></trkpt><trkpt lat="39.62888331072563" lon="15.946532622282799"><ele>696.0</ele><time>2026-04-18T08:44:26.966Z</time></trkpt><trkpt lat="39.62883735311" lon="15.946432528945031"><ele>696.0</ele><time>2026-04-18T08:44:27.966Z</time></trkpt><trkpt lat="39.62879702447889" lon="15.946335897876054"><ele>696.0</ele><time>2026-04-18T08:44:28.966Z</time></trkpt><trkpt lat="39.628739475278586" lon="15.946257677707836"><ele>696.0</ele><time>2026-04-18T08:44:29.966Z</time></trkpt><trkpt lat="39.62865328627762" lon="15.946212574584075"><ele>696.0</ele><time>2026-04-18T08:44:30.966Z</time></trkpt><trkpt lat="39.628549254764195" lon="15.946201638662837"><ele>696.0</ele><time>2026-04-18T08:44:31.966Z</time></trkpt><trkpt lat="39.628441247872786" lon="15.946239493178338"><ele>696.0</ele><time>2026-04-18T08:44:32.966Z</time></trkpt><trkpt lat="39.628341835056936" lon="15.946331869872001"><ele>696.0</ele><time>2026-04-18T08:44:33.966Z</time></trkpt><trkpt lat="39.62826559837385" lon="15.94645026749634"><ele>700.0</ele><time>2026-04-18T08:44:34.966Z</time></trkpt><trkpt lat="39.62819581510101" lon="15.946543257833913"><ele>704.0</ele><time>2026-04-18T08:44:35.966Z</time></trkpt><trkpt lat="39.628106248305606" lon="15.94661428749476"><ele>708.0</ele><time>2026-04-18T08:44:36.966Z</time></trkpt><trkpt lat="39.62798260467429" lon="15.94664390326334"><ele>712.0</ele><time>2026-04-18T08:44:37.966Z</time></trkpt><trkpt lat="39.62785845414046" lon="15.946665237257886"><ele>713.5</ele><time>2026-04-18T08:44:38.966Z</time></trkpt><trkpt lat="39.62774406006975" lon="15.946664670854908"><ele>715.0</ele><time>2026-04-18T08:44:39.966Z</time></trkpt><trkpt lat="39.627641088278246" lon="15.946630156381788"><ele>716.5</ele><time>2026-04-18T08:44:40.966Z</time></trkpt><trkpt lat="39.62753066857628" lon="15.946550142170581"><ele>718.0</ele><time>2026-04-18T08:44:41.966Z</time></trkpt><trkpt lat="39.627421716348294" lon="15.946475056477805"><ele>718.0</ele><time>2026-04-18T08:44:42.966Z</time></trkpt><trkpt lat="39.627322679313686" lon="15.946409154961602"><ele>718.0</ele><time>2026-04-18T08:44:43.966Z</time></trkpt><trkpt lat="39.62723458307297" lon="15.94633363880888"><ele>718.0</ele><time>2026-04-18T08:44:44.966Z</time></trkpt><trkpt lat="39.62716604649831" lon="15.9462203223417"><ele>718.0</ele><time>2026-04-18T08:44:45.966Z</time></trkpt><trkpt lat="39.627109103681995" lon="15.94608264975071"><ele>718.0</ele><time>2026-04-18T08:44:46.966Z</time></trkpt><trkpt lat="39.62706596468571" lon="15.945951987504547"><ele>718.5</ele><time>2026-04-18T08:44:47.966Z</time></trkpt><trkpt lat="39.62702259928053" lon="15.945839534118733"><ele>719.0</ele><time>2026-04-18T08:44:48.966Z</time></trkpt><trkpt lat="39.62697541549761" lon="15.945730421908907"><ele>719.5</ele><time>2026-04-18T08:44:49.966Z</time></trkpt><trkpt lat="39.6269271789223" lon="15.945624660832625"><ele>720.0</ele><time>2026-04-18T08:44:50.966Z</time></trkpt><trkpt lat="39.62689013580291" lon="15.945527051351446"><ele>720.5</ele><time>2026-04-18T08:44:51.966Z</time></trkpt><trkpt lat="39.62686723903159" lon="15.945431207306216"><ele>721.0</ele><time>2026-04-18T08:44:52.966Z</time></trkpt><trkpt lat="39.626881927560945" lon="15.945343121021137"><ele>721.0</ele><time>2026-04-18T08:44:53.966Z</time></trkpt><trkpt lat="39.62694732601654" lon="15.945265612263254"><ele>721.0</ele><time>2026-04-18T08:44:54.966Z</time></trkpt><trkpt lat="39.627023422475546" lon="15.945198297618898"><ele>721.0</ele><time>2026-04-18T08:44:55.966Z</time></trkpt><trkpt lat="39.627117609115444" lon="15.945158187686847"><ele>721.0</ele><time>2026-04-18T08:44:56.966Z</time></trkpt><trkpt lat="39.62722101131845" lon="15.945141535100321"><ele>721.0</ele><time>2026-04-18T08:44:57.966Z</time></trkpt><trkpt lat="39.627309643076885" lon="15.945149973967597"><ele>717.5999999999999</ele><time>2026-04-18T08:44:58.966Z</time></trkpt><trkpt lat="39.62739560204349" lon="15.945165555419099"><ele>714.2</ele><time>2026-04-18T08:44:59.966Z</time></trkpt><trkpt lat="39.627482624871625" lon="15.94517189991672"><ele>710.8</ele><time>2026-04-18T08:45:00.966Z</time></trkpt><trkpt lat="39.62757151068687" lon="15.945163664590458"><ele>707.4000000000001</ele><time>2026-04-18T08:45:01.966Z</time></trkpt><trkpt lat="39.627654724100786" lon="15.945130588153361"><ele>704.0</ele><time>2026-04-18T08:45:02.966Z</time></trkpt><trkpt lat="39.62773960034733" lon="15.94506067143376"><ele>704.2</ele><time>2026-04-18T08:45:03.966Z</time></trkpt><trkpt lat="39.62779522269044" lon="15.944963447691217"><ele>704.4000000000001</ele><time>2026-04-18T08:45:04.966Z</time></trkpt><trkpt lat="39.62782056663443" lon="15.944830203440217"><ele>704.6</ele><time>2026-04-18T08:45:05.966Z</time></trkpt><trkpt lat="39.627822986505514" lon="15.944682490668356"><ele>704.8</ele><time>2026-04-18T08:45:06.966Z</time></trkpt><trkpt lat="39.627819614183416" lon="15.94454583990821"><ele>705.0</ele><time>2026-04-18T08:45:07.966Z</time></trkpt><trkpt lat="39.62782448379736" lon="15.94442736231973"><ele>705.0</ele><time>2026-04-18T08:45:08.966Z</time></trkpt><trkpt lat="39.62785106837276" lon="15.944331320281018"><ele>705.0</ele><time>2026-04-18T08:45:09.966Z</time></trkpt><trkpt lat="39.62790623230116" lon="15.944244398376577"><ele>705.0</ele><time>2026-04-18T08:45:10.966Z</time></trkpt><trkpt lat="39.62799772371502" lon="15.944192421584237"><ele>705.0</ele><time>2026-04-18T08:45:11.966Z</time></trkpt><trkpt lat="39.6280988270373" lon="15.944177167394338"><ele>705.0</ele><time>2026-04-18T08:45:12.966Z</time></trkpt><trkpt lat="39.62818291359468" lon="15.94420942947598"><ele>705.0</ele><time>2026-04-18T08:45:13.966Z</time></trkpt><trkpt lat="39.6282661869494" lon="15.944249483418156"><ele>705.0</ele><time>2026-04-18T08:45:14.966Z</time></trkpt><trkpt lat="39.62836631210507" lon="15.944292606215825"><ele>705.0</ele><time>2026-04-18T08:45:15.966Z</time></trkpt><trkpt lat="39.628468086581336" lon="15.9443422623963"><ele>705.0</ele><time>2026-04-18T08:45:16.966Z</time></trkpt><trkpt lat="39.62857563546706" lon="15.944348498800089"><ele>705.0</ele><time>2026-04-18T08:45:17.966Z</time></trkpt><trkpt lat="39.62868026248708" lon="15.944295866309382"><ele>708.0</ele><time>2026-04-18T08:45:18.966Z</time></trkpt><trkpt lat="39.62876262599376" lon="15.944211431450574"><ele>711.0</ele><time>2026-04-18T08:45:19.966Z</time></trkpt><trkpt lat="39.62882536276207" lon="15.94413359928518"><ele>714.0</ele><time>2026-04-18T08:45:20.966Z</time></trkpt><trkpt lat="39.62893729539293" lon="15.944078199451866"><ele>717.0</ele><time>2026-04-18T08:45:22.966Z</time></trkpt><trkpt lat="39.629022254717405" lon="15.944065907695594"><ele>720.0</ele><time>2026-04-18T08:45:23.966Z</time></trkpt><trkpt lat="39.629117168945406" lon="15.94403475376316"><ele>720.0</ele><time>2026-04-18T08:45:24.966Z</time></trkpt><trkpt lat="39.62919522995443" lon="15.943915259002718"><ele>720.0</ele><time>2026-04-18T08:45:26.966Z</time></trkpt><trkpt lat="39.62920340670676" lon="15.943811319727333"><ele>720.0</ele><time>2026-04-18T08:45:27.966Z</time></trkpt><trkpt lat="39.62918425513936" lon="15.943690761459369"><ele>720.0</ele><time>2026-04-18T08:45:28.966Z</time></trkpt><trkpt lat="39.62913972109813" lon="15.943560597066485"><ele>720.0</ele><time>2026-04-18T08:45:29.966Z</time></trkpt><trkpt lat="39.62909836044702" lon="15.94340831879574"><ele>722.6</ele><time>2026-04-18T08:45:30.966Z</time></trkpt><trkpt lat="39.62907357330957" lon="15.943264306495045"><ele>725.2</ele><time>2026-04-18T08:45:31.966Z</time></trkpt><trkpt lat="39.62906292400676" lon="15.94314472148533"><ele>727.8</ele><time>2026-04-18T08:45:32.966Z</time></trkpt><trkpt lat="39.62905260977176" lon="15.943031667809615"><ele>730.4</ele><time>2026-04-18T08:45:33.966Z</time></trkpt><trkpt lat="39.62904576695203" lon="15.942934491786353"><ele>733.0</ele><time>2026-04-18T08:45:34.966Z</time></trkpt><trkpt lat="39.62905975149632" lon="15.942830013801064"><ele>733.0</ele><time>2026-04-18T08:45:35.966Z</time></trkpt><trkpt lat="39.62910597684018" lon="15.942723507651884"><ele>733.0</ele><time>2026-04-18T08:45:36.966Z</time></trkpt><trkpt lat="39.629188648724" lon="15.942626132860047"><ele>733.0</ele><time>2026-04-18T08:45:37.966Z</time></trkpt><trkpt lat="39.629293848904304" lon="15.942548967932767"><ele>733.0</ele><time>2026-04-18T08:45:38.966Z</time></trkpt><trkpt lat="39.629397258246236" lon="15.942499399653988"><ele>733.0</ele><time>2026-04-18T08:45:39.966Z</time></trkpt><trkpt lat="39.62949250308705" lon="15.942483652226272"><ele>734.4</ele><time>2026-04-18T08:45:40.966Z</time></trkpt><trkpt lat="39.629585558204155" lon="15.94248652702136"><ele>735.8</ele><time>2026-04-18T08:45:41.966Z</time></trkpt><trkpt lat="39.629679209358144" lon="15.94252716931547"><ele>737.2</ele><time>2026-04-18T08:45:42.966Z</time></trkpt><trkpt lat="39.62976636031728" lon="15.94258514294797"><ele>738.6</ele><time>2026-04-18T08:45:43.966Z</time></trkpt><trkpt lat="39.629852097284044" lon="15.942629417239926"><ele>740.0</ele><time>2026-04-18T08:45:44.966Z</time></trkpt><trkpt lat="39.62994230980786" lon="15.942647027681168"><ele>740.0</ele><time>2026-04-18T08:45:45.966Z</time></trkpt><trkpt lat="39.630054363223095" lon="15.9426252409297"><ele>740.0</ele><time>2026-04-18T08:45:46.966Z</time></trkpt><trkpt lat="39.6301596607917" lon="15.942592047311926"><ele>740.0</ele><time>2026-04-18T08:45:47.966Z</time></trkpt><trkpt lat="39.63026163605741" lon="15.942543478796464"><ele>740.0</ele><time>2026-04-18T08:45:48.966Z</time></trkpt><trkpt lat="39.63034713313843" lon="15.942470816223388"><ele>740.0</ele><time>2026-04-18T08:45:49.966Z</time></trkpt><trkpt lat="39.630420768507605" lon="15.942367519618136"><ele>737.8</ele><time>2026-04-18T08:45:50.966Z</time></trkpt><trkpt lat="39.63050069431901" lon="15.942307588530621"><ele>735.6</ele><time>2026-04-18T08:45:51.966Z</time></trkpt><trkpt lat="39.630599257456936" lon="15.942331519948514"><ele>733.4000000000001</ele><time>2026-04-18T08:45:52.966Z</time></trkpt><trkpt lat="39.6307008910564" lon="15.942370621349395"><ele>731.2</ele><time>2026-04-18T08:45:53.966Z</time></trkpt><trkpt lat="39.63080644121487" lon="15.942384918737828"><ele>729.0</ele><time>2026-04-18T08:45:54.966Z</time></trkpt><trkpt lat="39.63089644120357" lon="15.942378444672173"><ele>729.0</ele><time>2026-04-18T08:45:55.966Z</time></trkpt><trkpt lat="39.63098341792889" lon="15.94234622551473"><ele>729.0</ele><time>2026-04-18T08:45:56.966Z</time></trkpt><trkpt lat="39.6310616570658" lon="15.942289362784727"><ele>729.0</ele><time>2026-04-18T08:45:57.966Z</time></trkpt><trkpt lat="39.63112303696387" lon="15.942202139448137"><ele>729.0</ele><time>2026-04-18T08:45:58.966Z</time></trkpt><trkpt lat="39.63116519801769" lon="15.942093888976196"><ele>729.0</ele><time>2026-04-18T08:45:59.966Z</time></trkpt><trkpt lat="39.63119182511512" lon="15.941994203089934"><ele>729.0</ele><time>2026-04-18T08:46:00.966Z</time></trkpt><trkpt lat="39.63126031701484" lon="15.941893359056337"><ele>733.25</ele><time>2026-04-18T08:46:01.966Z</time></trkpt><trkpt lat="39.63129040834652" lon="15.941788694551386"><ele>737.5</ele><time>2026-04-18T08:46:02.966Z</time></trkpt><trkpt lat="39.63114665550128" lon="15.941615251117986"><ele>741.75</ele><time>2026-04-18T08:46:03.966Z</time></trkpt><trkpt lat="39.631049747549504" lon="15.941499978550514"><ele>746.0</ele><time>2026-04-18T08:46:04.966Z</time></trkpt><trkpt lat="39.63094125211607" lon="15.941407331255752"><ele>746.0</ele><time>2026-04-18T08:46:05.966Z</time></trkpt><trkpt lat="39.63082044696368" lon="15.941297421970791"><ele>746.0</ele><time>2026-04-18T08:46:06.966Z</time></trkpt><trkpt lat="39.63071098094559" lon="15.941182827125422"><ele>746.0</ele><time>2026-04-18T08:46:07.965Z</time></trkpt><trkpt lat="39.630608059425526" lon="15.941066743442308"><ele>746.0</ele><time>2026-04-18T08:46:08.965Z</time></trkpt><trkpt lat="39.63050685248517" lon="15.9409565453954"><ele>748.1999999999999</ele><time>2026-04-18T08:46:09.965Z</time></trkpt><trkpt lat="39.63042912744499" lon="15.940853108371948"><ele>750.4</ele><time>2026-04-18T08:46:10.965Z</time></trkpt><trkpt lat="39.630378908278" lon="15.94075413259525"><ele>752.6</ele><time>2026-04-18T08:46:11.965Z</time></trkpt><trkpt lat="39.63032047303747" lon="15.940643718393384"><ele>754.8</ele><time>2026-04-18T08:46:12.965Z</time></trkpt><trkpt lat="39.63028419988424" lon="15.940538830594148"><ele>757.0</ele><time>2026-04-18T08:46:13.965Z</time></trkpt><trkpt lat="39.630239044935266" lon="15.940452917388372"><ele>757.0</ele><time>2026-04-18T08:46:14.965Z</time></trkpt><trkpt lat="39.630169392992286" lon="15.940382009511277"><ele>757.0</ele><time>2026-04-18T08:46:15.965Z</time></trkpt><trkpt lat="39.63006908546537" lon="15.940315058775466"><ele>757.0</ele><time>2026-04-18T08:46:16.965Z</time></trkpt><trkpt lat="39.62996770462127" lon="15.940264839372785"><ele>757.0</ele><time>2026-04-18T08:46:17.965Z</time></trkpt><trkpt lat="39.62986510370546" lon="15.940205759223971"><ele>757.0</ele><time>2026-04-18T08:46:18.965Z</time></trkpt><trkpt lat="39.629757782891026" lon="15.940138344948412"><ele>757.0</ele><time>2026-04-18T08:46:19.965Z</time></trkpt><trkpt lat="39.6296474006539" lon="15.940062299506875"><ele>757.0</ele><time>2026-04-18T08:46:20.965Z</time></trkpt><trkpt lat="39.62953360008721" lon="15.939986551920537"><ele>757.0</ele><time>2026-04-18T08:46:21.965Z</time></trkpt><trkpt lat="39.62941840716173" lon="15.939931428901724"><ele>757.0</ele><time>2026-04-18T08:46:22.965Z</time></trkpt><trkpt lat="39.62932341930721" lon="15.939887850416227"><ele>756.3333333333334</ele><time>2026-04-18T08:46:23.966Z</time></trkpt><trkpt lat="39.62923793638486" lon="15.9398359785881"><ele>755.6666666666667</ele><time>2026-04-18T08:46:24.966Z</time></trkpt><trkpt lat="39.629162099117934" lon="15.939783074889059"><ele>755.0</ele><time>2026-04-18T08:46:25.966Z</time></trkpt><trkpt lat="39.62910779364694" lon="15.939712727451019"><ele>754.3333333333334</ele><time>2026-04-18T08:46:26.966Z</time></trkpt><trkpt lat="39.62909347112695" lon="15.939622204325014"><ele>753.6666666666666</ele><time>2026-04-18T08:46:27.966Z</time></trkpt><trkpt lat="39.62910154207573" lon="15.939520128214367"><ele>753.0</ele><time>2026-04-18T08:46:28.966Z</time></trkpt><trkpt lat="39.629137324640155" lon="15.939406261206283"><ele>753.0</ele><time>2026-04-18T08:46:29.966Z</time></trkpt><trkpt lat="39.62918684043054" lon="15.939299099821161"><ele>753.0</ele><time>2026-04-18T08:46:30.966Z</time></trkpt><trkpt lat="39.62924859221338" lon="15.939198138480961"><ele>753.0</ele><time>2026-04-18T08:46:31.966Z</time></trkpt><trkpt lat="39.62930887579139" lon="15.939114499328323"><ele>753.0</ele><time>2026-04-18T08:46:32.966Z</time></trkpt><trkpt lat="39.62937596976387" lon="15.939022376183761"><ele>753.0</ele><time>2026-04-18T08:46:33.966Z</time></trkpt><trkpt lat="39.62942951307798" lon="15.938917867826742"><ele>752.7142857142858</ele><time>2026-04-18T08:46:34.966Z</time></trkpt><trkpt lat="39.629457886671155" lon="15.93883204606689"><ele>752.4285714285714</ele><time>2026-04-18T08:46:35.966Z</time></trkpt><trkpt lat="39.62944431428108" lon="15.938747584155104"><ele>752.1428571428571</ele><time>2026-04-18T08:46:37.966Z</time></trkpt><trkpt lat="39.62945857322275" lon="15.93864464406903"><ele>751.8571428571429</ele><time>2026-04-18T08:46:40.966Z</time></trkpt><trkpt lat="39.62943449441024" lon="15.938723819601101"><ele>751.5714285714286</ele><time>2026-04-18T08:47:43.965Z</time></trkpt><trkpt lat="39.62949385847341" lon="15.938751182245515"><ele>751.2857142857143</ele><time>2026-04-18T09:03:23.96Z</time></trkpt><trkpt lat="39.62947843075769" lon="15.938668759833385"><ele>751.0</ele><time>2026-04-18T09:17:27.954Z</time></trkpt><trkpt lat="39.62943640442478" lon="15.938583672057876"><ele>751.0</ele><time>2026-04-18T09:17:30.954Z</time></trkpt><trkpt lat="39.629412260627" lon="15.938502610952446"><ele>751.0</ele><time>2026-04-18T09:17:32.954Z</time></trkpt><trkpt lat="39.62937831424353" lon="15.938390177630858"><ele>751.0</ele><time>2026-04-18T09:17:35.954Z</time></trkpt><trkpt lat="39.629306637826694" lon="15.93828754926338"><ele>751.0</ele><time>2026-04-18T09:17:37.954Z</time></trkpt><trkpt lat="39.6292493831646" lon="15.938244486635922"><ele>751.0</ele><time>2026-04-18T09:17:38.954Z</time></trkpt><trkpt lat="39.629202499898454" lon="15.938178431182795"><ele>751.0</ele><time>2026-04-18T09:17:39.954Z</time></trkpt><trkpt lat="39.62913164613591" lon="15.938201459433964"><ele>751.0</ele><time>2026-04-18T09:17:40.954Z</time></trkpt><trkpt lat="39.62903889894649" lon="15.938215418447419"><ele>751.0</ele><time>2026-04-18T09:17:41.953Z</time></trkpt><trkpt lat="39.62896117041276" lon="15.938227039496386"><ele>751.0</ele><time>2026-04-18T09:17:42.953Z</time></trkpt><trkpt lat="39.6288817368663" lon="15.938271221186799"><ele>751.0</ele><time>2026-04-18T09:17:43.953Z</time></trkpt><trkpt lat="39.6288131140263" lon="15.938331212524208"><ele>751.0</ele><time>2026-04-18T09:17:44.953Z</time></trkpt><trkpt lat="39.62874514130531" lon="15.938413579940049"><ele>751.0</ele><time>2026-04-18T09:17:45.953Z</time></trkpt><trkpt lat="39.62867449087624" lon="15.938505455932983"><ele>748.5999999999999</ele><time>2026-04-18T09:17:46.953Z</time></trkpt><trkpt lat="39.62860369871007" lon="15.938601409268605"><ele>746.2</ele><time>2026-04-18T09:17:47.953Z</time></trkpt><trkpt lat="39.62853116395255" lon="15.938701926196861"><ele>743.8</ele><time>2026-04-18T09:17:48.953Z</time></trkpt><trkpt lat="39.628465864103006" lon="15.938805540666799"><ele>741.4000000000001</ele><time>2026-04-18T09:17:49.954Z</time></trkpt><trkpt lat="39.62839906302182" lon="15.938900276233849"><ele>739.0</ele><time>2026-04-18T09:17:50.954Z</time></trkpt><trkpt lat="39.628339593914724" lon="15.938991874229457"><ele>739.0</ele><time>2026-04-18T09:17:51.954Z</time></trkpt><trkpt lat="39.628266694897036" lon="15.939072101069161"><ele>739.0</ele><time>2026-04-18T09:17:52.954Z</time></trkpt><trkpt lat="39.628174585752205" lon="15.93913576201382"><ele>739.0</ele><time>2026-04-18T09:17:53.954Z</time></trkpt><trkpt lat="39.62808416617999" lon="15.939195232997712"><ele>739.0</ele><time>2026-04-18T09:17:54.954Z</time></trkpt><trkpt lat="39.62799381584867" lon="15.939202982792644"><ele>739.0</ele><time>2026-04-18T09:17:55.954Z</time></trkpt><trkpt lat="39.62790751132385" lon="15.939202030185616"><ele>739.0</ele><time>2026-04-18T09:17:56.954Z</time></trkpt><trkpt lat="39.627839581895095" lon="15.939138413800256"><ele>739.0</ele><time>2026-04-18T09:17:57.954Z</time></trkpt><trkpt lat="39.62777368219759" lon="15.939085500335043"><ele>739.0</ele><time>2026-04-18T09:17:58.954Z</time></trkpt><trkpt lat="39.62771591754968" lon="15.939029379028947"><ele>739.0</ele><time>2026-04-18T09:17:59.954Z</time></trkpt><trkpt lat="39.627756950958094" lon="15.938916808027699"><ele>739.0</ele><time>2026-04-18T09:18:02.954Z</time></trkpt><trkpt lat="39.627868773137635" lon="15.938936556254214"><ele>739.0</ele><time>2026-04-18T09:18:04.954Z</time></trkpt><trkpt lat="39.627928106219976" lon="15.938967166385595"><ele>739.0</ele><time>2026-04-18T09:18:05.954Z</time></trkpt><trkpt lat="39.62800021797836" lon="15.93899596480194"><ele>739.0</ele><time>2026-04-18T09:18:06.954Z</time></trkpt><trkpt lat="39.628081581578215" lon="15.93899242536482"><ele>739.0</ele><time>2026-04-18T09:18:07.954Z</time></trkpt><trkpt lat="39.628161922817384" lon="15.938940612687432"><ele>739.0</ele><time>2026-04-18T09:18:08.954Z</time></trkpt><trkpt lat="39.62822907704885" lon="15.938858893352826"><ele>739.0</ele><time>2026-04-18T09:18:09.954Z</time></trkpt><trkpt lat="39.6282650137848" lon="15.93875712536127"><ele>739.0</ele><time>2026-04-18T09:18:10.954Z</time></trkpt><trkpt lat="39.628295389351756" lon="15.938640222386555"><ele>739.0</ele><time>2026-04-18T09:18:11.954Z</time></trkpt><trkpt lat="39.62832461537969" lon="15.938518970718071"><ele>739.0</ele><time>2026-04-18T09:18:12.954Z</time></trkpt><trkpt lat="39.62834826012455" lon="15.93840715798012"><ele>739.0</ele><time>2026-04-18T09:18:13.954Z</time></trkpt><trkpt lat="39.62838386673052" lon="15.938300711898377"><ele>739.0</ele><time>2026-04-18T09:18:14.954Z</time></trkpt><trkpt lat="39.62841711225648" lon="15.938198988198286"><ele>739.0</ele><time>2026-04-18T09:18:15.954Z</time></trkpt><trkpt lat="39.62846556353711" lon="15.938087323401218"><ele>739.2</ele><time>2026-04-18T09:18:16.954Z</time></trkpt><trkpt lat="39.62852724809145" lon="15.937995955230802"><ele>739.4000000000001</ele><time>2026-04-18T09:18:17.954Z</time></trkpt><trkpt lat="39.62860338465632" lon="15.937899807324534"><ele>739.6</ele><time>2026-04-18T09:18:18.954Z</time></trkpt><trkpt lat="39.62868558068901" lon="15.9377929329729"><ele>739.8</ele><time>2026-04-18T09:18:19.954Z</time></trkpt><trkpt lat="39.62876787350136" lon="15.9377029677116"><ele>740.0</ele><time>2026-04-18T09:18:20.954Z</time></trkpt><trkpt lat="39.6288457649252" lon="15.937612226043587"><ele>737.4</ele><time>2026-04-18T09:18:21.954Z</time></trkpt><trkpt lat="39.62891032576283" lon="15.937507548908151"><ele>734.8</ele><time>2026-04-18T09:18:22.954Z</time></trkpt><trkpt lat="39.62893739006152" lon="15.937381100286109"><ele>732.2</ele><time>2026-04-18T09:18:23.954Z</time></trkpt><trkpt lat="39.628939864414285" lon="15.937247096478643"><ele>729.6</ele><time>2026-04-18T09:18:24.954Z</time></trkpt><trkpt lat="39.62893407419956" lon="15.937123755805844"><ele>727.0</ele><time>2026-04-18T09:18:25.954Z</time></trkpt><trkpt lat="39.62895123359707" lon="15.937010343636263"><ele>727.0</ele><time>2026-04-18T09:18:26.953Z</time></trkpt><trkpt lat="39.62899746822014" lon="15.936915104101743"><ele>727.0</ele><time>2026-04-18T09:18:27.953Z</time></trkpt><trkpt lat="39.62906754925714" lon="15.93683585335495"><ele>727.0</ele><time>2026-04-18T09:18:28.953Z</time></trkpt><trkpt lat="39.62915203508618" lon="15.936768519317582"><ele>727.0</ele><time>2026-04-18T09:18:29.953Z</time></trkpt><trkpt lat="39.62922691533781" lon="15.936680277201628"><ele>727.0</ele><time>2026-04-18T09:18:30.952Z</time></trkpt><trkpt lat="39.62927401925293" lon="15.936585454734383"><ele>723.0</ele><time>2026-04-18T09:18:31.952Z</time></trkpt><trkpt lat="39.62929013682808" lon="15.936448955603485"><ele>719.0</ele><time>2026-04-18T09:18:32.952Z</time></trkpt><trkpt lat="39.62929349641283" lon="15.936305566920268"><ele>715.0</ele><time>2026-04-18T09:18:33.952Z</time></trkpt><trkpt lat="39.629284226336935" lon="15.936151704633103"><ele>711.0</ele><time>2026-04-18T09:18:34.952Z</time></trkpt><trkpt lat="39.62928777057434" lon="15.935983079469361"><ele>709.1999999999999</ele><time>2026-04-18T09:18:35.952Z</time></trkpt><trkpt lat="39.62928432024374" lon="15.935863929419318"><ele>707.4</ele><time>2026-04-18T09:18:36.952Z</time></trkpt><trkpt lat="39.6292690814988" lon="15.935725376901992"><ele>705.6</ele><time>2026-04-18T09:18:37.952Z</time></trkpt><trkpt lat="39.62925945925021" lon="15.935591332661078"><ele>703.8</ele><time>2026-04-18T09:18:38.952Z</time></trkpt><trkpt lat="39.629226285098724" lon="15.935461871620408"><ele>702.0</ele><time>2026-04-18T09:18:39.952Z</time></trkpt><trkpt lat="39.629157708134564" lon="15.93534634939051"><ele>702.0</ele><time>2026-04-18T09:18:40.952Z</time></trkpt><trkpt lat="39.62907860991287" lon="15.935223821226915"><ele>702.0</ele><time>2026-04-18T09:18:41.952Z</time></trkpt><trkpt lat="39.62900459234325" lon="15.935118143165822"><ele>702.0</ele><time>2026-04-18T09:18:42.952Z</time></trkpt><trkpt lat="39.62893107183909" lon="15.935016607756872"><ele>702.0</ele><time>2026-04-18T09:18:43.952Z</time></trkpt><trkpt lat="39.628859487520764" lon="15.93492185409284"><ele>702.0</ele><time>2026-04-18T09:18:44.952Z</time></trkpt><trkpt lat="39.628784586403754" lon="15.934835056746474"><ele>703.6666666666666</ele><time>2026-04-18T09:18:45.952Z</time></trkpt><trkpt lat="39.62870046770715" lon="15.93478711251194"><ele>705.3333333333334</ele><time>2026-04-18T09:18:46.952Z</time></trkpt><trkpt lat="39.62860459806767" lon="15.934780575480206"><ele>707.0</ele><time>2026-04-18T09:18:47.952Z</time></trkpt><trkpt lat="39.62851081629184" lon="15.934835379905751"><ele>708.6666666666667</ele><time>2026-04-18T09:18:48.952Z</time></trkpt><trkpt lat="39.62843945303215" lon="15.934894974356466"><ele>710.3333333333334</ele><time>2026-04-18T09:18:49.952Z</time></trkpt><trkpt lat="39.62837581173797" lon="15.93493675325211"><ele>712.0</ele><time>2026-04-18T09:18:50.952Z</time></trkpt><trkpt lat="39.62827634169467" lon="15.93491287869036"><ele>706.6</ele><time>2026-04-18T09:18:52.952Z</time></trkpt><trkpt lat="39.628303436060555" lon="15.934748718004075"><ele>701.2</ele><time>2026-04-18T09:18:54.952Z</time></trkpt><trkpt lat="39.62837713844268" lon="15.934667668543355"><ele>695.8</ele><time>2026-04-18T09:18:55.952Z</time></trkpt><trkpt lat="39.628453537726536" lon="15.934572074477131"><ele>690.4</ele><time>2026-04-18T09:18:56.952Z</time></trkpt><trkpt lat="39.62851774336348" lon="15.934449682085324"><ele>685.0</ele><time>2026-04-18T09:18:57.952Z</time></trkpt><trkpt lat="39.62856776044682" lon="15.934325936837736"><ele>685.0</ele><time>2026-04-18T09:18:58.952Z</time></trkpt><trkpt lat="39.628599414055756" lon="15.934204783871799"><ele>685.0</ele><time>2026-04-18T09:18:59.952Z</time></trkpt><trkpt lat="39.62860244726513" lon="15.934081235313592"><ele>685.0</ele><time>2026-04-18T09:19:00.952Z</time></trkpt><trkpt lat="39.62856959647803" lon="15.933955459640698"><ele>685.0</ele><time>2026-04-18T09:19:01.952Z</time></trkpt><trkpt lat="39.628518981867096" lon="15.933838399028682"><ele>685.0</ele><time>2026-04-18T09:19:02.952Z</time></trkpt><trkpt lat="39.62845873917288" lon="15.933721151561835"><ele>685.0</ele><time>2026-04-18T09:19:03.952Z</time></trkpt><trkpt lat="39.62840506880304" lon="15.933605644421727"><ele>685.0</ele><time>2026-04-18T09:19:04.952Z</time></trkpt><trkpt lat="39.62834079256369" lon="15.933513876317729"><ele>685.0</ele><time>2026-04-18T09:19:05.952Z</time></trkpt><trkpt lat="39.62826725805068" lon="15.933439657130773"><ele>685.0</ele><time>2026-04-18T09:19:06.952Z</time></trkpt><trkpt lat="39.628196762054436" lon="15.933362038872621"><ele>685.0</ele><time>2026-04-18T09:19:07.952Z</time></trkpt><trkpt lat="39.62817988026282" lon="15.933241557937547"><ele>685.0</ele><time>2026-04-18T09:19:08.952Z</time></trkpt><trkpt lat="39.62817898526859" lon="15.933113925854405"><ele>685.0</ele><time>2026-04-18T09:19:09.952Z</time></trkpt><trkpt lat="39.628159449142885" lon="15.932996702631948"><ele>685.0</ele><time>2026-04-18T09:19:10.952Z</time></trkpt><trkpt lat="39.62815660370191" lon="15.932910925586688"><ele>685.0</ele><time>2026-04-18T09:19:11.952Z</time></trkpt><trkpt lat="39.62811803643431" lon="15.932795337392491"><ele>685.0</ele><time>2026-04-18T09:19:13.952Z</time></trkpt><trkpt lat="39.628061756790565" lon="15.932679098764197"><ele>685.0</ele><time>2026-04-18T09:19:16.952Z</time></trkpt><trkpt lat="39.628010888093726" lon="15.932624832689449"><ele>685.0</ele><time>2026-04-18T09:19:17.952Z</time></trkpt><trkpt lat="39.62793923860643" lon="15.932579391702502"><ele>685.0</ele><time>2026-04-18T09:19:18.952Z</time></trkpt><trkpt lat="39.627854452414894" lon="15.932560728916236"><ele>685.0</ele><time>2026-04-18T09:19:19.952Z</time></trkpt><trkpt lat="39.627757794593926" lon="15.932583704223305"><ele>685.0</ele><time>2026-04-18T09:19:20.952Z</time></trkpt><trkpt lat="39.62766041678983" lon="15.93265263114693"><ele>685.0</ele><time>2026-04-18T09:19:21.952Z</time></trkpt><trkpt lat="39.6275748903677" lon="15.932736142770757"><ele>682.0</ele><time>2026-04-18T09:19:22.952Z</time></trkpt><trkpt lat="39.627484723449" lon="15.932817031226655"><ele>679.0</ele><time>2026-04-18T09:19:23.952Z</time></trkpt><trkpt lat="39.6273902469359" lon="15.93290384434368"><ele>676.0</ele><time>2026-04-18T09:19:24.952Z</time></trkpt><trkpt lat="39.627299629682526" lon="15.932989858244614"><ele>673.0</ele><time>2026-04-18T09:19:25.952Z</time></trkpt><trkpt lat="39.627217295849434" lon="15.933068071487"><ele>670.0</ele><time>2026-04-18T09:19:26.952Z</time></trkpt><trkpt lat="39.62714170965038" lon="15.933140721216883"><ele>670.0</ele><time>2026-04-18T09:19:27.952Z</time></trkpt><trkpt lat="39.627062915544855" lon="15.933217553987614"><ele>670.0</ele><time>2026-04-18T09:19:28.952Z</time></trkpt><trkpt lat="39.626979661306954" lon="15.93329873593742"><ele>670.0</ele><time>2026-04-18T09:19:29.952Z</time></trkpt><trkpt lat="39.62689820636038" lon="15.93337604202681"><ele>670.0</ele><time>2026-04-18T09:19:30.952Z</time></trkpt><trkpt lat="39.626817073854056" lon="15.933432440866587"><ele>670.0</ele><time>2026-04-18T09:19:31.952Z</time></trkpt><trkpt lat="39.62673114281832" lon="15.93346286036243"><ele>670.0</ele><time>2026-04-18T09:19:32.952Z</time></trkpt><trkpt lat="39.62663469070395" lon="15.933460454409458"><ele>670.0</ele><time>2026-04-18T09:19:33.952Z</time></trkpt><trkpt lat="39.62653433269723" lon="15.933447546052491"><ele>670.0</ele><time>2026-04-18T09:19:34.952Z</time></trkpt><trkpt lat="39.62645188724667" lon="15.93340917170415"><ele>670.0</ele><time>2026-04-18T09:19:35.952Z</time></trkpt><trkpt lat="39.62637842862003" lon="15.933370088618968"><ele>670.0</ele><time>2026-04-18T09:19:36.952Z</time></trkpt><trkpt lat="39.62634310980096" lon="15.933280127194074"><ele>670.0</ele><time>2026-04-18T09:19:37.952Z</time></trkpt><trkpt lat="39.62636214277353" lon="15.933173981402115"><ele>670.0</ele><time>2026-04-18T09:19:38.952Z</time></trkpt><trkpt lat="39.626418658722415" lon="15.933078898987239"><ele>670.0</ele><time>2026-04-18T09:19:39.952Z</time></trkpt><trkpt lat="39.62650027634668" lon="15.932999059176023"><ele>670.0</ele><time>2026-04-18T09:19:40.952Z</time></trkpt><trkpt lat="39.62660338110176" lon="15.932947234065606"><ele>670.0</ele><time>2026-04-18T09:19:41.952Z</time></trkpt><trkpt lat="39.62669692818996" lon="15.932907143001204"><ele>670.0</ele><time>2026-04-18T09:19:42.952Z</time></trkpt><trkpt lat="39.62675769433203" lon="15.932846584594696"><ele>670.0</ele><time>2026-04-18T09:19:43.952Z</time></trkpt><trkpt lat="39.62677631879882" lon="15.932742708897553"><ele>670.0</ele><time>2026-04-18T09:19:44.952Z</time></trkpt><trkpt lat="39.62674812459186" lon="15.932627474100787"><ele>670.0</ele><time>2026-04-18T09:19:45.952Z</time></trkpt><trkpt lat="39.62669482096165" lon="15.9325198058775"><ele>670.0</ele><time>2026-04-18T09:19:46.952Z</time></trkpt><trkpt lat="39.62664985484005" lon="15.932428553617903"><ele>670.0</ele><time>2026-04-18T09:19:47.952Z</time></trkpt><trkpt lat="39.626647840994856" lon="15.932335647127278"><ele>670.0</ele><time>2026-04-18T09:19:48.952Z</time></trkpt><trkpt lat="39.62669604253513" lon="15.93225035763524"><ele>670.4</ele><time>2026-04-18T09:19:49.952Z</time></trkpt><trkpt lat="39.62677039115991" lon="15.932165453965359"><ele>670.8</ele><time>2026-04-18T09:19:50.952Z</time></trkpt><trkpt lat="39.62684641691696" lon="15.932076098283822"><ele>671.2</ele><time>2026-04-18T09:19:51.952Z</time></trkpt><trkpt lat="39.62689141265074" lon="15.931975727034184"><ele>671.6</ele><time>2026-04-18T09:19:52.952Z</time></trkpt><trkpt lat="39.62690510459302" lon="15.93185072895262"><ele>672.0</ele><time>2026-04-18T09:19:53.952Z</time></trkpt><trkpt lat="39.62690811055814" lon="15.931713199461468"><ele>670.2</ele><time>2026-04-18T09:19:54.952Z</time></trkpt><trkpt lat="39.62690429490318" lon="15.931573034481593"><ele>668.4000000000001</ele><time>2026-04-18T09:19:55.952Z</time></trkpt><trkpt lat="39.62690671713858" lon="15.93144851406678"><ele>666.5999999999999</ele><time>2026-04-18T09:19:56.952Z</time></trkpt><trkpt lat="39.626910841518544" lon="15.931325258738788"><ele>664.8</ele><time>2026-04-18T09:19:57.952Z</time></trkpt><trkpt lat="39.626914901965" lon="15.931213615636183"><ele>663.0</ele><time>2026-04-18T09:19:58.952Z</time></trkpt><trkpt lat="39.62689799200593" lon="15.93111589261537"><ele>663.0</ele><time>2026-04-18T09:19:59.952Z</time></trkpt><trkpt lat="39.62684733122188" lon="15.93103795458449"><ele>663.0</ele><time>2026-04-18T09:20:00.952Z</time></trkpt><trkpt lat="39.626772356613394" lon="15.93100618209561"><ele>663.0</ele><time>2026-04-18T09:20:01.952Z</time></trkpt><trkpt lat="39.626679278435894" lon="15.931015780906336"><ele>663.0</ele><time>2026-04-18T09:20:02.952Z</time></trkpt><trkpt lat="39.6265851317733" lon="15.931015865936946"><ele>663.0</ele><time>2026-04-18T09:20:03.952Z</time></trkpt><trkpt lat="39.62648713483467" lon="15.930994199757187"><ele>663.0</ele><time>2026-04-18T09:20:04.952Z</time></trkpt><trkpt lat="39.62638066923058" lon="15.930958224915202"><ele>663.0</ele><time>2026-04-18T09:20:05.952Z</time></trkpt><trkpt lat="39.626284700453965" lon="15.930915482258769"><ele>663.0</ele><time>2026-04-18T09:20:06.952Z</time></trkpt><trkpt lat="39.62618907619183" lon="15.930854000619997"><ele>663.0</ele><time>2026-04-18T09:20:07.952Z</time></trkpt><trkpt lat="39.626103962835316" lon="15.930757171254545"><ele>663.0</ele><time>2026-04-18T09:20:08.952Z</time></trkpt><trkpt lat="39.62602254529476" lon="15.930634454522483"><ele>663.0</ele><time>2026-04-18T09:20:09.952Z</time></trkpt><trkpt lat="39.625948851552586" lon="15.930504413668329"><ele>662.5</ele><time>2026-04-18T09:20:10.952Z</time></trkpt><trkpt lat="39.62589212297501" lon="15.93036060310908"><ele>662.0</ele><time>2026-04-18T09:20:11.952Z</time></trkpt><trkpt lat="39.62582186824026" lon="15.930212915444681"><ele>661.5</ele><time>2026-04-18T09:20:12.952Z</time></trkpt><trkpt lat="39.62576505655144" lon="15.93005916744578"><ele>661.0</ele><time>2026-04-18T09:20:13.952Z</time></trkpt><trkpt lat="39.62571068600298" lon="15.929908574768497"><ele>661.0</ele><time>2026-04-18T09:20:14.952Z</time></trkpt><trkpt lat="39.625657595392425" lon="15.929764055654688"><ele>661.0</ele><time>2026-04-18T09:20:15.952Z</time></trkpt><trkpt lat="39.62560715907034" lon="15.929624573230816"><ele>661.0</ele><time>2026-04-18T09:20:16.952Z</time></trkpt><trkpt lat="39.62555626364087" lon="15.929489980327187"><ele>661.0</ele><time>2026-04-18T09:20:17.952Z</time></trkpt><trkpt lat="39.62550722543969" lon="15.929358785960924"><ele>661.0</ele><time>2026-04-18T09:20:18.952Z</time></trkpt><trkpt lat="39.625457845552134" lon="15.929232625414635"><ele>661.0</ele><time>2026-04-18T09:20:19.952Z</time></trkpt><trkpt lat="39.6254147079878" lon="15.929104682047884"><ele>661.0</ele><time>2026-04-18T09:20:20.952Z</time></trkpt><trkpt lat="39.6253747583499" lon="15.928983595564555"><ele>661.0</ele><time>2026-04-18T09:20:21.952Z</time></trkpt><trkpt lat="39.62534810217393" lon="15.928870136512723"><ele>661.0</ele><time>2026-04-18T09:20:22.952Z</time></trkpt><trkpt lat="39.625353926754904" lon="15.928755312668876"><ele>661.5</ele><time>2026-04-18T09:20:23.952Z</time></trkpt><trkpt lat="39.62539528120041" lon="15.92864974581159"><ele>662.0</ele><time>2026-04-18T09:20:24.952Z</time></trkpt><trkpt lat="39.625451199281045" lon="15.928546489229355"><ele>662.5</ele><time>2026-04-18T09:20:25.952Z</time></trkpt><trkpt lat="39.62550241748803" lon="15.928446808338187"><ele>663.0</ele><time>2026-04-18T09:20:26.952Z</time></trkpt><trkpt lat="39.62554495732242" lon="15.928351192305923"><ele>663.5</ele><time>2026-04-18T09:20:27.952Z</time></trkpt><trkpt lat="39.62560153384603" lon="15.928288317995245"><ele>664.0</ele><time>2026-04-18T09:20:28.952Z</time></trkpt><trkpt lat="39.62567393666178" lon="15.92827581275406"><ele>661.0</ele><time>2026-04-18T09:20:29.952Z</time></trkpt><trkpt lat="39.62575553736861" lon="15.928301207583244"><ele>658.0</ele><time>2026-04-18T09:20:30.952Z</time></trkpt><trkpt lat="39.62583660806235" lon="15.928337361950936"><ele>655.0</ele><time>2026-04-18T09:20:31.952Z</time></trkpt><trkpt lat="39.62591977807113" lon="15.92835629575563"><ele>652.0</ele><time>2026-04-18T09:20:32.952Z</time></trkpt><trkpt lat="39.62599849634271" lon="15.928353483488696"><ele>649.0</ele><time>2026-04-18T09:20:33.952Z</time></trkpt><trkpt lat="39.62606268889905" lon="15.928328965512032"><ele>646.0</ele><time>2026-04-18T09:20:34.952Z</time></trkpt><trkpt lat="39.62611107135796" lon="15.928263180897849"><ele>646.0</ele><time>2026-04-18T09:20:35.952Z</time></trkpt><trkpt lat="39.626125676083156" lon="15.92816572262115"><ele>646.0</ele><time>2026-04-18T09:20:36.952Z</time></trkpt><trkpt lat="39.62610058055805" lon="15.928057433809895"><ele>646.0</ele><time>2026-04-18T09:20:37.952Z</time></trkpt><trkpt lat="39.62605107047923" lon="15.927952138089523"><ele>646.0</ele><time>2026-04-18T09:20:38.952Z</time></trkpt><trkpt lat="39.625996977845915" lon="15.92784923596375"><ele>646.0</ele><time>2026-04-18T09:20:39.952Z</time></trkpt><trkpt lat="39.62594243297122" lon="15.927736010175943"><ele>646.0</ele><time>2026-04-18T09:20:40.952Z</time></trkpt><trkpt lat="39.62589385480307" lon="15.927611710084568"><ele>646.0</ele><time>2026-04-18T09:20:41.952Z</time></trkpt><trkpt lat="39.62586380315916" lon="15.927492212699265"><ele>646.0</ele><time>2026-04-18T09:20:42.952Z</time></trkpt><trkpt lat="39.62585205109612" lon="15.927372295925847"><ele>646.0</ele><time>2026-04-18T09:20:43.952Z</time></trkpt><trkpt lat="39.62583992190512" lon="15.927259282240097"><ele>646.0</ele><time>2026-04-18T09:20:44.952Z</time></trkpt><trkpt lat="39.62579141260484" lon="15.927172719844469"><ele>645.0</ele><time>2026-04-18T09:20:45.952Z</time></trkpt><trkpt lat="39.625719125652395" lon="15.927100887856572"><ele>644.0</ele><time>2026-04-18T09:20:46.952Z</time></trkpt><trkpt lat="39.62560204906855" lon="15.92712298347322"><ele>643.0</ele><time>2026-04-18T09:20:47.952Z</time></trkpt><trkpt lat="39.6254972690712" lon="15.927123399982666"><ele>642.0</ele><time>2026-04-18T09:20:48.952Z</time></trkpt><trkpt lat="39.62538724050292" lon="15.927127119031024"><ele>641.0</ele><time>2026-04-18T09:20:49.952Z</time></trkpt><trkpt lat="39.625271235548915" lon="15.927128624111655"><ele>637.0</ele><time>2026-04-18T09:20:50.952Z</time></trkpt><trkpt lat="39.62515198110711" lon="15.927125550702614"><ele>633.0</ele><time>2026-04-18T09:20:51.952Z</time></trkpt><trkpt lat="39.625027116979446" lon="15.927125713932504"><ele>629.0</ele><time>2026-04-18T09:20:52.952Z</time></trkpt><trkpt lat="39.62489812184665" lon="15.927108135965385"><ele>625.0</ele><time>2026-04-18T09:20:53.952Z</time></trkpt><trkpt lat="39.62476929600475" lon="15.927107286131662"><ele>625.0</ele><time>2026-04-18T09:20:54.952Z</time></trkpt><trkpt lat="39.624646791980176" lon="15.92710559165871"><ele>625.0</ele><time>2026-04-18T09:20:55.952Z</time></trkpt><trkpt lat="39.62453434628157" lon="15.927107250812233"><ele>625.0</ele><time>2026-04-18T09:20:56.952Z</time></trkpt><trkpt lat="39.624428724117664" lon="15.927108886458624"><ele>625.0</ele><time>2026-04-18T09:20:57.952Z</time></trkpt><trkpt lat="39.62432655393871" lon="15.927112511832053"><ele>625.0</ele><time>2026-04-18T09:20:58.952Z</time></trkpt><trkpt lat="39.62423076690296" lon="15.927125981073658"><ele>623.8333333333334</ele><time>2026-04-18T09:20:59.952Z</time></trkpt><trkpt lat="39.62413962799433" lon="15.927142750893294"><ele>622.6666666666667</ele><time>2026-04-18T09:21:00.952Z</time></trkpt><trkpt lat="39.62405016700452" lon="15.927159211998998"><ele>621.5</ele><time>2026-04-18T09:21:01.952Z</time></trkpt><trkpt lat="39.62396354151968" lon="15.927174182551063"><ele>620.3333333333334</ele><time>2026-04-18T09:21:02.952Z</time></trkpt><trkpt lat="39.62388418848454" lon="15.927181954265059"><ele>619.1666666666666</ele><time>2026-04-18T09:21:03.952Z</time></trkpt><trkpt lat="39.623807445454894" lon="15.927177613293722"><ele>618.0</ele><time>2026-04-18T09:21:04.951Z</time></trkpt><trkpt lat="39.62374905151722" lon="15.927108517567707"><ele>618.0</ele><time>2026-04-18T09:21:05.951Z</time></trkpt><trkpt lat="39.6237367861999" lon="15.927003424988845"><ele>618.0</ele><time>2026-04-18T09:21:06.951Z</time></trkpt><trkpt lat="39.62370979062292" lon="15.926893192453248"><ele>618.0</ele><time>2026-04-18T09:21:07.951Z</time></trkpt><trkpt lat="39.623679170090234" lon="15.926768447822822"><ele>618.0</ele><time>2026-04-18T09:21:08.951Z</time></trkpt><trkpt lat="39.62364765777048" lon="15.926641933794384"><ele>618.0</ele><time>2026-04-18T09:21:09.951Z</time></trkpt><trkpt lat="39.62361495485648" lon="15.926511537105299"><ele>619.1999999999999</ele><time>2026-04-18T09:21:10.951Z</time></trkpt><trkpt lat="39.62357913226457" lon="15.926369428125495"><ele>620.4</ele><time>2026-04-18T09:21:11.951Z</time></trkpt><trkpt lat="39.623542644651906" lon="15.926224680997008"><ele>621.5999999999999</ele><time>2026-04-18T09:21:12.951Z</time></trkpt><trkpt lat="39.623512683900174" lon="15.92609786622242"><ele>622.8</ele><time>2026-04-18T09:21:13.951Z</time></trkpt><trkpt lat="39.6234834279116" lon="15.92597712955946"><ele>624.0</ele><time>2026-04-18T09:21:14.951Z</time></trkpt><trkpt lat="39.623440793951396" lon="15.925866999150369"><ele>625.8</ele><time>2026-04-18T09:21:15.951Z</time></trkpt><trkpt lat="39.6233669589411" lon="15.925783011302508"><ele>627.5999999999999</ele><time>2026-04-18T09:21:16.951Z</time></trkpt><trkpt lat="39.623287895868955" lon="15.925728843370372"><ele>629.4</ele><time>2026-04-18T09:21:17.951Z</time></trkpt><trkpt lat="39.623228973724586" lon="15.925642097382976"><ele>631.1999999999999</ele><time>2026-04-18T09:21:18.951Z</time></trkpt><trkpt lat="39.623173063980566" lon="15.925553799060593"><ele>633.0</ele><time>2026-04-18T09:21:19.951Z</time></trkpt><trkpt lat="39.62314847684014" lon="15.925446588136252"><ele>633.0</ele><time>2026-04-18T09:21:20.951Z</time></trkpt><trkpt lat="39.623117157402255" lon="15.925344974801707"><ele>633.0</ele><time>2026-04-18T09:21:21.951Z</time></trkpt><trkpt lat="39.62308147709324" lon="15.925230755970617"><ele>633.0</ele><time>2026-04-18T09:21:22.951Z</time></trkpt><trkpt lat="39.62303079251054" lon="15.92510582945301"><ele>633.0</ele><time>2026-04-18T09:21:23.951Z</time></trkpt><trkpt lat="39.62295275108863" lon="15.92500108927033"><ele>633.0</ele><time>2026-04-18T09:21:24.951Z</time></trkpt><trkpt lat="39.62287317109312" lon="15.924905710966783"><ele>629.0</ele><time>2026-04-18T09:21:25.951Z</time></trkpt><trkpt lat="39.62280481916564" lon="15.924801891205014"><ele>625.0</ele><time>2026-04-18T09:21:26.951Z</time></trkpt><trkpt lat="39.622736373351835" lon="15.924717127693697"><ele>621.0</ele><time>2026-04-18T09:21:27.951Z</time></trkpt><trkpt lat="39.62267989603145" lon="15.92462615185316"><ele>617.0</ele><time>2026-04-18T09:21:28.951Z</time></trkpt><trkpt lat="39.622625847444766" lon="15.924541078342576"><ele>613.0</ele><time>2026-04-18T09:21:29.951Z</time></trkpt><trkpt lat="39.62261373183241" lon="15.924428998374927"><ele>613.0</ele><time>2026-04-18T09:21:30.951Z</time></trkpt><trkpt lat="39.6226050106747" lon="15.924327172174147"><ele>613.0</ele><time>2026-04-18T09:21:31.951Z</time></trkpt><trkpt lat="39.62257286964428" lon="15.924232858413118"><ele>613.0</ele><time>2026-04-18T09:21:32.951Z</time></trkpt><trkpt lat="39.62251554560857" lon="15.924165288084353"><ele>613.0</ele><time>2026-04-18T09:21:33.951Z</time></trkpt><trkpt lat="39.622443522173995" lon="15.924122584550318"><ele>613.0</ele><time>2026-04-18T09:21:34.951Z</time></trkpt><trkpt lat="39.62235898841124" lon="15.924086909691832"><ele>613.0</ele><time>2026-04-18T09:21:35.951Z</time></trkpt><trkpt lat="39.62226091826192" lon="15.924051958070642"><ele>616.4</ele><time>2026-04-18T09:21:36.951Z</time></trkpt><trkpt lat="39.622167227302484" lon="15.923998694340874"><ele>619.8</ele><time>2026-04-18T09:21:37.951Z</time></trkpt><trkpt lat="39.62209497656227" lon="15.923901260597297"><ele>623.2</ele><time>2026-04-18T09:21:38.951Z</time></trkpt><trkpt lat="39.62202515848974" lon="15.923794668065975"><ele>626.6</ele><time>2026-04-18T09:21:39.951Z</time></trkpt><trkpt lat="39.62196190085443" lon="15.923664680957584"><ele>630.0</ele><time>2026-04-18T09:21:40.951Z</time></trkpt><trkpt lat="39.621912654381994" lon="15.923530791891666"><ele>628.0</ele><time>2026-04-18T09:21:41.951Z</time></trkpt><trkpt lat="39.621833626812105" lon="15.92342861845925"><ele>626.0</ele><time>2026-04-18T09:21:42.951Z</time></trkpt><trkpt lat="39.62175388573126" lon="15.923328935265026"><ele>624.0</ele><time>2026-04-18T09:21:43.951Z</time></trkpt><trkpt lat="39.62166306061375" lon="15.923248366648359"><ele>622.0</ele><time>2026-04-18T09:21:44.951Z</time></trkpt><trkpt lat="39.621572447883494" lon="15.923174042803101"><ele>620.0</ele><time>2026-04-18T09:21:45.951Z</time></trkpt><trkpt lat="39.62146327420815" lon="15.923142518789513"><ele>620.0</ele><time>2026-04-18T09:21:46.951Z</time></trkpt><trkpt lat="39.62134228724721" lon="15.923132461890004"><ele>620.0</ele><time>2026-04-18T09:21:47.951Z</time></trkpt><trkpt lat="39.6212216433064" lon="15.923107405937031"><ele>620.0</ele><time>2026-04-18T09:21:48.951Z</time></trkpt><trkpt lat="39.621110640907034" lon="15.923090974181514"><ele>620.0</ele><time>2026-04-18T09:21:49.951Z</time></trkpt><trkpt lat="39.62101477497798" lon="15.92307016573064"><ele>613.2</ele><time>2026-04-18T09:21:50.951Z</time></trkpt><trkpt lat="39.62094290309421" lon="15.923017841394742"><ele>606.4</ele><time>2026-04-18T09:21:51.951Z</time></trkpt><trkpt lat="39.6209037283566" lon="15.922927901383302"><ele>599.6</ele><time>2026-04-18T09:21:52.951Z</time></trkpt><trkpt lat="39.62087795637268" lon="15.922813628667676"><ele>592.8</ele><time>2026-04-18T09:21:53.951Z</time></trkpt><trkpt lat="39.62082830322398" lon="15.922698205528572"><ele>586.0</ele><time>2026-04-18T09:21:54.951Z</time></trkpt><trkpt lat="39.62077348021513" lon="15.922587814526338"><ele>594.0</ele><time>2026-04-18T09:21:55.951Z</time></trkpt><trkpt lat="39.620703493201916" lon="15.922481363878362"><ele>602.0</ele><time>2026-04-18T09:21:56.951Z</time></trkpt><trkpt lat="39.62066730275512" lon="15.922348997288267"><ele>610.0</ele><time>2026-04-18T09:21:57.951Z</time></trkpt><trkpt lat="39.62062611953622" lon="15.922209607070942"><ele>618.0</ele><time>2026-04-18T09:21:58.951Z</time></trkpt><trkpt lat="39.620616652783795" lon="15.922052993237399"><ele>618.0</ele><time>2026-04-18T09:21:59.951Z</time></trkpt><trkpt lat="39.62060468987073" lon="15.921903421070013"><ele>618.0</ele><time>2026-04-18T09:22:00.952Z</time></trkpt><trkpt lat="39.62059014251454" lon="15.921754471584537"><ele>618.0</ele><time>2026-04-18T09:22:01.952Z</time></trkpt><trkpt lat="39.62055968674502" lon="15.921615241917268"><ele>618.0</ele><time>2026-04-18T09:22:02.951Z</time></trkpt><trkpt lat="39.62055067994728" lon="15.921516107277691"><ele>618.0</ele><time>2026-04-18T09:22:03.951Z</time></trkpt><trkpt lat="39.62052947301607" lon="15.921433515563596"><ele>618.0</ele><time>2026-04-18T09:22:04.951Z</time></trkpt><trkpt lat="39.62049240000836" lon="15.921353990381572"><ele>618.0</ele><time>2026-04-18T09:22:05.951Z</time></trkpt><trkpt lat="39.62041195373976" lon="15.92128400898803"><ele>618.0</ele><time>2026-04-18T09:22:06.951Z</time></trkpt><trkpt lat="39.62027565063967" lon="15.921325954116519"><ele>618.0</ele><time>2026-04-18T09:22:07.951Z</time></trkpt><trkpt lat="39.62016875775772" lon="15.921356597226074"><ele>618.0</ele><time>2026-04-18T09:22:08.951Z</time></trkpt><trkpt lat="39.62006544522303" lon="15.92139228265267"><ele>618.0</ele><time>2026-04-18T09:22:09.951Z</time></trkpt><trkpt lat="39.61995459122073" lon="15.921406969085613"><ele>618.0</ele><time>2026-04-18T09:22:10.951Z</time></trkpt><trkpt lat="39.61982720472115" lon="15.921479846995004"><ele>618.0</ele><time>2026-04-18T09:22:11.951Z</time></trkpt><trkpt lat="39.61973069290514" lon="15.921588504278311"><ele>618.0</ele><time>2026-04-18T09:22:12.951Z</time></trkpt><trkpt lat="39.61964337505991" lon="15.921705714447207"><ele>611.25</ele><time>2026-04-18T09:22:13.951Z</time></trkpt><trkpt lat="39.61955526104937" lon="15.921805337862619"><ele>604.5</ele><time>2026-04-18T09:22:14.951Z</time></trkpt><trkpt lat="39.61946230640406" lon="15.921877381785528"><ele>597.75</ele><time>2026-04-18T09:22:15.951Z</time></trkpt><trkpt lat="39.61934573276658" lon="15.92186723402833"><ele>591.0</ele><time>2026-04-18T09:22:16.951Z</time></trkpt><trkpt lat="39.61922983636657" lon="15.921835655697587"><ele>591.0</ele><time>2026-04-18T09:22:17.951Z</time></trkpt><trkpt lat="39.619121545208245" lon="15.921849317300666"><ele>591.0</ele><time>2026-04-18T09:22:18.951Z</time></trkpt><trkpt lat="39.61904922915182" lon="15.92192868241252"><ele>591.0</ele><time>2026-04-18T09:22:19.951Z</time></trkpt><trkpt lat="39.619005999342555" lon="15.922066813340276"><ele>591.0</ele><time>2026-04-18T09:22:20.951Z</time></trkpt><trkpt lat="39.618945754315945" lon="15.922199385750824"><ele>591.0</ele><time>2026-04-18T09:22:21.951Z</time></trkpt><trkpt lat="39.61883518732177" lon="15.922237517936075"><ele>591.0</ele><time>2026-04-18T09:22:22.951Z</time></trkpt><trkpt lat="39.61869832522278" lon="15.92225681794448"><ele>591.0</ele><time>2026-04-18T09:22:23.951Z</time></trkpt><trkpt lat="39.61857552932724" lon="15.92231210019438"><ele>591.0</ele><time>2026-04-18T09:22:24.951Z</time></trkpt><trkpt lat="39.618465246519584" lon="15.922326762908437"><ele>591.0</ele><time>2026-04-18T09:22:25.951Z</time></trkpt><trkpt lat="39.61837269449483" lon="15.922299863085023"><ele>598.5</ele><time>2026-04-18T09:22:26.951Z</time></trkpt><trkpt lat="39.61818220008707" lon="15.922294615984423"><ele>606.0</ele><time>2026-04-18T09:22:27.951Z</time></trkpt><trkpt lat="39.61811413037221" lon="15.922305391363702"><ele>613.5</ele><time>2026-04-18T09:22:28.951Z</time></trkpt><trkpt lat="39.61802435409637" lon="15.922451142489363"><ele>621.0</ele><time>2026-04-18T09:22:29.951Z</time></trkpt><trkpt lat="39.61793037113629" lon="15.92251294320518"><ele>614.25</ele><time>2026-04-18T09:22:30.951Z</time></trkpt><trkpt lat="39.61782004185794" lon="15.922577866359294"><ele>607.5</ele><time>2026-04-18T09:22:31.951Z</time></trkpt><trkpt lat="39.61775318194575" lon="15.922673516932282"><ele>600.75</ele><time>2026-04-18T09:22:32.951Z</time></trkpt><trkpt lat="39.617683167740914" lon="15.92274328662409"><ele>594.0</ele><time>2026-04-18T09:22:33.951Z</time></trkpt><trkpt lat="39.617574284116365" lon="15.922892990551494"><ele>594.0</ele><time>2026-04-18T09:22:34.951Z</time></trkpt><trkpt lat="39.617491491921065" lon="15.922986912146799"><ele>594.0</ele><time>2026-04-18T09:22:35.951Z</time></trkpt><trkpt lat="39.617415657752886" lon="15.923105335725698"><ele>594.0</ele><time>2026-04-18T09:22:36.951Z</time></trkpt><trkpt lat="39.61731900011898" lon="15.923177874307454"><ele>594.0</ele><time>2026-04-18T09:22:37.951Z</time></trkpt><trkpt lat="39.61721236369538" lon="15.923169420808284"><ele>594.0</ele><time>2026-04-18T09:22:38.951Z</time></trkpt><trkpt lat="39.61709541731486" lon="15.923169485069584"><ele>594.0</ele><time>2026-04-18T09:22:39.951Z</time></trkpt><trkpt lat="39.61698794830834" lon="15.923164166483573"><ele>594.0</ele><time>2026-04-18T09:22:40.951Z</time></trkpt><trkpt lat="39.616878856657216" lon="15.92312751341489"><ele>594.0</ele><time>2026-04-18T09:22:41.951Z</time></trkpt><trkpt lat="39.61678174944053" lon="15.923048457648916"><ele>594.0</ele><time>2026-04-18T09:22:42.951Z</time></trkpt><trkpt lat="39.616681826210765" lon="15.922959701298076"><ele>593.6666666666666</ele><time>2026-04-18T09:22:43.951Z</time></trkpt><trkpt lat="39.61658642940044" lon="15.922894704271485"><ele>593.3333333333334</ele><time>2026-04-18T09:22:44.951Z</time></trkpt><trkpt lat="39.616498548435935" lon="15.922844020033855"><ele>593.0</ele><time>2026-04-18T09:22:45.951Z</time></trkpt><trkpt lat="39.61642252586159" lon="15.922802023697601"><ele>592.6666666666667</ele><time>2026-04-18T09:22:46.951Z</time></trkpt><trkpt lat="39.61635042787164" lon="15.92276219538059"><ele>592.3333333333334</ele><time>2026-04-18T09:22:47.951Z</time></trkpt><trkpt lat="39.6162841551066" lon="15.922725585019778"><ele>592.0</ele><time>2026-04-18T09:22:48.951Z</time></trkpt><trkpt lat="39.61622389359162" lon="15.92269229537897"><ele>593.1666666666667</ele><time>2026-04-18T09:22:49.951Z</time></trkpt><trkpt lat="39.61612246304121" lon="15.922640519617664"><ele>594.3333333333334</ele><time>2026-04-18T09:22:51.951Z</time></trkpt><trkpt lat="39.61605760989662" lon="15.922614975691445"><ele>595.5</ele><time>2026-04-18T09:22:52.951Z</time></trkpt><trkpt lat="39.615972949855234" lon="15.922590616141301"><ele>596.6666666666666</ele><time>2026-04-18T09:22:53.951Z</time></trkpt><trkpt lat="39.615883034448565" lon="15.922601580549458"><ele>597.8333333333333</ele><time>2026-04-18T09:22:54.951Z</time></trkpt><trkpt lat="39.615808426063246" lon="15.922568542818677"><ele>599.0</ele><time>2026-04-18T09:22:55.951Z</time></trkpt><trkpt lat="39.61574945441312" lon="15.922534767552838"><ele>599.0</ele><time>2026-04-18T09:22:56.951Z</time></trkpt><trkpt lat="39.61572695495567" lon="15.92238846587785"><ele>599.0</ele><time>2026-04-18T09:22:58.951Z</time></trkpt><trkpt lat="39.61569535376594" lon="15.922285161588135"><ele>599.0</ele><time>2026-04-18T09:22:59.951Z</time></trkpt><trkpt lat="39.61565563157838" lon="15.92216253782552"><ele>599.0</ele><time>2026-04-18T09:23:00.951Z</time></trkpt><trkpt lat="39.6156107134707" lon="15.922024358377868"><ele>599.0</ele><time>2026-04-18T09:23:01.951Z</time></trkpt><trkpt lat="39.61555028037715" lon="15.92187675967677"><ele>599.0</ele><time>2026-04-18T09:23:02.951Z</time></trkpt><trkpt lat="39.615464028274026" lon="15.921733635154702"><ele>599.0</ele><time>2026-04-18T09:23:03.951Z</time></trkpt><trkpt lat="39.615343562405016" lon="15.921636113576238"><ele>599.0</ele><time>2026-04-18T09:23:04.951Z</time></trkpt><trkpt lat="39.615224894930634" lon="15.921541606085656"><ele>599.0</ele><time>2026-04-18T09:23:05.951Z</time></trkpt><trkpt lat="39.61510579714772" lon="15.921431787517655"><ele>597.5</ele><time>2026-04-18T09:23:06.951Z</time></trkpt><trkpt lat="39.61498308730205" lon="15.921342702150953"><ele>596.0</ele><time>2026-04-18T09:23:07.951Z</time></trkpt><trkpt lat="39.614860637004156" lon="15.921260569350096"><ele>594.5</ele><time>2026-04-18T09:23:08.951Z</time></trkpt><trkpt lat="39.61472827814485" lon="15.92123659309031"><ele>593.0</ele><time>2026-04-18T09:23:09.951Z</time></trkpt><trkpt lat="39.61460567486701" lon="15.921201333329005"><ele>593.0</ele><time>2026-04-18T09:23:10.951Z</time></trkpt><trkpt lat="39.614501371692356" lon="15.921121536635003"><ele>593.0</ele><time>2026-04-18T09:23:11.951Z</time></trkpt><trkpt lat="39.61442439578955" lon="15.921017302759878"><ele>593.0</ele><time>2026-04-18T09:23:12.951Z</time></trkpt><trkpt lat="39.61434090934364" lon="15.920924012430989"><ele>593.0</ele><time>2026-04-18T09:23:13.951Z</time></trkpt><trkpt lat="39.61426587804228" lon="15.920835794770584"><ele>593.0</ele><time>2026-04-18T09:23:14.951Z</time></trkpt><trkpt lat="39.61421783325109" lon="15.920743910349438"><ele>592.0</ele><time>2026-04-18T09:23:15.951Z</time></trkpt><trkpt lat="39.61420306614558" lon="15.920633748277952"><ele>591.0</ele><time>2026-04-18T09:23:16.951Z</time></trkpt><trkpt lat="39.6142406374235" lon="15.92050602750392"><ele>590.0</ele><time>2026-04-18T09:23:17.951Z</time></trkpt><trkpt lat="39.61427667898331" lon="15.92035817995228"><ele>589.0</ele><time>2026-04-18T09:23:18.951Z</time></trkpt><trkpt lat="39.614311493450025" lon="15.920203477323485"><ele>588.0</ele><time>2026-04-18T09:23:19.951Z</time></trkpt><trkpt lat="39.61432798671052" lon="15.920029706488819"><ele>588.0</ele><time>2026-04-18T09:23:20.951Z</time></trkpt><trkpt lat="39.61430375127711" lon="15.919862751922455"><ele>588.0</ele><time>2026-04-18T09:23:21.951Z</time></trkpt><trkpt lat="39.61430248254222" lon="15.91970119276252"><ele>588.0</ele><time>2026-04-18T09:23:22.951Z</time></trkpt><trkpt lat="39.614280157086824" lon="15.919530159518363"><ele>588.0</ele><time>2026-04-18T09:23:23.951Z</time></trkpt><trkpt lat="39.61425640702643" lon="15.919352194843755"><ele>588.5</ele><time>2026-04-18T09:23:24.951Z</time></trkpt><trkpt lat="39.6142225579647" lon="15.919167962018564"><ele>589.0</ele><time>2026-04-18T09:23:25.951Z</time></trkpt><trkpt lat="39.61418159415653" lon="15.918977667066667"><ele>589.5</ele><time>2026-04-18T09:23:26.951Z</time></trkpt><trkpt lat="39.61414187412275" lon="15.918793149989098"><ele>590.0</ele><time>2026-04-18T09:23:27.951Z</time></trkpt><trkpt lat="39.61410511819564" lon="15.918622402496524"><ele>590.0</ele><time>2026-04-18T09:23:28.951Z</time></trkpt><trkpt lat="39.61399892366719" lon="15.918485464194733"><ele>590.0</ele><time>2026-04-18T09:23:29.951Z</time></trkpt><trkpt lat="39.61396775309701" lon="15.918341796270271"><ele>590.0</ele><time>2026-04-18T09:23:30.951Z</time></trkpt><trkpt lat="39.61394806244806" lon="15.91821482399975"><ele>590.0</ele><time>2026-04-18T09:23:31.951Z</time></trkpt><trkpt lat="39.61395910317641" lon="15.91809301169534"><ele>591.25</ele><time>2026-04-18T09:23:32.951Z</time></trkpt><trkpt lat="39.61401383787929" lon="15.917971069774573"><ele>592.5</ele><time>2026-04-18T09:23:33.951Z</time></trkpt><trkpt lat="39.61410209988297" lon="15.917859483880076"><ele>593.75</ele><time>2026-04-18T09:23:34.951Z</time></trkpt><trkpt lat="39.61420364148114" lon="15.91776015552004"><ele>595.0</ele><time>2026-04-18T09:23:35.951Z</time></trkpt><trkpt lat="39.614311171226696" lon="15.917694712288181"><ele>595.0</ele><time>2026-04-18T09:23:36.951Z</time></trkpt><trkpt lat="39.6144149300689" lon="15.917653010699297"><ele>595.0</ele><time>2026-04-18T09:23:37.951Z</time></trkpt><trkpt lat="39.61450619908108" lon="15.917599198646377"><ele>595.0</ele><time>2026-04-18T09:23:38.951Z</time></trkpt><trkpt lat="39.61458215747813" lon="15.917520721002516"><ele>595.0</ele><time>2026-04-18T09:23:39.951Z</time></trkpt><trkpt lat="39.614628269368026" lon="15.917397438448463"><ele>595.0</ele><time>2026-04-18T09:23:40.951Z</time></trkpt><trkpt lat="39.61463379926536" lon="15.917233440181706"><ele>596.25</ele><time>2026-04-18T09:23:41.951Z</time></trkpt><trkpt lat="39.614608554357595" lon="15.917067289909632"><ele>597.5</ele><time>2026-04-18T09:23:42.951Z</time></trkpt><trkpt lat="39.614585019712685" lon="15.916921635816315"><ele>598.75</ele><time>2026-04-18T09:23:43.951Z</time></trkpt><trkpt lat="39.61455981926775" lon="15.916774899873987"><ele>600.0</ele><time>2026-04-18T09:23:44.951Z</time></trkpt><trkpt lat="39.61454702665282" lon="15.916622618288285"><ele>600.0</ele><time>2026-04-18T09:23:45.951Z</time></trkpt><trkpt lat="39.61455315036353" lon="15.916475889878853"><ele>600.0</ele><time>2026-04-18T09:23:46.951Z</time></trkpt><trkpt lat="39.61456608443506" lon="15.916338718737618"><ele>600.0</ele><time>2026-04-18T09:23:47.95Z</time></trkpt><trkpt lat="39.614590451062895" lon="15.916209712517697"><ele>600.0</ele><time>2026-04-18T09:23:48.95Z</time></trkpt><trkpt lat="39.614661913721065" lon="15.916105107289829"><ele>600.0</ele><time>2026-04-18T09:23:49.95Z</time></trkpt><trkpt lat="39.614738469124546" lon="15.91603615053474"><ele>600.0</ele><time>2026-04-18T09:23:50.95Z</time></trkpt><trkpt lat="39.614832522592415" lon="15.915978515783493"><ele>600.0</ele><time>2026-04-18T09:23:51.95Z</time></trkpt><trkpt lat="39.61496334664443" lon="15.915930382132634"><ele>600.0</ele><time>2026-04-18T09:23:52.95Z</time></trkpt><trkpt lat="39.61509043847055" lon="15.915926591312589"><ele>600.0</ele><time>2026-04-18T09:23:53.95Z</time></trkpt><trkpt lat="39.61519530615545" lon="15.915939715772582"><ele>600.0</ele><time>2026-04-18T09:23:54.95Z</time></trkpt><trkpt lat="39.61531303500702" lon="15.915932492582641"><ele>600.0</ele><time>2026-04-18T09:23:55.95Z</time></trkpt><trkpt lat="39.61541586243617" lon="15.915949503492456"><ele>600.0</ele><time>2026-04-18T09:23:56.95Z</time></trkpt><trkpt lat="39.61551855737317" lon="15.915937278912413"><ele>600.0</ele><time>2026-04-18T09:23:57.95Z</time></trkpt><trkpt lat="39.61560802060686" lon="15.915874064809413"><ele>600.0</ele><time>2026-04-18T09:23:58.95Z</time></trkpt><trkpt lat="39.61567666424379" lon="15.915784660205086"><ele>598.5</ele><time>2026-04-18T09:23:59.95Z</time></trkpt><trkpt lat="39.61571475091932" lon="15.91566965165488"><ele>597.0</ele><time>2026-04-18T09:24:00.95Z</time></trkpt><trkpt lat="39.61570961822177" lon="15.9155242529959"><ele>595.5</ele><time>2026-04-18T09:24:01.95Z</time></trkpt><trkpt lat="39.61567795842388" lon="15.915359929005207"><ele>594.0</ele><time>2026-04-18T09:24:02.95Z</time></trkpt><trkpt lat="39.6156404927931" lon="15.91519454002359"><ele>590.0</ele><time>2026-04-18T09:24:03.95Z</time></trkpt><trkpt lat="39.615627034775045" lon="15.915029073965357"><ele>586.0</ele><time>2026-04-18T09:24:04.95Z</time></trkpt><trkpt lat="39.61561824289561" lon="15.914876351205535"><ele>582.0</ele><time>2026-04-18T09:24:05.95Z</time></trkpt><trkpt lat="39.61563136096261" lon="15.914735969542997"><ele>578.0</ele><time>2026-04-18T09:24:06.951Z</time></trkpt><trkpt lat="39.61566633563914" lon="15.914613465133545"><ele>578.0</ele><time>2026-04-18T09:24:07.951Z</time></trkpt><trkpt lat="39.61574589643948" lon="15.914520029563738"><ele>578.0</ele><time>2026-04-18T09:24:08.951Z</time></trkpt><trkpt lat="39.61582995998456" lon="15.91443046208213"><ele>578.0</ele><time>2026-04-18T09:24:09.951Z</time></trkpt><trkpt lat="39.615924704854415" lon="15.914330395871364"><ele>578.0</ele><time>2026-04-18T09:24:10.951Z</time></trkpt><trkpt lat="39.61604457431788" lon="15.914259609146233"><ele>579.0</ele><time>2026-04-18T09:24:11.951Z</time></trkpt><trkpt lat="39.61616237970656" lon="15.914198942833327"><ele>580.0</ele><time>2026-04-18T09:24:12.951Z</time></trkpt><trkpt lat="39.61627056282636" lon="15.914132651343731"><ele>581.0</ele><time>2026-04-18T09:24:13.951Z</time></trkpt><trkpt lat="39.616357636499764" lon="15.91403321472234"><ele>582.0</ele><time>2026-04-18T09:24:14.951Z</time></trkpt><trkpt lat="39.616425084597864" lon="15.913902340566247"><ele>582.0</ele><time>2026-04-18T09:24:15.951Z</time></trkpt><trkpt lat="39.61649176844929" lon="15.913769163373175"><ele>582.0</ele><time>2026-04-18T09:24:16.951Z</time></trkpt><trkpt lat="39.61659461733848" lon="15.91369613149069"><ele>582.0</ele><time>2026-04-18T09:24:17.951Z</time></trkpt><trkpt lat="39.6166967204581" lon="15.91360205279679"><ele>582.0</ele><time>2026-04-18T09:24:18.951Z</time></trkpt><trkpt lat="39.616804862043914" lon="15.913517222472835"><ele>582.0</ele><time>2026-04-18T09:24:19.951Z</time></trkpt><trkpt lat="39.61690850469599" lon="15.913426586361572"><ele>582.0</ele><time>2026-04-18T09:24:20.951Z</time></trkpt><trkpt lat="39.61700097978457" lon="15.913335871996495"><ele>582.0</ele><time>2026-04-18T09:24:21.951Z</time></trkpt><trkpt lat="39.617094752762576" lon="15.913242706153854"><ele>582.0</ele><time>2026-04-18T09:24:22.951Z</time></trkpt><trkpt lat="39.61718241399187" lon="15.913154014115499"><ele>580.2</ele><time>2026-04-18T09:24:23.951Z</time></trkpt><trkpt lat="39.61726236536846" lon="15.913052501639598"><ele>578.4000000000001</ele><time>2026-04-18T09:24:24.951Z</time></trkpt><trkpt lat="39.61733800696826" lon="15.912951819837788"><ele>576.5999999999999</ele><time>2026-04-18T09:24:25.951Z</time></trkpt><trkpt lat="39.61741697601366" lon="15.912864849249223"><ele>574.8</ele><time>2026-04-18T09:24:26.951Z</time></trkpt><trkpt lat="39.61750705803136" lon="15.912813236967564"><ele>573.0</ele><time>2026-04-18T09:24:27.951Z</time></trkpt><trkpt lat="39.61760204881356" lon="15.912827840637119"><ele>573.0</ele><time>2026-04-18T09:24:28.951Z</time></trkpt><trkpt lat="39.61769004831936" lon="15.91282845883945"><ele>573.0</ele><time>2026-04-18T09:24:29.951Z</time></trkpt><trkpt lat="39.617770684496655" lon="15.912838502604767"><ele>573.0</ele><time>2026-04-18T09:24:30.951Z</time></trkpt><trkpt lat="39.617842994588855" lon="15.912826992612723"><ele>573.0</ele><time>2026-04-18T09:24:31.951Z</time></trkpt><trkpt lat="39.6179033087353" lon="15.912782107592657"><ele>573.0</ele><time>2026-04-18T09:24:32.951Z</time></trkpt><trkpt lat="39.61794273897853" lon="15.912692447035464"><ele>573.0</ele><time>2026-04-18T09:24:33.951Z</time></trkpt><trkpt lat="39.61796288890188" lon="15.912575667509474"><ele>573.0</ele><time>2026-04-18T09:24:34.951Z</time></trkpt><trkpt lat="39.61795988014918" lon="15.912446911085489"><ele>573.0</ele><time>2026-04-18T09:24:35.951Z</time></trkpt><trkpt lat="39.61791113497892" lon="15.912339280937122"><ele>573.0</ele><time>2026-04-18T09:24:36.951Z</time></trkpt><trkpt lat="39.617823163394874" lon="15.912249364473984"><ele>573.0</ele><time>2026-04-18T09:24:37.951Z</time></trkpt><trkpt lat="39.61772062353827" lon="15.912175207642935"><ele>573.0</ele><time>2026-04-18T09:24:38.951Z</time></trkpt><trkpt lat="39.617609058983234" lon="15.91210959935018"><ele>567.0</ele><time>2026-04-18T09:24:39.951Z</time></trkpt><trkpt lat="39.617499544696365" lon="15.91202941072092"><ele>561.0</ele><time>2026-04-18T09:24:40.951Z</time></trkpt><trkpt lat="39.61739941061416" lon="15.911952802284828"><ele>555.0</ele><time>2026-04-18T09:24:41.951Z</time></trkpt><trkpt lat="39.61730714108616" lon="15.911875078893425"><ele>549.0</ele><time>2026-04-18T09:24:42.951Z</time></trkpt><trkpt lat="39.61722967618634" lon="15.91178050392865"><ele>549.8</ele><time>2026-04-18T09:24:43.951Z</time></trkpt><trkpt lat="39.61719052208502" lon="15.91165783240453"><ele>550.5999999999999</ele><time>2026-04-18T09:24:44.951Z</time></trkpt><trkpt lat="39.61722816112" lon="15.911539794178283"><ele>551.4</ele><time>2026-04-18T09:24:45.951Z</time></trkpt><trkpt lat="39.61729847558553" lon="15.911465546925754"><ele>552.1999999999999</ele><time>2026-04-18T09:24:46.951Z</time></trkpt><trkpt lat="39.61736898474304" lon="15.91136818917868"><ele>553.0</ele><time>2026-04-18T09:24:47.951Z</time></trkpt><trkpt lat="39.61743738414998" lon="15.9112566377904"><ele>553.0</ele><time>2026-04-18T09:24:48.951Z</time></trkpt><trkpt lat="39.61750968518843" lon="15.911135335003811"><ele>553.0</ele><time>2026-04-18T09:24:49.951Z</time></trkpt><trkpt lat="39.617562252557335" lon="15.910989973207476"><ele>553.0</ele><time>2026-04-18T09:24:50.951Z</time></trkpt><trkpt lat="39.61760751384885" lon="15.910845989443489"><ele>553.0</ele><time>2026-04-18T09:24:51.951Z</time></trkpt><trkpt lat="39.61765932282033" lon="15.91070797412078"><ele>551.6</ele><time>2026-04-18T09:24:52.951Z</time></trkpt><trkpt lat="39.61770017855943" lon="15.910582878671459"><ele>550.1999999999999</ele><time>2026-04-18T09:24:53.951Z</time></trkpt><trkpt lat="39.61771478673457" lon="15.910456631548191"><ele>548.8</ele><time>2026-04-18T09:24:54.951Z</time></trkpt><trkpt lat="39.617683753467006" lon="15.910337208659675"><ele>547.4</ele><time>2026-04-18T09:24:55.951Z</time></trkpt><trkpt lat="39.61761364534544" lon="15.910253110277223"><ele>546.0</ele><time>2026-04-18T09:24:56.951Z</time></trkpt><trkpt lat="39.61753787484783" lon="15.910185713745207"><ele>546.0</ele><time>2026-04-18T09:24:57.95Z</time></trkpt><trkpt lat="39.617453048904636" lon="15.91010828063434"><ele>546.0</ele><time>2026-04-18T09:24:58.95Z</time></trkpt><trkpt lat="39.617359129477734" lon="15.91000841113956"><ele>546.0</ele><time>2026-04-18T09:24:59.95Z</time></trkpt><trkpt lat="39.61726755181626" lon="15.909882834895685"><ele>546.0</ele><time>2026-04-18T09:25:00.95Z</time></trkpt><trkpt lat="39.61719554545035" lon="15.909733538986313"><ele>544.25</ele><time>2026-04-18T09:25:01.95Z</time></trkpt><trkpt lat="39.61713544419719" lon="15.909588865194157"><ele>542.5</ele><time>2026-04-18T09:25:02.95Z</time></trkpt><trkpt lat="39.61707468527171" lon="15.90944645206857"><ele>540.75</ele><time>2026-04-18T09:25:03.95Z</time></trkpt><trkpt lat="39.617010108385756" lon="15.90931964030409"><ele>539.0</ele><time>2026-04-18T09:25:04.95Z</time></trkpt><trkpt lat="39.61695776634528" lon="15.909194684766426"><ele>539.2</ele><time>2026-04-18T09:25:05.95Z</time></trkpt><trkpt lat="39.6169225061873" lon="15.909072144211311"><ele>539.4</ele><time>2026-04-18T09:25:06.95Z</time></trkpt><trkpt lat="39.616924936109776" lon="15.908951156509765"><ele>539.6</ele><time>2026-04-18T09:25:07.95Z</time></trkpt><trkpt lat="39.61698269013162" lon="15.90885835956103"><ele>539.8</ele><time>2026-04-18T09:25:08.95Z</time></trkpt><trkpt lat="39.61707149909313" lon="15.908784644193487"><ele>540.0</ele><time>2026-04-18T09:25:09.95Z</time></trkpt><trkpt lat="39.6171754840635" lon="15.908710157266098"><ele>540.0</ele><time>2026-04-18T09:25:10.95Z</time></trkpt><trkpt lat="39.61728065112382" lon="15.90864305438696"><ele>540.0</ele><time>2026-04-18T09:25:11.95Z</time></trkpt><trkpt lat="39.61736853026352" lon="15.90858203400903"><ele>540.0</ele><time>2026-04-18T09:25:12.95Z</time></trkpt><trkpt lat="39.61743875443086" lon="15.908522988930788"><ele>540.0</ele><time>2026-04-18T09:25:13.95Z</time></trkpt><trkpt lat="39.617483149654454" lon="15.90845139946655"><ele>540.0</ele><time>2026-04-18T09:25:14.95Z</time></trkpt><trkpt lat="39.617504873793436" lon="15.908369323253943"><ele>540.0</ele><time>2026-04-18T09:25:15.95Z</time></trkpt><trkpt lat="39.61749662426933" lon="15.908284480266481"><ele>540.0</ele><time>2026-04-18T09:25:16.95Z</time></trkpt><trkpt lat="39.617454162351635" lon="15.908205595295945"><ele>540.0</ele><time>2026-04-18T09:25:17.95Z</time></trkpt><trkpt lat="39.617372166191835" lon="15.908153661186237"><ele>540.0</ele><time>2026-04-18T09:25:18.95Z</time></trkpt><trkpt lat="39.61727823120543" lon="15.90811764459567"><ele>540.0</ele><time>2026-04-18T09:25:19.95Z</time></trkpt><trkpt lat="39.61716974418596" lon="15.90807950575234"><ele>540.0</ele><time>2026-04-18T09:25:20.95Z</time></trkpt><trkpt lat="39.617061227291124" lon="15.908037091113176"><ele>536.5</ele><time>2026-04-18T09:25:21.95Z</time></trkpt><trkpt lat="39.61694385948869" lon="15.90798945533086"><ele>533.0</ele><time>2026-04-18T09:25:22.95Z</time></trkpt><trkpt lat="39.61682537771847" lon="15.907940721579319"><ele>529.5</ele><time>2026-04-18T09:25:23.95Z</time></trkpt><trkpt lat="39.61671699738375" lon="15.90789828435687"><ele>526.0</ele><time>2026-04-18T09:25:24.95Z</time></trkpt><trkpt lat="39.61661517769975" lon="15.907858091992923"><ele>526.0</ele><time>2026-04-18T09:25:25.95Z</time></trkpt><trkpt lat="39.616517253773345" lon="15.907813913697842"><ele>526.0</ele><time>2026-04-18T09:25:26.95Z</time></trkpt><trkpt lat="39.616430662518816" lon="15.907755552482707"><ele>526.0</ele><time>2026-04-18T09:25:27.95Z</time></trkpt><trkpt lat="39.61635848035728" lon="15.907670871079633"><ele>526.0</ele><time>2026-04-18T09:25:28.95Z</time></trkpt><trkpt lat="39.616308163644554" lon="15.907548199296237"><ele>526.0</ele><time>2026-04-18T09:25:29.95Z</time></trkpt><trkpt lat="39.6162820427455" lon="15.907397724843952"><ele>528.5</ele><time>2026-04-18T09:25:30.95Z</time></trkpt><trkpt lat="39.61625976164992" lon="15.907243865859138"><ele>531.0</ele><time>2026-04-18T09:25:31.95Z</time></trkpt><trkpt lat="39.61624195386462" lon="15.90708227909689"><ele>533.5</ele><time>2026-04-18T09:25:32.95Z</time></trkpt><trkpt lat="39.616227727721096" lon="15.906938533482188"><ele>536.0</ele><time>2026-04-18T09:25:33.95Z</time></trkpt><trkpt lat="39.616199518151156" lon="15.906805197442766"><ele>532.4</ele><time>2026-04-18T09:25:34.95Z</time></trkpt><trkpt lat="39.61614854192421" lon="15.906688430324323"><ele>528.8</ele><time>2026-04-18T09:25:35.95Z</time></trkpt><trkpt lat="39.61608522663557" lon="15.906583217183822"><ele>525.1999999999999</ele><time>2026-04-18T09:25:36.95Z</time></trkpt><trkpt lat="39.6160157953324" lon="15.906474597795542"><ele>521.6</ele><time>2026-04-18T09:25:37.95Z</time></trkpt><trkpt lat="39.61596398166265" lon="15.90636376131477"><ele>518.0</ele><time>2026-04-18T09:25:38.95Z</time></trkpt><trkpt lat="39.61594523887857" lon="15.906233631239822"><ele>518.0</ele><time>2026-04-18T09:25:39.95Z</time></trkpt><trkpt lat="39.615944681864136" lon="15.906085240623486"><ele>518.0</ele><time>2026-04-18T09:25:40.95Z</time></trkpt><trkpt lat="39.61593770339704" lon="15.90591835101904"><ele>518.0</ele><time>2026-04-18T09:25:41.95Z</time></trkpt><trkpt lat="39.61591809214644" lon="15.905762750858967"><ele>518.0</ele><time>2026-04-18T09:25:42.95Z</time></trkpt><trkpt lat="39.6158951624425" lon="15.905586507258837"><ele>518.5</ele><time>2026-04-18T09:25:43.95Z</time></trkpt><trkpt lat="39.615900309243465" lon="15.905414989520034"><ele>519.0</ele><time>2026-04-18T09:25:44.95Z</time></trkpt><trkpt lat="39.61591186991775" lon="15.905246850004705"><ele>519.5</ele><time>2026-04-18T09:25:45.95Z</time></trkpt><trkpt lat="39.615933041449985" lon="15.905088856076185"><ele>520.0</ele><time>2026-04-18T09:25:46.95Z</time></trkpt><trkpt lat="39.61596077018058" lon="15.904936884120842"><ele>519.2</ele><time>2026-04-18T09:25:47.95Z</time></trkpt><trkpt lat="39.61599431591156" lon="15.90478277634944"><ele>518.4</ele><time>2026-04-18T09:25:48.95Z</time></trkpt><trkpt lat="39.61604723167833" lon="15.904670613664447"><ele>517.6</ele><time>2026-04-18T09:25:49.95Z</time></trkpt><trkpt lat="39.61610819926578" lon="15.904581309933484"><ele>516.8</ele><time>2026-04-18T09:25:50.95Z</time></trkpt><trkpt lat="39.616194016029816" lon="15.904540943959006"><ele>516.0</ele><time>2026-04-18T09:25:51.95Z</time></trkpt><trkpt lat="39.61627106815622" lon="15.90445557766349"><ele>520.0</ele><time>2026-04-18T09:25:52.95Z</time></trkpt><trkpt lat="39.61632958477234" lon="15.904352363265277"><ele>524.0</ele><time>2026-04-18T09:25:53.95Z</time></trkpt><trkpt lat="39.61632197796982" lon="15.904214508628284"><ele>528.0</ele><time>2026-04-18T09:25:54.95Z</time></trkpt><trkpt lat="39.61632872762056" lon="15.904105655024813"><ele>532.0</ele><time>2026-04-18T09:25:55.95Z</time></trkpt><trkpt lat="39.61632921940679" lon="15.903994595675483"><ele>536.0</ele><time>2026-04-18T09:25:56.95Z</time></trkpt><trkpt lat="39.616304530584415" lon="15.903886740589865"><ele>536.0</ele><time>2026-04-18T09:25:57.95Z</time></trkpt><trkpt lat="39.616250059982725" lon="15.903788043073734"><ele>536.0</ele><time>2026-04-18T09:25:58.95Z</time></trkpt><trkpt lat="39.616172512468964" lon="15.903720149822528"><ele>536.0</ele><time>2026-04-18T09:25:59.95Z</time></trkpt><trkpt lat="39.61609176478472" lon="15.90365089448717"><ele>536.0</ele><time>2026-04-18T09:26:00.95Z</time></trkpt><trkpt lat="39.61603503169075" lon="15.903565450044013"><ele>536.0</ele><time>2026-04-18T09:26:01.95Z</time></trkpt><trkpt lat="39.615999377064156" lon="15.903450834956953"><ele>529.8</ele><time>2026-04-18T09:26:02.95Z</time></trkpt><trkpt lat="39.61605387077044" lon="15.903332507878542"><ele>523.6</ele><time>2026-04-18T09:26:03.95Z</time></trkpt><trkpt lat="39.61606313448672" lon="15.903199748928717"><ele>517.4</ele><time>2026-04-18T09:26:04.95Z</time></trkpt><trkpt lat="39.616068741779046" lon="15.903060966873367"><ele>511.2</ele><time>2026-04-18T09:26:05.95Z</time></trkpt><trkpt lat="39.61605778666132" lon="15.902905430419834"><ele>505.0</ele><time>2026-04-18T09:26:06.95Z</time></trkpt><trkpt lat="39.616009476161125" lon="15.902746758870228"><ele>505.0</ele><time>2026-04-18T09:26:07.95Z</time></trkpt><trkpt lat="39.61595730097682" lon="15.90260230043474"><ele>505.0</ele><time>2026-04-18T09:26:08.95Z</time></trkpt><trkpt lat="39.615922373874135" lon="15.902455244380935"><ele>505.0</ele><time>2026-04-18T09:26:09.95Z</time></trkpt><trkpt lat="39.61589128479492" lon="15.902311667608434"><ele>505.0</ele><time>2026-04-18T09:26:10.95Z</time></trkpt><trkpt lat="39.615866900370484" lon="15.90218352951035"><ele>505.6</ele><time>2026-04-18T09:26:11.95Z</time></trkpt><trkpt lat="39.615831022437895" lon="15.902079437761698"><ele>506.2</ele><time>2026-04-18T09:26:12.95Z</time></trkpt><trkpt lat="39.615773139645356" lon="15.901996128387136"><ele>506.79999999999995</ele><time>2026-04-18T09:26:13.95Z</time></trkpt><trkpt lat="39.61568758249605" lon="15.901952126386862"><ele>507.4</ele><time>2026-04-18T09:26:14.95Z</time></trkpt><trkpt lat="39.615584450023164" lon="15.901922901782003"><ele>508.0</ele><time>2026-04-18T09:26:15.95Z</time></trkpt><trkpt lat="39.61548398417995" lon="15.901882995731603"><ele>508.0</ele><time>2026-04-18T09:26:16.95Z</time></trkpt><trkpt lat="39.61540142340725" lon="15.90181735305324"><ele>507.99999999999994</ele><time>2026-04-18T09:26:17.95Z</time></trkpt><trkpt lat="39.61533572915258" lon="15.901723385567585"><ele>507.99999999999994</ele><time>2026-04-18T09:26:18.95Z</time></trkpt><trkpt lat="39.61531795339865" lon="15.901606741363784"><ele>508.0</ele><time>2026-04-18T09:26:19.95Z</time></trkpt><trkpt lat="39.615312746217455" lon="15.90148656726577"><ele>508.0</ele><time>2026-04-18T09:26:20.95Z</time></trkpt><trkpt lat="39.615321568132124" lon="15.901351532672642"><ele>509.5</ele><time>2026-04-18T09:26:21.95Z</time></trkpt><trkpt lat="39.61533361429158" lon="15.901200345181117"><ele>511.0</ele><time>2026-04-18T09:26:22.95Z</time></trkpt><trkpt lat="39.61534510316339" lon="15.90104078312404"><ele>512.5</ele><time>2026-04-18T09:26:23.95Z</time></trkpt><trkpt lat="39.615356328878576" lon="15.900876113536969"><ele>514.0</ele><time>2026-04-18T09:26:24.95Z</time></trkpt><trkpt lat="39.6153525628758" lon="15.900718342211391"><ele>514.8</ele><time>2026-04-18T09:26:25.95Z</time></trkpt><trkpt lat="39.6153640353711" lon="15.900572757465579"><ele>515.5999999999999</ele><time>2026-04-18T09:26:26.95Z</time></trkpt><trkpt lat="39.61537396437238" lon="15.900428079907085"><ele>516.4</ele><time>2026-04-18T09:26:27.95Z</time></trkpt><trkpt lat="39.61537775644685" lon="15.900285289329638"><ele>517.1999999999999</ele><time>2026-04-18T09:26:28.95Z</time></trkpt><trkpt lat="39.61536006331486" lon="15.90014126105446"><ele>518.0</ele><time>2026-04-18T09:26:29.95Z</time></trkpt><trkpt lat="39.61531440074074" lon="15.900005036888064"><ele>513.8333333333333</ele><time>2026-04-18T09:26:30.95Z</time></trkpt><trkpt lat="39.61526374134358" lon="15.899876140070646"><ele>509.66666666666663</ele><time>2026-04-18T09:26:31.95Z</time></trkpt><trkpt lat="39.615212339979784" lon="15.899770743117758"><ele>505.5</ele><time>2026-04-18T09:26:32.95Z</time></trkpt><trkpt lat="39.615160264746685" lon="15.89969613228909"><ele>501.33333333333337</ele><time>2026-04-18T09:26:33.95Z</time></trkpt><trkpt lat="39.61509324952825" lon="15.899654632451087"><ele>497.1666666666667</ele><time>2026-04-18T09:26:34.95Z</time></trkpt><trkpt lat="39.61501193321266" lon="15.899645202730737"><ele>493.0</ele><time>2026-04-18T09:26:35.95Z</time></trkpt><trkpt lat="39.61491022784753" lon="15.899669124918727"><ele>493.0</ele><time>2026-04-18T09:26:36.95Z</time></trkpt><trkpt lat="39.614797664235965" lon="15.89969120200221"><ele>493.0</ele><time>2026-04-18T09:26:37.95Z</time></trkpt><trkpt lat="39.614682764771096" lon="15.899703385567264"><ele>493.0</ele><time>2026-04-18T09:26:38.95Z</time></trkpt><trkpt lat="39.614567251252815" lon="15.899713101219662"><ele>493.0</ele><time>2026-04-18T09:26:39.95Z</time></trkpt><trkpt lat="39.614449592992536" lon="15.899712078769195"><ele>489.0</ele><time>2026-04-18T09:26:40.95Z</time></trkpt><trkpt lat="39.614333906064594" lon="15.899695266445008"><ele>485.0</ele><time>2026-04-18T09:26:41.95Z</time></trkpt><trkpt lat="39.61421800380502" lon="15.899654756687287"><ele>481.0</ele><time>2026-04-18T09:26:42.95Z</time></trkpt><trkpt lat="39.6141091396246" lon="15.899571520284024"><ele>477.0</ele><time>2026-04-18T09:26:43.95Z</time></trkpt><trkpt lat="39.61399791467538" lon="15.89948115356433"><ele>477.0</ele><time>2026-04-18T09:26:44.95Z</time></trkpt><trkpt lat="39.613893212956576" lon="15.899373499423879"><ele>477.0</ele><time>2026-04-18T09:26:45.95Z</time></trkpt><trkpt lat="39.613784981156925" lon="15.899260223490966"><ele>477.0</ele><time>2026-04-18T09:26:46.95Z</time></trkpt><trkpt lat="39.613699447536646" lon="15.899129854129571"><ele>477.0</ele><time>2026-04-18T09:26:47.95Z</time></trkpt><trkpt lat="39.613619733430696" lon="15.89900381883576"><ele>476.0</ele><time>2026-04-18T09:26:48.95Z</time></trkpt><trkpt lat="39.613545149629154" lon="15.89888751655125"><ele>475.00000000000006</ele><time>2026-04-18T09:26:49.95Z</time></trkpt><trkpt lat="39.61346526352694" lon="15.898789597741779"><ele>474.00000000000006</ele><time>2026-04-18T09:26:50.95Z</time></trkpt><trkpt lat="39.61337278086611" lon="15.898729978351918"><ele>473.0</ele><time>2026-04-18T09:26:51.95Z</time></trkpt><trkpt lat="39.61326438097178" lon="15.898727851455611"><ele>472.0</ele><time>2026-04-18T09:26:52.95Z</time></trkpt><trkpt lat="39.613151909126614" lon="15.898768387681503"><ele>472.0</ele><time>2026-04-18T09:26:53.95Z</time></trkpt><trkpt lat="39.613048735167965" lon="15.898816088231449"><ele>472.00000000000006</ele><time>2026-04-18T09:26:54.95Z</time></trkpt><trkpt lat="39.61296280321277" lon="15.898828884812488"><ele>472.00000000000006</ele><time>2026-04-18T09:26:55.95Z</time></trkpt><trkpt lat="39.61288005709498" lon="15.898801999490974"><ele>472.0</ele><time>2026-04-18T09:26:56.95Z</time></trkpt><trkpt lat="39.61281946353822" lon="15.898714458186085"><ele>472.0</ele><time>2026-04-18T09:26:57.95Z</time></trkpt><trkpt lat="39.61279276988313" lon="15.898590959814367"><ele>470.5</ele><time>2026-04-18T09:26:58.95Z</time></trkpt><trkpt lat="39.612787086900234" lon="15.898443719157253"><ele>469.0</ele><time>2026-04-18T09:26:59.95Z</time></trkpt><trkpt lat="39.61277233308266" lon="15.898291610520312"><ele>467.5</ele><time>2026-04-18T09:27:00.95Z</time></trkpt><trkpt lat="39.61272710901771" lon="15.898137347238743"><ele>466.0</ele><time>2026-04-18T09:27:01.95Z</time></trkpt><trkpt lat="39.61267706185397" lon="15.897990159379953"><ele>466.0</ele><time>2026-04-18T09:27:02.95Z</time></trkpt><trkpt lat="39.612665364736365" lon="15.897834397016908"><ele>466.0</ele><time>2026-04-18T09:27:03.95Z</time></trkpt><trkpt lat="39.61266112364061" lon="15.897660514142473"><ele>466.0</ele><time>2026-04-18T09:27:04.95Z</time></trkpt><trkpt lat="39.61264078828638" lon="15.897493413473894"><ele>466.0</ele><time>2026-04-18T09:27:05.95Z</time></trkpt><trkpt lat="39.612603752099695" lon="15.897329507026381"><ele>466.0</ele><time>2026-04-18T09:27:06.95Z</time></trkpt><trkpt lat="39.61253764415686" lon="15.897172722855526"><ele>466.0</ele><time>2026-04-18T09:27:07.95Z</time></trkpt><trkpt lat="39.61246450895448" lon="15.897018755169768"><ele>466.0</ele><time>2026-04-18T09:27:08.95Z</time></trkpt><trkpt lat="39.61237643852398" lon="15.896861297766613"><ele>466.0</ele><time>2026-04-18T09:27:09.95Z</time></trkpt><trkpt lat="39.61228124254886" lon="15.896701970081569"><ele>469.0</ele><time>2026-04-18T09:27:10.95Z</time></trkpt><trkpt lat="39.61218041317981" lon="15.896546981547882"><ele>472.0</ele><time>2026-04-18T09:27:11.95Z</time></trkpt><trkpt lat="39.612067554751256" lon="15.896415330983855"><ele>475.0</ele><time>2026-04-18T09:27:12.95Z</time></trkpt><trkpt lat="39.61194767613182" lon="15.896305364021101"><ele>470.75</ele><time>2026-04-18T09:27:13.95Z</time></trkpt><trkpt lat="39.61183292302057" lon="15.896199321175633"><ele>466.5</ele><time>2026-04-18T09:27:14.95Z</time></trkpt><trkpt lat="39.611722502244746" lon="15.896068400895649"><ele>462.25</ele><time>2026-04-18T09:27:15.95Z</time></trkpt><trkpt lat="39.61163494223307" lon="15.895923577852011"><ele>458.0</ele><time>2026-04-18T09:27:16.95Z</time></trkpt><trkpt lat="39.61158127412938" lon="15.895745102798656"><ele>458.0</ele><time>2026-04-18T09:27:17.95Z</time></trkpt><trkpt lat="39.61150858120852" lon="15.895571129993096"><ele>458.0</ele><time>2026-04-18T09:27:18.95Z</time></trkpt><trkpt lat="39.61146049878089" lon="15.895381069260681"><ele>458.0</ele><time>2026-04-18T09:27:19.95Z</time></trkpt><trkpt lat="39.611406775472275" lon="15.895214216624558"><ele>458.0</ele><time>2026-04-18T09:27:20.95Z</time></trkpt><trkpt lat="39.611338875251114" lon="15.895085457259217"><ele>458.79999999999995</ele><time>2026-04-18T09:27:21.95Z</time></trkpt><trkpt lat="39.61125080919139" lon="15.894991735556347"><ele>459.59999999999997</ele><time>2026-04-18T09:27:22.95Z</time></trkpt><trkpt lat="39.61115548581263" lon="15.89492821183037"><ele>460.40000000000003</ele><time>2026-04-18T09:27:23.95Z</time></trkpt><trkpt lat="39.61108103652027" lon="15.8948502873921"><ele>461.20000000000005</ele><time>2026-04-18T09:27:24.95Z</time></trkpt><trkpt lat="39.61107235716404" lon="15.894719879810166"><ele>462.0</ele><time>2026-04-18T09:27:25.95Z</time></trkpt><trkpt lat="39.61111427555152" lon="15.89461241985624"><ele>462.0</ele><time>2026-04-18T09:27:26.95Z</time></trkpt><trkpt lat="39.61118360507377" lon="15.89451875821411"><ele>462.00000000000006</ele><time>2026-04-18T09:27:27.95Z</time></trkpt><trkpt lat="39.61126617241445" lon="15.894417391931528"><ele>462.00000000000006</ele><time>2026-04-18T09:27:28.95Z</time></trkpt><trkpt lat="39.611355259584116" lon="15.894321910658038"><ele>462.0</ele><time>2026-04-18T09:27:29.95Z</time></trkpt><trkpt lat="39.611437203273645" lon="15.894249990397512"><ele>462.0</ele><time>2026-04-18T09:27:30.95Z</time></trkpt><trkpt lat="39.61152240301898" lon="15.894207543477266"><ele>462.0</ele><time>2026-04-18T09:27:31.95Z</time></trkpt><trkpt lat="39.611604176114994" lon="15.894251801265774"><ele>462.00000000000006</ele><time>2026-04-18T09:27:32.95Z</time></trkpt><trkpt lat="39.6116987819424" lon="15.894277059240194"><ele>462.00000000000006</ele><time>2026-04-18T09:27:33.95Z</time></trkpt><trkpt lat="39.611808000730726" lon="15.894271694518238"><ele>462.0</ele><time>2026-04-18T09:27:34.95Z</time></trkpt><trkpt lat="39.61191168913721" lon="15.894198501132589"><ele>462.0</ele><time>2026-04-18T09:27:35.95Z</time></trkpt><trkpt lat="39.61201812472596" lon="15.8941815591239"><ele>465.40000000000003</ele><time>2026-04-18T09:27:36.95Z</time></trkpt><trkpt lat="39.61211636218696" lon="15.894201605662294"><ele>468.80000000000007</ele><time>2026-04-18T09:27:37.95Z</time></trkpt><trkpt lat="39.612210283687865" lon="15.89425890709194"><ele>472.2</ele><time>2026-04-18T09:27:38.95Z</time></trkpt><trkpt lat="39.612318134253435" lon="15.894294961735643"><ele>475.6</ele><time>2026-04-18T09:27:39.95Z</time></trkpt><trkpt lat="39.612418281731095" lon="15.89431362909259"><ele>479.0</ele><time>2026-04-18T09:27:40.95Z</time></trkpt><trkpt lat="39.612516753792335" lon="15.894310332813571"><ele>478.99999999999994</ele><time>2026-04-18T09:27:41.95Z</time></trkpt><trkpt lat="39.612603337236685" lon="15.894334837696503"><ele>479.0</ele><time>2026-04-18T09:27:42.95Z</time></trkpt><trkpt lat="39.61267470768071" lon="15.894374364758422"><ele>479.0</ele><time>2026-04-18T09:27:43.95Z</time></trkpt><trkpt lat="39.61273753978289" lon="15.894344162040431"><ele>479.0</ele><time>2026-04-18T09:27:44.95Z</time></trkpt><trkpt lat="39.612757489619554" lon="15.894241510992131"><ele>478.99999999999994</ele><time>2026-04-18T09:27:45.95Z</time></trkpt><trkpt lat="39.612736785527666" lon="15.89415137438509"><ele>479.0</ele><time>2026-04-18T09:27:46.95Z</time></trkpt><trkpt lat="39.612664524993235" lon="15.89408702366883"><ele>471.4</ele><time>2026-04-18T09:27:47.95Z</time></trkpt><trkpt lat="39.612555618989305" lon="15.894072818587057"><ele>463.79999999999995</ele><time>2026-04-18T09:27:48.949Z</time></trkpt><trkpt lat="39.6124504881683" lon="15.894063317972558"><ele>456.20000000000005</ele><time>2026-04-18T09:27:49.949Z</time></trkpt><trkpt lat="39.612358288976274" lon="15.894030941346559"><ele>448.6</ele><time>2026-04-18T09:27:50.949Z</time></trkpt><trkpt lat="39.61227496081392" lon="15.893974846478681"><ele>441.0</ele><time>2026-04-18T09:27:51.949Z</time></trkpt><trkpt lat="39.61219579650109" lon="15.893912641561853"><ele>441.0</ele><time>2026-04-18T09:27:52.949Z</time></trkpt><trkpt lat="39.612123032860474" lon="15.893842607149681"><ele>441.0</ele><time>2026-04-18T09:27:53.949Z</time></trkpt><trkpt lat="39.61204337934574" lon="15.893769889997886"><ele>441.0</ele><time>2026-04-18T09:27:54.949Z</time></trkpt><trkpt lat="39.611947662861255" lon="15.893719339756519"><ele>441.0</ele><time>2026-04-18T09:27:55.949Z</time></trkpt><trkpt lat="39.61183074808753" lon="15.893692882967668"><ele>441.0</ele><time>2026-04-18T09:27:56.949Z</time></trkpt><trkpt lat="39.61170357421854" lon="15.893683624572692"><ele>441.6</ele><time>2026-04-18T09:27:57.949Z</time></trkpt><trkpt lat="39.61158479802942" lon="15.89366114459374"><ele>442.20000000000005</ele><time>2026-04-18T09:27:58.949Z</time></trkpt><trkpt lat="39.61147848447935" lon="15.893606583256174"><ele>442.79999999999995</ele><time>2026-04-18T09:27:59.949Z</time></trkpt><trkpt lat="39.611384506168385" lon="15.893549512536048"><ele>443.4</ele><time>2026-04-18T09:28:00.949Z</time></trkpt><trkpt lat="39.611287621044184" lon="15.893538446212425"><ele>444.0</ele><time>2026-04-18T09:28:01.949Z</time></trkpt><trkpt lat="39.61118650863428" lon="15.893584939406722"><ele>440.0</ele><time>2026-04-18T09:28:02.949Z</time></trkpt><trkpt lat="39.61108267164137" lon="15.89368724352268"><ele>436.0</ele><time>2026-04-18T09:28:03.949Z</time></trkpt><trkpt lat="39.610969851434476" lon="15.89378437320551"><ele>432.0</ele><time>2026-04-18T09:28:04.949Z</time></trkpt><trkpt lat="39.61084018431771" lon="15.893864802264632"><ele>428.0</ele><time>2026-04-18T09:28:05.949Z</time></trkpt><trkpt lat="39.610702943897785" lon="15.893926715275203"><ele>428.0</ele><time>2026-04-18T09:28:06.949Z</time></trkpt><trkpt lat="39.610566441208505" lon="15.893975773489439"><ele>428.0</ele><time>2026-04-18T09:28:07.949Z</time></trkpt><trkpt lat="39.61043876716829" lon="15.894021922356199"><ele>428.0</ele><time>2026-04-18T09:28:08.949Z</time></trkpt><trkpt lat="39.61031659785719" lon="15.894075624428604"><ele>428.0</ele><time>2026-04-18T09:28:09.949Z</time></trkpt><trkpt lat="39.61019816061171" lon="15.89413489270019"><ele>422.75</ele><time>2026-04-18T09:28:10.949Z</time></trkpt><trkpt lat="39.61007923282941" lon="15.894170611205745"><ele>417.5</ele><time>2026-04-18T09:28:11.949Z</time></trkpt><trkpt lat="39.609955117348264" lon="15.894174247261564"><ele>412.25</ele><time>2026-04-18T09:28:12.949Z</time></trkpt><trkpt lat="39.609821814360416" lon="15.89414326903134"><ele>407.0</ele><time>2026-04-18T09:28:13.949Z</time></trkpt><trkpt lat="39.609697815458624" lon="15.894098196222116"><ele>407.0</ele><time>2026-04-18T09:28:14.949Z</time></trkpt><trkpt lat="39.60956726369403" lon="15.894069858669011"><ele>407.0</ele><time>2026-04-18T09:28:15.949Z</time></trkpt><trkpt lat="39.60944427219233" lon="15.894045590153356"><ele>407.0</ele><time>2026-04-18T09:28:16.949Z</time></trkpt><trkpt lat="39.60932660485038" lon="15.894021598950822"><ele>407.0</ele><time>2026-04-18T09:28:17.949Z</time></trkpt><trkpt lat="39.60920858312595" lon="15.893999877062356"><ele>406.0</ele><time>2026-04-18T09:28:18.95Z</time></trkpt><trkpt lat="39.609091719913444" lon="15.893987155969068"><ele>405.0</ele><time>2026-04-18T09:28:19.95Z</time></trkpt><trkpt lat="39.608985110936814" lon="15.893974062354332"><ele>404.0</ele><time>2026-04-18T09:28:20.95Z</time></trkpt><trkpt lat="39.60889025446773" lon="15.893951334384111"><ele>403.0</ele><time>2026-04-18T09:28:21.95Z</time></trkpt><trkpt lat="39.6088150324195" lon="15.893909036492419"><ele>402.0</ele><time>2026-04-18T09:28:22.95Z</time></trkpt><trkpt lat="39.60875018875526" lon="15.89385032301553"><ele>402.0</ele><time>2026-04-18T09:28:23.95Z</time></trkpt><trkpt lat="39.60870608615853" lon="15.893777531975317"><ele>402.0</ele><time>2026-04-18T09:28:24.95Z</time></trkpt><trkpt lat="39.60869706996283" lon="15.893696315509844"><ele>402.0</ele><time>2026-04-18T09:28:25.95Z</time></trkpt><trkpt lat="39.608732453624306" lon="15.893623518893"><ele>402.0</ele><time>2026-04-18T09:28:26.95Z</time></trkpt><trkpt lat="39.608801889325086" lon="15.893615251524762"><ele>402.0</ele><time>2026-04-18T09:28:27.95Z</time></trkpt><trkpt lat="39.60886542117844" lon="15.8936649615878"><ele>402.0</ele><time>2026-04-18T09:28:28.95Z</time></trkpt><trkpt lat="39.60889150844557" lon="15.893795225926967"><ele>402.0</ele><time>2026-04-18T09:28:29.95Z</time></trkpt><trkpt lat="39.60895447882129" lon="15.893856713858469"><ele>402.0</ele><time>2026-04-18T09:28:30.95Z</time></trkpt><trkpt lat="39.609045123194896" lon="15.89390332109333"><ele>402.0</ele><time>2026-04-18T09:28:31.95Z</time></trkpt><trkpt lat="39.60915330869458" lon="15.89389386134151"><ele>402.0</ele><time>2026-04-18T09:28:32.95Z</time></trkpt><trkpt lat="39.60926071662622" lon="15.893877773756255"><ele>402.0</ele><time>2026-04-18T09:28:33.95Z</time></trkpt><trkpt lat="39.609374349301135" lon="15.893861503756474"><ele>402.0</ele><time>2026-04-18T09:28:34.95Z</time></trkpt><trkpt lat="39.609486210136964" lon="15.893845719278453"><ele>403.0</ele><time>2026-04-18T09:28:35.95Z</time></trkpt><trkpt lat="39.609593066936235" lon="15.893835449075391"><ele>404.0</ele><time>2026-04-18T09:28:36.95Z</time></trkpt><trkpt lat="39.609700016819595" lon="15.89381987827713"><ele>405.0</ele><time>2026-04-18T09:28:37.95Z</time></trkpt><trkpt lat="39.60979637969521" lon="15.893751800752474"><ele>406.0</ele><time>2026-04-18T09:28:38.95Z</time></trkpt><trkpt lat="39.60989928798954" lon="15.893676803535017"><ele>407.0</ele><time>2026-04-18T09:28:39.95Z</time></trkpt><trkpt lat="39.610007498271585" lon="15.893603006479456"><ele>407.0</ele><time>2026-04-18T09:28:40.95Z</time></trkpt><trkpt lat="39.610113073971824" lon="15.893505484338244"><ele>407.0</ele><time>2026-04-18T09:28:41.95Z</time></trkpt><trkpt lat="39.61022223164969" lon="15.89340292728949"><ele>407.0</ele><time>2026-04-18T09:28:42.95Z</time></trkpt><trkpt lat="39.61032876733133" lon="15.893302083131472"><ele>407.0</ele><time>2026-04-18T09:28:43.95Z</time></trkpt><trkpt lat="39.610429493116385" lon="15.893206411679579"><ele>407.25</ele><time>2026-04-18T09:28:44.95Z</time></trkpt><trkpt lat="39.61052868889357" lon="15.893110519427962"><ele>407.5</ele><time>2026-04-18T09:28:45.95Z</time></trkpt><trkpt lat="39.61062816419353" lon="15.893015718560404"><ele>407.75</ele><time>2026-04-18T09:28:46.95Z</time></trkpt><trkpt lat="39.61072583197667" lon="15.892923290091574"><ele>408.0</ele><time>2026-04-18T09:28:47.95Z</time></trkpt><trkpt lat="39.61082072951078" lon="15.892831460236842"><ele>408.0</ele><time>2026-04-18T09:28:48.95Z</time></trkpt><trkpt lat="39.61091070117592" lon="15.892746390107403"><ele>408.0</ele><time>2026-04-18T09:28:49.95Z</time></trkpt><trkpt lat="39.61100249027193" lon="15.892680425119384"><ele>408.0</ele><time>2026-04-18T09:28:50.95Z</time></trkpt><trkpt lat="39.611100127433915" lon="15.892654823766666"><ele>408.0</ele><time>2026-04-18T09:28:51.95Z</time></trkpt><trkpt lat="39.61120377110131" lon="15.892652852569764"><ele>408.0</ele><time>2026-04-18T09:28:52.95Z</time></trkpt><trkpt lat="39.61132460499586" lon="15.89265361757582"><ele>408.2</ele><time>2026-04-18T09:28:53.95Z</time></trkpt><trkpt lat="39.6114368389467" lon="15.892680765898403"><ele>408.4</ele><time>2026-04-18T09:28:54.95Z</time></trkpt><trkpt lat="39.61152357878664" lon="15.892749958926048"><ele>408.59999999999997</ele><time>2026-04-18T09:28:55.95Z</time></trkpt><trkpt lat="39.611609175685395" lon="15.892831231078022"><ele>408.79999999999995</ele><time>2026-04-18T09:28:56.95Z</time></trkpt><trkpt lat="39.61169162853084" lon="15.89290094633278"><ele>409.0</ele><time>2026-04-18T09:28:57.95Z</time></trkpt><trkpt lat="39.611778899655704" lon="15.892945920829897"><ele>409.0</ele><time>2026-04-18T09:28:58.95Z</time></trkpt><trkpt lat="39.611880752980035" lon="15.892937462758052"><ele>409.0</ele><time>2026-04-18T09:28:59.95Z</time></trkpt><trkpt lat="39.6119624855057" lon="15.892857657993128"><ele>409.0</ele><time>2026-04-18T09:29:00.95Z</time></trkpt><trkpt lat="39.61202089541448" lon="15.892749199246257"><ele>409.0</ele><time>2026-04-18T09:29:01.95Z</time></trkpt><trkpt lat="39.61204824110825" lon="15.892631058814095"><ele>409.0</ele><time>2026-04-18T09:29:02.95Z</time></trkpt><trkpt lat="39.61204664290923" lon="15.89248412592025"><ele>407.25</ele><time>2026-04-18T09:29:03.95Z</time></trkpt><trkpt lat="39.612062160315126" lon="15.892315444615203"><ele>405.5</ele><time>2026-04-18T09:29:04.95Z</time></trkpt><trkpt lat="39.612126413151934" lon="15.892172278517718"><ele>403.75</ele><time>2026-04-18T09:29:05.95Z</time></trkpt><trkpt lat="39.612190620510816" lon="15.892043660788145"><ele>402.0</ele><time>2026-04-18T09:29:06.949Z</time></trkpt><trkpt lat="39.612248765487195" lon="15.891930141344533"><ele>402.0</ele><time>2026-04-18T09:29:07.949Z</time></trkpt><trkpt lat="39.61229775918664" lon="15.891835893854266"><ele>402.0</ele><time>2026-04-18T09:29:08.949Z</time></trkpt><trkpt lat="39.612325213753245" lon="15.891745241362793"><ele>402.0</ele><time>2026-04-18T09:29:09.949Z</time></trkpt><trkpt lat="39.612301229049336" lon="15.891666293786413"><ele>402.0</ele><time>2026-04-18T09:29:10.949Z</time></trkpt><trkpt lat="39.612245123648904" lon="15.891620832263788"><ele>402.0</ele><time>2026-04-18T09:29:11.949Z</time></trkpt><trkpt lat="39.6121244036624" lon="15.891738800505834"><ele>402.0</ele><time>2026-04-18T09:29:13.949Z</time></trkpt><trkpt lat="39.61209406462402" lon="15.891866685260052"><ele>402.0</ele><time>2026-04-18T09:29:14.949Z</time></trkpt><trkpt lat="39.61204321113999" lon="15.891975119361415"><ele>402.0</ele><time>2026-04-18T09:29:15.949Z</time></trkpt><trkpt lat="39.611969699393" lon="15.892070692340448"><ele>402.0</ele><time>2026-04-18T09:29:16.949Z</time></trkpt><trkpt lat="39.611865477947084" lon="15.89217092233607"><ele>402.0</ele><time>2026-04-18T09:29:17.949Z</time></trkpt><trkpt lat="39.61176667548793" lon="15.892245448759352"><ele>402.0</ele><time>2026-04-18T09:29:18.949Z</time></trkpt><trkpt lat="39.61166254768472" lon="15.892300493381791"><ele>397.5</ele><time>2026-04-18T09:29:19.949Z</time></trkpt><trkpt lat="39.611555398817366" lon="15.892317550187789"><ele>393.0</ele><time>2026-04-18T09:29:20.949Z</time></trkpt><trkpt lat="39.61144562843797" lon="15.89228393175846"><ele>388.5</ele><time>2026-04-18T09:29:21.949Z</time></trkpt><trkpt lat="39.611329527383766" lon="15.89221359780859"><ele>384.0</ele><time>2026-04-18T09:29:22.949Z</time></trkpt><trkpt lat="39.61120861652193" lon="15.89216580361085"><ele>382.5</ele><time>2026-04-18T09:29:23.949Z</time></trkpt><trkpt lat="39.61108732656169" lon="15.89214137775787"><ele>381.0</ele><time>2026-04-18T09:29:24.949Z</time></trkpt><trkpt lat="39.610968977955565" lon="15.892120451154527"><ele>379.5</ele><time>2026-04-18T09:29:25.949Z</time></trkpt><trkpt lat="39.610849576214015" lon="15.892107043943748"><ele>378.0</ele><time>2026-04-18T09:29:26.949Z</time></trkpt><trkpt lat="39.61073158241219" lon="15.892111708576477"><ele>378.0</ele><time>2026-04-18T09:29:27.949Z</time></trkpt><trkpt lat="39.61062024677067" lon="15.89213290952127"><ele>378.0</ele><time>2026-04-18T09:29:28.949Z</time></trkpt><trkpt lat="39.61050911524005" lon="15.892163782864971"><ele>378.0</ele><time>2026-04-18T09:29:29.949Z</time></trkpt><trkpt lat="39.61039824672223" lon="15.892169376456513"><ele>378.0</ele><time>2026-04-18T09:29:30.949Z</time></trkpt><trkpt lat="39.61029737003075" lon="15.892141516085394"><ele>378.0</ele><time>2026-04-18T09:29:31.949Z</time></trkpt><trkpt lat="39.610216460444505" lon="15.8921007921776"><ele>377.4</ele><time>2026-04-18T09:29:32.949Z</time></trkpt><trkpt lat="39.61015466669099" lon="15.892020531380215"><ele>376.79999999999995</ele><time>2026-04-18T09:29:33.949Z</time></trkpt><trkpt lat="39.61012322453725" lon="15.891902296330052"><ele>376.2</ele><time>2026-04-18T09:29:34.949Z</time></trkpt><trkpt lat="39.6101054613934" lon="15.89174738487759"><ele>375.6</ele><time>2026-04-18T09:29:35.949Z</time></trkpt><trkpt lat="39.610099475735254" lon="15.891585107227371"><ele>375.0</ele><time>2026-04-18T09:29:36.949Z</time></trkpt><trkpt lat="39.610104954956064" lon="15.891421059724706"><ele>371.75</ele><time>2026-04-18T09:29:37.949Z</time></trkpt><trkpt lat="39.61011705607093" lon="15.891236219048777"><ele>368.5</ele><time>2026-04-18T09:29:38.949Z</time></trkpt><trkpt lat="39.61013671625889" lon="15.891049279404173"><ele>365.25</ele><time>2026-04-18T09:29:39.949Z</time></trkpt><trkpt lat="39.610161595455004" lon="15.89087142655954"><ele>362.0</ele><time>2026-04-18T09:29:40.949Z</time></trkpt><trkpt lat="39.610182664203386" lon="15.890701043769626"><ele>360.25</ele><time>2026-04-18T09:29:41.949Z</time></trkpt><trkpt lat="39.61019413590695" lon="15.890531723742264"><ele>358.5</ele><time>2026-04-18T09:29:42.949Z</time></trkpt><trkpt lat="39.610187205411414" lon="15.890365888906228"><ele>356.75</ele><time>2026-04-18T09:29:43.949Z</time></trkpt><trkpt lat="39.61016179563001" lon="15.89020785104436"><ele>355.0</ele><time>2026-04-18T09:29:44.949Z</time></trkpt><trkpt lat="39.61013222422437" lon="15.890048796069697"><ele>353.5</ele><time>2026-04-18T09:29:45.949Z</time></trkpt><trkpt lat="39.61010263518404" lon="15.88987719475045"><ele>352.0</ele><time>2026-04-18T09:29:46.949Z</time></trkpt><trkpt lat="39.61006850884366" lon="15.889722038255368"><ele>350.5</ele><time>2026-04-18T09:29:47.949Z</time></trkpt><trkpt lat="39.61001994131024" lon="15.88957557956041"><ele>349.0</ele><time>2026-04-18T09:29:48.949Z</time></trkpt><trkpt lat="39.60996697447548" lon="15.889431034538413"><ele>349.0</ele><time>2026-04-18T09:29:49.949Z</time></trkpt><trkpt lat="39.60993056897941" lon="15.889282297967684"><ele>349.0</ele><time>2026-04-18T09:29:50.949Z</time></trkpt><trkpt lat="39.6099527212439" lon="15.889122976051484"><ele>349.0</ele><time>2026-04-18T09:29:51.949Z</time></trkpt><trkpt lat="39.60996865967651" lon="15.888956126445965"><ele>349.0</ele><time>2026-04-18T09:29:52.949Z</time></trkpt><trkpt lat="39.61000497178441" lon="15.888786042871521"><ele>347.5</ele><time>2026-04-18T09:29:53.949Z</time></trkpt><trkpt lat="39.61002707417195" lon="15.888623238613365"><ele>346.0</ele><time>2026-04-18T09:29:54.949Z</time></trkpt><trkpt lat="39.610046068354485" lon="15.888464417904812"><ele>344.5</ele><time>2026-04-18T09:29:55.949Z</time></trkpt><trkpt lat="39.6100804480328" lon="15.888313687604873"><ele>343.0</ele><time>2026-04-18T09:29:56.949Z</time></trkpt><trkpt lat="39.610141550844666" lon="15.888168356349727"><ele>343.25</ele><time>2026-04-18T09:29:57.949Z</time></trkpt><trkpt lat="39.61020840175894" lon="15.888033241753579"><ele>343.5</ele><time>2026-04-18T09:29:58.949Z</time></trkpt><trkpt lat="39.61025067494431" lon="15.887885814126454"><ele>343.75</ele><time>2026-04-18T09:29:59.949Z</time></trkpt><trkpt lat="39.6102528753184" lon="15.887713069932259"><ele>344.0</ele><time>2026-04-18T09:30:00.949Z</time></trkpt><trkpt lat="39.61023219548095" lon="15.88751116158081"><ele>344.0</ele><time>2026-04-18T09:30:01.949Z</time></trkpt><trkpt lat="39.610217801988796" lon="15.887314062282647"><ele>344.0</ele><time>2026-04-18T09:30:02.949Z</time></trkpt><trkpt lat="39.610219048827155" lon="15.88711526068466"><ele>344.0</ele><time>2026-04-18T09:30:03.949Z</time></trkpt><trkpt lat="39.61022137217455" lon="15.886923976051966"><ele>344.0</ele><time>2026-04-18T09:30:04.949Z</time></trkpt><trkpt lat="39.61022081271721" lon="15.886739489224615"><ele>344.0</ele><time>2026-04-18T09:30:05.949Z</time></trkpt><trkpt lat="39.610217919472355" lon="15.88655408426357"><ele>344.0</ele><time>2026-04-18T09:30:06.949Z</time></trkpt><trkpt lat="39.6102177001634" lon="15.886379221406889"><ele>344.0</ele><time>2026-04-18T09:30:07.949Z</time></trkpt><trkpt lat="39.610262309422836" lon="15.886219924656674"><ele>344.0</ele><time>2026-04-18T09:30:08.949Z</time></trkpt><trkpt lat="39.61030050611064" lon="15.886065005344411"><ele>344.0</ele><time>2026-04-18T09:30:09.949Z</time></trkpt><trkpt lat="39.61034664704458" lon="15.88594673780431"><ele>344.0</ele><time>2026-04-18T09:30:10.949Z</time></trkpt><trkpt lat="39.61035718685587" lon="15.885817186527332"><ele>344.0</ele><time>2026-04-18T09:30:11.949Z</time></trkpt><trkpt lat="39.6103193554136" lon="15.885675773992535"><ele>344.0</ele><time>2026-04-18T09:30:12.949Z</time></trkpt><trkpt lat="39.610265728744686" lon="15.885530017564879"><ele>342.79999999999995</ele><time>2026-04-18T09:30:13.949Z</time></trkpt><trkpt lat="39.61022677969899" lon="15.885397844267734"><ele>341.59999999999997</ele><time>2026-04-18T09:30:14.949Z</time></trkpt><trkpt lat="39.610219150171964" lon="15.885265005858336"><ele>340.4</ele><time>2026-04-18T09:30:15.949Z</time></trkpt><trkpt lat="39.61026284472764" lon="15.885138825677528"><ele>339.2</ele><time>2026-04-18T09:30:16.949Z</time></trkpt><trkpt lat="39.61029151324768" lon="15.884996380172128"><ele>338.0</ele><time>2026-04-18T09:30:17.949Z</time></trkpt><trkpt lat="39.61034480412893" lon="15.884850184147485"><ele>330.75</ele><time>2026-04-18T09:30:18.949Z</time></trkpt><trkpt lat="39.610389468602115" lon="15.884683370202243"><ele>323.5</ele><time>2026-04-18T09:30:19.949Z</time></trkpt><trkpt lat="39.610430713840486" lon="15.884502475935758"><ele>316.25</ele><time>2026-04-18T09:30:20.949Z</time></trkpt><trkpt lat="39.610474218590646" lon="15.88432794727146"><ele>309.0</ele><time>2026-04-18T09:30:21.949Z</time></trkpt><trkpt lat="39.61051694192608" lon="15.884161620568298"><ele>309.0</ele><time>2026-04-18T09:30:22.949Z</time></trkpt><trkpt lat="39.610554889710194" lon="15.883996426848658"><ele>309.0</ele><time>2026-04-18T09:30:23.949Z</time></trkpt><trkpt lat="39.61059607959908" lon="15.883839951778775"><ele>309.0</ele><time>2026-04-18T09:30:24.949Z</time></trkpt><trkpt lat="39.6106608024194" lon="15.8836923170993"><ele>309.0</ele><time>2026-04-18T09:30:25.949Z</time></trkpt><trkpt lat="39.61076639308089" lon="15.883582336823531"><ele>309.0</ele><time>2026-04-18T09:30:26.949Z</time></trkpt><trkpt lat="39.610847950584926" lon="15.88344719905767"><ele>309.0</ele><time>2026-04-18T09:30:27.949Z</time></trkpt><trkpt lat="39.61095347501388" lon="15.883358928555975"><ele>309.0</ele><time>2026-04-18T09:30:28.949Z</time></trkpt><trkpt lat="39.611049467896734" lon="15.883260915634587"><ele>309.0</ele><time>2026-04-18T09:30:29.949Z</time></trkpt><trkpt lat="39.6111688891845" lon="15.883250291512253"><ele>306.59999999999997</ele><time>2026-04-18T09:30:30.949Z</time></trkpt><trkpt lat="39.61125338796981" lon="15.8831866307315"><ele>304.2</ele><time>2026-04-18T09:30:31.949Z</time></trkpt><trkpt lat="39.61131818022848" lon="15.883108179777741"><ele>301.79999999999995</ele><time>2026-04-18T09:30:32.949Z</time></trkpt><trkpt lat="39.611351465436826" lon="15.882979441448137"><ele>299.4</ele><time>2026-04-18T09:30:33.949Z</time></trkpt><trkpt lat="39.61136078058514" lon="15.882821452867367"><ele>297.0</ele><time>2026-04-18T09:30:34.949Z</time></trkpt><trkpt lat="39.6113523837784" lon="15.882662585190179"><ele>296.25</ele><time>2026-04-18T09:30:35.949Z</time></trkpt><trkpt lat="39.61133202424596" lon="15.882494207951583"><ele>295.5</ele><time>2026-04-18T09:30:36.949Z</time></trkpt><trkpt lat="39.611326237243965" lon="15.882314835153894"><ele>294.75</ele><time>2026-04-18T09:30:37.949Z</time></trkpt><trkpt lat="39.61132930229473" lon="15.882143764836686"><ele>294.0</ele><time>2026-04-18T09:30:38.949Z</time></trkpt><trkpt lat="39.61132748461058" lon="15.881980505608388"><ele>294.0</ele><time>2026-04-18T09:30:39.949Z</time></trkpt><trkpt lat="39.611322290906784" lon="15.881823042008028"><ele>294.0</ele><time>2026-04-18T09:30:40.949Z</time></trkpt><trkpt lat="39.61131605884342" lon="15.881681737585268"><ele>294.0</ele><time>2026-04-18T09:30:41.949Z</time></trkpt><trkpt lat="39.61131844588639" lon="15.881550436376735"><ele>294.0</ele><time>2026-04-18T09:30:42.949Z</time></trkpt><trkpt lat="39.611346782113" lon="15.881431378531348"><ele>294.0</ele><time>2026-04-18T09:30:43.949Z</time></trkpt><trkpt lat="39.61142360853072" lon="15.88135899873903"><ele>293.8</ele><time>2026-04-18T09:30:44.949Z</time></trkpt><trkpt lat="39.61151070079217" lon="15.881312098305383"><ele>293.59999999999997</ele><time>2026-04-18T09:30:45.949Z</time></trkpt><trkpt lat="39.611596899096654" lon="15.88123912808181"><ele>293.4</ele><time>2026-04-18T09:30:46.949Z</time></trkpt><trkpt lat="39.611676754705876" lon="15.881181235515687"><ele>293.2</ele><time>2026-04-18T09:30:47.949Z</time></trkpt><trkpt lat="39.61173795057813" lon="15.881090882447754"><ele>293.0</ele><time>2026-04-18T09:30:48.949Z</time></trkpt><trkpt lat="39.6117638681968" lon="15.880962239832352"><ele>294.0</ele><time>2026-04-18T09:30:49.949Z</time></trkpt><trkpt lat="39.61177393200368" lon="15.880812192623297"><ele>295.0</ele><time>2026-04-18T09:30:50.949Z</time></trkpt><trkpt lat="39.61178223353221" lon="15.880653710619505"><ele>296.0</ele><time>2026-04-18T09:30:51.949Z</time></trkpt><trkpt lat="39.61180050570286" lon="15.880503702029575"><ele>297.0</ele><time>2026-04-18T09:30:52.949Z</time></trkpt><trkpt lat="39.611822184141246" lon="15.880360044622014"><ele>297.0</ele><time>2026-04-18T09:30:53.949Z</time></trkpt><trkpt lat="39.61183083782905" lon="15.880222355952261"><ele>297.0</ele><time>2026-04-18T09:30:54.949Z</time></trkpt><trkpt lat="39.611812942617526" lon="15.880097448776759"><ele>297.0</ele><time>2026-04-18T09:30:55.949Z</time></trkpt><trkpt lat="39.61177904510219" lon="15.879988607782387"><ele>297.0</ele><time>2026-04-18T09:30:56.949Z</time></trkpt><trkpt lat="39.611719544843105" lon="15.879914896623623"><ele>297.0</ele><time>2026-04-18T09:30:57.949Z</time></trkpt><trkpt lat="39.61162958328321" lon="15.879886235066014"><ele>294.75</ele><time>2026-04-18T09:30:58.949Z</time></trkpt><trkpt lat="39.61151940595928" lon="15.879904648625443"><ele>292.5</ele><time>2026-04-18T09:30:59.949Z</time></trkpt><trkpt lat="39.61141163024937" lon="15.879945547182077"><ele>290.25</ele><time>2026-04-18T09:31:00.949Z</time></trkpt><trkpt lat="39.61129422209152" lon="15.87997692783609"><ele>288.0</ele><time>2026-04-18T09:31:01.949Z</time></trkpt><trkpt lat="39.61116651467619" lon="15.87999143725618"><ele>287.75</ele><time>2026-04-18T09:31:02.949Z</time></trkpt><trkpt lat="39.61103314800437" lon="15.880000867083101"><ele>287.5</ele><time>2026-04-18T09:31:03.949Z</time></trkpt><trkpt lat="39.61090200580845" lon="15.880007430742719"><ele>287.25</ele><time>2026-04-18T09:31:04.949Z</time></trkpt><trkpt lat="39.610779829157416" lon="15.88001760858921"><ele>287.0</ele><time>2026-04-18T09:31:05.949Z</time></trkpt><trkpt lat="39.6106577213579" lon="15.880028959583592"><ele>287.0</ele><time>2026-04-18T09:31:06.949Z</time></trkpt><trkpt lat="39.61055376238806" lon="15.880024802972263"><ele>287.0</ele><time>2026-04-18T09:31:07.949Z</time></trkpt><trkpt lat="39.61045918551662" lon="15.87998691372066"><ele>287.0</ele><time>2026-04-18T09:31:08.949Z</time></trkpt><trkpt lat="39.610375723643386" lon="15.879905025711377"><ele>287.0</ele><time>2026-04-18T09:31:09.949Z</time></trkpt><trkpt lat="39.61030178262091" lon="15.879783881861066"><ele>287.0</ele><time>2026-04-18T09:31:10.949Z</time></trkpt><trkpt lat="39.61023436448567" lon="15.879652277174106"><ele>287.5</ele><time>2026-04-18T09:31:11.949Z</time></trkpt><trkpt lat="39.61017441957469" lon="15.87952771457539"><ele>288.0</ele><time>2026-04-18T09:31:12.949Z</time></trkpt><trkpt lat="39.6101339801711" lon="15.879395861587739"><ele>288.5</ele><time>2026-04-18T09:31:13.949Z</time></trkpt><trkpt lat="39.610130101936626" lon="15.879233356894627"><ele>289.0</ele><time>2026-04-18T09:31:14.949Z</time></trkpt><trkpt lat="39.61016721251943" lon="15.879057210867684"><ele>287.5</ele><time>2026-04-18T09:31:15.948Z</time></trkpt><trkpt lat="39.61020298320429" lon="15.878882235803498"><ele>286.0</ele><time>2026-04-18T09:31:16.948Z</time></trkpt><trkpt lat="39.61023101124395" lon="15.878712766096752"><ele>284.5</ele><time>2026-04-18T09:31:17.948Z</time></trkpt><trkpt lat="39.610257178629396" lon="15.878553922816353"><ele>283.0</ele><time>2026-04-18T09:31:18.948Z</time></trkpt><trkpt lat="39.61029481561207" lon="15.878404802968523"><ele>279.0</ele><time>2026-04-18T09:31:19.948Z</time></trkpt><trkpt lat="39.610351516937385" lon="15.878264653441677"><ele>275.0</ele><time>2026-04-18T09:31:20.948Z</time></trkpt><trkpt lat="39.61040569331721" lon="15.878128330207534"><ele>271.0</ele><time>2026-04-18T09:31:21.948Z</time></trkpt><trkpt lat="39.61043999610222" lon="15.877989132192448"><ele>267.0</ele><time>2026-04-18T09:31:22.948Z</time></trkpt><trkpt lat="39.610465501982425" lon="15.877837143385053"><ele>267.0</ele><time>2026-04-18T09:31:23.948Z</time></trkpt><trkpt lat="39.610509096849256" lon="15.87769938433916"><ele>267.0</ele><time>2026-04-18T09:31:24.948Z</time></trkpt><trkpt lat="39.61058339391462" lon="15.877576813413464"><ele>267.0</ele><time>2026-04-18T09:31:25.948Z</time></trkpt><trkpt lat="39.6106681956176" lon="15.877468842901047"><ele>267.0</ele><time>2026-04-18T09:31:26.948Z</time></trkpt><trkpt lat="39.61073943202572" lon="15.87738047361283"><ele>267.4</ele><time>2026-04-18T09:31:27.948Z</time></trkpt><trkpt lat="39.610797654159256" lon="15.87728933300844"><ele>267.79999999999995</ele><time>2026-04-18T09:31:28.948Z</time></trkpt><trkpt lat="39.610833434516465" lon="15.877189846361386"><ele>268.2</ele><time>2026-04-18T09:31:29.948Z</time></trkpt><trkpt lat="39.610851574172784" lon="15.877087754864233"><ele>268.59999999999997</ele><time>2026-04-18T09:31:30.948Z</time></trkpt><trkpt lat="39.61083002757516" lon="15.876971308443272"><ele>269.0</ele><time>2026-04-18T09:31:31.948Z</time></trkpt><trkpt lat="39.6107745459778" lon="15.876853616685164"><ele>268.0</ele><time>2026-04-18T09:31:32.948Z</time></trkpt><trkpt lat="39.610713014014024" lon="15.876731091814033"><ele>267.0</ele><time>2026-04-18T09:31:33.948Z</time></trkpt><trkpt lat="39.6106827079898" lon="15.876582380806722"><ele>266.0</ele><time>2026-04-18T09:31:34.948Z</time></trkpt><trkpt lat="39.61067622981223" lon="15.876413541449223"><ele>265.0</ele><time>2026-04-18T09:31:35.948Z</time></trkpt><trkpt lat="39.61069261156757" lon="15.876243318697075"><ele>265.0</ele><time>2026-04-18T09:31:36.948Z</time></trkpt><trkpt lat="39.61073056222906" lon="15.876090789332691"><ele>265.0</ele><time>2026-04-18T09:31:37.948Z</time></trkpt><trkpt lat="39.610775923455144" lon="15.87596423683585"><ele>265.0</ele><time>2026-04-18T09:31:38.948Z</time></trkpt><trkpt lat="39.61080795038802" lon="15.875855695576808"><ele>265.0</ele><time>2026-04-18T09:31:39.948Z</time></trkpt><trkpt lat="39.610807256764005" lon="15.87575467724338"><ele>265.0</ele><time>2026-04-18T09:31:40.948Z</time></trkpt><trkpt lat="39.610761324201256" lon="15.875660453061338"><ele>264.6</ele><time>2026-04-18T09:31:41.948Z</time></trkpt><trkpt lat="39.61069183373459" lon="15.875579095512405"><ele>264.2</ele><time>2026-04-18T09:31:42.948Z</time></trkpt><trkpt lat="39.61060508195037" lon="15.875500921941802"><ele>263.8</ele><time>2026-04-18T09:31:43.948Z</time></trkpt><trkpt lat="39.61051719446787" lon="15.875408297252894"><ele>263.4</ele><time>2026-04-18T09:31:44.948Z</time></trkpt><trkpt lat="39.61044342795164" lon="15.87528646212614"><ele>263.0</ele><time>2026-04-18T09:31:45.948Z</time></trkpt><trkpt lat="39.61038099622193" lon="15.87515629690494"><ele>262.0</ele><time>2026-04-18T09:31:46.948Z</time></trkpt><trkpt lat="39.610381198211456" lon="15.875016482879778"><ele>261.0</ele><time>2026-04-18T09:31:47.948Z</time></trkpt><trkpt lat="39.61037823815595" lon="15.87487153181463"><ele>260.0</ele><time>2026-04-18T09:31:48.948Z</time></trkpt><trkpt lat="39.6103731327071" lon="15.87474467051827"><ele>259.0</ele><time>2026-04-18T09:31:49.948Z</time></trkpt><trkpt lat="39.61033371477195" lon="15.874648438790532"><ele>258.0</ele><time>2026-04-18T09:31:50.948Z</time></trkpt><trkpt lat="39.61025711510698" lon="15.87458401910627"><ele>257.8</ele><time>2026-04-18T09:31:51.948Z</time></trkpt><trkpt lat="39.61015002223937" lon="15.874570126819588"><ele>257.6</ele><time>2026-04-18T09:31:52.948Z</time></trkpt><trkpt lat="39.61003608723065" lon="15.874569351942048"><ele>257.4</ele><time>2026-04-18T09:31:53.948Z</time></trkpt><trkpt lat="39.60993418003743" lon="15.874559074093561"><ele>257.2</ele><time>2026-04-18T09:31:54.948Z</time></trkpt><trkpt lat="39.60984289450413" lon="15.874587077502191"><ele>257.0</ele><time>2026-04-18T09:31:55.948Z</time></trkpt><trkpt lat="39.60977100923368" lon="15.874624429102942"><ele>257.0</ele><time>2026-04-18T09:31:56.948Z</time></trkpt><trkpt lat="39.60971883144991" lon="15.874681928201133"><ele>257.0</ele><time>2026-04-18T09:31:57.948Z</time></trkpt><trkpt lat="39.60970004390793" lon="15.874775206122502"><ele>257.0</ele><time>2026-04-18T09:31:58.948Z</time></trkpt><trkpt lat="39.60969645816525" lon="15.874891098509329"><ele>257.0</ele><time>2026-04-18T09:31:59.948Z</time></trkpt><trkpt lat="39.609735054754914" lon="15.875017184703516"><ele>257.0</ele><time>2026-04-18T09:32:00.948Z</time></trkpt><trkpt lat="39.609766946235126" lon="15.87511032518074"><ele>257.0</ele><time>2026-04-18T09:32:01.948Z</time></trkpt><trkpt lat="39.60979137362091" lon="15.875186999022711"><ele>257.0</ele><time>2026-04-18T09:32:02.948Z</time></trkpt><trkpt lat="39.60978453060923" lon="15.875300736919623"><ele>257.0</ele><time>2026-04-18T09:32:04.948Z</time></trkpt><trkpt lat="39.60971952248723" lon="15.875295658521049"><ele>257.0</ele><time>2026-04-18T09:32:05.948Z</time></trkpt><trkpt lat="39.60967269314735" lon="15.87523414576294"><ele>257.0</ele><time>2026-04-18T09:32:06.948Z</time></trkpt><trkpt lat="39.609657896204524" lon="15.875122746421692"><ele>257.0</ele><time>2026-04-18T09:32:07.948Z</time></trkpt><trkpt lat="39.60964271167814" lon="15.874999387380662"><ele>257.0</ele><time>2026-04-18T09:32:08.948Z</time></trkpt><trkpt lat="39.609619877119464" lon="15.874860106636316"><ele>257.0</ele><time>2026-04-18T09:32:09.947Z</time></trkpt><trkpt lat="39.60959000256553" lon="15.874714634196192"><ele>257.0</ele><time>2026-04-18T09:32:10.947Z</time></trkpt><trkpt lat="39.6095663903277" lon="15.87456511371404"><ele>257.0</ele><time>2026-04-18T09:32:11.947Z</time></trkpt><trkpt lat="39.60954634241351" lon="15.874423181645158"><ele>257.0</ele><time>2026-04-18T09:32:12.947Z</time></trkpt><trkpt lat="39.60953228042015" lon="15.874289716697849"><ele>257.0</ele><time>2026-04-18T09:32:13.947Z</time></trkpt><trkpt lat="39.60957576391536" lon="15.874171059883766"><ele>255.0</ele><time>2026-04-18T09:32:14.947Z</time></trkpt><trkpt lat="39.60964032236443" lon="15.874085694090361"><ele>253.0</ele><time>2026-04-18T09:32:15.947Z</time></trkpt><trkpt lat="39.60972703669161" lon="15.874081149562384"><ele>251.0</ele><time>2026-04-18T09:32:16.947Z</time></trkpt><trkpt lat="39.60983838069725" lon="15.874025755238327"><ele>249.0</ele><time>2026-04-18T09:32:17.947Z</time></trkpt><trkpt lat="39.60994503369728" lon="15.873955670461966"><ele>247.0</ele><time>2026-04-18T09:32:18.947Z</time></trkpt><trkpt lat="39.610034964630536" lon="15.873871792454826"><ele>247.0</ele><time>2026-04-18T09:32:19.947Z</time></trkpt><trkpt lat="39.61010407597978" lon="15.873749221014693"><ele>247.0</ele><time>2026-04-18T09:32:20.947Z</time></trkpt><trkpt lat="39.610170555775596" lon="15.873631061027856"><ele>247.0</ele><time>2026-04-18T09:32:21.947Z</time></trkpt><trkpt lat="39.6102354860646" lon="15.873523137695791"><ele>247.0</ele><time>2026-04-18T09:32:22.947Z</time></trkpt><trkpt lat="39.61030531093505" lon="15.87343436365701"><ele>247.0</ele><time>2026-04-18T09:32:23.947Z</time></trkpt><trkpt lat="39.6103784452114" lon="15.873410178934483"><ele>247.49999999999997</ele><time>2026-04-18T09:32:24.947Z</time></trkpt><trkpt lat="39.61045256355397" lon="15.873425166921892"><ele>248.0</ele><time>2026-04-18T09:32:25.947Z</time></trkpt><trkpt lat="39.61050920360726" lon="15.87347521797269"><ele>248.5</ele><time>2026-04-18T09:32:26.947Z</time></trkpt><trkpt lat="39.61054200818542" lon="15.873560908766333"><ele>249.0</ele><time>2026-04-18T09:32:27.947Z</time></trkpt><trkpt lat="39.610593523214455" lon="15.873657926785375"><ele>249.49999999999997</ele><time>2026-04-18T09:32:28.947Z</time></trkpt><trkpt lat="39.610651376592614" lon="15.873741931388809"><ele>250.0</ele><time>2026-04-18T09:32:29.947Z</time></trkpt><trkpt lat="39.61072761041014" lon="15.873803495907415"><ele>250.0</ele><time>2026-04-18T09:32:30.948Z</time></trkpt><trkpt lat="39.610835196210544" lon="15.87378764123068"><ele>250.0</ele><time>2026-04-18T09:32:31.948Z</time></trkpt><trkpt lat="39.61091093788937" lon="15.873687666106878"><ele>250.0</ele><time>2026-04-18T09:32:32.948Z</time></trkpt><trkpt lat="39.61096586822107" lon="15.873574027940565"><ele>250.0</ele><time>2026-04-18T09:32:33.948Z</time></trkpt><trkpt lat="39.61100063690752" lon="15.87341960578829"><ele>250.0</ele><time>2026-04-18T09:32:34.948Z</time></trkpt><trkpt lat="39.61100757605643" lon="15.873258260386182"><ele>248.0</ele><time>2026-04-18T09:32:35.948Z</time></trkpt><trkpt lat="39.611020336936484" lon="15.873105544976276"><ele>246.0</ele><time>2026-04-18T09:32:36.948Z</time></trkpt><trkpt lat="39.61103879333132" lon="15.872962924528581"><ele>244.0</ele><time>2026-04-18T09:32:37.948Z</time></trkpt><trkpt lat="39.611096451956946" lon="15.872850088889068"><ele>242.0</ele><time>2026-04-18T09:32:38.948Z</time></trkpt><trkpt lat="39.61114511542331" lon="15.8727550605819"><ele>240.0</ele><time>2026-04-18T09:32:39.948Z</time></trkpt><trkpt lat="39.61120758331613" lon="15.872721202590661"><ele>237.8</ele><time>2026-04-18T09:32:40.948Z</time></trkpt><trkpt lat="39.61126307546111" lon="15.872764241251128"><ele>235.6</ele><time>2026-04-18T09:32:41.948Z</time></trkpt><trkpt lat="39.61129983067974" lon="15.872838887864923"><ele>233.39999999999998</ele><time>2026-04-18T09:32:42.948Z</time></trkpt><trkpt lat="39.61133992593494" lon="15.87294590226452"><ele>231.2</ele><time>2026-04-18T09:32:43.948Z</time></trkpt><trkpt lat="39.61140214661736" lon="15.873073873493881"><ele>229.0</ele><time>2026-04-18T09:32:44.948Z</time></trkpt><trkpt lat="39.61148695730129" lon="15.873195280318967"><ele>229.0</ele><time>2026-04-18T09:32:45.948Z</time></trkpt><trkpt lat="39.61158606668501" lon="15.873316522453178"><ele>229.0</ele><time>2026-04-18T09:32:46.948Z</time></trkpt><trkpt lat="39.611689951448284" lon="15.873426684656204"><ele>229.0</ele><time>2026-04-18T09:32:47.948Z</time></trkpt><trkpt lat="39.611789837262904" lon="15.87352657046647"><ele>229.0</ele><time>2026-04-18T09:32:48.948Z</time></trkpt><trkpt lat="39.6118920134173" lon="15.873619249666469"><ele>226.79999999999998</ele><time>2026-04-18T09:32:49.948Z</time></trkpt><trkpt lat="39.61200570155787" lon="15.873679749586131"><ele>224.59999999999997</ele><time>2026-04-18T09:32:50.948Z</time></trkpt><trkpt lat="39.61209930418479" lon="15.87371834011566"><ele>222.4</ele><time>2026-04-18T09:32:51.948Z</time></trkpt><trkpt lat="39.61217882357266" lon="15.873779297883345"><ele>220.2</ele><time>2026-04-18T09:32:52.948Z</time></trkpt><trkpt lat="39.612216955277354" lon="15.873879590988919"><ele>218.0</ele><time>2026-04-18T09:32:53.948Z</time></trkpt><trkpt lat="39.61227378984428" lon="15.874004556699857"><ele>218.0</ele><time>2026-04-18T09:32:54.948Z</time></trkpt><trkpt lat="39.61233910415446" lon="15.87413626523536"><ele>218.0</ele><time>2026-04-18T09:32:55.948Z</time></trkpt><trkpt lat="39.6124059001424" lon="15.874255024244516"><ele>218.0</ele><time>2026-04-18T09:32:56.948Z</time></trkpt><trkpt lat="39.61247265697834" lon="15.874364214329614"><ele>218.0</ele><time>2026-04-18T09:32:57.948Z</time></trkpt><trkpt lat="39.612537615966914" lon="15.87446504601961"><ele>218.0</ele><time>2026-04-18T09:32:58.948Z</time></trkpt><trkpt lat="39.61260934622826" lon="15.874545247075687"><ele>219.33333333333334</ele><time>2026-04-18T09:32:59.948Z</time></trkpt><trkpt lat="39.6126414398761" lon="15.874632088547848"><ele>220.66666666666669</ele><time>2026-04-18T09:33:00.948Z</time></trkpt><trkpt lat="39.61269672350294" lon="15.874682805422026"><ele>222.0</ele><time>2026-04-18T09:33:01.948Z</time></trkpt><trkpt lat="39.61276140382229" lon="15.874700737612109"><ele>223.33333333333331</ele><time>2026-04-18T09:33:02.948Z</time></trkpt><trkpt lat="39.61282847336451" lon="15.874664054121755"><ele>224.66666666666666</ele><time>2026-04-18T09:33:03.948Z</time></trkpt><trkpt lat="39.612865426576406" lon="15.874526803585447"><ele>226.0</ele><time>2026-04-18T09:33:04.948Z</time></trkpt><trkpt lat="39.61282765799959" lon="15.874390945371754"><ele>226.0</ele><time>2026-04-18T09:33:05.948Z</time></trkpt><trkpt lat="39.61277688197309" lon="15.874275799479989"><ele>226.00000000000003</ele><time>2026-04-18T09:33:06.948Z</time></trkpt><trkpt lat="39.612712573254974" lon="15.874171867534201"><ele>226.00000000000003</ele><time>2026-04-18T09:33:07.948Z</time></trkpt><trkpt lat="39.61263674498105" lon="15.874067944228678"><ele>226.0</ele><time>2026-04-18T09:33:08.948Z</time></trkpt><trkpt lat="39.61256025739226" lon="15.873953362983329"><ele>226.0</ele><time>2026-04-18T09:33:09.948Z</time></trkpt><trkpt lat="39.612500015758165" lon="15.873807599766103"><ele>224.0</ele><time>2026-04-18T09:33:10.948Z</time></trkpt><trkpt lat="39.612457232137444" lon="15.873648364365572"><ele>222.0</ele><time>2026-04-18T09:33:11.948Z</time></trkpt><trkpt lat="39.61242419220256" lon="15.873496746877738"><ele>220.0</ele><time>2026-04-18T09:33:12.948Z</time></trkpt><trkpt lat="39.61238660402166" lon="15.873352397474719"><ele>218.0</ele><time>2026-04-18T09:33:13.948Z</time></trkpt><trkpt lat="39.61233428134247" lon="15.87321924472056"><ele>215.75</ele><time>2026-04-18T09:33:14.948Z</time></trkpt><trkpt lat="39.61227055718696" lon="15.87308360943336"><ele>213.5</ele><time>2026-04-18T09:33:15.948Z</time></trkpt><trkpt lat="39.61221701504017" lon="15.872935462054418"><ele>211.25</ele><time>2026-04-18T09:33:16.948Z</time></trkpt><trkpt lat="39.61218429117021" lon="15.872772598255475"><ele>209.0</ele><time>2026-04-18T09:33:17.948Z</time></trkpt><trkpt lat="39.61216463007319" lon="15.872605786881579"><ele>207.0</ele><time>2026-04-18T09:33:18.948Z</time></trkpt><trkpt lat="39.61214861322606" lon="15.872441230818529"><ele>205.0</ele><time>2026-04-18T09:33:19.948Z</time></trkpt><trkpt lat="39.61213418473344" lon="15.872285361317386"><ele>203.0</ele><time>2026-04-18T09:33:20.948Z</time></trkpt><trkpt lat="39.61215481769128" lon="15.872134484752026"><ele>201.0</ele><time>2026-04-18T09:33:21.948Z</time></trkpt><trkpt lat="39.61221265115543" lon="15.87199721150914"><ele>201.0</ele><time>2026-04-18T09:33:22.948Z</time></trkpt><trkpt lat="39.61228133532698" lon="15.871857896024345"><ele>201.0</ele><time>2026-04-18T09:33:23.948Z</time></trkpt><trkpt lat="39.61234169529789" lon="15.871694204259823"><ele>201.0</ele><time>2026-04-18T09:33:24.948Z</time></trkpt><trkpt lat="39.61241299055553" lon="15.871546621294753"><ele>201.0</ele><time>2026-04-18T09:33:25.948Z</time></trkpt><trkpt lat="39.61246127149666" lon="15.871397903980592"><ele>200.75</ele><time>2026-04-18T09:33:26.948Z</time></trkpt><trkpt lat="39.612487995205" lon="15.871230488712921"><ele>200.5</ele><time>2026-04-18T09:33:27.948Z</time></trkpt><trkpt lat="39.61250571362479" lon="15.871057897344706"><ele>200.25</ele><time>2026-04-18T09:33:28.948Z</time></trkpt><trkpt lat="39.61255807199878" lon="15.87091231396213"><ele>200.0</ele><time>2026-04-18T09:33:29.948Z</time></trkpt><trkpt lat="39.612632640287885" lon="15.870787293696806"><ele>200.75</ele><time>2026-04-18T09:33:30.948Z</time></trkpt><trkpt lat="39.612727343497774" lon="15.870678024350637"><ele>201.5</ele><time>2026-04-18T09:33:31.948Z</time></trkpt><trkpt lat="39.61282626691773" lon="15.870563319955629"><ele>202.25</ele><time>2026-04-18T09:33:32.948Z</time></trkpt><trkpt lat="39.61292257023785" lon="15.870459884326374"><ele>203.0</ele><time>2026-04-18T09:33:33.948Z</time></trkpt><trkpt lat="39.613025886639036" lon="15.87036905221922"><ele>200.5</ele><time>2026-04-18T09:33:34.948Z</time></trkpt><trkpt lat="39.61313659012612" lon="15.870298027140464"><ele>198.0</ele><time>2026-04-18T09:33:35.948Z</time></trkpt><trkpt lat="39.61324963552886" lon="15.87022925624924"><ele>195.5</ele><time>2026-04-18T09:33:36.948Z</time></trkpt><trkpt lat="39.613362328383296" lon="15.8701641794351"><ele>193.0</ele><time>2026-04-18T09:33:37.948Z</time></trkpt><trkpt lat="39.613475147558454" lon="15.870100532111111"><ele>193.0</ele><time>2026-04-18T09:33:38.947Z</time></trkpt><trkpt lat="39.61358628079024" lon="15.87004403840307"><ele>193.0</ele><time>2026-04-18T09:33:39.947Z</time></trkpt><trkpt lat="39.613695568657455" lon="15.869973081886823"><ele>193.0</ele><time>2026-04-18T09:33:40.947Z</time></trkpt><trkpt lat="39.613781277049334" lon="15.869861226635372"><ele>193.0</ele><time>2026-04-18T09:33:41.947Z</time></trkpt><trkpt lat="39.613865049534546" lon="15.869743372567116"><ele>189.75</ele><time>2026-04-18T09:33:42.947Z</time></trkpt><trkpt lat="39.61394372921177" lon="15.869606890690324"><ele>186.5</ele><time>2026-04-18T09:33:43.947Z</time></trkpt><trkpt lat="39.61403893839053" lon="15.86949294454802"><ele>183.25</ele><time>2026-04-18T09:33:44.947Z</time></trkpt><trkpt lat="39.61410298694761" lon="15.869355675262407"><ele>180.0</ele><time>2026-04-18T09:33:45.947Z</time></trkpt><trkpt lat="39.614178820591526" lon="15.869230493969882"><ele>180.0</ele><time>2026-04-18T09:33:46.947Z</time></trkpt><trkpt lat="39.61424878583749" lon="15.869107945669997"><ele>180.0</ele><time>2026-04-18T09:33:47.947Z</time></trkpt><trkpt lat="39.61431752967914" lon="15.868985315389095"><ele>180.0</ele><time>2026-04-18T09:33:48.947Z</time></trkpt><trkpt lat="39.61438080735376" lon="15.868861411494404"><ele>180.0</ele><time>2026-04-18T09:33:49.947Z</time></trkpt><trkpt lat="39.614432282714674" lon="15.86873179473666"><ele>180.0</ele><time>2026-04-18T09:33:50.947Z</time></trkpt><trkpt lat="39.614467722216084" lon="15.8686000819723"><ele>180.0</ele><time>2026-04-18T09:33:51.947Z</time></trkpt><trkpt lat="39.61447265579181" lon="15.868471847666129"><ele>180.0</ele><time>2026-04-18T09:33:52.947Z</time></trkpt><trkpt lat="39.61447020455992" lon="15.868363477842806"><ele>180.0</ele><time>2026-04-18T09:33:53.947Z</time></trkpt><trkpt lat="39.61445671843507" lon="15.868282549164618"><ele>180.0</ele><time>2026-04-18T09:33:54.947Z</time></trkpt><trkpt lat="39.61433716262348" lon="15.868231773673433"><ele>180.0</ele><time>2026-04-18T09:33:56.947Z</time></trkpt><trkpt lat="39.6142595402293" lon="15.86829427489928"><ele>180.0</ele><time>2026-04-18T09:33:57.947Z</time></trkpt><trkpt lat="39.61418106426527" lon="15.868386070686089"><ele>180.0</ele><time>2026-04-18T09:33:58.947Z</time></trkpt><trkpt lat="39.61409918928979" lon="15.868468378613661"><ele>180.0</ele><time>2026-04-18T09:33:59.947Z</time></trkpt><trkpt lat="39.614002110821566" lon="15.868530975206566"><ele>180.0</ele><time>2026-04-18T09:34:00.947Z</time></trkpt><trkpt lat="39.61388387622963" lon="15.868568016674699"><ele>180.0</ele><time>2026-04-18T09:34:01.947Z</time></trkpt><trkpt lat="39.61376744938129" lon="15.868559086485472"><ele>180.0</ele><time>2026-04-18T09:34:02.947Z</time></trkpt><trkpt lat="39.613650940284074" lon="15.868524033161423"><ele>180.0</ele><time>2026-04-18T09:34:03.947Z</time></trkpt><trkpt lat="39.61354098234952" lon="15.868461563195016"><ele>180.0</ele><time>2026-04-18T09:34:04.947Z</time></trkpt><trkpt lat="39.6134326153267" lon="15.868386309717728"><ele>178.5</ele><time>2026-04-18T09:34:05.947Z</time></trkpt><trkpt lat="39.61333499899858" lon="15.868310380160937"><ele>177.0</ele><time>2026-04-18T09:34:06.947Z</time></trkpt><trkpt lat="39.61325321513531" lon="15.868204225046654"><ele>175.5</ele><time>2026-04-18T09:34:07.947Z</time></trkpt><trkpt lat="39.613201174491195" lon="15.868065076720164"><ele>174.0</ele><time>2026-04-18T09:34:08.947Z</time></trkpt><trkpt lat="39.61315331459038" lon="15.86791035506905"><ele>174.0</ele><time>2026-04-18T09:34:09.947Z</time></trkpt><trkpt lat="39.61308730629247" lon="15.86776200049752"><ele>174.0</ele><time>2026-04-18T09:34:10.947Z</time></trkpt><trkpt lat="39.61301485081492" lon="15.86762559056239"><ele>174.0</ele><time>2026-04-18T09:34:11.947Z</time></trkpt><trkpt lat="39.612945072884045" lon="15.867491052479052"><ele>174.0</ele><time>2026-04-18T09:34:12.947Z</time></trkpt><trkpt lat="39.61288313162706" lon="15.867353647494395"><ele>175.0</ele><time>2026-04-18T09:34:13.947Z</time></trkpt><trkpt lat="39.61283536546585" lon="15.867210777193295"><ele>176.0</ele><time>2026-04-18T09:34:14.947Z</time></trkpt><trkpt lat="39.612802075311926" lon="15.867060947250932"><ele>177.0</ele><time>2026-04-18T09:34:15.947Z</time></trkpt><trkpt lat="39.61278735281162" lon="15.866890666271104"><ele>178.0</ele><time>2026-04-18T09:34:16.947Z</time></trkpt><trkpt lat="39.61277785381976" lon="15.866708024499559"><ele>178.0</ele><time>2026-04-18T09:34:17.947Z</time></trkpt><trkpt lat="39.61276274875698" lon="15.866525133434811"><ele>178.0</ele><time>2026-04-18T09:34:18.947Z</time></trkpt><trkpt lat="39.61273907073376" lon="15.866357568348633"><ele>178.0</ele><time>2026-04-18T09:34:19.947Z</time></trkpt><trkpt lat="39.61271100880931" lon="15.8661933770225"><ele>178.0</ele><time>2026-04-18T09:34:20.947Z</time></trkpt><trkpt lat="39.612705037585314" lon="15.866030049200116"><ele>177.25</ele><time>2026-04-18T09:34:21.947Z</time></trkpt><trkpt lat="39.612729185410124" lon="15.865872774238841"><ele>176.5</ele><time>2026-04-18T09:34:22.947Z</time></trkpt><trkpt lat="39.61277282254273" lon="15.865722960996825"><ele>175.75</ele><time>2026-04-18T09:34:23.947Z</time></trkpt><trkpt lat="39.6128120043077" lon="15.865575309691641"><ele>175.0</ele><time>2026-04-18T09:34:24.947Z</time></trkpt><trkpt lat="39.61283983311903" lon="15.865430229954407"><ele>165.4</ele><time>2026-04-18T09:34:25.947Z</time></trkpt><trkpt lat="39.61287215331977" lon="15.865286966475578"><ele>155.8</ele><time>2026-04-18T09:34:26.947Z</time></trkpt><trkpt lat="39.61289879803123" lon="15.86516542812092"><ele>146.2</ele><time>2026-04-18T09:34:27.947Z</time></trkpt><trkpt lat="39.61292126128822" lon="15.865054045704452"><ele>136.6</ele><time>2026-04-18T09:34:28.947Z</time></trkpt><trkpt lat="39.61292649526185" lon="15.864946184888078"><ele>127.0</ele><time>2026-04-18T09:34:29.947Z</time></trkpt><trkpt lat="39.61290744692096" lon="15.864838923775476"><ele>125.8</ele><time>2026-04-18T09:34:30.947Z</time></trkpt><trkpt lat="39.61284953800987" lon="15.864743814806788"><ele>124.6</ele><time>2026-04-18T09:34:31.947Z</time></trkpt><trkpt lat="39.612772995935416" lon="15.864646826575113"><ele>123.39999999999999</ele><time>2026-04-18T09:34:32.947Z</time></trkpt><trkpt lat="39.612702691229245" lon="15.86453204721834"><ele>122.19999999999999</ele><time>2026-04-18T09:34:33.947Z</time></trkpt><trkpt lat="39.612657374965046" lon="15.86439334107037"><ele>121.0</ele><time>2026-04-18T09:34:34.947Z</time></trkpt><trkpt lat="39.61262734986178" lon="15.864255112782331"><ele>125.6</ele><time>2026-04-18T09:34:35.947Z</time></trkpt><trkpt lat="39.612589766138605" lon="15.864128457982915"><ele>130.2</ele><time>2026-04-18T09:34:36.948Z</time></trkpt><trkpt lat="39.612536627786696" lon="15.864013438339233"><ele>134.8</ele><time>2026-04-18T09:34:37.948Z</time></trkpt><trkpt lat="39.61246494722502" lon="15.863919759671834"><ele>139.4</ele><time>2026-04-18T09:34:38.948Z</time></trkpt><trkpt lat="39.61237059977253" lon="15.863852392012793"><ele>144.0</ele><time>2026-04-18T09:34:39.948Z</time></trkpt><trkpt lat="39.61226660376875" lon="15.863816205956274"><ele>144.0</ele><time>2026-04-18T09:34:40.948Z</time></trkpt><trkpt lat="39.61215921691149" lon="15.863815767607234"><ele>144.0</ele><time>2026-04-18T09:34:41.948Z</time></trkpt><trkpt lat="39.612058939907065" lon="15.863839899841365"><ele>144.0</ele><time>2026-04-18T09:34:42.948Z</time></trkpt><trkpt lat="39.61196648282796" lon="15.863866828304099"><ele>144.0</ele><time>2026-04-18T09:34:43.948Z</time></trkpt><trkpt lat="39.61187695818892" lon="15.8638898537598"><ele>144.0</ele><time>2026-04-18T09:34:44.948Z</time></trkpt><trkpt lat="39.611791130141356" lon="15.863909993107098"><ele>143.5</ele><time>2026-04-18T09:34:45.948Z</time></trkpt><trkpt lat="39.611702361282696" lon="15.863927723123721"><ele>143.0</ele><time>2026-04-18T09:34:46.948Z</time></trkpt><trkpt lat="39.61161870895107" lon="15.863941832255104"><ele>142.5</ele><time>2026-04-18T09:34:47.948Z</time></trkpt><trkpt lat="39.6115428253317" lon="15.863964557259111"><ele>142.0</ele><time>2026-04-18T09:34:48.948Z</time></trkpt><trkpt lat="39.61147628951204" lon="15.864020408394447"><ele>141.5</ele><time>2026-04-18T09:34:49.948Z</time></trkpt><trkpt lat="39.611415509843454" lon="15.864116836785714"><ele>141.0</ele><time>2026-04-18T09:34:50.948Z</time></trkpt><trkpt lat="39.61136317685328" lon="15.864224669902358"><ele>139.0</ele><time>2026-04-18T09:34:51.948Z</time></trkpt><trkpt lat="39.611296255154954" lon="15.864301771829314"><ele>137.0</ele><time>2026-04-18T09:34:52.948Z</time></trkpt><trkpt lat="39.61123464289844" lon="15.864369987256019"><ele>135.0</ele><time>2026-04-18T09:34:53.948Z</time></trkpt><trkpt lat="39.61113781197378" lon="15.86437880988415"><ele>133.0</ele><time>2026-04-18T09:34:54.948Z</time></trkpt><trkpt lat="39.611041706039344" lon="15.864364789486519"><ele>131.0</ele><time>2026-04-18T09:34:55.948Z</time></trkpt><trkpt lat="39.61095132386106" lon="15.86438591683118"><ele>131.0</ele><time>2026-04-18T09:34:56.948Z</time></trkpt><trkpt lat="39.610870880403446" lon="15.864469593571032"><ele>131.0</ele><time>2026-04-18T09:34:57.948Z</time></trkpt><trkpt lat="39.610808376625755" lon="15.864592116056226"><ele>131.0</ele><time>2026-04-18T09:34:58.948Z</time></trkpt><trkpt lat="39.61074285013611" lon="15.864718673041802"><ele>131.0</ele><time>2026-04-18T09:34:59.948Z</time></trkpt><trkpt lat="39.61071600308176" lon="15.86487195884007"><ele>131.0</ele><time>2026-04-18T09:35:00.948Z</time></trkpt><trkpt lat="39.6107031763011" lon="15.865009431493407"><ele>131.0</ele><time>2026-04-18T09:35:01.948Z</time></trkpt><trkpt lat="39.61068963824898" lon="15.86514769430088"><ele>131.0</ele><time>2026-04-18T09:35:02.948Z</time></trkpt><trkpt lat="39.61067778121382" lon="15.865282911438355"><ele>131.0</ele><time>2026-04-18T09:35:03.948Z</time></trkpt><trkpt lat="39.61067262837057" lon="15.865430808040058"><ele>131.0</ele><time>2026-04-18T09:35:04.948Z</time></trkpt><trkpt lat="39.61067968406245" lon="15.865585060344062"><ele>131.6</ele><time>2026-04-18T09:35:05.948Z</time></trkpt><trkpt lat="39.610688364918026" lon="15.865728424067617"><ele>132.2</ele><time>2026-04-18T09:35:06.948Z</time></trkpt><trkpt lat="39.61069219262593" lon="15.86585887440783"><ele>132.8</ele><time>2026-04-18T09:35:07.948Z</time></trkpt><trkpt lat="39.61068561051666" lon="15.865990380349404"><ele>133.4</ele><time>2026-04-18T09:35:08.948Z</time></trkpt><trkpt lat="39.61065499183328" lon="15.86611935471807"><ele>134.0</ele><time>2026-04-18T09:35:09.948Z</time></trkpt><trkpt lat="39.61061341876586" lon="15.866258122451315"><ele>137.0</ele><time>2026-04-18T09:35:10.948Z</time></trkpt><trkpt lat="39.61056366277874" lon="15.866411446407122"><ele>140.0</ele><time>2026-04-18T09:35:11.947Z</time></trkpt><trkpt lat="39.610510628524864" lon="15.866548838304114"><ele>143.0</ele><time>2026-04-18T09:35:12.947Z</time></trkpt><trkpt lat="39.61044134654441" lon="15.866659361409841"><ele>146.0</ele><time>2026-04-18T09:35:13.947Z</time></trkpt><trkpt lat="39.61036323943337" lon="15.86676819385705"><ele>142.75</ele><time>2026-04-18T09:35:14.947Z</time></trkpt><trkpt lat="39.610259936250394" lon="15.866835709047114"><ele>139.5</ele><time>2026-04-18T09:35:15.947Z</time></trkpt><trkpt lat="39.6101468099258" lon="15.866870415722254"><ele>136.25</ele><time>2026-04-18T09:35:16.947Z</time></trkpt><trkpt lat="39.61003163442039" lon="15.866875975450958"><ele>133.0</ele><time>2026-04-18T09:35:17.947Z</time></trkpt><trkpt lat="39.609924801580114" lon="15.866884905096224"><ele>133.0</ele><time>2026-04-18T09:35:18.947Z</time></trkpt><trkpt lat="39.609832208384056" lon="15.866932134782974"><ele>133.0</ele><time>2026-04-18T09:35:19.947Z</time></trkpt><trkpt lat="39.60975109632462" lon="15.867005663057057"><ele>133.0</ele><time>2026-04-18T09:35:20.947Z</time></trkpt><trkpt lat="39.60966940859968" lon="15.867064858697491"><ele>133.0</ele><time>2026-04-18T09:35:21.947Z</time></trkpt><trkpt lat="39.60960389497535" lon="15.867122901897707"><ele>133.0</ele><time>2026-04-18T09:35:22.947Z</time></trkpt><trkpt lat="39.60950790818696" lon="15.86715351539388"><ele>133.0</ele><time>2026-04-18T09:35:24.947Z</time></trkpt><trkpt lat="39.609488397904215" lon="15.867062372019886"><ele>133.0</ele><time>2026-04-18T09:35:25.947Z</time></trkpt><trkpt lat="39.609511509933355" lon="15.866966696396288"><ele>133.0</ele><time>2026-04-18T09:35:26.947Z</time></trkpt><trkpt lat="39.6096017737337" lon="15.866913584860669"><ele>133.0</ele><time>2026-04-18T09:35:27.947Z</time></trkpt><trkpt lat="39.609676582196926" lon="15.866835650100253"><ele>133.0</ele><time>2026-04-18T09:35:28.947Z</time></trkpt><trkpt lat="39.609764956096534" lon="15.866753763235286"><ele>128.25</ele><time>2026-04-18T09:35:29.947Z</time></trkpt><trkpt lat="39.609857648248884" lon="15.866660033417501"><ele>123.5</ele><time>2026-04-18T09:35:30.947Z</time></trkpt><trkpt lat="39.609958207745805" lon="15.866565870073968"><ele>118.75</ele><time>2026-04-18T09:35:31.947Z</time></trkpt><trkpt lat="39.61005346393246" lon="15.866478924684314"><ele>114.0</ele><time>2026-04-18T09:35:32.947Z</time></trkpt><trkpt lat="39.61014033523036" lon="15.866393962518686"><ele>114.0</ele><time>2026-04-18T09:35:33.947Z</time></trkpt><trkpt lat="39.610215039424034" lon="15.866312758086117"><ele>114.0</ele><time>2026-04-18T09:35:34.947Z</time></trkpt><trkpt lat="39.6102811956868" lon="15.866226252464132"><ele>114.0</ele><time>2026-04-18T09:35:35.947Z</time></trkpt><trkpt lat="39.61038475442251" lon="15.866119482797103"><ele>114.0</ele><time>2026-04-18T09:35:36.947Z</time></trkpt><trkpt lat="39.61043954397204" lon="15.865973200992059"><ele>114.0</ele><time>2026-04-18T09:35:37.947Z</time></trkpt><trkpt lat="39.610449575425484" lon="15.865806189388449"><ele>119.0</ele><time>2026-04-18T09:35:38.947Z</time></trkpt><trkpt lat="39.61045001708207" lon="15.865641180504912"><ele>124.0</ele><time>2026-04-18T09:35:39.947Z</time></trkpt><trkpt lat="39.6104646621872" lon="15.865468939423861"><ele>129.0</ele><time>2026-04-18T09:35:40.947Z</time></trkpt><trkpt lat="39.610450132612115" lon="15.865314706181861"><ele>134.0</ele><time>2026-04-18T09:35:41.947Z</time></trkpt><trkpt lat="39.6104467964623" lon="15.86515372738769"><ele>133.25</ele><time>2026-04-18T09:35:42.947Z</time></trkpt><trkpt lat="39.61044913786525" lon="15.865009018281052"><ele>132.5</ele><time>2026-04-18T09:35:43.947Z</time></trkpt><trkpt lat="39.61045655125745" lon="15.864856018155573"><ele>131.75</ele><time>2026-04-18T09:35:44.947Z</time></trkpt><trkpt lat="39.610462274991406" lon="15.86469189555927"><ele>131.0</ele><time>2026-04-18T09:35:45.947Z</time></trkpt><trkpt lat="39.61046951111362" lon="15.864529225569601"><ele>131.0</ele><time>2026-04-18T09:35:46.947Z</time></trkpt><trkpt lat="39.610488290208764" lon="15.864366420053267"><ele>131.0</ele><time>2026-04-18T09:35:47.947Z</time></trkpt><trkpt lat="39.61051853187062" lon="15.864218169774233"><ele>131.0</ele><time>2026-04-18T09:35:48.947Z</time></trkpt><trkpt lat="39.610572911803224" lon="15.864089052685424"><ele>131.0</ele><time>2026-04-18T09:35:49.947Z</time></trkpt><trkpt lat="39.6106506372704" lon="15.863984108856057"><ele>126.75</ele><time>2026-04-18T09:35:50.947Z</time></trkpt><trkpt lat="39.610740068668555" lon="15.863883566983848"><ele>122.5</ele><time>2026-04-18T09:35:51.947Z</time></trkpt><trkpt lat="39.61082636718269" lon="15.863775346510838"><ele>118.25</ele><time>2026-04-18T09:35:52.947Z</time></trkpt><trkpt lat="39.610919637006006" lon="15.863646911198181"><ele>114.0</ele><time>2026-04-18T09:35:53.947Z</time></trkpt><trkpt lat="39.611015887756565" lon="15.863514620189761"><ele>113.66666666666666</ele><time>2026-04-18T09:35:54.947Z</time></trkpt><trkpt lat="39.611114911579755" lon="15.86337287721808"><ele>113.33333333333333</ele><time>2026-04-18T09:35:55.947Z</time></trkpt><trkpt lat="39.611220825644885" lon="15.863233297644898"><ele>113.0</ele><time>2026-04-18T09:35:56.947Z</time></trkpt><trkpt lat="39.611332316656764" lon="15.863091185767798"><ele>113.0</ele><time>2026-04-18T09:35:57.947Z</time></trkpt><trkpt lat="39.61146113549597" lon="15.862934239292045"><ele>113.0</ele><time>2026-04-18T09:35:58.947Z</time></trkpt><trkpt lat="39.61156221504393" lon="15.862786053340358"><ele>113.0</ele><time>2026-04-18T09:35:59.947Z</time></trkpt><trkpt lat="39.611659667864856" lon="15.862640610176129"><ele>108.25</ele><time>2026-04-18T09:36:00.947Z</time></trkpt><trkpt lat="39.61175346677336" lon="15.862499276097612"><ele>103.5</ele><time>2026-04-18T09:36:01.947Z</time></trkpt><trkpt lat="39.61184765434047" lon="15.8623649144158"><ele>98.75</ele><time>2026-04-18T09:36:02.947Z</time></trkpt><trkpt lat="39.611953782995876" lon="15.862254567975816"><ele>94.0</ele><time>2026-04-18T09:36:03.947Z</time></trkpt><trkpt lat="39.612073236631176" lon="15.862171141206458"><ele>94.0</ele><time>2026-04-18T09:36:04.947Z</time></trkpt><trkpt lat="39.61219453648852" lon="15.862097465483687"><ele>94.0</ele><time>2026-04-18T09:36:05.947Z</time></trkpt><trkpt lat="39.61231856294433" lon="15.862051665100212"><ele>94.0</ele><time>2026-04-18T09:36:06.947Z</time></trkpt><trkpt lat="39.61244353084244" lon="15.86207262123726"><ele>94.0</ele><time>2026-04-18T09:36:07.947Z</time></trkpt><trkpt lat="39.61256521471133" lon="15.862091083423442"><ele>94.0</ele><time>2026-04-18T09:36:08.947Z</time></trkpt><trkpt lat="39.61267705618514" lon="15.862129452089086"><ele>94.0</ele><time>2026-04-18T09:36:09.947Z</time></trkpt><trkpt lat="39.612784077814595" lon="15.862177122435854"><ele>94.0</ele><time>2026-04-18T09:36:10.947Z</time></trkpt><trkpt lat="39.61287711234735" lon="15.862225919809157"><ele>94.0</ele><time>2026-04-18T09:36:11.947Z</time></trkpt><trkpt lat="39.612939292073534" lon="15.862310111149363"><ele>94.0</ele><time>2026-04-18T09:36:12.947Z</time></trkpt><trkpt lat="39.61302354232534" lon="15.86241764827977"><ele>93.25</ele><time>2026-04-18T09:36:13.947Z</time></trkpt><trkpt lat="39.61312320116418" lon="15.862506094580246"><ele>92.5</ele><time>2026-04-18T09:36:14.947Z</time></trkpt><trkpt lat="39.61322026291077" lon="15.862597761068095"><ele>91.75</ele><time>2026-04-18T09:36:15.947Z</time></trkpt><trkpt lat="39.61330032196959" lon="15.862711222130836"><ele>91.0</ele><time>2026-04-18T09:36:16.947Z</time></trkpt><trkpt lat="39.613374070631075" lon="15.862832811597967"><ele>91.0</ele><time>2026-04-18T09:36:17.947Z</time></trkpt><trkpt lat="39.61344212207987" lon="15.862948472061687"><ele>91.0</ele><time>2026-04-18T09:36:18.947Z</time></trkpt><trkpt lat="39.61350788563682" lon="15.863061668498109"><ele>91.0</ele><time>2026-04-18T09:36:19.947Z</time></trkpt><trkpt lat="39.6135649692038" lon="15.863177106998856"><ele>91.0</ele><time>2026-04-18T09:36:20.947Z</time></trkpt><trkpt lat="39.61362060888301" lon="15.86331412517132"><ele>91.0</ele><time>2026-04-18T09:36:21.947Z</time></trkpt><trkpt lat="39.61367420453774" lon="15.863461420449097"><ele>87.8</ele><time>2026-04-18T09:36:22.947Z</time></trkpt><trkpt lat="39.61372541019271" lon="15.863604426263526"><ele>84.6</ele><time>2026-04-18T09:36:23.947Z</time></trkpt><trkpt lat="39.61377177661228" lon="15.86374080858242"><ele>81.4</ele><time>2026-04-18T09:36:24.947Z</time></trkpt><trkpt lat="39.613816877127036" lon="15.863872803922098"><ele>78.2</ele><time>2026-04-18T09:36:25.947Z</time></trkpt><trkpt lat="39.613859580955705" lon="15.863991900480082"><ele>75.0</ele><time>2026-04-18T09:36:26.947Z</time></trkpt><trkpt lat="39.61389300575347" lon="15.864093435222419"><ele>75.0</ele><time>2026-04-18T09:36:27.947Z</time></trkpt><trkpt lat="39.61392297562676" lon="15.864190340013163"><ele>75.0</ele><time>2026-04-18T09:36:28.947Z</time></trkpt><trkpt lat="39.61396328939914" lon="15.864282124793332"><ele>75.0</ele><time>2026-04-18T09:36:29.947Z</time></trkpt><trkpt lat="39.61402424210235" lon="15.864340063699444"><ele>75.0</ele><time>2026-04-18T09:36:30.947Z</time></trkpt><trkpt lat="39.6141197424631" lon="15.864297206481574"><ele>75.0</ele><time>2026-04-18T09:36:31.947Z</time></trkpt><trkpt lat="39.61417246118868" lon="15.86423407335885"><ele>75.0</ele><time>2026-04-18T09:36:32.947Z</time></trkpt><trkpt lat="39.6141962337" lon="15.864140128363626"><ele>75.0</ele><time>2026-04-18T09:36:33.947Z</time></trkpt><trkpt lat="39.61417311747591" lon="15.864049266289381"><ele>75.0</ele><time>2026-04-18T09:36:34.947Z</time></trkpt><trkpt lat="39.61411490946796" lon="15.86395223449888"><ele>75.0</ele><time>2026-04-18T09:36:35.947Z</time></trkpt><trkpt lat="39.61405148982402" lon="15.863864004439426"><ele>75.0</ele><time>2026-04-18T09:36:36.947Z</time></trkpt><trkpt lat="39.61399419101017" lon="15.863762238821794"><ele>75.0</ele><time>2026-04-18T09:36:37.947Z</time></trkpt><trkpt lat="39.61394358524881" lon="15.863642210772833"><ele>75.0</ele><time>2026-04-18T09:36:38.947Z</time></trkpt><trkpt lat="39.613892028713444" lon="15.863508797113035"><ele>75.0</ele><time>2026-04-18T09:36:39.947Z</time></trkpt><trkpt lat="39.613840584857215" lon="15.863376853589966"><ele>75.0</ele><time>2026-04-18T09:36:40.947Z</time></trkpt><trkpt lat="39.61380461300507" lon="15.863251643147663"><ele>75.0</ele><time>2026-04-18T09:36:41.947Z</time></trkpt><trkpt lat="39.61377671654826" lon="15.86312610703179"><ele>75.0</ele><time>2026-04-18T09:36:42.947Z</time></trkpt><trkpt lat="39.61373921984497" lon="15.863010144313009"><ele>74.0</ele><time>2026-04-18T09:36:43.947Z</time></trkpt><trkpt lat="39.61368601641014" lon="15.86288472880798"><ele>73.0</ele><time>2026-04-18T09:36:44.947Z</time></trkpt><trkpt lat="39.61361591299034" lon="15.862762985974069"><ele>72.0</ele><time>2026-04-18T09:36:45.947Z</time></trkpt><trkpt lat="39.6135410737094" lon="15.862647396225858"><ele>71.0</ele><time>2026-04-18T09:36:46.947Z</time></trkpt><trkpt lat="39.613471413756365" lon="15.862541817302867"><ele>71.0</ele><time>2026-04-18T09:36:47.947Z</time></trkpt><trkpt lat="39.613404811060846" lon="15.862435926363181"><ele>71.0</ele><time>2026-04-18T09:36:48.947Z</time></trkpt><trkpt lat="39.61334329812595" lon="15.86233555663853"><ele>71.0</ele><time>2026-04-18T09:36:49.947Z</time></trkpt><trkpt lat="39.61328615164664" lon="15.862236364021301"><ele>71.0</ele><time>2026-04-18T09:36:50.947Z</time></trkpt><trkpt lat="39.613234130200595" lon="15.862136273068106"><ele>71.0</ele><time>2026-04-18T09:36:51.947Z</time></trkpt><trkpt lat="39.6131851483616" lon="15.862033437998996"><ele>71.0</ele><time>2026-04-18T09:36:52.947Z</time></trkpt><trkpt lat="39.613133412880856" lon="15.861935443650548"><ele>71.0</ele><time>2026-04-18T09:36:53.947Z</time></trkpt><trkpt lat="39.61307619688052" lon="15.86183312121094"><ele>71.0</ele><time>2026-04-18T09:36:54.947Z</time></trkpt><trkpt lat="39.613018770970164" lon="15.86174024403919"><ele>71.0</ele><time>2026-04-18T09:36:55.947Z</time></trkpt><trkpt lat="39.61296717476303" lon="15.861656557773419"><ele>71.0</ele><time>2026-04-18T09:36:56.947Z</time></trkpt><trkpt lat="39.612925142882126" lon="15.86158570770426"><ele>71.0</ele><time>2026-04-18T09:36:57.947Z</time></trkpt><trkpt lat="39.61287690950779" lon="15.861465917078402"><ele>68.2</ele><time>2026-04-18T09:36:59.947Z</time></trkpt><trkpt lat="39.612846757680025" lon="15.86138103245187"><ele>65.39999999999999</ele><time>2026-04-18T09:37:06.947Z</time></trkpt><trkpt lat="39.61294695538672" lon="15.861276263237613"><ele>62.6</ele><time>2026-04-18T09:37:07.947Z</time></trkpt><trkpt lat="39.61306601945787" lon="15.861203290571495"><ele>59.8</ele><time>2026-04-18T09:37:09.947Z</time></trkpt><trkpt lat="39.6131327547875" lon="15.861164392790196"><ele>57.0</ele><time>2026-04-18T09:37:10.947Z</time></trkpt><trkpt lat="39.61319536284518" lon="15.861128324696152"><ele>57.0</ele><time>2026-04-18T09:37:11.947Z</time></trkpt><trkpt lat="39.61328230949152" lon="15.861079792933754"><ele>57.0</ele><time>2026-04-18T09:37:13.947Z</time></trkpt><trkpt lat="39.6133453745486" lon="15.861004422192153"><ele>57.0</ele><time>2026-04-18T09:38:00.947Z</time></trkpt><trkpt lat="39.61342141766645" lon="15.860963959834617"><ele>57.0</ele><time>2026-04-18T09:38:02.947Z</time></trkpt><trkpt lat="39.61351606593509" lon="15.860875960646592"><ele>57.0</ele><time>2026-04-18T09:38:04.947Z</time></trkpt><trkpt lat="39.613561741616024" lon="15.860804632843971"><ele>56.5</ele><time>2026-04-18T09:38:05.947Z</time></trkpt><trkpt lat="39.613590362522125" lon="15.860726239744855"><ele>56.0</ele><time>2026-04-18T09:38:06.947Z</time></trkpt><trkpt lat="39.61360006516853" lon="15.860645462884111"><ele>55.5</ele><time>2026-04-18T09:38:07.947Z</time></trkpt><trkpt lat="39.613599098660195" lon="15.860548789372375"><ele>55.0</ele><time>2026-04-18T09:38:08.947Z</time></trkpt><trkpt lat="39.61357093667997" lon="15.860431584183832"><ele>54.5</ele><time>2026-04-18T09:38:09.947Z</time></trkpt><trkpt lat="39.61352903030246" lon="15.860313742328708"><ele>54.0</ele><time>2026-04-18T09:38:10.947Z</time></trkpt><trkpt lat="39.613472780902235" lon="15.860185771428121"><ele>57.0</ele><time>2026-04-18T09:38:11.947Z</time></trkpt><trkpt lat="39.61341873658188" lon="15.860047724536638"><ele>60.0</ele><time>2026-04-18T09:38:12.947Z</time></trkpt><trkpt lat="39.61335813608483" lon="15.859906974179012"><ele>63.0</ele><time>2026-04-18T09:38:13.947Z</time></trkpt><trkpt lat="39.613290653563816" lon="15.859768609198595"><ele>66.0</ele><time>2026-04-18T09:38:14.947Z</time></trkpt><trkpt lat="39.61322010584817" lon="15.859626931601653"><ele>66.0</ele><time>2026-04-18T09:38:15.947Z</time></trkpt><trkpt lat="39.61313670594405" lon="15.859486608378685"><ele>66.0</ele><time>2026-04-18T09:38:16.947Z</time></trkpt><trkpt lat="39.61304680358033" lon="15.859351006593752"><ele>66.0</ele><time>2026-04-18T09:38:17.947Z</time></trkpt><trkpt lat="39.612966438674015" lon="15.859226805359702"><ele>66.0</ele><time>2026-04-18T09:38:18.947Z</time></trkpt><trkpt lat="39.6128990230682" lon="15.859118489384354"><ele>67.33333333333333</ele><time>2026-04-18T09:38:19.947Z</time></trkpt><trkpt lat="39.6128405069154" lon="15.859023442836781"><ele>68.66666666666667</ele><time>2026-04-18T09:38:20.947Z</time></trkpt><trkpt lat="39.61279274702962" lon="15.858929767800806"><ele>70.0</ele><time>2026-04-18T09:38:21.947Z</time></trkpt><trkpt lat="39.61276549197492" lon="15.858835959782274"><ele>71.33333333333334</ele><time>2026-04-18T09:38:22.947Z</time></trkpt><trkpt lat="39.61277595599674" lon="15.858748186375289"><ele>72.66666666666667</ele><time>2026-04-18T09:38:23.946Z</time></trkpt><trkpt lat="39.61282131460062" lon="15.858677451112653"><ele>74.0</ele><time>2026-04-18T09:38:24.946Z</time></trkpt><trkpt lat="39.612892559406156" lon="15.858636318306678"><ele>74.0</ele><time>2026-04-18T09:38:25.946Z</time></trkpt><trkpt lat="39.61296492416682" lon="15.858665874300456"><ele>74.0</ele><time>2026-04-18T09:38:26.946Z</time></trkpt><trkpt lat="39.61302533899595" lon="15.858719180275802"><ele>74.0</ele><time>2026-04-18T09:38:27.946Z</time></trkpt><trkpt lat="39.61309030560308" lon="15.858779773692405"><ele>74.0</ele><time>2026-04-18T09:38:28.946Z</time></trkpt><trkpt lat="39.61315248634698" lon="15.85886124982298"><ele>74.0</ele><time>2026-04-18T09:38:29.946Z</time></trkpt><trkpt lat="39.61322632232877" lon="15.858949549860865"><ele>74.0</ele><time>2026-04-18T09:38:30.946Z</time></trkpt><trkpt lat="39.61330237543338" lon="15.859041092294142"><ele>74.0</ele><time>2026-04-18T09:38:31.946Z</time></trkpt><trkpt lat="39.61338342975559" lon="15.859139640748076"><ele>74.0</ele><time>2026-04-18T09:38:32.946Z</time></trkpt><trkpt lat="39.61346625888921" lon="15.859243174452354"><ele>74.0</ele><time>2026-04-18T09:38:33.946Z</time></trkpt><trkpt lat="39.61354891136978" lon="15.85934875473207"><ele>74.0</ele><time>2026-04-18T09:38:34.946Z</time></trkpt><trkpt lat="39.61362327009458" lon="15.859445270549857"><ele>74.0</ele><time>2026-04-18T09:38:35.946Z</time></trkpt><trkpt lat="39.613692150834666" lon="15.85953439641398"><ele>74.60000000000001</ele><time>2026-04-18T09:38:36.946Z</time></trkpt><trkpt lat="39.61376635775326" lon="15.85962807711605"><ele>75.2</ele><time>2026-04-18T09:38:37.946Z</time></trkpt><trkpt lat="39.61384593458483" lon="15.859728140518618"><ele>75.80000000000001</ele><time>2026-04-18T09:38:38.946Z</time></trkpt><trkpt lat="39.6139246955733" lon="15.859825031642881"><ele>76.4</ele><time>2026-04-18T09:38:39.946Z</time></trkpt><trkpt lat="39.61400694424121" lon="15.859926312354345"><ele>77.0</ele><time>2026-04-18T09:38:40.946Z</time></trkpt><trkpt lat="39.61409221109861" lon="15.860030343076197"><ele>75.25</ele><time>2026-04-18T09:38:41.946Z</time></trkpt><trkpt lat="39.614179912952814" lon="15.86013907679182"><ele>73.5</ele><time>2026-04-18T09:38:42.946Z</time></trkpt><trkpt lat="39.61426608051811" lon="15.860246666594495"><ele>71.75</ele><time>2026-04-18T09:38:43.946Z</time></trkpt><trkpt lat="39.614355897672446" lon="15.8603588133279"><ele>70.0</ele><time>2026-04-18T09:38:44.946Z</time></trkpt><trkpt lat="39.61444552054331" lon="15.860470717466804"><ele>74.25</ele><time>2026-04-18T09:38:45.946Z</time></trkpt><trkpt lat="39.6145334697888" lon="15.860580531968568"><ele>78.5</ele><time>2026-04-18T09:38:46.946Z</time></trkpt><trkpt lat="39.614626207974844" lon="15.860697239696997"><ele>82.75</ele><time>2026-04-18T09:38:47.946Z</time></trkpt><trkpt lat="39.61470661505369" lon="15.860798319777219"><ele>87.0</ele><time>2026-04-18T09:38:48.947Z</time></trkpt><trkpt lat="39.614783821767524" lon="15.860895376659588"><ele>86.33333333333333</ele><time>2026-04-18T09:38:49.947Z</time></trkpt><trkpt lat="39.61484969236045" lon="15.860975777044986"><ele>85.66666666666667</ele><time>2026-04-18T09:38:50.947Z</time></trkpt><trkpt lat="39.61491211381971" lon="15.861049998190385"><ele>85.0</ele><time>2026-04-18T09:38:51.947Z</time></trkpt><trkpt lat="39.61497689840104" lon="15.861113547578306"><ele>84.33333333333334</ele><time>2026-04-18T09:38:52.947Z</time></trkpt><trkpt lat="39.61505536513936" lon="15.86114524074268"><ele>83.66666666666667</ele><time>2026-04-18T09:38:53.947Z</time></trkpt><trkpt lat="39.615139291859755" lon="15.861142065654962"><ele>83.0</ele><time>2026-04-18T09:38:54.947Z</time></trkpt><trkpt lat="39.615217807224504" lon="15.861142464109808"><ele>83.0</ele><time>2026-04-18T09:38:55.947Z</time></trkpt><trkpt lat="39.615301656464105" lon="15.861126076967997"><ele>83.0</ele><time>2026-04-18T09:38:56.947Z</time></trkpt><trkpt lat="39.61539046592093" lon="15.861076029455464"><ele>83.0</ele><time>2026-04-18T09:38:57.947Z</time></trkpt><trkpt lat="39.61547862702174" lon="15.86098422521737"><ele>83.0</ele><time>2026-04-18T09:38:58.947Z</time></trkpt><trkpt lat="39.61555862816171" lon="15.860884122551008"><ele>83.0</ele><time>2026-04-18T09:38:59.947Z</time></trkpt><trkpt lat="39.615620732861096" lon="15.860797660599422"><ele>85.0</ele><time>2026-04-18T09:39:00.947Z</time></trkpt><trkpt lat="39.615677159767" lon="15.860723452032154"><ele>87.0</ele><time>2026-04-18T09:39:01.947Z</time></trkpt><trkpt lat="39.61577203552732" lon="15.860619657381893"><ele>89.0</ele><time>2026-04-18T09:39:03.947Z</time></trkpt><trkpt lat="39.61582292051166" lon="15.860566543502081"><ele>91.0</ele><time>2026-04-18T09:39:04.947Z</time></trkpt><trkpt lat="39.615907782258475" lon="15.860467472913424"><ele>93.0</ele><time>2026-04-18T09:39:06.947Z</time></trkpt><trkpt lat="39.61596876504131" lon="15.860397580210263"><ele>93.0</ele><time>2026-04-18T09:39:09.947Z</time></trkpt><trkpt lat="39.61603010429319" lon="15.860297882900298"><ele>93.0</ele><time>2026-04-18T09:39:12.947Z</time></trkpt><trkpt lat="39.61610061174743" lon="15.860219016119531"><ele>93.0</ele><time>2026-04-18T09:39:15.947Z</time></trkpt><trkpt lat="39.61615196850578" lon="15.860166346538477"><ele>93.0</ele><time>2026-04-18T09:39:17.947Z</time></trkpt><trkpt lat="39.61620286350897" lon="15.860106467233713"><ele>93.0</ele><time>2026-04-18T09:39:20.947Z</time></trkpt><trkpt lat="39.61626698294367" lon="15.860042016245997"><ele>93.0</ele><time>2026-04-18T09:39:24.947Z</time></trkpt><trkpt lat="39.616315437304294" lon="15.859908977668237"><ele>93.57142857142858</ele><time>2026-04-18T09:39:46.946Z</time></trkpt><trkpt lat="39.61639039516831" lon="15.859807024431625"><ele>94.14285714285714</ele><time>2026-04-18T09:39:48.946Z</time></trkpt><trkpt lat="39.616422570473205" lon="15.859726150989271"><ele>94.71428571428572</ele><time>2026-04-18T09:39:50.946Z</time></trkpt><trkpt lat="39.6164899719777" lon="15.859687803507228"><ele>95.28571428571429</ele><time>2026-04-18T09:39:52.946Z</time></trkpt><trkpt lat="39.61653696179297" lon="15.859633263123063"><ele>95.85714285714286</ele><time>2026-04-18T09:39:54.946Z</time></trkpt><trkpt lat="39.6166014642967" lon="15.859627857129723"><ele>96.42857142857143</ele><time>2026-04-18T09:39:56.946Z</time></trkpt><trkpt lat="39.61661511218163" lon="15.859544474526269"><ele>97.0</ele><time>2026-04-18T09:40:00.946Z</time></trkpt><trkpt lat="39.6165206167162" lon="15.859529286091515"><ele>97.0</ele><time>2026-04-18T09:40:04.946Z</time></trkpt><trkpt lat="39.61647338478238" lon="15.859637961861628"><ele>97.0</ele><time>2026-04-18T09:40:05.946Z</time></trkpt><trkpt lat="39.61642116252941" lon="15.859746030928882"><ele>97.0</ele><time>2026-04-18T09:40:06.946Z</time></trkpt><trkpt lat="39.61635276686459" lon="15.859847604099413"><ele>97.0</ele><time>2026-04-18T09:40:07.946Z</time></trkpt><trkpt lat="39.616266475133315" lon="15.859968588544923"><ele>97.0</ele><time>2026-04-18T09:40:08.946Z</time></trkpt><trkpt lat="39.61619051436107" lon="15.860071378885895"><ele>96.19999999999999</ele><time>2026-04-18T09:40:09.946Z</time></trkpt><trkpt lat="39.616135605824994" lon="15.860140470130636"><ele>95.4</ele><time>2026-04-18T09:40:10.946Z</time></trkpt><trkpt lat="39.616087366736515" lon="15.86019702121081"><ele>94.6</ele><time>2026-04-18T09:40:11.946Z</time></trkpt><trkpt lat="39.616017755298714" lon="15.860289710061709"><ele>93.80000000000001</ele><time>2026-04-18T09:40:13.946Z</time></trkpt><trkpt lat="39.61593969293131" lon="15.86039446566409"><ele>93.0</ele><time>2026-04-18T09:40:15.946Z</time></trkpt><trkpt lat="39.61584517050772" lon="15.860490809266029"><ele>93.0</ele><time>2026-04-18T09:40:17.946Z</time></trkpt><trkpt lat="39.61574220575594" lon="15.860579467573901"><ele>93.0</ele><time>2026-04-18T09:40:19.946Z</time></trkpt><trkpt lat="39.61569112386839" lon="15.860639867877577"><ele>93.0</ele><time>2026-04-18T09:40:20.946Z</time></trkpt><trkpt lat="39.61564490347148" lon="15.860715966934984"><ele>93.0</ele><time>2026-04-18T09:40:21.946Z</time></trkpt><trkpt lat="39.61555738930786" lon="15.860821338501111"><ele>93.0</ele><time>2026-04-18T09:40:23.946Z</time></trkpt><trkpt lat="39.61547606192071" lon="15.860921077618132"><ele>94.2</ele><time>2026-04-18T09:40:25.946Z</time></trkpt><trkpt lat="39.61539499878101" lon="15.861004464841702"><ele>95.4</ele><time>2026-04-18T09:40:27.946Z</time></trkpt><trkpt lat="39.61531993085875" lon="15.861056654118203"><ele>96.60000000000001</ele><time>2026-04-18T09:40:29.946Z</time></trkpt><trkpt lat="39.615256064586056" lon="15.86108506979839"><ele>97.80000000000001</ele><time>2026-04-18T09:40:32.946Z</time></trkpt><trkpt lat="39.61527728159245" lon="15.861279602554657"><ele>99.0</ele><time>2026-04-18T09:40:37.946Z</time></trkpt><trkpt lat="39.61533036282697" lon="15.861341136049202"><ele>99.0</ele><time>2026-04-18T09:40:38.946Z</time></trkpt><trkpt lat="39.61538347710283" lon="15.861394028813752"><ele>99.0</ele><time>2026-04-18T09:40:39.946Z</time></trkpt><trkpt lat="39.61543875238864" lon="15.861446417285704"><ele>99.0</ele><time>2026-04-18T09:40:40.946Z</time></trkpt><trkpt lat="39.61550876352086" lon="15.861495154076902"><ele>99.0</ele><time>2026-04-18T09:40:41.946Z</time></trkpt><trkpt lat="39.615578045311985" lon="15.86154097672579"><ele>99.0</ele><time>2026-04-18T09:40:42.946Z</time></trkpt><trkpt lat="39.61564517817626" lon="15.861582110837865"><ele>99.0</ele><time>2026-04-18T09:40:43.946Z</time></trkpt><trkpt lat="39.61571078199667" lon="15.861621868652662"><ele>99.0</ele><time>2026-04-18T09:40:44.946Z</time></trkpt><trkpt lat="39.61578058714508" lon="15.861661558393859"><ele>99.0</ele><time>2026-04-18T09:40:45.946Z</time></trkpt><trkpt lat="39.61584253153519" lon="15.861694756125969"><ele>99.0</ele><time>2026-04-18T09:40:46.946Z</time></trkpt><trkpt lat="39.61594951904827" lon="15.861759932520094"><ele>99.0</ele><time>2026-04-18T09:40:48.946Z</time></trkpt><trkpt lat="39.61601283538932" lon="15.861858069531833"><ele>99.0</ele><time>2026-04-18T09:40:50.946Z</time></trkpt><trkpt lat="39.61598933298421" lon="15.861948096616644"><ele>99.0</ele><time>2026-04-18T09:40:51.946Z</time></trkpt><trkpt lat="39.615993843250585" lon="15.862048631907745"><ele>99.0</ele><time>2026-04-18T09:40:52.946Z</time></trkpt><trkpt lat="39.6159994755192" lon="15.862152473811056"><ele>98.83333333333333</ele><time>2026-04-18T09:40:53.946Z</time></trkpt><trkpt lat="39.616005250150344" lon="15.862257106644774"><ele>98.66666666666666</ele><time>2026-04-18T09:40:54.946Z</time></trkpt><trkpt lat="39.61602786214673" lon="15.86235494495341"><ele>98.5</ele><time>2026-04-18T09:40:55.946Z</time></trkpt><trkpt lat="39.61601771582733" lon="15.86244282767459"><ele>98.33333333333333</ele><time>2026-04-18T09:40:56.946Z</time></trkpt><trkpt lat="39.61602592419713" lon="15.862525083341204"><ele>98.16666666666666</ele><time>2026-04-18T09:40:57.946Z</time></trkpt><trkpt lat="39.61603773688417" lon="15.862633270578261"><ele>98.0</ele><time>2026-04-18T09:40:59.946Z</time></trkpt><trkpt lat="39.61620198599085" lon="15.86257819775688"><ele>104.4</ele><time>2026-04-18T09:41:02.946Z</time></trkpt><trkpt lat="39.61623581601316" lon="15.862477376018855"><ele>110.80000000000001</ele><time>2026-04-18T09:41:03.946Z</time></trkpt><trkpt lat="39.61627667215615" lon="15.86237557013206"><ele>117.2</ele><time>2026-04-18T09:41:04.946Z</time></trkpt><trkpt lat="39.616333164464365" lon="15.862281856037637"><ele>123.6</ele><time>2026-04-18T09:41:05.946Z</time></trkpt><trkpt lat="39.61640245952586" lon="15.862169293621971"><ele>130.0</ele><time>2026-04-18T09:41:06.946Z</time></trkpt><trkpt lat="39.616474873873415" lon="15.86203982903186"><ele>130.0</ele><time>2026-04-18T09:41:07.946Z</time></trkpt><trkpt lat="39.616539644826325" lon="15.861910462756843"><ele>130.0</ele><time>2026-04-18T09:41:08.946Z</time></trkpt><trkpt lat="39.61658616615824" lon="15.86181251590783"><ele>130.0</ele><time>2026-04-18T09:41:09.946Z</time></trkpt><trkpt lat="39.616619974788904" lon="15.861725425138442"><ele>130.0</ele><time>2026-04-18T09:41:10.946Z</time></trkpt><trkpt lat="39.616647830861126" lon="15.861632936589396"><ele>130.0</ele><time>2026-04-18T09:41:11.946Z</time></trkpt><trkpt lat="39.6166714809266" lon="15.861534379064537"><ele>130.0</ele><time>2026-04-18T09:41:12.946Z</time></trkpt><trkpt lat="39.61670419800815" lon="15.861454073344193"><ele>128.5</ele><time>2026-04-18T09:41:13.946Z</time></trkpt><trkpt lat="39.616749252668484" lon="15.861387210943219"><ele>127.0</ele><time>2026-04-18T09:41:14.946Z</time></trkpt><trkpt lat="39.61681945931317" lon="15.861348267240668"><ele>125.5</ele><time>2026-04-18T09:41:15.946Z</time></trkpt><trkpt lat="39.61689185807606" lon="15.861293618063714"><ele>124.0</ele><time>2026-04-18T09:41:16.946Z</time></trkpt><trkpt lat="39.61696677089211" lon="15.861258219541849"><ele>122.50000000000001</ele><time>2026-04-18T09:41:17.946Z</time></trkpt><trkpt lat="39.617049706283495" lon="15.861232802079057"><ele>121.0</ele><time>2026-04-18T09:41:18.946Z</time></trkpt><trkpt lat="39.61713107117738" lon="15.861195181413427"><ele>123.83333333333334</ele><time>2026-04-18T09:41:19.946Z</time></trkpt><trkpt lat="39.61720886706576" lon="15.861183455446877"><ele>126.66666666666667</ele><time>2026-04-18T09:41:20.946Z</time></trkpt><trkpt lat="39.61727276004995" lon="15.86114415577362"><ele>129.5</ele><time>2026-04-18T09:41:21.946Z</time></trkpt><trkpt lat="39.617324336092004" lon="15.861068869614016"><ele>132.33333333333334</ele><time>2026-04-18T09:41:22.946Z</time></trkpt><trkpt lat="39.61736052352141" lon="15.860976215642578"><ele>135.16666666666666</ele><time>2026-04-18T09:41:23.946Z</time></trkpt><trkpt lat="39.617418026455496" lon="15.860901723483366"><ele>138.0</ele><time>2026-04-18T09:41:24.946Z</time></trkpt><trkpt lat="39.61747028249357" lon="15.860827635149791"><ele>138.0</ele><time>2026-04-18T09:41:25.946Z</time></trkpt><trkpt lat="39.617516951005044" lon="15.860765740717243"><ele>138.0</ele><time>2026-04-18T09:41:26.946Z</time></trkpt><trkpt lat="39.6175802483857" lon="15.860688584558865"><ele>138.0</ele><time>2026-04-18T09:41:28.946Z</time></trkpt><trkpt lat="39.617659603840124" lon="15.86068168153075"><ele>138.0</ele><time>2026-04-18T09:41:30.946Z</time></trkpt><trkpt lat="39.61775754335656" lon="15.860758840056024"><ele>138.0</ele><time>2026-04-18T09:41:32.946Z</time></trkpt><trkpt lat="39.617868729656465" lon="15.860800246184617"><ele>140.20000000000002</ele><time>2026-04-18T09:41:34.946Z</time></trkpt><trkpt lat="39.61798588394286" lon="15.860818158464873"><ele>142.4</ele><time>2026-04-18T09:41:36.946Z</time></trkpt><trkpt lat="39.61809840303427" lon="15.860821560573992"><ele>144.60000000000002</ele><time>2026-04-18T09:41:38.946Z</time></trkpt><trkpt lat="39.61816118311048" lon="15.860803005467867"><ele>146.8</ele><time>2026-04-18T09:41:39.946Z</time></trkpt><trkpt lat="39.61821386523147" lon="15.860854785873242"><ele>149.0</ele><time>2026-04-18T09:41:40.946Z</time></trkpt><trkpt lat="39.618269223737144" lon="15.86097971330681"><ele>151.57142857142856</ele><time>2026-04-18T09:41:42.946Z</time></trkpt><trkpt lat="39.61829786670514" lon="15.86105816541372"><ele>154.14285714285714</ele><time>2026-04-18T09:41:43.946Z</time></trkpt><trkpt lat="39.61832979753129" lon="15.861137047901032"><ele>156.71428571428572</ele><time>2026-04-18T09:41:44.946Z</time></trkpt><trkpt lat="39.61836211474472" lon="15.861212524223765"><ele>159.28571428571428</ele><time>2026-04-18T09:41:45.946Z</time></trkpt><trkpt lat="39.618394019892676" lon="15.861285543341445"><ele>161.85714285714286</ele><time>2026-04-18T09:41:46.946Z</time></trkpt><trkpt lat="39.61842578458143" lon="15.861357383489656"><ele>164.42857142857142</ele><time>2026-04-18T09:41:47.946Z</time></trkpt><trkpt lat="39.61847625643913" lon="15.861483356558681"><ele>167.0</ele><time>2026-04-18T09:41:49.946Z</time></trkpt><trkpt lat="39.61850231861796" lon="15.861621258469686"><ele>167.0</ele><time>2026-04-18T09:41:51.946Z</time></trkpt><trkpt lat="39.61851282114855" lon="15.861759778324773"><ele>167.0</ele><time>2026-04-18T09:41:53.946Z</time></trkpt><trkpt lat="39.61851063883022" lon="15.861875317013421"><ele>167.0</ele><time>2026-04-18T09:41:55.946Z</time></trkpt><trkpt lat="39.6184932426391" lon="15.861955895529999"><ele>167.0</ele><time>2026-04-18T09:41:57.945Z</time></trkpt><trkpt lat="39.618448732892944" lon="15.862018345251164"><ele>167.0</ele><time>2026-04-18T09:41:59.945Z</time></trkpt><trkpt lat="39.61835546742454" lon="15.862001375877833"><ele>167.0</ele><time>2026-04-18T09:42:00.945Z</time></trkpt><trkpt lat="39.61825059496956" lon="15.862019979802456"><ele>169.83333333333331</ele><time>2026-04-18T09:42:02.945Z</time></trkpt><trkpt lat="39.61817186901683" lon="15.862044971061975"><ele>172.66666666666666</ele><time>2026-04-18T09:42:04.945Z</time></trkpt><trkpt lat="39.61813475279264" lon="15.862116261877933"><ele>175.5</ele><time>2026-04-18T09:42:06.945Z</time></trkpt><trkpt lat="39.61819187719071" lon="15.862228530268764"><ele>178.33333333333334</ele><time>2026-04-18T09:42:10.945Z</time></trkpt><trkpt lat="39.61828341483423" lon="15.86226417165927"><ele>181.16666666666669</ele><time>2026-04-18T09:42:12.945Z</time></trkpt><trkpt lat="39.61835239476848" lon="15.862283979322687"><ele>184.0</ele><time>2026-04-18T09:42:14.945Z</time></trkpt><trkpt lat="39.618443805840016" lon="15.86231499342176"><ele>184.0</ele><time>2026-04-18T09:42:17.945Z</time></trkpt><trkpt lat="39.61838929018837" lon="15.862387676681307"><ele>184.0</ele><time>2026-04-18T09:42:22.945Z</time></trkpt><trkpt lat="39.61834255639998" lon="15.862452406272977"><ele>184.0</ele><time>2026-04-18T09:42:23.945Z</time></trkpt><trkpt lat="39.61827032531607" lon="15.862548315249501"><ele>184.0</ele><time>2026-04-18T09:42:25.945Z</time></trkpt><trkpt lat="39.618213324903316" lon="15.86263642123236"><ele>184.0</ele><time>2026-04-18T09:42:27.945Z</time></trkpt><trkpt lat="39.61815644077605" lon="15.862690032901853"><ele>184.0</ele><time>2026-04-18T09:42:30.945Z</time></trkpt><trkpt lat="39.618101181060865" lon="15.862754171566927"><ele>182.5</ele><time>2026-04-18T09:42:34.945Z</time></trkpt><trkpt lat="39.618163398920025" lon="15.862840750993861"><ele>181.0</ele><time>2026-04-18T09:42:36.945Z</time></trkpt><trkpt lat="39.618233209149096" lon="15.862873787373546"><ele>179.5</ele><time>2026-04-18T09:42:39.945Z</time></trkpt><trkpt lat="39.61817789597723" lon="15.862805715374181"><ele>178.0</ele><time>2026-04-18T09:42:57.945Z</time></trkpt><trkpt lat="39.61819091085313" lon="15.862708568654986"><ele>176.5</ele><time>2026-04-18T09:42:58.945Z</time></trkpt><trkpt lat="39.61811052151737" lon="15.862695731116148"><ele>175.0</ele><time>2026-04-18T09:43:00.945Z</time></trkpt><trkpt lat="39.61803680453162" lon="15.86261499916157"><ele>175.0</ele><time>2026-04-18T09:43:02.945Z</time></trkpt><trkpt lat="39.61795062172094" lon="15.862569196572496"><ele>175.0</ele><time>2026-04-18T09:43:04.945Z</time></trkpt><trkpt lat="39.617867569692955" lon="15.862620231194864"><ele>175.0</ele><time>2026-04-18T09:43:06.945Z</time></trkpt><trkpt lat="39.617821233691004" lon="15.862734468208812"><ele>175.0</ele><time>2026-04-18T09:43:08.945Z</time></trkpt><trkpt lat="39.617834687038005" lon="15.862862468268217"><ele>175.0</ele><time>2026-04-18T09:43:10.945Z</time></trkpt><trkpt lat="39.6179221648148" lon="15.862948364273525"><ele>175.0</ele><time>2026-04-18T09:43:12.945Z</time></trkpt><trkpt lat="39.618013835907476" lon="15.863003393135946"><ele>175.0</ele><time>2026-04-18T09:43:14.945Z</time></trkpt><trkpt lat="39.618072264512065" lon="15.863042630161573"><ele>175.0</ele><time>2026-04-18T09:43:15.945Z</time></trkpt><trkpt lat="39.61817037931668" lon="15.863110438642229"><ele>175.0</ele><time>2026-04-18T09:43:17.944Z</time></trkpt><trkpt lat="39.618278112888234" lon="15.86319321391082"><ele>175.0</ele><time>2026-04-18T09:43:19.944Z</time></trkpt><trkpt lat="39.61833932226913" lon="15.863240131998426"><ele>175.0</ele><time>2026-04-18T09:43:20.944Z</time></trkpt><trkpt lat="39.61839796057938" lon="15.863277475931106"><ele>175.0</ele><time>2026-04-18T09:43:21.944Z</time></trkpt><trkpt lat="39.61845116061882" lon="15.863325375807765"><ele>175.0</ele><time>2026-04-18T09:43:22.944Z</time></trkpt><trkpt lat="39.618509705310835" lon="15.863363529644387"><ele>175.0</ele><time>2026-04-18T09:43:23.944Z</time></trkpt><trkpt lat="39.61862145587337" lon="15.863435628278847"><ele>175.0</ele><time>2026-04-18T09:43:25.944Z</time></trkpt><trkpt lat="39.61873230922827" lon="15.863518898106623"><ele>175.0</ele><time>2026-04-18T09:43:27.944Z</time></trkpt><trkpt lat="39.61879614101918" lon="15.863566352913843"><ele>170.4</ele><time>2026-04-18T09:43:28.944Z</time></trkpt><trkpt lat="39.61886676986425" lon="15.863615323086352"><ele>165.8</ele><time>2026-04-18T09:43:29.944Z</time></trkpt><trkpt lat="39.61894756658663" lon="15.863669461849119"><ele>161.2</ele><time>2026-04-18T09:43:30.944Z</time></trkpt><trkpt lat="39.61903032884899" lon="15.86371945824555"><ele>156.6</ele><time>2026-04-18T09:43:31.944Z</time></trkpt><trkpt lat="39.619112363796404" lon="15.86376891368775"><ele>152.0</ele><time>2026-04-18T09:43:32.944Z</time></trkpt><trkpt lat="39.619200388013354" lon="15.863831770092984"><ele>152.0</ele><time>2026-04-18T09:43:33.944Z</time></trkpt><trkpt lat="39.619291655123824" lon="15.863897689181641"><ele>152.0</ele><time>2026-04-18T09:43:34.944Z</time></trkpt><trkpt lat="39.61938149551406" lon="15.863956907722713"><ele>152.0</ele><time>2026-04-18T09:43:35.944Z</time></trkpt><trkpt lat="39.61947118412165" lon="15.864014219297193"><ele>152.0</ele><time>2026-04-18T09:43:36.944Z</time></trkpt><trkpt lat="39.61956119687287" lon="15.864069190467422"><ele>152.0</ele><time>2026-04-18T09:43:37.944Z</time></trkpt><trkpt lat="39.619650281656945" lon="15.864124648864141"><ele>154.8</ele><time>2026-04-18T09:43:38.944Z</time></trkpt><trkpt lat="39.61973921414679" lon="15.864177111555382"><ele>157.6</ele><time>2026-04-18T09:43:39.944Z</time></trkpt><trkpt lat="39.61982283114216" lon="15.864231106316387"><ele>160.4</ele><time>2026-04-18T09:43:40.944Z</time></trkpt><trkpt lat="39.61990462973322" lon="15.86426472201774"><ele>163.20000000000002</ele><time>2026-04-18T09:43:41.944Z</time></trkpt><trkpt lat="39.61999291326723" lon="15.864275550095137"><ele>166.0</ele><time>2026-04-18T09:43:42.944Z</time></trkpt><trkpt lat="39.62008086389775" lon="15.864257736534727"><ele>166.0</ele><time>2026-04-18T09:43:43.944Z</time></trkpt><trkpt lat="39.620164646961236" lon="15.864228893418883"><ele>166.0</ele><time>2026-04-18T09:43:44.944Z</time></trkpt><trkpt lat="39.620241993153094" lon="15.86422549409757"><ele>166.0</ele><time>2026-04-18T09:43:45.944Z</time></trkpt><trkpt lat="39.620312725195205" lon="15.864211200854726"><ele>166.0</ele><time>2026-04-18T09:43:46.944Z</time></trkpt><trkpt lat="39.620377095330156" lon="15.864219322606909"><ele>166.0</ele><time>2026-04-18T09:43:47.944Z</time></trkpt><trkpt lat="39.62046528280613" lon="15.864300586215947"><ele>166.0</ele><time>2026-04-18T09:43:49.944Z</time></trkpt><trkpt lat="39.62050653722335" lon="15.864377434687748"><ele>163.16666666666669</ele><time>2026-04-18T09:43:50.944Z</time></trkpt><trkpt lat="39.62054801449555" lon="15.864456970986092"><ele>160.33333333333334</ele><time>2026-04-18T09:43:51.944Z</time></trkpt><trkpt lat="39.620590443352945" lon="15.864539407839674"><ele>157.5</ele><time>2026-04-18T09:43:52.944Z</time></trkpt><trkpt lat="39.62063329611946" lon="15.864622668322658"><ele>154.66666666666666</ele><time>2026-04-18T09:43:53.944Z</time></trkpt><trkpt lat="39.62067670111949" lon="15.86470696412004"><ele>151.83333333333331</ele><time>2026-04-18T09:43:54.944Z</time></trkpt><trkpt lat="39.6207218275909" lon="15.864794572000243"><ele>149.0</ele><time>2026-04-18T09:43:55.944Z</time></trkpt><trkpt lat="39.62076953986186" lon="15.864887093308406"><ele>149.0</ele><time>2026-04-18T09:43:56.944Z</time></trkpt><trkpt lat="39.620817032264355" lon="15.864978138655479"><ele>149.0</ele><time>2026-04-18T09:43:57.944Z</time></trkpt><trkpt lat="39.620862144013124" lon="15.865065909473383"><ele>149.0</ele><time>2026-04-18T09:43:58.944Z</time></trkpt><trkpt lat="39.620904657079215" lon="15.865149127297911"><ele>149.0</ele><time>2026-04-18T09:43:59.944Z</time></trkpt><trkpt lat="39.620941596446336" lon="15.865221434802546"><ele>149.0</ele><time>2026-04-18T09:44:00.944Z</time></trkpt><trkpt lat="39.621023027228155" lon="15.865341782509457"><ele>149.0</ele><time>2026-04-18T09:44:02.944Z</time></trkpt><trkpt lat="39.62107408307214" lon="15.865436296204084"><ele>149.0</ele><time>2026-04-18T09:44:04.944Z</time></trkpt><trkpt lat="39.621129190405625" lon="15.865518304468955"><ele>149.0</ele><time>2026-04-18T09:44:06.944Z</time></trkpt><trkpt lat="39.62119186986528" lon="15.865598288651647"><ele>149.0</ele><time>2026-04-18T09:44:08.943Z</time></trkpt><trkpt lat="39.621133047741445" lon="15.865708090663354"><ele>149.0</ele><time>2026-04-18T09:44:09.943Z</time></trkpt><trkpt lat="39.62125646974573" lon="15.865746687990809"><ele>149.0</ele><time>2026-04-18T09:44:11.943Z</time></trkpt><trkpt lat="39.621306729252424" lon="15.865861061485628"><ele>149.33333333333331</ele><time>2026-04-18T09:44:13.943Z</time></trkpt><trkpt lat="39.621374239498174" lon="15.866000416381453"><ele>149.66666666666666</ele><time>2026-04-18T09:44:15.943Z</time></trkpt><trkpt lat="39.62138387223896" lon="15.86608954007115"><ele>150.0</ele><time>2026-04-18T09:44:16.943Z</time></trkpt><trkpt lat="39.62142091155728" lon="15.86616164425076"><ele>150.33333333333334</ele><time>2026-04-18T09:44:17.943Z</time></trkpt><trkpt lat="39.621465439288734" lon="15.866248105722889"><ele>150.66666666666669</ele><time>2026-04-18T09:44:18.943Z</time></trkpt><trkpt lat="39.62151154228499" lon="15.86634732600071"><ele>151.0</ele><time>2026-04-18T09:44:19.943Z</time></trkpt><trkpt lat="39.621564124671714" lon="15.866458488875915"><ele>151.0</ele><time>2026-04-18T09:44:20.943Z</time></trkpt><trkpt lat="39.62161563949501" lon="15.866563638681738"><ele>151.0</ele><time>2026-04-18T09:44:21.943Z</time></trkpt><trkpt lat="39.62166522400948" lon="15.86664826735472"><ele>151.0</ele><time>2026-04-18T09:44:22.943Z</time></trkpt><trkpt lat="39.62171608138423" lon="15.866717771554953"><ele>151.0</ele><time>2026-04-18T09:44:23.943Z</time></trkpt><trkpt lat="39.62180376026702" lon="15.86674044486302"><ele>151.0</ele><time>2026-04-18T09:44:24.943Z</time></trkpt><trkpt lat="39.62188103412468" lon="15.866807776809063"><ele>151.0</ele><time>2026-04-18T09:44:25.943Z</time></trkpt><trkpt lat="39.62197207737457" lon="15.866855020335876"><ele>152.83333333333334</ele><time>2026-04-18T09:44:26.943Z</time></trkpt><trkpt lat="39.6220576889469" lon="15.866900014087276"><ele>154.66666666666669</ele><time>2026-04-18T09:44:27.943Z</time></trkpt><trkpt lat="39.62213367008026" lon="15.866955919845553"><ele>156.5</ele><time>2026-04-18T09:44:28.943Z</time></trkpt><trkpt lat="39.62219040014373" lon="15.86701987966905"><ele>158.33333333333334</ele><time>2026-04-18T09:44:29.943Z</time></trkpt><trkpt lat="39.62221245021586" lon="15.867115858904393"><ele>160.16666666666666</ele><time>2026-04-18T09:44:30.943Z</time></trkpt><trkpt lat="39.62222879148794" lon="15.867234907847184"><ele>162.0</ele><time>2026-04-18T09:44:31.943Z</time></trkpt><trkpt lat="39.622261465308185" lon="15.867367341059932"><ele>162.0</ele><time>2026-04-18T09:44:32.943Z</time></trkpt><trkpt lat="39.62229383076619" lon="15.867472478525844"><ele>162.0</ele><time>2026-04-18T09:44:33.943Z</time></trkpt><trkpt lat="39.62236625621091" lon="15.867558022717304"><ele>162.0</ele><time>2026-04-18T09:44:34.943Z</time></trkpt><trkpt lat="39.622445607214495" lon="15.867640558293111"><ele>162.0</ele><time>2026-04-18T09:44:35.943Z</time></trkpt><trkpt lat="39.62253785678995" lon="15.867708799466815"><ele>162.0</ele><time>2026-04-18T09:44:36.943Z</time></trkpt><trkpt lat="39.622625884543574" lon="15.867745672162338"><ele>162.5</ele><time>2026-04-18T09:44:37.943Z</time></trkpt><trkpt lat="39.622694692321474" lon="15.867794422228963"><ele>163.0</ele><time>2026-04-18T09:44:38.943Z</time></trkpt><trkpt lat="39.622766511576756" lon="15.867821516973983"><ele>163.5</ele><time>2026-04-18T09:44:39.943Z</time></trkpt><trkpt lat="39.622880743480664" lon="15.867861162590334"><ele>164.0</ele><time>2026-04-18T09:44:41.943Z</time></trkpt><trkpt lat="39.62296279509806" lon="15.867885874696837"><ele>164.5</ele><time>2026-04-18T09:44:43.943Z</time></trkpt><trkpt lat="39.623053293322265" lon="15.867895270513458"><ele>165.0</ele><time>2026-04-18T09:44:46.943Z</time></trkpt><trkpt lat="39.62312144486717" lon="15.867919905289932"><ele>165.0</ele><time>2026-04-18T09:44:49.943Z</time></trkpt><trkpt lat="39.62319462859491" lon="15.867929873189015"><ele>165.0</ele><time>2026-04-18T09:44:59.943Z</time></trkpt><trkpt lat="39.623255210844384" lon="15.86790365824945"><ele>165.0</ele><time>2026-04-18T09:45:20.943Z</time></trkpt><trkpt lat="39.623309414395614" lon="15.867965354569275"><ele>165.0</ele><time>2026-04-18T09:45:24.943Z</time></trkpt><trkpt lat="39.62338426770541" lon="15.86793943106273"><ele>165.0</ele><time>2026-04-18T09:45:37.943Z</time></trkpt><trkpt lat="39.62347549643414" lon="15.867984232585409"><ele>165.0</ele><time>2026-04-18T09:45:40.943Z</time></trkpt><trkpt lat="39.62354138159618" lon="15.868037886320648"><ele>165.00000000000003</ele><time>2026-04-18T09:45:42.943Z</time></trkpt><trkpt lat="39.62359689779077" lon="15.86808285546267"><ele>165.0</ele><time>2026-04-18T09:45:44.943Z</time></trkpt><trkpt lat="39.62366076965681" lon="15.868099097769733"><ele>165.0</ele><time>2026-04-18T09:45:47.943Z</time></trkpt><trkpt lat="39.62371903097786" lon="15.86815373558193"><ele>165.0</ele><time>2026-04-18T09:45:51.943Z</time></trkpt><trkpt lat="39.62365951960708" lon="15.868108457606532"><ele>165.0</ele><time>2026-04-18T09:45:56.943Z</time></trkpt><trkpt lat="39.623656414354" lon="15.868011873177409"><ele>165.00000000000003</ele><time>2026-04-18T09:45:57.943Z</time></trkpt><trkpt lat="39.62356538759905" lon="15.868014241994201"><ele>165.0</ele><time>2026-04-18T09:46:00.943Z</time></trkpt><trkpt lat="39.62349183686334" lon="15.867971127821338"><ele>165.00000000000003</ele><time>2026-04-18T09:46:02.943Z</time></trkpt><trkpt lat="39.62342652078822" lon="15.867937219287013"><ele>165.0</ele><time>2026-04-18T09:46:04.943Z</time></trkpt><trkpt lat="39.62334516786128" lon="15.867928977150106"><ele>165.0</ele><time>2026-04-18T09:46:07.943Z</time></trkpt><trkpt lat="39.62327943800738" lon="15.867954358714341"><ele>165.0</ele><time>2026-04-18T09:46:11.943Z</time></trkpt><trkpt lat="39.6232130131927" lon="15.867906718505735"><ele>165.0</ele><time>2026-04-18T09:47:42.942Z</time></trkpt><trkpt lat="39.62314975037936" lon="15.867925426683032"><ele>165.00000000000003</ele><time>2026-04-18T09:47:50.942Z</time></trkpt><trkpt lat="39.6232038204608" lon="15.86798466164547"><ele>165.0</ele><time>2026-04-18T09:49:02.941Z</time></trkpt><trkpt lat="39.62327007739048" lon="15.868001807849874"><ele>165.00000000000003</ele><time>2026-04-18T09:49:10.941Z</time></trkpt><trkpt lat="39.62333123525454" lon="15.868032399409225"><ele>165.0</ele><time>2026-04-18T09:49:18.942Z</time></trkpt><trkpt lat="39.623393903315446" lon="15.868054092300904"><ele>165.0</ele><time>2026-04-18T09:49:27.942Z</time></trkpt><trkpt lat="39.623458339511984" lon="15.868083921247823"><ele>165.0</ele><time>2026-04-18T09:49:36.942Z</time></trkpt><trkpt lat="39.62350178438047" lon="15.868157984687754"><ele>165.0</ele><time>2026-04-18T09:49:43.942Z</time></trkpt><trkpt lat="39.62353655243393" lon="15.86823802728068"><ele>165.00000000000003</ele><time>2026-04-18T09:49:52.942Z</time></trkpt><trkpt lat="39.62355156768284" lon="15.86832329374731"><ele>165.0</ele><time>2026-04-18T09:50:00.942Z</time></trkpt><trkpt lat="39.62354051114643" lon="15.868408856995003"><ele>165.00000000000003</ele><time>2026-04-18T09:50:09.941Z</time></trkpt><trkpt lat="39.62360716899703" lon="15.868430298006514"><ele>165.0</ele><time>2026-04-18T10:09:22.934Z</time></trkpt><trkpt lat="39.623561857085264" lon="15.868366215302256"><ele>165.0</ele><time>2026-04-18T10:09:29.933Z</time></trkpt><trkpt lat="39.62354953049566" lon="15.86828516538648"><ele>165.0</ele><time>2026-04-18T10:09:36.933Z</time></trkpt><trkpt lat="39.62352792424076" lon="15.868205540846896"><ele>165.0</ele><time>2026-04-18T10:09:46.933Z</time></trkpt><trkpt lat="39.623506857155824" lon="15.868126713738267"><ele>165.00000000000003</ele><time>2026-04-18T10:09:52.933Z</time></trkpt><trkpt lat="39.623469563478004" lon="15.868057332713555"><ele>165.0</ele><time>2026-04-18T10:09:59.933Z</time></trkpt><trkpt lat="39.62340497290063" lon="15.868021180818788"><ele>165.00000000000003</ele><time>2026-04-18T10:10:06.933Z</time></trkpt><trkpt lat="39.62334437509144" lon="15.867998398370373"><ele>165.0</ele><time>2026-04-18T10:10:12.933Z</time></trkpt><trkpt lat="39.623281713813796" lon="15.867979529249101"><ele>165.0</ele><time>2026-04-18T10:10:18.934Z</time></trkpt><trkpt lat="39.62321118132215" lon="15.867957046218732"><ele>165.0</ele><time>2026-04-18T10:10:32.934Z</time></trkpt><trkpt lat="39.62314840268796" lon="15.867930306805434"><ele>165.0</ele><time>2026-04-18T10:10:39.934Z</time></trkpt><trkpt lat="39.62321102288361" lon="15.867890261610373"><ele>165.00000000000003</ele><time>2026-04-18T10:10:45.933Z</time></trkpt><trkpt lat="39.62328090937876" lon="15.867923667992407"><ele>165.0</ele><time>2026-04-18T10:10:51.933Z</time></trkpt><trkpt lat="39.623215064053504" lon="15.867917435765975"><ele>165.0</ele><time>2026-04-18T10:12:20.932Z</time></trkpt><trkpt lat="39.62313980339325" lon="15.867892716494813"><ele>165.0</ele><time>2026-04-18T10:13:18.933Z</time></trkpt><trkpt lat="39.62307541536927" lon="15.867910363831118"><ele>165.0</ele><time>2026-04-18T10:13:21.933Z</time></trkpt><trkpt lat="39.62300282947953" lon="15.867878506317867"><ele>165.0</ele><time>2026-04-18T10:13:25.933Z</time></trkpt><trkpt lat="39.62292330281923" lon="15.86783724661099"><ele>165.0</ele><time>2026-04-18T10:13:49.932Z</time></trkpt><trkpt lat="39.62287253554136" lon="15.867781485097224"><ele>165.0</ele><time>2026-04-18T10:13:52.932Z</time></trkpt><trkpt lat="39.62279161100166" lon="15.86777209988207"><ele>164.4</ele><time>2026-04-18T10:14:06.932Z</time></trkpt><trkpt lat="39.62268000504177" lon="15.867729333051168"><ele>163.8</ele><time>2026-04-18T10:14:08.932Z</time></trkpt><trkpt lat="39.62260145081584" lon="15.867698183245071"><ele>163.2</ele><time>2026-04-18T10:14:09.932Z</time></trkpt><trkpt lat="39.62250501837008" lon="15.867647874756095"><ele>162.6</ele><time>2026-04-18T10:14:10.932Z</time></trkpt><trkpt lat="39.622428831180116" lon="15.86757486990256"><ele>162.0</ele><time>2026-04-18T10:14:11.932Z</time></trkpt><trkpt lat="39.62236205562598" lon="15.867497942031784"><ele>162.0</ele><time>2026-04-18T10:14:12.932Z</time></trkpt><trkpt lat="39.62231274029823" lon="15.86740353993083"><ele>162.0</ele><time>2026-04-18T10:14:13.932Z</time></trkpt><trkpt lat="39.62228191171874" lon="15.86730316173641"><ele>162.0</ele><time>2026-04-18T10:14:14.932Z</time></trkpt><trkpt lat="39.6222603217141" lon="15.867203197540801"><ele>162.0</ele><time>2026-04-18T10:14:15.932Z</time></trkpt><trkpt lat="39.62224245819249" lon="15.867105797481864"><ele>162.0</ele><time>2026-04-18T10:14:16.932Z</time></trkpt><trkpt lat="39.62221802725467" lon="15.867015839348516"><ele>162.0</ele><time>2026-04-18T10:14:17.932Z</time></trkpt><trkpt lat="39.6221812303925" lon="15.866937750167251"><ele>162.0</ele><time>2026-04-18T10:14:18.932Z</time></trkpt><trkpt lat="39.622128891812636" lon="15.86687519292826"><ele>162.0</ele><time>2026-04-18T10:14:19.932Z</time></trkpt><trkpt lat="39.622052634954485" lon="15.86682445556746"><ele>162.0</ele><time>2026-04-18T10:14:20.932Z</time></trkpt><trkpt lat="39.62197126452009" lon="15.866790909686992"><ele>162.0</ele><time>2026-04-18T10:14:21.932Z</time></trkpt><trkpt lat="39.62189107646346" lon="15.866756739288075"><ele>162.0</ele><time>2026-04-18T10:14:22.932Z</time></trkpt><trkpt lat="39.621822834575504" lon="15.866718083162162"><ele>162.0</ele><time>2026-04-18T10:14:23.932Z</time></trkpt><trkpt lat="39.62175172705846" lon="15.8666699571234"><ele>160.16666666666666</ele><time>2026-04-18T10:14:24.932Z</time></trkpt><trkpt lat="39.62169060043327" lon="15.866608031979542"><ele>158.33333333333334</ele><time>2026-04-18T10:14:25.932Z</time></trkpt><trkpt lat="39.621644370033174" lon="15.866530082050861"><ele>156.5</ele><time>2026-04-18T10:14:26.932Z</time></trkpt><trkpt lat="39.621610022223884" lon="15.866453175123198"><ele>154.66666666666669</ele><time>2026-04-18T10:14:27.932Z</time></trkpt><trkpt lat="39.621577725583556" lon="15.866380556308826"><ele>152.83333333333334</ele><time>2026-04-18T10:14:28.933Z</time></trkpt><trkpt lat="39.62151536776253" lon="15.86624322158056"><ele>151.0</ele><time>2026-04-18T10:14:30.933Z</time></trkpt><trkpt lat="39.621452553815296" lon="15.866107409249718"><ele>151.0</ele><time>2026-04-18T10:14:32.933Z</time></trkpt><trkpt lat="39.621398665413224" lon="15.86600140704184"><ele>151.0</ele><time>2026-04-18T10:14:34.933Z</time></trkpt><trkpt lat="39.6213497881612" lon="15.865889916578856"><ele>151.0</ele><time>2026-04-18T10:14:37.933Z</time></trkpt><trkpt lat="39.621309712856856" lon="15.865808826268452"><ele>151.0</ele><time>2026-04-18T10:14:39.933Z</time></trkpt><trkpt lat="39.62126372428654" lon="15.865698964708137"><ele>151.0</ele><time>2026-04-18T10:14:41.933Z</time></trkpt><trkpt lat="39.62123146813266" lon="15.865601408043856"><ele>151.0</ele><time>2026-04-18T10:14:43.933Z</time></trkpt><trkpt lat="39.621206471341615" lon="15.865469603077429"><ele>150.5</ele><time>2026-04-18T10:14:46.933Z</time></trkpt><trkpt lat="39.62118366820309" lon="15.865382595337714"><ele>150.0</ele><time>2026-04-18T10:14:47.933Z</time></trkpt><trkpt lat="39.62104353681339" lon="15.865314947996024"><ele>149.5</ele><time>2026-04-18T10:14:48.933Z</time></trkpt><trkpt lat="39.6209785331184" lon="15.865195509626991"><ele>149.0</ele><time>2026-04-18T10:14:49.933Z</time></trkpt><trkpt lat="39.620886492175785" lon="15.865027663130071"><ele>149.0</ele><time>2026-04-18T10:14:50.933Z</time></trkpt><trkpt lat="39.62079218292926" lon="15.86484174221474"><ele>149.0</ele><time>2026-04-18T10:14:51.933Z</time></trkpt><trkpt lat="39.62068251595695" lon="15.86462803474085"><ele>149.0</ele><time>2026-04-18T10:14:52.933Z</time></trkpt><trkpt lat="39.620592332751144" lon="15.864452328617844"><ele>149.0</ele><time>2026-04-18T10:14:53.933Z</time></trkpt><trkpt lat="39.62052680708567" lon="15.864318974810708"><ele>149.0</ele><time>2026-04-18T10:14:54.933Z</time></trkpt><trkpt lat="39.620476607158416" lon="15.864213045524789"><ele>149.0</ele><time>2026-04-18T10:14:55.933Z</time></trkpt><trkpt lat="39.62042783118441" lon="15.864149176410988"><ele>149.0</ele><time>2026-04-18T10:14:56.933Z</time></trkpt><trkpt lat="39.62036295696081" lon="15.86412838967098"><ele>149.0</ele><time>2026-04-18T10:14:57.933Z</time></trkpt><trkpt lat="39.62027280701892" lon="15.864152342253934"><ele>149.0</ele><time>2026-04-18T10:14:58.933Z</time></trkpt><trkpt lat="39.6201408982775" lon="15.864208789737624"><ele>152.4</ele><time>2026-04-18T10:14:59.933Z</time></trkpt><trkpt lat="39.620028272797335" lon="15.86423571417203"><ele>155.8</ele><time>2026-04-18T10:15:00.933Z</time></trkpt><trkpt lat="39.619949566671245" lon="15.864240900857684"><ele>159.20000000000002</ele><time>2026-04-18T10:15:01.933Z</time></trkpt><trkpt lat="39.61987761595753" lon="15.864226717958168"><ele>162.60000000000002</ele><time>2026-04-18T10:15:02.932Z</time></trkpt><trkpt lat="39.619787655246" lon="15.864193623555115"><ele>166.0</ele><time>2026-04-18T10:15:03.932Z</time></trkpt><trkpt lat="39.61966888513574" lon="15.864127477866596"><ele>166.0</ele><time>2026-04-18T10:15:04.932Z</time></trkpt><trkpt lat="39.61954770439415" lon="15.86403720991759"><ele>166.0</ele><time>2026-04-18T10:15:05.932Z</time></trkpt><trkpt lat="39.619435658564946" lon="15.863966210458535"><ele>166.0</ele><time>2026-04-18T10:15:06.932Z</time></trkpt><trkpt lat="39.61932879956742" lon="15.86390161675252"><ele>166.0</ele><time>2026-04-18T10:15:07.932Z</time></trkpt><trkpt lat="39.61922474988423" lon="15.863829042222834"><ele>163.20000000000002</ele><time>2026-04-18T10:15:08.932Z</time></trkpt><trkpt lat="39.61911139873807" lon="15.863765097630514"><ele>160.4</ele><time>2026-04-18T10:15:09.932Z</time></trkpt><trkpt lat="39.61901613012397" lon="15.863708039119324"><ele>157.6</ele><time>2026-04-18T10:15:10.932Z</time></trkpt><trkpt lat="39.61892799555241" lon="15.86364585074469"><ele>154.8</ele><time>2026-04-18T10:15:11.932Z</time></trkpt><trkpt lat="39.618850577838224" lon="15.863582141153888"><ele>152.0</ele><time>2026-04-18T10:15:12.932Z</time></trkpt><trkpt lat="39.61877222289198" lon="15.863517059544767"><ele>157.75</ele><time>2026-04-18T10:15:13.932Z</time></trkpt><trkpt lat="39.618668396097426" lon="15.863441780620493"><ele>163.5</ele><time>2026-04-18T10:15:14.932Z</time></trkpt><trkpt lat="39.618561431260325" lon="15.863364946190206"><ele>169.25</ele><time>2026-04-18T10:15:15.932Z</time></trkpt><trkpt lat="39.618469713646476" lon="15.863291140315965"><ele>175.0</ele><time>2026-04-18T10:15:16.932Z</time></trkpt><trkpt lat="39.61837889455119" lon="15.863223044002394"><ele>175.0</ele><time>2026-04-18T10:15:17.932Z</time></trkpt><trkpt lat="39.61830092822771" lon="15.863154001700808"><ele>175.0</ele><time>2026-04-18T10:15:18.932Z</time></trkpt><trkpt lat="39.61821714063455" lon="15.863090593194968"><ele>175.0</ele><time>2026-04-18T10:15:19.932Z</time></trkpt><trkpt lat="39.61813965709995" lon="15.863042667613248"><ele>175.0</ele><time>2026-04-18T10:15:20.932Z</time></trkpt><trkpt lat="39.61806833954379" lon="15.862994109119185"><ele>175.0</ele><time>2026-04-18T10:15:21.932Z</time></trkpt><trkpt lat="39.618011721651854" lon="15.86294669885908"><ele>175.0</ele><time>2026-04-18T10:15:22.932Z</time></trkpt><trkpt lat="39.61791359515861" lon="15.862879774230356"><ele>175.0</ele><time>2026-04-18T10:15:24.932Z</time></trkpt><trkpt lat="39.61785499379596" lon="15.862812081489569"><ele>175.0</ele><time>2026-04-18T10:15:26.932Z</time></trkpt><trkpt lat="39.61783783827458" lon="15.862711032191607"><ele>175.0</ele><time>2026-04-18T10:15:28.932Z</time></trkpt><trkpt lat="39.61790295016274" lon="15.862616072503881"><ele>175.0</ele><time>2026-04-18T10:15:30.932Z</time></trkpt><trkpt lat="39.61798835166119" lon="15.862626817971098"><ele>175.0</ele><time>2026-04-18T10:15:32.932Z</time></trkpt><trkpt lat="39.61804565784126" lon="15.862681080824848"><ele>175.0</ele><time>2026-04-18T10:15:34.932Z</time></trkpt><trkpt lat="39.61810125304964" lon="15.862745137608458"><ele>175.0</ele><time>2026-04-18T10:15:37.932Z</time></trkpt><trkpt lat="39.61815311111053" lon="15.862796629340565"><ele>175.0</ele><time>2026-04-18T10:16:06.932Z</time></trkpt><trkpt lat="39.618218499237095" lon="15.86285961837109"><ele>175.0</ele><time>2026-04-18T10:16:09.932Z</time></trkpt><trkpt lat="39.61827793448064" lon="15.862920667371196"><ele>175.0</ele><time>2026-04-18T10:16:11.932Z</time></trkpt><trkpt lat="39.61837461709722" lon="15.863029494198026"><ele>175.0</ele><time>2026-04-18T10:16:13.932Z</time></trkpt><trkpt lat="39.61846879522935" lon="15.863100514590977"><ele>175.0</ele><time>2026-04-18T10:16:15.932Z</time></trkpt><trkpt lat="39.61856400057786" lon="15.863159903918381"><ele>175.0</ele><time>2026-04-18T10:16:17.932Z</time></trkpt><trkpt lat="39.61862983294546" lon="15.863203072134283"><ele>175.0</ele><time>2026-04-18T10:16:18.932Z</time></trkpt><trkpt lat="39.6186969032689" lon="15.863253540044758"><ele>175.0</ele><time>2026-04-18T10:16:19.932Z</time></trkpt><trkpt lat="39.61875317671516" lon="15.863298891551137"><ele>175.0</ele><time>2026-04-18T10:16:20.932Z</time></trkpt><trkpt lat="39.61885080838869" lon="15.86337757420651"><ele>175.0</ele><time>2026-04-18T10:16:22.932Z</time></trkpt><trkpt lat="39.61896535795128" lon="15.863467402109672"><ele>171.71428571428572</ele><time>2026-04-18T10:16:24.932Z</time></trkpt><trkpt lat="39.61902822421957" lon="15.863516383669822"><ele>168.42857142857144</ele><time>2026-04-18T10:16:25.932Z</time></trkpt><trkpt lat="39.61908843795332" lon="15.8635632985116"><ele>165.14285714285714</ele><time>2026-04-18T10:16:26.932Z</time></trkpt><trkpt lat="39.61914601580467" lon="15.863609823418871"><ele>161.85714285714286</ele><time>2026-04-18T10:16:27.932Z</time></trkpt><trkpt lat="39.61920327661082" lon="15.863659032937207"><ele>158.57142857142858</ele><time>2026-04-18T10:16:28.932Z</time></trkpt><trkpt lat="39.61926081908936" lon="15.86370295060914"><ele>155.28571428571428</ele><time>2026-04-18T10:16:29.932Z</time></trkpt><trkpt lat="39.619327885610325" lon="15.863732743628763"><ele>152.0</ele><time>2026-04-18T10:16:30.932Z</time></trkpt><trkpt lat="39.61943812574878" lon="15.863763294387576"><ele>154.0</ele><time>2026-04-18T10:16:32.932Z</time></trkpt><trkpt lat="39.61952008283141" lon="15.863774436709493"><ele>156.0</ele><time>2026-04-18T10:16:35.932Z</time></trkpt><trkpt lat="39.61958658168027" lon="15.863779457278307"><ele>158.0</ele><time>2026-04-18T10:16:39.932Z</time></trkpt><trkpt lat="39.61965217244048" lon="15.863773302381164"><ele>160.0</ele><time>2026-04-18T10:16:45.932Z</time></trkpt><trkpt lat="39.61971577003359" lon="15.863763660140057"><ele>162.0</ele><time>2026-04-18T10:16:47.932Z</time></trkpt><trkpt lat="39.61979818338757" lon="15.86375116514947"><ele>164.0</ele><time>2026-04-18T10:16:49.932Z</time></trkpt><trkpt lat="39.61984080870816" lon="15.863653255917153"><ele>166.0</ele><time>2026-04-18T10:16:50.932Z</time></trkpt><trkpt lat="39.619923603043695" lon="15.863573824495237"><ele>166.0</ele><time>2026-04-18T10:16:52.932Z</time></trkpt><trkpt lat="39.62001670928669" lon="15.863536314024788"><ele>166.0</ele><time>2026-04-18T10:16:54.932Z</time></trkpt><trkpt lat="39.620109323897665" lon="15.863477598832457"><ele>166.0</ele><time>2026-04-18T10:16:56.932Z</time></trkpt><trkpt lat="39.620133062702166" lon="15.86339809541991"><ele>166.0</ele><time>2026-04-18T10:16:58.932Z</time></trkpt><trkpt lat="39.62007783359427" lon="15.863353172165866"><ele>166.0</ele><time>2026-04-18T10:17:00.932Z</time></trkpt><trkpt lat="39.61996692068614" lon="15.863411674353106"><ele>166.0</ele><time>2026-04-18T10:17:02.932Z</time></trkpt><trkpt lat="39.619900873929666" lon="15.863447871042313"><ele>166.0</ele><time>2026-04-18T10:17:03.932Z</time></trkpt><trkpt lat="39.61984114529196" lon="15.863478403506234"><ele>166.0</ele><time>2026-04-18T10:17:04.932Z</time></trkpt><trkpt lat="39.619735954575454" lon="15.863493268694434"><ele>166.0</ele><time>2026-04-18T10:17:06.932Z</time></trkpt><trkpt lat="39.61967044537996" lon="15.863464077106887"><ele>166.0</ele><time>2026-04-18T10:17:08.932Z</time></trkpt><trkpt lat="39.619642583484904" lon="15.863318035076839"><ele>166.0</ele><time>2026-04-18T10:17:10.932Z</time></trkpt><trkpt lat="39.61963657575518" lon="15.86323015261024"><ele>170.66666666666669</ele><time>2026-04-18T10:17:11.932Z</time></trkpt><trkpt lat="39.61960781876296" lon="15.863154103595036"><ele>175.33333333333334</ele><time>2026-04-18T10:17:12.932Z</time></trkpt><trkpt lat="39.619550870248496" lon="15.863057653894732"><ele>180.0</ele><time>2026-04-18T10:17:14.932Z</time></trkpt><trkpt lat="39.61951425001555" lon="15.862990142040456"><ele>184.66666666666669</ele><time>2026-04-18T10:17:16.932Z</time></trkpt><trkpt lat="39.619494092450616" lon="15.862908181057499"><ele>189.33333333333334</ele><time>2026-04-18T10:17:19.932Z</time></trkpt><trkpt lat="39.619540602883696" lon="15.862834649505755"><ele>194.0</ele><time>2026-04-18T10:17:22.932Z</time></trkpt><trkpt lat="39.619568945785716" lon="15.862722700028979"><ele>194.0</ele><time>2026-04-18T10:17:26.932Z</time></trkpt><trkpt lat="39.61964219986568" lon="15.862689836249505"><ele>194.0</ele><time>2026-04-18T10:17:29.932Z</time></trkpt><trkpt lat="39.61971275301923" lon="15.862647000904941"><ele>194.0</ele><time>2026-04-18T10:17:33.932Z</time></trkpt><trkpt lat="39.61978229861941" lon="15.862613287731637"><ele>194.0</ele><time>2026-04-18T10:17:37.932Z</time></trkpt><trkpt lat="39.61984336408374" lon="15.862584902032102"><ele>194.0</ele><time>2026-04-18T10:20:59.93Z</time></trkpt><trkpt lat="39.619903751587955" lon="15.862558371290515"><ele>194.0</ele><time>2026-04-18T10:21:06.93Z</time></trkpt><trkpt lat="39.619961464110254" lon="15.862511281955102"><ele>194.0</ele><time>2026-04-18T10:21:13.93Z</time></trkpt><trkpt lat="39.62000630076001" lon="15.86245378055512"><ele>194.7142857142857</ele><time>2026-04-18T10:21:18.93Z</time></trkpt><trkpt lat="39.620069571672026" lon="15.862418870411053"><ele>195.42857142857144</ele><time>2026-04-18T10:22:39.929Z</time></trkpt><trkpt lat="39.62009920000414" lon="15.862344955880827"><ele>196.14285714285714</ele><time>2026-04-18T10:22:46.929Z</time></trkpt><trkpt lat="39.62011447456334" lon="15.862264559272788"><ele>196.85714285714283</ele><time>2026-04-18T10:22:52.93Z</time></trkpt><trkpt lat="39.62010997540963" lon="15.862173459893743"><ele>197.57142857142856</ele><time>2026-04-18T10:23:00.93Z</time></trkpt><trkpt lat="39.6201566133554" lon="15.862107131753566"><ele>198.28571428571428</ele><time>2026-04-18T10:23:09.93Z</time></trkpt><trkpt lat="39.620135934967074" lon="15.86218929820437"><ele>199.0</ele><time>2026-04-18T10:35:08.925Z</time></trkpt><trkpt lat="39.62009176820402" lon="15.862261161655056"><ele>198.99999999999997</ele><time>2026-04-18T10:35:16.925Z</time></trkpt><trkpt lat="39.62005476374522" lon="15.862330010879289"><ele>199.0</ele><time>2026-04-18T10:35:24.925Z</time></trkpt><trkpt lat="39.62002723087744" lon="15.86240994377349"><ele>199.0</ele><time>2026-04-18T10:35:33.925Z</time></trkpt><trkpt lat="39.61999019763621" lon="15.86248984771046"><ele>199.0</ele><time>2026-04-18T10:36:05.925Z</time></trkpt><trkpt lat="39.619877023858905" lon="15.862514238188865"><ele>198.99999999999997</ele><time>2026-04-18T10:39:28.923Z</time></trkpt><trkpt lat="39.6198056672929" lon="15.862548627267344"><ele>199.0</ele><time>2026-04-18T10:39:34.923Z</time></trkpt><trkpt lat="39.61981945745011" lon="15.862636080916571"><ele>198.99999999999997</ele><time>2026-04-18T10:42:37.922Z</time></trkpt><trkpt lat="39.6199028867257" lon="15.862600024475764"><ele>199.0</ele><time>2026-04-18T10:42:40.922Z</time></trkpt><trkpt lat="39.61986475059263" lon="15.86250159356291"><ele>199.0</ele><time>2026-04-18T10:42:43.922Z</time></trkpt><trkpt lat="39.61977087634706" lon="15.862553423798389"><ele>199.0</ele><time>2026-04-18T10:42:46.922Z</time></trkpt><trkpt lat="39.61970935658958" lon="15.862596013024175"><ele>198.99999999999997</ele><time>2026-04-18T10:42:48.922Z</time></trkpt><trkpt lat="39.61964161816787" lon="15.862647365020644"><ele>199.0</ele><time>2026-04-18T10:42:50.922Z</time></trkpt><trkpt lat="39.61957954051251" lon="15.86271341757701"><ele>198.16666666666666</ele><time>2026-04-18T10:42:52.922Z</time></trkpt><trkpt lat="39.619526830290376" lon="15.862793484660145"><ele>197.33333333333331</ele><time>2026-04-18T10:42:54.922Z</time></trkpt><trkpt lat="39.61949210169592" lon="15.86289979448082"><ele>196.5</ele><time>2026-04-18T10:42:56.922Z</time></trkpt><trkpt lat="39.61944338247522" lon="15.862990737830863"><ele>195.66666666666669</ele><time>2026-04-18T10:42:58.922Z</time></trkpt><trkpt lat="39.619511846037874" lon="15.863021833087705"><ele>194.83333333333334</ele><time>2026-04-18T10:43:43.921Z</time></trkpt><trkpt lat="39.6195581851878" lon="15.863084362696792"><ele>194.0</ele><time>2026-04-18T10:43:45.921Z</time></trkpt><trkpt lat="39.61959601278587" lon="15.863157266406226"><ele>194.00000000000003</ele><time>2026-04-18T10:43:47.921Z</time></trkpt><trkpt lat="39.619632066466274" lon="15.863236692557754"><ele>194.0</ele><time>2026-04-18T10:43:49.921Z</time></trkpt><trkpt lat="39.61965168129931" lon="15.863328594178498"><ele>194.0</ele><time>2026-04-18T10:43:51.922Z</time></trkpt><trkpt lat="39.61965193963702" lon="15.863424059242845"><ele>194.0</ele><time>2026-04-18T10:43:53.922Z</time></trkpt><trkpt lat="39.61968480520875" lon="15.863503532670684"><ele>194.00000000000003</ele><time>2026-04-18T10:43:55.922Z</time></trkpt><trkpt lat="39.619765599349456" lon="15.8635371998983"><ele>194.0</ele><time>2026-04-18T10:43:57.922Z</time></trkpt><trkpt lat="39.61984614867861" lon="15.86351216043718"><ele>194.00000000000003</ele><time>2026-04-18T10:43:59.922Z</time></trkpt><trkpt lat="39.61992889495655" lon="15.863451079097205"><ele>194.0</ele><time>2026-04-18T10:44:01.922Z</time></trkpt><trkpt lat="39.62001003032346" lon="15.863407114830629"><ele>194.0</ele><time>2026-04-18T10:44:03.922Z</time></trkpt><trkpt lat="39.62007515190935" lon="15.863378141564521"><ele>194.0</ele><time>2026-04-18T10:44:05.922Z</time></trkpt><trkpt lat="39.620134662207974" lon="15.863437707476297"><ele>194.00000000000003</ele><time>2026-04-18T10:44:08.922Z</time></trkpt><trkpt lat="39.62007271512068" lon="15.863523316366335"><ele>194.0</ele><time>2026-04-18T10:44:11.922Z</time></trkpt><trkpt lat="39.61999930170275" lon="15.863521214810682"><ele>189.33333333333334</ele><time>2026-04-18T10:44:13.922Z</time></trkpt><trkpt lat="39.619920695414066" lon="15.863559607551858"><ele>184.66666666666669</ele><time>2026-04-18T10:44:16.921Z</time></trkpt><trkpt lat="39.61984591520843" lon="15.863601402456265"><ele>180.0</ele><time>2026-04-18T10:44:18.921Z</time></trkpt><trkpt lat="39.61976427712493" lon="15.863643163004582"><ele>175.33333333333334</ele><time>2026-04-18T10:44:20.921Z</time></trkpt><trkpt lat="39.61968798200258" lon="15.863682992429931"><ele>170.66666666666669</ele><time>2026-04-18T10:44:22.921Z</time></trkpt><trkpt lat="39.61962365719813" lon="15.863724954335726"><ele>166.0</ele><time>2026-04-18T10:44:24.921Z</time></trkpt><trkpt lat="39.61953724199849" lon="15.863733797614934"><ele>163.66666666666669</ele><time>2026-04-18T10:44:26.921Z</time></trkpt><trkpt lat="39.61943007985609" lon="15.863721704032132"><ele>161.33333333333334</ele><time>2026-04-18T10:44:28.921Z</time></trkpt><trkpt lat="39.61936886734814" lon="15.863701542412278"><ele>159.0</ele><time>2026-04-18T10:44:29.921Z</time></trkpt><trkpt lat="39.619307834962335" lon="15.86368042744136"><ele>156.66666666666666</ele><time>2026-04-18T10:44:30.921Z</time></trkpt><trkpt lat="39.6192466286167" lon="15.863647177034593"><ele>154.33333333333331</ele><time>2026-04-18T10:44:31.921Z</time></trkpt><trkpt lat="39.619182230033964" lon="15.86359861022602"><ele>152.0</ele><time>2026-04-18T10:44:32.921Z</time></trkpt><trkpt lat="39.61911421601155" lon="15.86354269886198"><ele>152.0</ele><time>2026-04-18T10:44:33.921Z</time></trkpt><trkpt lat="39.619043486675714" lon="15.863477496375433"><ele>152.0</ele><time>2026-04-18T10:44:34.921Z</time></trkpt><trkpt lat="39.61896810572096" lon="15.863410180971456"><ele>152.0</ele><time>2026-04-18T10:44:35.921Z</time></trkpt><trkpt lat="39.61889951917735" lon="15.863349071478941"><ele>152.0</ele><time>2026-04-18T10:44:36.921Z</time></trkpt><trkpt lat="39.61884177203628" lon="15.863303353595485"><ele>152.0</ele><time>2026-04-18T10:44:37.921Z</time></trkpt><trkpt lat="39.61878198106977" lon="15.863254677512844"><ele>152.0</ele><time>2026-04-18T10:44:38.921Z</time></trkpt><trkpt lat="39.61871488898547" lon="15.863202975634886"><ele>155.83333333333331</ele><time>2026-04-18T10:44:39.921Z</time></trkpt><trkpt lat="39.61865747832626" lon="15.863156514945617"><ele>159.66666666666666</ele><time>2026-04-18T10:44:40.921Z</time></trkpt><trkpt lat="39.61860709487891" lon="15.863102655610495"><ele>163.5</ele><time>2026-04-18T10:44:41.921Z</time></trkpt><trkpt lat="39.61849934701677" lon="15.863050396762539"><ele>167.33333333333334</ele><time>2026-04-18T10:44:43.921Z</time></trkpt><trkpt lat="39.61843062966413" lon="15.862973230911527"><ele>171.16666666666669</ele><time>2026-04-18T10:44:45.921Z</time></trkpt><trkpt lat="39.61835812635179" lon="15.862937205096163"><ele>175.0</ele><time>2026-04-18T10:44:47.921Z</time></trkpt><trkpt lat="39.61828201955565" lon="15.86285123484824"><ele>175.0</ele><time>2026-04-18T10:44:49.921Z</time></trkpt><trkpt lat="39.61821627986223" lon="15.862785737417916"><ele>175.0</ele><time>2026-04-18T10:44:51.921Z</time></trkpt><trkpt lat="39.61820408767705" lon="15.86268462310265"><ele>175.0</ele><time>2026-04-18T10:44:54.921Z</time></trkpt><trkpt lat="39.618250699934194" lon="15.862614961866717"><ele>175.0</ele><time>2026-04-18T10:44:56.921Z</time></trkpt><trkpt lat="39.6183048215107" lon="15.862558681298596"><ele>175.0</ele><time>2026-04-18T10:44:58.921Z</time></trkpt><trkpt lat="39.61835605825694" lon="15.862499130385203"><ele>175.0</ele><time>2026-04-18T10:45:00.921Z</time></trkpt><trkpt lat="39.61840985161801" lon="15.862436422516003"><ele>175.0</ele><time>2026-04-18T10:45:02.921Z</time></trkpt><trkpt lat="39.6184606560224" lon="15.86238367362817"><ele>176.28571428571428</ele><time>2026-04-18T10:45:04.921Z</time></trkpt><trkpt lat="39.61848521864316" lon="15.862291751480408"><ele>177.57142857142856</ele><time>2026-04-18T10:45:07.921Z</time></trkpt><trkpt lat="39.618430339503114" lon="15.862247861807015"><ele>178.85714285714286</ele><time>2026-04-18T10:45:09.921Z</time></trkpt><trkpt lat="39.618360445768644" lon="15.862243664079193"><ele>180.14285714285714</ele><time>2026-04-18T10:45:11.921Z</time></trkpt><trkpt lat="39.618282992566336" lon="15.8622346355959"><ele>181.42857142857142</ele><time>2026-04-18T10:45:13.921Z</time></trkpt><trkpt lat="39.61820714000332" lon="15.862207892930618"><ele>182.71428571428572</ele><time>2026-04-18T10:45:15.921Z</time></trkpt><trkpt lat="39.61814135576202" lon="15.862169265063784"><ele>184.0</ele><time>2026-04-18T10:45:26.921Z</time></trkpt><trkpt lat="39.618158007330976" lon="15.862073366004314"><ele>184.0</ele><time>2026-04-18T10:45:30.921Z</time></trkpt><trkpt lat="39.61825027757916" lon="15.86204748610315"><ele>184.0</ele><time>2026-04-18T10:45:33.921Z</time></trkpt><trkpt lat="39.61833964959527" lon="15.862030093117985"><ele>184.0</ele><time>2026-04-18T10:45:36.921Z</time></trkpt><trkpt lat="39.61843022699975" lon="15.862007306029907"><ele>184.0</ele><time>2026-04-18T10:45:39.921Z</time></trkpt><trkpt lat="39.61852336242335" lon="15.861947427721045"><ele>184.0</ele><time>2026-04-18T10:45:42.921Z</time></trkpt><trkpt lat="39.61854022819312" lon="15.861862646096238"><ele>184.0</ele><time>2026-04-18T10:45:44.921Z</time></trkpt><trkpt lat="39.61853528434676" lon="15.861764030033141"><ele>180.6</ele><time>2026-04-18T10:45:46.921Z</time></trkpt><trkpt lat="39.61853419911104" lon="15.861629386485305"><ele>177.2</ele><time>2026-04-18T10:45:48.921Z</time></trkpt><trkpt lat="39.618522764003956" lon="15.861501734472222"><ele>173.79999999999998</ele><time>2026-04-18T10:45:50.921Z</time></trkpt><trkpt lat="39.61848143817293" lon="15.861388526843914"><ele>170.39999999999998</ele><time>2026-04-18T10:45:52.921Z</time></trkpt><trkpt lat="39.61842265607294" lon="15.86128258409576"><ele>167.0</ele><time>2026-04-18T10:45:54.921Z</time></trkpt><trkpt lat="39.61837176764763" lon="15.86116511914404"><ele>167.0</ele><time>2026-04-18T10:45:56.921Z</time></trkpt><trkpt lat="39.61832706963215" lon="15.86103425114789"><ele>167.0</ele><time>2026-04-18T10:45:58.921Z</time></trkpt><trkpt lat="39.618277280723525" lon="15.860901602585567"><ele>167.0</ele><time>2026-04-18T10:46:00.921Z</time></trkpt><trkpt lat="39.61821109155014" lon="15.860804841553769"><ele>167.0</ele><time>2026-04-18T10:46:02.921Z</time></trkpt><trkpt lat="39.618106451136185" lon="15.860778506761095"><ele>167.0</ele><time>2026-04-18T10:46:04.921Z</time></trkpt><trkpt lat="39.61798301388528" lon="15.860774703489733"><ele>164.0</ele><time>2026-04-18T10:46:06.921Z</time></trkpt><trkpt lat="39.61791560793203" lon="15.860789690645035"><ele>161.0</ele><time>2026-04-18T10:46:07.921Z</time></trkpt><trkpt lat="39.617852613352134" lon="15.860770012198502"><ele>158.0</ele><time>2026-04-18T10:46:08.921Z</time></trkpt><trkpt lat="39.61774325518246" lon="15.860725936839726"><ele>155.0</ele><time>2026-04-18T10:46:10.921Z</time></trkpt><trkpt lat="39.617654939716914" lon="15.860688815082918"><ele>152.0</ele><time>2026-04-18T10:46:12.921Z</time></trkpt><trkpt lat="39.61757580838492" lon="15.86066569205864"><ele>149.0</ele><time>2026-04-18T10:46:14.921Z</time></trkpt><trkpt lat="39.61748915415283" lon="15.86072463146512"><ele>149.2</ele><time>2026-04-18T10:46:16.921Z</time></trkpt><trkpt lat="39.61743525630193" lon="15.860837682382297"><ele>149.4</ele><time>2026-04-18T10:46:18.921Z</time></trkpt><trkpt lat="39.617358779372616" lon="15.860925212783242"><ele>149.6</ele><time>2026-04-18T10:46:20.921Z</time></trkpt><trkpt lat="39.61730068683376" lon="15.8610268078697"><ele>149.8</ele><time>2026-04-18T10:46:22.921Z</time></trkpt><trkpt lat="39.61724157803686" lon="15.86111286849444"><ele>150.0</ele><time>2026-04-18T10:46:24.921Z</time></trkpt><trkpt lat="39.617172023604546" lon="15.861176912263327"><ele>150.0</ele><time>2026-04-18T10:46:26.921Z</time></trkpt><trkpt lat="39.61707470000694" lon="15.86119391816124"><ele>150.0</ele><time>2026-04-18T10:46:28.921Z</time></trkpt><trkpt lat="39.616973869986815" lon="15.861210991439007"><ele>150.0</ele><time>2026-04-18T10:46:30.921Z</time></trkpt><trkpt lat="39.61688221846385" lon="15.86125371657081"><ele>150.0</ele><time>2026-04-18T10:46:32.921Z</time></trkpt><trkpt lat="39.616793515721426" lon="15.861335650224152"><ele>150.0</ele><time>2026-04-18T10:46:34.921Z</time></trkpt><trkpt lat="39.61669624007158" lon="15.861434095844077"><ele>145.0</ele><time>2026-04-18T10:46:36.921Z</time></trkpt><trkpt lat="39.61662251334264" lon="15.861566004710921"><ele>140.0</ele><time>2026-04-18T10:46:38.921Z</time></trkpt><trkpt lat="39.61660882947955" lon="15.861647348600842"><ele>135.0</ele><time>2026-04-18T10:46:39.921Z</time></trkpt><trkpt lat="39.61655762704876" lon="15.861799270361427"><ele>130.0</ele><time>2026-04-18T10:46:41.921Z</time></trkpt><trkpt lat="39.61648684348506" lon="15.861945128438833"><ele>130.00000000000003</ele><time>2026-04-18T10:46:43.921Z</time></trkpt><trkpt lat="39.61644465425135" lon="15.86202518585864"><ele>130.0</ele><time>2026-04-18T10:46:44.921Z</time></trkpt><trkpt lat="39.616397806726724" lon="15.86210866660681"><ele>130.0</ele><time>2026-04-18T10:46:45.921Z</time></trkpt><trkpt lat="39.6163488047582" lon="15.862190305465466"><ele>130.0</ele><time>2026-04-18T10:46:46.921Z</time></trkpt><trkpt lat="39.61630250905398" lon="15.862266397512018"><ele>130.0</ele><time>2026-04-18T10:46:47.921Z</time></trkpt><trkpt lat="39.616261174723675" lon="15.862340458555408"><ele>130.00000000000003</ele><time>2026-04-18T10:46:48.921Z</time></trkpt><trkpt lat="39.61622392825247" lon="15.862414427465003"><ele>130.0</ele><time>2026-04-18T10:46:49.921Z</time></trkpt><trkpt lat="39.616162583753365" lon="15.862543831101567"><ele>125.66666666666667</ele><time>2026-04-18T10:46:51.921Z</time></trkpt><trkpt lat="39.61613246929835" lon="15.86262168350413"><ele>121.33333333333334</ele><time>2026-04-18T10:46:53.921Z</time></trkpt><trkpt lat="39.61606460267299" lon="15.862564661615895"><ele>117.0</ele><time>2026-04-18T10:46:55.921Z</time></trkpt><trkpt lat="39.616050299257864" lon="15.862431766631314"><ele>112.66666666666666</ele><time>2026-04-18T10:46:57.921Z</time></trkpt><trkpt lat="39.616046558149385" lon="15.862284240508107"><ele>108.33333333333333</ele><time>2026-04-18T10:46:59.921Z</time></trkpt><trkpt lat="39.61604724168163" lon="15.862198026807672"><ele>104.0</ele><time>2026-04-18T10:47:00.92Z</time></trkpt><trkpt lat="39.61604773265955" lon="15.862113264913463"><ele>103.16666666666666</ele><time>2026-04-18T10:47:01.92Z</time></trkpt><trkpt lat="39.61604808219439" lon="15.86203150974087"><ele>102.33333333333333</ele><time>2026-04-18T10:47:02.92Z</time></trkpt><trkpt lat="39.616036496640525" lon="15.861875033349916"><ele>101.5</ele><time>2026-04-18T10:47:04.92Z</time></trkpt><trkpt lat="39.61599771582378" lon="15.861737761375029"><ele>100.66666666666666</ele><time>2026-04-18T10:47:06.92Z</time></trkpt><trkpt lat="39.6159458560017" lon="15.861690537432185"><ele>99.83333333333333</ele><time>2026-04-18T10:47:07.92Z</time></trkpt><trkpt lat="39.61588232553072" lon="15.861659880425055"><ele>99.0</ele><time>2026-04-18T10:47:08.92Z</time></trkpt><trkpt lat="39.615818547116476" lon="15.861631382029731"><ele>99.0</ele><time>2026-04-18T10:47:09.92Z</time></trkpt><trkpt lat="39.61575684657408" lon="15.86159834686808"><ele>99.0</ele><time>2026-04-18T10:47:10.92Z</time></trkpt><trkpt lat="39.615692405238654" lon="15.861560512530142"><ele>99.0</ele><time>2026-04-18T10:47:11.92Z</time></trkpt><trkpt lat="39.61562637801517" lon="15.86151656319265"><ele>99.0</ele><time>2026-04-18T10:47:12.92Z</time></trkpt><trkpt lat="39.61555949178037" lon="15.861473671665104"><ele>99.0</ele><time>2026-04-18T10:47:13.92Z</time></trkpt><trkpt lat="39.615500486138465" lon="15.86142962556298"><ele>99.0</ele><time>2026-04-18T10:47:14.92Z</time></trkpt><trkpt lat="39.615402033646305" lon="15.861351120132303"><ele>99.0</ele><time>2026-04-18T10:47:16.92Z</time></trkpt><trkpt lat="39.615329220799026" lon="15.861276266637013"><ele>99.0</ele><time>2026-04-18T10:47:18.92Z</time></trkpt><trkpt lat="39.615284822704574" lon="15.861211490706028"><ele>99.0</ele><time>2026-04-18T10:47:20.92Z</time></trkpt><trkpt lat="39.61525860020412" lon="15.861114594597645"><ele>99.0</ele><time>2026-04-18T10:47:24.92Z</time></trkpt><trkpt lat="39.61534769977686" lon="15.861087412853363"><ele>99.0</ele><time>2026-04-18T10:47:26.92Z</time></trkpt><trkpt lat="39.61544746833458" lon="15.860990629549987"><ele>97.80000000000001</ele><time>2026-04-18T10:47:28.92Z</time></trkpt><trkpt lat="39.61550430314055" lon="15.860928629792493"><ele>96.60000000000001</ele><time>2026-04-18T10:47:29.92Z</time></trkpt><trkpt lat="39.61556265748235" lon="15.86085451815391"><ele>95.4</ele><time>2026-04-18T10:47:30.92Z</time></trkpt><trkpt lat="39.61562048108689" lon="15.860782825554864"><ele>94.2</ele><time>2026-04-18T10:47:31.92Z</time></trkpt><trkpt lat="39.61570019627788" lon="15.86068737305243"><ele>93.0</ele><time>2026-04-18T10:47:33.92Z</time></trkpt><trkpt lat="39.61578128758486" lon="15.860595955788531"><ele>93.0</ele><time>2026-04-18T10:47:35.92Z</time></trkpt><trkpt lat="39.61587482938015" lon="15.860513547679222"><ele>93.0</ele><time>2026-04-18T10:47:37.92Z</time></trkpt><trkpt lat="39.615938039023554" lon="15.860423258246154"><ele>93.0</ele><time>2026-04-18T10:47:39.92Z</time></trkpt><trkpt lat="39.61602990224777" lon="15.860319061166159"><ele>93.0</ele><time>2026-04-18T10:47:41.92Z</time></trkpt><trkpt lat="39.616084262865634" lon="15.860258701936248"><ele>93.0</ele><time>2026-04-18T10:47:42.92Z</time></trkpt><trkpt lat="39.61613528959598" lon="15.860195866997932"><ele>93.57142857142858</ele><time>2026-04-18T10:47:43.92Z</time></trkpt><trkpt lat="39.61618397007785" lon="15.86013473520283"><ele>94.14285714285714</ele><time>2026-04-18T10:47:44.92Z</time></trkpt><trkpt lat="39.616234462445625" lon="15.860076163934401"><ele>94.71428571428572</ele><time>2026-04-18T10:47:45.92Z</time></trkpt><trkpt lat="39.61628422238575" lon="15.860010000803921"><ele>95.28571428571429</ele><time>2026-04-18T10:47:46.92Z</time></trkpt><trkpt lat="39.61633242289236" lon="15.85994610690945"><ele>95.85714285714286</ele><time>2026-04-18T10:47:47.92Z</time></trkpt><trkpt lat="39.616381390302855" lon="15.859874756385164"><ele>96.42857142857143</ele><time>2026-04-18T10:47:48.92Z</time></trkpt><trkpt lat="39.61642934471113" lon="15.859802553784567"><ele>97.0</ele><time>2026-04-18T10:47:49.92Z</time></trkpt><trkpt lat="39.616479612175276" lon="15.859736013239141"><ele>97.0</ele><time>2026-04-18T10:47:50.92Z</time></trkpt><trkpt lat="39.61652561777224" lon="15.859670576125065"><ele>97.0</ele><time>2026-04-18T10:47:51.92Z</time></trkpt><trkpt lat="39.61657019821948" lon="15.859606964280584"><ele>97.0</ele><time>2026-04-18T10:47:52.92Z</time></trkpt><trkpt lat="39.61661844876233" lon="15.859545697221552"><ele>97.0</ele><time>2026-04-18T10:47:53.92Z</time></trkpt><trkpt lat="39.61666717250445" lon="15.85947741001322"><ele>97.0</ele><time>2026-04-18T10:47:54.92Z</time></trkpt><trkpt lat="39.61671718098507" lon="15.859401013470206"><ele>97.0</ele><time>2026-04-18T10:47:55.92Z</time></trkpt><trkpt lat="39.616768630169865" lon="15.859324765086349"><ele>97.0</ele><time>2026-04-18T10:47:56.92Z</time></trkpt><trkpt lat="39.61682141642696" lon="15.859251575320107"><ele>96.16666666666667</ele><time>2026-04-18T10:47:57.92Z</time></trkpt><trkpt lat="39.616873768885746" lon="15.859184964864593"><ele>95.33333333333334</ele><time>2026-04-18T10:47:58.92Z</time></trkpt><trkpt lat="39.61691699889235" lon="15.859116567410856"><ele>94.5</ele><time>2026-04-18T10:47:59.92Z</time></trkpt><trkpt lat="39.616970132562734" lon="15.859040007812538"><ele>93.66666666666667</ele><time>2026-04-18T10:48:00.92Z</time></trkpt><trkpt lat="39.61702906265049" lon="15.858980978880675"><ele>92.83333333333334</ele><time>2026-04-18T10:48:01.92Z</time></trkpt><trkpt lat="39.61709998301976" lon="15.858927025882364"><ele>92.0</ele><time>2026-04-18T10:48:02.921Z</time></trkpt><trkpt lat="39.61717939074065" lon="15.858882156973388"><ele>92.0</ele><time>2026-04-18T10:48:03.921Z</time></trkpt><trkpt lat="39.61726864052634" lon="15.858836273306839"><ele>92.0</ele><time>2026-04-18T10:48:04.92Z</time></trkpt><trkpt lat="39.61735488189794" lon="15.858792203999117"><ele>92.0</ele><time>2026-04-18T10:48:05.92Z</time></trkpt><trkpt lat="39.6174409801369" lon="15.858748959962934"><ele>92.0</ele><time>2026-04-18T10:48:06.92Z</time></trkpt><trkpt lat="39.61752458475218" lon="15.85870851675135"><ele>92.0</ele><time>2026-04-18T10:48:07.92Z</time></trkpt><trkpt lat="39.617604302955755" lon="15.858666903897195"><ele>92.0</ele><time>2026-04-18T10:48:08.92Z</time></trkpt><trkpt lat="39.617683685279765" lon="15.858625340766764"><ele>92.0</ele><time>2026-04-18T10:48:09.92Z</time></trkpt><trkpt lat="39.61776487302602" lon="15.858583339000935"><ele>92.0</ele><time>2026-04-18T10:48:10.92Z</time></trkpt><trkpt lat="39.61784228021884" lon="15.858543118066176"><ele>92.0</ele><time>2026-04-18T10:48:11.92Z</time></trkpt><trkpt lat="39.61791666655397" lon="15.858504329310259"><ele>92.0</ele><time>2026-04-18T10:48:12.92Z</time></trkpt><trkpt lat="39.6179915067051" lon="15.858462451216813"><ele>92.0</ele><time>2026-04-18T10:48:13.92Z</time></trkpt><trkpt lat="39.61806221541485" lon="15.858419882186906"><ele>89.5</ele><time>2026-04-18T10:48:14.92Z</time></trkpt><trkpt lat="39.61812894930282" lon="15.858376071439945"><ele>87.0</ele><time>2026-04-18T10:48:15.92Z</time></trkpt><trkpt lat="39.618196557962015" lon="15.858327804795298"><ele>84.5</ele><time>2026-04-18T10:48:16.92Z</time></trkpt><trkpt lat="39.61826378233399" lon="15.858272112451955"><ele>82.0</ele><time>2026-04-18T10:48:17.92Z</time></trkpt><trkpt lat="39.61832285114696" lon="15.858197493496016"><ele>79.5</ele><time>2026-04-18T10:48:18.92Z</time></trkpt><trkpt lat="39.618381728145906" lon="15.858115961772423"><ele>77.0</ele><time>2026-04-18T10:48:19.92Z</time></trkpt><trkpt lat="39.6184331429091" lon="15.858031406421416"><ele>77.0</ele><time>2026-04-18T10:48:20.92Z</time></trkpt><trkpt lat="39.61847913412562" lon="15.857940993044885"><ele>77.0</ele><time>2026-04-18T10:48:21.92Z</time></trkpt><trkpt lat="39.61851583566854" lon="15.857847256122398"><ele>77.0</ele><time>2026-04-18T10:48:22.92Z</time></trkpt><trkpt lat="39.61854226700743" lon="15.857761485002298"><ele>77.0</ele><time>2026-04-18T10:48:23.92Z</time></trkpt><trkpt lat="39.618565919401824" lon="15.857657594198105"><ele>77.0</ele><time>2026-04-18T10:48:24.92Z</time></trkpt><trkpt lat="39.61858820713142" lon="15.857547662255504"><ele>77.0</ele><time>2026-04-18T10:48:25.92Z</time></trkpt><trkpt lat="39.61861042280965" lon="15.857452083593998"><ele>75.4</ele><time>2026-04-18T10:48:26.92Z</time></trkpt><trkpt lat="39.61863261395829" lon="15.857363462473632"><ele>73.80000000000001</ele><time>2026-04-18T10:48:27.92Z</time></trkpt><trkpt lat="39.61865405130044" lon="15.857285688609826"><ele>72.2</ele><time>2026-04-18T10:48:28.92Z</time></trkpt><trkpt lat="39.61868877635398" lon="15.857138891168972"><ele>70.60000000000001</ele><time>2026-04-18T10:48:30.92Z</time></trkpt><trkpt lat="39.618720593480404" lon="15.856997477941407"><ele>69.0</ele><time>2026-04-18T10:48:32.92Z</time></trkpt><trkpt lat="39.618681315328004" lon="15.85687800787057"><ele>69.0</ele><time>2026-04-18T10:48:34.92Z</time></trkpt><trkpt lat="39.61872098994217" lon="15.856805152513576"><ele>69.0</ele><time>2026-04-18T10:48:35.92Z</time></trkpt><trkpt lat="39.61863699080207" lon="15.856727044435488"><ele>69.0</ele><time>2026-04-18T10:48:37.92Z</time></trkpt><trkpt lat="39.61851659192701" lon="15.856755487564199"><ele>69.0</ele><time>2026-04-18T10:48:39.92Z</time></trkpt><trkpt lat="39.618448327703454" lon="15.856783284636405"><ele>69.0</ele><time>2026-04-18T10:48:40.92Z</time></trkpt><trkpt lat="39.618377351078074" lon="15.856809300313138"><ele>69.0</ele><time>2026-04-18T10:48:41.92Z</time></trkpt><trkpt lat="39.61829539577784" lon="15.856835112332304"><ele>69.0</ele><time>2026-04-18T10:48:42.92Z</time></trkpt><trkpt lat="39.61820852876767" lon="15.85685213447766"><ele>69.0</ele><time>2026-04-18T10:48:43.92Z</time></trkpt><trkpt lat="39.61812733109031" lon="15.856866463444938"><ele>69.0</ele><time>2026-04-18T10:48:44.92Z</time></trkpt><trkpt lat="39.61805783316588" lon="15.856893836272727"><ele>69.0</ele><time>2026-04-18T10:48:45.92Z</time></trkpt><trkpt lat="39.61799204731464" lon="15.856944283446655"><ele>69.0</ele><time>2026-04-18T10:48:46.92Z</time></trkpt><trkpt lat="39.61793946311295" lon="15.85701011824572"><ele>69.0</ele><time>2026-04-18T10:48:47.92Z</time></trkpt><trkpt lat="39.61789685885212" lon="15.85709552906608"><ele>69.0</ele><time>2026-04-18T10:48:48.92Z</time></trkpt><trkpt lat="39.617868255429286" lon="15.857197213674311"><ele>69.0</ele><time>2026-04-18T10:48:49.92Z</time></trkpt><trkpt lat="39.61784429923605" lon="15.85730589175178"><ele>69.0</ele><time>2026-04-18T10:48:50.92Z</time></trkpt><trkpt lat="39.61780989025406" lon="15.857410650881983"><ele>69.0</ele><time>2026-04-18T10:48:51.92Z</time></trkpt><trkpt lat="39.61775354600432" lon="15.857512010429197"><ele>69.0</ele><time>2026-04-18T10:48:52.92Z</time></trkpt><trkpt lat="39.617679028210034" lon="15.857593007035257"><ele>70.4</ele><time>2026-04-18T10:48:53.92Z</time></trkpt><trkpt lat="39.61758758453584" lon="15.857655455683656"><ele>71.80000000000001</ele><time>2026-04-18T10:48:54.92Z</time></trkpt><trkpt lat="39.617482664145534" lon="15.857698872735922"><ele>73.19999999999999</ele><time>2026-04-18T10:48:55.92Z</time></trkpt><trkpt lat="39.61737853584494" lon="15.85774270691082"><ele>74.6</ele><time>2026-04-18T10:48:56.92Z</time></trkpt><trkpt lat="39.617309656643755" lon="15.857823785207255"><ele>76.0</ele><time>2026-04-18T10:48:57.92Z</time></trkpt><trkpt lat="39.617208112690676" lon="15.857836260485296"><ele>76.0</ele><time>2026-04-18T10:48:58.92Z</time></trkpt><trkpt lat="39.61712369568617" lon="15.857885663821438"><ele>76.0</ele><time>2026-04-18T10:48:59.92Z</time></trkpt><trkpt lat="39.61703626653293" lon="15.857942673504887"><ele>76.0</ele><time>2026-04-18T10:49:00.92Z</time></trkpt><trkpt lat="39.61694650283005" lon="15.858009908514061"><ele>76.0</ele><time>2026-04-18T10:49:01.92Z</time></trkpt><trkpt lat="39.61684912754059" lon="15.858082463651641"><ele>76.0</ele><time>2026-04-18T10:49:02.92Z</time></trkpt><trkpt lat="39.61674299234611" lon="15.858155524924857"><ele>76.25</ele><time>2026-04-18T10:49:03.92Z</time></trkpt><trkpt lat="39.61663139100055" lon="15.858228827987572"><ele>76.5</ele><time>2026-04-18T10:49:04.92Z</time></trkpt><trkpt lat="39.616519274884446" lon="15.858304039124338"><ele>76.75</ele><time>2026-04-18T10:49:05.92Z</time></trkpt><trkpt lat="39.61640392947291" lon="15.858381852889252"><ele>77.0</ele><time>2026-04-18T10:49:06.92Z</time></trkpt><trkpt lat="39.61628607783879" lon="15.858463513318009"><ele>78.0</ele><time>2026-04-18T10:49:07.92Z</time></trkpt><trkpt lat="39.61616854654078" lon="15.858545098850463"><ele>79.0</ele><time>2026-04-18T10:49:08.92Z</time></trkpt><trkpt lat="39.616050842451806" lon="15.858624670972196"><ele>80.0</ele><time>2026-04-18T10:49:09.92Z</time></trkpt><trkpt lat="39.61593007187448" lon="15.85870335578654"><ele>81.0</ele><time>2026-04-18T10:49:10.92Z</time></trkpt><trkpt lat="39.61580973432076" lon="15.85878554805594"><ele>81.0</ele><time>2026-04-18T10:49:11.92Z</time></trkpt><trkpt lat="39.615688478955946" lon="15.858871993802731"><ele>81.0</ele><time>2026-04-18T10:49:12.92Z</time></trkpt><trkpt lat="39.615567456168556" lon="15.858960152571692"><ele>81.0</ele><time>2026-04-18T10:49:13.92Z</time></trkpt><trkpt lat="39.61544308768139" lon="15.859045930579855"><ele>81.0</ele><time>2026-04-18T10:49:14.92Z</time></trkpt><trkpt lat="39.61531540171632" lon="15.859128248606758"><ele>80.75</ele><time>2026-04-18T10:49:15.92Z</time></trkpt><trkpt lat="39.61518582435842" lon="15.85920627067263"><ele>80.5</ele><time>2026-04-18T10:49:16.92Z</time></trkpt><trkpt lat="39.61505406824664" lon="15.859286896513531"><ele>80.25</ele><time>2026-04-18T10:49:17.92Z</time></trkpt><trkpt lat="39.61492653674933" lon="15.859372136582468"><ele>80.0</ele><time>2026-04-18T10:49:18.92Z</time></trkpt><trkpt lat="39.614798514453646" lon="15.859450615888257"><ele>79.25</ele><time>2026-04-18T10:49:19.92Z</time></trkpt><trkpt lat="39.61467749353864" lon="15.859540792299832"><ele>78.5</ele><time>2026-04-18T10:49:20.92Z</time></trkpt><trkpt lat="39.61454774089768" lon="15.859624179621802"><ele>77.75</ele><time>2026-04-18T10:49:21.92Z</time></trkpt><trkpt lat="39.614414095947595" lon="15.859700304485921"><ele>77.0</ele><time>2026-04-18T10:49:22.92Z</time></trkpt><trkpt lat="39.614275725143585" lon="15.859768088231517"><ele>77.0</ele><time>2026-04-18T10:49:23.92Z</time></trkpt><trkpt lat="39.61413273907194" lon="15.859827289883707"><ele>77.0</ele><time>2026-04-18T10:49:24.92Z</time></trkpt><trkpt lat="39.61398471754739" lon="15.859881080833265"><ele>77.0</ele><time>2026-04-18T10:49:25.92Z</time></trkpt><trkpt lat="39.613839572726164" lon="15.859929623663144"><ele>77.0</ele><time>2026-04-18T10:49:26.92Z</time></trkpt><trkpt lat="39.61368070419609" lon="15.859970444108981"><ele>77.0</ele><time>2026-04-18T10:49:27.92Z</time></trkpt><trkpt lat="39.613524573237015" lon="15.859998457273331"><ele>77.0</ele><time>2026-04-18T10:49:28.92Z</time></trkpt><trkpt lat="39.6133698530532" lon="15.860025641648152"><ele>73.33333333333334</ele><time>2026-04-18T10:49:29.92Z</time></trkpt><trkpt lat="39.61321604451353" lon="15.860054674878354"><ele>69.66666666666667</ele><time>2026-04-18T10:49:30.92Z</time></trkpt><trkpt lat="39.61306126075567" lon="15.86008594150728"><ele>66.0</ele><time>2026-04-18T10:49:31.92Z</time></trkpt><trkpt lat="39.612908053209594" lon="15.860115051247622"><ele>59.0</ele><time>2026-04-18T10:49:32.92Z</time></trkpt><trkpt lat="39.6127555343394" lon="15.860144616356498"><ele>52.0</ele><time>2026-04-18T10:49:33.92Z</time></trkpt><trkpt lat="39.61260343887521" lon="15.86017947491751"><ele>45.0</ele><time>2026-04-18T10:49:34.92Z</time></trkpt><trkpt lat="39.6124508341381" lon="15.860212222379245"><ele>45.0</ele><time>2026-04-18T10:49:35.92Z</time></trkpt><trkpt lat="39.612298941139066" lon="15.860242274448002"><ele>45.0</ele><time>2026-04-18T10:49:36.92Z</time></trkpt><trkpt lat="39.612145145074834" lon="15.860270024803784"><ele>45.0</ele><time>2026-04-18T10:49:37.92Z</time></trkpt><trkpt lat="39.611992276456114" lon="15.860294757297384"><ele>45.0</ele><time>2026-04-18T10:49:38.92Z</time></trkpt><trkpt lat="39.611839395149374" lon="15.860324272310628"><ele>45.0</ele><time>2026-04-18T10:49:39.92Z</time></trkpt><trkpt lat="39.61168591493646" lon="15.860356500209287"><ele>45.0</ele><time>2026-04-18T10:49:40.92Z</time></trkpt><trkpt lat="39.61153310578367" lon="15.860389878031725"><ele>45.0</ele><time>2026-04-18T10:49:41.92Z</time></trkpt><trkpt lat="39.61137879552149" lon="15.860420971054209"><ele>45.0</ele><time>2026-04-18T10:49:42.92Z</time></trkpt><trkpt lat="39.6112238407566" lon="15.860452624700779"><ele>45.0</ele><time>2026-04-18T10:49:43.92Z</time></trkpt><trkpt lat="39.611069906222696" lon="15.86048437995219"><ele>50.0</ele><time>2026-04-18T10:49:44.92Z</time></trkpt><trkpt lat="39.610916201700086" lon="15.860512468182264"><ele>55.0</ele><time>2026-04-18T10:49:45.92Z</time></trkpt><trkpt lat="39.610765022372945" lon="15.860540119347096"><ele>60.0</ele><time>2026-04-18T10:49:46.92Z</time></trkpt><trkpt lat="39.61061299011537" lon="15.860569620339485"><ele>60.0</ele><time>2026-04-18T10:49:47.92Z</time></trkpt><trkpt lat="39.61046839364134" lon="15.860598833866126"><ele>60.0</ele><time>2026-04-18T10:49:48.92Z</time></trkpt><trkpt lat="39.610330679933014" lon="15.86062665301295"><ele>60.0</ele><time>2026-04-18T10:49:49.92Z</time></trkpt><trkpt lat="39.61020249245317" lon="15.860651151367668"><ele>60.0</ele><time>2026-04-18T10:49:50.92Z</time></trkpt><trkpt lat="39.61007635952206" lon="15.860671522262217"><ele>61.0</ele><time>2026-04-18T10:49:51.919Z</time></trkpt><trkpt lat="39.609947789327244" lon="15.860694247153747"><ele>62.0</ele><time>2026-04-18T10:49:52.919Z</time></trkpt><trkpt lat="39.60981290783161" lon="15.860722463685176"><ele>63.0</ele><time>2026-04-18T10:49:53.919Z</time></trkpt><trkpt lat="39.609675065323195" lon="15.860755033753167"><ele>64.0</ele><time>2026-04-18T10:49:54.919Z</time></trkpt><trkpt lat="39.60954435373442" lon="15.860784309241673"><ele>64.0</ele><time>2026-04-18T10:49:55.919Z</time></trkpt><trkpt lat="39.60940907656593" lon="15.860812997207042"><ele>64.0</ele><time>2026-04-18T10:49:56.919Z</time></trkpt><trkpt lat="39.60926506417411" lon="15.860841675362357"><ele>64.0</ele><time>2026-04-18T10:49:57.919Z</time></trkpt><trkpt lat="39.609118390145824" lon="15.860872069430993"><ele>64.0</ele><time>2026-04-18T10:49:58.919Z</time></trkpt><trkpt lat="39.6089654762825" lon="15.860901397453219"><ele>64.0</ele><time>2026-04-18T10:49:59.919Z</time></trkpt><trkpt lat="39.60881179599672" lon="15.86092818220793"><ele>64.0</ele><time>2026-04-18T10:50:00.919Z</time></trkpt><trkpt lat="39.60865435294473" lon="15.860958400729238"><ele>64.0</ele><time>2026-04-18T10:50:01.919Z</time></trkpt><trkpt lat="39.6084950593089" lon="15.860989387617241"><ele>61.33333333333333</ele><time>2026-04-18T10:50:02.919Z</time></trkpt><trkpt lat="39.60833869563501" lon="15.861023710499532"><ele>58.66666666666667</ele><time>2026-04-18T10:50:03.919Z</time></trkpt><trkpt lat="39.60818270271895" lon="15.861058185217745"><ele>56.0</ele><time>2026-04-18T10:50:04.919Z</time></trkpt><trkpt lat="39.608027341544584" lon="15.861094901265082"><ele>56.0</ele><time>2026-04-18T10:50:05.919Z</time></trkpt><trkpt lat="39.607877091402656" lon="15.861125772730334"><ele>56.0</ele><time>2026-04-18T10:50:06.919Z</time></trkpt><trkpt lat="39.60772665364444" lon="15.861154059479558"><ele>56.0</ele><time>2026-04-18T10:50:07.919Z</time></trkpt><trkpt lat="39.60757396484356" lon="15.861183501936106"><ele>53.0</ele><time>2026-04-18T10:50:08.92Z</time></trkpt><trkpt lat="39.607421675910565" lon="15.861212187608931"><ele>50.0</ele><time>2026-04-18T10:50:09.92Z</time></trkpt><trkpt lat="39.607269038992634" lon="15.861240465429432"><ele>47.0</ele><time>2026-04-18T10:50:10.92Z</time></trkpt><trkpt lat="39.607115838693225" lon="15.861273550098183"><ele>42.666666666666664</ele><time>2026-04-18T10:50:11.92Z</time></trkpt><trkpt lat="39.60696683067409" lon="15.861306279634315"><ele>38.333333333333336</ele><time>2026-04-18T10:50:12.92Z</time></trkpt><trkpt lat="39.60680966635021" lon="15.861342479649258"><ele>34.0</ele><time>2026-04-18T10:50:13.92Z</time></trkpt><trkpt lat="39.6066567841732" lon="15.861377888821755"><ele>34.0</ele><time>2026-04-18T10:50:14.92Z</time></trkpt><trkpt lat="39.606504558414976" lon="15.861408538867822"><ele>34.0</ele><time>2026-04-18T10:50:15.92Z</time></trkpt><trkpt lat="39.60635149392315" lon="15.861437356061145"><ele>34.0</ele><time>2026-04-18T10:50:16.92Z</time></trkpt><trkpt lat="39.60619666498449" lon="15.861465386782628"><ele>32.66666666666667</ele><time>2026-04-18T10:50:17.92Z</time></trkpt><trkpt lat="39.606042361758604" lon="15.861495243008209"><ele>31.333333333333336</ele><time>2026-04-18T10:50:18.92Z</time></trkpt><trkpt lat="39.60589060617567" lon="15.861526352857759"><ele>30.0</ele><time>2026-04-18T10:50:19.92Z</time></trkpt><trkpt lat="39.60573577807411" lon="15.861558876906138"><ele>30.0</ele><time>2026-04-18T10:50:20.92Z</time></trkpt><trkpt lat="39.60558306349147" lon="15.861587360121916"><ele>30.0</ele><time>2026-04-18T10:50:21.92Z</time></trkpt><trkpt lat="39.60542942314306" lon="15.86161741733965"><ele>30.0</ele><time>2026-04-18T10:50:22.92Z</time></trkpt><trkpt lat="39.60527987204831" lon="15.86164487400731"><ele>35.333333333333336</ele><time>2026-04-18T10:50:23.92Z</time></trkpt><trkpt lat="39.605125888518636" lon="15.861679519179456"><ele>40.66666666666667</ele><time>2026-04-18T10:50:24.92Z</time></trkpt><trkpt lat="39.60497385396855" lon="15.861712513140432"><ele>46.0</ele><time>2026-04-18T10:50:25.92Z</time></trkpt><trkpt lat="39.60482056786181" lon="15.861740868795696"><ele>46.0</ele><time>2026-04-18T10:50:26.92Z</time></trkpt><trkpt lat="39.60466454012662" lon="15.861768279531844"><ele>46.0</ele><time>2026-04-18T10:50:27.92Z</time></trkpt><trkpt lat="39.60450943483698" lon="15.861794880387109"><ele>46.0</ele><time>2026-04-18T10:50:28.92Z</time></trkpt><trkpt lat="39.60435787072663" lon="15.861823440107795"><ele>50.66666666666667</ele><time>2026-04-18T10:50:29.92Z</time></trkpt><trkpt lat="39.60420558968221" lon="15.861853814676975"><ele>55.333333333333336</ele><time>2026-04-18T10:50:30.92Z</time></trkpt><trkpt lat="39.604051766242016" lon="15.861885128307533"><ele>60.0</ele><time>2026-04-18T10:50:31.92Z</time></trkpt><trkpt lat="39.60389866167128" lon="15.86191553652065"><ele>60.0</ele><time>2026-04-18T10:50:32.92Z</time></trkpt><trkpt lat="39.60374548638829" lon="15.861945390628671"><ele>60.0</ele><time>2026-04-18T10:50:33.92Z</time></trkpt><trkpt lat="39.60359222548635" lon="15.861977936881969"><ele>60.0</ele><time>2026-04-18T10:50:34.92Z</time></trkpt><trkpt lat="39.60344013610539" lon="15.862008295559832"><ele>57.66666666666667</ele><time>2026-04-18T10:50:35.92Z</time></trkpt><trkpt lat="39.603286610363746" lon="15.862038741328488"><ele>55.333333333333336</ele><time>2026-04-18T10:50:36.92Z</time></trkpt><trkpt lat="39.603134750711035" lon="15.862069616580921"><ele>53.0</ele><time>2026-04-18T10:50:37.92Z</time></trkpt><trkpt lat="39.602980921581874" lon="15.862100089432298"><ele>50.66666666666667</ele><time>2026-04-18T10:50:38.92Z</time></trkpt><trkpt lat="39.60282908117172" lon="15.862133289320672"><ele>48.333333333333336</ele><time>2026-04-18T10:50:39.92Z</time></trkpt><trkpt lat="39.60267814986295" lon="15.862164430766546"><ele>46.0</ele><time>2026-04-18T10:50:40.92Z</time></trkpt><trkpt lat="39.60252224495459" lon="15.862195303199373"><ele>46.0</ele><time>2026-04-18T10:50:41.92Z</time></trkpt><trkpt lat="39.602361782521385" lon="15.862228980349805"><ele>46.0</ele><time>2026-04-18T10:50:42.92Z</time></trkpt><trkpt lat="39.60219983242204" lon="15.862260959057107"><ele>46.0</ele><time>2026-04-18T10:50:43.92Z</time></trkpt><trkpt lat="39.6020427049943" lon="15.862291351740485"><ele>43.66666666666667</ele><time>2026-04-18T10:50:44.92Z</time></trkpt><trkpt lat="39.60188683590051" lon="15.86232533166962"><ele>41.333333333333336</ele><time>2026-04-18T10:50:45.92Z</time></trkpt><trkpt lat="39.60172945327401" lon="15.862361224628835"><ele>39.0</ele><time>2026-04-18T10:50:46.92Z</time></trkpt><trkpt lat="39.60157283348679" lon="15.862399186964362"><ele>39.0</ele><time>2026-04-18T10:50:47.92Z</time></trkpt><trkpt lat="39.60141492800936" lon="15.862439727061467"><ele>39.0</ele><time>2026-04-18T10:50:48.92Z</time></trkpt><trkpt lat="39.601256504557504" lon="15.862481610896218"><ele>39.0</ele><time>2026-04-18T10:50:49.92Z</time></trkpt><trkpt lat="39.601096550677276" lon="15.862521653632838"><ele>36.0</ele><time>2026-04-18T10:50:50.92Z</time></trkpt><trkpt lat="39.60093736342245" lon="15.862562242234864"><ele>33.0</ele><time>2026-04-18T10:50:51.92Z</time></trkpt><trkpt lat="39.600773702386526" lon="15.862604884445904"><ele>30.0</ele><time>2026-04-18T10:50:52.92Z</time></trkpt><trkpt lat="39.60060921918831" lon="15.862648013840392"><ele>30.0</ele><time>2026-04-18T10:50:53.92Z</time></trkpt><trkpt lat="39.6004412250096" lon="15.862690434433974"><ele>30.0</ele><time>2026-04-18T10:50:54.92Z</time></trkpt><trkpt lat="39.60027728844339" lon="15.862731676764401"><ele>30.0</ele><time>2026-04-18T10:50:55.92Z</time></trkpt><trkpt lat="39.6001170743597" lon="15.862768749774803"><ele>31.0</ele><time>2026-04-18T10:50:56.919Z</time></trkpt><trkpt lat="39.599963732359875" lon="15.862801781944823"><ele>32.0</ele><time>2026-04-18T10:50:57.919Z</time></trkpt><trkpt lat="39.599814677664725" lon="15.86283368330295"><ele>33.0</ele><time>2026-04-18T10:50:58.919Z</time></trkpt><trkpt lat="39.599674071724145" lon="15.862864971941772"><ele>34.0</ele><time>2026-04-18T10:50:59.919Z</time></trkpt><trkpt lat="39.59953456103612" lon="15.862893284486324"><ele>33.25</ele><time>2026-04-18T10:51:00.919Z</time></trkpt><trkpt lat="39.59939703263209" lon="15.862918420154687"><ele>32.5</ele><time>2026-04-18T10:51:01.919Z</time></trkpt><trkpt lat="39.59925552446892" lon="15.862949192052318"><ele>31.75</ele><time>2026-04-18T10:51:02.919Z</time></trkpt><trkpt lat="39.599104593158515" lon="15.862980599380649"><ele>31.0</ele><time>2026-04-18T10:51:03.919Z</time></trkpt><trkpt lat="39.59895293273301" lon="15.863008252208445"><ele>31.0</ele><time>2026-04-18T10:51:04.919Z</time></trkpt><trkpt lat="39.59879706914817" lon="15.863035408924043"><ele>31.0</ele><time>2026-04-18T10:51:05.919Z</time></trkpt><trkpt lat="39.59864202082391" lon="15.863064843199478"><ele>31.0</ele><time>2026-04-18T10:51:06.919Z</time></trkpt><trkpt lat="39.598487853756154" lon="15.863096012736717"><ele>30.333333333333336</ele><time>2026-04-18T10:51:07.919Z</time></trkpt><trkpt lat="39.59833107544845" lon="15.86312722338358"><ele>29.666666666666664</ele><time>2026-04-18T10:51:08.919Z</time></trkpt><trkpt lat="39.59816282483707" lon="15.863156999907861"><ele>29.0</ele><time>2026-04-18T10:51:09.919Z</time></trkpt><trkpt lat="39.597991724229225" lon="15.863185573597008"><ele>28.333333333333332</ele><time>2026-04-18T10:51:10.919Z</time></trkpt><trkpt lat="39.59780607591891" lon="15.863216592502186"><ele>27.666666666666664</ele><time>2026-04-18T10:51:11.919Z</time></trkpt><trkpt lat="39.59762283597605" lon="15.863248435432652"><ele>27.0</ele><time>2026-04-18T10:51:12.919Z</time></trkpt><trkpt lat="39.597456722215895" lon="15.86327618405823"><ele>27.0</ele><time>2026-04-18T10:51:13.919Z</time></trkpt><trkpt lat="39.59728881454938" lon="15.86330714631832"><ele>27.0</ele><time>2026-04-18T10:51:14.919Z</time></trkpt><trkpt lat="39.59712041136684" lon="15.863336514160414"><ele>27.0</ele><time>2026-04-18T10:51:15.919Z</time></trkpt><trkpt lat="39.59695014152478" lon="15.86336439797276"><ele>26.0</ele><time>2026-04-18T10:51:16.919Z</time></trkpt><trkpt lat="39.5967807578777" lon="15.86339236485752"><ele>25.0</ele><time>2026-04-18T10:51:17.919Z</time></trkpt><trkpt lat="39.596604910703675" lon="15.863426187188791"><ele>24.0</ele><time>2026-04-18T10:51:18.919Z</time></trkpt><trkpt lat="39.59642571836818" lon="15.863468428428897"><ele>30.666666666666664</ele><time>2026-04-18T10:51:19.919Z</time></trkpt><trkpt lat="39.59624975420775" lon="15.863529913893753"><ele>37.33333333333333</ele><time>2026-04-18T10:51:20.919Z</time></trkpt><trkpt lat="39.59607698723226" lon="15.863616074557937"><ele>44.0</ele><time>2026-04-18T10:51:21.919Z</time></trkpt><trkpt lat="39.595915985085384" lon="15.863722737977197"><ele>45.0</ele><time>2026-04-18T10:51:22.919Z</time></trkpt><trkpt lat="39.59576530029653" lon="15.863843247325468"><ele>46.0</ele><time>2026-04-18T10:51:23.919Z</time></trkpt><trkpt lat="39.59561342693055" lon="15.863972910004863"><ele>47.0</ele><time>2026-04-18T10:51:24.919Z</time></trkpt><trkpt lat="39.59546006917591" lon="15.864102195685339"><ele>46.666666666666664</ele><time>2026-04-18T10:51:25.919Z</time></trkpt><trkpt lat="39.595308698021206" lon="15.864228607226453"><ele>46.333333333333336</ele><time>2026-04-18T10:51:26.919Z</time></trkpt><trkpt lat="39.59516586850982" lon="15.86434543641511"><ele>46.0</ele><time>2026-04-18T10:51:27.919Z</time></trkpt><trkpt lat="39.59502400559619" lon="15.864463592321886"><ele>46.0</ele><time>2026-04-18T10:51:28.919Z</time></trkpt><trkpt lat="39.59488761959279" lon="15.864579305086274"><ele>46.0</ele><time>2026-04-18T10:51:29.919Z</time></trkpt><trkpt lat="39.594761247722296" lon="15.864693036638927"><ele>46.0</ele><time>2026-04-18T10:51:30.919Z</time></trkpt><trkpt lat="39.59463812753153" lon="15.864816953961096"><ele>46.0</ele><time>2026-04-18T10:51:31.919Z</time></trkpt><trkpt lat="39.59451665831503" lon="15.864956544505475"><ele>46.0</ele><time>2026-04-18T10:51:32.919Z</time></trkpt><trkpt lat="39.594411648584654" lon="15.86511412367312"><ele>46.0</ele><time>2026-04-18T10:51:33.919Z</time></trkpt><trkpt lat="39.59429986029023" lon="15.86527511847525"><ele>44.0</ele><time>2026-04-18T10:51:34.919Z</time></trkpt><trkpt lat="39.59419660156758" lon="15.865437212932793"><ele>42.0</ele><time>2026-04-18T10:51:35.919Z</time></trkpt><trkpt lat="39.594093257147264" lon="15.865599650585484"><ele>40.0</ele><time>2026-04-18T10:51:36.919Z</time></trkpt><trkpt lat="39.59398406514104" lon="15.865787319636906"><ele>43.333333333333336</ele><time>2026-04-18T10:51:37.919Z</time></trkpt><trkpt lat="39.593883038651796" lon="15.865960658502717"><ele>46.66666666666667</ele><time>2026-04-18T10:51:38.919Z</time></trkpt><trkpt lat="39.593782358405264" lon="15.866139492884738"><ele>50.0</ele><time>2026-04-18T10:51:39.919Z</time></trkpt><trkpt lat="39.593675450142086" lon="15.866314162017689"><ele>50.0</ele><time>2026-04-18T10:51:40.919Z</time></trkpt><trkpt lat="39.593571319959736" lon="15.866494913362958"><ele>50.0</ele><time>2026-04-18T10:51:41.919Z</time></trkpt><trkpt lat="39.59344921786441" lon="15.866659896254724"><ele>50.0</ele><time>2026-04-18T10:51:42.919Z</time></trkpt><trkpt lat="39.593338260121286" lon="15.866827069971079"><ele>50.0</ele><time>2026-04-18T10:51:43.919Z</time></trkpt><trkpt lat="39.593235640941515" lon="15.867007117561224"><ele>50.0</ele><time>2026-04-18T10:51:44.919Z</time></trkpt><trkpt lat="39.59310586717637" lon="15.867137967047714"><ele>50.0</ele><time>2026-04-18T10:51:45.919Z</time></trkpt><trkpt lat="39.59298059940533" lon="15.86727262080976"><ele>50.0</ele><time>2026-04-18T10:51:46.919Z</time></trkpt><trkpt lat="39.59286009448656" lon="15.867387691662262"><ele>50.0</ele><time>2026-04-18T10:51:47.919Z</time></trkpt><trkpt lat="39.59275130399974" lon="15.867510764266557"><ele>50.0</ele><time>2026-04-18T10:51:48.919Z</time></trkpt><trkpt lat="39.59262832587654" lon="15.867586933466953"><ele>50.0</ele><time>2026-04-18T10:51:49.919Z</time></trkpt><trkpt lat="39.59250391781521" lon="15.867667467039754"><ele>50.5</ele><time>2026-04-18T10:51:50.919Z</time></trkpt><trkpt lat="39.59238058379863" lon="15.86776375929949"><ele>51.0</ele><time>2026-04-18T10:51:51.919Z</time></trkpt><trkpt lat="39.59224767420328" lon="15.867832294421143"><ele>51.5</ele><time>2026-04-18T10:51:52.919Z</time></trkpt><trkpt lat="39.592112572756996" lon="15.867898164479932"><ele>52.0</ele><time>2026-04-18T10:51:53.919Z</time></trkpt><trkpt lat="39.59197847120387" lon="15.867948626165822"><ele>49.0</ele><time>2026-04-18T10:51:54.919Z</time></trkpt><trkpt lat="39.59183784815359" lon="15.867995089436272"><ele>46.0</ele><time>2026-04-18T10:51:55.919Z</time></trkpt><trkpt lat="39.59168871144997" lon="15.868035394443057"><ele>43.0</ele><time>2026-04-18T10:51:56.919Z</time></trkpt><trkpt lat="39.59152703242684" lon="15.868081157440214"><ele>43.0</ele><time>2026-04-18T10:51:57.919Z</time></trkpt><trkpt lat="39.59136629477397" lon="15.868128337966276"><ele>43.0</ele><time>2026-04-18T10:51:58.919Z</time></trkpt><trkpt lat="39.59118816672998" lon="15.868179945608533"><ele>43.0</ele><time>2026-04-18T10:51:59.919Z</time></trkpt><trkpt lat="39.59101902069017" lon="15.868224153632498"><ele>42.333333333333336</ele><time>2026-04-18T10:52:00.919Z</time></trkpt><trkpt lat="39.59085174278944" lon="15.868276869611083"><ele>41.666666666666664</ele><time>2026-04-18T10:52:01.919Z</time></trkpt><trkpt lat="39.59067933622191" lon="15.868320540780626"><ele>41.0</ele><time>2026-04-18T10:52:02.919Z</time></trkpt><trkpt lat="39.590508830135214" lon="15.868383520372683"><ele>43.0</ele><time>2026-04-18T10:52:03.919Z</time></trkpt><trkpt lat="39.59033215195654" lon="15.868446113861983"><ele>45.0</ele><time>2026-04-18T10:52:04.919Z</time></trkpt><trkpt lat="39.59016015657769" lon="15.868515727617913"><ele>47.0</ele><time>2026-04-18T10:52:05.919Z</time></trkpt><trkpt lat="39.58998841713995" lon="15.868599171388066"><ele>47.0</ele><time>2026-04-18T10:52:06.919Z</time></trkpt><trkpt lat="39.58981694906947" lon="15.868695564747645"><ele>47.0</ele><time>2026-04-18T10:52:07.919Z</time></trkpt><trkpt lat="39.589643019353396" lon="15.86879867331227"><ele>47.0</ele><time>2026-04-18T10:52:08.919Z</time></trkpt><trkpt lat="39.58947065553857" lon="15.868899850860767"><ele>44.33333333333333</ele><time>2026-04-18T10:52:09.919Z</time></trkpt><trkpt lat="39.58930045952116" lon="15.869000552157098"><ele>41.666666666666664</ele><time>2026-04-18T10:52:10.919Z</time></trkpt><trkpt lat="39.58913824087571" lon="15.869106115474494"><ele>39.0</ele><time>2026-04-18T10:52:11.919Z</time></trkpt><trkpt lat="39.58897921055688" lon="15.869209213343106"><ele>38.333333333333336</ele><time>2026-04-18T10:52:12.919Z</time></trkpt><trkpt lat="39.58881718924383" lon="15.869311048508255"><ele>37.66666666666667</ele><time>2026-04-18T10:52:13.919Z</time></trkpt><trkpt lat="39.588658991497596" lon="15.86940842735687"><ele>37.0</ele><time>2026-04-18T10:52:14.919Z</time></trkpt><trkpt lat="39.588499260027945" lon="15.869512052494626"><ele>37.0</ele><time>2026-04-18T10:52:15.919Z</time></trkpt><trkpt lat="39.58834386809282" lon="15.869613097943459"><ele>37.0</ele><time>2026-04-18T10:52:16.919Z</time></trkpt><trkpt lat="39.58818192040637" lon="15.869720743408028"><ele>37.0</ele><time>2026-04-18T10:52:17.919Z</time></trkpt><trkpt lat="39.588023849466914" lon="15.869820278003413"><ele>37.0</ele><time>2026-04-18T10:52:18.919Z</time></trkpt><trkpt lat="39.58786229936187" lon="15.86991636255036"><ele>37.0</ele><time>2026-04-18T10:52:19.919Z</time></trkpt><trkpt lat="39.587701817591" lon="15.870009901222586"><ele>37.0</ele><time>2026-04-18T10:52:20.919Z</time></trkpt><trkpt lat="39.58753809482203" lon="15.870100837296016"><ele>34.333333333333336</ele><time>2026-04-18T10:52:21.919Z</time></trkpt><trkpt lat="39.58737548036914" lon="15.870179875946484"><ele>31.666666666666664</ele><time>2026-04-18T10:52:22.919Z</time></trkpt><trkpt lat="39.58720873073319" lon="15.870248305623605"><ele>29.0</ele><time>2026-04-18T10:52:23.919Z</time></trkpt><trkpt lat="39.587034957413" lon="15.87030334852168"><ele>28.666666666666664</ele><time>2026-04-18T10:52:24.919Z</time></trkpt><trkpt lat="39.58686340213445" lon="15.870353580462789"><ele>28.333333333333336</ele><time>2026-04-18T10:52:25.919Z</time></trkpt><trkpt lat="39.58668623315941" lon="15.870402796469792"><ele>28.0</ele><time>2026-04-18T10:52:26.919Z</time></trkpt><trkpt lat="39.58650454482426" lon="15.870439689863955"><ele>28.0</ele><time>2026-04-18T10:52:27.919Z</time></trkpt><trkpt lat="39.58632475801096" lon="15.870460601755493"><ele>28.0</ele><time>2026-04-18T10:52:28.919Z</time></trkpt><trkpt lat="39.586143337452775" lon="15.870467771769253"><ele>28.0</ele><time>2026-04-18T10:52:29.919Z</time></trkpt><trkpt lat="39.58595420672655" lon="15.870469801800834"><ele>29.0</ele><time>2026-04-18T10:52:30.919Z</time></trkpt><trkpt lat="39.585767112655" lon="15.870464716650915"><ele>30.0</ele><time>2026-04-18T10:52:31.919Z</time></trkpt><trkpt lat="39.585587445195024" lon="15.870452016895102"><ele>31.0</ele><time>2026-04-18T10:52:32.919Z</time></trkpt><trkpt lat="39.58539927075352" lon="15.87043074950586"><ele>38.66666666666667</ele><time>2026-04-18T10:52:33.919Z</time></trkpt><trkpt lat="39.58521382371935" lon="15.870397562825916"><ele>46.333333333333336</ele><time>2026-04-18T10:52:34.919Z</time></trkpt><trkpt lat="39.58503154114168" lon="15.870353263328585"><ele>54.0</ele><time>2026-04-18T10:52:35.919Z</time></trkpt><trkpt lat="39.58484897120233" lon="15.870301058885142"><ele>54.0</ele><time>2026-04-18T10:52:36.919Z</time></trkpt><trkpt lat="39.584664100698134" lon="15.870244434726226"><ele>54.0</ele><time>2026-04-18T10:52:37.919Z</time></trkpt><trkpt lat="39.584476386886905" lon="15.87018910088435"><ele>54.0</ele><time>2026-04-18T10:52:38.919Z</time></trkpt><trkpt lat="39.58428959908436" lon="15.870135619946764"><ele>48.0</ele><time>2026-04-18T10:52:39.919Z</time></trkpt><trkpt lat="39.58411128640757" lon="15.870084226537656"><ele>42.0</ele><time>2026-04-18T10:52:40.919Z</time></trkpt><trkpt lat="39.58394016478611" lon="15.870036944160034"><ele>36.0</ele><time>2026-04-18T10:52:41.919Z</time></trkpt><trkpt lat="39.58376722809422" lon="15.86999083670354"><ele>37.666666666666664</ele><time>2026-04-18T10:52:42.919Z</time></trkpt><trkpt lat="39.58359223745603" lon="15.869944104091221"><ele>39.33333333333333</ele><time>2026-04-18T10:52:43.919Z</time></trkpt><trkpt lat="39.583412034254955" lon="15.869892761141465"><ele>41.0</ele><time>2026-04-18T10:52:44.919Z</time></trkpt><trkpt lat="39.583229801631" lon="15.869840213683498"><ele>41.0</ele><time>2026-04-18T10:52:45.919Z</time></trkpt><trkpt lat="39.58304383587955" lon="15.869790790469615"><ele>41.0</ele><time>2026-04-18T10:52:46.919Z</time></trkpt><trkpt lat="39.58285262892454" lon="15.86975587978491"><ele>41.0</ele><time>2026-04-18T10:52:47.919Z</time></trkpt><trkpt lat="39.58266512671313" lon="15.869734813999719"><ele>40.33333333333333</ele><time>2026-04-18T10:52:48.919Z</time></trkpt><trkpt lat="39.582479862214186" lon="15.869718172457109"><ele>39.666666666666664</ele><time>2026-04-18T10:52:49.919Z</time></trkpt><trkpt lat="39.58229101578582" lon="15.869701064707598"><ele>39.0</ele><time>2026-04-18T10:52:50.919Z</time></trkpt><trkpt lat="39.582103366386505" lon="15.869684124842719"><ele>38.666666666666664</ele><time>2026-04-18T10:52:51.919Z</time></trkpt><trkpt lat="39.58191539071175" lon="15.869669754354106"><ele>38.33333333333333</ele><time>2026-04-18T10:52:52.919Z</time></trkpt><trkpt lat="39.58172373007762" lon="15.869659288441781"><ele>38.0</ele><time>2026-04-18T10:52:53.919Z</time></trkpt><trkpt lat="39.581537294637144" lon="15.869645389792435"><ele>38.0</ele><time>2026-04-18T10:52:54.919Z</time></trkpt><trkpt lat="39.58135228766893" lon="15.869632077221315"><ele>38.0</ele><time>2026-04-18T10:52:55.919Z</time></trkpt><trkpt lat="39.58115972809622" lon="15.86961985010407"><ele>38.0</ele><time>2026-04-18T10:52:56.919Z</time></trkpt><trkpt lat="39.58096924754723" lon="15.869606126037366"><ele>38.33333333333333</ele><time>2026-04-18T10:52:57.919Z</time></trkpt><trkpt lat="39.58078338356577" lon="15.869589156895278"><ele>38.666666666666664</ele><time>2026-04-18T10:52:58.919Z</time></trkpt><trkpt lat="39.58059338770734" lon="15.869577942816944"><ele>39.0</ele><time>2026-04-18T10:52:59.919Z</time></trkpt><trkpt lat="39.58040581447488" lon="15.869567833635116"><ele>39.333333333333336</ele><time>2026-04-18T10:53:00.919Z</time></trkpt><trkpt lat="39.58022672861223" lon="15.869556956789635"><ele>39.66666666666667</ele><time>2026-04-18T10:53:01.919Z</time></trkpt><trkpt lat="39.58006084814348" lon="15.869549382373249"><ele>40.0</ele><time>2026-04-18T10:53:02.919Z</time></trkpt><trkpt lat="39.57988991508357" lon="15.869544133182492"><ele>40.0</ele><time>2026-04-18T10:53:03.919Z</time></trkpt><trkpt lat="39.57973100266577" lon="15.869537791422905"><ele>40.0</ele><time>2026-04-18T10:53:04.919Z</time></trkpt><trkpt lat="39.579576895028325" lon="15.869526862407486"><ele>40.0</ele><time>2026-04-18T10:53:05.919Z</time></trkpt><trkpt lat="39.57942190499248" lon="15.86951752186147"><ele>40.66666666666667</ele><time>2026-04-18T10:53:06.919Z</time></trkpt><trkpt lat="39.57926038660399" lon="15.869511887252832"><ele>41.333333333333336</ele><time>2026-04-18T10:53:07.919Z</time></trkpt><trkpt lat="39.5790995076032" lon="15.86950489937392"><ele>42.0</ele><time>2026-04-18T10:53:08.919Z</time></trkpt><trkpt lat="39.57893514971557" lon="15.869508448591676"><ele>42.0</ele><time>2026-04-18T10:53:09.919Z</time></trkpt><trkpt lat="39.578767019476096" lon="15.869517087570172"><ele>42.0</ele><time>2026-04-18T10:53:10.919Z</time></trkpt><trkpt lat="39.57860121347473" lon="15.869541209178427"><ele>42.0</ele><time>2026-04-18T10:53:11.919Z</time></trkpt><trkpt lat="39.57843413527509" lon="15.869575225414502"><ele>40.333333333333336</ele><time>2026-04-18T10:53:12.919Z</time></trkpt><trkpt lat="39.57827500838205" lon="15.869619493173431"><ele>38.66666666666667</ele><time>2026-04-18T10:53:13.919Z</time></trkpt><trkpt lat="39.578116993468676" lon="15.86966961383187"><ele>37.0</ele><time>2026-04-18T10:53:14.919Z</time></trkpt><trkpt lat="39.57795380596943" lon="15.86972641413931"><ele>33.0</ele><time>2026-04-18T10:53:15.919Z</time></trkpt><trkpt lat="39.577792956327606" lon="15.869783081246398"><ele>29.0</ele><time>2026-04-18T10:53:16.919Z</time></trkpt><trkpt lat="39.57762828034667" lon="15.869849055912407"><ele>25.0</ele><time>2026-04-18T10:53:17.919Z</time></trkpt><trkpt lat="39.57745902178865" lon="15.869926147914034"><ele>25.0</ele><time>2026-04-18T10:53:18.919Z</time></trkpt><trkpt lat="39.5772910215168" lon="15.870013289066963"><ele>25.0</ele><time>2026-04-18T10:53:19.919Z</time></trkpt><trkpt lat="39.57712268477578" lon="15.87010378161007"><ele>25.0</ele><time>2026-04-18T10:53:20.919Z</time></trkpt><trkpt lat="39.57695855246295" lon="15.870188305677338"><ele>28.0</ele><time>2026-04-18T10:53:21.919Z</time></trkpt><trkpt lat="39.576799769453324" lon="15.870265180686733"><ele>31.0</ele><time>2026-04-18T10:53:22.919Z</time></trkpt><trkpt lat="39.576638131959385" lon="15.870343977409377"><ele>34.0</ele><time>2026-04-18T10:53:23.919Z</time></trkpt><trkpt lat="39.57646855496517" lon="15.87042455808301"><ele>34.0</ele><time>2026-04-18T10:53:24.919Z</time></trkpt><trkpt lat="39.57629676968495" lon="15.870507426757944"><ele>34.0</ele><time>2026-04-18T10:53:25.919Z</time></trkpt><trkpt lat="39.57611995840594" lon="15.870590006132565"><ele>34.0</ele><time>2026-04-18T10:53:26.919Z</time></trkpt><trkpt lat="39.57594875374538" lon="15.870667984524651"><ele>32.333333333333336</ele><time>2026-04-18T10:53:27.919Z</time></trkpt><trkpt lat="39.57578868093004" lon="15.87073808838876"><ele>30.666666666666664</ele><time>2026-04-18T10:53:28.919Z</time></trkpt><trkpt lat="39.575629842445146" lon="15.870802983016658"><ele>29.0</ele><time>2026-04-18T10:53:29.919Z</time></trkpt><trkpt lat="39.57547153404247" lon="15.870863713902166"><ele>29.0</ele><time>2026-04-18T10:53:30.919Z</time></trkpt><trkpt lat="39.57531153338231" lon="15.870919827758973"><ele>29.0</ele><time>2026-04-18T10:53:31.919Z</time></trkpt><trkpt lat="39.57514825303683" lon="15.870971558376901"><ele>29.0</ele><time>2026-04-18T10:53:32.919Z</time></trkpt><trkpt lat="39.57498490141543" lon="15.871023756320294"><ele>29.0</ele><time>2026-04-18T10:53:33.919Z</time></trkpt><trkpt lat="39.574820875074536" lon="15.871076609612608"><ele>29.0</ele><time>2026-04-18T10:53:34.919Z</time></trkpt><trkpt lat="39.574651686193" lon="15.871136874563605"><ele>29.0</ele><time>2026-04-18T10:53:35.919Z</time></trkpt><trkpt lat="39.574477030546916" lon="15.871195666852703"><ele>28.0</ele><time>2026-04-18T10:53:36.919Z</time></trkpt><trkpt lat="39.574311595193606" lon="15.871248870912968"><ele>27.0</ele><time>2026-04-18T10:53:37.919Z</time></trkpt><trkpt lat="39.574148310133594" lon="15.87129598495213"><ele>26.0</ele><time>2026-04-18T10:53:38.919Z</time></trkpt><trkpt lat="39.57398716919503" lon="15.871345482008719"><ele>26.0</ele><time>2026-04-18T10:53:39.919Z</time></trkpt><trkpt lat="39.57382936115273" lon="15.871396011045123"><ele>26.0</ele><time>2026-04-18T10:53:40.919Z</time></trkpt><trkpt lat="39.573674699420174" lon="15.871444349467176"><ele>26.0</ele><time>2026-04-18T10:53:41.918Z</time></trkpt><trkpt lat="39.57353238658691" lon="15.871494841322452"><ele>26.333333333333332</ele><time>2026-04-18T10:53:42.918Z</time></trkpt><trkpt lat="39.57338724074048" lon="15.87154578359081"><ele>26.666666666666664</ele><time>2026-04-18T10:53:43.918Z</time></trkpt><trkpt lat="39.57323991209526" lon="15.871600419516637"><ele>27.0</ele><time>2026-04-18T10:53:44.918Z</time></trkpt><trkpt lat="39.57309409091592" lon="15.871655900153216"><ele>27.0</ele><time>2026-04-18T10:53:45.918Z</time></trkpt><trkpt lat="39.572952496209574" lon="15.871706635015345"><ele>27.0</ele><time>2026-04-18T10:53:46.918Z</time></trkpt><trkpt lat="39.5728126139954" lon="15.871755390461741"><ele>27.0</ele><time>2026-04-18T10:53:47.918Z</time></trkpt><trkpt lat="39.572669244009475" lon="15.871803742802678"><ele>27.0</ele><time>2026-04-18T10:53:48.918Z</time></trkpt><trkpt lat="39.57252556848707" lon="15.871853922839268"><ele>27.0</ele><time>2026-04-18T10:53:49.918Z</time></trkpt><trkpt lat="39.5723762531085" lon="15.87190182405065"><ele>27.0</ele><time>2026-04-18T10:53:50.918Z</time></trkpt><trkpt lat="39.57223253177508" lon="15.871949533222752"><ele>27.0</ele><time>2026-04-18T10:53:51.918Z</time></trkpt><trkpt lat="39.57208452268121" lon="15.872001829853458"><ele>27.666666666666664</ele><time>2026-04-18T10:53:52.918Z</time></trkpt><trkpt lat="39.57193663355245" lon="15.87204986284453"><ele>28.333333333333332</ele><time>2026-04-18T10:53:53.918Z</time></trkpt><trkpt lat="39.571790744141474" lon="15.872097331221081"><ele>29.0</ele><time>2026-04-18T10:53:54.918Z</time></trkpt><trkpt lat="39.5716432482209" lon="15.872146653511857"><ele>29.0</ele><time>2026-04-18T10:53:55.918Z</time></trkpt><trkpt lat="39.5714960935287" lon="15.872194112163092"><ele>29.0</ele><time>2026-04-18T10:53:56.918Z</time></trkpt><trkpt lat="39.57134303817887" lon="15.872246714932203"><ele>29.0</ele><time>2026-04-18T10:53:57.918Z</time></trkpt><trkpt lat="39.57120435019258" lon="15.872293236899052"><ele>28.25</ele><time>2026-04-18T10:53:58.917Z</time></trkpt><trkpt lat="39.57106579974721" lon="15.87234117896572"><ele>27.5</ele><time>2026-04-18T10:53:59.917Z</time></trkpt><trkpt lat="39.57093399852491" lon="15.872389066249582"><ele>26.75</ele><time>2026-04-18T10:54:00.917Z</time></trkpt><trkpt lat="39.57079985861193" lon="15.872429900938048"><ele>26.0</ele><time>2026-04-18T10:54:01.917Z</time></trkpt><trkpt lat="39.57066065380783" lon="15.87247621958973"><ele>26.0</ele><time>2026-04-18T10:54:02.917Z</time></trkpt><trkpt lat="39.570517780221806" lon="15.872521941764273"><ele>26.0</ele><time>2026-04-18T10:54:03.917Z</time></trkpt><trkpt lat="39.57038308374303" lon="15.872566543578488"><ele>26.0</ele><time>2026-04-18T10:54:04.917Z</time></trkpt><trkpt lat="39.570251325934144" lon="15.872611556906142"><ele>26.0</ele><time>2026-04-18T10:54:05.917Z</time></trkpt><trkpt lat="39.57012069722183" lon="15.872660719178118"><ele>27.5</ele><time>2026-04-18T10:54:06.917Z</time></trkpt><trkpt lat="39.56999122041085" lon="15.872705909632483"><ele>29.0</ele><time>2026-04-18T10:54:07.917Z</time></trkpt><trkpt lat="39.56985630037227" lon="15.872750850687835"><ele>30.5</ele><time>2026-04-18T10:54:08.917Z</time></trkpt><trkpt lat="39.56972450992861" lon="15.872791074345127"><ele>32.0</ele><time>2026-04-18T10:54:09.917Z</time></trkpt><trkpt lat="39.569592479775764" lon="15.87283506476077"><ele>31.5</ele><time>2026-04-18T10:54:10.917Z</time></trkpt><trkpt lat="39.569458154009816" lon="15.872880219662566"><ele>31.0</ele><time>2026-04-18T10:54:11.917Z</time></trkpt><trkpt lat="39.56932464850957" lon="15.87292527096023"><ele>30.5</ele><time>2026-04-18T10:54:12.917Z</time></trkpt><trkpt lat="39.56919127968334" lon="15.872969070213673"><ele>30.0</ele><time>2026-04-18T10:54:13.917Z</time></trkpt><trkpt lat="39.56905711978078" lon="15.873012361146724"><ele>30.0</ele><time>2026-04-18T10:54:14.917Z</time></trkpt><trkpt lat="39.568925519957986" lon="15.87305750677838"><ele>30.0</ele><time>2026-04-18T10:54:15.917Z</time></trkpt><trkpt lat="39.568792070520146" lon="15.873102463844642"><ele>30.0</ele><time>2026-04-18T10:54:16.917Z</time></trkpt><trkpt lat="39.56865803557042" lon="15.873150496500081"><ele>30.0</ele><time>2026-04-18T10:54:17.917Z</time></trkpt><trkpt lat="39.56852408536102" lon="15.87319896881203"><ele>29.75</ele><time>2026-04-18T10:54:18.917Z</time></trkpt><trkpt lat="39.568389858919325" lon="15.873252854244845"><ele>29.5</ele><time>2026-04-18T10:54:19.917Z</time></trkpt><trkpt lat="39.56825590586277" lon="15.873312970578159"><ele>29.25</ele><time>2026-04-18T10:54:20.918Z</time></trkpt><trkpt lat="39.56812372927777" lon="15.873381967890408"><ele>29.0</ele><time>2026-04-18T10:54:21.918Z</time></trkpt><trkpt lat="39.56799071899858" lon="15.873463762578094"><ele>29.5</ele><time>2026-04-18T10:54:22.918Z</time></trkpt><trkpt lat="39.56786260608617" lon="15.873555773127187"><ele>30.0</ele><time>2026-04-18T10:54:23.918Z</time></trkpt><trkpt lat="39.56774482384415" lon="15.873654156143138"><ele>30.5</ele><time>2026-04-18T10:54:24.918Z</time></trkpt><trkpt lat="39.56763514194755" lon="15.873749098642309"><ele>31.0</ele><time>2026-04-18T10:54:25.918Z</time></trkpt><trkpt lat="39.5675320107549" lon="15.873841859762976"><ele>29.25</ele><time>2026-04-18T10:54:26.918Z</time></trkpt><trkpt lat="39.56743461872805" lon="15.87393184167415"><ele>27.5</ele><time>2026-04-18T10:54:27.918Z</time></trkpt><trkpt lat="39.56733412886841" lon="15.874021849271255"><ele>25.75</ele><time>2026-04-18T10:54:28.918Z</time></trkpt><trkpt lat="39.56723594196505" lon="15.874110838865295"><ele>24.0</ele><time>2026-04-18T10:54:29.918Z</time></trkpt><trkpt lat="39.56713145540202" lon="15.874204484453703"><ele>28.5</ele><time>2026-04-18T10:54:30.918Z</time></trkpt><trkpt lat="39.56702067883502" lon="15.874301847283293"><ele>33.0</ele><time>2026-04-18T10:54:31.918Z</time></trkpt><trkpt lat="39.566903035515885" lon="15.874401692973583"><ele>37.5</ele><time>2026-04-18T10:54:32.918Z</time></trkpt><trkpt lat="39.56677546036469" lon="15.874501607956699"><ele>42.0</ele><time>2026-04-18T10:54:33.918Z</time></trkpt><trkpt lat="39.566641935931884" lon="15.874600710503122"><ele>42.0</ele><time>2026-04-18T10:54:34.918Z</time></trkpt><trkpt lat="39.566496583624165" lon="15.874682745590562"><ele>42.0</ele><time>2026-04-18T10:54:35.918Z</time></trkpt><trkpt lat="39.566333108860995" lon="15.874764397394609"><ele>42.0</ele><time>2026-04-18T10:54:36.918Z</time></trkpt><trkpt lat="39.566183628591546" lon="15.874824907473348"><ele>41.0</ele><time>2026-04-18T10:54:37.918Z</time></trkpt><trkpt lat="39.56601122990094" lon="15.874875720915417"><ele>40.0</ele><time>2026-04-18T10:54:38.918Z</time></trkpt><trkpt lat="39.56583524914486" lon="15.874924735825966"><ele>39.0</ele><time>2026-04-18T10:54:39.918Z</time></trkpt><trkpt lat="39.565658650302126" lon="15.874974056313613"><ele>39.0</ele><time>2026-04-18T10:54:40.918Z</time></trkpt><trkpt lat="39.56547891192706" lon="15.875022893698628"><ele>39.0</ele><time>2026-04-18T10:54:41.918Z</time></trkpt><trkpt lat="39.56530078659784" lon="15.875071371983585"><ele>39.0</ele><time>2026-04-18T10:54:42.918Z</time></trkpt><trkpt lat="39.56512618752082" lon="15.875117816169611"><ele>43.33333333333333</ele><time>2026-04-18T10:54:43.918Z</time></trkpt><trkpt lat="39.564952235926036" lon="15.8751654071927"><ele>47.666666666666664</ele><time>2026-04-18T10:54:44.918Z</time></trkpt><trkpt lat="39.56477660068753" lon="15.875211328629536"><ele>52.0</ele><time>2026-04-18T10:54:45.918Z</time></trkpt><trkpt lat="39.56459543206327" lon="15.875261636899058"><ele>50.666666666666664</ele><time>2026-04-18T10:54:46.918Z</time></trkpt><trkpt lat="39.564411549610355" lon="15.875315012252607"><ele>49.33333333333333</ele><time>2026-04-18T10:54:47.918Z</time></trkpt><trkpt lat="39.56422370916787" lon="15.875369481872262"><ele>48.0</ele><time>2026-04-18T10:54:48.918Z</time></trkpt><trkpt lat="39.564047630629986" lon="15.875416737378044"><ele>48.0</ele><time>2026-04-18T10:54:49.918Z</time></trkpt><trkpt lat="39.56387839823894" lon="15.875461283532236"><ele>48.0</ele><time>2026-04-18T10:54:50.918Z</time></trkpt><trkpt lat="39.56371460285653" lon="15.875504662066362"><ele>48.0</ele><time>2026-04-18T10:54:51.918Z</time></trkpt><trkpt lat="39.56354864701885" lon="15.875554861962529"><ele>46.666666666666664</ele><time>2026-04-18T10:54:52.918Z</time></trkpt><trkpt lat="39.56338203890441" lon="15.875613852684301"><ele>45.33333333333333</ele><time>2026-04-18T10:54:53.918Z</time></trkpt><trkpt lat="39.56321714542803" lon="15.875671637163343"><ele>44.0</ele><time>2026-04-18T10:54:54.918Z</time></trkpt><trkpt lat="39.56305782396633" lon="15.875717338043813"><ele>44.0</ele><time>2026-04-18T10:54:55.918Z</time></trkpt><trkpt lat="39.56288951055322" lon="15.87578980177142"><ele>44.0</ele><time>2026-04-18T10:54:56.918Z</time></trkpt><trkpt lat="39.56272042094845" lon="15.87584922416495"><ele>44.0</ele><time>2026-04-18T10:54:57.918Z</time></trkpt><trkpt lat="39.56255265694648" lon="15.875908493868435"><ele>44.0</ele><time>2026-04-18T10:54:58.918Z</time></trkpt><trkpt lat="39.562386250688576" lon="15.875967253665673"><ele>44.0</ele><time>2026-04-18T10:54:59.918Z</time></trkpt><trkpt lat="39.562218506428096" lon="15.876027166177403"><ele>44.0</ele><time>2026-04-18T10:55:00.918Z</time></trkpt><trkpt lat="39.562051415680784" lon="15.876084869255891"><ele>41.666666666666664</ele><time>2026-04-18T10:55:01.918Z</time></trkpt><trkpt lat="39.56188428791736" lon="15.876143712578454"><ele>39.333333333333336</ele><time>2026-04-18T10:55:02.918Z</time></trkpt><trkpt lat="39.561718061662226" lon="15.876200706482102"><ele>37.0</ele><time>2026-04-18T10:55:03.917Z</time></trkpt><trkpt lat="39.561551572747106" lon="15.876263024869173"><ele>37.0</ele><time>2026-04-18T10:55:04.917Z</time></trkpt><trkpt lat="39.56138604539638" lon="15.876325929832072"><ele>37.0</ele><time>2026-04-18T10:55:05.917Z</time></trkpt><trkpt lat="39.56122079377951" lon="15.876385104906069"><ele>37.0</ele><time>2026-04-18T10:55:06.917Z</time></trkpt><trkpt lat="39.561053442235114" lon="15.87644698259704"><ele>38.0</ele><time>2026-04-18T10:55:07.917Z</time></trkpt><trkpt lat="39.56088935532551" lon="15.87650921310975"><ele>39.0</ele><time>2026-04-18T10:55:08.917Z</time></trkpt><trkpt lat="39.560725415471225" lon="15.876573340658293"><ele>40.0</ele><time>2026-04-18T10:55:09.917Z</time></trkpt><trkpt lat="39.560562413837765" lon="15.876635181836145"><ele>40.0</ele><time>2026-04-18T10:55:10.917Z</time></trkpt><trkpt lat="39.56039840353401" lon="15.876691896262438"><ele>40.0</ele><time>2026-04-18T10:55:11.917Z</time></trkpt><trkpt lat="39.560232427837725" lon="15.876752960333851"><ele>40.0</ele><time>2026-04-18T10:55:12.917Z</time></trkpt><trkpt lat="39.56006993493298" lon="15.876813479468174"><ele>43.333333333333336</ele><time>2026-04-18T10:55:13.917Z</time></trkpt><trkpt lat="39.55990576087533" lon="15.876872109581004"><ele>46.66666666666667</ele><time>2026-04-18T10:55:14.917Z</time></trkpt><trkpt lat="39.55974275329412" lon="15.876931238814553"><ele>50.0</ele><time>2026-04-18T10:55:15.917Z</time></trkpt><trkpt lat="39.559576957185016" lon="15.876989244418828"><ele>49.333333333333336</ele><time>2026-04-18T10:55:16.917Z</time></trkpt><trkpt lat="39.55941151426218" lon="15.877042918423154"><ele>48.66666666666667</ele><time>2026-04-18T10:55:17.917Z</time></trkpt><trkpt lat="39.55924468929392" lon="15.877097192623518"><ele>48.0</ele><time>2026-04-18T10:55:18.917Z</time></trkpt><trkpt lat="39.55907852828007" lon="15.877153126599161"><ele>48.0</ele><time>2026-04-18T10:55:19.917Z</time></trkpt><trkpt lat="39.55891025846005" lon="15.877214243966709"><ele>48.0</ele><time>2026-04-18T10:55:20.917Z</time></trkpt><trkpt lat="39.55874516341715" lon="15.877275480178673"><ele>48.0</ele><time>2026-04-18T10:55:21.917Z</time></trkpt><trkpt lat="39.55857541081131" lon="15.877338194552966"><ele>48.33333333333333</ele><time>2026-04-18T10:55:22.917Z</time></trkpt><trkpt lat="39.55841096459374" lon="15.87739696973953"><ele>48.666666666666664</ele><time>2026-04-18T10:55:23.917Z</time></trkpt><trkpt lat="39.55824715523962" lon="15.877454486885561"><ele>49.0</ele><time>2026-04-18T10:55:24.917Z</time></trkpt><trkpt lat="39.55809718164622" lon="15.877509619293072"><ele>49.0</ele><time>2026-04-18T10:55:25.917Z</time></trkpt><trkpt lat="39.55795355822626" lon="15.877563112120553"><ele>49.0</ele><time>2026-04-18T10:55:26.917Z</time></trkpt><trkpt lat="39.55780626515793" lon="15.877618825171911"><ele>49.0</ele><time>2026-04-18T10:55:27.917Z</time></trkpt><trkpt lat="39.55765685946989" lon="15.877677559240958"><ele>53.33333333333333</ele><time>2026-04-18T10:55:28.917Z</time></trkpt><trkpt lat="39.557510106491236" lon="15.877742482494115"><ele>57.66666666666667</ele><time>2026-04-18T10:55:29.917Z</time></trkpt><trkpt lat="39.557368368029955" lon="15.877820865841537"><ele>62.0</ele><time>2026-04-18T10:55:30.917Z</time></trkpt><trkpt lat="39.55722879583935" lon="15.87791290432777"><ele>62.0</ele><time>2026-04-18T10:55:31.917Z</time></trkpt><trkpt lat="39.55708764043002" lon="15.878015723019283"><ele>62.0</ele><time>2026-04-18T10:55:32.917Z</time></trkpt><trkpt lat="39.556951339357404" lon="15.878126586032419"><ele>62.0</ele><time>2026-04-18T10:55:33.917Z</time></trkpt><trkpt lat="39.55681835271134" lon="15.878248208734023"><ele>63.0</ele><time>2026-04-18T10:55:34.917Z</time></trkpt><trkpt lat="39.55668927110371" lon="15.878378452712743"><ele>64.0</ele><time>2026-04-18T10:55:35.917Z</time></trkpt><trkpt lat="39.55656005506759" lon="15.87851244811917"><ele>65.0</ele><time>2026-04-18T10:55:36.917Z</time></trkpt><trkpt lat="39.55642555307402" lon="15.878652342291291"><ele>70.0</ele><time>2026-04-18T10:55:37.917Z</time></trkpt><trkpt lat="39.55628742088637" lon="15.878796412144325"><ele>75.0</ele><time>2026-04-18T10:55:38.917Z</time></trkpt><trkpt lat="39.556146879680576" lon="15.878943475312878"><ele>80.0</ele><time>2026-04-18T10:55:39.917Z</time></trkpt><trkpt lat="39.556000832381" lon="15.879089763606094"><ele>80.0</ele><time>2026-04-18T10:55:40.917Z</time></trkpt><trkpt lat="39.55585238968604" lon="15.87923605429221"><ele>80.0</ele><time>2026-04-18T10:55:41.917Z</time></trkpt><trkpt lat="39.555708608973816" lon="15.879378123791959"><ele>80.0</ele><time>2026-04-18T10:55:42.917Z</time></trkpt><trkpt lat="39.55559373278014" lon="15.879490055650209"><ele>79.0</ele><time>2026-04-18T10:55:43.917Z</time></trkpt><trkpt lat="39.55546088979503" lon="15.87962239263082"><ele>78.0</ele><time>2026-04-18T10:55:44.917Z</time></trkpt><trkpt lat="39.55532568994687" lon="15.879755608857401"><ele>77.0</ele><time>2026-04-18T10:55:45.917Z</time></trkpt><trkpt lat="39.555203139146776" lon="15.879920615490262"><ele>76.66666666666667</ele><time>2026-04-18T10:55:46.917Z</time></trkpt><trkpt lat="39.555080328170106" lon="15.880036859836967"><ele>76.33333333333333</ele><time>2026-04-18T10:55:47.917Z</time></trkpt><trkpt lat="39.55494707353728" lon="15.880177711132609"><ele>76.0</ele><time>2026-04-18T10:55:48.917Z</time></trkpt><trkpt lat="39.554810702891665" lon="15.880308377646548"><ele>76.0</ele><time>2026-04-18T10:55:49.917Z</time></trkpt><trkpt lat="39.554668517009496" lon="15.880433151200064"><ele>76.0</ele><time>2026-04-18T10:55:50.917Z</time></trkpt><trkpt lat="39.5545245701275" lon="15.880542702519154"><ele>76.0</ele><time>2026-04-18T10:55:51.917Z</time></trkpt><trkpt lat="39.55438841798637" lon="15.880628150040183"><ele>74.66666666666666</ele><time>2026-04-18T10:55:52.917Z</time></trkpt><trkpt lat="39.55424872709468" lon="15.880701886182528"><ele>73.33333333333333</ele><time>2026-04-18T10:55:53.917Z</time></trkpt><trkpt lat="39.55409783057521" lon="15.880785567273035"><ele>72.0</ele><time>2026-04-18T10:55:54.917Z</time></trkpt><trkpt lat="39.5539326357502" lon="15.88087905447129"><ele>75.66666666666667</ele><time>2026-04-18T10:55:55.917Z</time></trkpt><trkpt lat="39.55375108190185" lon="15.88096682986662"><ele>79.33333333333334</ele><time>2026-04-18T10:55:56.917Z</time></trkpt><trkpt lat="39.553573148278176" lon="15.881048082686325"><ele>83.0</ele><time>2026-04-18T10:55:57.917Z</time></trkpt><trkpt lat="39.55340274804445" lon="15.881122924227268"><ele>83.0</ele><time>2026-04-18T10:55:58.917Z</time></trkpt><trkpt lat="39.55322238355126" lon="15.881183173656717"><ele>83.0</ele><time>2026-04-18T10:55:59.917Z</time></trkpt><trkpt lat="39.55305169668676" lon="15.88121965245717"><ele>83.0</ele><time>2026-04-18T10:56:00.917Z</time></trkpt><trkpt lat="39.55288651926352" lon="15.881235061081382"><ele>84.33333333333334</ele><time>2026-04-18T10:56:01.917Z</time></trkpt><trkpt lat="39.55272296952792" lon="15.881240236403698"><ele>85.66666666666667</ele><time>2026-04-18T10:56:02.917Z</time></trkpt><trkpt lat="39.55256379465676" lon="15.881236965362355"><ele>87.0</ele><time>2026-04-18T10:56:03.917Z</time></trkpt><trkpt lat="39.55240033468055" lon="15.88122917710091"><ele>87.0</ele><time>2026-04-18T10:56:04.917Z</time></trkpt><trkpt lat="39.55223521441741" lon="15.881222177090157"><ele>87.0</ele><time>2026-04-18T10:56:05.917Z</time></trkpt><trkpt lat="39.552068488293834" lon="15.881218388095496"><ele>87.0</ele><time>2026-04-18T10:56:06.917Z</time></trkpt><trkpt lat="39.55190124115956" lon="15.88121616367004"><ele>88.0</ele><time>2026-04-18T10:56:07.917Z</time></trkpt><trkpt lat="39.55173244057071" lon="15.88121553107945"><ele>89.0</ele><time>2026-04-18T10:56:08.917Z</time></trkpt><trkpt lat="39.551562822719035" lon="15.8812183922214"><ele>90.0</ele><time>2026-04-18T10:56:09.917Z</time></trkpt><trkpt lat="39.551396327850426" lon="15.88121866027702"><ele>90.0</ele><time>2026-04-18T10:56:10.917Z</time></trkpt><trkpt lat="39.55123202082147" lon="15.881215118110992"><ele>90.0</ele><time>2026-04-18T10:56:11.917Z</time></trkpt><trkpt lat="39.551064819993606" lon="15.881214475993906"><ele>90.0</ele><time>2026-04-18T10:56:12.917Z</time></trkpt><trkpt lat="39.55089559365015" lon="15.881220115946912"><ele>87.0</ele><time>2026-04-18T10:56:13.917Z</time></trkpt><trkpt lat="39.55072804448806" lon="15.881231163977889"><ele>84.0</ele><time>2026-04-18T10:56:14.917Z</time></trkpt><trkpt lat="39.550560688352824" lon="15.88125264762114"><ele>81.0</ele><time>2026-04-18T10:56:15.917Z</time></trkpt><trkpt lat="39.55039008579794" lon="15.8812899262995"><ele>77.66666666666667</ele><time>2026-04-18T10:56:16.917Z</time></trkpt><trkpt lat="39.550219026778656" lon="15.88134168838451"><ele>74.33333333333334</ele><time>2026-04-18T10:56:17.917Z</time></trkpt><trkpt lat="39.55005141824596" lon="15.881409116674238"><ele>71.0</ele><time>2026-04-18T10:56:18.917Z</time></trkpt><trkpt lat="39.54988580753627" lon="15.881486987262827"><ele>71.0</ele><time>2026-04-18T10:56:19.917Z</time></trkpt><trkpt lat="39.549720370593164" lon="15.88157849671941"><ele>71.0</ele><time>2026-04-18T10:56:20.917Z</time></trkpt><trkpt lat="39.549556644637526" lon="15.881676747775606"><ele>71.0</ele><time>2026-04-18T10:56:21.917Z</time></trkpt><trkpt lat="39.549399179335815" lon="15.88177478139306"><ele>74.66666666666667</ele><time>2026-04-18T10:56:22.917Z</time></trkpt><trkpt lat="39.54923717011742" lon="15.881876401956651"><ele>78.33333333333333</ele><time>2026-04-18T10:56:23.917Z</time></trkpt><trkpt lat="39.5490773693397" lon="15.881976689997337"><ele>82.0</ele><time>2026-04-18T10:56:24.917Z</time></trkpt><trkpt lat="39.54891084873447" lon="15.882080022657671"><ele>82.0</ele><time>2026-04-18T10:56:25.917Z</time></trkpt><trkpt lat="39.548742008368755" lon="15.88218173459591"><ele>82.0</ele><time>2026-04-18T10:56:26.917Z</time></trkpt><trkpt lat="39.548575403907144" lon="15.882280560134241"><ele>82.0</ele><time>2026-04-18T10:56:27.917Z</time></trkpt><trkpt lat="39.54840705450017" lon="15.88238269052917"><ele>77.66666666666666</ele><time>2026-04-18T10:56:28.917Z</time></trkpt><trkpt lat="39.54823843606499" lon="15.88248600911172"><ele>73.33333333333333</ele><time>2026-04-18T10:56:29.917Z</time></trkpt><trkpt lat="39.548069700995214" lon="15.882589000273121"><ele>69.0</ele><time>2026-04-18T10:56:30.917Z</time></trkpt><trkpt lat="39.54789918358763" lon="15.88269139691381"><ele>72.66666666666667</ele><time>2026-04-18T10:56:31.917Z</time></trkpt><trkpt lat="39.54772728932196" lon="15.882795220684129"><ele>76.33333333333334</ele><time>2026-04-18T10:56:32.917Z</time></trkpt><trkpt lat="39.547562300449776" lon="15.882897551411142"><ele>80.0</ele><time>2026-04-18T10:56:33.917Z</time></trkpt><trkpt lat="39.54740299245537" lon="15.882999018269567"><ele>80.0</ele><time>2026-04-18T10:56:34.917Z</time></trkpt><trkpt lat="39.547248426594855" lon="15.883101619952377"><ele>80.0</ele><time>2026-04-18T10:56:35.917Z</time></trkpt><trkpt lat="39.54709444991597" lon="15.883213336167683"><ele>80.0</ele><time>2026-04-18T10:56:36.917Z</time></trkpt><trkpt lat="39.54695046375631" lon="15.88333186570943"><ele>78.0</ele><time>2026-04-18T10:56:37.917Z</time></trkpt><trkpt lat="39.546805154981726" lon="15.88346887847364"><ele>76.0</ele><time>2026-04-18T10:56:38.917Z</time></trkpt><trkpt lat="39.54666862303782" lon="15.883614776909758"><ele>74.0</ele><time>2026-04-18T10:56:39.917Z</time></trkpt><trkpt lat="39.546537289901664" lon="15.883777371127785"><ele>74.0</ele><time>2026-04-18T10:56:40.917Z</time></trkpt><trkpt lat="39.54641635657605" lon="15.883943733450185"><ele>74.0</ele><time>2026-04-18T10:56:41.917Z</time></trkpt><trkpt lat="39.54630392762618" lon="15.884123544972148"><ele>74.0</ele><time>2026-04-18T10:56:42.917Z</time></trkpt><trkpt lat="39.546198190779705" lon="15.884316727008477"><ele>83.0</ele><time>2026-04-18T10:56:43.917Z</time></trkpt><trkpt lat="39.54610029457429" lon="15.88450996097856"><ele>92.0</ele><time>2026-04-18T10:56:44.917Z</time></trkpt><trkpt lat="39.545984757356464" lon="15.884686493098224"><ele>101.0</ele><time>2026-04-18T10:56:45.917Z</time></trkpt><trkpt lat="39.54588192567056" lon="15.884869582218688"><ele>101.0</ele><time>2026-04-18T10:56:46.917Z</time></trkpt><trkpt lat="39.54577419379927" lon="15.885060076853678"><ele>101.0</ele><time>2026-04-18T10:56:47.917Z</time></trkpt><trkpt lat="39.54566737234431" lon="15.885248961675186"><ele>101.0</ele><time>2026-04-18T10:56:48.917Z</time></trkpt><trkpt lat="39.545561378100196" lon="15.885439355059251"><ele>100.66666666666666</ele><time>2026-04-18T10:56:49.917Z</time></trkpt><trkpt lat="39.5454578282009" lon="15.885628142452644"><ele>100.33333333333334</ele><time>2026-04-18T10:56:50.917Z</time></trkpt><trkpt lat="39.54535331695308" lon="15.885817728633514"><ele>100.0</ele><time>2026-04-18T10:56:51.917Z</time></trkpt><trkpt lat="39.54524580503008" lon="15.886010288867329"><ele>88.66666666666667</ele><time>2026-04-18T10:56:52.917Z</time></trkpt><trkpt lat="39.54513317985028" lon="15.886206677730549"><ele>77.33333333333334</ele><time>2026-04-18T10:56:53.917Z</time></trkpt><trkpt lat="39.54503407002043" lon="15.886445170910394"><ele>66.0</ele><time>2026-04-18T10:56:54.917Z</time></trkpt><trkpt lat="39.54492145307559" lon="15.88668303690545"><ele>67.66666666666667</ele><time>2026-04-18T10:56:55.917Z</time></trkpt><trkpt lat="39.54484092957745" lon="15.886911530248273"><ele>69.33333333333334</ele><time>2026-04-18T10:56:56.917Z</time></trkpt><trkpt lat="39.54477289473539" lon="15.887144012719594"><ele>71.0</ele><time>2026-04-18T10:56:57.917Z</time></trkpt><trkpt lat="39.54471529789174" lon="15.887374246244363"><ele>73.33333333333334</ele><time>2026-04-18T10:56:58.917Z</time></trkpt><trkpt lat="39.54466220410676" lon="15.887613534240046"><ele>75.66666666666667</ele><time>2026-04-18T10:56:59.917Z</time></trkpt><trkpt lat="39.544610440382" lon="15.887849573846582"><ele>78.0</ele><time>2026-04-18T10:57:00.917Z</time></trkpt><trkpt lat="39.544553140408865" lon="15.888078896893907"><ele>72.33333333333333</ele><time>2026-04-18T10:57:01.917Z</time></trkpt><trkpt lat="39.54449412785441" lon="15.88830640988093"><ele>66.66666666666666</ele><time>2026-04-18T10:57:02.917Z</time></trkpt><trkpt lat="39.54443577723312" lon="15.888530173612594"><ele>61.0</ele><time>2026-04-18T10:57:03.917Z</time></trkpt><trkpt lat="39.54437631797511" lon="15.888754678881002"><ele>61.0</ele><time>2026-04-18T10:57:04.917Z</time></trkpt><trkpt lat="39.54431189445662" lon="15.888977547700783"><ele>61.0</ele><time>2026-04-18T10:57:05.917Z</time></trkpt><trkpt lat="39.544238154066406" lon="15.889184342912287"><ele>61.0</ele><time>2026-04-18T10:57:06.917Z</time></trkpt><trkpt lat="39.544150623844736" lon="15.889386489453521"><ele>66.33333333333333</ele><time>2026-04-18T10:57:07.917Z</time></trkpt><trkpt lat="39.544055955155926" lon="15.889583712525527"><ele>71.66666666666667</ele><time>2026-04-18T10:57:08.917Z</time></trkpt><trkpt lat="39.54395168512061" lon="15.88977527595018"><ele>77.0</ele><time>2026-04-18T10:57:09.917Z</time></trkpt><trkpt lat="39.54384131241354" lon="15.889961022429661"><ele>76.66666666666667</ele><time>2026-04-18T10:57:10.917Z</time></trkpt><trkpt lat="39.54373064898462" lon="15.89013918966747"><ele>76.33333333333333</ele><time>2026-04-18T10:57:11.917Z</time></trkpt><trkpt lat="39.54361869183174" lon="15.890322882473125"><ele>76.0</ele><time>2026-04-18T10:57:12.917Z</time></trkpt><trkpt lat="39.54350958994238" lon="15.890508644052924"><ele>76.0</ele><time>2026-04-18T10:57:13.917Z</time></trkpt><trkpt lat="39.5434015848354" lon="15.890697037483363"><ele>76.0</ele><time>2026-04-18T10:57:14.917Z</time></trkpt><trkpt lat="39.54329338371686" lon="15.890880584202767"><ele>76.0</ele><time>2026-04-18T10:57:15.917Z</time></trkpt><trkpt lat="39.543185397566106" lon="15.891066235382793"><ele>80.0</ele><time>2026-04-18T10:57:16.917Z</time></trkpt><trkpt lat="39.54307669028951" lon="15.891253056658812"><ele>84.0</ele><time>2026-04-18T10:57:17.917Z</time></trkpt><trkpt lat="39.54296913356053" lon="15.891435477391516"><ele>88.0</ele><time>2026-04-18T10:57:18.917Z</time></trkpt><trkpt lat="39.542859277525494" lon="15.891624360581867"><ele>74.66666666666666</ele><time>2026-04-18T10:57:19.917Z</time></trkpt><trkpt lat="39.54274923053079" lon="15.891807976236095"><ele>61.33333333333333</ele><time>2026-04-18T10:57:20.917Z</time></trkpt><trkpt lat="39.54263390761775" lon="15.892001838368156"><ele>48.0</ele><time>2026-04-18T10:57:21.917Z</time></trkpt><trkpt lat="39.54251633138599" lon="15.892202639131556"><ele>48.0</ele><time>2026-04-18T10:57:22.917Z</time></trkpt><trkpt lat="39.54239092151333" lon="15.892415344376042"><ele>48.0</ele><time>2026-04-18T10:57:23.917Z</time></trkpt><trkpt lat="39.54226286964569" lon="15.892623687411534"><ele>48.0</ele><time>2026-04-18T10:57:24.917Z</time></trkpt><trkpt lat="39.54213842913278" lon="15.892832547663499"><ele>54.66666666666667</ele><time>2026-04-18T10:57:25.917Z</time></trkpt><trkpt lat="39.542017776267095" lon="15.893038019586816"><ele>61.333333333333336</ele><time>2026-04-18T10:57:26.917Z</time></trkpt><trkpt lat="39.5418923879058" lon="15.89324917680388"><ele>68.0</ele><time>2026-04-18T10:57:27.917Z</time></trkpt><trkpt lat="39.54175628809387" lon="15.893469352791822"><ele>77.0</ele><time>2026-04-18T10:57:28.917Z</time></trkpt><trkpt lat="39.541610012531315" lon="15.893674938519073"><ele>86.0</ele><time>2026-04-18T10:57:29.917Z</time></trkpt><trkpt lat="39.54144193232861" lon="15.893867710255819"><ele>95.0</ele><time>2026-04-18T10:57:30.917Z</time></trkpt><trkpt lat="39.541256814238174" lon="15.894050850852189"><ele>91.0</ele><time>2026-04-18T10:57:31.917Z</time></trkpt><trkpt lat="39.5410595721762" lon="15.894223628273318"><ele>87.0</ele><time>2026-04-18T10:57:32.917Z</time></trkpt><trkpt lat="39.54086791655071" lon="15.894376892333856"><ele>93.66666666666666</ele><time>2026-04-18T10:57:33.917Z</time></trkpt><trkpt lat="39.540704973220286" lon="15.894516989677273"><ele>100.33333333333333</ele><time>2026-04-18T10:57:34.917Z</time></trkpt><trkpt lat="39.5405474589697" lon="15.8946563476092"><ele>107.0</ele><time>2026-04-18T10:57:35.917Z</time></trkpt><trkpt lat="39.540391123928515" lon="15.89480364495662"><ele>107.33333333333333</ele><time>2026-04-18T10:57:36.917Z</time></trkpt><trkpt lat="39.540242795995006" lon="15.894957675654469"><ele>107.66666666666666</ele><time>2026-04-18T10:57:37.917Z</time></trkpt><trkpt lat="39.54010566042811" lon="15.895123746253075"><ele>108.0</ele><time>2026-04-18T10:57:38.917Z</time></trkpt><trkpt lat="39.539981862628196" lon="15.895300836260711"><ele>108.0</ele><time>2026-04-18T10:57:39.917Z</time></trkpt><trkpt lat="39.539867800402654" lon="15.89548872148488"><ele>108.0</ele><time>2026-04-18T10:57:40.917Z</time></trkpt><trkpt lat="39.539763065506584" lon="15.895693003901057"><ele>108.0</ele><time>2026-04-18T10:57:41.917Z</time></trkpt><trkpt lat="39.53966838479176" lon="15.895902036110929"><ele>111.66666666666666</ele><time>2026-04-18T10:57:42.917Z</time></trkpt><trkpt lat="39.539584641611164" lon="15.89611557057097"><ele>115.33333333333333</ele><time>2026-04-18T10:57:43.917Z</time></trkpt><trkpt lat="39.539510909909225" lon="15.896342499423437"><ele>119.0</ele><time>2026-04-18T10:57:44.917Z</time></trkpt><trkpt lat="39.5394461434518" lon="15.89657808654926"><ele>106.33333333333333</ele><time>2026-04-18T10:57:45.917Z</time></trkpt><trkpt lat="39.53939163363036" lon="15.896829493426145"><ele>93.66666666666666</ele><time>2026-04-18T10:57:46.917Z</time></trkpt><trkpt lat="39.539351175615906" lon="15.897086735128859"><ele>81.0</ele><time>2026-04-18T10:57:47.917Z</time></trkpt><trkpt lat="39.53932103079749" lon="15.897353794767618"><ele>85.0</ele><time>2026-04-18T10:57:48.917Z</time></trkpt><trkpt lat="39.53929675328685" lon="15.897623156002247"><ele>89.0</ele><time>2026-04-18T10:57:49.917Z</time></trkpt><trkpt lat="39.539273988658216" lon="15.897896464235947"><ele>93.0</ele><time>2026-04-18T10:57:50.917Z</time></trkpt><trkpt lat="39.539248399183364" lon="15.89815316188641"><ele>93.0</ele><time>2026-04-18T10:57:51.917Z</time></trkpt><trkpt lat="39.53922226569769" lon="15.898402883748938"><ele>93.0</ele><time>2026-04-18T10:57:52.917Z</time></trkpt><trkpt lat="39.53919847205397" lon="15.898643476479613"><ele>93.0</ele><time>2026-04-18T10:57:53.917Z</time></trkpt><trkpt lat="39.53917836978329" lon="15.89887005973029"><ele>96.33333333333334</ele><time>2026-04-18T10:57:54.917Z</time></trkpt><trkpt lat="39.539156230204995" lon="15.899097052443249"><ele>99.66666666666667</ele><time>2026-04-18T10:57:55.917Z</time></trkpt><trkpt lat="39.53913213106239" lon="15.89932219618757"><ele>103.0</ele><time>2026-04-18T10:57:56.917Z</time></trkpt><trkpt lat="39.539103717580154" lon="15.899552333485916"><ele>105.66666666666667</ele><time>2026-04-18T10:57:57.917Z</time></trkpt><trkpt lat="39.539071269453665" lon="15.899779026416466"><ele>108.33333333333334</ele><time>2026-04-18T10:57:58.917Z</time></trkpt><trkpt lat="39.539030583786435" lon="15.90000255720102"><ele>111.0</ele><time>2026-04-18T10:57:59.917Z</time></trkpt><trkpt lat="39.53898400166806" lon="15.900231200927388"><ele>114.0</ele><time>2026-04-18T10:58:00.917Z</time></trkpt><trkpt lat="39.538931268879224" lon="15.900455658885061"><ele>117.0</ele><time>2026-04-18T10:58:01.917Z</time></trkpt><trkpt lat="39.5388802333915" lon="15.900681104920661"><ele>120.0</ele><time>2026-04-18T10:58:02.917Z</time></trkpt><trkpt lat="39.53883354862132" lon="15.900909195656382"><ele>119.0</ele><time>2026-04-18T10:58:03.917Z</time></trkpt><trkpt lat="39.53879587713217" lon="15.901143995745741"><ele>118.0</ele><time>2026-04-18T10:58:04.917Z</time></trkpt><trkpt lat="39.53876733885501" lon="15.901381346795759"><ele>117.0</ele><time>2026-04-18T10:58:05.917Z</time></trkpt><trkpt lat="39.53875100792047" lon="15.901624133999686"><ele>118.0</ele><time>2026-04-18T10:58:06.917Z</time></trkpt><trkpt lat="39.53874357959666" lon="15.901869668676037"><ele>119.0</ele><time>2026-04-18T10:58:07.917Z</time></trkpt><trkpt lat="39.53874383459826" lon="15.902118236820584"><ele>120.0</ele><time>2026-04-18T10:58:08.917Z</time></trkpt><trkpt lat="39.538747129229506" lon="15.90236942486604"><ele>123.0</ele><time>2026-04-18T10:58:09.917Z</time></trkpt><trkpt lat="39.53875613570506" lon="15.902620523136296"><ele>126.0</ele><time>2026-04-18T10:58:10.916Z</time></trkpt><trkpt lat="39.53876132747888" lon="15.902877334524051"><ele>129.0</ele><time>2026-04-18T10:58:11.916Z</time></trkpt><trkpt lat="39.538764395488066" lon="15.903127987896585"><ele>129.0</ele><time>2026-04-18T10:58:12.916Z</time></trkpt><trkpt lat="39.53876834837472" lon="15.903381516086332"><ele>129.0</ele><time>2026-04-18T10:58:13.916Z</time></trkpt><trkpt lat="39.53877010266327" lon="15.903619011925102"><ele>129.0</ele><time>2026-04-18T10:58:14.916Z</time></trkpt><trkpt lat="39.53877239746307" lon="15.90384491159647"><ele>130.33333333333334</ele><time>2026-04-18T10:58:15.916Z</time></trkpt><trkpt lat="39.53877348887151" lon="15.904070041511757"><ele>131.66666666666669</ele><time>2026-04-18T10:58:16.916Z</time></trkpt><trkpt lat="39.53877497863307" lon="15.904301088074291"><ele>133.0</ele><time>2026-04-18T10:58:17.916Z</time></trkpt><trkpt lat="39.53878068874313" lon="15.90453660741615"><ele>133.0</ele><time>2026-04-18T10:58:18.916Z</time></trkpt><trkpt lat="39.538784456837476" lon="15.904776508119149"><ele>133.0</ele><time>2026-04-18T10:58:19.916Z</time></trkpt><trkpt lat="39.5387860711855" lon="15.905022661514288"><ele>133.0</ele><time>2026-04-18T10:58:20.916Z</time></trkpt><trkpt lat="39.53878007961878" lon="15.905267892748112"><ele>134.33333333333334</ele><time>2026-04-18T10:58:21.916Z</time></trkpt><trkpt lat="39.53877131872309" lon="15.905500989664313"><ele>135.66666666666666</ele><time>2026-04-18T10:58:22.916Z</time></trkpt><trkpt lat="39.53876165973632" lon="15.905726692017959"><ele>137.0</ele><time>2026-04-18T10:58:23.916Z</time></trkpt><trkpt lat="39.53875050841493" lon="15.905953991912982"><ele>137.0</ele><time>2026-04-18T10:58:24.916Z</time></trkpt><trkpt lat="39.53873429163231" lon="15.906181836080831"><ele>137.0</ele><time>2026-04-18T10:58:25.916Z</time></trkpt><trkpt lat="39.53872082012182" lon="15.906402852326876"><ele>137.0</ele><time>2026-04-18T10:58:26.916Z</time></trkpt><trkpt lat="39.53866558337778" lon="15.906634445182695"><ele>128.33333333333331</ele><time>2026-04-18T10:58:27.916Z</time></trkpt><trkpt lat="39.538606886741846" lon="15.906875584328617"><ele>119.66666666666666</ele><time>2026-04-18T10:58:28.916Z</time></trkpt><trkpt lat="39.53853341999721" lon="15.907122314339263"><ele>111.0</ele><time>2026-04-18T10:58:29.916Z</time></trkpt><trkpt lat="39.53846106021491" lon="15.90736530874867"><ele>113.33333333333334</ele><time>2026-04-18T10:58:30.916Z</time></trkpt><trkpt lat="39.53839015055616" lon="15.907600753905754"><ele>115.66666666666667</ele><time>2026-04-18T10:58:31.916Z</time></trkpt><trkpt lat="39.53831738562944" lon="15.907834247307552"><ele>118.0</ele><time>2026-04-18T10:58:32.917Z</time></trkpt><trkpt lat="39.53826953820747" lon="15.908073351908765"><ele>118.0</ele><time>2026-04-18T10:58:33.917Z</time></trkpt><trkpt lat="39.53820029477119" lon="15.908294311693385"><ele>118.0</ele><time>2026-04-18T10:58:34.917Z</time></trkpt><trkpt lat="39.53813532232283" lon="15.908507659796822"><ele>118.0</ele><time>2026-04-18T10:58:35.917Z</time></trkpt><trkpt lat="39.53806913401251" lon="15.90872443834809"><ele>116.33333333333334</ele><time>2026-04-18T10:58:36.917Z</time></trkpt><trkpt lat="39.537984130585706" lon="15.908927379924032"><ele>114.66666666666666</ele><time>2026-04-18T10:58:37.917Z</time></trkpt><trkpt lat="39.537933383934096" lon="15.90914756281932"><ele>113.0</ele><time>2026-04-18T10:58:38.917Z</time></trkpt><trkpt lat="39.53785797126327" lon="15.909375527329484"><ele>106.33333333333333</ele><time>2026-04-18T10:58:39.917Z</time></trkpt><trkpt lat="39.53778958445494" lon="15.909602338603937"><ele>99.66666666666666</ele><time>2026-04-18T10:58:40.917Z</time></trkpt><trkpt lat="39.53772504823973" lon="15.909813935627293"><ele>93.0</ele><time>2026-04-18T10:58:41.917Z</time></trkpt><trkpt lat="39.53766203213356" lon="15.91001821471803"><ele>95.66666666666666</ele><time>2026-04-18T10:58:42.917Z</time></trkpt><trkpt lat="39.53759998416293" lon="15.910219429323034"><ele>98.33333333333333</ele><time>2026-04-18T10:58:43.917Z</time></trkpt><trkpt lat="39.53754222447058" lon="15.910421187751181"><ele>101.0</ele><time>2026-04-18T10:58:44.917Z</time></trkpt><trkpt lat="39.53747997005852" lon="15.910627089665267"><ele>101.0</ele><time>2026-04-18T10:58:45.917Z</time></trkpt><trkpt lat="39.537410752565705" lon="15.910842122714993"><ele>101.0</ele><time>2026-04-18T10:58:46.917Z</time></trkpt><trkpt lat="39.53733802063198" lon="15.911060680243116"><ele>101.0</ele><time>2026-04-18T10:58:47.917Z</time></trkpt><trkpt lat="39.53726613647448" lon="15.9112721155083"><ele>102.0</ele><time>2026-04-18T10:58:48.917Z</time></trkpt><trkpt lat="39.53717536566019" lon="15.911465455511449"><ele>103.0</ele><time>2026-04-18T10:58:49.917Z</time></trkpt><trkpt lat="39.53708822355043" lon="15.911664374080544"><ele>104.0</ele><time>2026-04-18T10:58:50.917Z</time></trkpt><trkpt lat="39.537011059273894" lon="15.911867954433347"><ele>97.66666666666666</ele><time>2026-04-18T10:58:51.917Z</time></trkpt><trkpt lat="39.53691229174356" lon="15.912065138012013"><ele>91.33333333333333</ele><time>2026-04-18T10:58:52.917Z</time></trkpt><trkpt lat="39.53681555850936" lon="15.912261032375575"><ele>85.0</ele><time>2026-04-18T10:58:53.917Z</time></trkpt><trkpt lat="39.53672064606395" lon="15.912455489279862"><ele>90.33333333333333</ele><time>2026-04-18T10:58:54.917Z</time></trkpt><trkpt lat="39.53662829506535" lon="15.912648540993786"><ele>95.66666666666666</ele><time>2026-04-18T10:58:55.917Z</time></trkpt><trkpt lat="39.536538491147" lon="15.912842249513776"><ele>101.0</ele><time>2026-04-18T10:58:56.917Z</time></trkpt><trkpt lat="39.53644595733734" lon="15.913036997512016"><ele>101.0</ele><time>2026-04-18T10:58:57.917Z</time></trkpt><trkpt lat="39.536347104505104" lon="15.9132323683092"><ele>101.0</ele><time>2026-04-18T10:58:58.917Z</time></trkpt><trkpt lat="39.53624546615477" lon="15.913424192070575"><ele>101.0</ele><time>2026-04-18T10:58:59.917Z</time></trkpt><trkpt lat="39.53614054429935" lon="15.913609320134684"><ele>95.66666666666666</ele><time>2026-04-18T10:59:00.917Z</time></trkpt><trkpt lat="39.53602564644087" lon="15.913784737421308"><ele>90.33333333333333</ele><time>2026-04-18T10:59:01.917Z</time></trkpt><trkpt lat="39.53588783320721" lon="15.913931580323077"><ele>85.0</ele><time>2026-04-18T10:59:02.917Z</time></trkpt><trkpt lat="39.535773951019145" lon="15.914106987872458"><ele>84.33333333333333</ele><time>2026-04-18T10:59:03.917Z</time></trkpt><trkpt lat="39.53563463039649" lon="15.914250966930986"><ele>83.66666666666667</ele><time>2026-04-18T10:59:04.917Z</time></trkpt><trkpt lat="39.53548078190404" lon="15.914374169488271"><ele>83.0</ele><time>2026-04-18T10:59:05.917Z</time></trkpt><trkpt lat="39.535327540108405" lon="15.914486857980593"><ele>83.0</ele><time>2026-04-18T10:59:06.917Z</time></trkpt><trkpt lat="39.535172540658884" lon="15.914591925798128"><ele>83.0</ele><time>2026-04-18T10:59:07.917Z</time></trkpt><trkpt lat="39.53502122074541" lon="15.914688736579512"><ele>83.0</ele><time>2026-04-18T10:59:08.917Z</time></trkpt><trkpt lat="39.53487585344489" lon="15.914788206978105"><ele>83.0</ele><time>2026-04-18T10:59:09.917Z</time></trkpt><trkpt lat="39.53473559391585" lon="15.914890234165451"><ele>83.0</ele><time>2026-04-18T10:59:10.917Z</time></trkpt><trkpt lat="39.534598766611325" lon="15.914997945639668"><ele>83.0</ele><time>2026-04-18T10:59:11.917Z</time></trkpt><trkpt lat="39.53445973521709" lon="15.915117140532415"><ele>80.66666666666667</ele><time>2026-04-18T10:59:12.917Z</time></trkpt><trkpt lat="39.53431758652417" lon="15.91525360577493"><ele>78.33333333333333</ele><time>2026-04-18T10:59:13.917Z</time></trkpt><trkpt lat="39.53418264530833" lon="15.91540168318427"><ele>76.0</ele><time>2026-04-18T10:59:14.917Z</time></trkpt><trkpt lat="39.53406165371133" lon="15.91554958850676"><ele>76.0</ele><time>2026-04-18T10:59:15.917Z</time></trkpt><trkpt lat="39.533948753773004" lon="15.91570594643283"><ele>76.0</ele><time>2026-04-18T10:59:16.917Z</time></trkpt><trkpt lat="39.53383308590357" lon="15.915878898998386"><ele>76.0</ele><time>2026-04-18T10:59:17.917Z</time></trkpt><trkpt lat="39.5337241473806" lon="15.916058546007385"><ele>63.33333333333333</ele><time>2026-04-18T10:59:18.917Z</time></trkpt><trkpt lat="39.53361037422557" lon="15.916259763193178"><ele>50.666666666666664</ele><time>2026-04-18T10:59:19.917Z</time></trkpt><trkpt lat="39.53349634646473" lon="15.916464231167192"><ele>38.0</ele><time>2026-04-18T10:59:20.917Z</time></trkpt><trkpt lat="39.53338022741433" lon="15.91666194374332"><ele>34.666666666666664</ele><time>2026-04-18T10:59:21.917Z</time></trkpt><trkpt lat="39.53326365245262" lon="15.916867582633618"><ele>31.333333333333336</ele><time>2026-04-18T10:59:22.917Z</time></trkpt><trkpt lat="39.53314633097153" lon="15.917073698153683"><ele>28.0</ele><time>2026-04-18T10:59:23.917Z</time></trkpt><trkpt lat="39.53302777291011" lon="15.917283418484141"><ele>28.0</ele><time>2026-04-18T10:59:24.917Z</time></trkpt><trkpt lat="39.532909485862874" lon="15.917491803345321"><ele>28.0</ele><time>2026-04-18T10:59:25.917Z</time></trkpt><trkpt lat="39.53279042429861" lon="15.91770249186251"><ele>28.0</ele><time>2026-04-18T10:59:26.917Z</time></trkpt><trkpt lat="39.53267121747205" lon="15.917908997680689"><ele>31.666666666666668</ele><time>2026-04-18T10:59:27.917Z</time></trkpt><trkpt lat="39.53256024369706" lon="15.918109453371304"><ele>35.333333333333336</ele><time>2026-04-18T10:59:28.917Z</time></trkpt><trkpt lat="39.5324502836123" lon="15.91829374721769"><ele>39.0</ele><time>2026-04-18T10:59:29.917Z</time></trkpt><trkpt lat="39.53234197723192" lon="15.918484773633388"><ele>47.0</ele><time>2026-04-18T10:59:30.917Z</time></trkpt><trkpt lat="39.532231105305435" lon="15.91868149634032"><ele>55.0</ele><time>2026-04-18T10:59:31.917Z</time></trkpt><trkpt lat="39.532113767601004" lon="15.918893143793474"><ele>63.0</ele><time>2026-04-18T10:59:32.917Z</time></trkpt><trkpt lat="39.531998461834355" lon="15.919102418271383"><ele>66.33333333333333</ele><time>2026-04-18T10:59:33.917Z</time></trkpt><trkpt lat="39.531883338068646" lon="15.919305328920036"><ele>69.66666666666666</ele><time>2026-04-18T10:59:34.917Z</time></trkpt><trkpt lat="39.53176376620478" lon="15.919514392174055"><ele>73.0</ele><time>2026-04-18T10:59:35.917Z</time></trkpt><trkpt lat="39.53164673521396" lon="15.919723178713896"><ele>73.0</ele><time>2026-04-18T10:59:36.917Z</time></trkpt><trkpt lat="39.53152504273448" lon="15.919938748696365"><ele>73.0</ele><time>2026-04-18T10:59:37.916Z</time></trkpt><trkpt lat="39.53140639130574" lon="15.92014287352299"><ele>73.0</ele><time>2026-04-18T10:59:38.916Z</time></trkpt><trkpt lat="39.53129403358727" lon="15.9203409244346"><ele>68.66666666666666</ele><time>2026-04-18T10:59:39.916Z</time></trkpt><trkpt lat="39.53118057389819" lon="15.920536082579718"><ele>64.33333333333333</ele><time>2026-04-18T10:59:40.916Z</time></trkpt><trkpt lat="39.53106721039449" lon="15.92073211829923"><ele>60.0</ele><time>2026-04-18T10:59:41.916Z</time></trkpt><trkpt lat="39.53094984208453" lon="15.920933221019043"><ele>60.0</ele><time>2026-04-18T10:59:42.916Z</time></trkpt><trkpt lat="39.53083466560372" lon="15.92113328080222"><ele>60.0</ele><time>2026-04-18T10:59:43.916Z</time></trkpt><trkpt lat="39.53070620242325" lon="15.921360424923325"><ele>60.0</ele><time>2026-04-18T10:59:44.916Z</time></trkpt><trkpt lat="39.53060547287287" lon="15.921558897892282"><ele>62.66666666666667</ele><time>2026-04-18T10:59:45.916Z</time></trkpt><trkpt lat="39.530485986123914" lon="15.921822011341183"><ele>65.33333333333334</ele><time>2026-04-18T10:59:46.916Z</time></trkpt><trkpt lat="39.53037410770221" lon="15.92204605095831"><ele>68.0</ele><time>2026-04-18T10:59:47.916Z</time></trkpt><trkpt lat="39.53027955342082" lon="15.922274625059961"><ele>59.66666666666667</ele><time>2026-04-18T10:59:48.916Z</time></trkpt><trkpt lat="39.53018907928818" lon="15.922507234787991"><ele>51.333333333333336</ele><time>2026-04-18T10:59:49.916Z</time></trkpt><trkpt lat="39.53008831554683" lon="15.922732955621909"><ele>43.0</ele><time>2026-04-18T10:59:50.916Z</time></trkpt><trkpt lat="39.53000817259956" lon="15.922958925229716"><ele>43.0</ele><time>2026-04-18T10:59:51.916Z</time></trkpt><trkpt lat="39.529934899898215" lon="15.923175270696682"><ele>43.0</ele><time>2026-04-18T10:59:52.916Z</time></trkpt><trkpt lat="39.529865099755085" lon="15.923392955396436"><ele>43.0</ele><time>2026-04-18T10:59:53.916Z</time></trkpt><trkpt lat="39.52979578686708" lon="15.92361626676173"><ele>46.333333333333336</ele><time>2026-04-18T10:59:54.916Z</time></trkpt><trkpt lat="39.52972843215627" lon="15.923844936497641"><ele>49.66666666666667</ele><time>2026-04-18T10:59:55.916Z</time></trkpt><trkpt lat="39.52966030625749" lon="15.924079912876051"><ele>53.0</ele><time>2026-04-18T10:59:56.916Z</time></trkpt><trkpt lat="39.52960842803669" lon="15.924318600006151"><ele>43.0</ele><time>2026-04-18T10:59:57.916Z</time></trkpt><trkpt lat="39.529538839033044" lon="15.924547607623524"><ele>33.0</ele><time>2026-04-18T10:59:58.916Z</time></trkpt><trkpt lat="39.52947131703689" lon="15.924774225165281"><ele>23.0</ele><time>2026-04-18T10:59:59.916Z</time></trkpt><trkpt lat="39.5293990282536" lon="15.924995235837018"><ele>28.666666666666668</ele><time>2026-04-18T11:00:00.916Z</time></trkpt><trkpt lat="39.52929472739951" lon="15.925193812266171"><ele>34.333333333333336</ele><time>2026-04-18T11:00:01.916Z</time></trkpt><trkpt lat="39.52918998945641" lon="15.925404145884269"><ele>40.0</ele><time>2026-04-18T11:00:02.916Z</time></trkpt><trkpt lat="39.52908085220271" lon="15.925624323048272"><ele>40.0</ele><time>2026-04-18T11:00:03.916Z</time></trkpt><trkpt lat="39.52894893690447" lon="15.925818442815169"><ele>40.0</ele><time>2026-04-18T11:00:04.916Z</time></trkpt><trkpt lat="39.528805786373646" lon="15.92600365699389"><ele>40.0</ele><time>2026-04-18T11:00:05.916Z</time></trkpt><trkpt lat="39.52863768875429" lon="15.926158116956094"><ele>34.0</ele><time>2026-04-18T11:00:06.916Z</time></trkpt><trkpt lat="39.528477673398214" lon="15.926311837675838"><ele>28.0</ele><time>2026-04-18T11:00:07.916Z</time></trkpt><trkpt lat="39.52831952100507" lon="15.92645262828123"><ele>22.0</ele><time>2026-04-18T11:00:08.916Z</time></trkpt><trkpt lat="39.52816054945169" lon="15.926591945444859"><ele>19.666666666666664</ele><time>2026-04-18T11:00:09.916Z</time></trkpt><trkpt lat="39.527999996385134" lon="15.926732092219936"><ele>17.333333333333332</ele><time>2026-04-18T11:00:10.916Z</time></trkpt><trkpt lat="39.52785059900503" lon="15.926891686802099"><ele>15.0</ele><time>2026-04-18T11:00:11.916Z</time></trkpt><trkpt lat="39.52768923644609" lon="15.927029528198517"><ele>15.0</ele><time>2026-04-18T11:00:12.916Z</time></trkpt><trkpt lat="39.52752515561157" lon="15.927165451960487"><ele>15.0</ele><time>2026-04-18T11:00:13.916Z</time></trkpt><trkpt lat="39.527364052745" lon="15.927301893920875"><ele>15.0</ele><time>2026-04-18T11:00:14.916Z</time></trkpt><trkpt lat="39.52720447517647" lon="15.927442267980746"><ele>14.666666666666668</ele><time>2026-04-18T11:00:15.916Z</time></trkpt><trkpt lat="39.527046764300806" lon="15.92758415733421"><ele>14.333333333333334</ele><time>2026-04-18T11:00:16.916Z</time></trkpt><trkpt lat="39.52688612850672" lon="15.927728426993433"><ele>14.0</ele><time>2026-04-18T11:00:17.916Z</time></trkpt><trkpt lat="39.526722489049774" lon="15.927872557468035"><ele>14.0</ele><time>2026-04-18T11:00:18.916Z</time></trkpt><trkpt lat="39.52655600860372" lon="15.928012945427835"><ele>14.0</ele><time>2026-04-18T11:00:19.916Z</time></trkpt><trkpt lat="39.526389794954966" lon="15.928152934572237"><ele>14.0</ele><time>2026-04-18T11:00:20.916Z</time></trkpt><trkpt lat="39.526225316257886" lon="15.92829361277257"><ele>13.0</ele><time>2026-04-18T11:00:21.916Z</time></trkpt><trkpt lat="39.526065176369755" lon="15.928435650907542"><ele>12.0</ele><time>2026-04-18T11:00:22.916Z</time></trkpt><trkpt lat="39.525906639434865" lon="15.928575460812848"><ele>11.0</ele><time>2026-04-18T11:00:23.916Z</time></trkpt><trkpt lat="39.52574652849883" lon="15.928715580438443"><ele>11.0</ele><time>2026-04-18T11:00:24.916Z</time></trkpt><trkpt lat="39.525585951776634" lon="15.928857445050598"><ele>11.0</ele><time>2026-04-18T11:00:25.916Z</time></trkpt><trkpt lat="39.52542736644165" lon="15.928997616820604"><ele>11.0</ele><time>2026-04-18T11:00:26.916Z</time></trkpt><trkpt lat="39.52526674760318" lon="15.929137216489872"><ele>12.0</ele><time>2026-04-18T11:00:27.916Z</time></trkpt><trkpt lat="39.525111034280805" lon="15.92927375179178"><ele>13.0</ele><time>2026-04-18T11:00:28.916Z</time></trkpt><trkpt lat="39.52496257713592" lon="15.929403748280322"><ele>14.0</ele><time>2026-04-18T11:00:29.916Z</time></trkpt><trkpt lat="39.52481297872926" lon="15.929532737243086"><ele>14.0</ele><time>2026-04-18T11:00:30.916Z</time></trkpt><trkpt lat="39.52466289883612" lon="15.929664362573583"><ele>14.0</ele><time>2026-04-18T11:00:31.916Z</time></trkpt><trkpt lat="39.524506704047774" lon="15.929800110309765"><ele>14.0</ele><time>2026-04-18T11:00:32.916Z</time></trkpt><trkpt lat="39.52434868256637" lon="15.929938347048912"><ele>13.666666666666668</ele><time>2026-04-18T11:00:33.916Z</time></trkpt><trkpt lat="39.52418657484479" lon="15.930079460529734"><ele>13.333333333333332</ele><time>2026-04-18T11:00:34.916Z</time></trkpt><trkpt lat="39.52402385272698" lon="15.930222178439726"><ele>13.0</ele><time>2026-04-18T11:00:35.916Z</time></trkpt><trkpt lat="39.52385853007844" lon="15.930365272216637"><ele>12.0</ele><time>2026-04-18T11:00:36.916Z</time></trkpt><trkpt lat="39.52368527096028" lon="15.930508564936192"><ele>11.0</ele><time>2026-04-18T11:00:37.916Z</time></trkpt><trkpt lat="39.52350847951792" lon="15.930648113828976"><ele>10.0</ele><time>2026-04-18T11:00:38.917Z</time></trkpt><trkpt lat="39.52332101278788" lon="15.93076341579537"><ele>10.0</ele><time>2026-04-18T11:00:39.917Z</time></trkpt><trkpt lat="39.52313624385021" lon="15.930897930131097"><ele>10.0</ele><time>2026-04-18T11:00:40.917Z</time></trkpt><trkpt lat="39.52295176983807" lon="15.931031246304116"><ele>10.0</ele><time>2026-04-18T11:00:41.917Z</time></trkpt><trkpt lat="39.522776213937036" lon="15.931182454742597"><ele>10.666666666666668</ele><time>2026-04-18T11:00:42.917Z</time></trkpt><trkpt lat="39.52259021407819" lon="15.931313738347907"><ele>11.333333333333334</ele><time>2026-04-18T11:00:43.917Z</time></trkpt><trkpt lat="39.522394533352745" lon="15.93142276381453"><ele>12.0</ele><time>2026-04-18T11:00:44.917Z</time></trkpt><trkpt lat="39.52220720511115" lon="15.931525419202906"><ele>11.333333333333334</ele><time>2026-04-18T11:00:45.917Z</time></trkpt><trkpt lat="39.5220177862192" lon="15.931621389060357"><ele>10.666666666666668</ele><time>2026-04-18T11:00:46.917Z</time></trkpt><trkpt lat="39.521833648756164" lon="15.931733913991975"><ele>10.0</ele><time>2026-04-18T11:00:47.917Z</time></trkpt><trkpt lat="39.52164563418989" lon="15.931824442305548"><ele>10.0</ele><time>2026-04-18T11:00:48.917Z</time></trkpt><trkpt lat="39.52146005786035" lon="15.931916628028134"><ele>10.0</ele><time>2026-04-18T11:00:49.917Z</time></trkpt><trkpt lat="39.52127141994414" lon="15.932008365863702"><ele>10.0</ele><time>2026-04-18T11:00:50.917Z</time></trkpt><trkpt lat="39.5210793664629" lon="15.932102558532728"><ele>10.0</ele><time>2026-04-18T11:00:51.917Z</time></trkpt><trkpt lat="39.52088850118156" lon="15.932199591698463"><ele>10.0</ele><time>2026-04-18T11:00:52.917Z</time></trkpt><trkpt lat="39.52069123095553" lon="15.93229997389728"><ele>10.0</ele><time>2026-04-18T11:00:53.917Z</time></trkpt><trkpt lat="39.52049724624294" lon="15.93239812447708"><ele>10.666666666666668</ele><time>2026-04-18T11:00:54.917Z</time></trkpt><trkpt lat="39.52030571819692" lon="15.932494410398185"><ele>11.333333333333334</ele><time>2026-04-18T11:00:55.916Z</time></trkpt><trkpt lat="39.520107018921934" lon="15.932596264865047"><ele>12.0</ele><time>2026-04-18T11:00:56.916Z</time></trkpt><trkpt lat="39.519911814991744" lon="15.932702776833606"><ele>12.0</ele><time>2026-04-18T11:00:57.916Z</time></trkpt><trkpt lat="39.519719911060335" lon="15.932825945196697"><ele>12.0</ele><time>2026-04-18T11:00:58.916Z</time></trkpt><trkpt lat="39.51953936643655" lon="15.932960796389402"><ele>12.0</ele><time>2026-04-18T11:00:59.916Z</time></trkpt><trkpt lat="39.51937323038251" lon="15.933098586274806"><ele>12.0</ele><time>2026-04-18T11:01:00.916Z</time></trkpt><trkpt lat="39.519219742352576" lon="15.933232309603266"><ele>12.0</ele><time>2026-04-18T11:01:01.916Z</time></trkpt><trkpt lat="39.51906614059551" lon="15.933369861112597"><ele>12.0</ele><time>2026-04-18T11:01:02.916Z</time></trkpt><trkpt lat="39.518915405274946" lon="15.933505690528747"><ele>12.0</ele><time>2026-04-18T11:01:03.916Z</time></trkpt><trkpt lat="39.518760104590136" lon="15.933642338898013"><ele>12.0</ele><time>2026-04-18T11:01:04.916Z</time></trkpt><trkpt lat="39.51860154603241" lon="15.933779394833993"><ele>12.0</ele><time>2026-04-18T11:01:05.916Z</time></trkpt><trkpt lat="39.51844205616868" lon="15.933911732797352"><ele>12.0</ele><time>2026-04-18T11:01:06.916Z</time></trkpt><trkpt lat="39.51828281274351" lon="15.934047630007003"><ele>12.0</ele><time>2026-04-18T11:01:07.916Z</time></trkpt><trkpt lat="39.518121993797145" lon="15.934186698186972"><ele>12.0</ele><time>2026-04-18T11:01:08.916Z</time></trkpt><trkpt lat="39.517959397660654" lon="15.934329824936258"><ele>12.0</ele><time>2026-04-18T11:01:09.916Z</time></trkpt><trkpt lat="39.517797114088" lon="15.934480330493273"><ele>12.0</ele><time>2026-04-18T11:01:10.916Z</time></trkpt><trkpt lat="39.517641930769486" lon="15.934627405251948"><ele>12.0</ele><time>2026-04-18T11:01:11.916Z</time></trkpt><trkpt lat="39.51749560306739" lon="15.93477600665913"><ele>12.0</ele><time>2026-04-18T11:01:12.916Z</time></trkpt><trkpt lat="39.517357004854425" lon="15.934931623443056"><ele>12.0</ele><time>2026-04-18T11:01:13.916Z</time></trkpt><trkpt lat="39.51722151820903" lon="15.935099182351175"><ele>12.0</ele><time>2026-04-18T11:01:14.916Z</time></trkpt><trkpt lat="39.51708781307566" lon="15.935279772303325"><ele>11.333333333333334</ele><time>2026-04-18T11:01:15.916Z</time></trkpt><trkpt lat="39.51695432245385" lon="15.935463509462846"><ele>10.666666666666668</ele><time>2026-04-18T11:01:16.916Z</time></trkpt><trkpt lat="39.516824011818876" lon="15.935643748497654"><ele>10.0</ele><time>2026-04-18T11:01:17.916Z</time></trkpt><trkpt lat="39.51668884903009" lon="15.935830212412222"><ele>13.0</ele><time>2026-04-18T11:01:18.916Z</time></trkpt><trkpt lat="39.51655302750344" lon="15.936010967345949"><ele>16.0</ele><time>2026-04-18T11:01:19.916Z</time></trkpt><trkpt lat="39.516412230699416" lon="15.936194191376144"><ele>19.0</ele><time>2026-04-18T11:01:20.916Z</time></trkpt><trkpt lat="39.51627521985947" lon="15.93637807045549"><ele>19.0</ele><time>2026-04-18T11:01:21.916Z</time></trkpt><trkpt lat="39.51614188683741" lon="15.936561093274616"><ele>19.0</ele><time>2026-04-18T11:01:22.916Z</time></trkpt><trkpt lat="39.51600550348284" lon="15.936747188314897"><ele>19.0</ele><time>2026-04-18T11:01:23.916Z</time></trkpt><trkpt lat="39.51586988944243" lon="15.936929699320302"><ele>19.0</ele><time>2026-04-18T11:01:24.916Z</time></trkpt><trkpt lat="39.515735161376554" lon="15.937108950086083"><ele>19.0</ele><time>2026-04-18T11:01:25.916Z</time></trkpt><trkpt lat="39.515605273118034" lon="15.937287173901609"><ele>19.0</ele><time>2026-04-18T11:01:26.916Z</time></trkpt><trkpt lat="39.51548413612604" lon="15.937457831567555"><ele>17.333333333333332</ele><time>2026-04-18T11:01:27.916Z</time></trkpt><trkpt lat="39.5153741460844" lon="15.937623456448502"><ele>15.666666666666668</ele><time>2026-04-18T11:01:28.916Z</time></trkpt><trkpt lat="39.51527581192857" lon="15.937789731730552"><ele>14.0</ele><time>2026-04-18T11:01:29.916Z</time></trkpt><trkpt lat="39.51517998208642" lon="15.937967945057588"><ele>14.0</ele><time>2026-04-18T11:01:30.916Z</time></trkpt><trkpt lat="39.515088170946" lon="15.938155507955166"><ele>14.0</ele><time>2026-04-18T11:01:31.916Z</time></trkpt><trkpt lat="39.51499927760021" lon="15.938352110336687"><ele>14.0</ele><time>2026-04-18T11:01:32.916Z</time></trkpt><trkpt lat="39.51491347440669" lon="15.938555193065673"><ele>17.666666666666668</ele><time>2026-04-18T11:01:33.916Z</time></trkpt><trkpt lat="39.514827268012084" lon="15.938766766370872"><ele>21.333333333333336</ele><time>2026-04-18T11:01:34.916Z</time></trkpt><trkpt lat="39.514740773325954" lon="15.938976839934103"><ele>25.0</ele><time>2026-04-18T11:01:35.916Z</time></trkpt><trkpt lat="39.51465670669378" lon="15.93917840468902"><ele>21.333333333333336</ele><time>2026-04-18T11:01:36.916Z</time></trkpt><trkpt lat="39.51457228591511" lon="15.939372389636045"><ele>17.666666666666668</ele><time>2026-04-18T11:01:37.916Z</time></trkpt><trkpt lat="39.5144868660377" lon="15.939565954909218"><ele>14.0</ele><time>2026-04-18T11:01:38.916Z</time></trkpt><trkpt lat="39.51440111370675" lon="15.939763363833725"><ele>14.0</ele><time>2026-04-18T11:01:39.916Z</time></trkpt><trkpt lat="39.51431021410628" lon="15.9399546510704"><ele>14.0</ele><time>2026-04-18T11:01:40.916Z</time></trkpt><trkpt lat="39.514209959310115" lon="15.940132176709186"><ele>14.0</ele><time>2026-04-18T11:01:41.916Z</time></trkpt><trkpt lat="39.51409487902582" lon="15.940297903320271"><ele>12.333333333333334</ele><time>2026-04-18T11:01:42.916Z</time></trkpt><trkpt lat="39.51397608901656" lon="15.940446708677062"><ele>10.666666666666668</ele><time>2026-04-18T11:01:43.916Z</time></trkpt><trkpt lat="39.51385588240731" lon="15.940594331664187"><ele>9.0</ele><time>2026-04-18T11:01:44.916Z</time></trkpt><trkpt lat="39.51373324900291" lon="15.940740094020114"><ele>10.333333333333332</ele><time>2026-04-18T11:01:45.916Z</time></trkpt><trkpt lat="39.513612029586724" lon="15.940887618263927"><ele>11.666666666666666</ele><time>2026-04-18T11:01:46.916Z</time></trkpt><trkpt lat="39.513492739848715" lon="15.94103486749418"><ele>13.0</ele><time>2026-04-18T11:01:47.916Z</time></trkpt><trkpt lat="39.5133832492734" lon="15.941172184750313"><ele>13.0</ele><time>2026-04-18T11:01:48.916Z</time></trkpt><trkpt lat="39.51327651980519" lon="15.941307779916079"><ele>13.0</ele><time>2026-04-18T11:01:49.916Z</time></trkpt><trkpt lat="39.513164389521776" lon="15.941446475450947"><ele>13.0</ele><time>2026-04-18T11:01:50.916Z</time></trkpt><trkpt lat="39.51305284631488" lon="15.941584944377663"><ele>12.333333333333332</ele><time>2026-04-18T11:01:51.916Z</time></trkpt><trkpt lat="39.512939669712594" lon="15.941726768653117"><ele>11.666666666666666</ele><time>2026-04-18T11:01:52.916Z</time></trkpt><trkpt lat="39.51282516390808" lon="15.941869013913639"><ele>11.0</ele><time>2026-04-18T11:01:53.916Z</time></trkpt><trkpt lat="39.51271087078102" lon="15.942007416963232"><ele>11.0</ele><time>2026-04-18T11:01:54.916Z</time></trkpt><trkpt lat="39.512594269607845" lon="15.942149547092006"><ele>11.0</ele><time>2026-04-18T11:01:55.916Z</time></trkpt><trkpt lat="39.51247693492378" lon="15.942289490490658"><ele>11.0</ele><time>2026-04-18T11:01:56.916Z</time></trkpt><trkpt lat="39.512362754208105" lon="15.94242799970595"><ele>11.666666666666666</ele><time>2026-04-18T11:01:57.916Z</time></trkpt><trkpt lat="39.51224504215987" lon="15.942574999112605"><ele>12.333333333333332</ele><time>2026-04-18T11:01:58.916Z</time></trkpt><trkpt lat="39.51213036139128" lon="15.94271822988584"><ele>13.0</ele><time>2026-04-18T11:01:59.916Z</time></trkpt><trkpt lat="39.51201689854678" lon="15.942859184936086"><ele>13.0</ele><time>2026-04-18T11:02:00.916Z</time></trkpt><trkpt lat="39.51189860522215" lon="15.943007659378573"><ele>13.0</ele><time>2026-04-18T11:02:01.916Z</time></trkpt><trkpt lat="39.511777275486146" lon="15.943150039627383"><ele>13.0</ele><time>2026-04-18T11:02:02.916Z</time></trkpt><trkpt lat="39.511660436827505" lon="15.94329415733045"><ele>16.666666666666664</ele><time>2026-04-18T11:02:03.916Z</time></trkpt><trkpt lat="39.51154189564316" lon="15.943442627366867"><ele>20.333333333333332</ele><time>2026-04-18T11:02:04.916Z</time></trkpt><trkpt lat="39.51141845593081" lon="15.943597462586972"><ele>24.0</ele><time>2026-04-18T11:02:05.916Z</time></trkpt><trkpt lat="39.51129183672791" lon="15.943753316813067"><ele>19.666666666666668</ele><time>2026-04-18T11:02:06.916Z</time></trkpt><trkpt lat="39.511159011360014" lon="15.943909248334998"><ele>15.333333333333332</ele><time>2026-04-18T11:02:07.916Z</time></trkpt><trkpt lat="39.5110144662595" lon="15.944061359613116"><ele>11.0</ele><time>2026-04-18T11:02:08.916Z</time></trkpt><trkpt lat="39.51085878643297" lon="15.944192246180933"><ele>15.666666666666668</ele><time>2026-04-18T11:02:09.916Z</time></trkpt><trkpt lat="39.51069877873437" lon="15.944313397273048"><ele>20.333333333333336</ele><time>2026-04-18T11:02:10.916Z</time></trkpt><trkpt lat="39.51053373019674" lon="15.944429990383728"><ele>25.0</ele><time>2026-04-18T11:02:11.916Z</time></trkpt><trkpt lat="39.5103612928045" lon="15.94453721048426"><ele>25.0</ele><time>2026-04-18T11:02:12.916Z</time></trkpt><trkpt lat="39.510179250784724" lon="15.94462782794629"><ele>25.0</ele><time>2026-04-18T11:02:13.916Z</time></trkpt><trkpt lat="39.50999085140421" lon="15.944704040779136"><ele>25.0</ele><time>2026-04-18T11:02:14.916Z</time></trkpt><trkpt lat="39.509800423036026" lon="15.944766208443882"><ele>25.0</ele><time>2026-04-18T11:02:15.916Z</time></trkpt><trkpt lat="39.5096186523906" lon="15.944813230758083"><ele>25.0</ele><time>2026-04-18T11:02:16.916Z</time></trkpt><trkpt lat="39.50943228689466" lon="15.94485258801961"><ele>25.0</ele><time>2026-04-18T11:02:17.916Z</time></trkpt><trkpt lat="39.50924566099919" lon="15.944881722035246"><ele>21.0</ele><time>2026-04-18T11:02:18.916Z</time></trkpt><trkpt lat="39.50906073696813" lon="15.944905097683527"><ele>17.0</ele><time>2026-04-18T11:02:19.916Z</time></trkpt><trkpt lat="39.50888034212166" lon="15.944927358542744"><ele>13.0</ele><time>2026-04-18T11:02:20.916Z</time></trkpt><trkpt lat="39.50870103254677" lon="15.944949697334422"><ele>12.333333333333332</ele><time>2026-04-18T11:02:21.916Z</time></trkpt><trkpt lat="39.50851956933743" lon="15.94497348105138"><ele>11.666666666666666</ele><time>2026-04-18T11:02:22.916Z</time></trkpt><trkpt lat="39.50833455507355" lon="15.9449979623485"><ele>11.0</ele><time>2026-04-18T11:02:23.916Z</time></trkpt><trkpt lat="39.5081487024063" lon="15.945019184395475"><ele>11.0</ele><time>2026-04-18T11:02:24.916Z</time></trkpt><trkpt lat="39.50796037755282" lon="15.945039577193358"><ele>11.0</ele><time>2026-04-18T11:02:25.916Z</time></trkpt><trkpt lat="39.507770985875595" lon="15.945063579194827"><ele>11.0</ele><time>2026-04-18T11:02:26.916Z</time></trkpt><trkpt lat="39.50758057061346" lon="15.945088169224922"><ele>12.0</ele><time>2026-04-18T11:02:27.916Z</time></trkpt><trkpt lat="39.507390599117315" lon="15.945112224656866"><ele>13.0</ele><time>2026-04-18T11:02:28.916Z</time></trkpt><trkpt lat="39.50720052078068" lon="15.945136794843426"><ele>14.0</ele><time>2026-04-18T11:02:29.916Z</time></trkpt><trkpt lat="39.50701098278174" lon="15.945159935599776"><ele>14.0</ele><time>2026-04-18T11:02:30.916Z</time></trkpt><trkpt lat="39.50681944040459" lon="15.945184735056609"><ele>14.0</ele><time>2026-04-18T11:02:31.916Z</time></trkpt><trkpt lat="39.5066256340819" lon="15.94521331290767"><ele>14.0</ele><time>2026-04-18T11:02:32.916Z</time></trkpt><trkpt lat="39.50643772586782" lon="15.94524275048513"><ele>14.0</ele><time>2026-04-18T11:02:33.916Z</time></trkpt><trkpt lat="39.50625154172174" lon="15.9452763608811"><ele>14.0</ele><time>2026-04-18T11:02:34.915Z</time></trkpt><trkpt lat="39.50606866657128" lon="15.945318111827321"><ele>14.0</ele><time>2026-04-18T11:02:35.915Z</time></trkpt><trkpt lat="39.505888033989756" lon="15.94537270464576"><ele>12.666666666666668</ele><time>2026-04-18T11:02:36.915Z</time></trkpt><trkpt lat="39.50571335907241" lon="15.945439476650792"><ele>11.333333333333334</ele><time>2026-04-18T11:02:37.915Z</time></trkpt><trkpt lat="39.50553677575793" lon="15.94552122911438"><ele>10.0</ele><time>2026-04-18T11:02:38.915Z</time></trkpt><trkpt lat="39.505362755177046" lon="15.945607934705261"><ele>9.666666666666668</ele><time>2026-04-18T11:02:39.915Z</time></trkpt><trkpt lat="39.50518225903708" lon="15.945710610335887"><ele>9.333333333333334</ele><time>2026-04-18T11:02:40.915Z</time></trkpt><trkpt lat="39.505005401159934" lon="15.945818487867706"><ele>9.0</ele><time>2026-04-18T11:02:41.915Z</time></trkpt><trkpt lat="39.504831342105064" lon="15.945927760731873"><ele>10.0</ele><time>2026-04-18T11:02:42.915Z</time></trkpt><trkpt lat="39.5046569896545" lon="15.946042917078538"><ele>11.0</ele><time>2026-04-18T11:02:43.915Z</time></trkpt><trkpt lat="39.50448356790312" lon="15.946160973193276"><ele>12.0</ele><time>2026-04-18T11:02:44.916Z</time></trkpt><trkpt lat="39.504311111230855" lon="15.94628165906211"><ele>12.333333333333332</ele><time>2026-04-18T11:02:45.916Z</time></trkpt><trkpt lat="39.50413737599413" lon="15.946403564300361"><ele>12.666666666666666</ele><time>2026-04-18T11:02:46.916Z</time></trkpt><trkpt lat="39.50397044193065" lon="15.946520375263086"><ele>13.0</ele><time>2026-04-18T11:02:47.916Z</time></trkpt><trkpt lat="39.503806366031775" lon="15.946631100065778"><ele>13.333333333333332</ele><time>2026-04-18T11:02:48.916Z</time></trkpt><trkpt lat="39.503642487959866" lon="15.94673983558699"><ele>13.666666666666668</ele><time>2026-04-18T11:02:49.916Z</time></trkpt><trkpt lat="39.50347722070232" lon="15.946851921243018"><ele>14.0</ele><time>2026-04-18T11:02:50.916Z</time></trkpt><trkpt lat="39.50331303915662" lon="15.946965691261513"><ele>14.0</ele><time>2026-04-18T11:02:51.916Z</time></trkpt><trkpt lat="39.503148285436545" lon="15.947080155086324"><ele>14.0</ele><time>2026-04-18T11:02:52.916Z</time></trkpt><trkpt lat="39.50298301022535" lon="15.947194311820594"><ele>14.0</ele><time>2026-04-18T11:02:53.916Z</time></trkpt><trkpt lat="39.50281566600369" lon="15.947307740101612"><ele>13.666666666666668</ele><time>2026-04-18T11:02:54.916Z</time></trkpt><trkpt lat="39.50265007653298" lon="15.947417096311792"><ele>13.333333333333332</ele><time>2026-04-18T11:02:55.916Z</time></trkpt><trkpt lat="39.502486213992874" lon="15.947521934335741"><ele>13.0</ele><time>2026-04-18T11:02:56.916Z</time></trkpt><trkpt lat="39.502320611209974" lon="15.94762660569076"><ele>14.0</ele><time>2026-04-18T11:02:57.916Z</time></trkpt><trkpt lat="39.5021515678207" lon="15.94773134762669"><ele>15.0</ele><time>2026-04-18T11:02:58.916Z</time></trkpt><trkpt lat="39.50198162654565" lon="15.947835268085951"><ele>16.0</ele><time>2026-04-18T11:02:59.916Z</time></trkpt><trkpt lat="39.50181218728532" lon="15.947940062385474"><ele>16.0</ele><time>2026-04-18T11:03:00.916Z</time></trkpt><trkpt lat="39.5016418993716" lon="15.948047191050469"><ele>16.0</ele><time>2026-04-18T11:03:01.916Z</time></trkpt><trkpt lat="39.50146914648472" lon="15.948155958821895"><ele>16.0</ele><time>2026-04-18T11:03:02.916Z</time></trkpt><trkpt lat="39.501298158721035" lon="15.948264389669353"><ele>13.666666666666666</ele><time>2026-04-18T11:03:03.916Z</time></trkpt><trkpt lat="39.50112990528626" lon="15.94836980442162"><ele>11.333333333333332</ele><time>2026-04-18T11:03:04.916Z</time></trkpt><trkpt lat="39.50095984299135" lon="15.948476326465817"><ele>9.0</ele><time>2026-04-18T11:03:05.916Z</time></trkpt><trkpt lat="39.500789773372155" lon="15.948582385313955"><ele>10.333333333333332</ele><time>2026-04-18T11:03:06.916Z</time></trkpt><trkpt lat="39.500617667287464" lon="15.948689067175163"><ele>11.666666666666666</ele><time>2026-04-18T11:03:07.916Z</time></trkpt><trkpt lat="39.50045004377477" lon="15.948792061013567"><ele>13.0</ele><time>2026-04-18T11:03:08.916Z</time></trkpt><trkpt lat="39.50028303684381" lon="15.948896033013199"><ele>13.0</ele><time>2026-04-18T11:03:09.916Z</time></trkpt><trkpt lat="39.50012618126607" lon="15.948994096335435"><ele>13.0</ele><time>2026-04-18T11:03:10.916Z</time></trkpt><trkpt lat="39.49997226570666" lon="15.94908729229114"><ele>13.0</ele><time>2026-04-18T11:03:11.916Z</time></trkpt><trkpt lat="39.49982008551227" lon="15.949183024375381"><ele>12.333333333333332</ele><time>2026-04-18T11:03:12.916Z</time></trkpt><trkpt lat="39.49964988096026" lon="15.949281147440805"><ele>11.666666666666666</ele><time>2026-04-18T11:03:13.916Z</time></trkpt><trkpt lat="39.49948665534596" lon="15.949378504775932"><ele>11.0</ele><time>2026-04-18T11:03:14.916Z</time></trkpt><trkpt lat="39.499327006594285" lon="15.949480167750446"><ele>11.0</ele><time>2026-04-18T11:03:15.916Z</time></trkpt><trkpt lat="39.49916174099913" lon="15.949584121320976"><ele>11.0</ele><time>2026-04-18T11:03:16.916Z</time></trkpt><trkpt lat="39.49899815299962" lon="15.949684571204525"><ele>11.0</ele><time>2026-04-18T11:03:17.916Z</time></trkpt><trkpt lat="39.498835243482084" lon="15.949787324041417"><ele>11.0</ele><time>2026-04-18T11:03:18.916Z</time></trkpt><trkpt lat="39.49867075354246" lon="15.949893762595503"><ele>11.0</ele><time>2026-04-18T11:03:19.916Z</time></trkpt><trkpt lat="39.49851179264953" lon="15.949996167692138"><ele>11.0</ele><time>2026-04-18T11:03:20.916Z</time></trkpt><trkpt lat="39.49836311925958" lon="15.950089805961156"><ele>12.25</ele><time>2026-04-18T11:03:21.916Z</time></trkpt><trkpt lat="39.49822361814223" lon="15.950174290246169"><ele>13.5</ele><time>2026-04-18T11:03:22.916Z</time></trkpt><trkpt lat="39.498098206079696" lon="15.950253508193587"><ele>14.75</ele><time>2026-04-18T11:03:23.916Z</time></trkpt><trkpt lat="39.49798193071525" lon="15.950331967482313"><ele>16.0</ele><time>2026-04-18T11:03:24.916Z</time></trkpt><trkpt lat="39.49786758447289" lon="15.950404206487933"><ele>16.0</ele><time>2026-04-18T11:03:25.916Z</time></trkpt><trkpt lat="39.49776168737949" lon="15.950465640895807"><ele>16.0</ele><time>2026-04-18T11:03:26.916Z</time></trkpt><trkpt lat="39.49765726558519" lon="15.950527058640825"><ele>16.0</ele><time>2026-04-18T11:03:27.916Z</time></trkpt><trkpt lat="39.49754550904817" lon="15.950589140953157"><ele>16.0</ele><time>2026-04-18T11:03:28.916Z</time></trkpt><trkpt lat="39.49743645611696" lon="15.950655158027892"><ele>16.0</ele><time>2026-04-18T11:03:29.916Z</time></trkpt><trkpt lat="39.49734046581818" lon="15.950715258104022"><ele>16.0</ele><time>2026-04-18T11:03:30.916Z</time></trkpt><trkpt lat="39.497254875031956" lon="15.950774502229416"><ele>16.0</ele><time>2026-04-18T11:03:31.916Z</time></trkpt><trkpt lat="39.49716406613461" lon="15.950835411066322"><ele>16.0</ele><time>2026-04-18T11:03:32.916Z</time></trkpt><trkpt lat="39.497064315653354" lon="15.950899175818014"><ele>16.0</ele><time>2026-04-18T11:03:33.916Z</time></trkpt><trkpt lat="39.49695575790114" lon="15.950969759142207"><ele>16.25</ele><time>2026-04-18T11:03:34.916Z</time></trkpt><trkpt lat="39.496840778414345" lon="15.951043174533533"><ele>16.5</ele><time>2026-04-18T11:03:35.916Z</time></trkpt><trkpt lat="39.49671644350902" lon="15.951117429441489"><ele>16.75</ele><time>2026-04-18T11:03:36.916Z</time></trkpt><trkpt lat="39.496594518072975" lon="15.951197209457515"><ele>17.0</ele><time>2026-04-18T11:03:37.916Z</time></trkpt><trkpt lat="39.49645937554722" lon="15.951280014191127"><ele>17.0</ele><time>2026-04-18T11:03:38.916Z</time></trkpt><trkpt lat="39.49631827580105" lon="15.951362390181789"><ele>17.0</ele><time>2026-04-18T11:03:39.916Z</time></trkpt><trkpt lat="39.49618727663232" lon="15.951450715649216"><ele>17.0</ele><time>2026-04-18T11:03:40.916Z</time></trkpt><trkpt lat="39.49605298790408" lon="15.951532515584653"><ele>16.0</ele><time>2026-04-18T11:03:41.916Z</time></trkpt><trkpt lat="39.495915161061475" lon="15.951614589693932"><ele>15.0</ele><time>2026-04-18T11:03:42.916Z</time></trkpt><trkpt lat="39.49577093300795" lon="15.95169707423391"><ele>14.0</ele><time>2026-04-18T11:03:43.916Z</time></trkpt><trkpt lat="39.49561890950439" lon="15.951779360752257"><ele>22.0</ele><time>2026-04-18T11:03:44.916Z</time></trkpt><trkpt lat="39.49546046466282" lon="15.951860828089723"><ele>30.0</ele><time>2026-04-18T11:03:45.916Z</time></trkpt><trkpt lat="39.49529209008553" lon="15.951939709859003"><ele>38.0</ele><time>2026-04-18T11:03:46.916Z</time></trkpt><trkpt lat="39.49511658913582" lon="15.952016559637777"><ele>38.0</ele><time>2026-04-18T11:03:47.916Z</time></trkpt><trkpt lat="39.49493612786872" lon="15.952091452868334"><ele>38.0</ele><time>2026-04-18T11:03:48.916Z</time></trkpt><trkpt lat="39.4947527532381" lon="15.952168772232154"><ele>38.0</ele><time>2026-04-18T11:03:49.916Z</time></trkpt><trkpt lat="39.494576484893344" lon="15.952244538485623"><ele>33.0</ele><time>2026-04-18T11:03:50.916Z</time></trkpt><trkpt lat="39.49439633096663" lon="15.95232579738192"><ele>28.0</ele><time>2026-04-18T11:03:51.916Z</time></trkpt><trkpt lat="39.494210598330575" lon="15.952408148736302"><ele>23.0</ele><time>2026-04-18T11:03:52.916Z</time></trkpt><trkpt lat="39.49402940593635" lon="15.952491857990733"><ele>30.666666666666668</ele><time>2026-04-18T11:03:53.916Z</time></trkpt><trkpt lat="39.493859853875605" lon="15.95256476156318"><ele>38.333333333333336</ele><time>2026-04-18T11:03:54.916Z</time></trkpt><trkpt lat="39.49369590014336" lon="15.95263311735906"><ele>46.0</ele><time>2026-04-18T11:03:55.916Z</time></trkpt><trkpt lat="39.49353084822538" lon="15.952704113883149"><ele>46.0</ele><time>2026-04-18T11:03:56.916Z</time></trkpt><trkpt lat="39.4933558265608" lon="15.952781896084712"><ele>46.0</ele><time>2026-04-18T11:03:57.916Z</time></trkpt><trkpt lat="39.49318388420359" lon="15.952858656311427"><ele>46.0</ele><time>2026-04-18T11:03:58.916Z</time></trkpt><trkpt lat="39.49300860331428" lon="15.952941506224796"><ele>40.0</ele><time>2026-04-18T11:03:59.916Z</time></trkpt><trkpt lat="39.492842841828896" lon="15.953016019285343"><ele>34.0</ele><time>2026-04-18T11:04:00.916Z</time></trkpt><trkpt lat="39.49268552664357" lon="15.9530817420061"><ele>28.0</ele><time>2026-04-18T11:04:01.916Z</time></trkpt><trkpt lat="39.49252151761807" lon="15.953152021589867"><ele>28.0</ele><time>2026-04-18T11:04:02.915Z</time></trkpt><trkpt lat="39.49236286678323" lon="15.95322800937456"><ele>28.0</ele><time>2026-04-18T11:04:03.915Z</time></trkpt><trkpt lat="39.492212924477236" lon="15.95330706547564"><ele>28.0</ele><time>2026-04-18T11:04:04.915Z</time></trkpt><trkpt lat="39.49207117663088" lon="15.95339350806315"><ele>33.0</ele><time>2026-04-18T11:04:05.915Z</time></trkpt><trkpt lat="39.49192547695777" lon="15.953483202910524"><ele>38.0</ele><time>2026-04-18T11:04:06.915Z</time></trkpt><trkpt lat="39.49177610274169" lon="15.953568199433363"><ele>43.0</ele><time>2026-04-18T11:04:07.915Z</time></trkpt><trkpt lat="39.49162933946683" lon="15.953643705982872"><ele>43.0</ele><time>2026-04-18T11:04:08.915Z</time></trkpt><trkpt lat="39.49149116625446" lon="15.953705060034585"><ele>43.0</ele><time>2026-04-18T11:04:09.915Z</time></trkpt><trkpt lat="39.49135300965464" lon="15.953762240611983"><ele>43.0</ele><time>2026-04-18T11:04:10.915Z</time></trkpt><trkpt lat="39.4912090946197" lon="15.953819854837105"><ele>43.0</ele><time>2026-04-18T11:04:11.915Z</time></trkpt><trkpt lat="39.49106652763448" lon="15.953878425248993"><ele>39.333333333333336</ele><time>2026-04-18T11:04:12.915Z</time></trkpt><trkpt lat="39.4909214910758" lon="15.953937343274848"><ele>35.666666666666664</ele><time>2026-04-18T11:04:13.915Z</time></trkpt><trkpt lat="39.49077691333827" lon="15.953998503864145"><ele>32.0</ele><time>2026-04-18T11:04:14.915Z</time></trkpt><trkpt lat="39.490626792428614" lon="15.954063652444269"><ele>32.0</ele><time>2026-04-18T11:04:15.915Z</time></trkpt><trkpt lat="39.49047771481941" lon="15.954127812593855"><ele>32.0</ele><time>2026-04-18T11:04:16.915Z</time></trkpt><trkpt lat="39.490339657780105" lon="15.954188659486027"><ele>32.0</ele><time>2026-04-18T11:04:17.915Z</time></trkpt><trkpt lat="39.49020922277578" lon="15.954245114670186"><ele>32.0</ele><time>2026-04-18T11:04:18.915Z</time></trkpt><trkpt lat="39.49008270495391" lon="15.954297606618939"><ele>34.25</ele><time>2026-04-18T11:04:19.915Z</time></trkpt><trkpt lat="39.489954085692666" lon="15.954348609724295"><ele>36.5</ele><time>2026-04-18T11:04:20.915Z</time></trkpt><trkpt lat="39.489817583398015" lon="15.95440573606664"><ele>38.75</ele><time>2026-04-18T11:04:21.915Z</time></trkpt><trkpt lat="39.48967592716921" lon="15.954462298986476"><ele>41.0</ele><time>2026-04-18T11:04:22.915Z</time></trkpt><trkpt lat="39.48953548061746" lon="15.95452105071243"><ele>41.0</ele><time>2026-04-18T11:04:23.915Z</time></trkpt><trkpt lat="39.48940284255481" lon="15.954577910377441"><ele>41.0</ele><time>2026-04-18T11:04:24.915Z</time></trkpt><trkpt lat="39.48926666030605" lon="15.954634871270011"><ele>41.0</ele><time>2026-04-18T11:04:25.915Z</time></trkpt><trkpt lat="39.48912922933776" lon="15.95469020784084"><ele>41.0</ele><time>2026-04-18T11:04:26.915Z</time></trkpt><trkpt lat="39.48898686608733" lon="15.954740133236237"><ele>41.0</ele><time>2026-04-18T11:04:27.915Z</time></trkpt><trkpt lat="39.48884145895607" lon="15.954783129982149"><ele>41.0</ele><time>2026-04-18T11:04:28.915Z</time></trkpt><trkpt lat="39.48869551292829" lon="15.95482910520433"><ele>41.0</ele><time>2026-04-18T11:04:29.915Z</time></trkpt><trkpt lat="39.488552753441105" lon="15.954881071676173"><ele>41.0</ele><time>2026-04-18T11:04:30.915Z</time></trkpt><trkpt lat="39.488406599659065" lon="15.954936362569068"><ele>35.666666666666664</ele><time>2026-04-18T11:04:31.915Z</time></trkpt><trkpt lat="39.48826068694435" lon="15.954996457478565"><ele>30.333333333333336</ele><time>2026-04-18T11:04:32.915Z</time></trkpt><trkpt lat="39.488114624255076" lon="15.955065806838435"><ele>25.0</ele><time>2026-04-18T11:04:33.915Z</time></trkpt><trkpt lat="39.48797226294276" lon="15.955145162348469"><ele>27.0</ele><time>2026-04-18T11:04:34.915Z</time></trkpt><trkpt lat="39.487834049890616" lon="15.95523781809381"><ele>29.0</ele><time>2026-04-18T11:04:35.915Z</time></trkpt><trkpt lat="39.48770591271956" lon="15.9553421036348"><ele>31.0</ele><time>2026-04-18T11:04:36.915Z</time></trkpt><trkpt lat="39.487584766158555" lon="15.955452255672204"><ele>31.0</ele><time>2026-04-18T11:04:37.915Z</time></trkpt><trkpt lat="39.487465495630005" lon="15.95557767142595"><ele>31.0</ele><time>2026-04-18T11:04:38.915Z</time></trkpt><trkpt lat="39.4873488540285" lon="15.955707619010159"><ele>31.0</ele><time>2026-04-18T11:04:39.915Z</time></trkpt><trkpt lat="39.48723530304767" lon="15.955848546071158"><ele>29.666666666666668</ele><time>2026-04-18T11:04:40.915Z</time></trkpt><trkpt lat="39.48711777754691" lon="15.95598738532718"><ele>28.333333333333336</ele><time>2026-04-18T11:04:41.915Z</time></trkpt><trkpt lat="39.48699844759093" lon="15.956123727773537"><ele>27.0</ele><time>2026-04-18T11:04:42.915Z</time></trkpt><trkpt lat="39.486871322457645" lon="15.95626487981557"><ele>27.0</ele><time>2026-04-18T11:04:43.915Z</time></trkpt><trkpt lat="39.486747672720156" lon="15.956403939468363"><ele>27.0</ele><time>2026-04-18T11:04:44.915Z</time></trkpt><trkpt lat="39.48662105837944" lon="15.956529351532813"><ele>27.0</ele><time>2026-04-18T11:04:45.915Z</time></trkpt><trkpt lat="39.486496644570394" lon="15.956651623820788"><ele>25.0</ele><time>2026-04-18T11:04:46.915Z</time></trkpt><trkpt lat="39.48636479555021" lon="15.956768682591965"><ele>23.0</ele><time>2026-04-18T11:04:47.915Z</time></trkpt><trkpt lat="39.4862252103102" lon="15.956883948558497"><ele>21.0</ele><time>2026-04-18T11:04:48.915Z</time></trkpt><trkpt lat="39.486089074417656" lon="15.95698773175972"><ele>21.0</ele><time>2026-04-18T11:04:49.915Z</time></trkpt><trkpt lat="39.48595608784559" lon="15.957075528167238"><ele>21.0</ele><time>2026-04-18T11:04:50.916Z</time></trkpt><trkpt lat="39.48582651048541" lon="15.957152695457623"><ele>21.0</ele><time>2026-04-18T11:04:51.916Z</time></trkpt><trkpt lat="39.48569101800907" lon="15.957228686365417"><ele>21.0</ele><time>2026-04-18T11:04:52.916Z</time></trkpt><trkpt lat="39.48555669212047" lon="15.957302831187038"><ele>20.0</ele><time>2026-04-18T11:04:53.916Z</time></trkpt><trkpt lat="39.485416087978834" lon="15.95737676114108"><ele>19.0</ele><time>2026-04-18T11:04:54.916Z</time></trkpt><trkpt lat="39.48528126715315" lon="15.957445811716022"><ele>18.0</ele><time>2026-04-18T11:04:55.916Z</time></trkpt><trkpt lat="39.4851519196783" lon="15.957509723029332"><ele>17.0</ele><time>2026-04-18T11:04:56.916Z</time></trkpt><trkpt lat="39.4850224220179" lon="15.957570035575925"><ele>17.0</ele><time>2026-04-18T11:04:57.916Z</time></trkpt><trkpt lat="39.48489793063777" lon="15.957630377083401"><ele>17.0</ele><time>2026-04-18T11:04:58.916Z</time></trkpt><trkpt lat="39.4847751508007" lon="15.957693318573018"><ele>17.0</ele><time>2026-04-18T11:04:59.916Z</time></trkpt><trkpt lat="39.48465057132992" lon="15.957761737129537"><ele>17.0</ele><time>2026-04-18T11:05:00.916Z</time></trkpt><trkpt lat="39.48451895897655" lon="15.957834175515968"><ele>15.75</ele><time>2026-04-18T11:05:01.916Z</time></trkpt><trkpt lat="39.484393244499095" lon="15.95790465184522"><ele>14.5</ele><time>2026-04-18T11:05:02.916Z</time></trkpt><trkpt lat="39.48427576709811" lon="15.957972504373343"><ele>13.25</ele><time>2026-04-18T11:05:03.916Z</time></trkpt><trkpt lat="39.48415433696682" lon="15.95804809317315"><ele>12.0</ele><time>2026-04-18T11:05:04.916Z</time></trkpt><trkpt lat="39.48403386342014" lon="15.958127169380981"><ele>12.0</ele><time>2026-04-18T11:05:05.916Z</time></trkpt><trkpt lat="39.483914080611655" lon="15.958212399607314"><ele>12.0</ele><time>2026-04-18T11:05:06.916Z</time></trkpt><trkpt lat="39.48379367619931" lon="15.958298896230772"><ele>12.0</ele><time>2026-04-18T11:05:07.916Z</time></trkpt><trkpt lat="39.483672374419605" lon="15.958383148808691"><ele>12.0</ele><time>2026-04-18T11:05:08.916Z</time></trkpt><trkpt lat="39.483559250564745" lon="15.958459053378853"><ele>13.5</ele><time>2026-04-18T11:05:09.916Z</time></trkpt><trkpt lat="39.48344903783196" lon="15.958533667891128"><ele>15.0</ele><time>2026-04-18T11:05:10.916Z</time></trkpt><trkpt lat="39.483334769212846" lon="15.95861128211415"><ele>16.5</ele><time>2026-04-18T11:05:11.916Z</time></trkpt><trkpt lat="39.48321797218793" lon="15.958692897066811"><ele>18.0</ele><time>2026-04-18T11:05:12.916Z</time></trkpt><trkpt lat="39.48310137114485" lon="15.958777370760922"><ele>18.0</ele><time>2026-04-18T11:05:13.916Z</time></trkpt><trkpt lat="39.482992034032" lon="15.958856118120842"><ele>18.0</ele><time>2026-04-18T11:05:14.916Z</time></trkpt><trkpt lat="39.48288956925648" lon="15.958928504492997"><ele>18.0</ele><time>2026-04-18T11:05:15.916Z</time></trkpt><trkpt lat="39.48279594695006" lon="15.958990888767241"><ele>18.0</ele><time>2026-04-18T11:05:16.916Z</time></trkpt><trkpt lat="39.48271178427929" lon="15.95904696515454"><ele>18.0</ele><time>2026-04-18T11:05:17.916Z</time></trkpt><trkpt lat="39.48262957334847" lon="15.95910480810786"><ele>17.833333333333332</ele><time>2026-04-18T11:05:18.916Z</time></trkpt><trkpt lat="39.48254836669427" lon="15.959161637337926"><ele>17.666666666666668</ele><time>2026-04-18T11:05:19.916Z</time></trkpt><trkpt lat="39.482468542794024" lon="15.959219048469242"><ele>17.5</ele><time>2026-04-18T11:05:20.916Z</time></trkpt><trkpt lat="39.48239298460301" lon="15.959271820982234"><ele>17.333333333333336</ele><time>2026-04-18T11:05:21.916Z</time></trkpt><trkpt lat="39.48231428642019" lon="15.959329166790866"><ele>17.166666666666668</ele><time>2026-04-18T11:05:22.916Z</time></trkpt><trkpt lat="39.4822476526902" lon="15.959372782488645"><ele>17.0</ele><time>2026-04-18T11:05:23.916Z</time></trkpt><trkpt lat="39.482186050986286" lon="15.959409764159414"><ele>18.833333333333336</ele><time>2026-04-18T11:05:24.916Z</time></trkpt><trkpt lat="39.48210566686227" lon="15.959462468527107"><ele>20.666666666666668</ele><time>2026-04-18T11:05:26.916Z</time></trkpt><trkpt lat="39.48204931405168" lon="15.959500857910026"><ele>22.5</ele><time>2026-04-18T11:05:29.916Z</time></trkpt><trkpt lat="39.481972580139974" lon="15.959568597572053"><ele>24.333333333333336</ele><time>2026-04-18T11:05:32.915Z</time></trkpt><trkpt lat="39.48190160633066" lon="15.959621629523813"><ele>26.166666666666668</ele><time>2026-04-18T11:05:34.915Z</time></trkpt><trkpt lat="39.48180645390328" lon="15.959686554965653"><ele>28.0</ele><time>2026-04-18T11:05:36.915Z</time></trkpt><trkpt lat="39.48169792722111" lon="15.959763885529005"><ele>28.000000000000004</ele><time>2026-04-18T11:05:38.915Z</time></trkpt><trkpt lat="39.4816419105091" lon="15.95980379359084"><ele>28.0</ele><time>2026-04-18T11:05:39.915Z</time></trkpt><trkpt lat="39.48158501335447" lon="15.959840980037741"><ele>28.0</ele><time>2026-04-18T11:05:40.915Z</time></trkpt><trkpt lat="39.48152698675182" lon="15.959878106184584"><ele>28.0</ele><time>2026-04-18T11:05:41.915Z</time></trkpt><trkpt lat="39.48146594561227" lon="15.959918306979489"><ele>28.000000000000004</ele><time>2026-04-18T11:05:42.915Z</time></trkpt><trkpt lat="39.48134462979135" lon="15.960004570269383"><ele>28.0</ele><time>2026-04-18T11:05:44.915Z</time></trkpt><trkpt lat="39.48127493783519" lon="15.960053962936767"><ele>31.0</ele><time>2026-04-18T11:05:45.915Z</time></trkpt><trkpt lat="39.481204748994955" lon="15.960106697858727"><ele>34.0</ele><time>2026-04-18T11:05:46.915Z</time></trkpt><trkpt lat="39.48112815297354" lon="15.960159136213045"><ele>37.0</ele><time>2026-04-18T11:05:47.915Z</time></trkpt><trkpt lat="39.48102799262667" lon="15.960224940773678"><ele>40.0</ele><time>2026-04-18T11:05:48.915Z</time></trkpt><trkpt lat="39.480942840917656" lon="15.96027749577319"><ele>43.0</ele><time>2026-04-18T11:05:49.915Z</time></trkpt><trkpt lat="39.4808580251049" lon="15.960333768374518"><ele>43.0</ele><time>2026-04-18T11:05:50.915Z</time></trkpt><trkpt lat="39.48077113302681" lon="15.960394414292097"><ele>43.0</ele><time>2026-04-18T11:05:51.915Z</time></trkpt><trkpt lat="39.48068674475401" lon="15.960459249164314"><ele>43.0</ele><time>2026-04-18T11:05:52.915Z</time></trkpt><trkpt lat="39.48059593995925" lon="15.960513005790641"><ele>43.0</ele><time>2026-04-18T11:05:53.915Z</time></trkpt><trkpt lat="39.48050677337969" lon="15.960574046104492"><ele>43.0</ele><time>2026-04-18T11:05:54.915Z</time></trkpt><trkpt lat="39.48042029707951" lon="15.960632802604612"><ele>44.16666666666667</ele><time>2026-04-18T11:05:55.915Z</time></trkpt><trkpt lat="39.480343283095564" lon="15.96068464523181"><ele>45.333333333333336</ele><time>2026-04-18T11:05:56.915Z</time></trkpt><trkpt lat="39.480275547886826" lon="15.960730111561144"><ele>46.5</ele><time>2026-04-18T11:05:57.915Z</time></trkpt><trkpt lat="39.48021592530587" lon="15.960770132374911"><ele>47.66666666666667</ele><time>2026-04-18T11:05:58.915Z</time></trkpt><trkpt lat="39.480159988796146" lon="15.96080767894249"><ele>48.833333333333336</ele><time>2026-04-18T11:05:59.915Z</time></trkpt><trkpt lat="39.48007891805403" lon="15.960862096536596"><ele>50.0</ele><time>2026-04-18T11:06:01.915Z</time></trkpt><trkpt lat="39.48001818047445" lon="15.960902865784776"><ele>50.00000000000001</ele><time>2026-04-18T11:06:03.915Z</time></trkpt><trkpt lat="39.479945812505164" lon="15.960951441762056"><ele>50.0</ele><time>2026-04-18T11:06:06.915Z</time></trkpt><trkpt lat="39.47987918335017" lon="15.960992389991093"><ele>50.0</ele><time>2026-04-18T11:06:08.914Z</time></trkpt><trkpt lat="39.47980272258417" lon="15.961038913655589"><ele>50.0</ele><time>2026-04-18T11:06:10.914Z</time></trkpt><trkpt lat="39.47971776262817" lon="15.961088840920826"><ele>50.00000000000001</ele><time>2026-04-18T11:06:12.914Z</time></trkpt><trkpt lat="39.4796292308139" lon="15.961136960534061"><ele>50.0</ele><time>2026-04-18T11:06:14.914Z</time></trkpt><trkpt lat="39.479552871403605" lon="15.961175328781476"><ele>48.66666666666667</ele><time>2026-04-18T11:06:16.914Z</time></trkpt><trkpt lat="39.47949273605648" lon="15.961205284685997"><ele>47.333333333333336</ele><time>2026-04-18T11:06:18.914Z</time></trkpt><trkpt lat="39.47941593083518" lon="15.961243544150022"><ele>46.0</ele><time>2026-04-18T11:06:20.914Z</time></trkpt><trkpt lat="39.47929974442887" lon="15.961301783719769"><ele>44.66666666666667</ele><time>2026-04-18T11:06:22.914Z</time></trkpt><trkpt lat="39.479220098521985" lon="15.961341613594705"><ele>43.333333333333336</ele><time>2026-04-18T11:06:23.914Z</time></trkpt><trkpt lat="39.479144016984286" lon="15.961379660946161"><ele>42.0</ele><time>2026-04-18T11:06:24.914Z</time></trkpt><trkpt lat="39.47907823625259" lon="15.961412557022452"><ele>42.0</ele><time>2026-04-18T11:06:25.914Z</time></trkpt><trkpt lat="39.47896904584473" lon="15.961467161695758"><ele>42.0</ele><time>2026-04-18T11:06:27.914Z</time></trkpt><trkpt lat="39.47884415668939" lon="15.961550366099848"><ele>42.0</ele><time>2026-04-18T11:06:29.914Z</time></trkpt><trkpt lat="39.478762990295806" lon="15.961576109877866"><ele>42.0</ele><time>2026-04-18T11:06:30.914Z</time></trkpt><trkpt lat="39.478674038000946" lon="15.96162030223242"><ele>42.0</ele><time>2026-04-18T11:06:31.914Z</time></trkpt><trkpt lat="39.478582194732574" lon="15.961669349614706"><ele>43.166666666666664</ele><time>2026-04-18T11:06:32.914Z</time></trkpt><trkpt lat="39.47849568378358" lon="15.961714145404477"><ele>44.33333333333333</ele><time>2026-04-18T11:06:33.914Z</time></trkpt><trkpt lat="39.478415771565416" lon="15.96175495401731"><ele>45.5</ele><time>2026-04-18T11:06:34.914Z</time></trkpt><trkpt lat="39.47833864128297" lon="15.96179518773172"><ele>46.666666666666664</ele><time>2026-04-18T11:06:35.914Z</time></trkpt><trkpt lat="39.47825890712015" lon="15.961837092574433"><ele>47.83333333333333</ele><time>2026-04-18T11:06:36.914Z</time></trkpt><trkpt lat="39.4781764578296" lon="15.961879802169445"><ele>49.0</ele><time>2026-04-18T11:06:37.914Z</time></trkpt><trkpt lat="39.47809130214524" lon="15.961922227549517"><ele>49.0</ele><time>2026-04-18T11:06:38.914Z</time></trkpt><trkpt lat="39.47800526815045" lon="15.961964827497827"><ele>49.0</ele><time>2026-04-18T11:06:39.914Z</time></trkpt><trkpt lat="39.47791831206476" lon="15.962008327216697"><ele>49.0</ele><time>2026-04-18T11:06:40.914Z</time></trkpt><trkpt lat="39.47782797384423" lon="15.962053777833667"><ele>49.0</ele><time>2026-04-18T11:06:41.914Z</time></trkpt><trkpt lat="39.47774046426055" lon="15.962097128396247"><ele>49.0</ele><time>2026-04-18T11:06:42.914Z</time></trkpt><trkpt lat="39.47765238055001" lon="15.962140641508622"><ele>46.6</ele><time>2026-04-18T11:06:43.914Z</time></trkpt><trkpt lat="39.47756225407319" lon="15.96218531716227"><ele>44.2</ele><time>2026-04-18T11:06:44.914Z</time></trkpt><trkpt lat="39.477471473943716" lon="15.962230728103501"><ele>41.800000000000004</ele><time>2026-04-18T11:06:45.914Z</time></trkpt><trkpt lat="39.47737757323078" lon="15.96227840283799"><ele>39.400000000000006</ele><time>2026-04-18T11:06:46.914Z</time></trkpt><trkpt lat="39.47728135604151" lon="15.962327199160946"><ele>37.0</ele><time>2026-04-18T11:06:47.914Z</time></trkpt><trkpt lat="39.47718261365203" lon="15.962377281380666"><ele>35.6</ele><time>2026-04-18T11:06:48.914Z</time></trkpt><trkpt lat="39.477082991746" lon="15.962428494440733"><ele>34.2</ele><time>2026-04-18T11:06:49.914Z</time></trkpt><trkpt lat="39.47698186143529" lon="15.962481279854005"><ele>32.8</ele><time>2026-04-18T11:06:50.914Z</time></trkpt><trkpt lat="39.4768746650294" lon="15.96253624491954"><ele>31.4</ele><time>2026-04-18T11:06:51.914Z</time></trkpt><trkpt lat="39.4767657742683" lon="15.962593588019857"><ele>30.0</ele><time>2026-04-18T11:06:52.914Z</time></trkpt><trkpt lat="39.47665900830097" lon="15.962656328129388"><ele>35.2</ele><time>2026-04-18T11:06:53.914Z</time></trkpt><trkpt lat="39.476556886319166" lon="15.962723871402787"><ele>40.4</ele><time>2026-04-18T11:06:54.914Z</time></trkpt><trkpt lat="39.47645973108638" lon="15.9627986473498"><ele>45.599999999999994</ele><time>2026-04-18T11:06:55.914Z</time></trkpt><trkpt lat="39.476358065930505" lon="15.962853558637532"><ele>50.8</ele><time>2026-04-18T11:06:56.914Z</time></trkpt><trkpt lat="39.47626476674188" lon="15.96292642173106"><ele>56.0</ele><time>2026-04-18T11:06:57.914Z</time></trkpt><trkpt lat="39.47617534067843" lon="15.96300345661898"><ele>56.0</ele><time>2026-04-18T11:06:58.914Z</time></trkpt><trkpt lat="39.47601399965363" lon="15.963169127444154"><ele>56.0</ele><time>2026-04-18T11:06:59.914Z</time></trkpt><trkpt lat="39.475914060097125" lon="15.963260459493599"><ele>56.0</ele><time>2026-04-18T11:07:00.914Z</time></trkpt><trkpt lat="39.475806827584016" lon="15.963351193310213"><ele>59.5</ele><time>2026-04-18T11:07:01.914Z</time></trkpt><trkpt lat="39.47569990828823" lon="15.963451621593947"><ele>63.0</ele><time>2026-04-18T11:07:02.914Z</time></trkpt><trkpt lat="39.47559853195625" lon="15.963578547537896"><ele>66.5</ele><time>2026-04-18T11:07:03.914Z</time></trkpt><trkpt lat="39.47548740485808" lon="15.96367652310455"><ele>70.0</ele><time>2026-04-18T11:07:04.914Z</time></trkpt><trkpt lat="39.475417323799206" lon="15.963889337358854"><ele>63.75</ele><time>2026-04-18T11:07:05.914Z</time></trkpt><trkpt lat="39.4753354400884" lon="15.964033694171219"><ele>57.5</ele><time>2026-04-18T11:07:06.914Z</time></trkpt><trkpt lat="39.47525812802809" lon="15.964157599732067"><ele>51.25</ele><time>2026-04-18T11:07:07.914Z</time></trkpt><trkpt lat="39.475189483578795" lon="15.964290208958108"><ele>45.0</ele><time>2026-04-18T11:07:08.914Z</time></trkpt><trkpt lat="39.47512098953299" lon="15.964431305657266"><ele>45.0</ele><time>2026-04-18T11:07:09.914Z</time></trkpt><trkpt lat="39.475053055723926" lon="15.964561049555195"><ele>45.0</ele><time>2026-04-18T11:07:10.914Z</time></trkpt><trkpt lat="39.47498381142984" lon="15.964659653892149"><ele>45.0</ele><time>2026-04-18T11:07:11.914Z</time></trkpt><trkpt lat="39.47491797808545" lon="15.964781849264842"><ele>45.0</ele><time>2026-04-18T11:07:12.914Z</time></trkpt><trkpt lat="39.474869665648306" lon="15.964906494753123"><ele>45.0</ele><time>2026-04-18T11:07:13.914Z</time></trkpt><trkpt lat="39.47481096665126" lon="15.965010003236072"><ele>43.0</ele><time>2026-04-18T11:07:14.914Z</time></trkpt><trkpt lat="39.474752636826025" lon="15.965114738137178"><ele>41.0</ele><time>2026-04-18T11:07:15.914Z</time></trkpt><trkpt lat="39.474697287398584" lon="15.965212604094313"><ele>39.0</ele><time>2026-04-18T11:07:16.914Z</time></trkpt><trkpt lat="39.474646400602616" lon="15.965302984582781"><ele>37.0</ele><time>2026-04-18T11:07:17.914Z</time></trkpt><trkpt lat="39.47459874291893" lon="15.965397999043745"><ele>35.0</ele><time>2026-04-18T11:07:18.914Z</time></trkpt><trkpt lat="39.47455504368431" lon="15.96548640331786"><ele>33.0</ele><time>2026-04-18T11:07:19.914Z</time></trkpt><trkpt lat="39.47449361145978" lon="15.965567505406206"><ele>33.0</ele><time>2026-04-18T11:07:20.914Z</time></trkpt><trkpt lat="39.474435308199894" lon="15.965674675870773"><ele>33.0</ele><time>2026-04-18T11:07:21.914Z</time></trkpt><trkpt lat="39.474369764977816" lon="15.965795213003261"><ele>33.0</ele><time>2026-04-18T11:07:22.914Z</time></trkpt><trkpt lat="39.474310792545126" lon="15.965946766468612"><ele>33.0</ele><time>2026-04-18T11:07:23.914Z</time></trkpt><trkpt lat="39.47422869053509" lon="15.966105168563194"><ele>41.66666666666667</ele><time>2026-04-18T11:07:24.914Z</time></trkpt><trkpt lat="39.47415037948927" lon="15.966271965328586"><ele>50.333333333333336</ele><time>2026-04-18T11:07:25.914Z</time></trkpt><trkpt lat="39.47407756523303" lon="15.966448012979464"><ele>59.0</ele><time>2026-04-18T11:07:26.914Z</time></trkpt><trkpt lat="39.47400793856267" lon="15.966630488662569"><ele>68.33333333333334</ele><time>2026-04-18T11:07:27.914Z</time></trkpt><trkpt lat="39.4739453252319" lon="15.966823521671127"><ele>77.66666666666667</ele><time>2026-04-18T11:07:28.914Z</time></trkpt><trkpt lat="39.473892330566386" lon="15.967019436533263"><ele>87.0</ele><time>2026-04-18T11:07:29.914Z</time></trkpt><trkpt lat="39.473847671871056" lon="15.96721417048096"><ele>87.0</ele><time>2026-04-18T11:07:30.914Z</time></trkpt><trkpt lat="39.4738058479714" lon="15.967403987997306"><ele>87.0</ele><time>2026-04-18T11:07:31.914Z</time></trkpt><trkpt lat="39.47375724568295" lon="15.967593383235496"><ele>87.0</ele><time>2026-04-18T11:07:32.914Z</time></trkpt><trkpt lat="39.47371778507259" lon="15.967773580193962"><ele>86.5</ele><time>2026-04-18T11:07:33.914Z</time></trkpt><trkpt lat="39.47367507465278" lon="15.96795524674957"><ele>86.0</ele><time>2026-04-18T11:07:34.914Z</time></trkpt><trkpt lat="39.47363755534877" lon="15.968134760893752"><ele>85.5</ele><time>2026-04-18T11:07:35.914Z</time></trkpt><trkpt lat="39.47362140455291" lon="15.968321514920458"><ele>85.0</ele><time>2026-04-18T11:07:36.914Z</time></trkpt><trkpt lat="39.47361851129942" lon="15.968505347524705"><ele>85.0</ele><time>2026-04-18T11:07:37.914Z</time></trkpt><trkpt lat="39.47361719788601" lon="15.968698288897457"><ele>85.0</ele><time>2026-04-18T11:07:38.914Z</time></trkpt><trkpt lat="39.47366441536772" lon="15.96939119628162"><ele>87.66666666666666</ele><time>2026-04-18T11:07:39.914Z</time></trkpt><trkpt lat="39.47365880828893" lon="15.969645472674856"><ele>90.33333333333333</ele><time>2026-04-18T11:07:40.914Z</time></trkpt><trkpt lat="39.473656003551504" lon="15.969904505466253"><ele>93.0</ele><time>2026-04-18T11:07:41.914Z</time></trkpt><trkpt lat="39.47365501760817" lon="15.970180594388049"><ele>116.0</ele><time>2026-04-18T11:07:42.953Z</time></trkpt><trkpt lat="39.47369810227342" lon="15.971198717047809"><ele>124.0</ele><time>2026-04-18T11:07:54.502Z</time></trkpt><trkpt lat="39.47371867372275" lon="15.971895681902279"><ele>127.0</ele><time>2026-04-18T11:07:55.501Z</time></trkpt><trkpt lat="39.47371843559813" lon="15.972590054314267"><ele>127.0</ele><time>2026-04-18T11:07:56.497Z</time></trkpt><trkpt lat="39.473721312428076" lon="15.973290508806787"><ele>123.0</ele><time>2026-04-18T11:07:57.502Z</time></trkpt><trkpt lat="39.473723" lon="15.9735497"><ele>119.0</ele><time>2026-04-18T11:07:58.497Z</time></trkpt><trkpt lat="39.472701048773764" lon="15.978224444163995"><ele>93.33333333333333</ele><time>2026-04-18T11:08:21.914Z</time></trkpt><trkpt lat="39.472581176004056" lon="15.978373872135116"><ele>67.66666666666666</ele><time>2026-04-18T11:08:22.914Z</time></trkpt><trkpt lat="39.47249598893342" lon="15.978493242192567"><ele>42.0</ele><time>2026-04-18T11:08:23.914Z</time></trkpt><trkpt lat="39.472371063993144" lon="15.978629550679212"><ele>42.0</ele><time>2026-04-18T11:08:24.914Z</time></trkpt><trkpt lat="39.472234061162524" lon="15.978765021240015"><ele>42.0</ele><time>2026-04-18T11:08:25.914Z</time></trkpt><trkpt lat="39.47208436324774" lon="15.97891040375156"><ele>42.0</ele><time>2026-04-18T11:08:26.914Z</time></trkpt><trkpt lat="39.47192723277338" lon="15.979042581266636"><ele>41.666666666666664</ele><time>2026-04-18T11:08:27.914Z</time></trkpt><trkpt lat="39.471766774182214" lon="15.979145679906305"><ele>41.33333333333333</ele><time>2026-04-18T11:08:28.914Z</time></trkpt><trkpt lat="39.471615486907304" lon="15.97924056685604"><ele>41.0</ele><time>2026-04-18T11:08:29.914Z</time></trkpt><trkpt lat="39.47146160799886" lon="15.979331814869008"><ele>41.0</ele><time>2026-04-18T11:08:30.914Z</time></trkpt><trkpt lat="39.47131044980508" lon="15.97943128960126"><ele>41.0</ele><time>2026-04-18T11:08:31.914Z</time></trkpt><trkpt lat="39.471145970489346" lon="15.979525797204802"><ele>41.0</ele><time>2026-04-18T11:08:32.914Z</time></trkpt><trkpt lat="39.470986889734405" lon="15.979626190770663"><ele>57.0</ele><time>2026-04-18T11:08:33.914Z</time></trkpt><trkpt lat="39.47082365164018" lon="15.97972254598414"><ele>73.0</ele><time>2026-04-18T11:08:34.914Z</time></trkpt><trkpt lat="39.46990660768809" lon="15.980315144854785"><ele>63.0</ele><time>2026-04-18T11:08:50.501Z</time></trkpt><trkpt lat="39.46753715263855" lon="15.98183260206594"><ele>63.0</ele><time>2026-04-18T11:08:51.913Z</time></trkpt><trkpt lat="39.46736097293569" lon="15.981852390187305"><ele>63.0</ele><time>2026-04-18T11:08:52.913Z</time></trkpt><trkpt lat="39.46719484356917" lon="15.982007032325292"><ele>63.0</ele><time>2026-04-18T11:08:53.913Z</time></trkpt><trkpt lat="39.467010594800406" lon="15.982135004296572"><ele>53.666666666666664</ele><time>2026-04-18T11:08:54.913Z</time></trkpt><trkpt lat="39.4668254118927" lon="15.982257526855735"><ele>44.33333333333333</ele><time>2026-04-18T11:08:55.913Z</time></trkpt><trkpt lat="39.4666560106576" lon="15.982383029486023"><ele>35.0</ele><time>2026-04-18T11:08:56.913Z</time></trkpt><trkpt lat="39.46647890177776" lon="15.982513444947461"><ele>38.666666666666664</ele><time>2026-04-18T11:08:57.913Z</time></trkpt><trkpt lat="39.466300579100285" lon="15.982643197861785"><ele>42.333333333333336</ele><time>2026-04-18T11:08:58.913Z</time></trkpt><trkpt lat="39.4661404145937" lon="15.982759041106975"><ele>46.0</ele><time>2026-04-18T11:08:59.913Z</time></trkpt><trkpt lat="39.465982155593174" lon="15.982874404488063"><ele>46.0</ele><time>2026-04-18T11:09:00.913Z</time></trkpt><trkpt lat="39.46582131413753" lon="15.982988784572667"><ele>46.0</ele><time>2026-04-18T11:09:01.913Z</time></trkpt><trkpt lat="39.465664413797306" lon="15.983104225964665"><ele>46.0</ele><time>2026-04-18T11:09:02.914Z</time></trkpt><trkpt lat="39.46550412029332" lon="15.983223256832142"><ele>47.333333333333336</ele><time>2026-04-18T11:09:03.914Z</time></trkpt><trkpt lat="39.46534543499006" lon="15.983340222847872"><ele>48.66666666666667</ele><time>2026-04-18T11:09:04.914Z</time></trkpt><trkpt lat="39.465185952015595" lon="15.98345958814477"><ele>50.0</ele><time>2026-04-18T11:09:05.914Z</time></trkpt><trkpt lat="39.465024490196406" lon="15.983580860882695"><ele>50.0</ele><time>2026-04-18T11:09:06.914Z</time></trkpt><trkpt lat="39.464865459210436" lon="15.983700468497776"><ele>50.0</ele><time>2026-04-18T11:09:07.914Z</time></trkpt><trkpt lat="39.464701928795485" lon="15.983821171930986"><ele>50.0</ele><time>2026-04-18T11:09:08.914Z</time></trkpt><trkpt lat="39.464536273197126" lon="15.983941954991703"><ele>45.66666666666667</ele><time>2026-04-18T11:09:09.914Z</time></trkpt><trkpt lat="39.46437233872662" lon="15.98406224589426"><ele>41.333333333333336</ele><time>2026-04-18T11:09:10.914Z</time></trkpt><trkpt lat="39.46420629196145" lon="15.984181953791312"><ele>37.0</ele><time>2026-04-18T11:09:11.914Z</time></trkpt><trkpt lat="39.46404399534847" lon="15.984302292786223"><ele>38.0</ele><time>2026-04-18T11:09:12.914Z</time></trkpt><trkpt lat="39.463874786388345" lon="15.984423042451935"><ele>39.0</ele><time>2026-04-18T11:09:13.914Z</time></trkpt><trkpt lat="39.46370618849496" lon="15.984543838357453"><ele>40.0</ele><time>2026-04-18T11:09:14.914Z</time></trkpt><trkpt lat="39.463540606616725" lon="15.984664937289928"><ele>40.0</ele><time>2026-04-18T11:09:15.914Z</time></trkpt><trkpt lat="39.46337576105952" lon="15.984789705848764"><ele>40.0</ele><time>2026-04-18T11:09:16.914Z</time></trkpt><trkpt lat="39.463201440253286" lon="15.984918701858735"><ele>40.0</ele><time>2026-04-18T11:09:17.914Z</time></trkpt><trkpt lat="39.46303521031875" lon="15.985047643183927"><ele>44.66666666666667</ele><time>2026-04-18T11:09:18.914Z</time></trkpt><trkpt lat="39.462863472144484" lon="15.98517890773769"><ele>49.333333333333336</ele><time>2026-04-18T11:09:19.914Z</time></trkpt><trkpt lat="39.46269036219782" lon="15.98531026992369"><ele>54.0</ele><time>2026-04-18T11:09:20.914Z</time></trkpt><trkpt lat="39.462520322057294" lon="15.985428169161727"><ele>54.0</ele><time>2026-04-18T11:09:21.914Z</time></trkpt><trkpt lat="39.46235399464538" lon="15.985553958699896"><ele>54.0</ele><time>2026-04-18T11:09:22.914Z</time></trkpt><trkpt lat="39.462185554140234" lon="15.985673859926976"><ele>54.0</ele><time>2026-04-18T11:09:23.914Z</time></trkpt><trkpt lat="39.462018105490934" lon="15.98579698245234"><ele>54.66666666666667</ele><time>2026-04-18T11:09:24.914Z</time></trkpt><trkpt lat="39.46184736833935" lon="15.985923205146152"><ele>55.333333333333336</ele><time>2026-04-18T11:09:25.914Z</time></trkpt><trkpt lat="39.461678990979806" lon="15.986047977705429"><ele>56.0</ele><time>2026-04-18T11:09:26.914Z</time></trkpt><trkpt lat="39.46150892552714" lon="15.986169147032093"><ele>56.0</ele><time>2026-04-18T11:09:27.914Z</time></trkpt><trkpt lat="39.46133786835868" lon="15.98629757413487"><ele>56.0</ele><time>2026-04-18T11:09:28.914Z</time></trkpt><trkpt lat="39.46117177333354" lon="15.986423332527725"><ele>56.0</ele><time>2026-04-18T11:09:29.914Z</time></trkpt><trkpt lat="39.4610067570997" lon="15.986550051666484"><ele>56.66666666666667</ele><time>2026-04-18T11:09:30.914Z</time></trkpt><trkpt lat="39.460840127521884" lon="15.986670219874187"><ele>57.33333333333333</ele><time>2026-04-18T11:09:31.914Z</time></trkpt><trkpt lat="39.460674597192636" lon="15.986790613385306"><ele>58.0</ele><time>2026-04-18T11:09:32.914Z</time></trkpt><trkpt lat="39.46050226960097" lon="15.986911803200664"><ele>65.33333333333333</ele><time>2026-04-18T11:09:33.914Z</time></trkpt><trkpt lat="39.46033194168953" lon="15.98703417124073"><ele>72.66666666666667</ele><time>2026-04-18T11:09:34.914Z</time></trkpt><trkpt lat="39.460171704051234" lon="15.987152555743222"><ele>80.0</ele><time>2026-04-18T11:09:35.914Z</time></trkpt><trkpt lat="39.45999779446876" lon="15.987251004354952"><ele>80.0</ele><time>2026-04-18T11:09:36.914Z</time></trkpt><trkpt lat="39.4598336781765" lon="15.987360251195607"><ele>80.0</ele><time>2026-04-18T11:09:37.914Z</time></trkpt><trkpt lat="39.45966778744223" lon="15.987468659449505"><ele>80.0</ele><time>2026-04-18T11:09:38.914Z</time></trkpt><trkpt lat="39.459500979859286" lon="15.987574515579631"><ele>76.66666666666667</ele><time>2026-04-18T11:09:39.914Z</time></trkpt><trkpt lat="39.45933341931881" lon="15.987677907402468"><ele>73.33333333333333</ele><time>2026-04-18T11:09:40.914Z</time></trkpt><trkpt lat="39.45916437008412" lon="15.987780229106145"><ele>70.0</ele><time>2026-04-18T11:09:41.914Z</time></trkpt><trkpt lat="39.45878630199615" lon="15.987999425950402"><ele>70.0</ele><time>2026-04-18T11:09:42.914Z</time></trkpt><trkpt lat="39.45861320904717" lon="15.9880965980889"><ele>70.0</ele><time>2026-04-18T11:09:43.914Z</time></trkpt><trkpt lat="39.45845928617356" lon="15.988183008638408"><ele>70.0</ele><time>2026-04-18T11:09:44.914Z</time></trkpt><trkpt lat="39.458270716013445" lon="15.988288869314902"><ele>75.66666666666666</ele><time>2026-04-18T11:09:45.914Z</time></trkpt><trkpt lat="39.45808309396672" lon="15.98839419799579"><ele>81.33333333333333</ele><time>2026-04-18T11:09:46.914Z</time></trkpt><trkpt lat="39.45789495301057" lon="15.98849981785802"><ele>87.0</ele><time>2026-04-18T11:09:47.914Z</time></trkpt><trkpt lat="39.45770238571247" lon="15.988607922689528"><ele>87.0</ele><time>2026-04-18T11:09:48.914Z</time></trkpt><trkpt lat="39.45750787265295" lon="15.988717119625889"><ele>87.0</ele><time>2026-04-18T11:09:49.914Z</time></trkpt><trkpt lat="39.4573101462807" lon="15.988828120702268"><ele>87.0</ele><time>2026-04-18T11:09:50.914Z</time></trkpt><trkpt lat="39.45711331849862" lon="15.988938617372362"><ele>91.0</ele><time>2026-04-18T11:09:51.914Z</time></trkpt><trkpt lat="39.45691645754165" lon="15.98904910485482"><ele>95.0</ele><time>2026-04-18T11:09:52.914Z</time></trkpt><trkpt lat="39.45671677226775" lon="15.989161172375152"><ele>99.0</ele><time>2026-04-18T11:09:53.914Z</time></trkpt><trkpt lat="39.45651636636003" lon="15.989273644141694"><ele>112.66666666666666</ele><time>2026-04-18T11:09:54.914Z</time></trkpt><trkpt lat="39.45631363067493" lon="15.989387423472147"><ele>126.33333333333333</ele><time>2026-04-18T11:09:55.914Z</time></trkpt><trkpt lat="39.456109743083" lon="15.98950184934706"><ele>140.0</ele><time>2026-04-18T11:09:56.914Z</time></trkpt><trkpt lat="39.45590593093698" lon="15.989616232830347"><ele>140.5</ele><time>2026-04-18T11:09:57.914Z</time></trkpt><trkpt lat="39.4556979989182" lon="15.989732928510813"><ele>141.0</ele><time>2026-04-18T11:09:58.914Z</time></trkpt><trkpt lat="39.45548719631581" lon="15.989851235134854"><ele>134.5</ele><time>2026-04-18T11:09:59.914Z</time></trkpt><trkpt lat="39.455272070967375" lon="15.989971987419002"><ele>128.0</ele><time>2026-04-18T11:10:00.914Z</time></trkpt><trkpt lat="39.45505628576529" lon="15.990093123801753"><ele>147.5</ele><time>2026-04-18T11:10:01.914Z</time></trkpt><trkpt lat="39.45484179833978" lon="15.990213531741723"><ele>167.0</ele><time>2026-04-18T11:10:02.914Z</time></trkpt><trkpt lat="39.4546215255847" lon="15.990337187599645"><ele>163.0</ele><time>2026-04-18T11:10:03.914Z</time></trkpt><trkpt lat="39.454396381425816" lon="15.990463579213328"><ele>159.0</ele><time>2026-04-18T11:10:04.914Z</time></trkpt><trkpt lat="39.45416683264024" lon="15.990592442221187"><ele>159.0</ele><time>2026-04-18T11:10:05.914Z</time></trkpt><trkpt lat="39.45394715825391" lon="15.990717188021442"><ele>159.0</ele><time>2026-04-18T11:10:06.914Z</time></trkpt><trkpt lat="39.45373569000593" lon="15.990837367425575"><ele>158.0</ele><time>2026-04-18T11:10:07.914Z</time></trkpt><trkpt lat="39.453507799619025" lon="15.990966879607617"><ele>157.0</ele><time>2026-04-18T11:10:08.914Z</time></trkpt><trkpt lat="39.45327756320022" lon="15.99109772510146"><ele>157.0</ele><time>2026-04-18T11:10:09.914Z</time></trkpt><trkpt lat="39.45304069917328" lon="15.991232473752222"><ele>157.0</ele><time>2026-04-18T11:10:10.914Z</time></trkpt><trkpt lat="39.45280463148341" lon="15.99136691695141"><ele>154.0</ele><time>2026-04-18T11:10:11.914Z</time></trkpt><trkpt lat="39.45256887952835" lon="15.991500379509349"><ele>151.0</ele><time>2026-04-18T11:10:12.914Z</time></trkpt><trkpt lat="39.45232745447921" lon="15.991635634407446"><ele>146.5</ele><time>2026-04-18T11:10:13.913Z</time></trkpt><trkpt lat="39.45208163258887" lon="15.991773622650108"><ele>142.0</ele><time>2026-04-18T11:10:14.913Z</time></trkpt><trkpt lat="39.45184267405191" lon="15.991912374165572"><ele>142.0</ele><time>2026-04-18T11:10:15.913Z</time></trkpt><trkpt lat="39.45159262726251" lon="15.992057564115242"><ele>142.0</ele><time>2026-04-18T11:10:16.95Z</time></trkpt><trkpt lat="39.45136419271583" lon="15.992194757279359"><ele>114.0</ele><time>2026-04-18T11:10:27.5Z</time></trkpt><trkpt lat="39.450873848532716" lon="15.99248669118255"><ele>71.0</ele><time>2026-04-18T11:10:28.5Z</time></trkpt><trkpt lat="39.450391147080985" lon="15.992801888069165"><ele>71.0</ele><time>2026-04-18T11:10:29.5Z</time></trkpt><trkpt lat="39.44990121866928" lon="15.993095940032395"><ele>27.0</ele><time>2026-04-18T11:10:30.5Z</time></trkpt><trkpt lat="39.44940481237216" lon="15.993372437061016"><ele>27.0</ele><time>2026-04-18T11:10:31.5Z</time></trkpt><trkpt lat="39.449065" lon="15.9936017"><ele>27.0</ele><time>2026-04-18T11:10:32.5Z</time></trkpt><trkpt lat="39.44851718871792" lon="15.993887184338302"><ele>22.666666666666668</ele><time>2026-04-18T11:10:39.913Z</time></trkpt><trkpt lat="39.448327717512804" lon="15.99400171137745"><ele>18.333333333333336</ele><time>2026-04-18T11:10:40.913Z</time></trkpt><trkpt lat="39.448132022316315" lon="15.99412461971744"><ele>14.0</ele><time>2026-04-18T11:10:41.913Z</time></trkpt><trkpt lat="39.44793273933262" lon="15.994244400296367"><ele>12.333333333333334</ele><time>2026-04-18T11:10:42.913Z</time></trkpt><trkpt lat="39.44774973484511" lon="15.994352264044947"><ele>10.666666666666668</ele><time>2026-04-18T11:10:43.913Z</time></trkpt><trkpt lat="39.44757834096067" lon="15.994452720550802"><ele>9.0</ele><time>2026-04-18T11:10:44.913Z</time></trkpt><trkpt lat="39.44739810960743" lon="15.994555914735523"><ele>9.0</ele><time>2026-04-18T11:10:45.913Z</time></trkpt><trkpt lat="39.44720864392662" lon="15.994650620238207"><ele>9.0</ele><time>2026-04-18T11:10:46.913Z</time></trkpt><trkpt lat="39.44701817664743" lon="15.994733551484217"><ele>9.0</ele><time>2026-04-18T11:10:47.913Z</time></trkpt><trkpt lat="39.44682405421438" lon="15.994805121857691"><ele>8.666666666666666</ele><time>2026-04-18T11:10:48.913Z</time></trkpt><trkpt lat="39.44662612906386" lon="15.994865470527168"><ele>8.333333333333332</ele><time>2026-04-18T11:10:49.913Z</time></trkpt><trkpt lat="39.44642099552226" lon="15.994932038799421"><ele>8.0</ele><time>2026-04-18T11:10:50.913Z</time></trkpt><trkpt lat="39.44624028125411" lon="15.994988676108003"><ele>8.0</ele><time>2026-04-18T11:10:51.913Z</time></trkpt><trkpt lat="39.446061644432156" lon="15.995049160540148"><ele>8.0</ele><time>2026-04-18T11:10:52.913Z</time></trkpt><trkpt lat="39.445873623910245" lon="15.99511357118264"><ele>8.0</ele><time>2026-04-18T11:10:53.913Z</time></trkpt><trkpt lat="39.445686153806605" lon="15.995176233733325"><ele>8.0</ele><time>2026-04-18T11:10:54.913Z</time></trkpt><trkpt lat="39.44549838147856" lon="15.995237542303189"><ele>8.0</ele><time>2026-04-18T11:10:55.913Z</time></trkpt><trkpt lat="39.445309226053936" lon="15.995300600499885"><ele>8.0</ele><time>2026-04-18T11:10:56.913Z</time></trkpt><trkpt lat="39.44512202782602" lon="15.995363886435655"><ele>8.333333333333332</ele><time>2026-04-18T11:10:57.913Z</time></trkpt><trkpt lat="39.44493211094705" lon="15.995430171373066"><ele>8.666666666666666</ele><time>2026-04-18T11:10:58.913Z</time></trkpt><trkpt lat="39.44474098720832" lon="15.995502199053705"><ele>9.0</ele><time>2026-04-18T11:10:59.913Z</time></trkpt><trkpt lat="39.444554998821545" lon="15.995578613192988"><ele>8.333333333333334</ele><time>2026-04-18T11:11:00.913Z</time></trkpt><trkpt lat="39.444367966637635" lon="15.995664278466709"><ele>7.666666666666667</ele><time>2026-04-18T11:11:01.913Z</time></trkpt><trkpt lat="39.44418678282377" lon="15.995759247707838"><ele>7.0</ele><time>2026-04-18T11:11:02.913Z</time></trkpt><trkpt lat="39.444008956766545" lon="15.995867471854565"><ele>7.0</ele><time>2026-04-18T11:11:03.913Z</time></trkpt><trkpt lat="39.443834826777874" lon="15.995987386678143"><ele>7.0</ele><time>2026-04-18T11:11:04.913Z</time></trkpt><trkpt lat="39.44366321537821" lon="15.996111445480475"><ele>7.0</ele><time>2026-04-18T11:11:05.913Z</time></trkpt><trkpt lat="39.4434902070198" lon="15.996232483159789"><ele>6.666666666666667</ele><time>2026-04-18T11:11:06.913Z</time></trkpt><trkpt lat="39.44331405098565" lon="15.99635073512411"><ele>6.333333333333334</ele><time>2026-04-18T11:11:07.914Z</time></trkpt><trkpt lat="39.44313415176894" lon="15.996467505157256"><ele>6.0</ele><time>2026-04-18T11:11:08.914Z</time></trkpt><trkpt lat="39.44295400871294" lon="15.99657997194043"><ele>6.0</ele><time>2026-04-18T11:11:09.914Z</time></trkpt><trkpt lat="39.44277432440719" lon="15.996689186093032"><ele>6.0</ele><time>2026-04-18T11:11:10.914Z</time></trkpt><trkpt lat="39.44259747287025" lon="15.996790279042369"><ele>6.0</ele><time>2026-04-18T11:11:11.914Z</time></trkpt><trkpt lat="39.44242812286047" lon="15.996882410657362"><ele>6.0</ele><time>2026-04-18T11:11:12.914Z</time></trkpt><trkpt lat="39.44226810029428" lon="15.99697016496023"><ele>6.0</ele><time>2026-04-18T11:11:13.914Z</time></trkpt><trkpt lat="39.44210521781615" lon="15.997062741978693"><ele>6.0</ele><time>2026-04-18T11:11:14.914Z</time></trkpt><trkpt lat="39.441940012855184" lon="15.997156792121547"><ele>6.0</ele><time>2026-04-18T11:11:15.914Z</time></trkpt><trkpt lat="39.44177200346315" lon="15.99724686566146"><ele>6.0</ele><time>2026-04-18T11:11:16.914Z</time></trkpt><trkpt lat="39.44160557268089" lon="15.997325821068891"><ele>6.0</ele><time>2026-04-18T11:11:17.914Z</time></trkpt><trkpt lat="39.441441032538876" lon="15.997396316449441"><ele>6.0</ele><time>2026-04-18T11:11:18.914Z</time></trkpt><trkpt lat="39.44127228557714" lon="15.997465749501142"><ele>6.0</ele><time>2026-04-18T11:11:19.914Z</time></trkpt><trkpt lat="39.44110814452714" lon="15.997531719542435"><ele>6.0</ele><time>2026-04-18T11:11:20.914Z</time></trkpt><trkpt lat="39.440947987793635" lon="15.99759943619474"><ele>5.666666666666667</ele><time>2026-04-18T11:11:21.914Z</time></trkpt><trkpt lat="39.44078471760744" lon="15.99766843383403"><ele>5.333333333333334</ele><time>2026-04-18T11:11:22.914Z</time></trkpt><trkpt lat="39.440620741312095" lon="15.997741816505645"><ele>5.0</ele><time>2026-04-18T11:11:23.914Z</time></trkpt><trkpt lat="39.440457256742505" lon="15.99781521577963"><ele>5.0</ele><time>2026-04-18T11:11:24.914Z</time></trkpt><trkpt lat="39.44029678079218" lon="15.997881507051282"><ele>5.0</ele><time>2026-04-18T11:11:25.914Z</time></trkpt><trkpt lat="39.44013413329495" lon="15.99795164715586"><ele>5.0</ele><time>2026-04-18T11:11:26.914Z</time></trkpt><trkpt lat="39.43996776798657" lon="15.998024324225014"><ele>5.0</ele><time>2026-04-18T11:11:27.914Z</time></trkpt><trkpt lat="39.439799954292866" lon="15.998096107777389"><ele>5.0</ele><time>2026-04-18T11:11:28.914Z</time></trkpt><trkpt lat="39.439634224470424" lon="15.998168653874211"><ele>5.0</ele><time>2026-04-18T11:11:29.914Z</time></trkpt><trkpt lat="39.43946418785004" lon="15.998243735916363"><ele>5.333333333333334</ele><time>2026-04-18T11:11:30.914Z</time></trkpt><trkpt lat="39.43929210202219" lon="15.998318276641745"><ele>5.666666666666667</ele><time>2026-04-18T11:11:31.914Z</time></trkpt><trkpt lat="39.439118836172845" lon="15.998392968660346"><ele>6.0</ele><time>2026-04-18T11:11:32.914Z</time></trkpt><trkpt lat="39.438949262716456" lon="15.998462473975314"><ele>6.333333333333334</ele><time>2026-04-18T11:11:33.914Z</time></trkpt><trkpt lat="39.438776640620326" lon="15.998538057425632"><ele>6.666666666666667</ele><time>2026-04-18T11:11:34.914Z</time></trkpt><trkpt lat="39.43860475815201" lon="15.998616376177603"><ele>7.0</ele><time>2026-04-18T11:11:35.914Z</time></trkpt><trkpt lat="39.43843045173649" lon="15.998699212568672"><ele>7.0</ele><time>2026-04-18T11:11:36.914Z</time></trkpt><trkpt lat="39.43826248861801" lon="15.99877932622979"><ele>7.0</ele><time>2026-04-18T11:11:37.914Z</time></trkpt><trkpt lat="39.438092449693734" lon="15.998863595800804"><ele>7.0</ele><time>2026-04-18T11:11:38.914Z</time></trkpt><trkpt lat="39.43792673399452" lon="15.998947268372463"><ele>7.0</ele><time>2026-04-18T11:11:39.914Z</time></trkpt><trkpt lat="39.43775817235433" lon="15.999032416739324"><ele>7.0</ele><time>2026-04-18T11:11:40.914Z</time></trkpt><trkpt lat="39.43759014574731" lon="15.99911658517152"><ele>7.0</ele><time>2026-04-18T11:11:41.914Z</time></trkpt><trkpt lat="39.437423143273755" lon="15.9991996238725"><ele>7.0</ele><time>2026-04-18T11:11:42.914Z</time></trkpt><trkpt lat="39.43725353833969" lon="15.99928124074108"><ele>7.0</ele><time>2026-04-18T11:11:43.914Z</time></trkpt><trkpt lat="39.437084299920556" lon="15.99936150420074"><ele>7.0</ele><time>2026-04-18T11:11:44.913Z</time></trkpt><trkpt lat="39.43691771687557" lon="15.999440489244899"><ele>7.666666666666667</ele><time>2026-04-18T11:11:45.913Z</time></trkpt><trkpt lat="39.436749622841695" lon="15.999521884660416"><ele>8.333333333333334</ele><time>2026-04-18T11:11:46.913Z</time></trkpt><trkpt lat="39.43658487935915" lon="15.999601799715581"><ele>9.0</ele><time>2026-04-18T11:11:47.913Z</time></trkpt><trkpt lat="39.43641702960347" lon="15.999689118860225"><ele>9.0</ele><time>2026-04-18T11:11:48.913Z</time></trkpt><trkpt lat="39.436251020676764" lon="15.99977496448392"><ele>9.0</ele><time>2026-04-18T11:11:49.913Z</time></trkpt><trkpt lat="39.43608172542934" lon="15.999862573998795"><ele>9.0</ele><time>2026-04-18T11:11:50.913Z</time></trkpt><trkpt lat="39.435914989910444" lon="15.999947035403792"><ele>9.0</ele><time>2026-04-18T11:11:51.913Z</time></trkpt><trkpt lat="39.43575299489089" lon="16.000026926033684"><ele>9.0</ele><time>2026-04-18T11:11:52.913Z</time></trkpt><trkpt lat="39.435589795772366" lon="16.000107979189327"><ele>9.0</ele><time>2026-04-18T11:11:53.913Z</time></trkpt><trkpt lat="39.43542984729454" lon="16.000189550667283"><ele>8.666666666666666</ele><time>2026-04-18T11:11:54.913Z</time></trkpt><trkpt lat="39.435266395535976" lon="16.000274211309215"><ele>8.333333333333332</ele><time>2026-04-18T11:11:55.913Z</time></trkpt><trkpt lat="39.435103484965694" lon="16.00035626265075"><ele>8.0</ele><time>2026-04-18T11:11:56.913Z</time></trkpt><trkpt lat="39.43493909502817" lon="16.0004430974015"><ele>8.0</ele><time>2026-04-18T11:11:57.913Z</time></trkpt><trkpt lat="39.434773391827" lon="16.000534025495792"><ele>8.0</ele><time>2026-04-18T11:11:58.913Z</time></trkpt><trkpt lat="39.43460999595709" lon="16.000627483443314"><ele>8.0</ele><time>2026-04-18T11:11:59.913Z</time></trkpt><trkpt lat="39.434449521898955" lon="16.000727816582167"><ele>7.666666666666666</ele><time>2026-04-18T11:12:00.913Z</time></trkpt><trkpt lat="39.43429203965503" lon="16.000834498622122"><ele>7.333333333333334</ele><time>2026-04-18T11:12:01.913Z</time></trkpt><trkpt lat="39.43413382476075" lon="16.00094475922447"><ele>7.0</ele><time>2026-04-18T11:12:02.913Z</time></trkpt><trkpt lat="39.43397493230122" lon="16.001053987079246"><ele>7.0</ele><time>2026-04-18T11:12:03.913Z</time></trkpt><trkpt lat="39.43381482153892" lon="16.001163256124602"><ele>7.0</ele><time>2026-04-18T11:12:04.913Z</time></trkpt><trkpt lat="39.43365584038679" lon="16.001268834875898"><ele>7.0</ele><time>2026-04-18T11:12:05.913Z</time></trkpt><trkpt lat="39.43349571151881" lon="16.001376919526177"><ele>7.0</ele><time>2026-04-18T11:12:06.913Z</time></trkpt><trkpt lat="39.43333702963025" lon="16.001481721512025"><ele>7.0</ele><time>2026-04-18T11:12:07.913Z</time></trkpt><trkpt lat="39.43318373486686" lon="16.00157675353694"><ele>7.0</ele><time>2026-04-18T11:12:08.913Z</time></trkpt><trkpt lat="39.43303402207189" lon="16.001661666718334"><ele>7.0</ele><time>2026-04-18T11:12:09.913Z</time></trkpt><trkpt lat="39.43288130160734" lon="16.00174354124542"><ele>7.0</ele><time>2026-04-18T11:12:10.913Z</time></trkpt><trkpt lat="39.432726842932915" lon="16.001825240288852"><ele>7.0</ele><time>2026-04-18T11:12:11.913Z</time></trkpt><trkpt lat="39.43257254835482" lon="16.00190595250292"><ele>7.0</ele><time>2026-04-18T11:12:12.913Z</time></trkpt><trkpt lat="39.432417493432105" lon="16.001991695630874"><ele>7.0</ele><time>2026-04-18T11:12:13.913Z</time></trkpt><trkpt lat="39.432256563199005" lon="16.00208270161643"><ele>7.0</ele><time>2026-04-18T11:12:14.913Z</time></trkpt><trkpt lat="39.43210187721838" lon="16.002172477428385"><ele>6.666666666666667</ele><time>2026-04-18T11:12:15.913Z</time></trkpt><trkpt lat="39.43194244747941" lon="16.002259173814522"><ele>6.333333333333334</ele><time>2026-04-18T11:12:16.913Z</time></trkpt><trkpt lat="39.43179028406148" lon="16.00234406515488"><ele>6.0</ele><time>2026-04-18T11:12:17.913Z</time></trkpt><trkpt lat="39.4316409277058" lon="16.002426873889796"><ele>6.0</ele><time>2026-04-18T11:12:18.913Z</time></trkpt><trkpt lat="39.4314942841122" lon="16.00250791315807"><ele>6.0</ele><time>2026-04-18T11:12:19.913Z</time></trkpt><trkpt lat="39.43135022177398" lon="16.002585863197304"><ele>6.0</ele><time>2026-04-18T11:12:20.913Z</time></trkpt><trkpt lat="39.43110774090332" lon="16.002714245477044"><ele>6.666666666666666</ele><time>2026-04-18T11:12:21.913Z</time></trkpt><trkpt lat="39.430935596725874" lon="16.00280060714952"><ele>7.333333333333333</ele><time>2026-04-18T11:12:22.913Z</time></trkpt><trkpt lat="39.43075675528009" lon="16.002875213350993"><ele>8.0</ele><time>2026-04-18T11:12:23.913Z</time></trkpt><trkpt lat="39.43056745016788" lon="16.00293705351916"><ele>8.0</ele><time>2026-04-18T11:12:24.913Z</time></trkpt><trkpt lat="39.430455233793985" lon="16.002985159870125"><ele>8.0</ele><time>2026-04-18T11:12:25.913Z</time></trkpt><trkpt lat="39.43029096787033" lon="16.003028939052143"><ele>8.0</ele><time>2026-04-18T11:12:26.913Z</time></trkpt><trkpt lat="39.430120833880544" lon="16.003073207153985"><ele>8.0</ele><time>2026-04-18T11:12:27.913Z</time></trkpt><trkpt lat="39.42994741124759" lon="16.003113663143434"><ele>8.0</ele><time>2026-04-18T11:12:28.913Z</time></trkpt><trkpt lat="39.42979008630631" lon="16.003151545074232"><ele>8.0</ele><time>2026-04-18T11:12:29.913Z</time></trkpt><trkpt lat="39.42963634545659" lon="16.00319052593845"><ele>8.0</ele><time>2026-04-18T11:12:30.913Z</time></trkpt><trkpt lat="39.42949399659047" lon="16.00323203919328"><ele>8.0</ele><time>2026-04-18T11:12:31.913Z</time></trkpt><trkpt lat="39.42935297756181" lon="16.003274451390613"><ele>8.0</ele><time>2026-04-18T11:12:32.913Z</time></trkpt><trkpt lat="39.42920743544563" lon="16.003316478480208"><ele>8.0</ele><time>2026-04-18T11:12:33.913Z</time></trkpt><trkpt lat="39.42904906362145" lon="16.003355003492743"><ele>8.0</ele><time>2026-04-18T11:12:34.913Z</time></trkpt><trkpt lat="39.428872074708785" lon="16.00340343910164"><ele>8.0</ele><time>2026-04-18T11:12:35.913Z</time></trkpt><trkpt lat="39.428700504949326" lon="16.003453154376757"><ele>8.0</ele><time>2026-04-18T11:12:36.913Z</time></trkpt><trkpt lat="39.42855221296527" lon="16.00350732074347"><ele>8.0</ele><time>2026-04-18T11:12:37.913Z</time></trkpt><trkpt lat="39.42840556713611" lon="16.00355971126712"><ele>8.0</ele><time>2026-04-18T11:12:38.913Z</time></trkpt><trkpt lat="39.42825754032961" lon="16.00361781819516"><ele>8.0</ele><time>2026-04-18T11:12:39.913Z</time></trkpt><trkpt lat="39.4281061371857" lon="16.003677198458337"><ele>7.666666666666666</ele><time>2026-04-18T11:12:40.913Z</time></trkpt><trkpt lat="39.42795368346771" lon="16.003739198677867"><ele>7.333333333333334</ele><time>2026-04-18T11:12:41.913Z</time></trkpt><trkpt lat="39.4277970687506" lon="16.003794938788815"><ele>7.0</ele><time>2026-04-18T11:12:42.913Z</time></trkpt><trkpt lat="39.42765341709251" lon="16.003848218946583"><ele>7.0</ele><time>2026-04-18T11:12:43.913Z</time></trkpt><trkpt lat="39.427514747889866" lon="16.003901452652304"><ele>7.0</ele><time>2026-04-18T11:12:44.913Z</time></trkpt><trkpt lat="39.42738552257684" lon="16.00394817546313"><ele>7.0</ele><time>2026-04-18T11:12:45.913Z</time></trkpt><trkpt lat="39.42726171394044" lon="16.003993573701234"><ele>7.0</ele><time>2026-04-18T11:12:46.913Z</time></trkpt><trkpt lat="39.42713557913558" lon="16.004041169609433"><ele>6.75</ele><time>2026-04-18T11:12:47.913Z</time></trkpt><trkpt lat="39.427000899979504" lon="16.00408878326885"><ele>6.5</ele><time>2026-04-18T11:12:48.913Z</time></trkpt><trkpt lat="39.42686976190502" lon="16.00414303198365"><ele>6.25</ele><time>2026-04-18T11:12:49.913Z</time></trkpt><trkpt lat="39.42673729417699" lon="16.004197910921967"><ele>6.0</ele><time>2026-04-18T11:12:50.913Z</time></trkpt><trkpt lat="39.42659497638665" lon="16.004256847081233"><ele>7.0</ele><time>2026-04-18T11:12:51.913Z</time></trkpt><trkpt lat="39.42645792977085" lon="16.004312545223677"><ele>8.0</ele><time>2026-04-18T11:12:52.913Z</time></trkpt><trkpt lat="39.42632288105717" lon="16.004367709889458"><ele>9.0</ele><time>2026-04-18T11:12:53.913Z</time></trkpt><trkpt lat="39.426184827252385" lon="16.004422103216715"><ele>10.0</ele><time>2026-04-18T11:12:54.913Z</time></trkpt><trkpt lat="39.4260463441407" lon="16.004481225582193"><ele>10.0</ele><time>2026-04-18T11:12:55.913Z</time></trkpt><trkpt lat="39.42590631434859" lon="16.004537490551957"><ele>10.0</ele><time>2026-04-18T11:12:56.913Z</time></trkpt><trkpt lat="39.425766046055465" lon="16.004591779203306"><ele>10.0</ele><time>2026-04-18T11:12:57.913Z</time></trkpt><trkpt lat="39.42562216039541" lon="16.004646510410392"><ele>10.0</ele><time>2026-04-18T11:12:58.913Z</time></trkpt><trkpt lat="39.42547832409662" lon="16.00469479396608"><ele>9.666666666666668</ele><time>2026-04-18T11:12:59.913Z</time></trkpt><trkpt lat="39.4253327108877" lon="16.004746557443642"><ele>9.333333333333334</ele><time>2026-04-18T11:13:00.913Z</time></trkpt><trkpt lat="39.425185710460354" lon="16.004805060334025"><ele>9.0</ele><time>2026-04-18T11:13:01.913Z</time></trkpt><trkpt lat="39.425034305472444" lon="16.004867283193526"><ele>9.0</ele><time>2026-04-18T11:13:02.913Z</time></trkpt><trkpt lat="39.424886376739245" lon="16.0049289037518"><ele>9.0</ele><time>2026-04-18T11:13:03.913Z</time></trkpt><trkpt lat="39.424737368472286" lon="16.005000308764913"><ele>9.0</ele><time>2026-04-18T11:13:04.913Z</time></trkpt><trkpt lat="39.42458511717148" lon="16.005080792683348"><ele>9.666666666666666</ele><time>2026-04-18T11:13:05.913Z</time></trkpt><trkpt lat="39.42443420253563" lon="16.005164719131105"><ele>10.333333333333332</ele><time>2026-04-18T11:13:06.913Z</time></trkpt><trkpt lat="39.4242820226268" lon="16.00524386904346"><ele>11.0</ele><time>2026-04-18T11:13:07.913Z</time></trkpt><trkpt lat="39.42415395782496" lon="16.005319173050523"><ele>11.0</ele><time>2026-04-18T11:13:08.913Z</time></trkpt><trkpt lat="39.42402254153736" lon="16.00539999125065"><ele>11.0</ele><time>2026-04-18T11:13:09.913Z</time></trkpt><trkpt lat="39.42389067796746" lon="16.005464287504843"><ele>11.0</ele><time>2026-04-18T11:13:10.913Z</time></trkpt><trkpt lat="39.42375703929261" lon="16.005533808572373"><ele>11.0</ele><time>2026-04-18T11:13:11.913Z</time></trkpt><trkpt lat="39.42362362922038" lon="16.005606979097138"><ele>10.75</ele><time>2026-04-18T11:13:12.913Z</time></trkpt><trkpt lat="39.42349230844363" lon="16.00568408057727"><ele>10.5</ele><time>2026-04-18T11:13:13.913Z</time></trkpt><trkpt lat="39.42335822487591" lon="16.005758046547157"><ele>10.25</ele><time>2026-04-18T11:13:14.913Z</time></trkpt><trkpt lat="39.42322856572556" lon="16.00581856861298"><ele>10.0</ele><time>2026-04-18T11:13:15.913Z</time></trkpt><trkpt lat="39.423090057318475" lon="16.005894574397352"><ele>10.0</ele><time>2026-04-18T11:13:16.913Z</time></trkpt><trkpt lat="39.42294626828757" lon="16.00597252478776"><ele>10.0</ele><time>2026-04-18T11:13:17.913Z</time></trkpt><trkpt lat="39.42281195572175" lon="16.006050414935398"><ele>10.0</ele><time>2026-04-18T11:13:18.913Z</time></trkpt><trkpt lat="39.42267551436458" lon="16.0061303818879"><ele>10.0</ele><time>2026-04-18T11:13:19.913Z</time></trkpt><trkpt lat="39.42253815193828" lon="16.006211309845842"><ele>10.0</ele><time>2026-04-18T11:13:20.913Z</time></trkpt><trkpt lat="39.422401180841106" lon="16.00629592887215"><ele>10.0</ele><time>2026-04-18T11:13:21.913Z</time></trkpt><trkpt lat="39.42226513630735" lon="16.006387639094875"><ele>9.333333333333334</ele><time>2026-04-18T11:13:22.913Z</time></trkpt><trkpt lat="39.422132586646526" lon="16.006484410541773"><ele>8.666666666666666</ele><time>2026-04-18T11:13:23.913Z</time></trkpt><trkpt lat="39.42200116209887" lon="16.006589650371307"><ele>8.0</ele><time>2026-04-18T11:13:24.913Z</time></trkpt><trkpt lat="39.421871204550804" lon="16.0067065832065"><ele>8.0</ele><time>2026-04-18T11:13:25.913Z</time></trkpt><trkpt lat="39.42174005695937" lon="16.006832730172604"><ele>8.0</ele><time>2026-04-18T11:13:26.913Z</time></trkpt><trkpt lat="39.42160653840916" lon="16.00696729456736"><ele>8.0</ele><time>2026-04-18T11:13:27.913Z</time></trkpt><trkpt lat="39.42147619258024" lon="16.00709857035073"><ele>8.0</ele><time>2026-04-18T11:13:28.913Z</time></trkpt><trkpt lat="39.42134237774362" lon="16.00723580922062"><ele>8.0</ele><time>2026-04-18T11:13:29.913Z</time></trkpt><trkpt lat="39.42120729813361" lon="16.00737500826717"><ele>8.0</ele><time>2026-04-18T11:13:30.913Z</time></trkpt><trkpt lat="39.421075803722886" lon="16.007505598835714"><ele>7.666666666666666</ele><time>2026-04-18T11:13:31.913Z</time></trkpt><trkpt lat="39.4209460058881" lon="16.007635429067054"><ele>7.333333333333334</ele><time>2026-04-18T11:13:32.913Z</time></trkpt><trkpt lat="39.42081712414001" lon="16.00776307966895"><ele>7.0</ele><time>2026-04-18T11:13:33.913Z</time></trkpt><trkpt lat="39.420683126187086" lon="16.007896043298025"><ele>7.0</ele><time>2026-04-18T11:13:34.913Z</time></trkpt><trkpt lat="39.42054777113719" lon="16.00802959413781"><ele>7.0</ele><time>2026-04-18T11:13:35.913Z</time></trkpt><trkpt lat="39.42041140271472" lon="16.008164956657268"><ele>7.0</ele><time>2026-04-18T11:13:36.913Z</time></trkpt><trkpt lat="39.4202685746794" lon="16.008311664838093"><ele>7.333333333333334</ele><time>2026-04-18T11:13:37.913Z</time></trkpt><trkpt lat="39.420124012707184" lon="16.00845911593543"><ele>7.666666666666666</ele><time>2026-04-18T11:13:38.913Z</time></trkpt><trkpt lat="39.41997480165999" lon="16.00861201293947"><ele>8.0</ele><time>2026-04-18T11:13:39.913Z</time></trkpt><trkpt lat="39.41982148835206" lon="16.008765970333506"><ele>8.0</ele><time>2026-04-18T11:13:40.913Z</time></trkpt><trkpt lat="39.41967207061808" lon="16.008911121497857"><ele>8.0</ele><time>2026-04-18T11:13:41.913Z</time></trkpt><trkpt lat="39.4195222903088" lon="16.009058122539166"><ele>8.0</ele><time>2026-04-18T11:13:42.913Z</time></trkpt><trkpt lat="39.419374333294215" lon="16.00920557762082"><ele>8.666666666666666</ele><time>2026-04-18T11:13:43.913Z</time></trkpt><trkpt lat="39.41922176156383" lon="16.009357989969168"><ele>9.333333333333334</ele><time>2026-04-18T11:13:44.913Z</time></trkpt><trkpt lat="39.419072951953424" lon="16.009505719601812"><ele>10.0</ele><time>2026-04-18T11:13:45.913Z</time></trkpt><trkpt lat="39.418770294596904" lon="16.009808134741366"><ele>11.0</ele><time>2026-04-18T11:13:47.913Z</time></trkpt><trkpt lat="39.418618701229185" lon="16.009958717628884"><ele>12.0</ele><time>2026-04-18T11:13:48.913Z</time></trkpt><trkpt lat="39.418466556233646" lon="16.010111603860373"><ele>13.0</ele><time>2026-04-18T11:13:49.913Z</time></trkpt><trkpt lat="39.41831594679652" lon="16.010261700847117"><ele>14.666666666666666</ele><time>2026-04-18T11:13:50.913Z</time></trkpt><trkpt lat="39.418163350417046" lon="16.01041411886655"><ele>16.333333333333332</ele><time>2026-04-18T11:13:51.913Z</time></trkpt><trkpt lat="39.418018646267235" lon="16.010553086016447"><ele>18.0</ele><time>2026-04-18T11:13:52.913Z</time></trkpt><trkpt lat="39.41787928109905" lon="16.010686384895518"><ele>20.666666666666664</ele><time>2026-04-18T11:13:53.913Z</time></trkpt><trkpt lat="39.41773879728424" lon="16.01082476985486"><ele>23.333333333333332</ele><time>2026-04-18T11:13:54.913Z</time></trkpt><trkpt lat="39.41759793955778" lon="16.01096093854009"><ele>26.0</ele><time>2026-04-18T11:13:55.913Z</time></trkpt><trkpt lat="39.417458355689874" lon="16.011099262849598"><ele>26.0</ele><time>2026-04-18T11:13:56.913Z</time></trkpt><trkpt lat="39.4173250837125" lon="16.01123168362815"><ele>26.0</ele><time>2026-04-18T11:13:57.913Z</time></trkpt><trkpt lat="39.41719681586412" lon="16.0113602522176"><ele>26.0</ele><time>2026-04-18T11:13:58.913Z</time></trkpt><trkpt lat="39.41706940361778" lon="16.01148857368278"><ele>25.666666666666664</ele><time>2026-04-18T11:13:59.913Z</time></trkpt><trkpt lat="39.416936124975365" lon="16.01162757410822"><ele>25.333333333333336</ele><time>2026-04-18T11:14:00.913Z</time></trkpt><trkpt lat="39.416804086973" lon="16.011759612458917"><ele>25.0</ele><time>2026-04-18T11:14:01.913Z</time></trkpt><trkpt lat="39.416669505352196" lon="16.01189142406079"><ele>24.75</ele><time>2026-04-18T11:14:02.913Z</time></trkpt><trkpt lat="39.41654686300624" lon="16.012010824777807"><ele>24.5</ele><time>2026-04-18T11:14:03.913Z</time></trkpt><trkpt lat="39.416433701720024" lon="16.012120598198738"><ele>24.25</ele><time>2026-04-18T11:14:04.913Z</time></trkpt><trkpt lat="39.41632692356318" lon="16.01222955571975"><ele>24.0</ele><time>2026-04-18T11:14:05.913Z</time></trkpt><trkpt lat="39.41621912893408" lon="16.01234100094913"><ele>24.0</ele><time>2026-04-18T11:14:06.913Z</time></trkpt><trkpt lat="39.416097095380245" lon="16.01245808651344"><ele>24.0</ele><time>2026-04-18T11:14:07.913Z</time></trkpt><trkpt lat="39.41597091627735" lon="16.01256977820796"><ele>24.0</ele><time>2026-04-18T11:14:08.913Z</time></trkpt><trkpt lat="39.415856083183" lon="16.01266198589432"><ele>24.0</ele><time>2026-04-18T11:14:09.913Z</time></trkpt><trkpt lat="39.415749852544266" lon="16.012746061764624"><ele>25.25</ele><time>2026-04-18T11:14:10.913Z</time></trkpt><trkpt lat="39.41564282676979" lon="16.012830281476152"><ele>26.5</ele><time>2026-04-18T11:14:11.913Z</time></trkpt><trkpt lat="39.41553543039903" lon="16.012913927327933"><ele>27.75</ele><time>2026-04-18T11:14:12.913Z</time></trkpt><trkpt lat="39.41542209812227" lon="16.012992713125207"><ele>29.0</ele><time>2026-04-18T11:14:13.913Z</time></trkpt><trkpt lat="39.41530784236872" lon="16.013075170925617"><ele>29.0</ele><time>2026-04-18T11:14:14.913Z</time></trkpt><trkpt lat="39.415193055457436" lon="16.013157118619294"><ele>29.0</ele><time>2026-04-18T11:14:15.913Z</time></trkpt><trkpt lat="39.41507527110655" lon="16.01323637743054"><ele>29.0</ele><time>2026-04-18T11:14:16.913Z</time></trkpt><trkpt lat="39.414958254407175" lon="16.01331628469639"><ele>29.0</ele><time>2026-04-18T11:14:17.913Z</time></trkpt><trkpt lat="39.414841728421806" lon="16.01339660308405"><ele>29.25</ele><time>2026-04-18T11:14:18.913Z</time></trkpt><trkpt lat="39.41472260991448" lon="16.013481689841996"><ele>29.5</ele><time>2026-04-18T11:14:19.913Z</time></trkpt><trkpt lat="39.41460184433069" lon="16.013566680321574"><ele>29.75</ele><time>2026-04-18T11:14:20.913Z</time></trkpt><trkpt lat="39.414481855281196" lon="16.013653034984234"><ele>30.0</ele><time>2026-04-18T11:14:21.913Z</time></trkpt><trkpt lat="39.414359685629975" lon="16.01373958758526"><ele>30.0</ele><time>2026-04-18T11:14:22.913Z</time></trkpt><trkpt lat="39.41423685292519" lon="16.01382782611595"><ele>30.0</ele><time>2026-04-18T11:14:23.913Z</time></trkpt><trkpt lat="39.414114852613736" lon="16.013913893379474"><ele>30.0</ele><time>2026-04-18T11:14:24.913Z</time></trkpt><trkpt lat="39.41399289284818" lon="16.013999239521453"><ele>30.0</ele><time>2026-04-18T11:14:25.913Z</time></trkpt><trkpt lat="39.41386707863859" lon="16.014086978671862"><ele>30.5</ele><time>2026-04-18T11:14:26.913Z</time></trkpt><trkpt lat="39.413737813866156" lon="16.014164094480204"><ele>31.0</ele><time>2026-04-18T11:14:27.913Z</time></trkpt><trkpt lat="39.4136048749217" lon="16.014235362831947"><ele>31.5</ele><time>2026-04-18T11:14:28.913Z</time></trkpt><trkpt lat="39.41347123226125" lon="16.014298824854436"><ele>32.0</ele><time>2026-04-18T11:14:29.913Z</time></trkpt><trkpt lat="39.41333831544557" lon="16.01434917908869"><ele>32.0</ele><time>2026-04-18T11:14:30.913Z</time></trkpt><trkpt lat="39.41321044324096" lon="16.01439098106369"><ele>32.0</ele><time>2026-04-18T11:14:31.913Z</time></trkpt><trkpt lat="39.41307645450129" lon="16.014423405628996"><ele>32.0</ele><time>2026-04-18T11:14:32.913Z</time></trkpt><trkpt lat="39.41293472293728" lon="16.014452752585516"><ele>32.0</ele><time>2026-04-18T11:14:33.913Z</time></trkpt><trkpt lat="39.41279617114211" lon="16.014481062824157"><ele>31.25</ele><time>2026-04-18T11:14:34.913Z</time></trkpt><trkpt lat="39.41266302983872" lon="16.01450566766606"><ele>30.5</ele><time>2026-04-18T11:14:35.913Z</time></trkpt><trkpt lat="39.41253028755323" lon="16.014529568689397"><ele>29.75</ele><time>2026-04-18T11:14:36.913Z</time></trkpt><trkpt lat="39.41239019208234" lon="16.014556530222993"><ele>29.0</ele><time>2026-04-18T11:14:37.913Z</time></trkpt><trkpt lat="39.41224132550969" lon="16.014585577241117"><ele>27.666666666666664</ele><time>2026-04-18T11:14:38.913Z</time></trkpt><trkpt lat="39.41209114841825" lon="16.014615740041965"><ele>26.333333333333336</ele><time>2026-04-18T11:14:39.913Z</time></trkpt><trkpt lat="39.411932244756386" lon="16.014644855568523"><ele>25.0</ele><time>2026-04-18T11:14:40.913Z</time></trkpt><trkpt lat="39.41177576791587" lon="16.014672853048033"><ele>25.0</ele><time>2026-04-18T11:14:41.913Z</time></trkpt><trkpt lat="39.41161038740345" lon="16.014705869780254"><ele>25.0</ele><time>2026-04-18T11:14:42.913Z</time></trkpt><trkpt lat="39.41144893116489" lon="16.01473641757632"><ele>25.0</ele><time>2026-04-18T11:14:43.913Z</time></trkpt><trkpt lat="39.411294236765805" lon="16.014765179328155"><ele>23.666666666666668</ele><time>2026-04-18T11:14:44.913Z</time></trkpt><trkpt lat="39.411137985618296" lon="16.014796376507913"><ele>22.333333333333336</ele><time>2026-04-18T11:14:45.913Z</time></trkpt><trkpt lat="39.41098269843283" lon="16.014823751745087"><ele>21.0</ele><time>2026-04-18T11:14:46.913Z</time></trkpt><trkpt lat="39.410815297406074" lon="16.01485790362829"><ele>21.0</ele><time>2026-04-18T11:14:47.913Z</time></trkpt><trkpt lat="39.41064943258923" lon="16.014889976948712"><ele>21.0</ele><time>2026-04-18T11:14:48.913Z</time></trkpt><trkpt lat="39.4104907896924" lon="16.014923090025853"><ele>21.0</ele><time>2026-04-18T11:14:49.913Z</time></trkpt><trkpt lat="39.410336248284224" lon="16.014952571957426"><ele>22.666666666666664</ele><time>2026-04-18T11:14:50.913Z</time></trkpt><trkpt lat="39.41017214170783" lon="16.014982993754145"><ele>24.333333333333332</ele><time>2026-04-18T11:14:51.913Z</time></trkpt><trkpt lat="39.41000973790878" lon="16.01500852303231"><ele>26.0</ele><time>2026-04-18T11:14:52.913Z</time></trkpt><trkpt lat="39.409838856225754" lon="16.015029479528398"><ele>28.666666666666664</ele><time>2026-04-18T11:14:53.913Z</time></trkpt><trkpt lat="39.40966836021361" lon="16.0150376876138"><ele>31.333333333333336</ele><time>2026-04-18T11:14:54.913Z</time></trkpt><trkpt lat="39.4094933648821" lon="16.01503795155751"><ele>34.0</ele><time>2026-04-18T11:14:55.912Z</time></trkpt><trkpt lat="39.40931613771512" lon="16.015028524179787"><ele>34.0</ele><time>2026-04-18T11:14:56.912Z</time></trkpt><trkpt lat="39.40913484625828" lon="16.0150092056828"><ele>34.0</ele><time>2026-04-18T11:14:57.912Z</time></trkpt><trkpt lat="39.40896188339888" lon="16.014984036470597"><ele>34.0</ele><time>2026-04-18T11:14:58.912Z</time></trkpt><trkpt lat="39.408784204605325" lon="16.014959939590174"><ele>31.0</ele><time>2026-04-18T11:14:59.912Z</time></trkpt><trkpt lat="39.40860191821673" lon="16.014935594924626"><ele>28.0</ele><time>2026-04-18T11:15:00.912Z</time></trkpt><trkpt lat="39.40842162101626" lon="16.014915685957497"><ele>25.0</ele><time>2026-04-18T11:15:01.912Z</time></trkpt><trkpt lat="39.40824135589679" lon="16.014896241697365"><ele>25.0</ele><time>2026-04-18T11:15:02.912Z</time></trkpt><trkpt lat="39.40806302095069" lon="16.014875319736706"><ele>25.0</ele><time>2026-04-18T11:15:03.912Z</time></trkpt><trkpt lat="39.407905341940584" lon="16.014858201709387"><ele>25.0</ele><time>2026-04-18T11:15:04.912Z</time></trkpt><trkpt lat="39.40774632998046" lon="16.01483627763033"><ele>24.0</ele><time>2026-04-18T11:15:05.912Z</time></trkpt><trkpt lat="39.4075806290272" lon="16.014810934191985"><ele>23.0</ele><time>2026-04-18T11:15:06.912Z</time></trkpt><trkpt lat="39.40741347308157" lon="16.01478829972156"><ele>22.0</ele><time>2026-04-18T11:15:07.912Z</time></trkpt><trkpt lat="39.40724144495244" lon="16.014760883923778"><ele>20.666666666666664</ele><time>2026-04-18T11:15:08.912Z</time></trkpt><trkpt lat="39.40706892280067" lon="16.014735948261954"><ele>19.333333333333332</ele><time>2026-04-18T11:15:09.912Z</time></trkpt><trkpt lat="39.406890495450384" lon="16.014711403804167"><ele>18.0</ele><time>2026-04-18T11:15:10.912Z</time></trkpt><trkpt lat="39.40671299582405" lon="16.014692970808486"><ele>18.0</ele><time>2026-04-18T11:15:11.912Z</time></trkpt><trkpt lat="39.40652917683693" lon="16.01467188261443"><ele>18.0</ele><time>2026-04-18T11:15:12.912Z</time></trkpt><trkpt lat="39.4063424060205" lon="16.01464887345212"><ele>18.0</ele><time>2026-04-18T11:15:13.912Z</time></trkpt><trkpt lat="39.40615229391202" lon="16.014624402344516"><ele>18.0</ele><time>2026-04-18T11:15:14.912Z</time></trkpt><trkpt lat="39.40597763985664" lon="16.014603800675005"><ele>18.0</ele><time>2026-04-18T11:15:15.912Z</time></trkpt><trkpt lat="39.405804477370104" lon="16.014579235898502"><ele>18.0</ele><time>2026-04-18T11:15:16.912Z</time></trkpt><trkpt lat="39.405640205191226" lon="16.0145585937303"><ele>18.333333333333332</ele><time>2026-04-18T11:15:17.912Z</time></trkpt><trkpt lat="39.40547682924409" lon="16.014538750044377"><ele>18.666666666666664</ele><time>2026-04-18T11:15:18.912Z</time></trkpt><trkpt lat="39.40530397598162" lon="16.01451746590832"><ele>19.0</ele><time>2026-04-18T11:15:19.913Z</time></trkpt><trkpt lat="39.40513059133229" lon="16.014492494217045"><ele>19.0</ele><time>2026-04-18T11:15:20.913Z</time></trkpt><trkpt lat="39.40495301187371" lon="16.014473604034027"><ele>19.0</ele><time>2026-04-18T11:15:21.913Z</time></trkpt><trkpt lat="39.40477190169618" lon="16.014449722431376"><ele>19.0</ele><time>2026-04-18T11:15:22.913Z</time></trkpt><trkpt lat="39.4045858695909" lon="16.014424209620213"><ele>17.333333333333332</ele><time>2026-04-18T11:15:23.913Z</time></trkpt><trkpt lat="39.404400854310786" lon="16.014397486126192"><ele>15.666666666666668</ele><time>2026-04-18T11:15:24.913Z</time></trkpt><trkpt lat="39.40422409897402" lon="16.014378178369874"><ele>14.0</ele><time>2026-04-18T11:15:25.913Z</time></trkpt><trkpt lat="39.40406196540565" lon="16.014354302207483"><ele>14.0</ele><time>2026-04-18T11:15:26.913Z</time></trkpt><trkpt lat="39.4038954548001" lon="16.01434282969413"><ele>14.0</ele><time>2026-04-18T11:15:27.913Z</time></trkpt><trkpt lat="39.403726391336846" lon="16.01432914029187"><ele>14.0</ele><time>2026-04-18T11:15:28.913Z</time></trkpt><trkpt lat="39.40355175724854" lon="16.014312162132832"><ele>13.0</ele><time>2026-04-18T11:15:29.913Z</time></trkpt><trkpt lat="39.403371727598724" lon="16.014300721345226"><ele>12.0</ele><time>2026-04-18T11:15:30.913Z</time></trkpt><trkpt lat="39.40319143393768" lon="16.014303836982133"><ele>11.0</ele><time>2026-04-18T11:15:31.913Z</time></trkpt><trkpt lat="39.40300607333254" lon="16.01432975029181"><ele>10.333333333333332</ele><time>2026-04-18T11:15:32.913Z</time></trkpt><trkpt lat="39.40282035407809" lon="16.014374120687965"><ele>9.666666666666666</ele><time>2026-04-18T11:15:33.913Z</time></trkpt><trkpt lat="39.40263639732514" lon="16.014436801275885"><ele>9.0</ele><time>2026-04-18T11:15:34.913Z</time></trkpt><trkpt lat="39.4024500085718" lon="16.01451614451072"><ele>9.0</ele><time>2026-04-18T11:15:35.913Z</time></trkpt><trkpt lat="39.402264176314425" lon="16.01460428913478"><ele>9.0</ele><time>2026-04-18T11:15:36.913Z</time></trkpt><trkpt lat="39.40208188242932" lon="16.014688430108166"><ele>9.0</ele><time>2026-04-18T11:15:37.913Z</time></trkpt><trkpt lat="39.40190169568734" lon="16.014771245418768"><ele>7.666666666666667</ele><time>2026-04-18T11:15:38.913Z</time></trkpt><trkpt lat="39.401714744597065" lon="16.01485389507588"><ele>6.333333333333334</ele><time>2026-04-18T11:15:39.913Z</time></trkpt><trkpt lat="39.40152841456294" lon="16.014932101331212"><ele>5.0</ele><time>2026-04-18T11:15:40.913Z</time></trkpt><trkpt lat="39.40134150900294" lon="16.01501225991037"><ele>7.0</ele><time>2026-04-18T11:15:41.913Z</time></trkpt><trkpt lat="39.40116403219432" lon="16.01508651025908"><ele>9.0</ele><time>2026-04-18T11:15:42.913Z</time></trkpt><trkpt lat="39.400985830737945" lon="16.015159548338914"><ele>11.0</ele><time>2026-04-18T11:15:43.913Z</time></trkpt><trkpt lat="39.40079918091612" lon="16.015236130601693"><ele>11.0</ele><time>2026-04-18T11:15:44.913Z</time></trkpt><trkpt lat="39.400604401127055" lon="16.015320187731557"><ele>11.0</ele><time>2026-04-18T11:15:45.913Z</time></trkpt><trkpt lat="39.400401821296356" lon="16.015406432086955"><ele>11.0</ele><time>2026-04-18T11:15:46.913Z</time></trkpt><trkpt lat="39.40020472989465" lon="16.015493415482034"><ele>9.666666666666666</ele><time>2026-04-18T11:15:47.913Z</time></trkpt><trkpt lat="39.40001083179395" lon="16.015578204159436"><ele>8.333333333333334</ele><time>2026-04-18T11:15:48.913Z</time></trkpt><trkpt lat="39.3998202431325" lon="16.015662130532085"><ele>7.0</ele><time>2026-04-18T11:15:49.913Z</time></trkpt><trkpt lat="39.3996272197052" lon="16.01574603516915"><ele>9.333333333333334</ele><time>2026-04-18T11:15:50.913Z</time></trkpt><trkpt lat="39.39943221188298" lon="16.015830554951318"><ele>11.666666666666668</ele><time>2026-04-18T11:15:51.913Z</time></trkpt><trkpt lat="39.39924078613068" lon="16.01591472520873"><ele>14.0</ele><time>2026-04-18T11:15:52.913Z</time></trkpt><trkpt lat="39.399044053294034" lon="16.015998188377946"><ele>14.0</ele><time>2026-04-18T11:15:53.913Z</time></trkpt><trkpt lat="39.39885199593685" lon="16.016081169167467"><ele>14.0</ele><time>2026-04-18T11:15:54.913Z</time></trkpt><trkpt lat="39.39866134232089" lon="16.016160932017804"><ele>14.0</ele><time>2026-04-18T11:15:55.913Z</time></trkpt><trkpt lat="39.398472303010216" lon="16.016238396260608"><ele>12.333333333333334</ele><time>2026-04-18T11:15:56.913Z</time></trkpt><trkpt lat="39.39827744715414" lon="16.016316841758396"><ele>10.666666666666668</ele><time>2026-04-18T11:15:57.913Z</time></trkpt><trkpt lat="39.39808706013824" lon="16.01639176459216"><ele>9.0</ele><time>2026-04-18T11:15:58.913Z</time></trkpt><trkpt lat="39.39789629312519" lon="16.01647340384765"><ele>10.0</ele><time>2026-04-18T11:15:59.913Z</time></trkpt><trkpt lat="39.39770245394228" lon="16.01655744022795"><ele>11.0</ele><time>2026-04-18T11:16:00.913Z</time></trkpt><trkpt lat="39.397505652986204" lon="16.0166404116877"><ele>12.0</ele><time>2026-04-18T11:16:01.913Z</time></trkpt><trkpt lat="39.39731373174031" lon="16.01672096804878"><ele>10.333333333333334</ele><time>2026-04-18T11:16:02.913Z</time></trkpt><trkpt lat="39.3971156108827" lon="16.016803228670305"><ele>8.666666666666668</ele><time>2026-04-18T11:16:03.913Z</time></trkpt><trkpt lat="39.396920528501006" lon="16.016884405143852"><ele>7.0</ele><time>2026-04-18T11:16:04.913Z</time></trkpt><trkpt lat="39.39672765404741" lon="16.016965874935327"><ele>7.0</ele><time>2026-04-18T11:16:05.913Z</time></trkpt><trkpt lat="39.39654583026395" lon="16.01704139143195"><ele>7.0</ele><time>2026-04-18T11:16:06.913Z</time></trkpt><trkpt lat="39.39636766601909" lon="16.017109602710402"><ele>7.0</ele><time>2026-04-18T11:16:07.913Z</time></trkpt><trkpt lat="39.39618339990117" lon="16.01717295940309"><ele>6.333333333333334</ele><time>2026-04-18T11:16:08.913Z</time></trkpt><trkpt lat="39.39600444432348" lon="16.017231031344963"><ele>5.666666666666667</ele><time>2026-04-18T11:16:09.913Z</time></trkpt><trkpt lat="39.39581937871282" lon="16.017292406749426"><ele>5.0</ele><time>2026-04-18T11:16:10.913Z</time></trkpt><trkpt lat="39.39563443121362" lon="16.01735548936753"><ele>4.333333333333334</ele><time>2026-04-18T11:16:11.913Z</time></trkpt><trkpt lat="39.39544120653845" lon="16.017424110703594"><ele>3.666666666666667</ele><time>2026-04-18T11:16:12.913Z</time></trkpt><trkpt lat="39.39525231241365" lon="16.01748519046809"><ele>3.0</ele><time>2026-04-18T11:16:13.913Z</time></trkpt><trkpt lat="39.39505523477766" lon="16.017548251275418"><ele>4.333333333333334</ele><time>2026-04-18T11:16:14.913Z</time></trkpt><trkpt lat="39.3948553208644" lon="16.01761217702822"><ele>5.666666666666667</ele><time>2026-04-18T11:16:15.913Z</time></trkpt><trkpt lat="39.39465525968446" lon="16.01767810685596"><ele>7.0</ele><time>2026-04-18T11:16:16.913Z</time></trkpt><trkpt lat="39.39445559047118" lon="16.017745584316827"><ele>7.0</ele><time>2026-04-18T11:16:17.913Z</time></trkpt><trkpt lat="39.39426008528231" lon="16.017810283326707"><ele>7.0</ele><time>2026-04-18T11:16:18.913Z</time></trkpt><trkpt lat="39.39406504123303" lon="16.017874996456857"><ele>7.0</ele><time>2026-04-18T11:16:19.913Z</time></trkpt><trkpt lat="39.39387599114602" lon="16.01793769540049"><ele>6.666666666666667</ele><time>2026-04-18T11:16:20.913Z</time></trkpt><trkpt lat="39.39368201799127" lon="16.018003900395662"><ele>6.333333333333334</ele><time>2026-04-18T11:16:21.913Z</time></trkpt><trkpt lat="39.393489659777764" lon="16.018070289314835"><ele>6.0</ele><time>2026-04-18T11:16:22.913Z</time></trkpt><trkpt lat="39.393294932329866" lon="16.018138112314983"><ele>6.0</ele><time>2026-04-18T11:16:23.912Z</time></trkpt><trkpt lat="39.39310712457654" lon="16.01820929243341"><ele>6.0</ele><time>2026-04-18T11:16:24.912Z</time></trkpt><trkpt lat="39.39292346851684" lon="16.018293851575006"><ele>6.0</ele><time>2026-04-18T11:16:25.912Z</time></trkpt><trkpt lat="39.39274388489956" lon="16.018392217743333"><ele>7.0</ele><time>2026-04-18T11:16:26.912Z</time></trkpt><trkpt lat="39.392562979116505" lon="16.01850603717834"><ele>8.0</ele><time>2026-04-18T11:16:27.912Z</time></trkpt><trkpt lat="39.39238776683016" lon="16.01861920628369"><ele>9.0</ele><time>2026-04-18T11:16:28.912Z</time></trkpt><trkpt lat="39.39221198266648" lon="16.018735910051056"><ele>8.333333333333334</ele><time>2026-04-18T11:16:29.912Z</time></trkpt><trkpt lat="39.39203399280637" lon="16.018850561961976"><ele>7.666666666666667</ele><time>2026-04-18T11:16:30.912Z</time></trkpt><trkpt lat="39.3918564270137" lon="16.018969035001497"><ele>7.0</ele><time>2026-04-18T11:16:31.912Z</time></trkpt><trkpt lat="39.39168263898632" lon="16.01908406934404"><ele>7.666666666666667</ele><time>2026-04-18T11:16:32.912Z</time></trkpt><trkpt lat="39.39150600971251" lon="16.019198238307457"><ele>8.333333333333334</ele><time>2026-04-18T11:16:33.912Z</time></trkpt><trkpt lat="39.39132801216255" lon="16.019309344685247"><ele>9.0</ele><time>2026-04-18T11:16:34.912Z</time></trkpt><trkpt lat="39.391154851033036" lon="16.01942064164799"><ele>9.0</ele><time>2026-04-18T11:16:35.912Z</time></trkpt><trkpt lat="39.390978111453514" lon="16.019539091974355"><ele>9.0</ele><time>2026-04-18T11:16:36.912Z</time></trkpt><trkpt lat="39.39080432466506" lon="16.019655131612375"><ele>9.0</ele><time>2026-04-18T11:16:37.912Z</time></trkpt><trkpt lat="39.390628311249344" lon="16.019771644093503"><ele>8.0</ele><time>2026-04-18T11:16:38.912Z</time></trkpt><trkpt lat="39.390452574888144" lon="16.019886611650133"><ele>7.0</ele><time>2026-04-18T11:16:39.912Z</time></trkpt><trkpt lat="39.39027720412784" lon="16.02000060875838"><ele>6.0</ele><time>2026-04-18T11:16:40.912Z</time></trkpt><trkpt lat="39.39009852716158" lon="16.020116932087053"><ele>6.0</ele><time>2026-04-18T11:16:41.912Z</time></trkpt><trkpt lat="39.389919830197066" lon="16.020233170725916"><ele>6.0</ele><time>2026-04-18T11:16:42.912Z</time></trkpt><trkpt lat="39.38974368385744" lon="16.020350148871074"><ele>6.0</ele><time>2026-04-18T11:16:43.912Z</time></trkpt><trkpt lat="39.3895818388287" lon="16.020456255579337"><ele>6.0</ele><time>2026-04-18T11:16:44.912Z</time></trkpt><trkpt lat="39.38942469958382" lon="16.02055701579925"><ele>6.0</ele><time>2026-04-18T11:16:45.912Z</time></trkpt><trkpt lat="39.38927621913371" lon="16.02065437452855"><ele>6.0</ele><time>2026-04-18T11:16:46.912Z</time></trkpt><trkpt lat="39.389129184881526" lon="16.020746642254423"><ele>6.333333333333334</ele><time>2026-04-18T11:16:47.912Z</time></trkpt><trkpt lat="39.38899225382068" lon="16.020831717435694"><ele>6.666666666666667</ele><time>2026-04-18T11:16:48.912Z</time></trkpt><trkpt lat="39.38885529817398" lon="16.020919696357655"><ele>7.0</ele><time>2026-04-18T11:16:49.912Z</time></trkpt><trkpt lat="39.388715916833455" lon="16.02100793341063"><ele>7.0</ele><time>2026-04-18T11:16:50.912Z</time></trkpt><trkpt lat="39.388576239212526" lon="16.02109830643716"><ele>7.0</ele><time>2026-04-18T11:16:51.912Z</time></trkpt><trkpt lat="39.388432424034505" lon="16.021189064496873"><ele>7.0</ele><time>2026-04-18T11:16:52.912Z</time></trkpt><trkpt lat="39.38828879991671" lon="16.021283088349538"><ele>7.0</ele><time>2026-04-18T11:16:53.912Z</time></trkpt><trkpt lat="39.38815745280727" lon="16.021369959079628"><ele>7.0</ele><time>2026-04-18T11:16:54.912Z</time></trkpt><trkpt lat="39.3880363095271" lon="16.02145064520472"><ele>7.0</ele><time>2026-04-18T11:16:55.912Z</time></trkpt><trkpt lat="39.38791712399844" lon="16.02152451275922"><ele>7.0</ele><time>2026-04-18T11:16:56.912Z</time></trkpt><trkpt lat="39.38780187945743" lon="16.02158226533324"><ele>6.6</ele><time>2026-04-18T11:16:57.912Z</time></trkpt><trkpt lat="39.38768752112167" lon="16.021623806242122"><ele>6.199999999999999</ele><time>2026-04-18T11:16:58.912Z</time></trkpt><trkpt lat="39.387584187544604" lon="16.0216316762627"><ele>5.8</ele><time>2026-04-18T11:16:59.912Z</time></trkpt><trkpt lat="39.387479380217044" lon="16.02161661152752"><ele>5.4</ele><time>2026-04-18T11:17:00.912Z</time></trkpt><trkpt lat="39.38736809819956" lon="16.021641686783827"><ele>5.0</ele><time>2026-04-18T11:17:01.912Z</time></trkpt><trkpt lat="39.38724416696212" lon="16.021584389668572"><ele>5.75</ele><time>2026-04-18T11:17:02.912Z</time></trkpt><trkpt lat="39.38711490592494" lon="16.021558426031365"><ele>6.5</ele><time>2026-04-18T11:17:03.912Z</time></trkpt><trkpt lat="39.38698051462779" lon="16.021524720820704"><ele>7.25</ele><time>2026-04-18T11:17:04.912Z</time></trkpt><trkpt lat="39.38684020357272" lon="16.021488094984573"><ele>8.0</ele><time>2026-04-18T11:17:05.912Z</time></trkpt><trkpt lat="39.38669800622696" lon="16.021451030685103"><ele>8.0</ele><time>2026-04-18T11:17:06.912Z</time></trkpt><trkpt lat="39.38655052475748" lon="16.02141387690812"><ele>8.0</ele><time>2026-04-18T11:17:07.912Z</time></trkpt><trkpt lat="39.386393028432494" lon="16.02137546314454"><ele>8.0</ele><time>2026-04-18T11:17:08.912Z</time></trkpt><trkpt lat="39.3862329884841" lon="16.021342857537917"><ele>7.666666666666666</ele><time>2026-04-18T11:17:09.912Z</time></trkpt><trkpt lat="39.386080604381654" lon="16.021322849457068"><ele>7.333333333333334</ele><time>2026-04-18T11:17:10.912Z</time></trkpt><trkpt lat="39.38592752825898" lon="16.02132464253346"><ele>7.0</ele><time>2026-04-18T11:17:11.912Z</time></trkpt><trkpt lat="39.38576233718553" lon="16.021359623624626"><ele>7.0</ele><time>2026-04-18T11:17:12.912Z</time></trkpt><trkpt lat="39.3855882484505" lon="16.021426929349296"><ele>7.0</ele><time>2026-04-18T11:17:13.912Z</time></trkpt><trkpt lat="39.38541981751754" lon="16.021514124881335"><ele>7.0</ele><time>2026-04-18T11:17:14.912Z</time></trkpt><trkpt lat="39.38526776603102" lon="16.021604666231987"><ele>8.333333333333334</ele><time>2026-04-18T11:17:15.912Z</time></trkpt><trkpt lat="39.38512305097622" lon="16.02169029843818"><ele>9.666666666666666</ele><time>2026-04-18T11:17:16.912Z</time></trkpt><trkpt lat="39.38497676754561" lon="16.02177380619399"><ele>11.0</ele><time>2026-04-18T11:17:17.912Z</time></trkpt><trkpt lat="39.38482312361544" lon="16.021855970581527"><ele>10.0</ele><time>2026-04-18T11:17:18.912Z</time></trkpt><trkpt lat="39.384665710050896" lon="16.021937984811775"><ele>9.0</ele><time>2026-04-18T11:17:19.912Z</time></trkpt><trkpt lat="39.38451536148698" lon="16.022012500970146"><ele>8.0</ele><time>2026-04-18T11:17:20.912Z</time></trkpt><trkpt lat="39.38437032316063" lon="16.022083174148655"><ele>8.0</ele><time>2026-04-18T11:17:21.912Z</time></trkpt><trkpt lat="39.38422432323954" lon="16.022164199278272"><ele>8.0</ele><time>2026-04-18T11:17:22.912Z</time></trkpt><trkpt lat="39.384074168131654" lon="16.02224971728674"><ele>8.0</ele><time>2026-04-18T11:17:23.912Z</time></trkpt><trkpt lat="39.38392596093935" lon="16.02232986707616"><ele>8.0</ele><time>2026-04-18T11:17:24.912Z</time></trkpt><trkpt lat="39.383776499966814" lon="16.022409176230653"><ele>8.0</ele><time>2026-04-18T11:17:25.913Z</time></trkpt><trkpt lat="39.3836302330305" lon="16.02248212804904"><ele>8.0</ele><time>2026-04-18T11:17:26.913Z</time></trkpt><trkpt lat="39.38348105293833" lon="16.022558913634356"><ele>8.0</ele><time>2026-04-18T11:17:27.913Z</time></trkpt><trkpt lat="39.38333199244674" lon="16.022640802394505"><ele>8.0</ele><time>2026-04-18T11:17:28.913Z</time></trkpt><trkpt lat="39.383178492931975" lon="16.02272511694658"><ele>8.0</ele><time>2026-04-18T11:17:29.913Z</time></trkpt><trkpt lat="39.383027911487176" lon="16.022806420175797"><ele>7.333333333333333</ele><time>2026-04-18T11:17:30.913Z</time></trkpt><trkpt lat="39.38286697474852" lon="16.022891459246964"><ele>6.666666666666666</ele><time>2026-04-18T11:17:31.913Z</time></trkpt><trkpt lat="39.38270735815459" lon="16.0229745157787"><ele>6.0</ele><time>2026-04-18T11:17:32.913Z</time></trkpt><trkpt lat="39.382547490471694" lon="16.023059323028665"><ele>6.0</ele><time>2026-04-18T11:17:33.913Z</time></trkpt><trkpt lat="39.38239357165714" lon="16.023142480612915"><ele>6.0</ele><time>2026-04-18T11:17:34.913Z</time></trkpt><trkpt lat="39.382248899734755" lon="16.02322132407805"><ele>6.0</ele><time>2026-04-18T11:17:35.913Z</time></trkpt><trkpt lat="39.38210216215238" lon="16.023303921458904"><ele>6.0</ele><time>2026-04-18T11:17:36.913Z</time></trkpt><trkpt lat="39.381947903745896" lon="16.02339102043704"><ele>6.0</ele><time>2026-04-18T11:17:37.913Z</time></trkpt><trkpt lat="39.38179156293876" lon="16.02347796839014"><ele>6.0</ele><time>2026-04-18T11:17:38.913Z</time></trkpt><trkpt lat="39.38163459056313" lon="16.02356293597754"><ele>6.0</ele><time>2026-04-18T11:17:39.913Z</time></trkpt><trkpt lat="39.38147445693382" lon="16.023647588644916"><ele>6.0</ele><time>2026-04-18T11:17:40.913Z</time></trkpt><trkpt lat="39.3813086800146" lon="16.023731358610956"><ele>6.0</ele><time>2026-04-18T11:17:41.913Z</time></trkpt><trkpt lat="39.38114405645082" lon="16.023815769637693"><ele>6.0</ele><time>2026-04-18T11:17:42.913Z</time></trkpt><trkpt lat="39.38097987537" lon="16.023904006988857"><ele>6.0</ele><time>2026-04-18T11:17:43.913Z</time></trkpt><trkpt lat="39.38081886804057" lon="16.023992904274888"><ele>6.0</ele><time>2026-04-18T11:17:44.913Z</time></trkpt><trkpt lat="39.38065525683664" lon="16.024081898404084"><ele>6.0</ele><time>2026-04-18T11:17:45.913Z</time></trkpt><trkpt lat="39.3804960993212" lon="16.02416555092379"><ele>6.0</ele><time>2026-04-18T11:17:46.913Z</time></trkpt><trkpt lat="39.380346485494265" lon="16.024241712460203"><ele>6.0</ele><time>2026-04-18T11:17:47.913Z</time></trkpt><trkpt lat="39.380195563092904" lon="16.024320252101457"><ele>6.0</ele><time>2026-04-18T11:17:48.913Z</time></trkpt><trkpt lat="39.38003959853654" lon="16.024403094947182"><ele>6.0</ele><time>2026-04-18T11:17:49.913Z</time></trkpt><trkpt lat="39.37988086973842" lon="16.024487365058302"><ele>6.0</ele><time>2026-04-18T11:17:50.913Z</time></trkpt><trkpt lat="39.37971917269421" lon="16.024571872360212"><ele>5.666666666666667</ele><time>2026-04-18T11:17:51.913Z</time></trkpt><trkpt lat="39.37955338143197" lon="16.02465542707019"><ele>5.333333333333334</ele><time>2026-04-18T11:17:52.913Z</time></trkpt><trkpt lat="39.379386045791534" lon="16.024732290365012"><ele>5.0</ele><time>2026-04-18T11:17:53.912Z</time></trkpt><trkpt lat="39.37923019970415" lon="16.024798580463905"><ele>5.0</ele><time>2026-04-18T11:17:54.912Z</time></trkpt><trkpt lat="39.379084886702834" lon="16.024857047721145"><ele>5.0</ele><time>2026-04-18T11:17:55.912Z</time></trkpt><trkpt lat="39.378942553422526" lon="16.024910153756583"><ele>5.0</ele><time>2026-04-18T11:17:56.912Z</time></trkpt><trkpt lat="39.37880520560781" lon="16.02496198000611"><ele>5.0</ele><time>2026-04-18T11:17:57.912Z</time></trkpt><trkpt lat="39.37866160299562" lon="16.025016748416256"><ele>5.666666666666667</ele><time>2026-04-18T11:17:58.912Z</time></trkpt><trkpt lat="39.3785144619858" lon="16.02507317501597"><ele>6.333333333333334</ele><time>2026-04-18T11:17:59.912Z</time></trkpt><trkpt lat="39.37836250939065" lon="16.025130003154867"><ele>7.0</ele><time>2026-04-18T11:18:00.912Z</time></trkpt><trkpt lat="39.378208428681326" lon="16.025186065325705"><ele>7.0</ele><time>2026-04-18T11:18:01.912Z</time></trkpt><trkpt lat="39.37805077093729" lon="16.025247075475928"><ele>7.0</ele><time>2026-04-18T11:18:02.912Z</time></trkpt><trkpt lat="39.377890914425144" lon="16.025309037898158"><ele>7.0</ele><time>2026-04-18T11:18:03.912Z</time></trkpt><trkpt lat="39.377730746537424" lon="16.025371168909448"><ele>7.0</ele><time>2026-04-18T11:18:04.912Z</time></trkpt><trkpt lat="39.37756752514894" lon="16.025435656481918"><ele>7.0</ele><time>2026-04-18T11:18:05.912Z</time></trkpt><trkpt lat="39.3774124978025" lon="16.025493020611403"><ele>7.0</ele><time>2026-04-18T11:18:06.912Z</time></trkpt><trkpt lat="39.3772521093768" lon="16.025551082008217"><ele>6.666666666666667</ele><time>2026-04-18T11:18:07.912Z</time></trkpt><trkpt lat="39.37709243700724" lon="16.025614167770403"><ele>6.333333333333334</ele><time>2026-04-18T11:18:08.912Z</time></trkpt><trkpt lat="39.37694403870083" lon="16.025668320688048"><ele>6.0</ele><time>2026-04-18T11:18:09.912Z</time></trkpt><trkpt lat="39.376789199035294" lon="16.02572678237434"><ele>6.0</ele><time>2026-04-18T11:18:10.912Z</time></trkpt><trkpt lat="39.37662925490977" lon="16.025786682309228"><ele>6.0</ele><time>2026-04-18T11:18:11.912Z</time></trkpt><trkpt lat="39.37647472066282" lon="16.02584571555454"><ele>6.0</ele><time>2026-04-18T11:18:12.912Z</time></trkpt><trkpt lat="39.37633574960696" lon="16.02590121437004"><ele>6.25</ele><time>2026-04-18T11:18:13.912Z</time></trkpt><trkpt lat="39.37620067758437" lon="16.02595554236833"><ele>6.5</ele><time>2026-04-18T11:18:14.912Z</time></trkpt><trkpt lat="39.37605827046993" lon="16.026012399188463"><ele>6.75</ele><time>2026-04-18T11:18:15.912Z</time></trkpt><trkpt lat="39.375906366272346" lon="16.026072062095533"><ele>7.0</ele><time>2026-04-18T11:18:16.912Z</time></trkpt><trkpt lat="39.37575700666304" lon="16.026127566678554"><ele>7.0</ele><time>2026-04-18T11:18:17.912Z</time></trkpt><trkpt lat="39.375612282307145" lon="16.02618210914438"><ele>7.0</ele><time>2026-04-18T11:18:18.912Z</time></trkpt><trkpt lat="39.375467451438986" lon="16.02623606681501"><ele>7.0</ele><time>2026-04-18T11:18:19.912Z</time></trkpt><trkpt lat="39.375320131025354" lon="16.02629197882611"><ele>6.666666666666667</ele><time>2026-04-18T11:18:20.912Z</time></trkpt><trkpt lat="39.375164598639465" lon="16.02635363729194"><ele>6.333333333333334</ele><time>2026-04-18T11:18:21.912Z</time></trkpt><trkpt lat="39.37501015360952" lon="16.02641194485142"><ele>6.0</ele><time>2026-04-18T11:18:22.912Z</time></trkpt><trkpt lat="39.37485504166086" lon="16.026467344221658"><ele>6.0</ele><time>2026-04-18T11:18:23.912Z</time></trkpt><trkpt lat="39.37470041097657" lon="16.026524195254506"><ele>6.0</ele><time>2026-04-18T11:18:24.912Z</time></trkpt><trkpt lat="39.3745472314825" lon="16.026579272645783"><ele>6.0</ele><time>2026-04-18T11:18:25.911Z</time></trkpt><trkpt lat="39.374397851382604" lon="16.026636573666543"><ele>6.25</ele><time>2026-04-18T11:18:26.911Z</time></trkpt><trkpt lat="39.37424978460018" lon="16.026694322476867"><ele>6.5</ele><time>2026-04-18T11:18:27.911Z</time></trkpt><trkpt lat="39.37411093536493" lon="16.026746601481417"><ele>6.75</ele><time>2026-04-18T11:18:28.911Z</time></trkpt><trkpt lat="39.37398267648353" lon="16.026794625530236"><ele>7.0</ele><time>2026-04-18T11:18:29.911Z</time></trkpt><trkpt lat="39.373855590288116" lon="16.026841570892515"><ele>6.75</ele><time>2026-04-18T11:18:30.911Z</time></trkpt><trkpt lat="39.37374000912021" lon="16.02688051460966"><ele>6.5</ele><time>2026-04-18T11:18:31.911Z</time></trkpt><trkpt lat="39.37362454477579" lon="16.026919227474707"><ele>6.25</ele><time>2026-04-18T11:18:32.911Z</time></trkpt><trkpt lat="39.373516921793545" lon="16.02695782411224"><ele>6.0</ele><time>2026-04-18T11:18:33.911Z</time></trkpt><trkpt lat="39.37341874451964" lon="16.0269963619477"><ele>6.0</ele><time>2026-04-18T11:18:34.911Z</time></trkpt><trkpt lat="39.37331666950395" lon="16.027038501558533"><ele>6.0</ele><time>2026-04-18T11:18:35.911Z</time></trkpt><trkpt lat="39.3732076028731" lon="16.027080605901595"><ele>6.0</ele><time>2026-04-18T11:18:36.911Z</time></trkpt><trkpt lat="39.37309493881462" lon="16.027122562754762"><ele>6.0</ele><time>2026-04-18T11:18:37.911Z</time></trkpt><trkpt lat="39.37297969008181" lon="16.027167480915573"><ele>6.0</ele><time>2026-04-18T11:18:38.911Z</time></trkpt><trkpt lat="39.372855415690864" lon="16.027212026346533"><ele>6.0</ele><time>2026-04-18T11:18:39.911Z</time></trkpt><trkpt lat="39.3727329037311" lon="16.02725661199107"><ele>6.0</ele><time>2026-04-18T11:18:40.911Z</time></trkpt><trkpt lat="39.372601552850085" lon="16.027307971829863"><ele>6.0</ele><time>2026-04-18T11:18:41.911Z</time></trkpt><trkpt lat="39.37247795988501" lon="16.02735591091551"><ele>6.0</ele><time>2026-04-18T11:18:42.911Z</time></trkpt><trkpt lat="39.37236043779186" lon="16.027404034946326"><ele>6.0</ele><time>2026-04-18T11:18:43.911Z</time></trkpt><trkpt lat="39.37224591295941" lon="16.027447840842587"><ele>6.0</ele><time>2026-04-18T11:18:44.911Z</time></trkpt><trkpt lat="39.372129995393784" lon="16.02749007988392"><ele>6.0</ele><time>2026-04-18T11:18:45.911Z</time></trkpt><trkpt lat="39.37201137637173" lon="16.027531611513496"><ele>6.5</ele><time>2026-04-18T11:18:46.911Z</time></trkpt><trkpt lat="39.371888241578915" lon="16.02757434573837"><ele>7.0</ele><time>2026-04-18T11:18:47.911Z</time></trkpt><trkpt lat="39.37176310598388" lon="16.02761720469753"><ele>7.5</ele><time>2026-04-18T11:18:48.911Z</time></trkpt><trkpt lat="39.37164529733058" lon="16.02765414081944"><ele>8.0</ele><time>2026-04-18T11:18:49.911Z</time></trkpt><trkpt lat="39.37153723965614" lon="16.027685331008357"><ele>8.0</ele><time>2026-04-18T11:18:50.911Z</time></trkpt><trkpt lat="39.37143080133741" lon="16.027716315715313"><ele>8.0</ele><time>2026-04-18T11:18:51.911Z</time></trkpt><trkpt lat="39.37132211450863" lon="16.02775242669516"><ele>8.0</ele><time>2026-04-18T11:18:52.911Z</time></trkpt><trkpt lat="39.37121226109678" lon="16.027792524114783"><ele>8.0</ele><time>2026-04-18T11:18:53.911Z</time></trkpt><trkpt lat="39.37110577745419" lon="16.027832226889373"><ele>8.0</ele><time>2026-04-18T11:18:54.911Z</time></trkpt><trkpt lat="39.37101072262411" lon="16.02786380226449"><ele>7.833333333333333</ele><time>2026-04-18T11:18:55.911Z</time></trkpt><trkpt lat="39.370927097529176" lon="16.027888824397763"><ele>7.666666666666666</ele><time>2026-04-18T11:18:56.911Z</time></trkpt><trkpt lat="39.37086167782657" lon="16.027898157557896"><ele>7.5</ele><time>2026-04-18T11:18:57.911Z</time></trkpt><trkpt lat="39.37077155300577" lon="16.02787345010526"><ele>7.333333333333334</ele><time>2026-04-18T11:18:59.911Z</time></trkpt><trkpt lat="39.370710384836144" lon="16.02791533717054"><ele>7.166666666666667</ele><time>2026-04-18T11:19:59.911Z</time></trkpt><trkpt lat="39.37066397585339" lon="16.02799145975006"><ele>7.0</ele><time>2026-04-18T11:20:15.911Z</time></trkpt><trkpt lat="39.37081564087025" lon="16.027989460775945"><ele>7.0</ele><time>2026-04-18T11:20:19.911Z</time></trkpt><trkpt lat="39.37089268444875" lon="16.027933972885652"><ele>7.0</ele><time>2026-04-18T11:20:20.911Z</time></trkpt><trkpt lat="39.37099054202647" lon="16.02790385176761"><ele>7.0</ele><time>2026-04-18T11:20:21.911Z</time></trkpt><trkpt lat="39.37112110817366" lon="16.027861888565955"><ele>7.0</ele><time>2026-04-18T11:20:22.911Z</time></trkpt><trkpt lat="39.37129580417515" lon="16.0278074572029"><ele>7.5</ele><time>2026-04-18T11:20:23.911Z</time></trkpt><trkpt lat="39.371516919813985" lon="16.02773738257659"><ele>8.0</ele><time>2026-04-18T11:20:24.911Z</time></trkpt><trkpt lat="39.37176810266445" lon="16.02764463349138"><ele>8.0</ele><time>2026-04-18T11:20:25.911Z</time></trkpt><trkpt lat="39.371991636813675" lon="16.02758815244813"><ele>8.0</ele><time>2026-04-18T11:20:26.911Z</time></trkpt><trkpt lat="39.37218480628759" lon="16.027510455036275"><ele>8.0</ele><time>2026-04-18T11:20:27.911Z</time></trkpt><trkpt lat="39.37235765525784" lon="16.027430402953232"><ele>7.333333333333333</ele><time>2026-04-18T11:20:28.911Z</time></trkpt><trkpt lat="39.372530309268484" lon="16.02737195776165"><ele>6.666666666666666</ele><time>2026-04-18T11:20:29.911Z</time></trkpt><trkpt lat="39.37269226835713" lon="16.027310816258442"><ele>6.0</ele><time>2026-04-18T11:20:30.911Z</time></trkpt><trkpt lat="39.372848373249326" lon="16.027253096507298"><ele>6.0</ele><time>2026-04-18T11:20:31.911Z</time></trkpt><trkpt lat="39.37299758536533" lon="16.027196268896517"><ele>6.0</ele><time>2026-04-18T11:20:32.911Z</time></trkpt><trkpt lat="39.37313333988008" lon="16.027144514974523"><ele>6.0</ele><time>2026-04-18T11:20:33.911Z</time></trkpt><trkpt lat="39.37327604119105" lon="16.027088993759914"><ele>6.0</ele><time>2026-04-18T11:20:34.911Z</time></trkpt><trkpt lat="39.37343867123611" lon="16.027029067115205"><ele>6.0</ele><time>2026-04-18T11:20:35.911Z</time></trkpt><trkpt lat="39.37359323385153" lon="16.026969607577257"><ele>6.0</ele><time>2026-04-18T11:20:36.911Z</time></trkpt><trkpt lat="39.37373195480362" lon="16.02691529956033"><ele>6.0</ele><time>2026-04-18T11:20:37.911Z</time></trkpt><trkpt lat="39.37386232795948" lon="16.026865889546396"><ele>6.0</ele><time>2026-04-18T11:20:38.911Z</time></trkpt><trkpt lat="39.37398773018774" lon="16.026822380594968"><ele>6.25</ele><time>2026-04-18T11:20:39.911Z</time></trkpt><trkpt lat="39.374118279631915" lon="16.026776778360425"><ele>6.5</ele><time>2026-04-18T11:20:40.911Z</time></trkpt><trkpt lat="39.37425375119799" lon="16.026727450382825"><ele>6.75</ele><time>2026-04-18T11:20:41.911Z</time></trkpt><trkpt lat="39.37439309024652" lon="16.026674176554852"><ele>7.0</ele><time>2026-04-18T11:20:42.911Z</time></trkpt><trkpt lat="39.37453367326469" lon="16.026621585505964"><ele>6.666666666666667</ele><time>2026-04-18T11:20:43.911Z</time></trkpt><trkpt lat="39.37467118307492" lon="16.026570564835907"><ele>6.333333333333334</ele><time>2026-04-18T11:20:44.911Z</time></trkpt><trkpt lat="39.37481099442927" lon="16.026508530896695"><ele>6.0</ele><time>2026-04-18T11:20:45.911Z</time></trkpt><trkpt lat="39.37498633888403" lon="16.02646301514197"><ele>6.0</ele><time>2026-04-18T11:20:46.911Z</time></trkpt><trkpt lat="39.375168240908785" lon="16.02639283977195"><ele>6.0</ele><time>2026-04-18T11:20:47.911Z</time></trkpt><trkpt lat="39.375374521651366" lon="16.026313874401612"><ele>6.0</ele><time>2026-04-18T11:20:48.911Z</time></trkpt><trkpt lat="39.37558823788477" lon="16.026218997997795"><ele>6.333333333333334</ele><time>2026-04-18T11:20:49.911Z</time></trkpt><trkpt lat="39.37579338920452" lon="16.026149550578644"><ele>6.666666666666667</ele><time>2026-04-18T11:20:50.911Z</time></trkpt><trkpt lat="39.375970844218784" lon="16.02608321765443"><ele>7.0</ele><time>2026-04-18T11:20:51.911Z</time></trkpt><trkpt lat="39.37615196675274" lon="16.02601117544833"><ele>7.0</ele><time>2026-04-18T11:20:52.911Z</time></trkpt><trkpt lat="39.376363887568324" lon="16.025929319764284"><ele>7.0</ele><time>2026-04-18T11:20:53.911Z</time></trkpt><trkpt lat="39.37658633575127" lon="16.025836694041242"><ele>6.666666666666667</ele><time>2026-04-18T11:20:54.911Z</time></trkpt><trkpt lat="39.376783445615175" lon="16.025768735135006"><ele>6.333333333333334</ele><time>2026-04-18T11:20:55.911Z</time></trkpt><trkpt lat="39.376961178438776" lon="16.025695498541225"><ele>6.0</ele><time>2026-04-18T11:20:56.911Z</time></trkpt><trkpt lat="39.37713192910779" lon="16.025633505643903"><ele>6.333333333333334</ele><time>2026-04-18T11:20:57.911Z</time></trkpt><trkpt lat="39.37730879628008" lon="16.02556785347132"><ele>6.666666666666667</ele><time>2026-04-18T11:20:58.911Z</time></trkpt><trkpt lat="39.377495427198504" lon="16.02549803337361"><ele>7.0</ele><time>2026-04-18T11:20:59.911Z</time></trkpt><trkpt lat="39.37769565649518" lon="16.025422905490633"><ele>7.0</ele><time>2026-04-18T11:21:00.911Z</time></trkpt><trkpt lat="39.377894146786275" lon="16.0253454220702"><ele>7.0</ele><time>2026-04-18T11:21:01.911Z</time></trkpt><trkpt lat="39.37809985760347" lon="16.02526652772083"><ele>7.0</ele><time>2026-04-18T11:21:02.911Z</time></trkpt><trkpt lat="39.37829864925731" lon="16.025191347892992"><ele>7.0</ele><time>2026-04-18T11:21:03.91Z</time></trkpt><trkpt lat="39.3784925505921" lon="16.025118731749522"><ele>7.0</ele><time>2026-04-18T11:21:04.91Z</time></trkpt><trkpt lat="39.37867201586748" lon="16.025048411812644"><ele>7.0</ele><time>2026-04-18T11:21:05.91Z</time></trkpt><trkpt lat="39.378846888890116" lon="16.024979729637558"><ele>6.333333333333334</ele><time>2026-04-18T11:21:06.91Z</time></trkpt><trkpt lat="39.37903444862857" lon="16.024908383533116"><ele>5.666666666666667</ele><time>2026-04-18T11:21:07.91Z</time></trkpt><trkpt lat="39.37922756284574" lon="16.024837646672243"><ele>5.0</ele><time>2026-04-18T11:21:08.91Z</time></trkpt><trkpt lat="39.37942665872142" lon="16.024758571469324"><ele>5.0</ele><time>2026-04-18T11:21:09.91Z</time></trkpt><trkpt lat="39.37962830452546" lon="16.024667946737672"><ele>5.0</ele><time>2026-04-18T11:21:10.91Z</time></trkpt><trkpt lat="39.37983382791465" lon="16.0245641449095"><ele>5.0</ele><time>2026-04-18T11:21:11.91Z</time></trkpt><trkpt lat="39.38005995723591" lon="16.024444176378786"><ele>5.5</ele><time>2026-04-18T11:21:12.91Z</time></trkpt><trkpt lat="39.380295572984004" lon="16.024315947878744"><ele>6.0</ele><time>2026-04-18T11:21:13.91Z</time></trkpt><trkpt lat="39.38051320478682" lon="16.024195894702192"><ele>6.0</ele><time>2026-04-18T11:21:14.91Z</time></trkpt><trkpt lat="39.38071494139668" lon="16.02409123821213"><ele>6.0</ele><time>2026-04-18T11:21:15.91Z</time></trkpt><trkpt lat="39.38090590928233" lon="16.023992775493063"><ele>6.0</ele><time>2026-04-18T11:21:16.91Z</time></trkpt><trkpt lat="39.381096103301864" lon="16.023892280449072"><ele>6.0</ele><time>2026-04-18T11:21:17.91Z</time></trkpt><trkpt lat="39.38130171113937" lon="16.023780037847292"><ele>6.0</ele><time>2026-04-18T11:21:18.91Z</time></trkpt><trkpt lat="39.38152545128016" lon="16.02365737005415"><ele>6.0</ele><time>2026-04-18T11:21:19.91Z</time></trkpt><trkpt lat="39.38173637693121" lon="16.023542718766272"><ele>6.0</ele><time>2026-04-18T11:21:20.91Z</time></trkpt><trkpt lat="39.38193891187336" lon="16.02343325368872"><ele>6.0</ele><time>2026-04-18T11:21:21.91Z</time></trkpt><trkpt lat="39.382142070631495" lon="16.02332028349883"><ele>6.0</ele><time>2026-04-18T11:21:22.91Z</time></trkpt><trkpt lat="39.38233034135594" lon="16.023217778382463"><ele>6.0</ele><time>2026-04-18T11:21:23.91Z</time></trkpt><trkpt lat="39.382508218219684" lon="16.02312109518916"><ele>6.0</ele><time>2026-04-18T11:21:24.91Z</time></trkpt><trkpt lat="39.3826761577038" lon="16.0230282287894"><ele>6.0</ele><time>2026-04-18T11:21:25.91Z</time></trkpt><trkpt lat="39.38285850964851" lon="16.022926913745074"><ele>6.0</ele><time>2026-04-18T11:21:26.91Z</time></trkpt><trkpt lat="39.38303586987984" lon="16.022829930734773"><ele>6.0</ele><time>2026-04-18T11:21:27.91Z</time></trkpt><trkpt lat="39.3832011904612" lon="16.022743746420073"><ele>6.666666666666666</ele><time>2026-04-18T11:21:28.91Z</time></trkpt><trkpt lat="39.383356452244676" lon="16.022661322145527"><ele>7.333333333333333</ele><time>2026-04-18T11:21:29.91Z</time></trkpt><trkpt lat="39.38350428341056" lon="16.02258515920632"><ele>8.0</ele><time>2026-04-18T11:21:30.91Z</time></trkpt><trkpt lat="39.38365094900468" lon="16.02251062718961"><ele>8.0</ele><time>2026-04-18T11:21:31.91Z</time></trkpt><trkpt lat="39.38378710369022" lon="16.022436871194238"><ele>8.0</ele><time>2026-04-18T11:21:32.91Z</time></trkpt><trkpt lat="39.383921838827995" lon="16.022362812820088"><ele>8.0</ele><time>2026-04-18T11:21:33.91Z</time></trkpt><trkpt lat="39.38405645658585" lon="16.022287557813474"><ele>8.0</ele><time>2026-04-18T11:21:34.91Z</time></trkpt><trkpt lat="39.38419844084901" lon="16.022209582788143"><ele>8.0</ele><time>2026-04-18T11:21:35.91Z</time></trkpt><trkpt lat="39.384343315802056" lon="16.022134698246628"><ele>8.0</ele><time>2026-04-18T11:21:36.91Z</time></trkpt><trkpt lat="39.38449156248644" lon="16.022059690764927"><ele>8.0</ele><time>2026-04-18T11:21:37.911Z</time></trkpt><trkpt lat="39.384639761433306" lon="16.02198247371153"><ele>9.0</ele><time>2026-04-18T11:21:38.911Z</time></trkpt><trkpt lat="39.384778691530144" lon="16.021910649469344"><ele>10.0</ele><time>2026-04-18T11:21:39.911Z</time></trkpt><trkpt lat="39.384917878636486" lon="16.021838513145184"><ele>11.0</ele><time>2026-04-18T11:21:40.911Z</time></trkpt><trkpt lat="39.38507157241679" lon="16.021756279825674"><ele>11.0</ele><time>2026-04-18T11:21:41.911Z</time></trkpt><trkpt lat="39.38522654367587" lon="16.021670134820816"><ele>11.0</ele><time>2026-04-18T11:21:42.911Z</time></trkpt><trkpt lat="39.38536952015811" lon="16.021589003829"><ele>11.0</ele><time>2026-04-18T11:21:43.911Z</time></trkpt><trkpt lat="39.38551012566385" lon="16.021507622239877"><ele>9.666666666666666</ele><time>2026-04-18T11:21:44.911Z</time></trkpt><trkpt lat="39.38566079093866" lon="16.021432214500614"><ele>8.333333333333334</ele><time>2026-04-18T11:21:45.911Z</time></trkpt><trkpt lat="39.38582227280727" lon="16.021376494552328"><ele>7.0</ele><time>2026-04-18T11:21:46.911Z</time></trkpt><trkpt lat="39.385986393899266" lon="16.021368683169847"><ele>7.0</ele><time>2026-04-18T11:21:47.911Z</time></trkpt><trkpt lat="39.38613155013331" lon="16.021381605478584"><ele>7.0</ele><time>2026-04-18T11:21:48.911Z</time></trkpt><trkpt lat="39.386269511162936" lon="16.021404873667887"><ele>7.0</ele><time>2026-04-18T11:21:49.911Z</time></trkpt><trkpt lat="39.38640352476128" lon="16.021412075293615"><ele>7.0</ele><time>2026-04-18T11:21:50.911Z</time></trkpt><trkpt lat="39.386524593786376" lon="16.021446728366918"><ele>7.199999999999999</ele><time>2026-04-18T11:21:51.911Z</time></trkpt><trkpt lat="39.38663945877679" lon="16.021476070136735"><ele>7.3999999999999995</ele><time>2026-04-18T11:21:52.911Z</time></trkpt><trkpt lat="39.38674703120175" lon="16.02150259353848"><ele>7.6000000000000005</ele><time>2026-04-18T11:21:53.911Z</time></trkpt><trkpt lat="39.386834662362425" lon="16.021527471598677"><ele>7.800000000000001</ele><time>2026-04-18T11:21:54.911Z</time></trkpt><trkpt lat="39.3869185503799" lon="16.0215568559712"><ele>8.0</ele><time>2026-04-18T11:21:55.911Z</time></trkpt><trkpt lat="39.38699308926534" lon="16.021584585748162"><ele>7.999999999999999</ele><time>2026-04-18T11:21:56.911Z</time></trkpt><trkpt lat="39.387059569934664" lon="16.021597053448605"><ele>8.0</ele><time>2026-04-18T11:21:57.911Z</time></trkpt><trkpt lat="39.38713403646287" lon="16.02162473793783"><ele>8.0</ele><time>2026-04-18T11:21:58.911Z</time></trkpt><trkpt lat="39.38721291165195" lon="16.02164794241174"><ele>8.0</ele><time>2026-04-18T11:21:59.911Z</time></trkpt><trkpt lat="39.387326020535035" lon="16.021691737367096"><ele>7.999999999999999</ele><time>2026-04-18T11:22:01.911Z</time></trkpt><trkpt lat="39.3873805988077" lon="16.021770467154834"><ele>8.0</ele><time>2026-04-18T11:22:03.911Z</time></trkpt><trkpt lat="39.387375536928815" lon="16.021863049736208"><ele>9.25</ele><time>2026-04-18T11:22:05.911Z</time></trkpt><trkpt lat="39.38726832356397" lon="16.021943218246925"><ele>10.5</ele><time>2026-04-18T11:22:07.911Z</time></trkpt><trkpt lat="39.387188283754426" lon="16.022007975377324"><ele>11.75</ele><time>2026-04-18T11:22:08.911Z</time></trkpt><trkpt lat="39.387087545324164" lon="16.02206447731416"><ele>13.0</ele><time>2026-04-18T11:22:09.911Z</time></trkpt><trkpt lat="39.38696990694508" lon="16.0221347141768"><ele>13.0</ele><time>2026-04-18T11:22:10.911Z</time></trkpt><trkpt lat="39.386845786761974" lon="16.02221747274686"><ele>13.0</ele><time>2026-04-18T11:22:11.911Z</time></trkpt><trkpt lat="39.38671223570846" lon="16.022313735560918"><ele>13.0</ele><time>2026-04-18T11:22:12.911Z</time></trkpt><trkpt lat="39.38656662221436" lon="16.0224194146739"><ele>15.333333333333332</ele><time>2026-04-18T11:22:13.911Z</time></trkpt><trkpt lat="39.38641379552003" lon="16.02253843956548"><ele>17.666666666666668</ele><time>2026-04-18T11:22:14.911Z</time></trkpt><trkpt lat="39.3862571047614" lon="16.02267750451876"><ele>20.0</ele><time>2026-04-18T11:22:15.911Z</time></trkpt><trkpt lat="39.38609985100224" lon="16.022834342508265"><ele>20.0</ele><time>2026-04-18T11:22:16.911Z</time></trkpt><trkpt lat="39.38594668650112" lon="16.023012562311887"><ele>20.0</ele><time>2026-04-18T11:22:17.911Z</time></trkpt><trkpt lat="39.385796616348614" lon="16.023209832928"><ele>20.0</ele><time>2026-04-18T11:22:18.911Z</time></trkpt><trkpt lat="39.38565306728639" lon="16.023412821240345"><ele>21.333333333333336</ele><time>2026-04-18T11:22:19.911Z</time></trkpt><trkpt lat="39.38551660825933" lon="16.02362244988706"><ele>22.666666666666668</ele><time>2026-04-18T11:22:20.911Z</time></trkpt><trkpt lat="39.38538118554887" lon="16.023840456190054"><ele>24.0</ele><time>2026-04-18T11:22:21.911Z</time></trkpt><trkpt lat="39.38525566566151" lon="16.024041110434936"><ele>26.666666666666664</ele><time>2026-04-18T11:22:22.911Z</time></trkpt><trkpt lat="39.385135644781144" lon="16.02422996845991"><ele>29.333333333333332</ele><time>2026-04-18T11:22:23.911Z</time></trkpt><trkpt lat="39.3850112996461" lon="16.024421396634075"><ele>32.0</ele><time>2026-04-18T11:22:24.911Z</time></trkpt><trkpt lat="39.3848896319263" lon="16.02461238224578"><ele>32.0</ele><time>2026-04-18T11:22:25.911Z</time></trkpt><trkpt lat="39.38476661578157" lon="16.02480605447054"><ele>32.0</ele><time>2026-04-18T11:22:26.911Z</time></trkpt><trkpt lat="39.38465035840285" lon="16.024990383915053"><ele>32.0</ele><time>2026-04-18T11:22:27.911Z</time></trkpt><trkpt lat="39.38454134584361" lon="16.025162874168256"><ele>33.0</ele><time>2026-04-18T11:22:28.911Z</time></trkpt><trkpt lat="39.38443724847943" lon="16.025323305197894"><ele>34.0</ele><time>2026-04-18T11:22:29.911Z</time></trkpt><trkpt lat="39.38434095907492" lon="16.025469957704928"><ele>35.0</ele><time>2026-04-18T11:22:30.911Z</time></trkpt><trkpt lat="39.38425257045226" lon="16.0256040392193"><ele>36.0</ele><time>2026-04-18T11:22:31.911Z</time></trkpt><trkpt lat="39.38417474749793" lon="16.02572031181222"><ele>37.0</ele><time>2026-04-18T11:22:32.911Z</time></trkpt><trkpt lat="39.384109472388246" lon="16.02581527313403"><ele>38.0</ele><time>2026-04-18T11:22:33.91Z</time></trkpt><trkpt lat="39.38405196757557" lon="16.025901180059176"><ele>39.0</ele><time>2026-04-18T11:22:34.91Z</time></trkpt><trkpt lat="39.38399886601149" lon="16.025977260629617"><ele>40.0</ele><time>2026-04-18T11:22:35.91Z</time></trkpt><trkpt lat="39.38395826313326" lon="16.02604015100587"><ele>41.0</ele><time>2026-04-18T11:22:36.91Z</time></trkpt><trkpt lat="39.38391289629195" lon="16.026103380186004"><ele>42.0</ele><time>2026-04-18T11:22:37.91Z</time></trkpt><trkpt lat="39.38384433560093" lon="16.026163020520745"><ele>43.0</ele><time>2026-04-18T11:22:38.91Z</time></trkpt><trkpt lat="39.38374884264917" lon="16.026312126751417"><ele>44.0</ele><time>2026-04-18T11:22:39.91Z</time></trkpt><trkpt lat="39.383649119490116" lon="16.026411230817715"><ele>45.0</ele><time>2026-04-18T11:22:40.91Z</time></trkpt><trkpt lat="39.38357491249063" lon="16.02650636077131"><ele>46.0</ele><time>2026-04-18T11:22:41.91Z</time></trkpt><trkpt lat="39.38350653336451" lon="16.026594804595934"><ele>46.5</ele><time>2026-04-18T11:22:42.91Z</time></trkpt><trkpt lat="39.383443419575926" lon="16.02667643810062"><ele>47.0</ele><time>2026-04-18T11:22:43.91Z</time></trkpt><trkpt lat="39.38336085561821" lon="16.026783229075235"><ele>47.5</ele><time>2026-04-18T11:22:44.91Z</time></trkpt><trkpt lat="39.383249884217044" lon="16.02693046237914"><ele>48.0</ele><time>2026-04-18T11:22:45.91Z</time></trkpt><trkpt lat="39.3831177108126" lon="16.027107624849194"><ele>49.33333333333333</ele><time>2026-04-18T11:22:46.91Z</time></trkpt><trkpt lat="39.38299326340892" lon="16.027293841590375"><ele>50.666666666666664</ele><time>2026-04-18T11:22:47.91Z</time></trkpt><trkpt lat="39.38286863214358" lon="16.02742809711501"><ele>52.0</ele><time>2026-04-18T11:22:48.91Z</time></trkpt><trkpt lat="39.382759938650935" lon="16.02755280542595"><ele>52.0</ele><time>2026-04-18T11:22:49.91Z</time></trkpt><trkpt lat="39.38266234966583" lon="16.027683657711563"><ele>52.0</ele><time>2026-04-18T11:22:50.91Z</time></trkpt><trkpt lat="39.382566553126615" lon="16.027816668249496"><ele>52.0</ele><time>2026-04-18T11:22:51.91Z</time></trkpt><trkpt lat="39.38247795029757" lon="16.02794031338471"><ele>52.0</ele><time>2026-04-18T11:22:52.91Z</time></trkpt><trkpt lat="39.3823964065753" lon="16.028046401933654"><ele>52.0</ele><time>2026-04-18T11:22:53.91Z</time></trkpt><trkpt lat="39.382313819101014" lon="16.028154996191933"><ele>52.0</ele><time>2026-04-18T11:22:54.91Z</time></trkpt><trkpt lat="39.38222497564441" lon="16.028269639249483"><ele>52.0</ele><time>2026-04-18T11:22:55.91Z</time></trkpt><trkpt lat="39.38212598796529" lon="16.028379615342747"><ele>52.0</ele><time>2026-04-18T11:22:56.91Z</time></trkpt><trkpt lat="39.382029622469986" lon="16.02847366477908"><ele>53.0</ele><time>2026-04-18T11:22:57.91Z</time></trkpt><trkpt lat="39.38193924973433" lon="16.028549658466986"><ele>54.0</ele><time>2026-04-18T11:22:58.91Z</time></trkpt><trkpt lat="39.38183642586675" lon="16.028623974217556"><ele>55.0</ele><time>2026-04-18T11:22:59.91Z</time></trkpt><trkpt lat="39.38171191415967" lon="16.02871060596771"><ele>56.0</ele><time>2026-04-18T11:23:00.91Z</time></trkpt><trkpt lat="39.381568479436" lon="16.02880631493052"><ele>56.0</ele><time>2026-04-18T11:23:01.91Z</time></trkpt><trkpt lat="39.38139117819693" lon="16.02890642912155"><ele>56.0</ele><time>2026-04-18T11:23:02.91Z</time></trkpt><trkpt lat="39.38119019459493" lon="16.029000363454223"><ele>56.0</ele><time>2026-04-18T11:23:03.91Z</time></trkpt><trkpt lat="39.38096901211295" lon="16.029079703981793"><ele>53.0</ele><time>2026-04-18T11:23:04.91Z</time></trkpt><trkpt lat="39.38072079193683" lon="16.029136386093047"><ele>50.0</ele><time>2026-04-18T11:23:05.91Z</time></trkpt><trkpt lat="39.38046413069985" lon="16.029155989375674"><ele>57.5</ele><time>2026-04-18T11:23:06.91Z</time></trkpt><trkpt lat="39.38019820951887" lon="16.029199822412796"><ele>65.0</ele><time>2026-04-18T11:23:07.91Z</time></trkpt><trkpt lat="39.379967197181735" lon="16.029201986926097"><ele>65.0</ele><time>2026-04-18T11:23:08.91Z</time></trkpt><trkpt lat="39.379770956289555" lon="16.029221604093028"><ele>65.0</ele><time>2026-04-18T11:23:09.91Z</time></trkpt><trkpt lat="39.37958540484786" lon="16.029264778904174"><ele>65.0</ele><time>2026-04-18T11:23:10.91Z</time></trkpt><trkpt lat="39.37941137308842" lon="16.029330937666945"><ele>66.33333333333334</ele><time>2026-04-18T11:23:11.91Z</time></trkpt><trkpt lat="39.37924067383792" lon="16.0294142735916"><ele>67.66666666666667</ele><time>2026-04-18T11:23:12.91Z</time></trkpt><trkpt lat="39.379077688806326" lon="16.029516646211214"><ele>69.0</ele><time>2026-04-18T11:23:13.91Z</time></trkpt><trkpt lat="39.37891865979442" lon="16.029633030728014"><ele>68.66666666666667</ele><time>2026-04-18T11:23:14.91Z</time></trkpt><trkpt lat="39.378758617095414" lon="16.02977026532837"><ele>68.33333333333334</ele><time>2026-04-18T11:23:15.91Z</time></trkpt><trkpt lat="39.378601458685004" lon="16.029932469612593"><ele>68.0</ele><time>2026-04-18T11:23:16.91Z</time></trkpt><trkpt lat="39.37846480714792" lon="16.03010503188341"><ele>70.0</ele><time>2026-04-18T11:23:17.91Z</time></trkpt><trkpt lat="39.378347480076975" lon="16.030284444772192"><ele>72.0</ele><time>2026-04-18T11:23:18.91Z</time></trkpt><trkpt lat="39.37823383302875" lon="16.03049562047469"><ele>74.0</ele><time>2026-04-18T11:23:19.91Z</time></trkpt><trkpt lat="39.37812552380512" lon="16.030728725373496"><ele>76.0</ele><time>2026-04-18T11:23:20.91Z</time></trkpt><trkpt lat="39.37802904425574" lon="16.030932125337202"><ele>78.0</ele><time>2026-04-18T11:23:21.91Z</time></trkpt><trkpt lat="39.377939309565825" lon="16.031099099854554"><ele>80.0</ele><time>2026-04-18T11:23:22.91Z</time></trkpt><trkpt lat="39.377846940190764" lon="16.031255784984833"><ele>78.66666666666667</ele><time>2026-04-18T11:23:23.91Z</time></trkpt><trkpt lat="39.3777464607762" lon="16.03140688473323"><ele>77.33333333333333</ele><time>2026-04-18T11:23:24.91Z</time></trkpt><trkpt lat="39.377624849492065" lon="16.031558409213673"><ele>76.0</ele><time>2026-04-18T11:23:25.91Z</time></trkpt><trkpt lat="39.37748376452661" lon="16.031708119806954"><ele>76.0</ele><time>2026-04-18T11:23:26.91Z</time></trkpt><trkpt lat="39.377327657279594" lon="16.03184751698687"><ele>76.0</ele><time>2026-04-18T11:23:27.91Z</time></trkpt><trkpt lat="39.37715873396406" lon="16.031977344076132"><ele>76.0</ele><time>2026-04-18T11:23:28.91Z</time></trkpt><trkpt lat="39.37696707925116" lon="16.03210144928597"><ele>75.0</ele><time>2026-04-18T11:23:29.91Z</time></trkpt><trkpt lat="39.37675589099221" lon="16.03218650936027"><ele>74.0</ele><time>2026-04-18T11:23:30.91Z</time></trkpt><trkpt lat="39.37654903820279" lon="16.03228866037776"><ele>73.0</ele><time>2026-04-18T11:23:31.91Z</time></trkpt><trkpt lat="39.37633583369349" lon="16.032352647418175"><ele>73.0</ele><time>2026-04-18T11:23:32.91Z</time></trkpt><trkpt lat="39.37610977541218" lon="16.032418996999773"><ele>73.0</ele><time>2026-04-18T11:23:33.91Z</time></trkpt><trkpt lat="39.37588308706383" lon="16.032491455562575"><ele>80.5</ele><time>2026-04-18T11:23:34.91Z</time></trkpt><trkpt lat="39.375657705569566" lon="16.032569043516137"><ele>88.0</ele><time>2026-04-18T11:23:35.91Z</time></trkpt><trkpt lat="39.375446657507226" lon="16.03264460954794"><ele>88.33333333333333</ele><time>2026-04-18T11:23:36.91Z</time></trkpt><trkpt lat="39.37523968022869" lon="16.03271480005444"><ele>88.66666666666667</ele><time>2026-04-18T11:23:37.91Z</time></trkpt><trkpt lat="39.37502881999548" lon="16.032783726696078"><ele>89.0</ele><time>2026-04-18T11:23:38.91Z</time></trkpt><trkpt lat="39.37482211573102" lon="16.032852669911662"><ele>88.66666666666667</ele><time>2026-04-18T11:23:39.91Z</time></trkpt><trkpt lat="39.37460887280535" lon="16.03293089958708"><ele>88.33333333333333</ele><time>2026-04-18T11:23:40.91Z</time></trkpt><trkpt lat="39.374395374310915" lon="16.0330250603119"><ele>88.0</ele><time>2026-04-18T11:23:41.91Z</time></trkpt><trkpt lat="39.3741936266077" lon="16.03313826961077"><ele>88.0</ele><time>2026-04-18T11:23:42.91Z</time></trkpt><trkpt lat="39.374014656860545" lon="16.03326763696293"><ele>88.0</ele><time>2026-04-18T11:23:43.911Z</time></trkpt><trkpt lat="39.37383553676509" lon="16.033425151653088"><ele>88.0</ele><time>2026-04-18T11:23:44.911Z</time></trkpt><trkpt lat="39.37365331368547" lon="16.03361638027606"><ele>87.0</ele><time>2026-04-18T11:23:45.911Z</time></trkpt><trkpt lat="39.37347487995004" lon="16.033838680298615"><ele>86.0</ele><time>2026-04-18T11:23:46.911Z</time></trkpt><trkpt lat="39.373291135579656" lon="16.034112150205665"><ele>86.0</ele><time>2026-04-18T11:23:47.911Z</time></trkpt><trkpt lat="39.373073250845174" lon="16.03440506402234"><ele>86.0</ele><time>2026-04-18T11:23:48.911Z</time></trkpt><trkpt lat="39.372855988967075" lon="16.034734253693546"><ele>91.0</ele><time>2026-04-18T11:23:49.911Z</time></trkpt><trkpt lat="39.37261755371758" lon="16.035049871781855"><ele>96.0</ele><time>2026-04-18T11:23:50.911Z</time></trkpt><trkpt lat="39.372411391580826" lon="16.03532167290069"><ele>96.0</ele><time>2026-04-18T11:23:51.911Z</time></trkpt><trkpt lat="39.372242565967476" lon="16.035550674996074"><ele>96.0</ele><time>2026-04-18T11:23:52.911Z</time></trkpt><trkpt lat="39.3720851680644" lon="16.03576863597588"><ele>98.5</ele><time>2026-04-18T11:23:53.911Z</time></trkpt><trkpt lat="39.37192596983278" lon="16.03598998232371"><ele>101.0</ele><time>2026-04-18T11:23:54.911Z</time></trkpt><trkpt lat="39.37177811066726" lon="16.036194682643917"><ele>101.0</ele><time>2026-04-18T11:23:55.911Z</time></trkpt><trkpt lat="39.371633381239725" lon="16.03640059263728"><ele>101.0</ele><time>2026-04-18T11:23:56.911Z</time></trkpt><trkpt lat="39.37148599827507" lon="16.03660430891437"><ele>101.0</ele><time>2026-04-18T11:23:57.911Z</time></trkpt><trkpt lat="39.371328521589255" lon="16.03682156145837"><ele>102.0</ele><time>2026-04-18T11:23:58.911Z</time></trkpt><trkpt lat="39.37117175775627" lon="16.03703698668449"><ele>103.0</ele><time>2026-04-18T11:23:59.911Z</time></trkpt><trkpt lat="39.37101192578513" lon="16.03725355234125"><ele>106.33333333333334</ele><time>2026-04-18T11:24:00.911Z</time></trkpt><trkpt lat="39.37085252430235" lon="16.03746920262433"><ele>109.66666666666666</ele><time>2026-04-18T11:24:01.911Z</time></trkpt><trkpt lat="39.37070397624915" lon="16.037672936735788"><ele>113.0</ele><time>2026-04-18T11:24:02.91Z</time></trkpt><trkpt lat="39.37057191344117" lon="16.03785929479794"><ele>112.0</ele><time>2026-04-18T11:24:03.91Z</time></trkpt><trkpt lat="39.37044617632003" lon="16.038039491651407"><ele>111.0</ele><time>2026-04-18T11:24:04.91Z</time></trkpt><trkpt lat="39.37032889615053" lon="16.038211704673937"><ele>110.0</ele><time>2026-04-18T11:24:05.91Z</time></trkpt><trkpt lat="39.37021996004629" lon="16.038380895048828"><ele>112.33333333333333</ele><time>2026-04-18T11:24:06.91Z</time></trkpt><trkpt lat="39.37010960148321" lon="16.03855733476851"><ele>114.66666666666666</ele><time>2026-04-18T11:24:07.91Z</time></trkpt><trkpt lat="39.369994714153464" lon="16.038750197035725"><ele>117.0</ele><time>2026-04-18T11:24:08.91Z</time></trkpt><trkpt lat="39.36987023712141" lon="16.0389571119009"><ele>117.33333333333334</ele><time>2026-04-18T11:24:09.91Z</time></trkpt><trkpt lat="39.36975607702434" lon="16.03914285707532"><ele>117.66666666666667</ele><time>2026-04-18T11:24:10.91Z</time></trkpt><trkpt lat="39.36965509169919" lon="16.03930943532053"><ele>118.0</ele><time>2026-04-18T11:24:11.91Z</time></trkpt><trkpt lat="39.36957003038911" lon="16.039456019656612"><ele>118.0</ele><time>2026-04-18T11:24:12.91Z</time></trkpt><trkpt lat="39.369496389557824" lon="16.039589350320703"><ele>118.0</ele><time>2026-04-18T11:24:13.91Z</time></trkpt><trkpt lat="39.36942125852954" lon="16.039720189151936"><ele>118.0</ele><time>2026-04-18T11:24:14.91Z</time></trkpt><trkpt lat="39.369346821933384" lon="16.039840735531513"><ele>118.0</ele><time>2026-04-18T11:24:15.91Z</time></trkpt><trkpt lat="39.36927198031015" lon="16.03996287582443"><ele>120.0</ele><time>2026-04-18T11:24:16.91Z</time></trkpt><trkpt lat="39.369192832738804" lon="16.040093305100267"><ele>122.0</ele><time>2026-04-18T11:24:17.91Z</time></trkpt><trkpt lat="39.36911565032308" lon="16.04022040821196"><ele>124.0</ele><time>2026-04-18T11:24:18.91Z</time></trkpt><trkpt lat="39.36904555619413" lon="16.04033215687786"><ele>126.0</ele><time>2026-04-18T11:24:19.91Z</time></trkpt><trkpt lat="39.36898351103815" lon="16.0404298581949"><ele>126.0</ele><time>2026-04-18T11:24:20.91Z</time></trkpt><trkpt lat="39.36892186010766" lon="16.040525784749658"><ele>126.0</ele><time>2026-04-18T11:24:21.91Z</time></trkpt><trkpt lat="39.36886665580751" lon="16.040608769217247"><ele>126.0</ele><time>2026-04-18T11:24:22.91Z</time></trkpt><trkpt lat="39.36881196309322" lon="16.0406899593188"><ele>126.0</ele><time>2026-04-18T11:24:23.91Z</time></trkpt><trkpt lat="39.36876850739996" lon="16.040756261912097"><ele>126.0</ele><time>2026-04-18T11:24:24.91Z</time></trkpt><trkpt lat="39.3686943659049" lon="16.040859695596566"><ele>126.0</ele><time>2026-04-18T11:24:26.91Z</time></trkpt><trkpt lat="39.36863776676374" lon="16.040922200102838"><ele>127.0</ele><time>2026-04-18T11:24:28.91Z</time></trkpt><trkpt lat="39.36855753912415" lon="16.040977320082433"><ele>128.0</ele><time>2026-04-18T11:24:30.91Z</time></trkpt><trkpt lat="39.36846266607383" lon="16.04095919713908"><ele>129.0</ele><time>2026-04-18T11:24:32.91Z</time></trkpt><trkpt lat="39.368364559942016" lon="16.041014423827388"><ele>130.0</ele><time>2026-04-18T11:24:35.91Z</time></trkpt><trkpt lat="39.36833333939482" lon="16.041140030183833"><ele>131.0</ele><time>2026-04-18T11:24:37.91Z</time></trkpt><trkpt lat="39.368311175870915" lon="16.041302210740273"><ele>131.0</ele><time>2026-04-18T11:24:39.91Z</time></trkpt><trkpt lat="39.36827462595395" lon="16.041374743025596"><ele>131.0</ele><time>2026-04-18T11:24:40.91Z</time></trkpt><trkpt lat="39.36821669436284" lon="16.041426613477725"><ele>131.0</ele><time>2026-04-18T11:24:41.91Z</time></trkpt><trkpt lat="39.368150530566425" lon="16.04147763564232"><ele>131.0</ele><time>2026-04-18T11:24:42.91Z</time></trkpt><trkpt lat="39.368087390914184" lon="16.041541394057862"><ele>131.0</ele><time>2026-04-18T11:24:43.91Z</time></trkpt><trkpt lat="39.368023219432814" lon="16.041604302930526"><ele>131.0</ele><time>2026-04-18T11:24:44.91Z</time></trkpt><trkpt lat="39.367953914668924" lon="16.041666661184525"><ele>131.4</ele><time>2026-04-18T11:24:45.91Z</time></trkpt><trkpt lat="39.367883546829404" lon="16.041733369138857"><ele>131.8</ele><time>2026-04-18T11:24:46.91Z</time></trkpt><trkpt lat="39.3678083346923" lon="16.04181433757069"><ele>132.20000000000002</ele><time>2026-04-18T11:24:47.91Z</time></trkpt><trkpt lat="39.36772538053135" lon="16.04190228720193"><ele>132.6</ele><time>2026-04-18T11:24:48.91Z</time></trkpt><trkpt lat="39.3676464084734" lon="16.041986070625786"><ele>133.0</ele><time>2026-04-18T11:24:49.91Z</time></trkpt><trkpt lat="39.36756152504761" lon="16.042064041977316"><ele>133.0</ele><time>2026-04-18T11:24:50.91Z</time></trkpt><trkpt lat="39.367475747169124" lon="16.042141150143227"><ele>133.0</ele><time>2026-04-18T11:24:51.91Z</time></trkpt><trkpt lat="39.36738352421988" lon="16.042232158532794"><ele>133.0</ele><time>2026-04-18T11:24:52.91Z</time></trkpt><trkpt lat="39.36728883332642" lon="16.04232777921332"><ele>133.0</ele><time>2026-04-18T11:24:53.91Z</time></trkpt><trkpt lat="39.36718756570709" lon="16.042424446357025"><ele>134.75</ele><time>2026-04-18T11:24:54.91Z</time></trkpt><trkpt lat="39.36708540930799" lon="16.042521297641517"><ele>136.5</ele><time>2026-04-18T11:24:55.91Z</time></trkpt><trkpt lat="39.366996578589095" lon="16.04260591972996"><ele>138.25</ele><time>2026-04-18T11:24:56.91Z</time></trkpt><trkpt lat="39.36690438939235" lon="16.042692070123014"><ele>140.0</ele><time>2026-04-18T11:24:57.91Z</time></trkpt><trkpt lat="39.36680883262368" lon="16.042783799588616"><ele>140.0</ele><time>2026-04-18T11:24:58.91Z</time></trkpt><trkpt lat="39.366711422083654" lon="16.042868185397285"><ele>140.0</ele><time>2026-04-18T11:24:59.91Z</time></trkpt><trkpt lat="39.36660514887786" lon="16.04295855290962"><ele>140.0</ele><time>2026-04-18T11:25:00.91Z</time></trkpt><trkpt lat="39.36650019542657" lon="16.043060730435208"><ele>140.0</ele><time>2026-04-18T11:25:01.91Z</time></trkpt><trkpt lat="39.366384839116115" lon="16.04316629647296"><ele>139.25</ele><time>2026-04-18T11:25:02.91Z</time></trkpt><trkpt lat="39.3662647765762" lon="16.043269002635085"><ele>138.5</ele><time>2026-04-18T11:25:03.91Z</time></trkpt><trkpt lat="39.366138548583635" lon="16.043371667114904"><ele>137.75</ele><time>2026-04-18T11:25:04.91Z</time></trkpt><trkpt lat="39.36601067913531" lon="16.043475141229727"><ele>137.0</ele><time>2026-04-18T11:25:05.91Z</time></trkpt><trkpt lat="39.36587748008102" lon="16.043583700665977"><ele>138.66666666666666</ele><time>2026-04-18T11:25:06.91Z</time></trkpt><trkpt lat="39.36574598848873" lon="16.04369081708122"><ele>140.33333333333334</ele><time>2026-04-18T11:25:07.91Z</time></trkpt><trkpt lat="39.3656069433906" lon="16.04380150807521"><ele>142.0</ele><time>2026-04-18T11:25:08.91Z</time></trkpt><trkpt lat="39.36546237702071" lon="16.0439088868145"><ele>142.0</ele><time>2026-04-18T11:25:09.91Z</time></trkpt><trkpt lat="39.365307688177154" lon="16.044007897879563"><ele>142.0</ele><time>2026-04-18T11:25:10.91Z</time></trkpt><trkpt lat="39.365134444178686" lon="16.044101612848277"><ele>142.0</ele><time>2026-04-18T11:25:11.91Z</time></trkpt><trkpt lat="39.36492187653085" lon="16.04420027757308"><ele>141.0</ele><time>2026-04-18T11:25:12.91Z</time></trkpt><trkpt lat="39.36469236806025" lon="16.04430596178788"><ele>140.0</ele><time>2026-04-18T11:25:13.91Z</time></trkpt><trkpt lat="39.36447349308317" lon="16.044409902884187"><ele>140.0</ele><time>2026-04-18T11:25:14.91Z</time></trkpt><trkpt lat="39.36427580700467" lon="16.04450538945686"><ele>140.0</ele><time>2026-04-18T11:25:15.91Z</time></trkpt><trkpt lat="39.36409080364812" lon="16.04459416910405"><ele>140.0</ele><time>2026-04-18T11:25:16.91Z</time></trkpt><trkpt lat="39.36390481935359" lon="16.04468240894489"><ele>138.66666666666666</ele><time>2026-04-18T11:25:17.91Z</time></trkpt><trkpt lat="39.36371053869929" lon="16.04477681172083"><ele>137.33333333333334</ele><time>2026-04-18T11:25:18.91Z</time></trkpt><trkpt lat="39.363530569575126" lon="16.044860766005474"><ele>136.0</ele><time>2026-04-18T11:25:19.91Z</time></trkpt><trkpt lat="39.36335726219228" lon="16.0449383680514"><ele>141.66666666666669</ele><time>2026-04-18T11:25:20.91Z</time></trkpt><trkpt lat="39.36318454383689" lon="16.045011122016387"><ele>147.33333333333334</ele><time>2026-04-18T11:25:21.91Z</time></trkpt><trkpt lat="39.362999673139846" lon="16.045076085577282"><ele>153.0</ele><time>2026-04-18T11:25:22.91Z</time></trkpt><trkpt lat="39.36278976934827" lon="16.04511645204704"><ele>153.0</ele><time>2026-04-18T11:25:23.91Z</time></trkpt><trkpt lat="39.362567154184056" lon="16.045141926880973"><ele>153.0</ele><time>2026-04-18T11:25:24.91Z</time></trkpt><trkpt lat="39.362363406161414" lon="16.04515766578695"><ele>153.0</ele><time>2026-04-18T11:25:25.91Z</time></trkpt><trkpt lat="39.36217292494056" lon="16.045175615321526"><ele>153.0</ele><time>2026-04-18T11:25:26.91Z</time></trkpt><trkpt lat="39.361979607287125" lon="16.04519823290533"><ele>153.0</ele><time>2026-04-18T11:25:27.91Z</time></trkpt><trkpt lat="39.3617731288725" lon="16.045225822006554"><ele>153.0</ele><time>2026-04-18T11:25:28.91Z</time></trkpt><trkpt lat="39.3615541009257" lon="16.045259345834218"><ele>151.33333333333334</ele><time>2026-04-18T11:25:29.91Z</time></trkpt><trkpt lat="39.361337661647" lon="16.0452899689316"><ele>149.66666666666669</ele><time>2026-04-18T11:25:30.91Z</time></trkpt><trkpt lat="39.361135209605976" lon="16.045318890847664"><ele>148.0</ele><time>2026-04-18T11:25:31.91Z</time></trkpt><trkpt lat="39.36095517365243" lon="16.045339856006947"><ele>148.0</ele><time>2026-04-18T11:25:32.91Z</time></trkpt><trkpt lat="39.36079439980698" lon="16.0453548205062"><ele>148.0</ele><time>2026-04-18T11:25:33.91Z</time></trkpt><trkpt lat="39.36062832908544" lon="16.045370364738968"><ele>148.0</ele><time>2026-04-18T11:25:34.91Z</time></trkpt><trkpt lat="39.36045688997586" lon="16.04539255193937"><ele>147.0</ele><time>2026-04-18T11:25:35.91Z</time></trkpt><trkpt lat="39.3602791313695" lon="16.045416735182812"><ele>146.0</ele><time>2026-04-18T11:25:36.91Z</time></trkpt><trkpt lat="39.36010613721383" lon="16.045430426913704"><ele>145.0</ele><time>2026-04-18T11:25:37.91Z</time></trkpt><trkpt lat="39.35992944005796" lon="16.045429100660307"><ele>145.0</ele><time>2026-04-18T11:25:38.91Z</time></trkpt><trkpt lat="39.35973618433596" lon="16.045407495033796"><ele>145.0</ele><time>2026-04-18T11:25:39.91Z</time></trkpt><trkpt lat="39.359536111217274" lon="16.045374861221166"><ele>145.0</ele><time>2026-04-18T11:25:40.91Z</time></trkpt><trkpt lat="39.35937195877274" lon="16.04535207805348"><ele>141.66666666666669</ele><time>2026-04-18T11:25:41.909Z</time></trkpt><trkpt lat="39.3592120543244" lon="16.045316835219978"><ele>138.33333333333334</ele><time>2026-04-18T11:25:42.909Z</time></trkpt><trkpt lat="39.35905480479946" lon="16.04529358098301"><ele>135.0</ele><time>2026-04-18T11:25:43.909Z</time></trkpt><trkpt lat="39.35888044381797" lon="16.045262608293598"><ele>133.0</ele><time>2026-04-18T11:25:44.909Z</time></trkpt><trkpt lat="39.35871717383491" lon="16.045238302354154"><ele>131.0</ele><time>2026-04-18T11:25:45.909Z</time></trkpt><trkpt lat="39.35854264626999" lon="16.045210903454578"><ele>129.0</ele><time>2026-04-18T11:25:46.909Z</time></trkpt><trkpt lat="39.35838592413506" lon="16.0451806098551"><ele>129.0</ele><time>2026-04-18T11:25:47.909Z</time></trkpt><trkpt lat="39.35822688806512" lon="16.045155063836553"><ele>129.0</ele><time>2026-04-18T11:25:48.909Z</time></trkpt><trkpt lat="39.3580679931466" lon="16.045130635612512"><ele>129.0</ele><time>2026-04-18T11:25:49.91Z</time></trkpt><trkpt lat="39.35791765532571" lon="16.045104624950604"><ele>131.75</ele><time>2026-04-18T11:25:50.91Z</time></trkpt><trkpt lat="39.357772460659575" lon="16.045079455275822"><ele>134.5</ele><time>2026-04-18T11:25:51.91Z</time></trkpt><trkpt lat="39.35765475246159" lon="16.04505244036575"><ele>137.25</ele><time>2026-04-18T11:25:52.91Z</time></trkpt><trkpt lat="39.357540915662895" lon="16.045026383221035"><ele>140.0</ele><time>2026-04-18T11:25:53.91Z</time></trkpt><trkpt lat="39.35743422954385" lon="16.045004740519808"><ele>140.0</ele><time>2026-04-18T11:25:54.91Z</time></trkpt><trkpt lat="39.35734023337433" lon="16.04500620001568"><ele>140.0</ele><time>2026-04-18T11:25:55.91Z</time></trkpt><trkpt lat="39.35724898273651" lon="16.04504381921395"><ele>140.0</ele><time>2026-04-18T11:25:56.91Z</time></trkpt><trkpt lat="39.357157708533414" lon="16.04507231858169"><ele>140.0</ele><time>2026-04-18T11:25:57.91Z</time></trkpt><trkpt lat="39.357074455065494" lon="16.045102309170694"><ele>140.0</ele><time>2026-04-18T11:25:58.91Z</time></trkpt><trkpt lat="39.35699194116247" lon="16.045138774752576"><ele>137.4</ele><time>2026-04-18T11:25:59.91Z</time></trkpt><trkpt lat="39.35691301778802" lon="16.04516420071657"><ele>134.8</ele><time>2026-04-18T11:26:00.91Z</time></trkpt><trkpt lat="39.35681965537283" lon="16.045187852436786"><ele>132.2</ele><time>2026-04-18T11:26:01.91Z</time></trkpt><trkpt lat="39.356725648857434" lon="16.045222013342052"><ele>129.6</ele><time>2026-04-18T11:26:02.91Z</time></trkpt><trkpt lat="39.35662962173861" lon="16.04527754148274"><ele>127.0</ele><time>2026-04-18T11:26:03.91Z</time></trkpt><trkpt lat="39.35652964825076" lon="16.045338799126675"><ele>127.0</ele><time>2026-04-18T11:26:04.91Z</time></trkpt><trkpt lat="39.35642631988657" lon="16.045395510316027"><ele>127.0</ele><time>2026-04-18T11:26:05.91Z</time></trkpt><trkpt lat="39.35631867627453" lon="16.045448773678466"><ele>127.0</ele><time>2026-04-18T11:26:06.91Z</time></trkpt><trkpt lat="39.35620749653433" lon="16.04550300357192"><ele>127.0</ele><time>2026-04-18T11:26:07.91Z</time></trkpt><trkpt lat="39.35609522741775" lon="16.045557359149225"><ele>123.5</ele><time>2026-04-18T11:26:08.91Z</time></trkpt><trkpt lat="39.35598417766792" lon="16.04561046774352"><ele>120.0</ele><time>2026-04-18T11:26:09.91Z</time></trkpt><trkpt lat="39.35587063099057" lon="16.04566266650304"><ele>116.5</ele><time>2026-04-18T11:26:10.91Z</time></trkpt><trkpt lat="39.355752505724816" lon="16.045719394900562"><ele>113.0</ele><time>2026-04-18T11:26:11.91Z</time></trkpt><trkpt lat="39.355635387021536" lon="16.04577822955221"><ele>115.75</ele><time>2026-04-18T11:26:12.91Z</time></trkpt><trkpt lat="39.35551239102907" lon="16.045837420506587"><ele>118.5</ele><time>2026-04-18T11:26:13.91Z</time></trkpt><trkpt lat="39.355388277307696" lon="16.045892779873334"><ele>121.25</ele><time>2026-04-18T11:26:14.91Z</time></trkpt><trkpt lat="39.355261074610716" lon="16.045945957234533"><ele>124.0</ele><time>2026-04-18T11:26:15.91Z</time></trkpt><trkpt lat="39.355130795526826" lon="16.04598619049704"><ele>124.0</ele><time>2026-04-18T11:26:16.91Z</time></trkpt><trkpt lat="39.35500709128586" lon="16.046011335426336"><ele>124.0</ele><time>2026-04-18T11:26:17.91Z</time></trkpt><trkpt lat="39.3548714493043" lon="16.04602790578893"><ele>124.0</ele><time>2026-04-18T11:26:18.91Z</time></trkpt><trkpt lat="39.3547326975435" lon="16.04603389671459"><ele>124.0</ele><time>2026-04-18T11:26:19.91Z</time></trkpt><trkpt lat="39.35458827883335" lon="16.046026628075186"><ele>124.25</ele><time>2026-04-18T11:26:20.91Z</time></trkpt><trkpt lat="39.354455781720404" lon="16.04600597313571"><ele>124.5</ele><time>2026-04-18T11:26:21.91Z</time></trkpt><trkpt lat="39.354320655258064" lon="16.04597839447224"><ele>124.75</ele><time>2026-04-18T11:26:22.91Z</time></trkpt><trkpt lat="39.3541840462952" lon="16.045955746116874"><ele>125.0</ele><time>2026-04-18T11:26:23.91Z</time></trkpt><trkpt lat="39.35404298243494" lon="16.045933342088556"><ele>125.0</ele><time>2026-04-18T11:26:24.91Z</time></trkpt><trkpt lat="39.35390054822074" lon="16.045911057054546"><ele>125.0</ele><time>2026-04-18T11:26:25.91Z</time></trkpt><trkpt lat="39.35375999307544" lon="16.045882767551106"><ele>125.0</ele><time>2026-04-18T11:26:26.91Z</time></trkpt><trkpt lat="39.35363123179391" lon="16.045856865649622"><ele>125.0</ele><time>2026-04-18T11:26:27.91Z</time></trkpt><trkpt lat="39.35350292471619" lon="16.045838255309295"><ele>124.25</ele><time>2026-04-18T11:26:28.91Z</time></trkpt><trkpt lat="39.3533712691033" lon="16.045818024434872"><ele>123.5</ele><time>2026-04-18T11:26:29.91Z</time></trkpt><trkpt lat="39.353233423658224" lon="16.045795670305683"><ele>122.75</ele><time>2026-04-18T11:26:30.91Z</time></trkpt><trkpt lat="39.3530936627177" lon="16.045769264580255"><ele>122.0</ele><time>2026-04-18T11:26:31.91Z</time></trkpt><trkpt lat="39.352959028339036" lon="16.045746603144416"><ele>119.25</ele><time>2026-04-18T11:26:32.91Z</time></trkpt><trkpt lat="39.35282602683708" lon="16.0457234128376"><ele>116.5</ele><time>2026-04-18T11:26:33.91Z</time></trkpt><trkpt lat="39.352693631712604" lon="16.045700117796226"><ele>113.75</ele><time>2026-04-18T11:26:34.91Z</time></trkpt><trkpt lat="39.35255614562767" lon="16.045674852454663"><ele>111.0</ele><time>2026-04-18T11:26:35.91Z</time></trkpt><trkpt lat="39.35241731052172" lon="16.045648734937142"><ele>111.0</ele><time>2026-04-18T11:26:36.91Z</time></trkpt><trkpt lat="39.35227159944875" lon="16.04562098821314"><ele>111.0</ele><time>2026-04-18T11:26:37.91Z</time></trkpt><trkpt lat="39.35212441491478" lon="16.045592421285516"><ele>111.0</ele><time>2026-04-18T11:26:38.91Z</time></trkpt><trkpt lat="39.3519761304917" lon="16.04555963937771"><ele>111.0</ele><time>2026-04-18T11:26:39.91Z</time></trkpt><trkpt lat="39.35183006766009" lon="16.045512077001174"><ele>109.5</ele><time>2026-04-18T11:26:40.91Z</time></trkpt><trkpt lat="39.35168021786532" lon="16.04546146254185"><ele>108.0</ele><time>2026-04-18T11:26:41.91Z</time></trkpt><trkpt lat="39.35154209325873" lon="16.04541177308934"><ele>106.5</ele><time>2026-04-18T11:26:42.91Z</time></trkpt><trkpt lat="39.351404090563626" lon="16.045365134096457"><ele>105.0</ele><time>2026-04-18T11:26:43.91Z</time></trkpt><trkpt lat="39.351269240776006" lon="16.045318609536515"><ele>104.0</ele><time>2026-04-18T11:26:44.91Z</time></trkpt><trkpt lat="39.351132604321954" lon="16.045270473614355"><ele>103.0</ele><time>2026-04-18T11:26:45.91Z</time></trkpt><trkpt lat="39.35100712691267" lon="16.045226681373414"><ele>102.0</ele><time>2026-04-18T11:26:46.91Z</time></trkpt><trkpt lat="39.35087176493467" lon="16.04517769993127"><ele>101.0</ele><time>2026-04-18T11:26:47.91Z</time></trkpt><trkpt lat="39.35073459378515" lon="16.045133764089456"><ele>101.0</ele><time>2026-04-18T11:26:48.91Z</time></trkpt><trkpt lat="39.35058769550223" lon="16.045081416226125"><ele>101.0</ele><time>2026-04-18T11:26:49.91Z</time></trkpt><trkpt lat="39.35044736172204" lon="16.04503682190624"><ele>101.0</ele><time>2026-04-18T11:26:50.91Z</time></trkpt><trkpt lat="39.35030892356337" lon="16.04499023106997"><ele>101.0</ele><time>2026-04-18T11:26:51.91Z</time></trkpt><trkpt lat="39.35017646187611" lon="16.04494078124201"><ele>100.0</ele><time>2026-04-18T11:26:52.91Z</time></trkpt><trkpt lat="39.35003991570441" lon="16.044892344459935"><ele>99.0</ele><time>2026-04-18T11:26:53.91Z</time></trkpt><trkpt lat="39.34991046083663" lon="16.0448463888379"><ele>98.0</ele><time>2026-04-18T11:26:54.91Z</time></trkpt><trkpt lat="39.34976886206934" lon="16.04480042439538"><ele>97.0</ele><time>2026-04-18T11:26:55.91Z</time></trkpt><trkpt lat="39.34962907924182" lon="16.044749914599738"><ele>97.0</ele><time>2026-04-18T11:26:56.91Z</time></trkpt><trkpt lat="39.34948619937763" lon="16.04470030239568"><ele>97.0</ele><time>2026-04-18T11:26:57.91Z</time></trkpt><trkpt lat="39.34934068805529" lon="16.044650206040195"><ele>97.0</ele><time>2026-04-18T11:26:58.91Z</time></trkpt><trkpt lat="39.34918565257033" lon="16.044595283573422"><ele>97.0</ele><time>2026-04-18T11:26:59.91Z</time></trkpt><trkpt lat="39.34903640369198" lon="16.04454060416262"><ele>97.0</ele><time>2026-04-18T11:27:00.91Z</time></trkpt><trkpt lat="39.34889046482976" lon="16.04449053827634"><ele>97.0</ele><time>2026-04-18T11:27:01.91Z</time></trkpt><trkpt lat="39.34874476725056" lon="16.044444799290925"><ele>96.0</ele><time>2026-04-18T11:27:02.91Z</time></trkpt><trkpt lat="39.34860013703588" lon="16.044399459509055"><ele>95.0</ele><time>2026-04-18T11:27:03.91Z</time></trkpt><trkpt lat="39.34845901225137" lon="16.044356512871143"><ele>94.0</ele><time>2026-04-18T11:27:04.91Z</time></trkpt><trkpt lat="39.34831308053594" lon="16.04431881247112"><ele>93.0</ele><time>2026-04-18T11:27:05.91Z</time></trkpt><trkpt lat="39.348158692212536" lon="16.044289793662266"><ele>91.66666666666667</ele><time>2026-04-18T11:27:06.91Z</time></trkpt><trkpt lat="39.34799239837122" lon="16.044268786454378"><ele>90.33333333333334</ele><time>2026-04-18T11:27:07.91Z</time></trkpt><trkpt lat="39.347817965502195" lon="16.044265455013868"><ele>89.0</ele><time>2026-04-18T11:27:08.91Z</time></trkpt><trkpt lat="39.347650548482434" lon="16.044271203584508"><ele>89.0</ele><time>2026-04-18T11:27:09.91Z</time></trkpt><trkpt lat="39.34747912938226" lon="16.04428754281323"><ele>89.0</ele><time>2026-04-18T11:27:10.91Z</time></trkpt><trkpt lat="39.34731332106296" lon="16.04430906799144"><ele>89.0</ele><time>2026-04-18T11:27:11.909Z</time></trkpt><trkpt lat="39.347158014824835" lon="16.04433390757307"><ele>87.75</ele><time>2026-04-18T11:27:12.909Z</time></trkpt><trkpt lat="39.347007511697505" lon="16.044357607129154"><ele>86.5</ele><time>2026-04-18T11:27:13.909Z</time></trkpt><trkpt lat="39.34686082693656" lon="16.044378960263007"><ele>85.25</ele><time>2026-04-18T11:27:14.909Z</time></trkpt><trkpt lat="39.34671577158928" lon="16.044398803018304"><ele>84.0</ele><time>2026-04-18T11:27:15.909Z</time></trkpt><trkpt lat="39.346573567611195" lon="16.044418895290598"><ele>84.0</ele><time>2026-04-18T11:27:16.909Z</time></trkpt><trkpt lat="39.34643406362432" lon="16.044438501385805"><ele>84.0</ele><time>2026-04-18T11:27:17.909Z</time></trkpt><trkpt lat="39.34629689895757" lon="16.04445739161333"><ele>84.0</ele><time>2026-04-18T11:27:18.909Z</time></trkpt><trkpt lat="39.346155263227764" lon="16.04447616640416"><ele>84.0</ele><time>2026-04-18T11:27:19.909Z</time></trkpt><trkpt lat="39.34600102162009" lon="16.044498601127987"><ele>81.33333333333333</ele><time>2026-04-18T11:27:20.909Z</time></trkpt><trkpt lat="39.3458491399503" lon="16.044519276278926"><ele>78.66666666666666</ele><time>2026-04-18T11:27:21.909Z</time></trkpt><trkpt lat="39.34569562958653" lon="16.04453997370845"><ele>76.0</ele><time>2026-04-18T11:27:22.909Z</time></trkpt><trkpt lat="39.34554482580712" lon="16.04456025427565"><ele>74.0</ele><time>2026-04-18T11:27:23.909Z</time></trkpt><trkpt lat="39.345389470559006" lon="16.044574725976673"><ele>72.0</ele><time>2026-04-18T11:27:24.909Z</time></trkpt><trkpt lat="39.3452406616567" lon="16.04458805143069"><ele>70.0</ele><time>2026-04-18T11:27:25.909Z</time></trkpt><trkpt lat="39.345099627820225" lon="16.044605085354046"><ele>68.0</ele><time>2026-04-18T11:27:26.909Z</time></trkpt><trkpt lat="39.34493930538696" lon="16.044617349504534"><ele>68.0</ele><time>2026-04-18T11:27:27.909Z</time></trkpt><trkpt lat="39.34488904536122" lon="16.044666562245254"><ele>68.0</ele><time>2026-04-18T11:27:28.909Z</time></trkpt><trkpt lat="39.3447442055473" lon="16.044686372551315"><ele>68.0</ele><time>2026-04-18T11:27:29.909Z</time></trkpt><trkpt lat="39.344603205223294" lon="16.044700685445253"><ele>68.0</ele><time>2026-04-18T11:27:30.909Z</time></trkpt><trkpt lat="39.34446415126523" lon="16.044710616463057"><ele>67.33333333333334</ele><time>2026-04-18T11:27:31.909Z</time></trkpt><trkpt lat="39.344313957017725" lon="16.044714892039966"><ele>66.66666666666667</ele><time>2026-04-18T11:27:32.909Z</time></trkpt><trkpt lat="39.344165777790245" lon="16.044710878712944"><ele>66.0</ele><time>2026-04-18T11:27:33.909Z</time></trkpt><trkpt lat="39.34401252234648" lon="16.0446995413383"><ele>65.0</ele><time>2026-04-18T11:27:34.909Z</time></trkpt><trkpt lat="39.34385190405953" lon="16.044683738646757"><ele>64.0</ele><time>2026-04-18T11:27:35.909Z</time></trkpt><trkpt lat="39.343685289927876" lon="16.044664719311434"><ele>63.0</ele><time>2026-04-18T11:27:36.909Z</time></trkpt><trkpt lat="39.34351936545317" lon="16.044637064588255"><ele>63.0</ele><time>2026-04-18T11:27:37.909Z</time></trkpt><trkpt lat="39.343345941579805" lon="16.044607758557827"><ele>63.0</ele><time>2026-04-18T11:27:38.909Z</time></trkpt><trkpt lat="39.34316974432912" lon="16.04458303528714"><ele>63.0</ele><time>2026-04-18T11:27:39.909Z</time></trkpt><trkpt lat="39.34300362667554" lon="16.044558129679103"><ele>63.0</ele><time>2026-04-18T11:27:40.909Z</time></trkpt><trkpt lat="39.34284274537127" lon="16.044532163761648"><ele>63.0</ele><time>2026-04-18T11:27:41.909Z</time></trkpt><trkpt lat="39.342690368699294" lon="16.044505328479303"><ele>63.0</ele><time>2026-04-18T11:27:42.909Z</time></trkpt><trkpt lat="39.342526747308675" lon="16.04447682833586"><ele>63.0</ele><time>2026-04-18T11:27:43.909Z</time></trkpt><trkpt lat="39.342358023858196" lon="16.044440801849767"><ele>63.0</ele><time>2026-04-18T11:27:44.909Z</time></trkpt><trkpt lat="39.342184560818424" lon="16.04441043421792"><ele>63.0</ele><time>2026-04-18T11:27:45.909Z</time></trkpt><trkpt lat="39.342017385938625" lon="16.044389688802713"><ele>64.66666666666667</ele><time>2026-04-18T11:27:46.909Z</time></trkpt><trkpt lat="39.34185471990121" lon="16.04437798355066"><ele>66.33333333333334</ele><time>2026-04-18T11:27:47.909Z</time></trkpt><trkpt lat="39.34169909943077" lon="16.04437036088911"><ele>68.0</ele><time>2026-04-18T11:27:48.909Z</time></trkpt><trkpt lat="39.34154131463525" lon="16.044372056025505"><ele>68.66666666666667</ele><time>2026-04-18T11:27:49.909Z</time></trkpt><trkpt lat="39.341373439834044" lon="16.044387241364163"><ele>69.33333333333333</ele><time>2026-04-18T11:27:50.909Z</time></trkpt><trkpt lat="39.341202232668145" lon="16.044410485363148"><ele>70.0</ele><time>2026-04-18T11:27:51.909Z</time></trkpt><trkpt lat="39.34103368468193" lon="16.044440069159858"><ele>70.0</ele><time>2026-04-18T11:27:52.909Z</time></trkpt><trkpt lat="39.34087530973743" lon="16.04447276644753"><ele>70.0</ele><time>2026-04-18T11:27:53.909Z</time></trkpt><trkpt lat="39.34071702691492" lon="16.044504560410275"><ele>70.0</ele><time>2026-04-18T11:27:54.909Z</time></trkpt><trkpt lat="39.34055695681368" lon="16.044540492892914"><ele>67.0</ele><time>2026-04-18T11:27:55.91Z</time></trkpt><trkpt lat="39.34039601712666" lon="16.04458081557891"><ele>64.0</ele><time>2026-04-18T11:27:56.91Z</time></trkpt><trkpt lat="39.34023522434103" lon="16.044622062276336"><ele>61.0</ele><time>2026-04-18T11:27:57.91Z</time></trkpt><trkpt lat="39.34007217670591" lon="16.04466054298908"><ele>61.0</ele><time>2026-04-18T11:27:58.91Z</time></trkpt><trkpt lat="39.33990758742262" lon="16.04469811611637"><ele>61.0</ele><time>2026-04-18T11:27:59.91Z</time></trkpt><trkpt lat="39.339747903803065" lon="16.044737766694613"><ele>61.0</ele><time>2026-04-18T11:28:00.91Z</time></trkpt><trkpt lat="39.33958096223964" lon="16.0447767866123"><ele>59.666666666666664</ele><time>2026-04-18T11:28:01.91Z</time></trkpt><trkpt lat="39.3394174987916" lon="16.044817784954944"><ele>58.33333333333333</ele><time>2026-04-18T11:28:02.91Z</time></trkpt><trkpt lat="39.339254602726925" lon="16.044858775240083"><ele>57.0</ele><time>2026-04-18T11:28:03.91Z</time></trkpt><trkpt lat="39.339084491149386" lon="16.044898454331953"><ele>57.0</ele><time>2026-04-18T11:28:04.91Z</time></trkpt><trkpt lat="39.33892811467018" lon="16.04494573399609"><ele>57.0</ele><time>2026-04-18T11:28:05.91Z</time></trkpt><trkpt lat="39.33876424612232" lon="16.04497704273875"><ele>57.0</ele><time>2026-04-18T11:28:06.91Z</time></trkpt><trkpt lat="39.33860441822569" lon="16.045024310031522"><ele>58.0</ele><time>2026-04-18T11:28:07.91Z</time></trkpt><trkpt lat="39.33844369626394" lon="16.045066716400193"><ele>59.0</ele><time>2026-04-18T11:28:08.91Z</time></trkpt><trkpt lat="39.33828006356519" lon="16.04510909582103"><ele>60.0</ele><time>2026-04-18T11:28:09.91Z</time></trkpt><trkpt lat="39.338122016655426" lon="16.0451504332973"><ele>59.0</ele><time>2026-04-18T11:28:10.91Z</time></trkpt><trkpt lat="39.33796385453749" lon="16.045192198089406"><ele>58.0</ele><time>2026-04-18T11:28:11.91Z</time></trkpt><trkpt lat="39.33779944145145" lon="16.045231048281426"><ele>57.0</ele><time>2026-04-18T11:28:12.91Z</time></trkpt><trkpt lat="39.33763091423284" lon="16.045268654250055"><ele>57.0</ele><time>2026-04-18T11:28:13.91Z</time></trkpt><trkpt lat="39.33746111512821" lon="16.045308636195557"><ele>57.0</ele><time>2026-04-18T11:28:14.91Z</time></trkpt><trkpt lat="39.3372843441695" lon="16.04535011520131"><ele>57.0</ele><time>2026-04-18T11:28:15.91Z</time></trkpt><trkpt lat="39.337111004373114" lon="16.045398193991957"><ele>57.25</ele><time>2026-04-18T11:28:16.91Z</time></trkpt><trkpt lat="39.33695098336524" lon="16.045439540605127"><ele>57.5</ele><time>2026-04-18T11:28:17.91Z</time></trkpt><trkpt lat="39.336796792848816" lon="16.045481337832115"><ele>57.75</ele><time>2026-04-18T11:28:18.91Z</time></trkpt><trkpt lat="39.336671674699055" lon="16.04551558772292"><ele>58.0</ele><time>2026-04-18T11:28:19.91Z</time></trkpt><trkpt lat="39.33655120625312" lon="16.04554249101588"><ele>57.99999999999999</ele><time>2026-04-18T11:28:20.91Z</time></trkpt><trkpt lat="39.336444247898925" lon="16.045557641611882"><ele>58.0</ele><time>2026-04-18T11:28:21.91Z</time></trkpt><trkpt lat="39.336361107959966" lon="16.04553973823419"><ele>58.0</ele><time>2026-04-18T11:28:22.91Z</time></trkpt><trkpt lat="39.33628512211051" lon="16.045423368043355"><ele>58.0</ele><time>2026-04-18T11:28:24.91Z</time></trkpt><trkpt lat="39.33621648109502" lon="16.045455186256177"><ele>57.99999999999999</ele><time>2026-04-18T11:28:28.91Z</time></trkpt><trkpt lat="39.33622761894982" lon="16.045539344958488"><ele>58.0</ele><time>2026-04-18T11:28:32.91Z</time></trkpt><trkpt lat="39.33625750908108" lon="16.045459348451843"><ele>59.49999999999999</ele><time>2026-04-18T11:31:41.908Z</time></trkpt><trkpt lat="39.33626227930621" lon="16.04537308568774"><ele>61.0</ele><time>2026-04-18T11:31:47.908Z</time></trkpt><trkpt lat="39.336230671383404" lon="16.0452970470288"><ele>62.5</ele><time>2026-04-18T11:31:55.907Z</time></trkpt><trkpt lat="39.3361692799937" lon="16.045271396790994"><ele>64.0</ele><time>2026-04-18T11:32:02.907Z</time></trkpt><trkpt lat="39.336089954865" lon="16.045318002177723"><ele>65.5</ele><time>2026-04-18T11:32:07.908Z</time></trkpt><trkpt lat="39.3360254228769" lon="16.045372773355115"><ele>67.0</ele><time>2026-04-18T11:32:12.975Z</time></trkpt><trkpt lat="39.336124350349664" lon="16.04533419502515"><ele>59.666666666666664</ele><time>2026-04-18T11:32:17.969Z</time></trkpt><trkpt lat="39.336223821942085" lon="16.044955655369314"><ele>52.33333333333333</ele><time>2026-04-18T11:32:18.976Z</time></trkpt><trkpt lat="39.336186637578734" lon="16.044840783681842"><ele>45.0</ele><time>2026-04-18T11:32:19.972Z</time></trkpt><trkpt lat="39.33613064362817" lon="16.044799510026984"><ele>45.0</ele><time>2026-04-18T11:32:26.908Z</time></trkpt><trkpt lat="39.33610826403356" lon="16.044887407572027"><ele>45.0</ele><time>2026-04-18T12:59:33.88Z</time></trkpt><trkpt lat="39.33613394187039" lon="16.04496230699303"><ele>45.0</ele><time>2026-04-18T12:59:48.88Z</time></trkpt><trkpt lat="39.33625902933125" lon="16.045188536514658"><ele>45.0</ele><time>2026-04-18T13:00:52.379Z</time></trkpt><trkpt lat="39.33620947797186" lon="16.045253206968443"><ele>45.0</ele><time>2026-04-18T13:02:27.878Z</time></trkpt><trkpt lat="39.33623260052893" lon="16.04532900827482"><ele>47.166666666666664</ele><time>2026-04-18T13:02:31.88Z</time></trkpt><trkpt lat="39.33622877332872" lon="16.045427893763836"><ele>49.33333333333333</ele><time>2026-04-18T13:02:38.88Z</time></trkpt><trkpt lat="39.336193946670164" lon="16.045500700069972"><ele>51.5</ele><time>2026-04-18T13:02:45.88Z</time></trkpt><trkpt lat="39.336282405206106" lon="16.04549077629739"><ele>53.666666666666664</ele><time>2026-04-18T13:09:42.877Z</time></trkpt><trkpt lat="39.33632507409897" lon="16.04555304022268"><ele>55.83333333333333</ele><time>2026-04-18T13:09:58.877Z</time></trkpt><trkpt lat="39.33640858846324" lon="16.045615844195595"><ele>58.0</ele><time>2026-04-18T13:10:02.877Z</time></trkpt><trkpt lat="39.33661961624147" lon="16.045562757263813"><ele>58.0</ele><time>2026-04-18T13:10:04.877Z</time></trkpt><trkpt lat="39.33673795363159" lon="16.04552769388386"><ele>58.0</ele><time>2026-04-18T13:10:05.877Z</time></trkpt><trkpt lat="39.33687728993743" lon="16.04549019873155"><ele>58.0</ele><time>2026-04-18T13:10:06.877Z</time></trkpt><trkpt lat="39.33701578314489" lon="16.045458406948754"><ele>58.0</ele><time>2026-04-18T13:10:07.877Z</time></trkpt><trkpt lat="39.33714370184549" lon="16.045429357446245"><ele>57.75</ele><time>2026-04-18T13:10:08.877Z</time></trkpt><trkpt lat="39.337262171853084" lon="16.04540022717254"><ele>57.5</ele><time>2026-04-18T13:10:09.877Z</time></trkpt><trkpt lat="39.33737770154747" lon="16.045368630287058"><ele>57.25</ele><time>2026-04-18T13:10:10.877Z</time></trkpt><trkpt lat="39.33749808607607" lon="16.045335748424616"><ele>57.0</ele><time>2026-04-18T13:10:11.877Z</time></trkpt><trkpt lat="39.337619761916415" lon="16.045308565146915"><ele>57.0</ele><time>2026-04-18T13:10:12.877Z</time></trkpt><trkpt lat="39.337741853723735" lon="16.045283603222927"><ele>57.0</ele><time>2026-04-18T13:10:13.877Z</time></trkpt><trkpt lat="39.33786073742214" lon="16.045257321021573"><ele>57.0</ele><time>2026-04-18T13:10:14.877Z</time></trkpt><trkpt lat="39.3379810765818" lon="16.04522459957516"><ele>57.0</ele><time>2026-04-18T13:10:15.877Z</time></trkpt><trkpt lat="39.33809987130282" lon="16.045195061359816"><ele>57.75</ele><time>2026-04-18T13:10:16.877Z</time></trkpt><trkpt lat="39.33822118027644" lon="16.04516459918213"><ele>58.5</ele><time>2026-04-18T13:10:17.877Z</time></trkpt><trkpt lat="39.33834727376472" lon="16.045130089034828"><ele>59.25</ele><time>2026-04-18T13:10:18.877Z</time></trkpt><trkpt lat="39.33849142464793" lon="16.045093751171194"><ele>60.0</ele><time>2026-04-18T13:10:19.877Z</time></trkpt><trkpt lat="39.33864759050783" lon="16.0450547708051"><ele>60.0</ele><time>2026-04-18T13:10:20.877Z</time></trkpt><trkpt lat="39.33881453100383" lon="16.04501354191192"><ele>60.0</ele><time>2026-04-18T13:10:21.877Z</time></trkpt><trkpt lat="39.33898102806982" lon="16.044973670536034"><ele>60.0</ele><time>2026-04-18T13:10:22.876Z</time></trkpt><trkpt lat="39.33915877199332" lon="16.044931660747004"><ele>59.0</ele><time>2026-04-18T13:10:23.876Z</time></trkpt><trkpt lat="39.33933994859804" lon="16.044887907582844"><ele>58.0</ele><time>2026-04-18T13:10:24.876Z</time></trkpt><trkpt lat="39.33952092461663" lon="16.0448409234609"><ele>57.0</ele><time>2026-04-18T13:10:25.876Z</time></trkpt><trkpt lat="39.339680188275544" lon="16.044800255565665"><ele>58.33333333333333</ele><time>2026-04-18T13:10:26.876Z</time></trkpt><trkpt lat="39.33983196432519" lon="16.044761061552528"><ele>59.666666666666664</ele><time>2026-04-18T13:10:27.876Z</time></trkpt><trkpt lat="39.33998029399034" lon="16.044724247484677"><ele>61.0</ele><time>2026-04-18T13:10:28.876Z</time></trkpt><trkpt lat="39.34012881159574" lon="16.044689566552034"><ele>61.0</ele><time>2026-04-18T13:10:29.876Z</time></trkpt><trkpt lat="39.34028297516804" lon="16.044652994454044"><ele>61.0</ele><time>2026-04-18T13:10:30.876Z</time></trkpt><trkpt lat="39.34043446742888" lon="16.04461191349331"><ele>61.0</ele><time>2026-04-18T13:10:31.876Z</time></trkpt><trkpt lat="39.34058512634547" lon="16.04457434404668"><ele>63.25</ele><time>2026-04-18T13:10:32.876Z</time></trkpt><trkpt lat="39.340733249408316" lon="16.04454189969569"><ele>65.5</ele><time>2026-04-18T13:10:33.876Z</time></trkpt><trkpt lat="39.34087326587648" lon="16.0445144447256"><ele>67.75</ele><time>2026-04-18T13:10:34.876Z</time></trkpt><trkpt lat="39.341021382203245" lon="16.044485202345108"><ele>70.0</ele><time>2026-04-18T13:10:35.876Z</time></trkpt><trkpt lat="39.34117816638856" lon="16.044459009477325"><ele>70.0</ele><time>2026-04-18T13:10:36.876Z</time></trkpt><trkpt lat="39.34133483486492" lon="16.044442164580015"><ele>70.0</ele><time>2026-04-18T13:10:37.876Z</time></trkpt><trkpt lat="39.34149782659367" lon="16.04443159141486"><ele>70.0</ele><time>2026-04-18T13:10:38.876Z</time></trkpt><trkpt lat="39.34166609576525" lon="16.04442800789531"><ele>69.33333333333333</ele><time>2026-04-18T13:10:39.876Z</time></trkpt><trkpt lat="39.3418372278007" lon="16.044434483543444"><ele>68.66666666666667</ele><time>2026-04-18T13:10:40.876Z</time></trkpt><trkpt lat="39.34200780975518" lon="16.044450126128957"><ele>68.0</ele><time>2026-04-18T13:10:41.876Z</time></trkpt><trkpt lat="39.34218682235814" lon="16.04447548641534"><ele>66.33333333333334</ele><time>2026-04-18T13:10:42.876Z</time></trkpt><trkpt lat="39.342355823637604" lon="16.044505606343737"><ele>64.66666666666667</ele><time>2026-04-18T13:10:43.876Z</time></trkpt><trkpt lat="39.34253895032017" lon="16.044526834912695"><ele>63.0</ele><time>2026-04-18T13:10:44.876Z</time></trkpt><trkpt lat="39.34271975816532" lon="16.044551910333322"><ele>63.0</ele><time>2026-04-18T13:10:45.876Z</time></trkpt><trkpt lat="39.34290387960763" lon="16.044581125072124"><ele>63.0</ele><time>2026-04-18T13:10:46.876Z</time></trkpt><trkpt lat="39.343092143192635" lon="16.044614124640756"><ele>63.0</ele><time>2026-04-18T13:10:47.876Z</time></trkpt><trkpt lat="39.34327575386306" lon="16.0446501618742"><ele>63.0</ele><time>2026-04-18T13:10:48.876Z</time></trkpt><trkpt lat="39.34344968824992" lon="16.04469008464529"><ele>63.0</ele><time>2026-04-18T13:10:49.876Z</time></trkpt><trkpt lat="39.343646556177994" lon="16.044698084708"><ele>63.0</ele><time>2026-04-18T13:10:50.876Z</time></trkpt><trkpt lat="39.34381743577032" lon="16.044721947835423"><ele>63.75</ele><time>2026-04-18T13:10:51.876Z</time></trkpt><trkpt lat="39.34397093692251" lon="16.04474271693779"><ele>64.5</ele><time>2026-04-18T13:10:52.876Z</time></trkpt><trkpt lat="39.34411712647956" lon="16.04475413822649"><ele>65.25</ele><time>2026-04-18T13:10:53.877Z</time></trkpt><trkpt lat="39.34426258959728" lon="16.04476150247085"><ele>66.0</ele><time>2026-04-18T13:10:54.877Z</time></trkpt><trkpt lat="39.344417420844586" lon="16.044757968990304"><ele>66.0</ele><time>2026-04-18T13:10:55.877Z</time></trkpt><trkpt lat="39.3445800152176" lon="16.04474371223629"><ele>66.0</ele><time>2026-04-18T13:10:56.877Z</time></trkpt><trkpt lat="39.344746386781075" lon="16.04472744891855"><ele>66.0</ele><time>2026-04-18T13:10:57.877Z</time></trkpt><trkpt lat="39.344909535025295" lon="16.044711291758905"><ele>66.66666666666667</ele><time>2026-04-18T13:10:58.877Z</time></trkpt><trkpt lat="39.345063982971865" lon="16.044687532072764"><ele>67.33333333333334</ele><time>2026-04-18T13:10:59.877Z</time></trkpt><trkpt lat="39.34521900931258" lon="16.04466536609776"><ele>68.0</ele><time>2026-04-18T13:11:00.877Z</time></trkpt><trkpt lat="39.345377578105065" lon="16.04464240524597"><ele>68.0</ele><time>2026-04-18T13:11:01.877Z</time></trkpt><trkpt lat="39.345532268768736" lon="16.044614434490846"><ele>68.0</ele><time>2026-04-18T13:11:02.877Z</time></trkpt><trkpt lat="39.34567895707582" lon="16.044592251545133"><ele>68.0</ele><time>2026-04-18T13:11:03.877Z</time></trkpt><trkpt lat="39.34581716786056" lon="16.0445687873172"><ele>68.0</ele><time>2026-04-18T13:11:04.877Z</time></trkpt><trkpt lat="39.34596093333135" lon="16.044546349008616"><ele>70.0</ele><time>2026-04-18T13:11:05.877Z</time></trkpt><trkpt lat="39.34609940327021" lon="16.04452347958628"><ele>72.0</ele><time>2026-04-18T13:11:06.877Z</time></trkpt><trkpt lat="39.34623940868793" lon="16.0445045115837"><ele>74.0</ele><time>2026-04-18T13:11:07.877Z</time></trkpt><trkpt lat="39.34637682116769" lon="16.044489935325"><ele>76.0</ele><time>2026-04-18T13:11:08.877Z</time></trkpt><trkpt lat="39.34651145952195" lon="16.044465034097215"><ele>78.0</ele><time>2026-04-18T13:11:09.877Z</time></trkpt><trkpt lat="39.34664903912393" lon="16.04444315415602"><ele>80.0</ele><time>2026-04-18T13:11:10.877Z</time></trkpt><trkpt lat="39.3467904296057" lon="16.044423574733667"><ele>82.0</ele><time>2026-04-18T13:11:11.877Z</time></trkpt><trkpt lat="39.346928272679826" lon="16.044407035896658"><ele>84.0</ele><time>2026-04-18T13:11:12.877Z</time></trkpt><trkpt lat="39.34706793481286" lon="16.044393270396256"><ele>85.25</ele><time>2026-04-18T13:11:13.877Z</time></trkpt><trkpt lat="39.34721169337263" lon="16.04437407663529"><ele>86.5</ele><time>2026-04-18T13:11:14.877Z</time></trkpt><trkpt lat="39.34735264227867" lon="16.04434790486504"><ele>87.75</ele><time>2026-04-18T13:11:15.877Z</time></trkpt><trkpt lat="39.34749124719731" lon="16.04433510624671"><ele>89.0</ele><time>2026-04-18T13:11:16.877Z</time></trkpt><trkpt lat="39.34763081487829" lon="16.04432239827422"><ele>89.0</ele><time>2026-04-18T13:11:17.877Z</time></trkpt><trkpt lat="39.34777129426584" lon="16.044312939701253"><ele>89.0</ele><time>2026-04-18T13:11:18.877Z</time></trkpt><trkpt lat="39.347914955261245" lon="16.04431256977874"><ele>89.0</ele><time>2026-04-18T13:11:19.877Z</time></trkpt><trkpt lat="39.34805783991009" lon="16.044319001684684"><ele>89.0</ele><time>2026-04-18T13:11:20.877Z</time></trkpt><trkpt lat="39.348201115809324" lon="16.044340745650914"><ele>90.0</ele><time>2026-04-18T13:11:21.877Z</time></trkpt><trkpt lat="39.348340801972505" lon="16.044375134131343"><ele>91.0</ele><time>2026-04-18T13:11:22.877Z</time></trkpt><trkpt lat="39.348489664086905" lon="16.044421677300875"><ele>92.0</ele><time>2026-04-18T13:11:23.877Z</time></trkpt><trkpt lat="39.34863894724374" lon="16.044456241115732"><ele>93.0</ele><time>2026-04-18T13:11:24.877Z</time></trkpt><trkpt lat="39.34878398113951" lon="16.044507141519606"><ele>94.33333333333334</ele><time>2026-04-18T13:11:25.877Z</time></trkpt><trkpt lat="39.348926824934786" lon="16.044563761853983"><ele>95.66666666666667</ele><time>2026-04-18T13:11:26.877Z</time></trkpt><trkpt lat="39.34907602798083" lon="16.044617416673223"><ele>97.0</ele><time>2026-04-18T13:11:27.877Z</time></trkpt><trkpt lat="39.34922401167018" lon="16.044671248438103"><ele>97.0</ele><time>2026-04-18T13:11:28.877Z</time></trkpt><trkpt lat="39.34937563097469" lon="16.044722133041706"><ele>97.0</ele><time>2026-04-18T13:11:29.877Z</time></trkpt><trkpt lat="39.34953038855623" lon="16.044776426787635"><ele>97.0</ele><time>2026-04-18T13:11:30.877Z</time></trkpt><trkpt lat="39.34968234057853" lon="16.04482635774597"><ele>97.66666666666667</ele><time>2026-04-18T13:11:31.877Z</time></trkpt><trkpt lat="39.34982740718447" lon="16.044880219251244"><ele>98.33333333333334</ele><time>2026-04-18T13:11:32.877Z</time></trkpt><trkpt lat="39.34998168916154" lon="16.044928379535193"><ele>99.0</ele><time>2026-04-18T13:11:33.877Z</time></trkpt><trkpt lat="39.35013454394337" lon="16.044975704356393"><ele>99.0</ele><time>2026-04-18T13:11:34.877Z</time></trkpt><trkpt lat="39.35028198769162" lon="16.045031266748524"><ele>99.0</ele><time>2026-04-18T13:11:35.877Z</time></trkpt><trkpt lat="39.350438558240114" lon="16.04508583407495"><ele>99.0</ele><time>2026-04-18T13:11:36.877Z</time></trkpt><trkpt lat="39.350593079316184" lon="16.04513956638129"><ele>99.66666666666666</ele><time>2026-04-18T13:11:37.876Z</time></trkpt><trkpt lat="39.35074509744258" lon="16.045192078566938"><ele>100.33333333333333</ele><time>2026-04-18T13:11:38.876Z</time></trkpt><trkpt lat="39.35090838743496" lon="16.04524574560909"><ele>101.0</ele><time>2026-04-18T13:11:39.876Z</time></trkpt><trkpt lat="39.35109329320435" lon="16.045310448969204"><ele>101.0</ele><time>2026-04-18T13:11:40.876Z</time></trkpt><trkpt lat="39.35128199949028" lon="16.045377966569188"><ele>101.0</ele><time>2026-04-18T13:11:41.876Z</time></trkpt><trkpt lat="39.35144794766205" lon="16.04543294978456"><ele>101.0</ele><time>2026-04-18T13:11:42.876Z</time></trkpt><trkpt lat="39.35161200831132" lon="16.04549229696287"><ele>102.33333333333333</ele><time>2026-04-18T13:11:43.876Z</time></trkpt><trkpt lat="39.351771381174785" lon="16.04554392563487"><ele>103.66666666666666</ele><time>2026-04-18T13:11:44.876Z</time></trkpt><trkpt lat="39.35194267298861" lon="16.04559391327727"><ele>105.0</ele><time>2026-04-18T13:11:45.876Z</time></trkpt><trkpt lat="39.352118696023695" lon="16.04564131691085"><ele>107.0</ele><time>2026-04-18T13:11:46.876Z</time></trkpt><trkpt lat="39.352308722906876" lon="16.04567921501494"><ele>109.0</ele><time>2026-04-18T13:11:47.876Z</time></trkpt><trkpt lat="39.35248929687149" lon="16.045710778674007"><ele>111.0</ele><time>2026-04-18T13:11:48.876Z</time></trkpt><trkpt lat="39.35265164464189" lon="16.045735869292162"><ele>111.0</ele><time>2026-04-18T13:11:49.876Z</time></trkpt><trkpt lat="39.35280324893774" lon="16.04575938648049"><ele>111.0</ele><time>2026-04-18T13:11:50.876Z</time></trkpt><trkpt lat="39.35295649427387" lon="16.045787501137873"><ele>111.0</ele><time>2026-04-18T13:11:51.876Z</time></trkpt><trkpt lat="39.353114964082785" lon="16.04581746789997"><ele>114.66666666666666</ele><time>2026-04-18T13:11:52.876Z</time></trkpt><trkpt lat="39.35327497003819" lon="16.04584799292114"><ele>118.33333333333333</ele><time>2026-04-18T13:11:53.876Z</time></trkpt><trkpt lat="39.35343614902754" lon="16.045878374877194"><ele>122.0</ele><time>2026-04-18T13:11:54.876Z</time></trkpt><trkpt lat="39.353598675830504" lon="16.04590928086552"><ele>122.0</ele><time>2026-04-18T13:11:55.876Z</time></trkpt><trkpt lat="39.35375385986993" lon="16.045938689330665"><ele>122.0</ele><time>2026-04-18T13:11:56.876Z</time></trkpt><trkpt lat="39.35390539961123" lon="16.0459649721507"><ele>122.0</ele><time>2026-04-18T13:11:57.876Z</time></trkpt><trkpt lat="39.35405499638201" lon="16.04598601914185"><ele>123.0</ele><time>2026-04-18T13:11:58.876Z</time></trkpt><trkpt lat="39.35420418700627" lon="16.04600902672129"><ele>124.0</ele><time>2026-04-18T13:11:59.876Z</time></trkpt><trkpt lat="39.35435700524308" lon="16.046042508102285"><ele>125.0</ele><time>2026-04-18T13:12:00.876Z</time></trkpt><trkpt lat="39.35450714684016" lon="16.046069601124493"><ele>125.0</ele><time>2026-04-18T13:12:01.876Z</time></trkpt><trkpt lat="39.354655376205024" lon="16.046084893180918"><ele>125.0</ele><time>2026-04-18T13:12:02.876Z</time></trkpt><trkpt lat="39.354794161074565" lon="16.04608782159359"><ele>125.0</ele><time>2026-04-18T13:12:03.876Z</time></trkpt><trkpt lat="39.35491887820703" lon="16.046070429973078"><ele>125.0</ele><time>2026-04-18T13:12:04.876Z</time></trkpt><trkpt lat="39.355036810705634" lon="16.046051511527363"><ele>124.75</ele><time>2026-04-18T13:12:05.876Z</time></trkpt><trkpt lat="39.35515479093338" lon="16.046023863644443"><ele>124.5</ele><time>2026-04-18T13:12:06.876Z</time></trkpt><trkpt lat="39.355275947013" lon="16.045986302141145"><ele>124.25</ele><time>2026-04-18T13:12:07.876Z</time></trkpt><trkpt lat="39.35540078194057" lon="16.045943205725056"><ele>124.0</ele><time>2026-04-18T13:12:08.876Z</time></trkpt><trkpt lat="39.35552382739571" lon="16.045890122076756"><ele>125.0</ele><time>2026-04-18T13:12:09.876Z</time></trkpt><trkpt lat="39.35564684080207" lon="16.045825547513207"><ele>126.0</ele><time>2026-04-18T13:12:10.876Z</time></trkpt><trkpt lat="39.35577470398098" lon="16.045759701512782"><ele>127.0</ele><time>2026-04-18T13:12:11.876Z</time></trkpt><trkpt lat="39.35589936774391" lon="16.045695911960973"><ele>128.0</ele><time>2026-04-18T13:12:12.876Z</time></trkpt><trkpt lat="39.35602221118163" lon="16.045638522099054"><ele>127.80000000000001</ele><time>2026-04-18T13:12:13.876Z</time></trkpt><trkpt lat="39.35613066195127" lon="16.045587802174033"><ele>127.60000000000001</ele><time>2026-04-18T13:12:14.876Z</time></trkpt><trkpt lat="39.35623304274243" lon="16.045540845454795"><ele>127.39999999999999</ele><time>2026-04-18T13:12:15.876Z</time></trkpt><trkpt lat="39.356327980041776" lon="16.045494267702793"><ele>127.19999999999999</ele><time>2026-04-18T13:12:16.876Z</time></trkpt><trkpt lat="39.356420731418055" lon="16.045453126530248"><ele>127.0</ele><time>2026-04-18T13:12:17.876Z</time></trkpt><trkpt lat="39.356499896177446" lon="16.045445065986783"><ele>127.0</ele><time>2026-04-18T13:12:18.876Z</time></trkpt><trkpt lat="39.35655670078152" lon="16.045483259703346"><ele>126.99999999999999</ele><time>2026-04-18T13:12:19.876Z</time></trkpt><trkpt lat="39.35660786392761" lon="16.04564528530441"><ele>126.99999999999999</ele><time>2026-04-18T13:12:21.876Z</time></trkpt><trkpt lat="39.356595490079606" lon="16.04575642620823"><ele>127.0</ele><time>2026-04-18T13:12:22.876Z</time></trkpt><trkpt lat="39.356559417557854" lon="16.045883349009955"><ele>127.0</ele><time>2026-04-18T13:12:23.876Z</time></trkpt><trkpt lat="39.35650850081965" lon="16.046020716527323"><ele>127.25</ele><time>2026-04-18T13:12:24.876Z</time></trkpt><trkpt lat="39.35645403367456" lon="16.046166612203088"><ele>127.5</ele><time>2026-04-18T13:12:25.876Z</time></trkpt><trkpt lat="39.35638885060741" lon="16.04634584567715"><ele>127.75</ele><time>2026-04-18T13:12:26.876Z</time></trkpt><trkpt lat="39.356332318613" lon="16.04651184721629"><ele>128.0</ele><time>2026-04-18T13:12:27.876Z</time></trkpt><trkpt lat="39.3562900867875" lon="16.046645060796823"><ele>130.4</ele><time>2026-04-18T13:12:28.876Z</time></trkpt><trkpt lat="39.35624846818102" lon="16.046758056526212"><ele>132.8</ele><time>2026-04-18T13:12:29.876Z</time></trkpt><trkpt lat="39.35621075489839" lon="16.046858009653178"><ele>135.2</ele><time>2026-04-18T13:12:30.876Z</time></trkpt><trkpt lat="39.35616721772904" lon="16.046978572929188"><ele>137.6</ele><time>2026-04-18T13:12:31.876Z</time></trkpt><trkpt lat="39.35612263213174" lon="16.04711264055632"><ele>140.0</ele><time>2026-04-18T13:12:32.876Z</time></trkpt><trkpt lat="39.35606834153478" lon="16.047261580339654"><ele>140.0</ele><time>2026-04-18T13:12:33.876Z</time></trkpt><trkpt lat="39.35599540957973" lon="16.047413814510797"><ele>140.0</ele><time>2026-04-18T13:12:34.876Z</time></trkpt><trkpt lat="39.35590409361747" lon="16.04756653728608"><ele>140.0</ele><time>2026-04-18T13:12:35.876Z</time></trkpt><trkpt lat="39.355799650452376" lon="16.047728152567455"><ele>144.66666666666666</ele><time>2026-04-18T13:12:36.876Z</time></trkpt><trkpt lat="39.35568449561306" lon="16.047896236478568"><ele>149.33333333333334</ele><time>2026-04-18T13:12:37.876Z</time></trkpt><trkpt lat="39.355572510691644" lon="16.048029295171546"><ele>154.0</ele><time>2026-04-18T13:12:38.876Z</time></trkpt><trkpt lat="39.35544574426677" lon="16.048126764059703"><ele>154.0</ele><time>2026-04-18T13:12:39.876Z</time></trkpt><trkpt lat="39.35529285539892" lon="16.048202959018997"><ele>154.0</ele><time>2026-04-18T13:12:40.876Z</time></trkpt><trkpt lat="39.35511640552731" lon="16.048246998068297"><ele>154.0</ele><time>2026-04-18T13:12:41.876Z</time></trkpt><trkpt lat="39.354927148725515" lon="16.048260004044806"><ele>154.0</ele><time>2026-04-18T13:12:42.876Z</time></trkpt><trkpt lat="39.3547374979543" lon="16.048252198180403"><ele>154.0</ele><time>2026-04-18T13:12:43.876Z</time></trkpt><trkpt lat="39.35455129157659" lon="16.048250317784092"><ele>154.0</ele><time>2026-04-18T13:12:44.876Z</time></trkpt><trkpt lat="39.35436899023279" lon="16.0482741978894"><ele>159.33333333333334</ele><time>2026-04-18T13:12:45.876Z</time></trkpt><trkpt lat="39.35420271820559" lon="16.048345474519888"><ele>164.66666666666666</ele><time>2026-04-18T13:12:46.876Z</time></trkpt><trkpt lat="39.35404250236634" lon="16.04844879960765"><ele>170.0</ele><time>2026-04-18T13:12:47.876Z</time></trkpt><trkpt lat="39.35389134664975" lon="16.048584431717632"><ele>169.33333333333331</ele><time>2026-04-18T13:12:48.876Z</time></trkpt><trkpt lat="39.35375741859833" lon="16.04874509746554"><ele>168.66666666666666</ele><time>2026-04-18T13:12:49.876Z</time></trkpt><trkpt lat="39.35364607582236" lon="16.04893420927631"><ele>168.0</ele><time>2026-04-18T13:12:50.876Z</time></trkpt><trkpt lat="39.35355827133009" lon="16.049121581304654"><ele>173.25</ele><time>2026-04-18T13:12:51.876Z</time></trkpt><trkpt lat="39.35348128492037" lon="16.049286938530212"><ele>178.5</ele><time>2026-04-18T13:12:52.876Z</time></trkpt><trkpt lat="39.3533921658166" lon="16.04940827969932"><ele>183.75</ele><time>2026-04-18T13:12:53.876Z</time></trkpt><trkpt lat="39.35332082136615" lon="16.04952594478943"><ele>189.0</ele><time>2026-04-18T13:12:54.876Z</time></trkpt><trkpt lat="39.35321543043707" lon="16.049580515877782"><ele>189.0</ele><time>2026-04-18T13:12:55.876Z</time></trkpt><trkpt lat="39.353080843265275" lon="16.049579983972695"><ele>189.0</ele><time>2026-04-18T13:12:56.876Z</time></trkpt><trkpt lat="39.352939455303925" lon="16.049541849154902"><ele>189.0</ele><time>2026-04-18T13:12:57.876Z</time></trkpt><trkpt lat="39.35280687878094" lon="16.049453101340664"><ele>189.0</ele><time>2026-04-18T13:12:58.876Z</time></trkpt><trkpt lat="39.352699882513456" lon="16.04930098734272"><ele>192.0</ele><time>2026-04-18T13:12:59.876Z</time></trkpt><trkpt lat="39.35257663265105" lon="16.049157628845016"><ele>195.0</ele><time>2026-04-18T13:13:00.876Z</time></trkpt><trkpt lat="39.35246341566654" lon="16.049018664662846"><ele>198.0</ele><time>2026-04-18T13:13:01.876Z</time></trkpt><trkpt lat="39.352328039373475" lon="16.048909319215923"><ele>190.0</ele><time>2026-04-18T13:13:02.876Z</time></trkpt><trkpt lat="39.35217833926842" lon="16.048837635077373"><ele>182.0</ele><time>2026-04-18T13:13:03.876Z</time></trkpt><trkpt lat="39.352014831424185" lon="16.04880356814358"><ele>174.0</ele><time>2026-04-18T13:13:04.876Z</time></trkpt><trkpt lat="39.35185154100139" lon="16.048808178008183"><ele>174.0</ele><time>2026-04-18T13:13:05.876Z</time></trkpt><trkpt lat="39.35168671855299" lon="16.04884717745046"><ele>174.0</ele><time>2026-04-18T13:13:06.876Z</time></trkpt><trkpt lat="39.35154217313062" lon="16.048897170330008"><ele>174.0</ele><time>2026-04-18T13:13:07.876Z</time></trkpt><trkpt lat="39.351402743564826" lon="16.048939630335784"><ele>174.66666666666666</ele><time>2026-04-18T13:13:08.876Z</time></trkpt><trkpt lat="39.35124651623716" lon="16.04899252251071"><ele>175.33333333333331</ele><time>2026-04-18T13:13:09.876Z</time></trkpt><trkpt lat="39.3510902941189" lon="16.049018241174114"><ele>176.0</ele><time>2026-04-18T13:13:10.876Z</time></trkpt><trkpt lat="39.350932432640505" lon="16.049053101136582"><ele>176.0</ele><time>2026-04-18T13:13:11.876Z</time></trkpt><trkpt lat="39.35079025905793" lon="16.049081305396708"><ele>176.0</ele><time>2026-04-18T13:13:12.876Z</time></trkpt><trkpt lat="39.350659838307976" lon="16.049109567908054"><ele>176.0</ele><time>2026-04-18T13:13:13.876Z</time></trkpt><trkpt lat="39.35053272449431" lon="16.04914294697845"><ele>176.0</ele><time>2026-04-18T13:13:14.876Z</time></trkpt><trkpt lat="39.35040237396874" lon="16.04919189618478"><ele>182.0</ele><time>2026-04-18T13:13:15.876Z</time></trkpt><trkpt lat="39.350276753932775" lon="16.04925470550792"><ele>188.0</ele><time>2026-04-18T13:13:16.876Z</time></trkpt><trkpt lat="39.350156532605176" lon="16.04933217865586"><ele>194.0</ele><time>2026-04-18T13:13:17.876Z</time></trkpt><trkpt lat="39.350043069091825" lon="16.0494366150682"><ele>200.0</ele><time>2026-04-18T13:13:18.876Z</time></trkpt><trkpt lat="39.349937339871666" lon="16.049547572726762"><ele>200.0</ele><time>2026-04-18T13:13:19.876Z</time></trkpt><trkpt lat="39.3498392500964" lon="16.049666979567036"><ele>200.0</ele><time>2026-04-18T13:13:20.876Z</time></trkpt><trkpt lat="39.34975216831511" lon="16.049806036333806"><ele>200.0</ele><time>2026-04-18T13:13:21.876Z</time></trkpt><trkpt lat="39.34967098099538" lon="16.049961682345533"><ele>200.0</ele><time>2026-04-18T13:13:22.876Z</time></trkpt><trkpt lat="39.34959220944877" lon="16.050142590918046"><ele>200.66666666666669</ele><time>2026-04-18T13:13:23.876Z</time></trkpt><trkpt lat="39.34952138294024" lon="16.050345463950848"><ele>201.33333333333331</ele><time>2026-04-18T13:13:24.876Z</time></trkpt><trkpt lat="39.34944657567767" lon="16.050558400475882"><ele>202.0</ele><time>2026-04-18T13:13:25.876Z</time></trkpt><trkpt lat="39.349366997556004" lon="16.050768118566932"><ele>209.33333333333331</ele><time>2026-04-18T13:13:26.876Z</time></trkpt><trkpt lat="39.34927957468136" lon="16.050996130033163"><ele>216.66666666666669</ele><time>2026-04-18T13:13:27.876Z</time></trkpt><trkpt lat="39.34918992647177" lon="16.05122821957831"><ele>224.0</ele><time>2026-04-18T13:13:28.876Z</time></trkpt><trkpt lat="39.3491064613728" lon="16.05146323525356"><ele>233.0</ele><time>2026-04-18T13:13:29.876Z</time></trkpt><trkpt lat="39.34902902539957" lon="16.051693723295895"><ele>242.0</ele><time>2026-04-18T13:13:30.876Z</time></trkpt><trkpt lat="39.3489603207793" lon="16.05189892372324"><ele>251.0</ele><time>2026-04-18T13:13:31.876Z</time></trkpt><trkpt lat="39.348892516367904" lon="16.05207838674561"><ele>247.5</ele><time>2026-04-18T13:13:32.876Z</time></trkpt><trkpt lat="39.34881594429142" lon="16.052203981562883"><ele>244.0</ele><time>2026-04-18T13:13:33.876Z</time></trkpt><trkpt lat="39.34871862291555" lon="16.05229408234369"><ele>240.5</ele><time>2026-04-18T13:13:34.876Z</time></trkpt><trkpt lat="39.3486088517106" lon="16.052341312058754"><ele>237.0</ele><time>2026-04-18T13:13:35.876Z</time></trkpt><trkpt lat="39.34848767077642" lon="16.052335878478566"><ele>237.0</ele><time>2026-04-18T13:13:36.876Z</time></trkpt><trkpt lat="39.3483718439427" lon="16.052281372089976"><ele>237.0</ele><time>2026-04-18T13:13:37.876Z</time></trkpt><trkpt lat="39.34826533390951" lon="16.052179654856612"><ele>237.0</ele><time>2026-04-18T13:13:38.876Z</time></trkpt><trkpt lat="39.34818902212709" lon="16.052036315484234"><ele>237.0</ele><time>2026-04-18T13:13:39.876Z</time></trkpt><trkpt lat="39.34814171457036" lon="16.05186587350462"><ele>237.0</ele><time>2026-04-18T13:13:40.876Z</time></trkpt><trkpt lat="39.34809910021783" lon="16.051681872673026"><ele>237.0</ele><time>2026-04-18T13:13:41.876Z</time></trkpt><trkpt lat="39.348038681424924" lon="16.051499841106"><ele>237.0</ele><time>2026-04-18T13:13:42.876Z</time></trkpt><trkpt lat="39.347959036151934" lon="16.05131484331965"><ele>242.66666666666669</ele><time>2026-04-18T13:13:43.876Z</time></trkpt><trkpt lat="39.347865039189635" lon="16.051146238388302"><ele>248.33333333333334</ele><time>2026-04-18T13:13:44.876Z</time></trkpt><trkpt lat="39.34775622695607" lon="16.051006634253664"><ele>254.0</ele><time>2026-04-18T13:13:45.876Z</time></trkpt><trkpt lat="39.34762993873143" lon="16.050911793277297"><ele>254.0</ele><time>2026-04-18T13:13:46.876Z</time></trkpt><trkpt lat="39.34748068903943" lon="16.050851924565723"><ele>254.0</ele><time>2026-04-18T13:13:47.876Z</time></trkpt><trkpt lat="39.34730899373473" lon="16.050820464555457"><ele>254.0</ele><time>2026-04-18T13:13:48.876Z</time></trkpt><trkpt lat="39.34712782557428" lon="16.05081619008791"><ele>256.33333333333337</ele><time>2026-04-18T13:13:49.876Z</time></trkpt><trkpt lat="39.346939251365484" lon="16.050844645917646"><ele>258.6666666666667</ele><time>2026-04-18T13:13:50.876Z</time></trkpt><trkpt lat="39.34674680072661" lon="16.05089415377659"><ele>261.0</ele><time>2026-04-18T13:13:51.876Z</time></trkpt><trkpt lat="39.34657701833816" lon="16.05094355882834"><ele>261.0</ele><time>2026-04-18T13:13:52.876Z</time></trkpt><trkpt lat="39.34643661294528" lon="16.050979784005083"><ele>261.0</ele><time>2026-04-18T13:13:53.876Z</time></trkpt><trkpt lat="39.34630642958944" lon="16.05101275411481"><ele>261.0</ele><time>2026-04-18T13:13:54.876Z</time></trkpt><trkpt lat="39.346188214173544" lon="16.051056477349555"><ele>261.0</ele><time>2026-04-18T13:13:55.876Z</time></trkpt><trkpt lat="39.34607687752217" lon="16.05111721668621"><ele>258.3333333333333</ele><time>2026-04-18T13:13:56.876Z</time></trkpt><trkpt lat="39.345952243106765" lon="16.051201782645265"><ele>255.66666666666666</ele><time>2026-04-18T13:13:57.876Z</time></trkpt><trkpt lat="39.34581694806135" lon="16.051316822601983"><ele>253.0</ele><time>2026-04-18T13:13:58.876Z</time></trkpt><trkpt lat="39.34569091420887" lon="16.051450575118707"><ele>253.0</ele><time>2026-04-18T13:13:59.876Z</time></trkpt><trkpt lat="39.34557854413767" lon="16.051598026194043"><ele>253.0</ele><time>2026-04-18T13:14:00.876Z</time></trkpt><trkpt lat="39.34547579375336" lon="16.051755669929992"><ele>253.0</ele><time>2026-04-18T13:14:01.876Z</time></trkpt><trkpt lat="39.34538598224903" lon="16.051919245181978"><ele>254.0</ele><time>2026-04-18T13:14:02.876Z</time></trkpt><trkpt lat="39.34531947424209" lon="16.052070149502875"><ele>255.0</ele><time>2026-04-18T13:14:03.876Z</time></trkpt><trkpt lat="39.345257859892456" lon="16.052223891239514"><ele>256.0</ele><time>2026-04-18T13:14:04.876Z</time></trkpt><trkpt lat="39.3451908884556" lon="16.052386049304154"><ele>257.0</ele><time>2026-04-18T13:14:05.876Z</time></trkpt><trkpt lat="39.345118387118326" lon="16.052544141896554"><ele>262.25</ele><time>2026-04-18T13:14:06.876Z</time></trkpt><trkpt lat="39.34504313057815" lon="16.05269532941042"><ele>267.5</ele><time>2026-04-18T13:14:07.876Z</time></trkpt><trkpt lat="39.34496378620515" lon="16.052838245111122"><ele>272.75</ele><time>2026-04-18T13:14:08.876Z</time></trkpt><trkpt lat="39.34487283679829" lon="16.052982048259885"><ele>278.0</ele><time>2026-04-18T13:14:09.876Z</time></trkpt><trkpt lat="39.344770643129415" lon="16.053113886414685"><ele>279.75</ele><time>2026-04-18T13:14:10.876Z</time></trkpt><trkpt lat="39.34466563609792" lon="16.05323099693097"><ele>281.5</ele><time>2026-04-18T13:14:11.876Z</time></trkpt><trkpt lat="39.34455528041652" lon="16.05333523517743"><ele>283.25</ele><time>2026-04-18T13:14:12.876Z</time></trkpt><trkpt lat="39.344433776675544" lon="16.053430267116386"><ele>285.0</ele><time>2026-04-18T13:14:13.876Z</time></trkpt><trkpt lat="39.344295777850895" lon="16.053528014382977"><ele>285.0</ele><time>2026-04-18T13:14:14.876Z</time></trkpt><trkpt lat="39.3441466843961" lon="16.053621417347568"><ele>285.0</ele><time>2026-04-18T13:14:15.876Z</time></trkpt><trkpt lat="39.34399868940468" lon="16.053709178175616"><ele>285.0</ele><time>2026-04-18T13:14:16.876Z</time></trkpt><trkpt lat="39.3438453788116" lon="16.053806302248244"><ele>279.0</ele><time>2026-04-18T13:14:17.876Z</time></trkpt><trkpt lat="39.34367867126551" lon="16.053910101039964"><ele>273.0</ele><time>2026-04-18T13:14:18.876Z</time></trkpt><trkpt lat="39.34351533898524" lon="16.054001735001695"><ele>267.0</ele><time>2026-04-18T13:14:19.876Z</time></trkpt><trkpt lat="39.34334173417338" lon="16.054099061056828"><ele>274.0</ele><time>2026-04-18T13:14:20.876Z</time></trkpt><trkpt lat="39.34315283515299" lon="16.054201702705505"><ele>281.0</ele><time>2026-04-18T13:14:21.876Z</time></trkpt><trkpt lat="39.342996650350216" lon="16.05428823834737"><ele>288.0</ele><time>2026-04-18T13:14:22.876Z</time></trkpt><trkpt lat="39.342858909716426" lon="16.054385485853796"><ele>288.0</ele><time>2026-04-18T13:14:23.876Z</time></trkpt><trkpt lat="39.34272836366096" lon="16.054506090320665"><ele>288.0</ele><time>2026-04-18T13:14:24.876Z</time></trkpt><trkpt lat="39.34260397645109" lon="16.0546467261687"><ele>288.0</ele><time>2026-04-18T13:14:25.876Z</time></trkpt><trkpt lat="39.342486429611036" lon="16.05480439646245"><ele>298.3333333333333</ele><time>2026-04-18T13:14:26.876Z</time></trkpt><trkpt lat="39.34238545538212" lon="16.05497367843293"><ele>308.66666666666663</ele><time>2026-04-18T13:14:27.876Z</time></trkpt><trkpt lat="39.342304195250314" lon="16.055141771618644"><ele>319.0</ele><time>2026-04-18T13:14:28.876Z</time></trkpt><trkpt lat="39.34223684420801" lon="16.055300491125436"><ele>317.25</ele><time>2026-04-18T13:14:29.876Z</time></trkpt><trkpt lat="39.34217813072036" lon="16.055445991037942"><ele>315.5</ele><time>2026-04-18T13:14:30.876Z</time></trkpt><trkpt lat="39.34212302631707" lon="16.05559323815988"><ele>313.75</ele><time>2026-04-18T13:14:31.876Z</time></trkpt><trkpt lat="39.342067786281525" lon="16.055755116761112"><ele>312.0</ele><time>2026-04-18T13:14:32.876Z</time></trkpt><trkpt lat="39.3420081205795" lon="16.055919565581817"><ele>312.0</ele><time>2026-04-18T13:14:33.876Z</time></trkpt><trkpt lat="39.341942359796285" lon="16.05607389756291"><ele>312.0</ele><time>2026-04-18T13:14:34.876Z</time></trkpt><trkpt lat="39.34186798730077" lon="16.056192653211514"><ele>312.0</ele><time>2026-04-18T13:14:35.876Z</time></trkpt><trkpt lat="39.34177034559481" lon="16.056292962185232"><ele>312.0</ele><time>2026-04-18T13:14:36.876Z</time></trkpt><trkpt lat="39.341652460992215" lon="16.0563469281852"><ele>312.0</ele><time>2026-04-18T13:14:37.876Z</time></trkpt><trkpt lat="39.34151200199786" lon="16.056344657557588"><ele>312.0</ele><time>2026-04-18T13:14:38.875Z</time></trkpt><trkpt lat="39.341370870073526" lon="16.056286424262016"><ele>312.0</ele><time>2026-04-18T13:14:39.875Z</time></trkpt><trkpt lat="39.34126191608704" lon="16.056200212209653"><ele>312.0</ele><time>2026-04-18T13:14:40.875Z</time></trkpt><trkpt lat="39.34115219929919" lon="16.05611020324353"><ele>314.0</ele><time>2026-04-18T13:14:41.875Z</time></trkpt><trkpt lat="39.34104115155127" lon="16.056023544287946"><ele>316.0</ele><time>2026-04-18T13:14:42.875Z</time></trkpt><trkpt lat="39.34093130038222" lon="16.05593799823098"><ele>318.0</ele><time>2026-04-18T13:14:43.875Z</time></trkpt><trkpt lat="39.34081884551114" lon="16.055861080664716"><ele>320.0</ele><time>2026-04-18T13:14:44.875Z</time></trkpt><trkpt lat="39.34069498902055" lon="16.055797735709575"><ele>320.25</ele><time>2026-04-18T13:14:45.875Z</time></trkpt><trkpt lat="39.34055997167383" lon="16.05576037841833"><ele>320.5</ele><time>2026-04-18T13:14:46.875Z</time></trkpt><trkpt lat="39.34041558025714" lon="16.055754566339914"><ele>320.75</ele><time>2026-04-18T13:14:47.875Z</time></trkpt><trkpt lat="39.340266758614746" lon="16.05577383446291"><ele>321.0</ele><time>2026-04-18T13:14:48.875Z</time></trkpt><trkpt lat="39.3401281734523" lon="16.05581663725344"><ele>321.0</ele><time>2026-04-18T13:14:49.875Z</time></trkpt><trkpt lat="39.33999849993619" lon="16.05588370068332"><ele>321.0</ele><time>2026-04-18T13:14:50.875Z</time></trkpt><trkpt lat="39.339873771790685" lon="16.055997786899354"><ele>321.0</ele><time>2026-04-18T13:14:51.875Z</time></trkpt><trkpt lat="39.339746511681426" lon="16.056160121379467"><ele>317.0</ele><time>2026-04-18T13:14:52.875Z</time></trkpt><trkpt lat="39.339606081546634" lon="16.0563459362819"><ele>313.0</ele><time>2026-04-18T13:14:53.875Z</time></trkpt><trkpt lat="39.33944144353616" lon="16.056527760408855"><ele>309.0</ele><time>2026-04-18T13:14:54.875Z</time></trkpt><trkpt lat="39.33925612006775" lon="16.05670818010063"><ele>312.5</ele><time>2026-04-18T13:14:55.875Z</time></trkpt><trkpt lat="39.339068018359924" lon="16.056889357493745"><ele>316.0</ele><time>2026-04-18T13:14:56.875Z</time></trkpt><trkpt lat="39.33887921307747" lon="16.057068218573093"><ele>316.0</ele><time>2026-04-18T13:14:57.875Z</time></trkpt><trkpt lat="39.33868631066831" lon="16.057244528907173"><ele>316.0</ele><time>2026-04-18T13:14:58.875Z</time></trkpt><trkpt lat="39.33848601636752" lon="16.057400135514172"><ele>333.5</ele><time>2026-04-18T13:14:59.875Z</time></trkpt><trkpt lat="39.338282298112354" lon="16.057537200426587"><ele>351.0</ele><time>2026-04-18T13:15:00.875Z</time></trkpt><trkpt lat="39.338081108916015" lon="16.057664196521987"><ele>344.0</ele><time>2026-04-18T13:15:01.875Z</time></trkpt><trkpt lat="39.33787956400335" lon="16.05779246459998"><ele>337.0</ele><time>2026-04-18T13:15:02.875Z</time></trkpt><trkpt lat="39.33768186160921" lon="16.057918401868637"><ele>330.0</ele><time>2026-04-18T13:15:03.875Z</time></trkpt><trkpt lat="39.33750040141209" lon="16.058047881744717"><ele>330.0</ele><time>2026-04-18T13:15:04.875Z</time></trkpt><trkpt lat="39.33732846798875" lon="16.05819799169662"><ele>330.0</ele><time>2026-04-18T13:15:05.876Z</time></trkpt><trkpt lat="39.33716709751524" lon="16.058368786698413"><ele>330.0</ele><time>2026-04-18T13:15:06.876Z</time></trkpt><trkpt lat="39.33701216445705" lon="16.058555849787222"><ele>330.0</ele><time>2026-04-18T13:15:07.876Z</time></trkpt><trkpt lat="39.33685825536128" lon="16.058759960583536"><ele>330.0</ele><time>2026-04-18T13:15:08.876Z</time></trkpt><trkpt lat="39.336694510288524" lon="16.058992064087583"><ele>326.0</ele><time>2026-04-18T13:15:09.876Z</time></trkpt><trkpt lat="39.33652122890261" lon="16.059255961120012"><ele>322.0</ele><time>2026-04-18T13:15:10.876Z</time></trkpt><trkpt lat="39.33633702231445" lon="16.059535258396057"><ele>330.5</ele><time>2026-04-18T13:15:11.876Z</time></trkpt><trkpt lat="39.33614457548159" lon="16.059826870892635"><ele>339.0</ele><time>2026-04-18T13:15:12.876Z</time></trkpt><trkpt lat="39.33595934214484" lon="16.06010120777774"><ele>339.0</ele><time>2026-04-18T13:15:13.876Z</time></trkpt><trkpt lat="39.33579129510054" lon="16.060349810599902"><ele>339.0</ele><time>2026-04-18T13:15:14.876Z</time></trkpt><trkpt lat="39.335635208312596" lon="16.060573704348297"><ele>337.0</ele><time>2026-04-18T13:15:15.876Z</time></trkpt><trkpt lat="39.335485343130614" lon="16.06077440736024"><ele>335.0</ele><time>2026-04-18T13:15:16.876Z</time></trkpt><trkpt lat="39.3353240199501" lon="16.060961613790596"><ele>333.0</ele><time>2026-04-18T13:15:17.876Z</time></trkpt><trkpt lat="39.335149254047984" lon="16.06112365131477"><ele>346.0</ele><time>2026-04-18T13:15:18.876Z</time></trkpt><trkpt lat="39.33494943599206" lon="16.061276049999368"><ele>359.0</ele><time>2026-04-18T13:15:19.876Z</time></trkpt><trkpt lat="39.334719292283246" lon="16.061412353351486"><ele>359.0</ele><time>2026-04-18T13:15:20.876Z</time></trkpt><trkpt lat="39.334478159823384" lon="16.06154037075759"><ele>359.0</ele><time>2026-04-18T13:15:21.876Z</time></trkpt><trkpt lat="39.33423626793296" lon="16.061662290142266"><ele>363.5</ele><time>2026-04-18T13:15:22.876Z</time></trkpt><trkpt lat="39.33401964244863" lon="16.06178616486734"><ele>368.0</ele><time>2026-04-18T13:15:23.876Z</time></trkpt><trkpt lat="39.3338257134241" lon="16.061923906960576"><ele>368.0</ele><time>2026-04-18T13:15:24.876Z</time></trkpt><trkpt lat="39.33364854646445" lon="16.06208822103254"><ele>368.0</ele><time>2026-04-18T13:15:25.876Z</time></trkpt><trkpt lat="39.33349912710337" lon="16.062277682779172"><ele>368.0</ele><time>2026-04-18T13:15:26.876Z</time></trkpt><trkpt lat="39.33338568721468" lon="16.062489237431524"><ele>377.33333333333337</ele><time>2026-04-18T13:15:27.876Z</time></trkpt><trkpt lat="39.33329962724304" lon="16.062716065430788"><ele>386.6666666666667</ele><time>2026-04-18T13:15:28.876Z</time></trkpt><trkpt lat="39.333230527385865" lon="16.062959805446425"><ele>396.0</ele><time>2026-04-18T13:15:29.876Z</time></trkpt><trkpt lat="39.33319155063343" lon="16.063209243776"><ele>401.33333333333337</ele><time>2026-04-18T13:15:30.876Z</time></trkpt><trkpt lat="39.33317631107935" lon="16.06347162015913"><ele>406.6666666666667</ele><time>2026-04-18T13:15:31.876Z</time></trkpt><trkpt lat="39.33317539570037" lon="16.06374159388443"><ele>412.0</ele><time>2026-04-18T13:15:32.876Z</time></trkpt><trkpt lat="39.33318473394015" lon="16.064014253899945"><ele>413.0</ele><time>2026-04-18T13:15:33.876Z</time></trkpt><trkpt lat="39.33319672835176" lon="16.064288289975565"><ele>414.0</ele><time>2026-04-18T13:15:34.876Z</time></trkpt><trkpt lat="39.33321490791506" lon="16.064572094614633"><ele>415.0</ele><time>2026-04-18T13:15:35.876Z</time></trkpt><trkpt lat="39.33323537268699" lon="16.064861267172446"><ele>411.0</ele><time>2026-04-18T13:15:36.876Z</time></trkpt><trkpt lat="39.333249350475825" lon="16.065158017718595"><ele>407.0</ele><time>2026-04-18T13:15:37.876Z</time></trkpt><trkpt lat="39.33326047105904" lon="16.065482378322773"><ele>400.0</ele><time>2026-04-18T13:15:38.876Z</time></trkpt><trkpt lat="39.333273135045765" lon="16.065822202594813"><ele>393.0</ele><time>2026-04-18T13:15:39.876Z</time></trkpt><trkpt lat="39.33328726562701" lon="16.066160268550483"><ele>393.0</ele><time>2026-04-18T13:15:40.876Z</time></trkpt><trkpt lat="39.33330180391543" lon="16.066494199386835"><ele>393.0</ele><time>2026-04-18T13:15:41.876Z</time></trkpt><trkpt lat="39.333317154348464" lon="16.066814224651"><ele>392.66666666666663</ele><time>2026-04-18T13:15:42.876Z</time></trkpt><trkpt lat="39.33332890327317" lon="16.067094478553653"><ele>392.3333333333333</ele><time>2026-04-18T13:15:43.876Z</time></trkpt><trkpt lat="39.333339615917076" lon="16.067350168508646"><ele>392.0</ele><time>2026-04-18T13:15:44.876Z</time></trkpt><trkpt lat="39.33334618253246" lon="16.067594082227092"><ele>406.66666666666663</ele><time>2026-04-18T13:15:45.876Z</time></trkpt><trkpt lat="39.33333747993015" lon="16.06782109315614"><ele>421.33333333333337</ele><time>2026-04-18T13:15:46.876Z</time></trkpt><trkpt lat="39.33331770095908" lon="16.06803592837164"><ele>436.0</ele><time>2026-04-18T13:15:47.876Z</time></trkpt><trkpt lat="39.33327203208089" lon="16.068240370994967"><ele>452.6666666666667</ele><time>2026-04-18T13:15:48.876Z</time></trkpt><trkpt lat="39.33321843222029" lon="16.068454483089585"><ele>469.33333333333337</ele><time>2026-04-18T13:15:49.876Z</time></trkpt><trkpt lat="39.33316070100543" lon="16.068628806790862"><ele>486.0</ele><time>2026-04-18T13:15:50.876Z</time></trkpt><trkpt lat="39.33309648326152" lon="16.06878749927993"><ele>487.66666666666663</ele><time>2026-04-18T13:15:51.876Z</time></trkpt><trkpt lat="39.33302145889334" lon="16.068955461348352"><ele>489.3333333333333</ele><time>2026-04-18T13:15:52.876Z</time></trkpt><trkpt lat="39.332936876624515" lon="16.069125439215895"><ele>491.0</ele><time>2026-04-18T13:15:53.876Z</time></trkpt><trkpt lat="39.332855578619174" lon="16.069281329036034"><ele>503.0</ele><time>2026-04-18T13:15:54.876Z</time></trkpt><trkpt lat="39.332766355942354" lon="16.069447153962578"><ele>515.0</ele><time>2026-04-18T13:15:55.876Z</time></trkpt><trkpt lat="39.332676372052816" lon="16.069614393317316"><ele>527.0</ele><time>2026-04-18T13:15:56.876Z</time></trkpt><trkpt lat="39.33259628792888" lon="16.06976371957292"><ele>527.0</ele><time>2026-04-18T13:15:57.876Z</time></trkpt><trkpt lat="39.33254727599439" lon="16.06985629256007"><ele>527.0</ele><time>2026-04-18T13:15:58.876Z</time></trkpt><trkpt lat="39.332554868409744" lon="16.070004113293322"><ele>527.0</ele><time>2026-04-18T13:15:59.94Z</time></trkpt><trkpt lat="39.33238682887583" lon="16.0701974324648"><ele>527.0</ele><time>2026-04-18T13:16:10.414Z</time></trkpt><trkpt lat="39.33047085499393" lon="16.073134010680597"><ele>497.3333333333333</ele><time>2026-04-18T13:16:11.875Z</time></trkpt><trkpt lat="39.33021252847871" lon="16.073162163218704"><ele>467.66666666666663</ele><time>2026-04-18T13:16:12.875Z</time></trkpt><trkpt lat="39.33008536030765" lon="16.07321689026438"><ele>438.0</ele><time>2026-04-18T13:16:13.875Z</time></trkpt><trkpt lat="39.32997068084253" lon="16.073260640808368"><ele>446.66666666666663</ele><time>2026-04-18T13:16:14.875Z</time></trkpt><trkpt lat="39.3298396365787" lon="16.073295722446332"><ele>455.3333333333333</ele><time>2026-04-18T13:16:15.875Z</time></trkpt><trkpt lat="39.3296811377814" lon="16.073332860018567"><ele>464.0</ele><time>2026-04-18T13:16:16.875Z</time></trkpt><trkpt lat="39.32952737541682" lon="16.07336974612371"><ele>464.0</ele><time>2026-04-18T13:16:17.875Z</time></trkpt><trkpt lat="39.329383983381355" lon="16.07340400347498"><ele>464.0</ele><time>2026-04-18T13:16:18.875Z</time></trkpt><trkpt lat="39.3292444593866" lon="16.07346041993481"><ele>464.0</ele><time>2026-04-18T13:16:19.875Z</time></trkpt><trkpt lat="39.32910897193772" lon="16.073527495493636"><ele>464.0</ele><time>2026-04-18T13:16:20.875Z</time></trkpt><trkpt lat="39.328974421222675" lon="16.07360159121145"><ele>459.0</ele><time>2026-04-18T13:16:21.875Z</time></trkpt><trkpt lat="39.32883450732537" lon="16.07369202487758"><ele>454.0</ele><time>2026-04-18T13:16:22.875Z</time></trkpt><trkpt lat="39.328719464360276" lon="16.0737941166498"><ele>449.0</ele><time>2026-04-18T13:16:23.875Z</time></trkpt><trkpt lat="39.32860417461611" lon="16.073914838816506"><ele>444.0</ele><time>2026-04-18T13:16:24.875Z</time></trkpt><trkpt lat="39.3284967095376" lon="16.074056637722766"><ele>452.0</ele><time>2026-04-18T13:16:25.875Z</time></trkpt><trkpt lat="39.32839047167451" lon="16.07421135523636"><ele>460.0</ele><time>2026-04-18T13:16:26.875Z</time></trkpt><trkpt lat="39.32828820366484" lon="16.07437654090893"><ele>468.0</ele><time>2026-04-18T13:16:27.875Z</time></trkpt><trkpt lat="39.32819463008719" lon="16.07455132273087"><ele>468.0</ele><time>2026-04-18T13:16:28.875Z</time></trkpt><trkpt lat="39.32811024064198" lon="16.07473778535535"><ele>468.0</ele><time>2026-04-18T13:16:29.875Z</time></trkpt><trkpt lat="39.328050767597254" lon="16.074958657223"><ele>468.0</ele><time>2026-04-18T13:16:30.875Z</time></trkpt><trkpt lat="39.32796757175897" lon="16.075178703581965"><ele>463.66666666666663</ele><time>2026-04-18T13:16:31.875Z</time></trkpt><trkpt lat="39.3279379140389" lon="16.075422203647925"><ele>459.3333333333333</ele><time>2026-04-18T13:16:32.875Z</time></trkpt><trkpt lat="39.327925905128886" lon="16.075679216055484"><ele>455.0</ele><time>2026-04-18T13:16:33.875Z</time></trkpt><trkpt lat="39.327931898380136" lon="16.07593978830611"><ele>453.0</ele><time>2026-04-18T13:16:34.875Z</time></trkpt><trkpt lat="39.32795445497101" lon="16.076173809553314"><ele>451.0</ele><time>2026-04-18T13:16:35.875Z</time></trkpt><trkpt lat="39.327992896362915" lon="16.076381587632884"><ele>449.0</ele><time>2026-04-18T13:16:36.875Z</time></trkpt><trkpt lat="39.3280095142191" lon="16.076581811412463"><ele>450.0</ele><time>2026-04-18T13:16:37.875Z</time></trkpt><trkpt lat="39.32802958403779" lon="16.076787994886015"><ele>451.0</ele><time>2026-04-18T13:16:38.875Z</time></trkpt><trkpt lat="39.32804219473226" lon="16.076988544370682"><ele>452.0</ele><time>2026-04-18T13:16:39.875Z</time></trkpt><trkpt lat="39.32804870736728" lon="16.077196300344138"><ele>452.0</ele><time>2026-04-18T13:16:40.875Z</time></trkpt><trkpt lat="39.328047257041476" lon="16.077414391366023"><ele>452.0</ele><time>2026-04-18T13:16:41.875Z</time></trkpt><trkpt lat="39.32803573468122" lon="16.077633027386206"><ele>452.0</ele><time>2026-04-18T13:16:42.875Z</time></trkpt><trkpt lat="39.328020420236825" lon="16.07785483067819"><ele>452.3333333333333</ele><time>2026-04-18T13:16:43.875Z</time></trkpt><trkpt lat="39.32799564185418" lon="16.07807742510458"><ele>452.66666666666663</ele><time>2026-04-18T13:16:44.875Z</time></trkpt><trkpt lat="39.327967132147016" lon="16.07829594120944"><ele>453.0</ele><time>2026-04-18T13:16:45.875Z</time></trkpt><trkpt lat="39.32793170850742" lon="16.07851489787178"><ele>448.66666666666663</ele><time>2026-04-18T13:16:46.875Z</time></trkpt><trkpt lat="39.32788958298347" lon="16.078733865862223"><ele>444.3333333333333</ele><time>2026-04-18T13:16:47.875Z</time></trkpt><trkpt lat="39.32783877663216" lon="16.07894997723187"><ele>440.0</ele><time>2026-04-18T13:16:48.875Z</time></trkpt><trkpt lat="39.327785280192934" lon="16.079163733010223"><ele>450.0</ele><time>2026-04-18T13:16:49.875Z</time></trkpt><trkpt lat="39.32772260452878" lon="16.079378818586953"><ele>460.0</ele><time>2026-04-18T13:16:50.875Z</time></trkpt><trkpt lat="39.32764928774608" lon="16.079597202064566"><ele>470.0</ele><time>2026-04-18T13:16:51.875Z</time></trkpt><trkpt lat="39.32756831627235" lon="16.079829169230088"><ele>480.3333333333333</ele><time>2026-04-18T13:16:52.875Z</time></trkpt><trkpt lat="39.32746694471909" lon="16.08006865622352"><ele>490.66666666666663</ele><time>2026-04-18T13:16:53.875Z</time></trkpt><trkpt lat="39.32735938219314" lon="16.080305581608375"><ele>501.0</ele><time>2026-04-18T13:16:54.875Z</time></trkpt><trkpt lat="39.32724598533653" lon="16.080540286023616"><ele>496.66666666666663</ele><time>2026-04-18T13:16:55.875Z</time></trkpt><trkpt lat="39.32712551595182" lon="16.08076904077364"><ele>492.3333333333333</ele><time>2026-04-18T13:16:56.875Z</time></trkpt><trkpt lat="39.32698870155168" lon="16.080994122069487"><ele>488.0</ele><time>2026-04-18T13:16:57.875Z</time></trkpt><trkpt lat="39.32685841030419" lon="16.081243028589686"><ele>488.0</ele><time>2026-04-18T13:16:58.875Z</time></trkpt><trkpt lat="39.326730207483465" lon="16.081487944910908"><ele>488.0</ele><time>2026-04-18T13:16:59.875Z</time></trkpt><trkpt lat="39.326604519629996" lon="16.081728021310273"><ele>484.5</ele><time>2026-04-18T13:17:00.875Z</time></trkpt><trkpt lat="39.32647615119052" lon="16.08197290468192"><ele>481.0</ele><time>2026-04-18T13:17:01.875Z</time></trkpt><trkpt lat="39.32634665162225" lon="16.082219945981336"><ele>491.5</ele><time>2026-04-18T13:17:02.875Z</time></trkpt><trkpt lat="39.32621720264285" lon="16.082466890892338"><ele>502.0</ele><time>2026-04-18T13:17:03.875Z</time></trkpt><trkpt lat="39.32608175099595" lon="16.08272565094663"><ele>502.0</ele><time>2026-04-18T13:17:04.875Z</time></trkpt><trkpt lat="39.32594233792608" lon="16.082991071958798"><ele>502.0</ele><time>2026-04-18T13:17:05.875Z</time></trkpt><trkpt lat="39.32580397905493" lon="16.083254729409102"><ele>492.5</ele><time>2026-04-18T13:17:06.875Z</time></trkpt><trkpt lat="39.325664288769296" lon="16.083520257338645"><ele>483.0</ele><time>2026-04-18T13:17:07.875Z</time></trkpt><trkpt lat="39.32552379831337" lon="16.083786422515836"><ele>483.0</ele><time>2026-04-18T13:17:08.875Z</time></trkpt><trkpt lat="39.32538270405129" lon="16.084054035096568"><ele>483.0</ele><time>2026-04-18T13:17:09.875Z</time></trkpt><trkpt lat="39.325241101142076" lon="16.08432359336905"><ele>479.5</ele><time>2026-04-18T13:17:10.875Z</time></trkpt><trkpt lat="39.32509666959456" lon="16.084598535904565"><ele>476.0</ele><time>2026-04-18T13:17:11.876Z</time></trkpt><trkpt lat="39.32495106946317" lon="16.084875702829954"><ele>480.5</ele><time>2026-04-18T13:17:12.876Z</time></trkpt><trkpt lat="39.324805734419584" lon="16.085152341792778"><ele>485.0</ele><time>2026-04-18T13:17:13.876Z</time></trkpt><trkpt lat="39.324663156423696" lon="16.08542369267554"><ele>486.0</ele><time>2026-04-18T13:17:14.876Z</time></trkpt><trkpt lat="39.32451715640314" lon="16.085701556390283"><ele>487.0</ele><time>2026-04-18T13:17:15.876Z</time></trkpt><trkpt lat="39.32438629417081" lon="16.085982614094437"><ele>503.0</ele><time>2026-04-18T13:17:16.876Z</time></trkpt><trkpt lat="39.32424103839279" lon="16.08625899605723"><ele>519.0</ele><time>2026-04-18T13:17:17.876Z</time></trkpt><trkpt lat="39.32409950277564" lon="16.08653350196278"><ele>518.0</ele><time>2026-04-18T13:17:18.876Z</time></trkpt><trkpt lat="39.32395445773597" lon="16.086808589916938"><ele>517.0</ele><time>2026-04-18T13:17:19.876Z</time></trkpt><trkpt lat="39.323812548215045" lon="16.08707063186761"><ele>517.0</ele><time>2026-04-18T13:17:20.876Z</time></trkpt><trkpt lat="39.32367381293608" lon="16.087319911708413"><ele>517.0</ele><time>2026-04-18T13:17:21.876Z</time></trkpt><trkpt lat="39.32352310589487" lon="16.087569323304688"><ele>528.5</ele><time>2026-04-18T13:17:22.876Z</time></trkpt><trkpt lat="39.32336745139251" lon="16.087798591012582"><ele>540.0</ele><time>2026-04-18T13:17:23.876Z</time></trkpt><trkpt lat="39.323210106544124" lon="16.088002473598284"><ele>534.3333333333334</ele><time>2026-04-18T13:17:24.876Z</time></trkpt><trkpt lat="39.32302630345923" lon="16.088169105150204"><ele>528.6666666666667</ele><time>2026-04-18T13:17:25.876Z</time></trkpt><trkpt lat="39.32284678191803" lon="16.08831281986991"><ele>523.0</ele><time>2026-04-18T13:17:26.876Z</time></trkpt><trkpt lat="39.32265394629639" lon="16.08843201942034"><ele>523.0</ele><time>2026-04-18T13:17:27.876Z</time></trkpt><trkpt lat="39.32245236320804" lon="16.088540217083022"><ele>523.0</ele><time>2026-04-18T13:17:28.876Z</time></trkpt><trkpt lat="39.32222744958069" lon="16.088606068398235"><ele>523.0</ele><time>2026-04-18T13:17:29.876Z</time></trkpt><trkpt lat="39.32199794221355" lon="16.08863271825487"><ele>509.0</ele><time>2026-04-18T13:17:30.876Z</time></trkpt><trkpt lat="39.321767419626006" lon="16.08861957146013"><ele>495.0</ele><time>2026-04-18T13:17:31.876Z</time></trkpt><trkpt lat="39.32153575696826" lon="16.088571979236818"><ele>518.5</ele><time>2026-04-18T13:17:32.876Z</time></trkpt><trkpt lat="39.32131563726888" lon="16.088489869578854"><ele>542.0</ele><time>2026-04-18T13:17:33.876Z</time></trkpt><trkpt lat="39.32110310331218" lon="16.08837761595158"><ele>544.0</ele><time>2026-04-18T13:17:34.876Z</time></trkpt><trkpt lat="39.32090639435776" lon="16.088225572511355"><ele>546.0</ele><time>2026-04-18T13:17:35.876Z</time></trkpt><trkpt lat="39.32073008967774" lon="16.088052219623236"><ele>546.0</ele><time>2026-04-18T13:17:36.876Z</time></trkpt><trkpt lat="39.320567639148365" lon="16.0878545168238"><ele>546.0</ele><time>2026-04-18T13:17:37.876Z</time></trkpt><trkpt lat="39.32041699829288" lon="16.087628267444224"><ele>559.3333333333334</ele><time>2026-04-18T13:17:38.875Z</time></trkpt><trkpt lat="39.32029333094452" lon="16.087386105506976"><ele>572.6666666666667</ele><time>2026-04-18T13:17:39.875Z</time></trkpt><trkpt lat="39.320193582178504" lon="16.087128566806076"><ele>586.0</ele><time>2026-04-18T13:17:40.875Z</time></trkpt><trkpt lat="39.320119122901744" lon="16.086836273934313"><ele>585.5</ele><time>2026-04-18T13:17:41.875Z</time></trkpt><trkpt lat="39.32007333803563" lon="16.086523757976178"><ele>585.0</ele><time>2026-04-18T13:17:42.875Z</time></trkpt><trkpt lat="39.32002815725888" lon="16.08620816122866"><ele>585.0</ele><time>2026-04-18T13:17:43.875Z</time></trkpt><trkpt lat="39.31998914085908" lon="16.085870620700838"><ele>585.0</ele><time>2026-04-18T13:17:44.875Z</time></trkpt><trkpt lat="39.31996060207541" lon="16.085524208049772"><ele>583.0</ele><time>2026-04-18T13:17:45.875Z</time></trkpt><trkpt lat="39.31993987434152" lon="16.085174713835126"><ele>581.0</ele><time>2026-04-18T13:17:46.875Z</time></trkpt><trkpt lat="39.31992377022755" lon="16.084825760095804"><ele>581.0</ele><time>2026-04-18T13:17:47.875Z</time></trkpt><trkpt lat="39.31991696777206" lon="16.084454570116492"><ele>581.0</ele><time>2026-04-18T13:17:48.875Z</time></trkpt><trkpt lat="39.31991975101845" lon="16.084077848118955"><ele>584.5</ele><time>2026-04-18T13:17:49.875Z</time></trkpt><trkpt lat="39.31992502906483" lon="16.08369077087879"><ele>588.0</ele><time>2026-04-18T13:17:50.875Z</time></trkpt><trkpt lat="39.319929193891376" lon="16.08331514387824"><ele>589.5</ele><time>2026-04-18T13:17:51.875Z</time></trkpt><trkpt lat="39.31993053788803" lon="16.082947462538492"><ele>591.0</ele><time>2026-04-18T13:17:52.875Z</time></trkpt><trkpt lat="39.319930045937625" lon="16.082580183793844"><ele>588.0</ele><time>2026-04-18T13:17:53.875Z</time></trkpt><trkpt lat="39.31992724710059" lon="16.082216652015973"><ele>585.0</ele><time>2026-04-18T13:17:54.875Z</time></trkpt><trkpt lat="39.31992533170055" lon="16.08185598662738"><ele>588.5</ele><time>2026-04-18T13:17:55.875Z</time></trkpt><trkpt lat="39.319925721940656" lon="16.081499351369"><ele>592.0</ele><time>2026-04-18T13:17:56.875Z</time></trkpt><trkpt lat="39.31992857016864" lon="16.08114546851915"><ele>592.0</ele><time>2026-04-18T13:17:57.875Z</time></trkpt><trkpt lat="39.319928483075685" lon="16.08082072195396"><ele>592.0</ele><time>2026-04-18T13:17:58.875Z</time></trkpt><trkpt lat="39.31992532493443" lon="16.080525592541935"><ele>594.3333333333334</ele><time>2026-04-18T13:17:59.875Z</time></trkpt><trkpt lat="39.3199151828448" lon="16.08025777140704"><ele>596.6666666666666</ele><time>2026-04-18T13:18:00.875Z</time></trkpt><trkpt lat="39.31989122161276" lon="16.079993313339603"><ele>599.0</ele><time>2026-04-18T13:18:01.875Z</time></trkpt><trkpt lat="39.3198396948216" lon="16.079738187416073"><ele>593.3333333333333</ele><time>2026-04-18T13:18:02.875Z</time></trkpt><trkpt lat="39.31976247106269" lon="16.079485104788837"><ele>587.6666666666666</ele><time>2026-04-18T13:18:03.875Z</time></trkpt><trkpt lat="39.31965826888226" lon="16.079238063322332"><ele>582.0</ele><time>2026-04-18T13:18:04.875Z</time></trkpt><trkpt lat="39.31954252694648" lon="16.07900407432227"><ele>599.3333333333334</ele><time>2026-04-18T13:18:05.875Z</time></trkpt><trkpt lat="39.31941917932309" lon="16.0787820538074"><ele>616.6666666666667</ele><time>2026-04-18T13:18:06.875Z</time></trkpt><trkpt lat="39.31929354780688" lon="16.078563703461484"><ele>634.0</ele><time>2026-04-18T13:18:07.875Z</time></trkpt><trkpt lat="39.319170880074395" lon="16.078344418840903"><ele>633.3333333333334</ele><time>2026-04-18T13:18:08.875Z</time></trkpt><trkpt lat="39.319041128904075" lon="16.078122298256282"><ele>632.6666666666666</ele><time>2026-04-18T13:18:09.875Z</time></trkpt><trkpt lat="39.31890902693531" lon="16.077891513546618"><ele>632.0</ele><time>2026-04-18T13:18:10.933Z</time></trkpt><trkpt lat="39.318783750940135" lon="16.077672304723528"><ele>621.3333333333333</ele><time>2026-04-18T13:18:11.934Z</time></trkpt><trkpt lat="39.318648705612596" lon="16.07743413402789"><ele>610.6666666666666</ele><time>2026-04-18T13:18:12.931Z</time></trkpt><trkpt lat="39.318520503638446" lon="16.077219880423776"><ele>600.0</ele><time>2026-04-18T13:18:13.931Z</time></trkpt><trkpt lat="39.31839451415657" lon="16.07701139998261"><ele>600.0</ele><time>2026-04-18T13:18:14.928Z</time></trkpt><trkpt lat="39.31826777104069" lon="16.076800630200903"><ele>600.0</ele><time>2026-04-18T13:18:15.922Z</time></trkpt><trkpt lat="39.31737679776629" lon="16.078930573164783"><ele>599.6666666666666</ele><time>2026-04-18T13:18:17.875Z</time></trkpt><trkpt lat="39.3172242532437" lon="16.07912620896724"><ele>599.3333333333333</ele><time>2026-04-18T13:18:18.875Z</time></trkpt><trkpt lat="39.3170668102952" lon="16.079338631027493"><ele>599.0</ele><time>2026-04-18T13:18:19.875Z</time></trkpt><trkpt lat="39.31693653979653" lon="16.079508004293054"><ele>599.0</ele><time>2026-04-18T13:18:20.875Z</time></trkpt><trkpt lat="39.31679287274255" lon="16.079671843464354"><ele>599.0</ele><time>2026-04-18T13:18:21.875Z</time></trkpt><trkpt lat="39.31665279479592" lon="16.079829988133103"><ele>599.0</ele><time>2026-04-18T13:18:22.875Z</time></trkpt><trkpt lat="39.31653664075307" lon="16.079966316531834"><ele>601.0</ele><time>2026-04-18T13:18:23.875Z</time></trkpt><trkpt lat="39.31641725613409" lon="16.08010094538029"><ele>603.0</ele><time>2026-04-18T13:18:24.875Z</time></trkpt><trkpt lat="39.31630027221289" lon="16.080222370542895"><ele>605.0</ele><time>2026-04-18T13:18:25.875Z</time></trkpt><trkpt lat="39.31619034035591" lon="16.080359358727616"><ele>605.0</ele><time>2026-04-18T13:18:26.875Z</time></trkpt><trkpt lat="39.31606422991098" lon="16.0805086963693"><ele>605.0</ele><time>2026-04-18T13:18:27.875Z</time></trkpt><trkpt lat="39.31592436671054" lon="16.08069798175198"><ele>605.0</ele><time>2026-04-18T13:18:28.875Z</time></trkpt><trkpt lat="39.315780579768884" lon="16.080891971923368"><ele>618.0</ele><time>2026-04-18T13:18:29.875Z</time></trkpt><trkpt lat="39.31562151371606" lon="16.081077324284436"><ele>631.0</ele><time>2026-04-18T13:18:30.875Z</time></trkpt><trkpt lat="39.315450456298194" lon="16.08129353377015"><ele>631.0</ele><time>2026-04-18T13:18:31.875Z</time></trkpt><trkpt lat="39.3152640682622" lon="16.08151161550795"><ele>631.0</ele><time>2026-04-18T13:18:32.875Z</time></trkpt><trkpt lat="39.31454066572116" lon="16.082391817970844"><ele>627.3333333333334</ele><time>2026-04-18T13:18:36.875Z</time></trkpt><trkpt lat="39.31444277745805" lon="16.082679645869607"><ele>623.6666666666666</ele><time>2026-04-18T13:18:37.875Z</time></trkpt><trkpt lat="39.31438319974511" lon="16.082927539309978"><ele>620.0</ele><time>2026-04-18T13:18:38.875Z</time></trkpt><trkpt lat="39.31428798687844" lon="16.0831688579209"><ele>629.0</ele><time>2026-04-18T13:18:39.875Z</time></trkpt><trkpt lat="39.314233752789235" lon="16.083426443851113"><ele>638.0</ele><time>2026-04-18T13:18:40.875Z</time></trkpt><trkpt lat="39.3141987293298" lon="16.083684805116384"><ele>647.0</ele><time>2026-04-18T13:18:41.875Z</time></trkpt><trkpt lat="39.3141906766768" lon="16.083969818390113"><ele>652.0</ele><time>2026-04-18T13:18:42.875Z</time></trkpt><trkpt lat="39.314176460333584" lon="16.084267405226868"><ele>657.0</ele><time>2026-04-18T13:18:43.875Z</time></trkpt><trkpt lat="39.31419214994088" lon="16.084567314109357"><ele>657.0</ele><time>2026-04-18T13:18:44.875Z</time></trkpt><trkpt lat="39.3142403468557" lon="16.084875797479217"><ele>657.0</ele><time>2026-04-18T13:18:45.875Z</time></trkpt><trkpt lat="39.31431872383733" lon="16.08519731628533"><ele>650.5</ele><time>2026-04-18T13:18:46.875Z</time></trkpt><trkpt lat="39.31442305150965" lon="16.08553362191058"><ele>644.0</ele><time>2026-04-18T13:18:47.875Z</time></trkpt><trkpt lat="39.31455721555107" lon="16.08588377010068"><ele>635.0</ele><time>2026-04-18T13:18:48.875Z</time></trkpt><trkpt lat="39.31471269817253" lon="16.08622609125177"><ele>626.0</ele><time>2026-04-18T13:18:49.875Z</time></trkpt><trkpt lat="39.31492014073978" lon="16.086571492486936"><ele>647.5</ele><time>2026-04-18T13:18:50.875Z</time></trkpt><trkpt lat="39.31509307082128" lon="16.08691854158116"><ele>669.0</ele><time>2026-04-18T13:18:51.875Z</time></trkpt><trkpt lat="39.31526595020774" lon="16.087266563767585"><ele>671.0</ele><time>2026-04-18T13:18:52.875Z</time></trkpt><trkpt lat="39.315426282233524" lon="16.087593472792232"><ele>673.0</ele><time>2026-04-18T13:18:53.875Z</time></trkpt><trkpt lat="39.315569969381514" lon="16.087889024436315"><ele>688.5</ele><time>2026-04-18T13:18:54.875Z</time></trkpt><trkpt lat="39.315706927674896" lon="16.08817272814057"><ele>704.0</ele><time>2026-04-18T13:18:55.875Z</time></trkpt><trkpt lat="39.31584051001464" lon="16.088451117409925"><ele>708.0</ele><time>2026-04-18T13:18:56.875Z</time></trkpt><trkpt lat="39.31597508792989" lon="16.088728664802122"><ele>712.0</ele><time>2026-04-18T13:18:57.875Z</time></trkpt><trkpt lat="39.316111649386656" lon="16.089011330118453"><ele>719.5</ele><time>2026-04-18T13:18:58.875Z</time></trkpt><trkpt lat="39.316254603023346" lon="16.089308488854716"><ele>727.0</ele><time>2026-04-18T13:18:59.931Z</time></trkpt><trkpt lat="39.3163859066714" lon="16.089579238383713"><ele>734.5</ele><time>2026-04-18T13:19:00.93Z</time></trkpt><trkpt lat="39.31652768584806" lon="16.089853032828078"><ele>742.0</ele><time>2026-04-18T13:19:01.927Z</time></trkpt><trkpt lat="39.3166650810646" lon="16.090125868681298"><ele>744.0</ele><time>2026-04-18T13:19:02.929Z</time></trkpt><trkpt lat="39.31680826799426" lon="16.090415532411726"><ele>746.0</ele><time>2026-04-18T13:19:03.928Z</time></trkpt><trkpt lat="39.3169482052946" lon="16.090704482460772"><ele>701.0</ele><time>2026-04-18T13:19:04.929Z</time></trkpt><trkpt lat="39.31745096359927" lon="16.091859975015577"><ele>701.0</ele><time>2026-04-18T13:19:11.875Z</time></trkpt><trkpt lat="39.317544170595745" lon="16.092005682219437"><ele>701.0</ele><time>2026-04-18T13:19:12.875Z</time></trkpt><trkpt lat="39.31757765721128" lon="16.09222183348516"><ele>701.0</ele><time>2026-04-18T13:19:13.874Z</time></trkpt><trkpt lat="39.317628256567595" lon="16.09246401079619"><ele>705.3333333333333</ele><time>2026-04-18T13:19:14.874Z</time></trkpt><trkpt lat="39.317720121883006" lon="16.09268193215273"><ele>709.6666666666666</ele><time>2026-04-18T13:19:15.874Z</time></trkpt><trkpt lat="39.31782534809854" lon="16.09290570439924"><ele>714.0</ele><time>2026-04-18T13:19:16.874Z</time></trkpt><trkpt lat="39.31771991332277" lon="16.093167451798948"><ele>719.3333333333334</ele><time>2026-04-18T13:19:17.874Z</time></trkpt><trkpt lat="39.317747165542976" lon="16.093428747225055"><ele>724.6666666666667</ele><time>2026-04-18T13:19:18.874Z</time></trkpt><trkpt lat="39.31776985812924" lon="16.09367079139383"><ele>730.0</ele><time>2026-04-18T13:19:19.874Z</time></trkpt><trkpt lat="39.317788281642486" lon="16.093929267675385"><ele>732.0</ele><time>2026-04-18T13:19:20.874Z</time></trkpt><trkpt lat="39.317797453320935" lon="16.094177678719046"><ele>734.0</ele><time>2026-04-18T13:19:21.874Z</time></trkpt><trkpt lat="39.31781579196709" lon="16.09443393976385"><ele>736.0</ele><time>2026-04-18T13:19:22.874Z</time></trkpt><trkpt lat="39.31783644019226" lon="16.09468338471966"><ele>736.6666666666667</ele><time>2026-04-18T13:19:23.874Z</time></trkpt><trkpt lat="39.31785354986587" lon="16.094925564749506"><ele>737.3333333333334</ele><time>2026-04-18T13:19:24.874Z</time></trkpt><trkpt lat="39.31786660519257" lon="16.095152324740106"><ele>738.0</ele><time>2026-04-18T13:19:25.874Z</time></trkpt><trkpt lat="39.31788269063129" lon="16.095388557785814"><ele>738.0</ele><time>2026-04-18T13:19:26.874Z</time></trkpt><trkpt lat="39.31789782488804" lon="16.095627888326145"><ele>738.0</ele><time>2026-04-18T13:19:27.874Z</time></trkpt><trkpt lat="39.31791450733061" lon="16.095846137299233"><ele>738.0</ele><time>2026-04-18T13:19:28.874Z</time></trkpt><trkpt lat="39.31793219951741" lon="16.09606836527073"><ele>738.6666666666666</ele><time>2026-04-18T13:19:29.874Z</time></trkpt><trkpt lat="39.31795461535239" lon="16.09629720488432"><ele>739.3333333333333</ele><time>2026-04-18T13:19:30.874Z</time></trkpt><trkpt lat="39.31798279554058" lon="16.096506827706943"><ele>740.0</ele><time>2026-04-18T13:19:31.874Z</time></trkpt><trkpt lat="39.31801540716799" lon="16.096722769252914"><ele>740.0</ele><time>2026-04-18T13:19:32.874Z</time></trkpt><trkpt lat="39.31805622434695" lon="16.09694679429202"><ele>740.0</ele><time>2026-04-18T13:19:33.874Z</time></trkpt><trkpt lat="39.31811125820497" lon="16.097187376153794"><ele>740.0</ele><time>2026-04-18T13:19:34.874Z</time></trkpt><trkpt lat="39.3181840097087" lon="16.097467731581528"><ele>727.5</ele><time>2026-04-18T13:19:35.874Z</time></trkpt><trkpt lat="39.31827430174325" lon="16.097789860266513"><ele>715.0</ele><time>2026-04-18T13:19:36.874Z</time></trkpt><trkpt lat="39.31835720207583" lon="16.098133641551417"><ele>727.5</ele><time>2026-04-18T13:19:37.874Z</time></trkpt><trkpt lat="39.31844405284319" lon="16.098465564287043"><ele>740.0</ele><time>2026-04-18T13:19:38.874Z</time></trkpt><trkpt lat="39.31853479025761" lon="16.098747478320714"><ele>740.0</ele><time>2026-04-18T13:19:39.874Z</time></trkpt><trkpt lat="39.31861637203957" lon="16.09901990749419"><ele>740.0</ele><time>2026-04-18T13:19:40.874Z</time></trkpt><trkpt lat="39.31870068426438" lon="16.099297114482628"><ele>747.5</ele><time>2026-04-18T13:19:41.874Z</time></trkpt><trkpt lat="39.31875493897675" lon="16.09958119955818"><ele>755.0</ele><time>2026-04-18T13:19:42.874Z</time></trkpt><trkpt lat="39.31885723146828" lon="16.09987742192167"><ele>732.0</ele><time>2026-04-18T13:19:43.874Z</time></trkpt><trkpt lat="39.31894475107603" lon="16.100159494129976"><ele>709.0</ele><time>2026-04-18T13:19:44.874Z</time></trkpt><trkpt lat="39.31902409701843" lon="16.100440885077774"><ele>709.0</ele><time>2026-04-18T13:19:45.874Z</time></trkpt><trkpt lat="39.319103622575156" lon="16.100715344298013"><ele>709.0</ele><time>2026-04-18T13:19:46.874Z</time></trkpt><trkpt lat="39.319178179885995" lon="16.100983637135208"><ele>709.0</ele><time>2026-04-18T13:19:47.874Z</time></trkpt><trkpt lat="39.319253101257694" lon="16.101253595976715"><ele>711.0</ele><time>2026-04-18T13:19:48.874Z</time></trkpt><trkpt lat="39.31932578401383" lon="16.10152117064522"><ele>713.0</ele><time>2026-04-18T13:19:49.874Z</time></trkpt><trkpt lat="39.319398268449184" lon="16.10179300332408"><ele>715.0</ele><time>2026-04-18T13:19:50.874Z</time></trkpt><trkpt lat="39.31945474144826" lon="16.102071991164088"><ele>728.0</ele><time>2026-04-18T13:19:51.874Z</time></trkpt><trkpt lat="39.31949544825554" lon="16.102357434708576"><ele>741.0</ele><time>2026-04-18T13:19:52.874Z</time></trkpt><trkpt lat="39.31953146511973" lon="16.10265441334235"><ele>758.0</ele><time>2026-04-18T13:19:53.874Z</time></trkpt><trkpt lat="39.31954990213767" lon="16.10296182101548"><ele>775.0</ele><time>2026-04-18T13:19:54.874Z</time></trkpt><trkpt lat="39.319562017100885" lon="16.103250113492994"><ele>785.5</ele><time>2026-04-18T13:19:55.874Z</time></trkpt><trkpt lat="39.319579196392326" lon="16.10356050002456"><ele>796.0</ele><time>2026-04-18T13:19:56.874Z</time></trkpt><trkpt lat="39.31958665277348" lon="16.103917873360256"><ele>784.5</ele><time>2026-04-18T13:19:57.874Z</time></trkpt><trkpt lat="39.31958391930312" lon="16.104313485235036"><ele>773.0</ele><time>2026-04-18T13:19:58.874Z</time></trkpt><trkpt lat="39.31958464441154" lon="16.104689111065856"><ele>763.0</ele><time>2026-04-18T13:19:59.874Z</time></trkpt><trkpt lat="39.319560602913185" lon="16.105031254555772"><ele>753.0</ele><time>2026-04-18T13:20:00.874Z</time></trkpt><trkpt lat="39.31956443909952" lon="16.10535063210409"><ele>753.0</ele><time>2026-04-18T13:20:01.874Z</time></trkpt><trkpt lat="39.319568507815895" lon="16.105664973845133"><ele>753.0</ele><time>2026-04-18T13:20:02.874Z</time></trkpt><trkpt lat="39.31957221868901" lon="16.105991331594666"><ele>764.0</ele><time>2026-04-18T13:20:03.874Z</time></trkpt><trkpt lat="39.31957542080322" lon="16.106313134430568"><ele>775.0</ele><time>2026-04-18T13:20:04.874Z</time></trkpt><trkpt lat="39.31959123096288" lon="16.10663114668714"><ele>792.5</ele><time>2026-04-18T13:20:05.874Z</time></trkpt><trkpt lat="39.31959156105268" lon="16.10694879698679"><ele>810.0</ele><time>2026-04-18T13:20:06.874Z</time></trkpt><trkpt lat="39.319589748113636" lon="16.107263357419335"><ele>825.5</ele><time>2026-04-18T13:20:07.874Z</time></trkpt><trkpt lat="39.31958750058956" lon="16.107581990109125"><ele>841.0</ele><time>2026-04-18T13:20:08.874Z</time></trkpt><trkpt lat="39.3195865420642" lon="16.107917172041876"><ele>857.0</ele><time>2026-04-18T13:20:09.874Z</time></trkpt><trkpt lat="39.319581919667655" lon="16.108250307842987"><ele>873.0</ele><time>2026-04-18T13:20:10.874Z</time></trkpt><trkpt lat="39.31957384896717" lon="16.108603148699753"><ele>873.0</ele><time>2026-04-18T13:20:11.93Z</time></trkpt><trkpt lat="39.31957008570248" lon="16.108927456095916"><ele>873.0</ele><time>2026-04-18T13:20:12.929Z</time></trkpt><trkpt lat="39.319565665363235" lon="16.10924919247709"><ele>889.0</ele><time>2026-04-18T13:20:13.927Z</time></trkpt><trkpt lat="39.31956589745748" lon="16.1095651010299"><ele>905.0</ele><time>2026-04-18T13:20:14.923Z</time></trkpt><trkpt lat="39.31960877534518" lon="16.109856009869727"><ele>930.0</ele><time>2026-04-18T13:20:25.411Z</time></trkpt><trkpt lat="39.31961686778386" lon="16.110665530893918"><ele>961.0</ele><time>2026-04-18T13:20:26.408Z</time></trkpt><trkpt lat="39.31962521639876" lon="16.11147936357912"><ele>993.0</ele><time>2026-04-18T13:20:27.411Z</time></trkpt><trkpt lat="39.31965020245291" lon="16.112290717355425"><ele>1014.0</ele><time>2026-04-18T13:20:28.411Z</time></trkpt><trkpt lat="39.31965806645162" lon="16.113102339363607"><ele>998.0</ele><time>2026-04-18T13:20:29.411Z</time></trkpt><trkpt lat="39.3196491693136" lon="16.113914259573622"><ele>982.5</ele><time>2026-04-18T13:20:30.411Z</time></trkpt><trkpt lat="39.3196683" lon="16.1141723"><ele>967.0</ele><time>2026-04-18T13:20:31.411Z</time></trkpt><trkpt lat="39.320584699048226" lon="16.122914346306874"><ele>879.0</ele><time>2026-04-18T13:20:53.873Z</time></trkpt><trkpt lat="39.3207595846117" lon="16.123121131094337"><ele>791.0</ele><time>2026-04-18T13:20:54.873Z</time></trkpt><trkpt lat="39.32096316854172" lon="16.123271552671856"><ele>786.0</ele><time>2026-04-18T13:20:55.873Z</time></trkpt><trkpt lat="39.32118005124201" lon="16.123390894440952"><ele>781.0</ele><time>2026-04-18T13:20:56.873Z</time></trkpt><trkpt lat="39.321400527198634" lon="16.12350149689759"><ele>781.0</ele><time>2026-04-18T13:20:57.873Z</time></trkpt><trkpt lat="39.32165622157027" lon="16.12363784842907"><ele>781.0</ele><time>2026-04-18T13:20:58.873Z</time></trkpt><trkpt lat="39.3219058171554" lon="16.123770107183645"><ele>781.0</ele><time>2026-04-18T13:20:59.873Z</time></trkpt><trkpt lat="39.32216600567029" lon="16.12389685917432"><ele>781.0</ele><time>2026-04-18T13:21:00.873Z</time></trkpt><trkpt lat="39.32241002987526" lon="16.124009096117806"><ele>775.5</ele><time>2026-04-18T13:21:01.873Z</time></trkpt><trkpt lat="39.32264720883834" lon="16.12410680220226"><ele>770.0</ele><time>2026-04-18T13:21:02.873Z</time></trkpt><trkpt lat="39.32288457185121" lon="16.12418283490897"><ele>770.0</ele><time>2026-04-18T13:21:03.873Z</time></trkpt><trkpt lat="39.32310687422262" lon="16.124255816824377"><ele>770.0</ele><time>2026-04-18T13:21:04.873Z</time></trkpt><trkpt lat="39.32334163996772" lon="16.124330087030156"><ele>770.0</ele><time>2026-04-18T13:21:05.873Z</time></trkpt><trkpt lat="39.32357073768616" lon="16.124407029049188"><ele>770.0</ele><time>2026-04-18T13:21:06.873Z</time></trkpt><trkpt lat="39.323790025263186" lon="16.124494325724694"><ele>766.0</ele><time>2026-04-18T13:21:07.873Z</time></trkpt><trkpt lat="39.32400596339233" lon="16.124592370063024"><ele>762.0</ele><time>2026-04-18T13:21:08.873Z</time></trkpt><trkpt lat="39.32422242767452" lon="16.12472055701192"><ele>762.0</ele><time>2026-04-18T13:21:09.873Z</time></trkpt><trkpt lat="39.324431775464696" lon="16.124864612001538"><ele>762.0</ele><time>2026-04-18T13:21:10.873Z</time></trkpt><trkpt lat="39.324632564819204" lon="16.125044133114425"><ele>762.0</ele><time>2026-04-18T13:21:11.873Z</time></trkpt><trkpt lat="39.32482246778246" lon="16.12524433657279"><ele>762.0</ele><time>2026-04-18T13:21:12.873Z</time></trkpt><trkpt lat="39.32499655298331" lon="16.125467510250196"><ele>762.0</ele><time>2026-04-18T13:21:13.873Z</time></trkpt><trkpt lat="39.32515327517147" lon="16.12571686297293"><ele>762.0</ele><time>2026-04-18T13:21:14.873Z</time></trkpt><trkpt lat="39.325290643546296" lon="16.12598288510937"><ele>755.0</ele><time>2026-04-18T13:21:15.873Z</time></trkpt><trkpt lat="39.32541303951069" lon="16.12624956645445"><ele>748.0</ele><time>2026-04-18T13:21:16.873Z</time></trkpt><trkpt lat="39.32551559302559" lon="16.126558792657274"><ele>745.5</ele><time>2026-04-18T13:21:17.873Z</time></trkpt><trkpt lat="39.325597453312355" lon="16.126903342408042"><ele>743.0</ele><time>2026-04-18T13:21:18.873Z</time></trkpt><trkpt lat="39.32569502611116" lon="16.12721466490569"><ele>741.0</ele><time>2026-04-18T13:21:19.873Z</time></trkpt><trkpt lat="39.3257890925376" lon="16.127505707660266"><ele>739.0</ele><time>2026-04-18T13:21:20.873Z</time></trkpt><trkpt lat="39.3258861676172" lon="16.127778192956438"><ele>739.0</ele><time>2026-04-18T13:21:21.873Z</time></trkpt><trkpt lat="39.32600031318944" lon="16.128047932183268"><ele>739.0</ele><time>2026-04-18T13:21:22.874Z</time></trkpt><trkpt lat="39.32613166254268" lon="16.12831325486573"><ele>733.5</ele><time>2026-04-18T13:21:23.874Z</time></trkpt><trkpt lat="39.32628677873437" lon="16.12855977558315"><ele>728.0</ele><time>2026-04-18T13:21:24.874Z</time></trkpt><trkpt lat="39.3264548891182" lon="16.128779349712808"><ele>726.0</ele><time>2026-04-18T13:21:25.874Z</time></trkpt><trkpt lat="39.32663896129822" lon="16.12896724685278"><ele>724.0</ele><time>2026-04-18T13:21:26.874Z</time></trkpt><trkpt lat="39.32684329647135" lon="16.12913279047173"><ele>724.0</ele><time>2026-04-18T13:21:27.874Z</time></trkpt><trkpt lat="39.32706667616845" lon="16.12926932331967"><ele>724.0</ele><time>2026-04-18T13:21:28.874Z</time></trkpt><trkpt lat="39.327295731048665" lon="16.129383472623395"><ele>734.0</ele><time>2026-04-18T13:21:29.874Z</time></trkpt><trkpt lat="39.32752076477196" lon="16.129477773895722"><ele>744.0</ele><time>2026-04-18T13:21:30.874Z</time></trkpt><trkpt lat="39.32773699905646" lon="16.12955842718232"><ele>744.0</ele><time>2026-04-18T13:21:31.874Z</time></trkpt><trkpt lat="39.32795253890529" lon="16.129636671650562"><ele>744.0</ele><time>2026-04-18T13:21:32.874Z</time></trkpt><trkpt lat="39.32816028395125" lon="16.129714545739052"><ele>744.0</ele><time>2026-04-18T13:21:33.874Z</time></trkpt><trkpt lat="39.32836235347062" lon="16.129791742398567"><ele>741.3333333333334</ele><time>2026-04-18T13:21:34.874Z</time></trkpt><trkpt lat="39.32856100914448" lon="16.129866323430104"><ele>738.6666666666667</ele><time>2026-04-18T13:21:35.874Z</time></trkpt><trkpt lat="39.32875807119456" lon="16.12994323308992"><ele>736.0</ele><time>2026-04-18T13:21:36.874Z</time></trkpt><trkpt lat="39.32894472142715" lon="16.130018696987143"><ele>723.0</ele><time>2026-04-18T13:21:37.874Z</time></trkpt><trkpt lat="39.32913072716573" lon="16.130087675617972"><ele>710.0</ele><time>2026-04-18T13:21:38.874Z</time></trkpt><trkpt lat="39.329309236866116" lon="16.13015812516371"><ele>697.0</ele><time>2026-04-18T13:21:39.874Z</time></trkpt><trkpt lat="39.32949369515926" lon="16.130229449654713"><ele>697.0</ele><time>2026-04-18T13:21:40.874Z</time></trkpt><trkpt lat="39.32967706479192" lon="16.130302074623152"><ele>697.0</ele><time>2026-04-18T13:21:41.874Z</time></trkpt><trkpt lat="39.32986903545695" lon="16.130376197040242"><ele>697.0</ele><time>2026-04-18T13:21:42.874Z</time></trkpt><trkpt lat="39.33004653902973" lon="16.130448589456257"><ele>704.6666666666667</ele><time>2026-04-18T13:21:43.874Z</time></trkpt><trkpt lat="39.33022000316703" lon="16.130519533597045"><ele>712.3333333333334</ele><time>2026-04-18T13:21:44.874Z</time></trkpt><trkpt lat="39.33038760222496" lon="16.13059057224564"><ele>720.0</ele><time>2026-04-18T13:21:45.874Z</time></trkpt><trkpt lat="39.33054948798006" lon="16.13066011087246"><ele>714.6666666666666</ele><time>2026-04-18T13:21:46.874Z</time></trkpt><trkpt lat="39.33070445464467" lon="16.130726252236503"><ele>709.3333333333333</ele><time>2026-04-18T13:21:47.874Z</time></trkpt><trkpt lat="39.33085745875405" lon="16.13079116953486"><ele>704.0</ele><time>2026-04-18T13:21:48.874Z</time></trkpt><trkpt lat="39.3310109173662" lon="16.130853600035124"><ele>704.0</ele><time>2026-04-18T13:21:49.874Z</time></trkpt><trkpt lat="39.331158124517046" lon="16.13090916551452"><ele>704.0</ele><time>2026-04-18T13:21:50.874Z</time></trkpt><trkpt lat="39.33130138294267" lon="16.130959410980935"><ele>704.0</ele><time>2026-04-18T13:21:51.874Z</time></trkpt><trkpt lat="39.33144506618481" lon="16.13100350139481"><ele>704.0</ele><time>2026-04-18T13:21:52.874Z</time></trkpt><trkpt lat="39.33158726134526" lon="16.131041735556167"><ele>707.75</ele><time>2026-04-18T13:21:53.874Z</time></trkpt><trkpt lat="39.331726773401996" lon="16.13107133809189"><ele>711.5</ele><time>2026-04-18T13:21:54.874Z</time></trkpt><trkpt lat="39.331864550842084" lon="16.13109327127114"><ele>715.25</ele><time>2026-04-18T13:21:55.874Z</time></trkpt><trkpt lat="39.3320077898828" lon="16.131113094576946"><ele>719.0</ele><time>2026-04-18T13:21:56.874Z</time></trkpt><trkpt lat="39.33215577960863" lon="16.131130592034413"><ele>720.6666666666666</ele><time>2026-04-18T13:21:57.874Z</time></trkpt><trkpt lat="39.332306778920476" lon="16.13114532116056"><ele>722.3333333333334</ele><time>2026-04-18T13:21:58.874Z</time></trkpt><trkpt lat="39.332457254878484" lon="16.131165123812828"><ele>724.0</ele><time>2026-04-18T13:21:59.874Z</time></trkpt><trkpt lat="39.332614255743124" lon="16.131180468985654"><ele>724.0</ele><time>2026-04-18T13:22:00.874Z</time></trkpt><trkpt lat="39.33277241442148" lon="16.131197613917305"><ele>724.0</ele><time>2026-04-18T13:22:01.874Z</time></trkpt><trkpt lat="39.33293605327199" lon="16.131221348215735"><ele>724.0</ele><time>2026-04-18T13:22:02.874Z</time></trkpt><trkpt lat="39.33311347623346" lon="16.131239924622605"><ele>721.3333333333334</ele><time>2026-04-18T13:22:03.874Z</time></trkpt><trkpt lat="39.33330341002975" lon="16.131264196737785"><ele>718.6666666666666</ele><time>2026-04-18T13:22:04.874Z</time></trkpt><trkpt lat="39.333490203510806" lon="16.13126343390005"><ele>716.0</ele><time>2026-04-18T13:22:05.874Z</time></trkpt><trkpt lat="39.333665386911875" lon="16.13125411685654"><ele>716.0</ele><time>2026-04-18T13:22:06.874Z</time></trkpt><trkpt lat="39.33383145163835" lon="16.131224477549363"><ele>716.0</ele><time>2026-04-18T13:22:07.874Z</time></trkpt><trkpt lat="39.333997630193345" lon="16.13119034448337"><ele>716.0</ele><time>2026-04-18T13:22:08.874Z</time></trkpt><trkpt lat="39.33418053712921" lon="16.131134515872155"><ele>711.3333333333333</ele><time>2026-04-18T13:22:09.874Z</time></trkpt><trkpt lat="39.3343741998019" lon="16.131064126745123"><ele>706.6666666666666</ele><time>2026-04-18T13:22:10.873Z</time></trkpt><trkpt lat="39.33456925768281" lon="16.13096209257108"><ele>702.0</ele><time>2026-04-18T13:22:11.873Z</time></trkpt><trkpt lat="39.334749596223176" lon="16.130862285020143"><ele>705.3333333333334</ele><time>2026-04-18T13:22:12.873Z</time></trkpt><trkpt lat="39.3349052042834" lon="16.130714495408302"><ele>708.6666666666667</ele><time>2026-04-18T13:22:13.873Z</time></trkpt><trkpt lat="39.33505972135668" lon="16.130549039959757"><ele>712.0</ele><time>2026-04-18T13:22:14.873Z</time></trkpt><trkpt lat="39.33520658475574" lon="16.130359282899796"><ele>712.0</ele><time>2026-04-18T13:22:15.873Z</time></trkpt><trkpt lat="39.33534135281115" lon="16.130148508254734"><ele>712.0</ele><time>2026-04-18T13:22:16.873Z</time></trkpt><trkpt lat="39.335477225900696" lon="16.129908843001562"><ele>712.0</ele><time>2026-04-18T13:22:17.873Z</time></trkpt><trkpt lat="39.33561130119628" lon="16.129653857008467"><ele>723.5</ele><time>2026-04-18T13:22:18.873Z</time></trkpt><trkpt lat="39.335747774235436" lon="16.129401000405"><ele>735.0</ele><time>2026-04-18T13:22:19.873Z</time></trkpt><trkpt lat="39.335883530930225" lon="16.12915386867342"><ele>751.5</ele><time>2026-04-18T13:22:20.873Z</time></trkpt><trkpt lat="39.33601851000396" lon="16.128909906399063"><ele>768.0</ele><time>2026-04-18T13:22:21.873Z</time></trkpt><trkpt lat="39.33615278750311" lon="16.128666500424988"><ele>768.0</ele><time>2026-04-18T13:22:22.873Z</time></trkpt><trkpt lat="39.33629060085899" lon="16.128413149303874"><ele>768.0</ele><time>2026-04-18T13:22:23.937Z</time></trkpt><trkpt lat="39.33641417392071" lon="16.128179824281183"><ele>760.3333333333334</ele><time>2026-04-18T13:22:24.929Z</time></trkpt><trkpt lat="39.33653451308435" lon="16.127955423583497"><ele>752.6666666666667</ele><time>2026-04-18T13:22:25.926Z</time></trkpt><trkpt lat="39.336657407401646" lon="16.127730003076454"><ele>745.0</ele><time>2026-04-18T13:22:26.925Z</time></trkpt><trkpt lat="39.33677850241943" lon="16.127505043487723"><ele>648.0</ele><time>2026-04-18T13:22:27.924Z</time></trkpt><trkpt lat="39.33817870223452" lon="16.126309603471597"><ele>648.0</ele><time>2026-04-18T13:22:36.873Z</time></trkpt><trkpt lat="39.33836170579159" lon="16.12625555806107"><ele>648.0</ele><time>2026-04-18T13:22:37.873Z</time></trkpt><trkpt lat="39.33842465110399" lon="16.125923874594005"><ele>648.0</ele><time>2026-04-18T13:22:38.873Z</time></trkpt><trkpt lat="39.338579085592215" lon="16.12591742357129"><ele>648.0</ele><time>2026-04-18T13:22:39.873Z</time></trkpt><trkpt lat="39.33878532999108" lon="16.125957993561123"><ele>648.0</ele><time>2026-04-18T13:22:40.873Z</time></trkpt><trkpt lat="39.338985540232166" lon="16.126028341690333"><ele>640.5</ele><time>2026-04-18T13:22:41.873Z</time></trkpt><trkpt lat="39.33918984270503" lon="16.12614019420836"><ele>633.0</ele><time>2026-04-18T13:22:42.873Z</time></trkpt><trkpt lat="39.33939614076996" lon="16.12627372301466"><ele>633.0</ele><time>2026-04-18T13:22:43.873Z</time></trkpt><trkpt lat="39.33957895061332" lon="16.126440912621497"><ele>633.0</ele><time>2026-04-18T13:22:44.873Z</time></trkpt><trkpt lat="39.33976561646968" lon="16.126626943128805"><ele>635.3333333333334</ele><time>2026-04-18T13:22:45.873Z</time></trkpt><trkpt lat="39.339928093056955" lon="16.126827701295905"><ele>637.6666666666667</ele><time>2026-04-18T13:22:46.873Z</time></trkpt><trkpt lat="39.34005785548168" lon="16.127029090557496"><ele>640.0</ele><time>2026-04-18T13:22:47.873Z</time></trkpt><trkpt lat="39.34018428154364" lon="16.127267532889594"><ele>644.0</ele><time>2026-04-18T13:22:48.873Z</time></trkpt><trkpt lat="39.340290478111704" lon="16.12751457236034"><ele>648.0</ele><time>2026-04-18T13:22:49.873Z</time></trkpt><trkpt lat="39.34037312902693" lon="16.127774762928787"><ele>652.0</ele><time>2026-04-18T13:22:50.873Z</time></trkpt><trkpt lat="39.34043380446748" lon="16.12803622311914"><ele>653.3333333333334</ele><time>2026-04-18T13:22:51.873Z</time></trkpt><trkpt lat="39.34047483521481" lon="16.128298797304417"><ele>654.6666666666666</ele><time>2026-04-18T13:22:52.873Z</time></trkpt><trkpt lat="39.34049460405461" lon="16.128576646903166"><ele>656.0</ele><time>2026-04-18T13:22:53.873Z</time></trkpt><trkpt lat="39.34049112071473" lon="16.128868054084574"><ele>650.0</ele><time>2026-04-18T13:22:54.873Z</time></trkpt><trkpt lat="39.34046329997265" lon="16.129156330065587"><ele>644.0</ele><time>2026-04-18T13:22:55.873Z</time></trkpt><trkpt lat="39.34041199184375" lon="16.12944605195786"><ele>644.0</ele><time>2026-04-18T13:22:56.873Z</time></trkpt><trkpt lat="39.340336314485036" lon="16.129723120802783"><ele>644.0</ele><time>2026-04-18T13:22:57.873Z</time></trkpt><trkpt lat="39.340237520407385" lon="16.129994756648248"><ele>638.6666666666666</ele><time>2026-04-18T13:22:58.873Z</time></trkpt><trkpt lat="39.340119879208004" lon="16.13023436395831"><ele>633.3333333333334</ele><time>2026-04-18T13:22:59.873Z</time></trkpt><trkpt lat="39.339985396547696" lon="16.130460334085015"><ele>628.0</ele><time>2026-04-18T13:23:00.873Z</time></trkpt><trkpt lat="39.3398365000107" lon="16.130662411466204"><ele>627.3333333333334</ele><time>2026-04-18T13:23:01.873Z</time></trkpt><trkpt lat="39.3396686859589" lon="16.130843347782392"><ele>626.6666666666666</ele><time>2026-04-18T13:23:02.873Z</time></trkpt><trkpt lat="39.339490418664084" lon="16.13102917535122"><ele>626.0</ele><time>2026-04-18T13:23:03.873Z</time></trkpt><trkpt lat="39.339274389417476" lon="16.13115644249815"><ele>626.0</ele><time>2026-04-18T13:23:04.873Z</time></trkpt><trkpt lat="39.33906485440655" lon="16.131265341280496"><ele>626.0</ele><time>2026-04-18T13:23:05.873Z</time></trkpt><trkpt lat="39.33885217343391" lon="16.13134358196819"><ele>626.0</ele><time>2026-04-18T13:23:06.873Z</time></trkpt><trkpt lat="39.338637129523754" lon="16.13142493111723"><ele>629.5</ele><time>2026-04-18T13:23:07.873Z</time></trkpt><trkpt lat="39.33840491669915" lon="16.131463600803404"><ele>633.0</ele><time>2026-04-18T13:23:08.873Z</time></trkpt><trkpt lat="39.33816381009591" lon="16.131463646120963"><ele>637.0</ele><time>2026-04-18T13:23:09.873Z</time></trkpt><trkpt lat="39.337920141818266" lon="16.13149210161013"><ele>641.0</ele><time>2026-04-18T13:23:10.873Z</time></trkpt><trkpt lat="39.33767210461306" lon="16.131497886414362"><ele>641.0</ele><time>2026-04-18T13:23:11.873Z</time></trkpt><trkpt lat="39.33742546470503" lon="16.1315179813404"><ele>641.0</ele><time>2026-04-18T13:23:12.873Z</time></trkpt><trkpt lat="39.33718323569247" lon="16.131558722216376"><ele>622.5</ele><time>2026-04-18T13:23:13.873Z</time></trkpt><trkpt lat="39.33695033628546" lon="16.131616587431598"><ele>604.0</ele><time>2026-04-18T13:23:14.873Z</time></trkpt><trkpt lat="39.33672876535588" lon="16.13169768121422"><ele>604.0</ele><time>2026-04-18T13:23:15.873Z</time></trkpt><trkpt lat="39.33651658182606" lon="16.13179677663171"><ele>604.0</ele><time>2026-04-18T13:23:16.873Z</time></trkpt><trkpt lat="39.33631573117532" lon="16.131916115462165"><ele>604.0</ele><time>2026-04-18T13:23:17.873Z</time></trkpt><trkpt lat="39.336121614559715" lon="16.132066039538813"><ele>607.6666666666667</ele><time>2026-04-18T13:23:18.873Z</time></trkpt><trkpt lat="39.335941791857174" lon="16.132236303470375"><ele>611.3333333333334</ele><time>2026-04-18T13:23:19.873Z</time></trkpt><trkpt lat="39.335774375263235" lon="16.13243045327782"><ele>615.0</ele><time>2026-04-18T13:23:20.873Z</time></trkpt><trkpt lat="39.33563227430773" lon="16.1326362163741"><ele>615.0</ele><time>2026-04-18T13:23:21.873Z</time></trkpt><trkpt lat="39.33551118966352" lon="16.13286133728128"><ele>615.0</ele><time>2026-04-18T13:23:22.873Z</time></trkpt><trkpt lat="39.33540345863059" lon="16.133104757518577"><ele>615.0</ele><time>2026-04-18T13:23:23.873Z</time></trkpt><trkpt lat="39.33530629650306" lon="16.133366715330563"><ele>611.5</ele><time>2026-04-18T13:23:24.873Z</time></trkpt><trkpt lat="39.33522437699228" lon="16.133638129702693"><ele>608.0</ele><time>2026-04-18T13:23:25.873Z</time></trkpt><trkpt lat="39.33516947727342" lon="16.133928703425084"><ele>601.3333333333333</ele><time>2026-04-18T13:23:26.873Z</time></trkpt><trkpt lat="39.335131070849926" lon="16.134204801668073"><ele>594.6666666666666</ele><time>2026-04-18T13:23:27.874Z</time></trkpt><trkpt lat="39.33511685582992" lon="16.134493696433864"><ele>588.0</ele><time>2026-04-18T13:23:28.874Z</time></trkpt><trkpt lat="39.335127257447155" lon="16.13478758672134"><ele>581.5</ele><time>2026-04-18T13:23:29.874Z</time></trkpt><trkpt lat="39.335158123638166" lon="16.13508315041975"><ele>575.0</ele><time>2026-04-18T13:23:30.874Z</time></trkpt><trkpt lat="39.33520611336532" lon="16.135375765803126"><ele>575.0</ele><time>2026-04-18T13:23:31.874Z</time></trkpt><trkpt lat="39.33527690857199" lon="16.135641940100438"><ele>575.0</ele><time>2026-04-18T13:23:32.874Z</time></trkpt><trkpt lat="39.33536678207587" lon="16.135891374755406"><ele>575.0</ele><time>2026-04-18T13:23:33.874Z</time></trkpt><trkpt lat="39.3354604397463" lon="16.13610209426969"><ele>572.0</ele><time>2026-04-18T13:23:34.874Z</time></trkpt><trkpt lat="39.33555682616403" lon="16.1362906070126"><ele>569.0</ele><time>2026-04-18T13:23:35.873Z</time></trkpt><trkpt lat="39.33565564204752" lon="16.1364695969719"><ele>566.0</ele><time>2026-04-18T13:23:36.873Z</time></trkpt><trkpt lat="39.335757931565354" lon="16.13664285968198"><ele>566.0</ele><time>2026-04-18T13:23:37.873Z</time></trkpt><trkpt lat="39.3358555311095" lon="16.13680157593425"><ele>566.0</ele><time>2026-04-18T13:23:38.873Z</time></trkpt><trkpt lat="39.33594543768774" lon="16.136949084120086"><ele>566.0</ele><time>2026-04-18T13:23:39.873Z</time></trkpt><trkpt lat="39.33602967203948" lon="16.1370942772497"><ele>566.0</ele><time>2026-04-18T13:23:40.873Z</time></trkpt><trkpt lat="39.33609817633917" lon="16.13726310749845"><ele>570.6666666666666</ele><time>2026-04-18T13:23:41.873Z</time></trkpt><trkpt lat="39.33617885349321" lon="16.13743247270023"><ele>575.3333333333334</ele><time>2026-04-18T13:23:42.873Z</time></trkpt><trkpt lat="39.336253040414306" lon="16.137622954887235"><ele>580.0</ele><time>2026-04-18T13:23:43.873Z</time></trkpt><trkpt lat="39.33632000750647" lon="16.137829706424526"><ele>580.0</ele><time>2026-04-18T13:23:44.873Z</time></trkpt><trkpt lat="39.336374123551074" lon="16.13804740780217"><ele>580.0</ele><time>2026-04-18T13:23:45.873Z</time></trkpt><trkpt lat="39.33641798578851" lon="16.138274645794162"><ele>580.0</ele><time>2026-04-18T13:23:46.873Z</time></trkpt><trkpt lat="39.33644916572657" lon="16.13850383956648"><ele>581.3333333333334</ele><time>2026-04-18T13:23:47.873Z</time></trkpt><trkpt lat="39.33648596631423" lon="16.13872171202698"><ele>582.6666666666666</ele><time>2026-04-18T13:23:48.873Z</time></trkpt><trkpt lat="39.336492266784475" lon="16.138946653996378"><ele>584.0</ele><time>2026-04-18T13:23:49.873Z</time></trkpt><trkpt lat="39.3364918498938" lon="16.139174508589576"><ele>584.0</ele><time>2026-04-18T13:23:50.873Z</time></trkpt><trkpt lat="39.33649593722967" lon="16.13941822433211"><ele>584.0</ele><time>2026-04-18T13:23:51.873Z</time></trkpt><trkpt lat="39.33649583619518" lon="16.139654532647352"><ele>584.0</ele><time>2026-04-18T13:23:52.873Z</time></trkpt><trkpt lat="39.336495965033556" lon="16.139882046939203"><ele>588.0</ele><time>2026-04-18T13:23:53.873Z</time></trkpt><trkpt lat="39.33650021998392" lon="16.14011546106976"><ele>592.0</ele><time>2026-04-18T13:23:54.873Z</time></trkpt><trkpt lat="39.33649891266779" lon="16.140366761051087"><ele>596.0</ele><time>2026-04-18T13:23:55.93Z</time></trkpt><trkpt lat="39.33649000265715" lon="16.140608853390944"><ele>592.6666666666666</ele><time>2026-04-18T13:23:56.929Z</time></trkpt><trkpt lat="39.3364836185121" lon="16.140849930298092"><ele>589.3333333333334</ele><time>2026-04-18T13:23:57.93Z</time></trkpt><trkpt lat="39.33647758261652" lon="16.1410921597544"><ele>586.0</ele><time>2026-04-18T13:23:58.929Z</time></trkpt><trkpt lat="39.336474234624326" lon="16.14132831926794"><ele>586.0</ele><time>2026-04-18T13:23:59.918Z</time></trkpt><trkpt lat="39.33656339273823" lon="16.141501388299382"><ele>586.0</ele><time>2026-04-18T13:24:00.873Z</time></trkpt><trkpt lat="39.33654089963764" lon="16.1418099771246"><ele>586.0</ele><time>2026-04-18T13:24:01.873Z</time></trkpt><trkpt lat="39.336536921410925" lon="16.14201285379211"><ele>574.3333333333334</ele><time>2026-04-18T13:24:02.873Z</time></trkpt><trkpt lat="39.336531058622974" lon="16.142243072955747"><ele>562.6666666666666</ele><time>2026-04-18T13:24:03.873Z</time></trkpt><trkpt lat="39.3365269516146" lon="16.142484345639012"><ele>551.0</ele><time>2026-04-18T13:24:04.873Z</time></trkpt><trkpt lat="39.336528476817946" lon="16.142727584254995"><ele>543.3333333333333</ele><time>2026-04-18T13:24:05.873Z</time></trkpt><trkpt lat="39.33653197928388" lon="16.14297233964529"><ele>535.6666666666666</ele><time>2026-04-18T13:24:06.873Z</time></trkpt><trkpt lat="39.336541107479825" lon="16.143219644324255"><ele>528.0</ele><time>2026-04-18T13:24:07.873Z</time></trkpt><trkpt lat="39.336558293929215" lon="16.143464335441625"><ele>528.0</ele><time>2026-04-18T13:24:08.873Z</time></trkpt><trkpt lat="39.33659184106591" lon="16.143705163211713"><ele>528.0</ele><time>2026-04-18T13:24:09.873Z</time></trkpt><trkpt lat="39.33663754201775" lon="16.143942784782872"><ele>528.0</ele><time>2026-04-18T13:24:10.873Z</time></trkpt><trkpt lat="39.336690503156234" lon="16.14419083386372"><ele>533.3333333333334</ele><time>2026-04-18T13:24:11.873Z</time></trkpt><trkpt lat="39.33674634252026" lon="16.144439838860457"><ele>538.6666666666667</ele><time>2026-04-18T13:24:12.873Z</time></trkpt><trkpt lat="39.33680000515532" lon="16.144690511595375"><ele>544.0</ele><time>2026-04-18T13:24:13.873Z</time></trkpt><trkpt lat="39.33684637544133" lon="16.144931990470063"><ele>547.6666666666667</ele><time>2026-04-18T13:24:14.873Z</time></trkpt><trkpt lat="39.3368896131029" lon="16.14516952194321"><ele>551.3333333333334</ele><time>2026-04-18T13:24:15.873Z</time></trkpt><trkpt lat="39.33692931145155" lon="16.145401832467744"><ele>555.0</ele><time>2026-04-18T13:24:16.873Z</time></trkpt><trkpt lat="39.33696961225982" lon="16.145628158852144"><ele>553.6666666666666</ele><time>2026-04-18T13:24:17.873Z</time></trkpt><trkpt lat="39.3370158310862" lon="16.14584943532466"><ele>552.3333333333333</ele><time>2026-04-18T13:24:18.873Z</time></trkpt><trkpt lat="39.337063605619996" lon="16.146090112011922"><ele>551.0</ele><time>2026-04-18T13:24:19.873Z</time></trkpt><trkpt lat="39.33710333491064" lon="16.146340896614543"><ele>551.6666666666666</ele><time>2026-04-18T13:24:20.873Z</time></trkpt><trkpt lat="39.33713208055335" lon="16.14660466209322"><ele>552.3333333333334</ele><time>2026-04-18T13:24:21.873Z</time></trkpt><trkpt lat="39.3371448481385" lon="16.1468812839169"><ele>553.0</ele><time>2026-04-18T13:24:22.873Z</time></trkpt><trkpt lat="39.33714156703724" lon="16.147180087651037"><ele>553.0</ele><time>2026-04-18T13:24:23.873Z</time></trkpt><trkpt lat="39.33711792845349" lon="16.147487074615583"><ele>553.0</ele><time>2026-04-18T13:24:24.873Z</time></trkpt><trkpt lat="39.33707154724704" lon="16.147824070672193"><ele>553.0</ele><time>2026-04-18T13:24:25.873Z</time></trkpt><trkpt lat="39.33700513332699" lon="16.14817967190891"><ele>553.0</ele><time>2026-04-18T13:24:26.873Z</time></trkpt><trkpt lat="39.3369334743884" lon="16.14851460291577"><ele>545.0</ele><time>2026-04-18T13:24:27.873Z</time></trkpt><trkpt lat="39.33686835117455" lon="16.148820325369545"><ele>537.0</ele><time>2026-04-18T13:24:28.873Z</time></trkpt><trkpt lat="39.336810363969185" lon="16.1491122348625"><ele>531.3333333333334</ele><time>2026-04-18T13:24:29.873Z</time></trkpt><trkpt lat="39.33675540517524" lon="16.149392015171493"><ele>525.6666666666667</ele><time>2026-04-18T13:24:30.873Z</time></trkpt><trkpt lat="39.33670350938973" lon="16.14967203808293"><ele>520.0</ele><time>2026-04-18T13:24:31.873Z</time></trkpt><trkpt lat="39.336663520992786" lon="16.149951652378142"><ele>515.6666666666667</ele><time>2026-04-18T13:24:32.873Z</time></trkpt><trkpt lat="39.33664929258274" lon="16.150233080760444"><ele>511.33333333333337</ele><time>2026-04-18T13:24:33.873Z</time></trkpt><trkpt lat="39.33666006155458" lon="16.15052121053519"><ele>507.0</ele><time>2026-04-18T13:24:34.873Z</time></trkpt><trkpt lat="39.336700583206785" lon="16.15080256533369"><ele>506.0</ele><time>2026-04-18T13:24:35.873Z</time></trkpt><trkpt lat="39.33676589485088" lon="16.15108517206864"><ele>505.0</ele><time>2026-04-18T13:24:36.873Z</time></trkpt><trkpt lat="39.33685953714238" lon="16.151362671057843"><ele>499.0</ele><time>2026-04-18T13:24:37.873Z</time></trkpt><trkpt lat="39.33696797493641" lon="16.1516248249485"><ele>493.0</ele><time>2026-04-18T13:24:38.873Z</time></trkpt><trkpt lat="39.33709586150858" lon="16.151865485510843"><ele>483.0</ele><time>2026-04-18T13:24:39.873Z</time></trkpt><trkpt lat="39.33724531206885" lon="16.152080711849464"><ele>473.0</ele><time>2026-04-18T13:24:40.873Z</time></trkpt><trkpt lat="39.33741976833606" lon="16.152286940168157"><ele>466.0</ele><time>2026-04-18T13:24:41.873Z</time></trkpt><trkpt lat="39.337610422528485" lon="16.15248671222881"><ele>459.0</ele><time>2026-04-18T13:24:42.873Z</time></trkpt><trkpt lat="39.33780852835885" lon="16.15269627988017"><ele>459.0</ele><time>2026-04-18T13:24:43.873Z</time></trkpt><trkpt lat="39.3380059065768" lon="16.15290151297954"><ele>459.0</ele><time>2026-04-18T13:24:44.873Z</time></trkpt><trkpt lat="39.338189935022086" lon="16.153099415396028"><ele>454.5</ele><time>2026-04-18T13:24:45.873Z</time></trkpt><trkpt lat="39.33836953591083" lon="16.153291640936146"><ele>450.0</ele><time>2026-04-18T13:24:46.873Z</time></trkpt><trkpt lat="39.338552506695066" lon="16.153488935637235"><ele>450.0</ele><time>2026-04-18T13:24:47.873Z</time></trkpt><trkpt lat="39.33872742500592" lon="16.153679247412573"><ele>450.0</ele><time>2026-04-18T13:24:48.873Z</time></trkpt><trkpt lat="39.33889947052489" lon="16.15386494536249"><ele>463.5</ele><time>2026-04-18T13:24:49.873Z</time></trkpt><trkpt lat="39.33907507184457" lon="16.154058362636977"><ele>477.0</ele><time>2026-04-18T13:24:50.873Z</time></trkpt><trkpt lat="39.3392490485286" lon="16.15425420197788"><ele>477.0</ele><time>2026-04-18T13:24:51.873Z</time></trkpt><trkpt lat="39.33942030579127" lon="16.154465802697036"><ele>477.0</ele><time>2026-04-18T13:24:52.873Z</time></trkpt><trkpt lat="39.33957792754019" lon="16.154687073332358"><ele>487.0</ele><time>2026-04-18T13:24:53.873Z</time></trkpt><trkpt lat="39.33972971688711" lon="16.154922820520838"><ele>497.0</ele><time>2026-04-18T13:24:54.873Z</time></trkpt><trkpt lat="39.33987094549939" lon="16.155172334396617"><ele>497.0</ele><time>2026-04-18T13:24:55.873Z</time></trkpt><trkpt lat="39.3399982738278" lon="16.155416261024648"><ele>497.0</ele><time>2026-04-18T13:24:56.873Z</time></trkpt><trkpt lat="39.34011563945262" lon="16.155654614121897"><ele>497.0</ele><time>2026-04-18T13:24:57.873Z</time></trkpt><trkpt lat="39.34022930933122" lon="16.155885052367882"><ele>496.0</ele><time>2026-04-18T13:24:58.873Z</time></trkpt><trkpt lat="39.34034270321603" lon="16.156107954243858"><ele>495.0</ele><time>2026-04-18T13:24:59.873Z</time></trkpt><trkpt lat="39.34045869485096" lon="16.156326156684226"><ele>494.0</ele><time>2026-04-18T13:25:00.873Z</time></trkpt><trkpt lat="39.34057359946345" lon="16.156534330031374"><ele>488.0</ele><time>2026-04-18T13:25:01.873Z</time></trkpt><trkpt lat="39.34069666761131" lon="16.15673890324917"><ele>482.0</ele><time>2026-04-18T13:25:02.873Z</time></trkpt><trkpt lat="39.340829503404706" lon="16.156941444122282"><ele>476.0</ele><time>2026-04-18T13:25:03.873Z</time></trkpt><trkpt lat="39.340978063981034" lon="16.157140286906532"><ele>476.0</ele><time>2026-04-18T13:25:04.873Z</time></trkpt><trkpt lat="39.34113949670471" lon="16.15732098027206"><ele>476.0</ele><time>2026-04-18T13:25:05.873Z</time></trkpt><trkpt lat="39.341315496938364" lon="16.15748989621555"><ele>476.0</ele><time>2026-04-18T13:25:06.873Z</time></trkpt><trkpt lat="39.34150624485059" lon="16.157641825467124"><ele>474.0</ele><time>2026-04-18T13:25:07.873Z</time></trkpt><trkpt lat="39.34170204688224" lon="16.15779370150078"><ele>472.0</ele><time>2026-04-18T13:25:08.873Z</time></trkpt><trkpt lat="39.34190220723248" lon="16.15795024884474"><ele>472.0</ele><time>2026-04-18T13:25:09.873Z</time></trkpt><trkpt lat="39.342098881078215" lon="16.158109104296692"><ele>472.0</ele><time>2026-04-18T13:25:10.873Z</time></trkpt><trkpt lat="39.34229284147609" lon="16.1582575086408"><ele>470.0</ele><time>2026-04-18T13:25:11.873Z</time></trkpt><trkpt lat="39.342493779886794" lon="16.158393727925993"><ele>468.0</ele><time>2026-04-18T13:25:12.873Z</time></trkpt><trkpt lat="39.34270434246403" lon="16.158515617573688"><ele>468.0</ele><time>2026-04-18T13:25:13.873Z</time></trkpt><trkpt lat="39.342922938507265" lon="16.158616757237"><ele>468.0</ele><time>2026-04-18T13:25:14.873Z</time></trkpt><trkpt lat="39.34314347752061" lon="16.158692926757055"><ele>471.66666666666663</ele><time>2026-04-18T13:25:15.873Z</time></trkpt><trkpt lat="39.343359134545956" lon="16.158741999939785"><ele>475.3333333333333</ele><time>2026-04-18T13:25:16.873Z</time></trkpt><trkpt lat="39.3435829474757" lon="16.1587671044769"><ele>479.0</ele><time>2026-04-18T13:25:17.873Z</time></trkpt><trkpt lat="39.34380913717877" lon="16.158799829210324"><ele>473.0</ele><time>2026-04-18T13:25:18.873Z</time></trkpt><trkpt lat="39.34403834742788" lon="16.158812270380725"><ele>467.0</ele><time>2026-04-18T13:25:19.872Z</time></trkpt><trkpt lat="39.344264967694606" lon="16.158824393430557"><ele>467.0</ele><time>2026-04-18T13:25:20.872Z</time></trkpt><trkpt lat="39.34449877064218" lon="16.15881894169679"><ele>467.0</ele><time>2026-04-18T13:25:21.872Z</time></trkpt><trkpt lat="39.3447295475647" lon="16.158833669812584"><ele>464.0</ele><time>2026-04-18T13:25:22.872Z</time></trkpt><trkpt lat="39.34495797285199" lon="16.15885415957828"><ele>461.0</ele><time>2026-04-18T13:25:23.872Z</time></trkpt><trkpt lat="39.345169122148356" lon="16.158884011311745"><ele>458.0</ele><time>2026-04-18T13:25:24.872Z</time></trkpt><trkpt lat="39.34537689722582" lon="16.158938091495965"><ele>457.66666666666663</ele><time>2026-04-18T13:25:25.872Z</time></trkpt><trkpt lat="39.345571697413405" lon="16.159005563746714"><ele>457.33333333333337</ele><time>2026-04-18T13:25:26.872Z</time></trkpt><trkpt lat="39.34574486956855" lon="16.159112695005536"><ele>457.0</ele><time>2026-04-18T13:25:27.872Z</time></trkpt><trkpt lat="39.34591595388448" lon="16.15923014433806"><ele>457.0</ele><time>2026-04-18T13:25:28.872Z</time></trkpt><trkpt lat="39.346083125588635" lon="16.15936448278953"><ele>457.0</ele><time>2026-04-18T13:25:29.872Z</time></trkpt><trkpt lat="39.34622571846271" lon="16.15951971965255"><ele>457.0</ele><time>2026-04-18T13:25:30.872Z</time></trkpt><trkpt lat="39.34637007276602" lon="16.159682290669313"><ele>450.6666666666667</ele><time>2026-04-18T13:25:31.872Z</time></trkpt><trkpt lat="39.34648784459709" lon="16.159884567872655"><ele>444.33333333333337</ele><time>2026-04-18T13:25:32.872Z</time></trkpt><trkpt lat="39.34659162508026" lon="16.160097946996036"><ele>438.0</ele><time>2026-04-18T13:25:33.873Z</time></trkpt><trkpt lat="39.346683932597536" lon="16.16032702540015"><ele>438.0</ele><time>2026-04-18T13:25:34.873Z</time></trkpt><trkpt lat="39.346766363518405" lon="16.16056393170365"><ele>438.0</ele><time>2026-04-18T13:25:35.873Z</time></trkpt><trkpt lat="39.346844886095326" lon="16.160805094524985"><ele>438.0</ele><time>2026-04-18T13:25:36.873Z</time></trkpt><trkpt lat="39.34692030492155" lon="16.161051658539613"><ele>438.66666666666663</ele><time>2026-04-18T13:25:37.873Z</time></trkpt><trkpt lat="39.34699784701527" lon="16.16130382505913"><ele>439.3333333333333</ele><time>2026-04-18T13:25:38.873Z</time></trkpt><trkpt lat="39.347075666779006" lon="16.161551490866117"><ele>440.0</ele><time>2026-04-18T13:25:39.873Z</time></trkpt><trkpt lat="39.34715816611029" lon="16.161803326071993"><ele>440.0</ele><time>2026-04-18T13:25:40.873Z</time></trkpt><trkpt lat="39.347237423632514" lon="16.162047381992846"><ele>440.0</ele><time>2026-04-18T13:25:41.873Z</time></trkpt><trkpt lat="39.347312834805656" lon="16.162282223764457"><ele>440.0</ele><time>2026-04-18T13:25:42.873Z</time></trkpt><trkpt lat="39.347384622513516" lon="16.162506714063948"><ele>440.0</ele><time>2026-04-18T13:25:43.873Z</time></trkpt><trkpt lat="39.347449038678086" lon="16.16270862962103"><ele>440.0</ele><time>2026-04-18T13:25:44.873Z</time></trkpt><trkpt lat="39.347510771012914" lon="16.16290509064636"><ele>440.0</ele><time>2026-04-18T13:25:45.873Z</time></trkpt><trkpt lat="39.347564405496904" lon="16.163095204327515"><ele>440.66666666666663</ele><time>2026-04-18T13:25:46.873Z</time></trkpt><trkpt lat="39.34759557413881" lon="16.163290595119648"><ele>441.33333333333337</ele><time>2026-04-18T13:25:47.873Z</time></trkpt><trkpt lat="39.34758999004824" lon="16.16348743684831"><ele>442.0</ele><time>2026-04-18T13:25:48.873Z</time></trkpt><trkpt lat="39.3475416514756" lon="16.163673445858034"><ele>442.0</ele><time>2026-04-18T13:25:49.873Z</time></trkpt><trkpt lat="39.34743064043157" lon="16.163849212426943"><ele>442.0</ele><time>2026-04-18T13:25:50.873Z</time></trkpt><trkpt lat="39.347315421233844" lon="16.164009706743187"><ele>442.0</ele><time>2026-04-18T13:25:51.873Z</time></trkpt><trkpt lat="39.34719363441734" lon="16.164170685621016"><ele>444.33333333333337</ele><time>2026-04-18T13:25:52.873Z</time></trkpt><trkpt lat="39.347076231092686" lon="16.16433586593343"><ele>446.66666666666663</ele><time>2026-04-18T13:25:53.873Z</time></trkpt><trkpt lat="39.34696590565692" lon="16.164494386850496"><ele>449.0</ele><time>2026-04-18T13:25:54.873Z</time></trkpt><trkpt lat="39.34685941994395" lon="16.16465073686075"><ele>449.0</ele><time>2026-04-18T13:25:55.873Z</time></trkpt><trkpt lat="39.34675911661052" lon="16.164805099390254"><ele>449.0</ele><time>2026-04-18T13:25:56.873Z</time></trkpt><trkpt lat="39.34667657000369" lon="16.16496996985996"><ele>449.0</ele><time>2026-04-18T13:25:57.873Z</time></trkpt><trkpt lat="39.34663052527295" lon="16.16514503768537"><ele>444.75</ele><time>2026-04-18T13:25:58.873Z</time></trkpt><trkpt lat="39.346628562066634" lon="16.16533356069031"><ele>440.5</ele><time>2026-04-18T13:25:59.873Z</time></trkpt><trkpt lat="39.34663579689462" lon="16.165533276529654"><ele>436.25</ele><time>2026-04-18T13:26:00.873Z</time></trkpt><trkpt lat="39.34670440120622" lon="16.165701180043712"><ele>432.0</ele><time>2026-04-18T13:26:01.873Z</time></trkpt><trkpt lat="39.346823742741215" lon="16.16586775495207"><ele>430.66666666666663</ele><time>2026-04-18T13:26:02.873Z</time></trkpt><trkpt lat="39.346957439199336" lon="16.16600690086856"><ele>429.3333333333333</ele><time>2026-04-18T13:26:03.873Z</time></trkpt><trkpt lat="39.3470786307398" lon="16.166141120525424"><ele>428.0</ele><time>2026-04-18T13:26:04.873Z</time></trkpt><trkpt lat="39.3471421471079" lon="16.166315518348185"><ele>428.0</ele><time>2026-04-18T13:26:05.873Z</time></trkpt><trkpt lat="39.34717829084083" lon="16.16649757218852"><ele>428.0</ele><time>2026-04-18T13:26:06.873Z</time></trkpt><trkpt lat="39.34717699598276" lon="16.166695809018922"><ele>428.0</ele><time>2026-04-18T13:26:07.873Z</time></trkpt><trkpt lat="39.34713707623203" lon="16.16687776668672"><ele>428.0</ele><time>2026-04-18T13:26:08.873Z</time></trkpt><trkpt lat="39.3470655584771" lon="16.167044292396447"><ele>427.0</ele><time>2026-04-18T13:26:09.873Z</time></trkpt><trkpt lat="39.346957698764506" lon="16.167206998056212"><ele>426.0</ele><time>2026-04-18T13:26:10.873Z</time></trkpt><trkpt lat="39.34683046280786" lon="16.16737356104055"><ele>425.0</ele><time>2026-04-18T13:26:11.873Z</time></trkpt><trkpt lat="39.34672120611642" lon="16.167540446643383"><ele>425.0</ele><time>2026-04-18T13:26:12.873Z</time></trkpt><trkpt lat="39.3466398545653" lon="16.167711037657455"><ele>425.0</ele><time>2026-04-18T13:26:13.873Z</time></trkpt><trkpt lat="39.346588124727305" lon="16.16789555783632"><ele>425.0</ele><time>2026-04-18T13:26:14.873Z</time></trkpt><trkpt lat="39.34657924885808" lon="16.16809650750343"><ele>424.0</ele><time>2026-04-18T13:26:15.873Z</time></trkpt><trkpt lat="39.34660923849098" lon="16.168305218576563"><ele>423.0</ele><time>2026-04-18T13:26:16.873Z</time></trkpt><trkpt lat="39.34668991778432" lon="16.168526488516278"><ele>422.0</ele><time>2026-04-18T13:26:17.873Z</time></trkpt><trkpt lat="39.346805853627735" lon="16.168740243749756"><ele>422.0</ele><time>2026-04-18T13:26:18.873Z</time></trkpt><trkpt lat="39.346929762136185" lon="16.168965688573234"><ele>422.0</ele><time>2026-04-18T13:26:19.873Z</time></trkpt><trkpt lat="39.34705399634522" lon="16.16921888786209"><ele>422.0</ele><time>2026-04-18T13:26:20.873Z</time></trkpt><trkpt lat="39.34716805592734" lon="16.16947210937873"><ele>417.66666666666663</ele><time>2026-04-18T13:26:21.873Z</time></trkpt><trkpt lat="39.34727597377923" lon="16.16970184456776"><ele>413.33333333333337</ele><time>2026-04-18T13:26:22.873Z</time></trkpt><trkpt lat="39.34738661128392" lon="16.169923006745528"><ele>409.0</ele><time>2026-04-18T13:26:23.873Z</time></trkpt><trkpt lat="39.34749195309301" lon="16.17014339644836"><ele>409.0</ele><time>2026-04-18T13:26:24.873Z</time></trkpt><trkpt lat="39.34759219254244" lon="16.170362237087065"><ele>409.0</ele><time>2026-04-18T13:26:25.873Z</time></trkpt><trkpt lat="39.34769280178651" lon="16.170584815596555"><ele>409.0</ele><time>2026-04-18T13:26:26.873Z</time></trkpt><trkpt lat="39.347796794496986" lon="16.170810395525724"><ele>408.6666666666667</ele><time>2026-04-18T13:26:27.873Z</time></trkpt><trkpt lat="39.34790242237604" lon="16.171035742610936"><ele>408.33333333333337</ele><time>2026-04-18T13:26:28.873Z</time></trkpt><trkpt lat="39.34800235676766" lon="16.17125417233528"><ele>408.0</ele><time>2026-04-18T13:26:29.873Z</time></trkpt><trkpt lat="39.34810033628166" lon="16.17146649446466"><ele>403.33333333333337</ele><time>2026-04-18T13:26:30.873Z</time></trkpt><trkpt lat="39.34819343982344" lon="16.171680108871353"><ele>398.6666666666667</ele><time>2026-04-18T13:26:31.873Z</time></trkpt><trkpt lat="39.34828320060531" lon="16.171907746935243"><ele>394.0</ele><time>2026-04-18T13:26:32.873Z</time></trkpt><trkpt lat="39.34837892295196" lon="16.17216618171312"><ele>396.0</ele><time>2026-04-18T13:26:33.873Z</time></trkpt><trkpt lat="39.348456196542394" lon="16.172446801792137"><ele>398.0</ele><time>2026-04-18T13:26:34.873Z</time></trkpt><trkpt lat="39.34851895407579" lon="16.172728731316383"><ele>398.0</ele><time>2026-04-18T13:26:35.873Z</time></trkpt><trkpt lat="39.34855228974381" lon="16.17300351380293"><ele>398.0</ele><time>2026-04-18T13:26:36.873Z</time></trkpt><trkpt lat="39.34859006790552" lon="16.173278877940277"><ele>398.0</ele><time>2026-04-18T13:26:37.873Z</time></trkpt><trkpt lat="39.34861322342201" lon="16.173551701161024"><ele>397.66666666666663</ele><time>2026-04-18T13:26:38.873Z</time></trkpt><trkpt lat="39.34862183333154" lon="16.173825905474807"><ele>397.33333333333337</ele><time>2026-04-18T13:26:39.873Z</time></trkpt><trkpt lat="39.34862143830312" lon="16.174102217063044"><ele>397.0</ele><time>2026-04-18T13:26:40.873Z</time></trkpt><trkpt lat="39.34860870685933" lon="16.174377754691715"><ele>395.0</ele><time>2026-04-18T13:26:41.873Z</time></trkpt><trkpt lat="39.34857971802598" lon="16.174654557973376"><ele>393.0</ele><time>2026-04-18T13:26:42.873Z</time></trkpt><trkpt lat="39.3485399722014" lon="16.174924051572468"><ele>391.0</ele><time>2026-04-18T13:26:43.873Z</time></trkpt><trkpt lat="39.34849292416472" lon="16.17518885211049"><ele>389.33333333333337</ele><time>2026-04-18T13:26:44.873Z</time></trkpt><trkpt lat="39.348436578558484" lon="16.17543335502584"><ele>387.66666666666663</ele><time>2026-04-18T13:26:45.873Z</time></trkpt><trkpt lat="39.34836145602051" lon="16.175693016257192"><ele>386.0</ele><time>2026-04-18T13:26:46.873Z</time></trkpt><trkpt lat="39.348276215461205" lon="16.175946862861093"><ele>383.0</ele><time>2026-04-18T13:26:47.873Z</time></trkpt><trkpt lat="39.34817822024465" lon="16.176210541857973"><ele>380.0</ele><time>2026-04-18T13:26:48.873Z</time></trkpt><trkpt lat="39.34807495110653" lon="16.176480902713102"><ele>378.0</ele><time>2026-04-18T13:26:49.873Z</time></trkpt><trkpt lat="39.347974905209455" lon="16.176738958031756"><ele>376.0</ele><time>2026-04-18T13:26:50.873Z</time></trkpt><trkpt lat="39.34787951537952" lon="16.176982300163626"><ele>374.0</ele><time>2026-04-18T13:26:51.872Z</time></trkpt><trkpt lat="39.347789197532975" lon="16.17722576672369"><ele>371.0</ele><time>2026-04-18T13:26:52.872Z</time></trkpt><trkpt lat="39.347698785507305" lon="16.177470494513884"><ele>368.0</ele><time>2026-04-18T13:26:53.872Z</time></trkpt><trkpt lat="39.34761181518663" lon="16.177720643811202"><ele>365.0</ele><time>2026-04-18T13:26:54.872Z</time></trkpt><trkpt lat="39.34753431186364" lon="16.177977103103647"><ele>364.6666666666667</ele><time>2026-04-18T13:26:55.872Z</time></trkpt><trkpt lat="39.34747442111217" lon="16.178241598801982"><ele>364.3333333333333</ele><time>2026-04-18T13:26:56.872Z</time></trkpt><trkpt lat="39.34743715847425" lon="16.178516624305978"><ele>364.0</ele><time>2026-04-18T13:26:57.872Z</time></trkpt><trkpt lat="39.34741970682383" lon="16.17879676076323"><ele>363.66666666666663</ele><time>2026-04-18T13:26:58.872Z</time></trkpt><trkpt lat="39.34742798863626" lon="16.179074002861714"><ele>363.3333333333333</ele><time>2026-04-18T13:26:59.872Z</time></trkpt><trkpt lat="39.3474593146326" lon="16.179334657719593"><ele>363.0</ele><time>2026-04-18T13:27:00.872Z</time></trkpt><trkpt lat="39.34751558792956" lon="16.179601897672303"><ele>362.6666666666667</ele><time>2026-04-18T13:27:01.872Z</time></trkpt><trkpt lat="39.34759384810412" lon="16.17986698653787"><ele>362.33333333333337</ele><time>2026-04-18T13:27:02.872Z</time></trkpt><trkpt lat="39.34768387806477" lon="16.18012213091214"><ele>362.0</ele><time>2026-04-18T13:27:03.872Z</time></trkpt><trkpt lat="39.347769335246326" lon="16.18036956131712"><ele>362.0</ele><time>2026-04-18T13:27:04.872Z</time></trkpt><trkpt lat="39.34785616900022" lon="16.18062019998027"><ele>362.0</ele><time>2026-04-18T13:27:05.872Z</time></trkpt><trkpt lat="39.34794857263452" lon="16.18086907720673"><ele>362.0</ele><time>2026-04-18T13:27:06.872Z</time></trkpt><trkpt lat="39.34804126139761" lon="16.181125984958282"><ele>358.0</ele><time>2026-04-18T13:27:07.872Z</time></trkpt><trkpt lat="39.348129964573445" lon="16.18138543343698"><ele>354.0</ele><time>2026-04-18T13:27:08.872Z</time></trkpt><trkpt lat="39.34821451024486" lon="16.18163480291392"><ele>350.0</ele><time>2026-04-18T13:27:09.872Z</time></trkpt><trkpt lat="39.348296721959684" lon="16.181881015722688"><ele>350.0</ele><time>2026-04-18T13:27:10.872Z</time></trkpt><trkpt lat="39.34837382523847" lon="16.182116904223353"><ele>350.0</ele><time>2026-04-18T13:27:11.872Z</time></trkpt><trkpt lat="39.348443419648724" lon="16.182354583030985"><ele>350.0</ele><time>2026-04-18T13:27:12.872Z</time></trkpt><trkpt lat="39.34850664123445" lon="16.182610716098438"><ele>347.6666666666667</ele><time>2026-04-18T13:27:13.872Z</time></trkpt><trkpt lat="39.3485606783809" lon="16.182885070126435"><ele>345.3333333333333</ele><time>2026-04-18T13:27:14.872Z</time></trkpt><trkpt lat="39.3485993531983" lon="16.183158979517863"><ele>343.0</ele><time>2026-04-18T13:27:15.872Z</time></trkpt><trkpt lat="39.34862264291357" lon="16.18343133002115"><ele>341.0</ele><time>2026-04-18T13:27:16.872Z</time></trkpt><trkpt lat="39.34862833102447" lon="16.183697802078555"><ele>339.0</ele><time>2026-04-18T13:27:17.872Z</time></trkpt><trkpt lat="39.34861582296858" lon="16.183960132393466"><ele>337.0</ele><time>2026-04-18T13:27:18.872Z</time></trkpt><trkpt lat="39.3485887521834" lon="16.18421345581081"><ele>335.3333333333333</ele><time>2026-04-18T13:27:19.872Z</time></trkpt><trkpt lat="39.3485509194119" lon="16.18447451295566"><ele>333.6666666666667</ele><time>2026-04-18T13:27:20.872Z</time></trkpt><trkpt lat="39.34850958147701" lon="16.18473501710534"><ele>332.0</ele><time>2026-04-18T13:27:21.872Z</time></trkpt><trkpt lat="39.34847028683763" lon="16.184991649523703"><ele>331.0</ele><time>2026-04-18T13:27:22.872Z</time></trkpt><trkpt lat="39.3484335482799" lon="16.18524057231762"><ele>330.0</ele><time>2026-04-18T13:27:23.872Z</time></trkpt><trkpt lat="39.34839915148431" lon="16.185486003080566"><ele>329.0</ele><time>2026-04-18T13:27:24.872Z</time></trkpt><trkpt lat="39.34836498282318" lon="16.18573414726025"><ele>328.33333333333337</ele><time>2026-04-18T13:27:25.872Z</time></trkpt><trkpt lat="39.3483328284239" lon="16.185985610239527"><ele>327.6666666666667</ele><time>2026-04-18T13:27:26.872Z</time></trkpt><trkpt lat="39.34829946490999" lon="16.186238202704104"><ele>327.0</ele><time>2026-04-18T13:27:27.872Z</time></trkpt><trkpt lat="39.34826447292182" lon="16.186496574769397"><ele>325.6666666666667</ele><time>2026-04-18T13:27:28.872Z</time></trkpt><trkpt lat="39.34822939809406" lon="16.18674992821169"><ele>324.33333333333337</ele><time>2026-04-18T13:27:29.872Z</time></trkpt><trkpt lat="39.34819258800991" lon="16.186996373539333"><ele>323.0</ele><time>2026-04-18T13:27:30.872Z</time></trkpt><trkpt lat="39.34815196913075" lon="16.1872314658263"><ele>322.33333333333337</ele><time>2026-04-18T13:27:31.872Z</time></trkpt><trkpt lat="39.34809927601316" lon="16.187474466715837"><ele>321.6666666666667</ele><time>2026-04-18T13:27:32.872Z</time></trkpt><trkpt lat="39.34803959686656" lon="16.187721403303403"><ele>321.0</ele><time>2026-04-18T13:27:33.872Z</time></trkpt><trkpt lat="39.34797720547179" lon="16.18797004298198"><ele>317.6666666666667</ele><time>2026-04-18T13:27:34.872Z</time></trkpt><trkpt lat="39.347913649026765" lon="16.188211875116185"><ele>314.33333333333337</ele><time>2026-04-18T13:27:35.872Z</time></trkpt><trkpt lat="39.34785578874998" lon="16.188442359575205"><ele>311.0</ele><time>2026-04-18T13:27:36.872Z</time></trkpt><trkpt lat="39.347798212812734" lon="16.188672618373374"><ele>311.0</ele><time>2026-04-18T13:27:37.872Z</time></trkpt><trkpt lat="39.34774298693428" lon="16.188895197230732"><ele>311.0</ele><time>2026-04-18T13:27:38.873Z</time></trkpt><trkpt lat="39.34768744657193" lon="16.18912049685699"><ele>311.0</ele><time>2026-04-18T13:27:39.873Z</time></trkpt><trkpt lat="39.34763623450969" lon="16.1893389620693"><ele>310.0</ele><time>2026-04-18T13:27:40.873Z</time></trkpt><trkpt lat="39.34758366655308" lon="16.189554006126922"><ele>309.0</ele><time>2026-04-18T13:27:41.873Z</time></trkpt><trkpt lat="39.34752690015917" lon="16.189774850059006"><ele>308.0</ele><time>2026-04-18T13:27:42.873Z</time></trkpt><trkpt lat="39.34747194665733" lon="16.19000296889087"><ele>307.6666666666667</ele><time>2026-04-18T13:27:43.873Z</time></trkpt><trkpt lat="39.34741753611731" lon="16.190235325263416"><ele>307.3333333333333</ele><time>2026-04-18T13:27:44.873Z</time></trkpt><trkpt lat="39.347362165980236" lon="16.190471699010637"><ele>307.0</ele><time>2026-04-18T13:27:45.873Z</time></trkpt><trkpt lat="39.34730463447885" lon="16.190712693284627"><ele>306.3333333333333</ele><time>2026-04-18T13:27:46.873Z</time></trkpt><trkpt lat="39.34724634031117" lon="16.190953049433766"><ele>305.6666666666667</ele><time>2026-04-18T13:27:47.873Z</time></trkpt><trkpt lat="39.3471896907386" lon="16.191205555535248"><ele>305.0</ele><time>2026-04-18T13:27:48.873Z</time></trkpt><trkpt lat="39.34712748640293" lon="16.191444458951374"><ele>302.0</ele><time>2026-04-18T13:27:49.873Z</time></trkpt><trkpt lat="39.347067108082484" lon="16.191677846269847"><ele>299.0</ele><time>2026-04-18T13:27:50.873Z</time></trkpt><trkpt lat="39.34701053163948" lon="16.191903082600383"><ele>296.0</ele><time>2026-04-18T13:27:51.873Z</time></trkpt><trkpt lat="39.34695527391308" lon="16.19212510901726"><ele>295.33333333333337</ele><time>2026-04-18T13:27:52.873Z</time></trkpt><trkpt lat="39.346897193081546" lon="16.19234944981184"><ele>294.6666666666667</ele><time>2026-04-18T13:27:53.873Z</time></trkpt><trkpt lat="39.34683946259167" lon="16.19257364803441"><ele>294.0</ele><time>2026-04-18T13:27:54.873Z</time></trkpt><trkpt lat="39.34678077886189" lon="16.19280516895853"><ele>294.0</ele><time>2026-04-18T13:27:55.873Z</time></trkpt><trkpt lat="39.346722326127015" lon="16.193039691335553"><ele>294.0</ele><time>2026-04-18T13:27:56.873Z</time></trkpt><trkpt lat="39.34666439004545" lon="16.193268251899774"><ele>294.0</ele><time>2026-04-18T13:27:57.873Z</time></trkpt><trkpt lat="39.346610872188506" lon="16.193489023692752"><ele>293.6666666666667</ele><time>2026-04-18T13:27:58.873Z</time></trkpt><trkpt lat="39.34656024019215" lon="16.19370733738048"><ele>293.33333333333337</ele><time>2026-04-18T13:27:59.873Z</time></trkpt><trkpt lat="39.34651041710132" lon="16.193914298041"><ele>293.0</ele><time>2026-04-18T13:28:00.873Z</time></trkpt><trkpt lat="39.34646318204894" lon="16.194120479354897"><ele>293.0</ele><time>2026-04-18T13:28:01.873Z</time></trkpt><trkpt lat="39.34641133933235" lon="16.194336161755487"><ele>293.0</ele><time>2026-04-18T13:28:02.873Z</time></trkpt><trkpt lat="39.346357509309556" lon="16.1945574101564"><ele>293.0</ele><time>2026-04-18T13:28:03.873Z</time></trkpt><trkpt lat="39.3463048374841" lon="16.194770301264498"><ele>291.0</ele><time>2026-04-18T13:28:04.873Z</time></trkpt><trkpt lat="39.34625003432045" lon="16.194989436439233"><ele>289.0</ele><time>2026-04-18T13:28:05.873Z</time></trkpt><trkpt lat="39.346201518175405" lon="16.19519362526466"><ele>287.0</ele><time>2026-04-18T13:28:06.873Z</time></trkpt><trkpt lat="39.34616573732173" lon="16.195396874191328"><ele>287.0</ele><time>2026-04-18T13:28:07.873Z</time></trkpt><trkpt lat="39.346143626656435" lon="16.195596562651744"><ele>287.0</ele><time>2026-04-18T13:28:08.873Z</time></trkpt><trkpt lat="39.346127843265805" lon="16.195792138077607"><ele>287.0</ele><time>2026-04-18T13:28:09.873Z</time></trkpt><trkpt lat="39.34612550443061" lon="16.195995640726757"><ele>287.0</ele><time>2026-04-18T13:28:10.873Z</time></trkpt><trkpt lat="39.346139457577536" lon="16.196204677638228"><ele>287.0</ele><time>2026-04-18T13:28:11.873Z</time></trkpt><trkpt lat="39.34616108371523" lon="16.196426782315328"><ele>287.0</ele><time>2026-04-18T13:28:12.873Z</time></trkpt><trkpt lat="39.34619041716872" lon="16.19664402413371"><ele>285.0</ele><time>2026-04-18T13:28:13.873Z</time></trkpt><trkpt lat="39.34622280601847" lon="16.196865058293184"><ele>283.0</ele><time>2026-04-18T13:28:14.873Z</time></trkpt><trkpt lat="39.3462550077066" lon="16.197099056552023"><ele>281.0</ele><time>2026-04-18T13:28:15.873Z</time></trkpt><trkpt lat="39.3462883076563" lon="16.197330262354377"><ele>280.0</ele><time>2026-04-18T13:28:16.873Z</time></trkpt><trkpt lat="39.346319815944526" lon="16.19754614345557"><ele>279.0</ele><time>2026-04-18T13:28:17.873Z</time></trkpt><trkpt lat="39.34635032458752" lon="16.197762969445932"><ele>278.0</ele><time>2026-04-18T13:28:18.873Z</time></trkpt><trkpt lat="39.34637935088557" lon="16.197971996549096"><ele>280.6666666666667</ele><time>2026-04-18T13:28:19.873Z</time></trkpt><trkpt lat="39.346410793300606" lon="16.198192009618968"><ele>283.3333333333333</ele><time>2026-04-18T13:28:20.872Z</time></trkpt><trkpt lat="39.34643949173385" lon="16.198403653309185"><ele>286.0</ele><time>2026-04-18T13:28:21.872Z</time></trkpt><trkpt lat="39.34646838350074" lon="16.198621196381296"><ele>286.0</ele><time>2026-04-18T13:28:22.872Z</time></trkpt><trkpt lat="39.34650188456274" lon="16.1988415759668"><ele>286.0</ele><time>2026-04-18T13:28:23.872Z</time></trkpt><trkpt lat="39.34653410811773" lon="16.1990610415249"><ele>286.0</ele><time>2026-04-18T13:28:24.872Z</time></trkpt><trkpt lat="39.34656379331835" lon="16.19927647597918"><ele>284.66666666666663</ele><time>2026-04-18T13:28:25.872Z</time></trkpt><trkpt lat="39.3465936205483" lon="16.199503120501046"><ele>283.3333333333333</ele><time>2026-04-18T13:28:26.872Z</time></trkpt><trkpt lat="39.3466235991811" lon="16.199718137810308"><ele>282.0</ele><time>2026-04-18T13:28:27.872Z</time></trkpt><trkpt lat="39.34665301755374" lon="16.199942211407322"><ele>279.6666666666667</ele><time>2026-04-18T13:28:28.872Z</time></trkpt><trkpt lat="39.34668603292477" lon="16.20017114152358"><ele>277.33333333333337</ele><time>2026-04-18T13:28:29.872Z</time></trkpt><trkpt lat="39.346717730413594" lon="16.200384204268303"><ele>275.0</ele><time>2026-04-18T13:28:30.872Z</time></trkpt><trkpt lat="39.34674393985355" lon="16.20061636363611"><ele>273.6666666666667</ele><time>2026-04-18T13:28:31.872Z</time></trkpt><trkpt lat="39.34677719247375" lon="16.20083250931504"><ele>272.3333333333333</ele><time>2026-04-18T13:28:32.872Z</time></trkpt><trkpt lat="39.346807698321314" lon="16.20106327705607"><ele>271.0</ele><time>2026-04-18T13:28:33.872Z</time></trkpt><trkpt lat="39.34684016470714" lon="16.20128577989267"><ele>270.66666666666663</ele><time>2026-04-18T13:28:34.872Z</time></trkpt><trkpt lat="39.34687316719539" lon="16.201510351536353"><ele>270.3333333333333</ele><time>2026-04-18T13:28:35.872Z</time></trkpt><trkpt lat="39.346906238029845" lon="16.201738976701947"><ele>270.0</ele><time>2026-04-18T13:28:36.872Z</time></trkpt><trkpt lat="39.346938306710605" lon="16.201967158881047"><ele>270.0</ele><time>2026-04-18T13:28:37.872Z</time></trkpt><trkpt lat="39.34697213142266" lon="16.202196551190625"><ele>270.0</ele><time>2026-04-18T13:28:38.872Z</time></trkpt><trkpt lat="39.346991582238665" lon="16.202439358607425"><ele>270.0</ele><time>2026-04-18T13:28:39.872Z</time></trkpt><trkpt lat="39.347038694294824" lon="16.202665388794138"><ele>269.3333333333333</ele><time>2026-04-18T13:28:40.872Z</time></trkpt><trkpt lat="39.34706842876295" lon="16.20288626613543"><ele>268.66666666666663</ele><time>2026-04-18T13:28:41.872Z</time></trkpt><trkpt lat="39.347100925077285" lon="16.20311635548563"><ele>268.0</ele><time>2026-04-18T13:28:42.872Z</time></trkpt><trkpt lat="39.347127869621815" lon="16.203343531743307"><ele>266.66666666666663</ele><time>2026-04-18T13:28:43.872Z</time></trkpt><trkpt lat="39.347158674883964" lon="16.203568499612338"><ele>265.3333333333333</ele><time>2026-04-18T13:28:44.872Z</time></trkpt><trkpt lat="39.34718925275212" lon="16.20378977196025"><ele>264.0</ele><time>2026-04-18T13:28:45.872Z</time></trkpt><trkpt lat="39.347220594596095" lon="16.203996984561126"><ele>264.0</ele><time>2026-04-18T13:28:46.872Z</time></trkpt><trkpt lat="39.34725051835668" lon="16.204201831337745"><ele>264.0</ele><time>2026-04-18T13:28:47.872Z</time></trkpt><trkpt lat="39.34728050023207" lon="16.204406418947993"><ele>264.0</ele><time>2026-04-18T13:28:48.872Z</time></trkpt><trkpt lat="39.347310394800346" lon="16.204616304100313"><ele>262.6666666666667</ele><time>2026-04-18T13:28:49.872Z</time></trkpt><trkpt lat="39.34734140704273" lon="16.204830506283766"><ele>261.33333333333337</ele><time>2026-04-18T13:28:50.872Z</time></trkpt><trkpt lat="39.34737459575097" lon="16.205053168821436"><ele>260.0</ele><time>2026-04-18T13:28:51.872Z</time></trkpt><trkpt lat="39.34740644348972" lon="16.205270763355202"><ele>260.0</ele><time>2026-04-18T13:28:52.872Z</time></trkpt><trkpt lat="39.34743612388616" lon="16.205497097108836"><ele>260.0</ele><time>2026-04-18T13:28:53.872Z</time></trkpt><trkpt lat="39.34746470091431" lon="16.205713930801387"><ele>260.0</ele><time>2026-04-18T13:28:54.872Z</time></trkpt><trkpt lat="39.347489938460505" lon="16.20591616258304"><ele>259.33333333333337</ele><time>2026-04-18T13:28:55.872Z</time></trkpt><trkpt lat="39.347516410222916" lon="16.20612029551568"><ele>258.6666666666667</ele><time>2026-04-18T13:28:56.872Z</time></trkpt><trkpt lat="39.347544688320056" lon="16.20632847004995"><ele>258.0</ele><time>2026-04-18T13:28:57.872Z</time></trkpt><trkpt lat="39.34757282235506" lon="16.20654280820358"><ele>257.6666666666667</ele><time>2026-04-18T13:28:58.872Z</time></trkpt><trkpt lat="39.347603068408425" lon="16.20675631195579"><ele>257.33333333333337</ele><time>2026-04-18T13:28:59.872Z</time></trkpt><trkpt lat="39.3476356181511" lon="16.2069745424044"><ele>257.0</ele><time>2026-04-18T13:29:00.872Z</time></trkpt><trkpt lat="39.34766946099287" lon="16.207195977244098"><ele>256.6666666666667</ele><time>2026-04-18T13:29:01.872Z</time></trkpt><trkpt lat="39.34770244395909" lon="16.20740906502539"><ele>256.3333333333333</ele><time>2026-04-18T13:29:02.872Z</time></trkpt><trkpt lat="39.34773358659698" lon="16.207611630316197"><ele>256.0</ele><time>2026-04-18T13:29:03.872Z</time></trkpt><trkpt lat="39.34774161704676" lon="16.2078185675374"><ele>256.0</ele><time>2026-04-18T13:29:04.872Z</time></trkpt><trkpt lat="39.34776093602782" lon="16.20801756619993"><ele>256.0</ele><time>2026-04-18T13:29:05.872Z</time></trkpt><trkpt lat="39.347819829422974" lon="16.208307892554785"><ele>256.0</ele><time>2026-04-18T13:29:06.872Z</time></trkpt><trkpt lat="39.347848410873844" lon="16.208532528229462"><ele>255.33333333333331</ele><time>2026-04-18T13:29:07.872Z</time></trkpt><trkpt lat="39.34787622016694" lon="16.208759721050892"><ele>254.66666666666669</ele><time>2026-04-18T13:29:08.872Z</time></trkpt><trkpt lat="39.3479040796578" lon="16.208988516394793"><ele>254.0</ele><time>2026-04-18T13:29:09.872Z</time></trkpt><trkpt lat="39.34793213532857" lon="16.209215608928304"><ele>252.33333333333334</ele><time>2026-04-18T13:29:10.872Z</time></trkpt><trkpt lat="39.34796260429606" lon="16.209441325103107"><ele>250.66666666666669</ele><time>2026-04-18T13:29:11.872Z</time></trkpt><trkpt lat="39.347996269999484" lon="16.209668467735774"><ele>249.0</ele><time>2026-04-18T13:29:12.872Z</time></trkpt><trkpt lat="39.348025682874365" lon="16.209890809121468"><ele>251.66666666666669</ele><time>2026-04-18T13:29:13.872Z</time></trkpt><trkpt lat="39.34804374764414" lon="16.210110016530958"><ele>254.33333333333334</ele><time>2026-04-18T13:29:14.872Z</time></trkpt><trkpt lat="39.34805365977802" lon="16.21033298599628"><ele>257.0</ele><time>2026-04-18T13:29:15.872Z</time></trkpt><trkpt lat="39.34806618997918" lon="16.210558038730305"><ele>256.33333333333337</ele><time>2026-04-18T13:29:16.872Z</time></trkpt><trkpt lat="39.348075720446175" lon="16.21079059332677"><ele>255.66666666666669</ele><time>2026-04-18T13:29:17.872Z</time></trkpt><trkpt lat="39.348077638671924" lon="16.211018590472317"><ele>255.0</ele><time>2026-04-18T13:29:18.872Z</time></trkpt><trkpt lat="39.34807245652711" lon="16.21123668261305"><ele>255.0</ele><time>2026-04-18T13:29:19.872Z</time></trkpt><trkpt lat="39.3480681416133" lon="16.211451454829966"><ele>255.0</ele><time>2026-04-18T13:29:20.872Z</time></trkpt><trkpt lat="39.34806768056291" lon="16.211663990366393"><ele>255.0</ele><time>2026-04-18T13:29:21.872Z</time></trkpt><trkpt lat="39.348064385345616" lon="16.2118758874871"><ele>256.0</ele><time>2026-04-18T13:29:22.872Z</time></trkpt><trkpt lat="39.34805814882424" lon="16.2120954691868"><ele>257.0</ele><time>2026-04-18T13:29:23.872Z</time></trkpt><trkpt lat="39.34806028842026" lon="16.212315041853365"><ele>258.0</ele><time>2026-04-18T13:29:24.872Z</time></trkpt><trkpt lat="39.34806193968301" lon="16.21254266703429"><ele>258.0</ele><time>2026-04-18T13:29:25.872Z</time></trkpt><trkpt lat="39.348065075017736" lon="16.212767899046092"><ele>258.0</ele><time>2026-04-18T13:29:26.872Z</time></trkpt><trkpt lat="39.34806747758573" lon="16.213000830633455"><ele>258.0</ele><time>2026-04-18T13:29:27.872Z</time></trkpt><trkpt lat="39.34807744313331" lon="16.213233935749635"><ele>255.66666666666669</ele><time>2026-04-18T13:29:28.872Z</time></trkpt><trkpt lat="39.3481168800159" lon="16.213465505299265"><ele>253.33333333333334</ele><time>2026-04-18T13:29:29.872Z</time></trkpt><trkpt lat="39.34815922126696" lon="16.21369848889824"><ele>251.0</ele><time>2026-04-18T13:29:30.872Z</time></trkpt><trkpt lat="39.34821083415939" lon="16.213930040960662"><ele>249.66666666666669</ele><time>2026-04-18T13:29:31.872Z</time></trkpt><trkpt lat="39.348265039454475" lon="16.214160485803703"><ele>248.33333333333331</ele><time>2026-04-18T13:29:32.872Z</time></trkpt><trkpt lat="39.348318674943975" lon="16.214390275583916"><ele>247.0</ele><time>2026-04-18T13:29:33.872Z</time></trkpt><trkpt lat="39.3483732070802" lon="16.214623256011027"><ele>245.33333333333331</ele><time>2026-04-18T13:29:34.872Z</time></trkpt><trkpt lat="39.34842882410949" lon="16.214857121815818"><ele>243.66666666666669</ele><time>2026-04-18T13:29:35.872Z</time></trkpt><trkpt lat="39.348483168690606" lon="16.215087901988316"><ele>242.0</ele><time>2026-04-18T13:29:36.872Z</time></trkpt><trkpt lat="39.3485369723041" lon="16.215318354400534"><ele>242.0</ele><time>2026-04-18T13:29:37.872Z</time></trkpt><trkpt lat="39.34859156934052" lon="16.21554710551087"><ele>242.0</ele><time>2026-04-18T13:29:38.872Z</time></trkpt><trkpt lat="39.34864871948708" lon="16.21577846251977"><ele>242.0</ele><time>2026-04-18T13:29:39.872Z</time></trkpt><trkpt lat="39.348707363438415" lon="16.21600886560104"><ele>240.33333333333334</ele><time>2026-04-18T13:29:40.872Z</time></trkpt><trkpt lat="39.34876581813421" lon="16.21623315957258"><ele>238.66666666666669</ele><time>2026-04-18T13:29:41.872Z</time></trkpt><trkpt lat="39.34882481639945" lon="16.216461025920182"><ele>237.0</ele><time>2026-04-18T13:29:42.872Z</time></trkpt><trkpt lat="39.34887806659707" lon="16.216678974515872"><ele>238.0</ele><time>2026-04-18T13:29:43.872Z</time></trkpt><trkpt lat="39.34892750236676" lon="16.216890058976055"><ele>239.0</ele><time>2026-04-18T13:29:44.872Z</time></trkpt><trkpt lat="39.348978554081334" lon="16.217105394062056"><ele>240.0</ele><time>2026-04-18T13:29:45.872Z</time></trkpt><trkpt lat="39.34902623069376" lon="16.217320618901176"><ele>240.0</ele><time>2026-04-18T13:29:46.872Z</time></trkpt><trkpt lat="39.34907759613347" lon="16.217535877962806"><ele>240.0</ele><time>2026-04-18T13:29:47.872Z</time></trkpt><trkpt lat="39.349127135094015" lon="16.217762231377222"><ele>240.0</ele><time>2026-04-18T13:29:48.872Z</time></trkpt><trkpt lat="39.34917559576926" lon="16.217999090995786"><ele>239.0</ele><time>2026-04-18T13:29:49.872Z</time></trkpt><trkpt lat="39.34921868972433" lon="16.21823308928699"><ele>238.0</ele><time>2026-04-18T13:29:50.872Z</time></trkpt><trkpt lat="39.34925810198512" lon="16.218469116378525"><ele>237.0</ele><time>2026-04-18T13:29:51.872Z</time></trkpt><trkpt lat="39.349293611089855" lon="16.21870235411008"><ele>237.0</ele><time>2026-04-18T13:29:52.872Z</time></trkpt><trkpt lat="39.34932703550213" lon="16.218923887842088"><ele>237.0</ele><time>2026-04-18T13:29:53.872Z</time></trkpt><trkpt lat="39.34935805833154" lon="16.21913529964225"><ele>237.0</ele><time>2026-04-18T13:29:54.872Z</time></trkpt><trkpt lat="39.34938707059297" lon="16.21935531631702"><ele>236.0</ele><time>2026-04-18T13:29:55.872Z</time></trkpt><trkpt lat="39.34941342974224" lon="16.21957745859559"><ele>235.0</ele><time>2026-04-18T13:29:56.872Z</time></trkpt><trkpt lat="39.349439385800494" lon="16.21980044699774"><ele>234.0</ele><time>2026-04-18T13:29:57.872Z</time></trkpt><trkpt lat="39.34945822171481" lon="16.22002380836533"><ele>231.66666666666669</ele><time>2026-04-18T13:29:58.872Z</time></trkpt><trkpt lat="39.349476654205716" lon="16.220254705266548"><ele>229.33333333333334</ele><time>2026-04-18T13:29:59.872Z</time></trkpt><trkpt lat="39.34948876247222" lon="16.220455850161628"><ele>227.0</ele><time>2026-04-18T13:30:00.872Z</time></trkpt><trkpt lat="39.349520863020004" lon="16.22065021707419"><ele>226.0</ele><time>2026-04-18T13:30:01.872Z</time></trkpt><trkpt lat="39.34953675116329" lon="16.220861263438135"><ele>225.0</ele><time>2026-04-18T13:30:02.872Z</time></trkpt><trkpt lat="39.34957494040843" lon="16.22106567063364"><ele>224.0</ele><time>2026-04-18T13:30:03.872Z</time></trkpt><trkpt lat="39.349631467132205" lon="16.221270180651054"><ele>224.0</ele><time>2026-04-18T13:30:04.872Z</time></trkpt><trkpt lat="39.349697295943116" lon="16.2214662206056"><ele>224.0</ele><time>2026-04-18T13:30:05.872Z</time></trkpt><trkpt lat="39.34977448823505" lon="16.221665359160937"><ele>224.0</ele><time>2026-04-18T13:30:06.872Z</time></trkpt><trkpt lat="39.349859806700096" lon="16.221858764583413"><ele>224.33333333333334</ele><time>2026-04-18T13:30:07.872Z</time></trkpt><trkpt lat="39.349953733396084" lon="16.22205005472648"><ele>224.66666666666669</ele><time>2026-04-18T13:30:08.872Z</time></trkpt><trkpt lat="39.35005485926148" lon="16.222224331652246"><ele>225.0</ele><time>2026-04-18T13:30:09.872Z</time></trkpt><trkpt lat="39.35016586195681" lon="16.222406774639513"><ele>225.0</ele><time>2026-04-18T13:30:10.872Z</time></trkpt><trkpt lat="39.350291086530035" lon="16.222575372392296"><ele>225.0</ele><time>2026-04-18T13:30:11.872Z</time></trkpt><trkpt lat="39.35042010664384" lon="16.22274275090229"><ele>225.0</ele><time>2026-04-18T13:30:12.872Z</time></trkpt><trkpt lat="39.3505581338369" lon="16.22287169316168"><ele>224.66666666666669</ele><time>2026-04-18T13:30:13.872Z</time></trkpt><trkpt lat="39.35069305146551" lon="16.223009106448796"><ele>224.33333333333334</ele><time>2026-04-18T13:30:14.872Z</time></trkpt><trkpt lat="39.35082759369131" lon="16.223148773012998"><ele>224.0</ele><time>2026-04-18T13:30:15.872Z</time></trkpt><trkpt lat="39.350958777649794" lon="16.22330018763666"><ele>224.0</ele><time>2026-04-18T13:30:16.872Z</time></trkpt><trkpt lat="39.35109240768998" lon="16.223450910844704"><ele>224.0</ele><time>2026-04-18T13:30:17.872Z</time></trkpt><trkpt lat="39.35122615003582" lon="16.223601596813168"><ele>224.0</ele><time>2026-04-18T13:30:18.872Z</time></trkpt><trkpt lat="39.351337467380766" lon="16.223759551708756"><ele>224.0</ele><time>2026-04-18T13:30:19.872Z</time></trkpt><trkpt lat="39.35143105142417" lon="16.22393296987147"><ele>224.0</ele><time>2026-04-18T13:30:20.872Z</time></trkpt><trkpt lat="39.35150212632397" lon="16.224104300219558"><ele>224.0</ele><time>2026-04-18T13:30:21.872Z</time></trkpt><trkpt lat="39.35156007056959" lon="16.22428711526345"><ele>224.0</ele><time>2026-04-18T13:30:22.872Z</time></trkpt><trkpt lat="39.35160172408605" lon="16.224487319720755"><ele>224.0</ele><time>2026-04-18T13:30:23.872Z</time></trkpt><trkpt lat="39.35162427103038" lon="16.224705060145176"><ele>224.0</ele><time>2026-04-18T13:30:24.872Z</time></trkpt><trkpt lat="39.351626214709405" lon="16.22493672319795"><ele>225.0</ele><time>2026-04-18T13:30:25.872Z</time></trkpt><trkpt lat="39.35160528732258" lon="16.22517203178817"><ele>226.0</ele><time>2026-04-18T13:30:26.872Z</time></trkpt><trkpt lat="39.35156179451519" lon="16.225392480326455"><ele>227.0</ele><time>2026-04-18T13:30:27.872Z</time></trkpt><trkpt lat="39.35150601792453" lon="16.225593554556607"><ele>227.33333333333334</ele><time>2026-04-18T13:30:28.872Z</time></trkpt><trkpt lat="39.35144928576826" lon="16.225793386575106"><ele>227.66666666666669</ele><time>2026-04-18T13:30:29.872Z</time></trkpt><trkpt lat="39.35140117867833" lon="16.225991767140638"><ele>228.0</ele><time>2026-04-18T13:30:30.872Z</time></trkpt><trkpt lat="39.351353334824054" lon="16.226189400690647"><ele>222.66666666666669</ele><time>2026-04-18T13:30:31.872Z</time></trkpt><trkpt lat="39.35130704630862" lon="16.226376051134462"><ele>217.33333333333334</ele><time>2026-04-18T13:30:32.872Z</time></trkpt><trkpt lat="39.35126340912924" lon="16.22655951014316"><ele>212.0</ele><time>2026-04-18T13:30:33.872Z</time></trkpt><trkpt lat="39.35122048707899" lon="16.226744859502297"><ele>211.75</ele><time>2026-04-18T13:30:34.872Z</time></trkpt><trkpt lat="39.35117968990489" lon="16.226914768511268"><ele>211.5</ele><time>2026-04-18T13:30:35.872Z</time></trkpt><trkpt lat="39.3511396180491" lon="16.227095016753594"><ele>211.25</ele><time>2026-04-18T13:30:36.872Z</time></trkpt><trkpt lat="39.351103522027245" lon="16.227276696296656"><ele>211.0</ele><time>2026-04-18T13:30:37.872Z</time></trkpt><trkpt lat="39.35106973373445" lon="16.227471712536673"><ele>210.0</ele><time>2026-04-18T13:30:38.872Z</time></trkpt><trkpt lat="39.35104402475973" lon="16.22767260277143"><ele>209.0</ele><time>2026-04-18T13:30:39.872Z</time></trkpt><trkpt lat="39.35102986356994" lon="16.22787760379902"><ele>208.0</ele><time>2026-04-18T13:30:40.872Z</time></trkpt><trkpt lat="39.35102629558441" lon="16.228094034170088"><ele>208.0</ele><time>2026-04-18T13:30:41.872Z</time></trkpt><trkpt lat="39.35103214827098" lon="16.228314522183258"><ele>208.0</ele><time>2026-04-18T13:30:42.872Z</time></trkpt><trkpt lat="39.351050813156384" lon="16.228541605298382"><ele>208.0</ele><time>2026-04-18T13:30:43.872Z</time></trkpt><trkpt lat="39.35108301723168" lon="16.228777964951284"><ele>207.33333333333331</ele><time>2026-04-18T13:30:44.872Z</time></trkpt><trkpt lat="39.351116570603075" lon="16.22900444336685"><ele>206.66666666666669</ele><time>2026-04-18T13:30:45.872Z</time></trkpt><trkpt lat="39.35114336110022" lon="16.229226032150134"><ele>206.0</ele><time>2026-04-18T13:30:46.872Z</time></trkpt><trkpt lat="39.35116243513656" lon="16.22945316595044"><ele>206.0</ele><time>2026-04-18T13:30:47.872Z</time></trkpt><trkpt lat="39.35117042894948" lon="16.22968090503427"><ele>206.0</ele><time>2026-04-18T13:30:48.872Z</time></trkpt><trkpt lat="39.3511716919419" lon="16.22991917832321"><ele>206.0</ele><time>2026-04-18T13:30:49.872Z</time></trkpt><trkpt lat="39.35116551974825" lon="16.23014394335967"><ele>205.33333333333334</ele><time>2026-04-18T13:30:50.872Z</time></trkpt><trkpt lat="39.351154597073595" lon="16.230359864274856"><ele>204.66666666666669</ele><time>2026-04-18T13:30:51.872Z</time></trkpt><trkpt lat="39.35113786569527" lon="16.230566297058903"><ele>204.0</ele><time>2026-04-18T13:30:52.872Z</time></trkpt><trkpt lat="39.351110175609485" lon="16.230779209066434"><ele>203.33333333333331</ele><time>2026-04-18T13:30:53.872Z</time></trkpt><trkpt lat="39.35105374138914" lon="16.23098341353514"><ele>202.66666666666666</ele><time>2026-04-18T13:30:54.872Z</time></trkpt><trkpt lat="39.351016034054695" lon="16.231205763430687"><ele>202.0</ele><time>2026-04-18T13:30:55.872Z</time></trkpt><trkpt lat="39.35095268316975" lon="16.231421874688518"><ele>201.66666666666666</ele><time>2026-04-18T13:30:56.872Z</time></trkpt><trkpt lat="39.350878279566004" lon="16.23163328160466"><ele>201.33333333333331</ele><time>2026-04-18T13:30:57.872Z</time></trkpt><trkpt lat="39.35080223053052" lon="16.23183028298456"><ele>201.0</ele><time>2026-04-18T13:30:58.872Z</time></trkpt><trkpt lat="39.35071895125951" lon="16.232023093984974"><ele>201.0</ele><time>2026-04-18T13:30:59.872Z</time></trkpt><trkpt lat="39.3506240068246" lon="16.23221475444064"><ele>201.0</ele><time>2026-04-18T13:31:00.872Z</time></trkpt><trkpt lat="39.35051857655877" lon="16.23239852878619"><ele>201.0</ele><time>2026-04-18T13:31:01.872Z</time></trkpt><trkpt lat="39.35040637455638" lon="16.232575454602415"><ele>199.66666666666669</ele><time>2026-04-18T13:31:02.872Z</time></trkpt><trkpt lat="39.35028410160156" lon="16.232745948708992"><ele>198.33333333333334</ele><time>2026-04-18T13:31:03.872Z</time></trkpt><trkpt lat="39.350153713444584" lon="16.23291327817524"><ele>197.0</ele><time>2026-04-18T13:31:04.872Z</time></trkpt><trkpt lat="39.35001596849607" lon="16.233064759674367"><ele>197.0</ele><time>2026-04-18T13:31:05.872Z</time></trkpt><trkpt lat="39.34986904650462" lon="16.233209585729718"><ele>197.0</ele><time>2026-04-18T13:31:06.872Z</time></trkpt><trkpt lat="39.349712398091064" lon="16.23334351236652"><ele>197.0</ele><time>2026-04-18T13:31:07.872Z</time></trkpt><trkpt lat="39.34955719017082" lon="16.23346499010294"><ele>197.0</ele><time>2026-04-18T13:31:08.872Z</time></trkpt><trkpt lat="39.3493914238849" lon="16.233580091184578"><ele>197.0</ele><time>2026-04-18T13:31:09.872Z</time></trkpt><trkpt lat="39.34922934797339" lon="16.233680954096588"><ele>197.0</ele><time>2026-04-18T13:31:10.872Z</time></trkpt><trkpt lat="39.34906765668678" lon="16.233765357972054"><ele>197.0</ele><time>2026-04-18T13:31:11.872Z</time></trkpt><trkpt lat="39.34890300117316" lon="16.233835494899214"><ele>197.0</ele><time>2026-04-18T13:31:12.872Z</time></trkpt><trkpt lat="39.34873207368555" lon="16.233897265340097"><ele>197.0</ele><time>2026-04-18T13:31:13.872Z</time></trkpt><trkpt lat="39.34855731526905" lon="16.233944031405365"><ele>197.0</ele><time>2026-04-18T13:31:14.872Z</time></trkpt><trkpt lat="39.34838059798731" lon="16.233978242172604"><ele>197.0</ele><time>2026-04-18T13:31:15.872Z</time></trkpt><trkpt lat="39.34820260671662" lon="16.234001765911593"><ele>197.0</ele><time>2026-04-18T13:31:16.872Z</time></trkpt><trkpt lat="39.34802050539166" lon="16.23401433197707"><ele>198.0</ele><time>2026-04-18T13:31:17.872Z</time></trkpt><trkpt lat="39.347838318396555" lon="16.234013135328258"><ele>199.0</ele><time>2026-04-18T13:31:18.871Z</time></trkpt><trkpt lat="39.34765905795681" lon="16.233991374149294"><ele>200.0</ele><time>2026-04-18T13:31:19.871Z</time></trkpt><trkpt lat="39.34747302436992" lon="16.233971009828196"><ele>200.0</ele><time>2026-04-18T13:31:20.871Z</time></trkpt><trkpt lat="39.34729338374475" lon="16.23394105874449"><ele>200.0</ele><time>2026-04-18T13:31:21.871Z</time></trkpt><trkpt lat="39.34710708536155" lon="16.23391516319239"><ele>200.0</ele><time>2026-04-18T13:31:22.871Z</time></trkpt><trkpt lat="39.34692356062511" lon="16.23388779746758"><ele>203.66666666666669</ele><time>2026-04-18T13:31:23.87Z</time></trkpt><trkpt lat="39.346741605519775" lon="16.23385838747436"><ele>207.33333333333331</ele><time>2026-04-18T13:31:24.87Z</time></trkpt><trkpt lat="39.34654908685798" lon="16.233828267083027"><ele>211.0</ele><time>2026-04-18T13:31:25.87Z</time></trkpt><trkpt lat="39.346362460947915" lon="16.233795801391373"><ele>211.66666666666666</ele><time>2026-04-18T13:31:26.87Z</time></trkpt><trkpt lat="39.346174730413864" lon="16.23376453131928"><ele>212.33333333333331</ele><time>2026-04-18T13:31:27.87Z</time></trkpt><trkpt lat="39.34598299874178" lon="16.233732363491665"><ele>213.0</ele><time>2026-04-18T13:31:28.87Z</time></trkpt><trkpt lat="39.34579471862178" lon="16.23369605222959"><ele>213.0</ele><time>2026-04-18T13:31:29.87Z</time></trkpt><trkpt lat="39.3456026921296" lon="16.23366307270375"><ele>213.0</ele><time>2026-04-18T13:31:30.87Z</time></trkpt><trkpt lat="39.345414219602596" lon="16.233630817264736"><ele>213.0</ele><time>2026-04-18T13:31:31.87Z</time></trkpt><trkpt lat="39.34522481214952" lon="16.233598791636016"><ele>212.0</ele><time>2026-04-18T13:31:32.87Z</time></trkpt><trkpt lat="39.34503789717599" lon="16.23356583802426"><ele>211.0</ele><time>2026-04-18T13:31:33.87Z</time></trkpt><trkpt lat="39.344850679256865" lon="16.233533690825375"><ele>210.0</ele><time>2026-04-18T13:31:34.87Z</time></trkpt><trkpt lat="39.34466172275509" lon="16.233501757746005"><ele>209.33333333333331</ele><time>2026-04-18T13:31:35.87Z</time></trkpt><trkpt lat="39.34447384428954" lon="16.233471699531922"><ele>208.66666666666666</ele><time>2026-04-18T13:31:36.87Z</time></trkpt><trkpt lat="39.34428403293581" lon="16.23344484868122"><ele>208.0</ele><time>2026-04-18T13:31:37.87Z</time></trkpt><trkpt lat="39.34409782066012" lon="16.233414802549998"><ele>208.0</ele><time>2026-04-18T13:31:38.87Z</time></trkpt><trkpt lat="39.34391193790007" lon="16.233381910291676"><ele>208.0</ele><time>2026-04-18T13:31:39.87Z</time></trkpt><trkpt lat="39.34373055147749" lon="16.233350568506253"><ele>208.0</ele><time>2026-04-18T13:31:40.87Z</time></trkpt><trkpt lat="39.34354852707489" lon="16.23332033962846"><ele>208.33333333333331</ele><time>2026-04-18T13:31:41.87Z</time></trkpt><trkpt lat="39.34336421800749" lon="16.23329032031368"><ele>208.66666666666669</ele><time>2026-04-18T13:31:42.87Z</time></trkpt><trkpt lat="39.34317196633929" lon="16.23326050570575"><ele>209.0</ele><time>2026-04-18T13:31:43.87Z</time></trkpt><trkpt lat="39.34298318086225" lon="16.233229497433474"><ele>209.0</ele><time>2026-04-18T13:31:44.87Z</time></trkpt><trkpt lat="39.34279437021868" lon="16.233194149102555"><ele>209.0</ele><time>2026-04-18T13:31:45.87Z</time></trkpt><trkpt lat="39.342597584283894" lon="16.233159948228963"><ele>209.0</ele><time>2026-04-18T13:31:46.87Z</time></trkpt><trkpt lat="39.34238287678148" lon="16.233129066207884"><ele>211.0</ele><time>2026-04-18T13:31:47.87Z</time></trkpt><trkpt lat="39.3421653299776" lon="16.233095552834712"><ele>213.0</ele><time>2026-04-18T13:31:48.87Z</time></trkpt><trkpt lat="39.34195023993657" lon="16.233061937341176"><ele>215.0</ele><time>2026-04-18T13:31:49.87Z</time></trkpt><trkpt lat="39.34174455233361" lon="16.23303154870961"><ele>215.0</ele><time>2026-04-18T13:31:50.871Z</time></trkpt><trkpt lat="39.34154073538438" lon="16.232999439576805"><ele>215.0</ele><time>2026-04-18T13:31:51.871Z</time></trkpt><trkpt lat="39.34134655027988" lon="16.232964183234174"><ele>215.0</ele><time>2026-04-18T13:31:52.871Z</time></trkpt><trkpt lat="39.34116171309076" lon="16.23292436532077"><ele>213.33333333333334</ele><time>2026-04-18T13:31:53.871Z</time></trkpt><trkpt lat="39.34097541877376" lon="16.23288242627352"><ele>211.66666666666669</ele><time>2026-04-18T13:31:54.871Z</time></trkpt><trkpt lat="39.34078885777805" lon="16.23282642825758"><ele>210.0</ele><time>2026-04-18T13:31:55.871Z</time></trkpt><trkpt lat="39.340603056320425" lon="16.232746754445355"><ele>208.66666666666669</ele><time>2026-04-18T13:31:56.871Z</time></trkpt><trkpt lat="39.340430573870215" lon="16.232644932325584"><ele>207.33333333333334</ele><time>2026-04-18T13:31:57.871Z</time></trkpt><trkpt lat="39.34025440762924" lon="16.232520570868427"><ele>206.0</ele><time>2026-04-18T13:31:58.871Z</time></trkpt><trkpt lat="39.340092090531364" lon="16.23238184380872"><ele>206.33333333333334</ele><time>2026-04-18T13:31:59.871Z</time></trkpt><trkpt lat="39.33993288984855" lon="16.232228379118677"><ele>206.66666666666669</ele><time>2026-04-18T13:32:00.871Z</time></trkpt><trkpt lat="39.339786766286636" lon="16.23205856575361"><ele>207.0</ele><time>2026-04-18T13:32:01.871Z</time></trkpt><trkpt lat="39.33964867302888" lon="16.23187090054537"><ele>207.0</ele><time>2026-04-18T13:32:02.871Z</time></trkpt><trkpt lat="39.339521686477006" lon="16.231670387037642"><ele>207.0</ele><time>2026-04-18T13:32:03.871Z</time></trkpt><trkpt lat="39.33940471245144" lon="16.231461593055084"><ele>207.0</ele><time>2026-04-18T13:32:04.871Z</time></trkpt><trkpt lat="39.33929385289771" lon="16.23124134349391"><ele>209.33333333333331</ele><time>2026-04-18T13:32:05.871Z</time></trkpt><trkpt lat="39.339188081899096" lon="16.23102021855519"><ele>211.66666666666666</ele><time>2026-04-18T13:32:06.871Z</time></trkpt><trkpt lat="39.33908209927524" lon="16.23080269702133"><ele>214.0</ele><time>2026-04-18T13:32:07.871Z</time></trkpt><trkpt lat="39.338972238273314" lon="16.23058289699065"><ele>212.66666666666666</ele><time>2026-04-18T13:32:08.871Z</time></trkpt><trkpt lat="39.3388645646744" lon="16.230365328089203"><ele>211.33333333333331</ele><time>2026-04-18T13:32:09.871Z</time></trkpt><trkpt lat="39.33875614522261" lon="16.230147432820406"><ele>210.0</ele><time>2026-04-18T13:32:10.871Z</time></trkpt><trkpt lat="39.33864345732473" lon="16.229933208400304"><ele>210.66666666666669</ele><time>2026-04-18T13:32:11.871Z</time></trkpt><trkpt lat="39.338517786992156" lon="16.229734018544082"><ele>211.33333333333334</ele><time>2026-04-18T13:32:12.871Z</time></trkpt><trkpt lat="39.33837335862322" lon="16.22955584585709"><ele>212.0</ele><time>2026-04-18T13:32:13.871Z</time></trkpt><trkpt lat="39.33821504707787" lon="16.229390308391114"><ele>211.33333333333334</ele><time>2026-04-18T13:32:14.871Z</time></trkpt><trkpt lat="39.338046117976624" lon="16.229245140868173"><ele>210.66666666666669</ele><time>2026-04-18T13:32:15.871Z</time></trkpt><trkpt lat="39.3378610774734" lon="16.22911451846801"><ele>210.0</ele><time>2026-04-18T13:32:16.871Z</time></trkpt><trkpt lat="39.33766918276965" lon="16.229003760331207"><ele>211.0</ele><time>2026-04-18T13:32:17.871Z</time></trkpt><trkpt lat="39.33747270476323" lon="16.22891392751659"><ele>212.0</ele><time>2026-04-18T13:32:18.871Z</time></trkpt><trkpt lat="39.33727781265033" lon="16.228850760982937"><ele>213.0</ele><time>2026-04-18T13:32:19.871Z</time></trkpt><trkpt lat="39.337085097696615" lon="16.228817416584764"><ele>211.0</ele><time>2026-04-18T13:32:20.871Z</time></trkpt><trkpt lat="39.33688709604389" lon="16.22880440224114"><ele>209.0</ele><time>2026-04-18T13:32:21.871Z</time></trkpt><trkpt lat="39.33668815522077" lon="16.228806915039325"><ele>207.0</ele><time>2026-04-18T13:32:22.871Z</time></trkpt><trkpt lat="39.336489435552906" lon="16.22882816806063"><ele>206.0</ele><time>2026-04-18T13:32:23.871Z</time></trkpt><trkpt lat="39.33628832490358" lon="16.228868350337375"><ele>205.0</ele><time>2026-04-18T13:32:24.871Z</time></trkpt><trkpt lat="39.336085822652784" lon="16.22892058449606"><ele>204.0</ele><time>2026-04-18T13:32:25.871Z</time></trkpt><trkpt lat="39.335878215068426" lon="16.228971116818837"><ele>204.5</ele><time>2026-04-18T13:32:26.871Z</time></trkpt><trkpt lat="39.335648805368734" lon="16.22902217139464"><ele>205.0</ele><time>2026-04-18T13:32:27.871Z</time></trkpt><trkpt lat="39.33543392933354" lon="16.229069222127002"><ele>204.0</ele><time>2026-04-18T13:32:28.871Z</time></trkpt><trkpt lat="39.3352260697944" lon="16.229114070917685"><ele>203.0</ele><time>2026-04-18T13:32:29.871Z</time></trkpt><trkpt lat="39.33502108092421" lon="16.22915654699892"><ele>202.0</ele><time>2026-04-18T13:32:30.871Z</time></trkpt><trkpt lat="39.334812583841575" lon="16.22919681074844"><ele>203.33333333333331</ele><time>2026-04-18T13:32:31.871Z</time></trkpt><trkpt lat="39.33460875864369" lon="16.229239385879026"><ele>204.66666666666669</ele><time>2026-04-18T13:32:32.871Z</time></trkpt><trkpt lat="39.334421630390715" lon="16.229277133763645"><ele>206.0</ele><time>2026-04-18T13:32:33.871Z</time></trkpt><trkpt lat="39.33423596187314" lon="16.229316098643345"><ele>206.0</ele><time>2026-04-18T13:32:34.871Z</time></trkpt><trkpt lat="39.33404623591612" lon="16.229360561737785"><ele>206.0</ele><time>2026-04-18T13:32:35.871Z</time></trkpt><trkpt lat="39.3338547958956" lon="16.229424552308533"><ele>206.0</ele><time>2026-04-18T13:32:36.87Z</time></trkpt><trkpt lat="39.3336782588424" lon="16.229510400361008"><ele>206.66666666666669</ele><time>2026-04-18T13:32:37.87Z</time></trkpt><trkpt lat="39.33350338074729" lon="16.22961722612128"><ele>207.33333333333331</ele><time>2026-04-18T13:32:38.87Z</time></trkpt><trkpt lat="39.33332607130972" lon="16.229752330357886"><ele>208.0</ele><time>2026-04-18T13:32:39.87Z</time></trkpt><trkpt lat="39.33315927291921" lon="16.22990403429419"><ele>208.66666666666666</ele><time>2026-04-18T13:32:40.87Z</time></trkpt><trkpt lat="39.33300328612006" lon="16.230067948821606"><ele>209.33333333333331</ele><time>2026-04-18T13:32:41.87Z</time></trkpt><trkpt lat="39.33285752917019" lon="16.230250965593452"><ele>210.0</ele><time>2026-04-18T13:32:42.87Z</time></trkpt><trkpt lat="39.33273158188081" lon="16.230443447153675"><ele>211.33333333333331</ele><time>2026-04-18T13:32:43.87Z</time></trkpt><trkpt lat="39.33261839059229" lon="16.23066119693587"><ele>212.66666666666666</ele><time>2026-04-18T13:32:44.87Z</time></trkpt><trkpt lat="39.33252201186136" lon="16.230882627941366"><ele>214.0</ele><time>2026-04-18T13:32:45.87Z</time></trkpt><trkpt lat="39.33243962502058" lon="16.231121510180316"><ele>214.0</ele><time>2026-04-18T13:32:46.87Z</time></trkpt><trkpt lat="39.33237495171601" lon="16.231362239504456"><ele>214.0</ele><time>2026-04-18T13:32:47.87Z</time></trkpt><trkpt lat="39.332327126255635" lon="16.231598257520744"><ele>214.0</ele><time>2026-04-18T13:32:48.87Z</time></trkpt><trkpt lat="39.332297703454294" lon="16.23182864979028"><ele>213.66666666666666</ele><time>2026-04-18T13:32:49.87Z</time></trkpt><trkpt lat="39.33227895257043" lon="16.23206787522294"><ele>213.33333333333331</ele><time>2026-04-18T13:32:50.87Z</time></trkpt><trkpt lat="39.33227425135045" lon="16.23230947396821"><ele>213.0</ele><time>2026-04-18T13:32:51.87Z</time></trkpt><trkpt lat="39.332291180588825" lon="16.232550662492343"><ele>213.0</ele><time>2026-04-18T13:32:52.87Z</time></trkpt><trkpt lat="39.33231877820544" lon="16.232787596922822"><ele>213.0</ele><time>2026-04-18T13:32:53.87Z</time></trkpt><trkpt lat="39.332353520462824" lon="16.23301169035539"><ele>213.0</ele><time>2026-04-18T13:32:54.87Z</time></trkpt><trkpt lat="39.33239091964284" lon="16.23322357749278"><ele>214.0</ele><time>2026-04-18T13:32:55.87Z</time></trkpt><trkpt lat="39.332407205506556" lon="16.233437304135965"><ele>215.0</ele><time>2026-04-18T13:32:56.87Z</time></trkpt><trkpt lat="39.33243869907291" lon="16.233643097236914"><ele>216.0</ele><time>2026-04-18T13:32:57.87Z</time></trkpt><trkpt lat="39.33247050541569" lon="16.23384357049786"><ele>216.66666666666669</ele><time>2026-04-18T13:32:58.87Z</time></trkpt><trkpt lat="39.332504859947655" lon="16.234048372574932"><ele>217.33333333333334</ele><time>2026-04-18T13:32:59.87Z</time></trkpt><trkpt lat="39.33254072939959" lon="16.234255426045777"><ele>218.0</ele><time>2026-04-18T13:33:00.87Z</time></trkpt><trkpt lat="39.33257735826881" lon="16.234466863403114"><ele>218.0</ele><time>2026-04-18T13:33:01.87Z</time></trkpt><trkpt lat="39.332613342723526" lon="16.234674580798437"><ele>218.0</ele><time>2026-04-18T13:33:02.87Z</time></trkpt><trkpt lat="39.33264864010596" lon="16.23487982301042"><ele>218.0</ele><time>2026-04-18T13:33:03.87Z</time></trkpt><trkpt lat="39.33268425256157" lon="16.235090303088334"><ele>217.33333333333334</ele><time>2026-04-18T13:33:04.87Z</time></trkpt><trkpt lat="39.332719471755624" lon="16.235298460311853"><ele>216.66666666666669</ele><time>2026-04-18T13:33:05.87Z</time></trkpt><trkpt lat="39.33277086231646" lon="16.235496638397372"><ele>216.0</ele><time>2026-04-18T13:33:06.87Z</time></trkpt><trkpt lat="39.33280219674074" lon="16.235690007998546"><ele>215.0</ele><time>2026-04-18T13:33:07.87Z</time></trkpt><trkpt lat="39.33283258525066" lon="16.235879032676284"><ele>214.0</ele><time>2026-04-18T13:33:08.87Z</time></trkpt><trkpt lat="39.332864718411976" lon="16.23606897274504"><ele>213.0</ele><time>2026-04-18T13:33:09.87Z</time></trkpt><trkpt lat="39.332896054223475" lon="16.23625152391947"><ele>212.0</ele><time>2026-04-18T13:33:10.87Z</time></trkpt><trkpt lat="39.33293169014936" lon="16.236443910858014"><ele>211.5</ele><time>2026-04-18T13:33:11.87Z</time></trkpt><trkpt lat="39.33296187050306" lon="16.236634487432873"><ele>211.0</ele><time>2026-04-18T13:33:12.87Z</time></trkpt><trkpt lat="39.332988276517916" lon="16.23682285304575"><ele>210.5</ele><time>2026-04-18T13:33:13.87Z</time></trkpt><trkpt lat="39.333010684503314" lon="16.237007810190082"><ele>210.0</ele><time>2026-04-18T13:33:14.87Z</time></trkpt><trkpt lat="39.3330272856521" lon="16.237197764373054"><ele>209.25</ele><time>2026-04-18T13:33:15.87Z</time></trkpt><trkpt lat="39.33302418861112" lon="16.237382305001432"><ele>208.5</ele><time>2026-04-18T13:33:16.87Z</time></trkpt><trkpt lat="39.33300699426031" lon="16.237559249859885"><ele>207.75</ele><time>2026-04-18T13:33:17.87Z</time></trkpt><trkpt lat="39.33298491088251" lon="16.237734450068828"><ele>207.0</ele><time>2026-04-18T13:33:18.87Z</time></trkpt><trkpt lat="39.332955824537" lon="16.237912368123784"><ele>207.0</ele><time>2026-04-18T13:33:19.87Z</time></trkpt><trkpt lat="39.33293907262867" lon="16.23807904288194"><ele>207.0</ele><time>2026-04-18T13:33:20.87Z</time></trkpt><trkpt lat="39.332917214389084" lon="16.23823333546453"><ele>207.0</ele><time>2026-04-18T13:33:21.87Z</time></trkpt><trkpt lat="39.33288754483833" lon="16.23838580645673"><ele>207.0</ele><time>2026-04-18T13:33:22.87Z</time></trkpt><trkpt lat="39.33285165279251" lon="16.23851856328686"><ele>206.8</ele><time>2026-04-18T13:33:23.87Z</time></trkpt><trkpt lat="39.33282577485923" lon="16.238640040463675"><ele>206.6</ele><time>2026-04-18T13:33:24.87Z</time></trkpt><trkpt lat="39.33280493907948" lon="16.2387436016257"><ele>206.4</ele><time>2026-04-18T13:33:25.87Z</time></trkpt><trkpt lat="39.33278588356771" lon="16.238880928030337"><ele>206.20000000000002</ele><time>2026-04-18T13:33:27.87Z</time></trkpt><trkpt lat="39.33274690462537" lon="16.23897953176565"><ele>206.0</ele><time>2026-04-18T13:33:30.87Z</time></trkpt><trkpt lat="39.332665937039756" lon="16.239035358893357"><ele>206.0</ele><time>2026-04-18T13:33:33.87Z</time></trkpt><trkpt lat="39.33255322948718" lon="16.239086400031358"><ele>206.0</ele><time>2026-04-18T13:33:35.87Z</time></trkpt><trkpt lat="39.33247973683122" lon="16.23911969461953"><ele>206.0</ele><time>2026-04-18T13:33:36.87Z</time></trkpt><trkpt lat="39.33239869945495" lon="16.23916160272273"><ele>206.0</ele><time>2026-04-18T13:33:37.87Z</time></trkpt><trkpt lat="39.33231603344154" lon="16.23920575496233"><ele>206.0</ele><time>2026-04-18T13:33:38.87Z</time></trkpt><trkpt lat="39.33224279617116" lon="16.23923909376588"><ele>206.33333333333334</ele><time>2026-04-18T13:33:39.87Z</time></trkpt><trkpt lat="39.33217521180048" lon="16.23926765865156"><ele>206.66666666666669</ele><time>2026-04-18T13:33:40.87Z</time></trkpt><trkpt lat="39.33211376597555" lon="16.239288703095973"><ele>207.0</ele><time>2026-04-18T13:33:41.87Z</time></trkpt><trkpt lat="39.33204423603415" lon="16.239304555348102"><ele>207.33333333333331</ele><time>2026-04-18T13:33:42.87Z</time></trkpt><trkpt lat="39.33195457005013" lon="16.23931558876134"><ele>207.66666666666666</ele><time>2026-04-18T13:33:43.87Z</time></trkpt><trkpt lat="39.33183941890737" lon="16.239302502163966"><ele>208.0</ele><time>2026-04-18T13:33:44.87Z</time></trkpt><trkpt lat="39.331707667606175" lon="16.23928777091703"><ele>208.0</ele><time>2026-04-18T13:33:45.87Z</time></trkpt><trkpt lat="39.33157505134822" lon="16.239275866670443"><ele>208.0</ele><time>2026-04-18T13:33:46.87Z</time></trkpt><trkpt lat="39.33146146876558" lon="16.239257864430307"><ele>208.0</ele><time>2026-04-18T13:33:47.87Z</time></trkpt><trkpt lat="39.3313709311276" lon="16.23923500530693"><ele>208.0</ele><time>2026-04-18T13:33:48.87Z</time></trkpt><trkpt lat="39.3312904516951" lon="16.239214386223015"><ele>208.0</ele><time>2026-04-18T13:33:49.87Z</time></trkpt><trkpt lat="39.331215046314334" lon="16.239203300583746"><ele>208.2</ele><time>2026-04-18T13:33:50.87Z</time></trkpt><trkpt lat="39.33115482609636" lon="16.239227679012792"><ele>208.4</ele><time>2026-04-18T13:33:51.87Z</time></trkpt><trkpt lat="39.33107795210481" lon="16.23937668260528"><ele>208.6</ele><time>2026-04-18T13:33:53.87Z</time></trkpt><trkpt lat="39.331086699492076" lon="16.239505158788354"><ele>208.79999999999998</ele><time>2026-04-18T13:33:54.87Z</time></trkpt><trkpt lat="39.331067432370844" lon="16.2396359341011"><ele>209.0</ele><time>2026-04-18T13:33:55.87Z</time></trkpt><trkpt lat="39.33101888848509" lon="16.239784096154082"><ele>209.0</ele><time>2026-04-18T13:33:56.87Z</time></trkpt><trkpt lat="39.33096403381482" lon="16.23995381310203"><ele>209.0</ele><time>2026-04-18T13:33:57.87Z</time></trkpt><trkpt lat="39.330909387271404" lon="16.240112104508572"><ele>209.0</ele><time>2026-04-18T13:33:58.87Z</time></trkpt><trkpt lat="39.330868313971095" lon="16.24022312088447"><ele>209.0</ele><time>2026-04-18T13:33:59.87Z</time></trkpt><trkpt lat="39.33083788612634" lon="16.24029534356861"><ele>209.0</ele><time>2026-04-18T13:34:00.87Z</time></trkpt><trkpt lat="39.33079198573557" lon="16.240393144011843"><ele>209.0</ele><time>2026-04-18T13:34:02.87Z</time></trkpt><trkpt lat="39.33076435894463" lon="16.24048454182134"><ele>209.0</ele><time>2026-04-18T13:34:05.87Z</time></trkpt></trkseg></trk></gpx>